<?xml version='1.0' encoding='UTF-8'?><gpx version="1.1" creator="JPX - https://github.com/jenetics/jpx" xmlns="http://www.topografix.com/GPX/1/1"><trk><trkseg><trkpt lat="45.379714033812995" lon="9.219082572726972"><ele>99.85714285714286</ele><time>2026-04-12T05:52:40.996Z</time></trkpt><trkpt lat="45.3796408853144" lon="9.219101232605926"><ele>99.71428571428572</ele><time>2026-04-12T05:52:42.996Z</time></trkpt><trkpt lat="45.37957223338319" lon="9.2191023107919"><ele>99.57142857142858</ele><time>2026-04-12T05:52:44.996Z</time></trkpt><trkpt lat="45.37949494238842" lon="9.219113600805715"><ele>99.42857142857143</ele><time>2026-04-12T05:52:47.997Z</time></trkpt><trkpt lat="45.37943492013148" lon="9.219142465340957"><ele>99.28571428571428</ele><time>2026-04-12T05:53:56Z</time></trkpt><trkpt lat="45.37935750965081" lon="9.219161511938664"><ele>99.14285714285715</ele><time>2026-04-12T05:54:03Z</time></trkpt><trkpt lat="45.37928328536112" lon="9.219104653183848"><ele>99.0</ele><time>2026-04-12T05:54:07Z</time></trkpt><trkpt lat="45.37925180704694" lon="9.219002984928784"><ele>99.0</ele><time>2026-04-12T05:54:09Z</time></trkpt><trkpt lat="45.37920472045164" lon="9.218935302230037"><ele>99.0</ele><time>2026-04-12T05:54:11Z</time></trkpt><trkpt lat="45.379156400521474" lon="9.218874002098492"><ele>99.0</ele><time>2026-04-12T05:54:13Z</time></trkpt><trkpt lat="45.37909623538097" lon="9.218776503881902"><ele>99.0</ele><time>2026-04-12T05:54:15Z</time></trkpt><trkpt lat="45.37898758105688" lon="9.218737586189548"><ele>99.0</ele><time>2026-04-12T05:54:17Z</time></trkpt><trkpt lat="45.37888873070262" lon="9.218727298965016"><ele>99.0</ele><time>2026-04-12T05:54:19Z</time></trkpt><trkpt lat="45.378792797359424" lon="9.21874257225552"><ele>99.0</ele><time>2026-04-12T05:54:21Z</time></trkpt><trkpt lat="45.37870874086486" lon="9.218778660704603"><ele>99.0</ele><time>2026-04-12T05:54:23Z</time></trkpt><trkpt lat="45.378620869933016" lon="9.218816052665554"><ele>99.0</ele><time>2026-04-12T05:54:25Z</time></trkpt><trkpt lat="45.37854086081191" lon="9.218881526613682"><ele>99.0</ele><time>2026-04-12T05:54:27Z</time></trkpt><trkpt lat="45.378466199863745" lon="9.218941553802363"><ele>99.0</ele><time>2026-04-12T05:54:29Z</time></trkpt><trkpt lat="45.37839753552434" lon="9.21902664531445"><ele>99.0</ele><time>2026-04-12T05:54:31Z</time></trkpt><trkpt lat="45.378328849343" lon="9.219097953466791"><ele>99.0</ele><time>2026-04-12T05:54:33Z</time></trkpt><trkpt lat="45.37825758692493" lon="9.219176184746395"><ele>99.0</ele><time>2026-04-12T05:54:35Z</time></trkpt><trkpt lat="45.37818863757118" lon="9.219267772443505"><ele>99.0</ele><time>2026-04-12T05:54:37Z</time></trkpt><trkpt lat="45.37811401541825" lon="9.219348615950405"><ele>99.0</ele><time>2026-04-12T05:54:39Z</time></trkpt><trkpt lat="45.378031060539335" lon="9.21942120600923"><ele>99.0</ele><time>2026-04-12T05:54:41Z</time></trkpt><trkpt lat="45.377936893027794" lon="9.219474025447884"><ele>99.0</ele><time>2026-04-12T05:54:43Z</time></trkpt><trkpt lat="45.377862334396895" lon="9.219533313462325"><ele>99.0</ele><time>2026-04-12T05:54:45Z</time></trkpt><trkpt lat="45.3777796910969" lon="9.219572522678199"><ele>99.0</ele><time>2026-04-12T05:54:47Z</time></trkpt><trkpt lat="45.37770841272516" lon="9.219614728292116"><ele>99.0</ele><time>2026-04-12T05:54:49Z</time></trkpt><trkpt lat="45.37763441684446" lon="9.219627041837345"><ele>99.0</ele><time>2026-04-12T05:54:51Z</time></trkpt><trkpt lat="45.3775657806882" lon="9.21962701921197"><ele>99.0</ele><time>2026-04-12T05:54:53Z</time></trkpt><trkpt lat="45.377497118976315" lon="9.219635720984403"><ele>99.0</ele><time>2026-04-12T05:54:55Z</time></trkpt><trkpt lat="45.377413581752904" lon="9.219608355926857"><ele>99.0</ele><time>2026-04-12T05:54:58Z</time></trkpt><trkpt lat="45.377349291049676" lon="9.219576301637867"><ele>99.0</ele><time>2026-04-12T05:55:00Z</time></trkpt><trkpt lat="45.37728033696189" lon="9.219499467691815"><ele>99.0</ele><time>2026-04-12T05:55:03Z</time></trkpt><trkpt lat="45.377207216681185" lon="9.21946583194521"><ele>99.0</ele><time>2026-04-12T05:55:07Z</time></trkpt><trkpt lat="45.37718260050844" lon="9.21955451750879"><ele>99.0</ele><time>2026-04-12T05:56:31Z</time></trkpt><trkpt lat="45.37710977255498" lon="9.219607042494799"><ele>98.66666666666667</ele><time>2026-04-12T05:56:35Z</time></trkpt><trkpt lat="45.377035783860585" lon="9.21957189932564"><ele>98.33333333333334</ele><time>2026-04-12T05:56:37Z</time></trkpt><trkpt lat="45.37695748807825" lon="9.219532094577124"><ele>98.0</ele><time>2026-04-12T05:56:39Z</time></trkpt><trkpt lat="45.37688730730603" lon="9.219485682488555"><ele>97.66666666666667</ele><time>2026-04-12T05:56:41Z</time></trkpt><trkpt lat="45.37681488395227" lon="9.219424817344553"><ele>97.33333333333334</ele><time>2026-04-12T05:56:43Z</time></trkpt><trkpt lat="45.37675617630099" lon="9.219370710468612"><ele>97.0</ele><time>2026-04-12T05:56:45Z</time></trkpt><trkpt lat="45.37667987810314" lon="9.21931636746152"><ele>97.0</ele><time>2026-04-12T05:56:47Z</time></trkpt><trkpt lat="45.37658860653581" lon="9.219273815562595"><ele>97.0</ele><time>2026-04-12T05:56:49Z</time></trkpt><trkpt lat="45.37649975483286" lon="9.219265015367727"><ele>97.0</ele><time>2026-04-12T05:56:51Z</time></trkpt><trkpt lat="45.376404315887704" lon="9.21927650455009"><ele>97.0</ele><time>2026-04-12T05:56:53Z</time></trkpt><trkpt lat="45.37631603938481" lon="9.21930481149483"><ele>97.0</ele><time>2026-04-12T05:56:55Z</time></trkpt><trkpt lat="45.37621604190883" lon="9.219350342546331"><ele>97.0</ele><time>2026-04-12T05:56:57Z</time></trkpt><trkpt lat="45.37611584332917" lon="9.21935645844662"><ele>97.0</ele><time>2026-04-12T05:56:59Z</time></trkpt><trkpt lat="45.37601147979857" lon="9.219361855440734"><ele>97.0</ele><time>2026-04-12T05:57:01Z</time></trkpt><trkpt lat="45.375890766832555" lon="9.219337769191618"><ele>97.0</ele><time>2026-04-12T05:57:03Z</time></trkpt><trkpt lat="45.37578392130164" lon="9.219273973062691"><ele>97.0</ele><time>2026-04-12T05:57:05Z</time></trkpt><trkpt lat="45.375686651963186" lon="9.219192417304438"><ele>97.0</ele><time>2026-04-12T05:57:07Z</time></trkpt><trkpt lat="45.37560443315587" lon="9.219093917922082"><ele>97.0</ele><time>2026-04-12T05:57:09Z</time></trkpt><trkpt lat="45.37555064402871" lon="9.218964835568075"><ele>97.0</ele><time>2026-04-12T05:57:11Z</time></trkpt><trkpt lat="45.37550014393919" lon="9.218834361640688"><ele>97.0</ele><time>2026-04-12T05:57:13Z</time></trkpt><trkpt lat="45.375420709952856" lon="9.218796686882468"><ele>97.0</ele><time>2026-04-12T05:57:15Z</time></trkpt><trkpt lat="45.37531650064267" lon="9.218839330050823"><ele>97.6</ele><time>2026-04-12T05:57:17Z</time></trkpt><trkpt lat="45.37521473183759" lon="9.218859269529556"><ele>98.19999999999999</ele><time>2026-04-12T05:57:19Z</time></trkpt><trkpt lat="45.3751155394433" lon="9.218865075566606"><ele>98.8</ele><time>2026-04-12T05:57:21Z</time></trkpt><trkpt lat="45.375015167707495" lon="9.218888017424973"><ele>99.4</ele><time>2026-04-12T05:57:23Z</time></trkpt><trkpt lat="45.37491481344529" lon="9.218900705566227"><ele>100.0</ele><time>2026-04-12T05:57:25Z</time></trkpt><trkpt lat="45.37481733173292" lon="9.218909364548312"><ele>100.0</ele><time>2026-04-12T05:57:27Z</time></trkpt><trkpt lat="45.37471798615826" lon="9.218928599204242"><ele>100.0</ele><time>2026-04-12T05:57:29Z</time></trkpt><trkpt lat="45.37461946978529" lon="9.218940711409699"><ele>100.0</ele><time>2026-04-12T05:57:31Z</time></trkpt><trkpt lat="45.37452228748053" lon="9.218951874215826"><ele>100.0</ele><time>2026-04-12T05:57:33Z</time></trkpt><trkpt lat="45.37442874604658" lon="9.218961370806607"><ele>100.0</ele><time>2026-04-12T05:57:35Z</time></trkpt><trkpt lat="45.37433071672461" lon="9.218977939608742"><ele>99.4</ele><time>2026-04-12T05:57:37Z</time></trkpt><trkpt lat="45.37423056247766" lon="9.218991439476786"><ele>98.8</ele><time>2026-04-12T05:57:39Z</time></trkpt><trkpt lat="45.37413784801065" lon="9.218987297088807"><ele>98.19999999999999</ele><time>2026-04-12T05:57:41Z</time></trkpt><trkpt lat="45.37406482623251" lon="9.218907003371283"><ele>97.6</ele><time>2026-04-12T05:57:43Z</time></trkpt><trkpt lat="45.37403825031406" lon="9.218789246709566"><ele>97.0</ele><time>2026-04-12T05:57:45Z</time></trkpt><trkpt lat="45.37403465998474" lon="9.218668757680778"><ele>97.00000000000001</ele><time>2026-04-12T05:57:47Z</time></trkpt><trkpt lat="45.374049280488414" lon="9.218551852623168"><ele>97.0</ele><time>2026-04-12T05:57:49Z</time></trkpt><trkpt lat="45.37409055929996" lon="9.218442845607917"><ele>97.0</ele><time>2026-04-12T05:57:51Z</time></trkpt><trkpt lat="45.37415611510397" lon="9.218363548154727"><ele>97.0</ele><time>2026-04-12T05:57:53Z</time></trkpt><trkpt lat="45.37421039857277" lon="9.21829369434664"><ele>97.00000000000001</ele><time>2026-04-12T05:57:55Z</time></trkpt><trkpt lat="45.3742592597559" lon="9.218217138278233"><ele>97.0</ele><time>2026-04-12T05:57:57Z</time></trkpt><trkpt lat="45.374305331546836" lon="9.218137267045922"><ele>97.50000000000001</ele><time>2026-04-12T05:57:59Z</time></trkpt><trkpt lat="45.37433217212279" lon="9.218030749789431"><ele>98.0</ele><time>2026-04-12T05:58:01Z</time></trkpt><trkpt lat="45.374314012148965" lon="9.21793491712974"><ele>98.5</ele><time>2026-04-12T05:58:03Z</time></trkpt><trkpt lat="45.37425485710771" lon="9.217845208253733"><ele>99.0</ele><time>2026-04-12T05:58:05Z</time></trkpt><trkpt lat="45.37422938590936" lon="9.217730404916644"><ele>99.50000000000001</ele><time>2026-04-12T05:58:07Z</time></trkpt><trkpt lat="45.37418822880883" lon="9.217622245456147"><ele>100.0</ele><time>2026-04-12T05:58:09Z</time></trkpt><trkpt lat="45.374127654706626" lon="9.21751144215391"><ele>100.00000000000001</ele><time>2026-04-12T05:58:11Z</time></trkpt><trkpt lat="45.374046412086884" lon="9.217488035010962"><ele>100.0</ele><time>2026-04-12T05:58:13Z</time></trkpt><trkpt lat="45.37395776718159" lon="9.217480719044248"><ele>100.0</ele><time>2026-04-12T05:58:15Z</time></trkpt><trkpt lat="45.373872697402646" lon="9.217465024752434"><ele>100.0</ele><time>2026-04-12T05:58:17Z</time></trkpt><trkpt lat="45.37379421721164" lon="9.217431721665006"><ele>100.00000000000001</ele><time>2026-04-12T05:58:19Z</time></trkpt><trkpt lat="45.37371587074618" lon="9.217430207114345"><ele>100.0</ele><time>2026-04-12T05:58:21Z</time></trkpt><trkpt lat="45.3736265876276" lon="9.217464829849291"><ele>99.6</ele><time>2026-04-12T05:58:23Z</time></trkpt><trkpt lat="45.37353642184442" lon="9.217489529135621"><ele>99.2</ele><time>2026-04-12T05:58:25Z</time></trkpt><trkpt lat="45.373461036885445" lon="9.217414529042225"><ele>98.80000000000001</ele><time>2026-04-12T05:58:27Z</time></trkpt><trkpt lat="45.37342375442927" lon="9.217272904337475"><ele>98.4</ele><time>2026-04-12T05:58:29Z</time></trkpt><trkpt lat="45.37337492090435" lon="9.21715854321109"><ele>98.0</ele><time>2026-04-12T05:58:31Z</time></trkpt><trkpt lat="45.37328598594096" lon="9.217146274812462"><ele>97.83333333333333</ele><time>2026-04-12T05:58:33Z</time></trkpt><trkpt lat="45.37327340602423" lon="9.217010402522217"><ele>97.66666666666666</ele><time>2026-04-12T05:58:35Z</time></trkpt><trkpt lat="45.373263928609084" lon="9.21689343611334"><ele>97.5</ele><time>2026-04-12T05:58:37Z</time></trkpt><trkpt lat="45.373203789279" lon="9.216838052811928"><ele>97.33333333333334</ele><time>2026-04-12T05:58:39Z</time></trkpt><trkpt lat="45.37309632016198" lon="9.216868273448659"><ele>97.16666666666667</ele><time>2026-04-12T05:58:41Z</time></trkpt><trkpt lat="45.37301205366618" lon="9.216894631379636"><ele>97.0</ele><time>2026-04-12T05:58:43Z</time></trkpt><trkpt lat="45.372928777231046" lon="9.216868185512444"><ele>97.0</ele><time>2026-04-12T05:58:45Z</time></trkpt><trkpt lat="45.372839122281256" lon="9.216815270599572"><ele>97.0</ele><time>2026-04-12T05:58:47Z</time></trkpt><trkpt lat="45.372752028398715" lon="9.216784726512486"><ele>97.0</ele><time>2026-04-12T05:58:49Z</time></trkpt><trkpt lat="45.37266126268273" lon="9.216752005397307"><ele>97.0</ele><time>2026-04-12T05:58:51Z</time></trkpt><trkpt lat="45.372572066983174" lon="9.216720090979425"><ele>97.0</ele><time>2026-04-12T05:58:53Z</time></trkpt><trkpt lat="45.37249285707796" lon="9.216670097973134"><ele>97.00000000000001</ele><time>2026-04-12T05:58:55Z</time></trkpt><trkpt lat="45.372419652090684" lon="9.216605930710319"><ele>97.0</ele><time>2026-04-12T05:58:57Z</time></trkpt><trkpt lat="45.372364496776356" lon="9.216541173930933"><ele>97.0</ele><time>2026-04-12T05:58:59Z</time></trkpt><trkpt lat="45.372309783767584" lon="9.216467532781978"><ele>97.0</ele><time>2026-04-12T05:59:02Z</time></trkpt><trkpt lat="45.37230549228125" lon="9.216329645089179"><ele>97.00000000000001</ele><time>2026-04-12T05:59:04Z</time></trkpt><trkpt lat="45.372294997662145" lon="9.216206423965755"><ele>97.0</ele><time>2026-04-12T05:59:06Z</time></trkpt><trkpt lat="45.372278306557774" lon="9.216072365515696"><ele>97.0</ele><time>2026-04-12T05:59:08Z</time></trkpt><trkpt lat="45.37226601696563" lon="9.215933919506956"><ele>97.0</ele><time>2026-04-12T05:59:10Z</time></trkpt><trkpt lat="45.37225167571681" lon="9.215793955717722"><ele>97.0</ele><time>2026-04-12T05:59:12Z</time></trkpt><trkpt lat="45.372233900811125" lon="9.215652833186649"><ele>97.0</ele><time>2026-04-12T05:59:14Z</time></trkpt><trkpt lat="45.3722244211386" lon="9.215508744402003"><ele>97.0</ele><time>2026-04-12T05:59:16Z</time></trkpt><trkpt lat="45.3722051867313" lon="9.215369637853865"><ele>97.39999999999999</ele><time>2026-04-12T05:59:18Z</time></trkpt><trkpt lat="45.372193216291805" lon="9.215227426387004"><ele>97.8</ele><time>2026-04-12T05:59:20Z</time></trkpt><trkpt lat="45.372181192353054" lon="9.21508671072889"><ele>98.2</ele><time>2026-04-12T05:59:22Z</time></trkpt><trkpt lat="45.37216857425239" lon="9.214944654831388"><ele>98.6</ele><time>2026-04-12T05:59:24Z</time></trkpt><trkpt lat="45.37215020813044" lon="9.214800903123605"><ele>99.0</ele><time>2026-04-12T05:59:26Z</time></trkpt><trkpt lat="45.372136834620214" lon="9.21465629966907"><ele>99.2</ele><time>2026-04-12T05:59:28Z</time></trkpt><trkpt lat="45.37212595385427" lon="9.2145061282379"><ele>99.4</ele><time>2026-04-12T05:59:30Z</time></trkpt><trkpt lat="45.37211217489224" lon="9.21435732792278"><ele>99.6</ele><time>2026-04-12T05:59:32Z</time></trkpt><trkpt lat="45.372091753341714" lon="9.214208942543628"><ele>99.8</ele><time>2026-04-12T05:59:34Z</time></trkpt><trkpt lat="45.37208392784814" lon="9.214057143980517"><ele>100.0</ele><time>2026-04-12T05:59:36Z</time></trkpt><trkpt lat="45.37206032057626" lon="9.213908202048724"><ele>100.2</ele><time>2026-04-12T05:59:38Z</time></trkpt><trkpt lat="45.37200441466062" lon="9.213778955327848"><ele>100.4</ele><time>2026-04-12T05:59:40Z</time></trkpt><trkpt lat="45.37190058336832" lon="9.213710630693162"><ele>100.6</ele><time>2026-04-12T05:59:42Z</time></trkpt><trkpt lat="45.371804903894" lon="9.213639134267865"><ele>100.8</ele><time>2026-04-12T05:59:44Z</time></trkpt><trkpt lat="45.37171527002866" lon="9.213560237061763"><ele>101.0</ele><time>2026-04-12T05:59:46Z</time></trkpt><trkpt lat="45.37161266127205" lon="9.213515011631793"><ele>101.0</ele><time>2026-04-12T05:59:48Z</time></trkpt><trkpt lat="45.37154940192336" lon="9.213544971849837"><ele>101.0</ele><time>2026-04-12T05:59:49Z</time></trkpt><trkpt lat="45.37144360943631" lon="9.213575960320178"><ele>101.0</ele><time>2026-04-12T05:59:51Z</time></trkpt><trkpt lat="45.3713352785621" lon="9.213594301233483"><ele>101.0</ele><time>2026-04-12T05:59:53Z</time></trkpt><trkpt lat="45.37122564264694" lon="9.21361960241306"><ele>101.0</ele><time>2026-04-12T05:59:55Z</time></trkpt><trkpt lat="45.37111184839423" lon="9.21364438473668"><ele>101.0</ele><time>2026-04-12T05:59:57Z</time></trkpt><trkpt lat="45.37099902500697" lon="9.21366581487609"><ele>101.0</ele><time>2026-04-12T05:59:59Z</time></trkpt><trkpt lat="45.37089138081209" lon="9.213687434938006"><ele>101.0</ele><time>2026-04-12T06:00:01Z</time></trkpt><trkpt lat="45.37078776924445" lon="9.21372919669314"><ele>101.0</ele><time>2026-04-12T06:00:03Z</time></trkpt><trkpt lat="45.37069575487983" lon="9.213801694863939"><ele>101.0</ele><time>2026-04-12T06:00:05Z</time></trkpt><trkpt lat="45.37058148071246" lon="9.213810574416478"><ele>100.6</ele><time>2026-04-12T06:00:07Z</time></trkpt><trkpt lat="45.370481726998776" lon="9.213889033447233"><ele>100.19999999999999</ele><time>2026-04-12T06:00:09Z</time></trkpt><trkpt lat="45.370382143971376" lon="9.21395414818436"><ele>99.80000000000001</ele><time>2026-04-12T06:00:11Z</time></trkpt><trkpt lat="45.37028320238067" lon="9.214018313045656"><ele>99.4</ele><time>2026-04-12T06:00:13Z</time></trkpt><trkpt lat="45.3701782795846" lon="9.214064913043321"><ele>99.0</ele><time>2026-04-12T06:00:15Z</time></trkpt><trkpt lat="45.37008571049035" lon="9.21415026799084"><ele>99.0</ele><time>2026-04-12T06:00:17Z</time></trkpt><trkpt lat="45.36999821895893" lon="9.214232048599959"><ele>99.0</ele><time>2026-04-12T06:00:19Z</time></trkpt><trkpt lat="45.36991644077913" lon="9.214323615622902"><ele>99.0</ele><time>2026-04-12T06:00:21Z</time></trkpt><trkpt lat="45.36983644776677" lon="9.214413697615143"><ele>99.0</ele><time>2026-04-12T06:00:23Z</time></trkpt><trkpt lat="45.369773367482146" lon="9.21448559849323"><ele>99.0</ele><time>2026-04-12T06:00:25Z</time></trkpt><trkpt lat="45.36969536541139" lon="9.214470182919761"><ele>98.2</ele><time>2026-04-12T06:00:27Z</time></trkpt><trkpt lat="45.36963138189301" lon="9.214340765276116"><ele>97.4</ele><time>2026-04-12T06:00:29Z</time></trkpt><trkpt lat="45.36958798183793" lon="9.214188255875902"><ele>96.6</ele><time>2026-04-12T06:00:31Z</time></trkpt><trkpt lat="45.36949771651591" lon="9.214072788807918"><ele>95.8</ele><time>2026-04-12T06:00:33Z</time></trkpt><trkpt lat="45.36943426202904" lon="9.214069867138624"><ele>95.0</ele><time>2026-04-12T06:00:34Z</time></trkpt><trkpt lat="45.36937268688432" lon="9.214112824660198"><ele>95.0</ele><time>2026-04-12T06:00:35Z</time></trkpt><trkpt lat="45.369328670448155" lon="9.214178308163053"><ele>95.0</ele><time>2026-04-12T06:00:36Z</time></trkpt><trkpt lat="45.36924972918967" lon="9.214304834149873"><ele>95.0</ele><time>2026-04-12T06:00:38Z</time></trkpt><trkpt lat="45.369178985494166" lon="9.214446264997413"><ele>95.0</ele><time>2026-04-12T06:00:40Z</time></trkpt><trkpt lat="45.369099052868144" lon="9.21457573177565"><ele>95.0</ele><time>2026-04-12T06:00:42Z</time></trkpt><trkpt lat="45.36899965407926" lon="9.214670264044367"><ele>95.0</ele><time>2026-04-12T06:00:44Z</time></trkpt><trkpt lat="45.36889565443874" lon="9.214755308464945"><ele>95.0</ele><time>2026-04-12T06:00:46Z</time></trkpt><trkpt lat="45.368794637465825" lon="9.2148475665462"><ele>95.0</ele><time>2026-04-12T06:00:48Z</time></trkpt><trkpt lat="45.36869822797378" lon="9.214948443027687"><ele>95.0</ele><time>2026-04-12T06:00:50Z</time></trkpt><trkpt lat="45.36861203819396" lon="9.215059961451956"><ele>95.4</ele><time>2026-04-12T06:00:52Z</time></trkpt><trkpt lat="45.36853101178098" lon="9.215175378326363"><ele>95.8</ele><time>2026-04-12T06:00:54Z</time></trkpt><trkpt lat="45.36846304474225" lon="9.215301495183027"><ele>96.19999999999999</ele><time>2026-04-12T06:00:56Z</time></trkpt><trkpt lat="45.36839710486177" lon="9.215423457201217"><ele>96.6</ele><time>2026-04-12T06:00:58Z</time></trkpt><trkpt lat="45.368328474100444" lon="9.215541715311375"><ele>97.0</ele><time>2026-04-12T06:01:00Z</time></trkpt><trkpt lat="45.36825692036952" lon="9.215652544549306"><ele>97.0</ele><time>2026-04-12T06:01:02Z</time></trkpt><trkpt lat="45.36817554591427" lon="9.215747033282723"><ele>97.0</ele><time>2026-04-12T06:01:04Z</time></trkpt><trkpt lat="45.36809282235561" lon="9.215840964741435"><ele>97.0</ele><time>2026-04-12T06:01:06Z</time></trkpt><trkpt lat="45.368007850129324" lon="9.215929612197634"><ele>97.0</ele><time>2026-04-12T06:01:08Z</time></trkpt><trkpt lat="45.36792152685954" lon="9.216015705562485"><ele>97.0</ele><time>2026-04-12T06:01:10Z</time></trkpt><trkpt lat="45.36783094521741" lon="9.216093725921779"><ele>97.0</ele><time>2026-04-12T06:01:12Z</time></trkpt><trkpt lat="45.36774205281459" lon="9.216177761539777"><ele>97.0</ele><time>2026-04-12T06:01:14Z</time></trkpt><trkpt lat="45.367652818977895" lon="9.216261897977208"><ele>97.0</ele><time>2026-04-12T06:01:16Z</time></trkpt><trkpt lat="45.36756451089799" lon="9.216347775580829"><ele>97.0</ele><time>2026-04-12T06:01:18Z</time></trkpt><trkpt lat="45.36747513881403" lon="9.21643626848187"><ele>97.0</ele><time>2026-04-12T06:01:20Z</time></trkpt><trkpt lat="45.36738648279803" lon="9.216532055630019"><ele>97.0</ele><time>2026-04-12T06:01:22Z</time></trkpt><trkpt lat="45.367295966799546" lon="9.216629879396498"><ele>97.0</ele><time>2026-04-12T06:01:24Z</time></trkpt><trkpt lat="45.36720449304695" lon="9.216719191734244"><ele>97.0</ele><time>2026-04-12T06:01:26Z</time></trkpt><trkpt lat="45.367118278372494" lon="9.216823417672071"><ele>97.0</ele><time>2026-04-12T06:01:28Z</time></trkpt><trkpt lat="45.367031673697454" lon="9.216923183424681"><ele>97.0</ele><time>2026-04-12T06:01:30Z</time></trkpt><trkpt lat="45.366944696995475" lon="9.21701734195557"><ele>96.6</ele><time>2026-04-12T06:01:32Z</time></trkpt><trkpt lat="45.366853361039055" lon="9.21710238243544"><ele>96.19999999999999</ele><time>2026-04-12T06:01:34Z</time></trkpt><trkpt lat="45.36677087043407" lon="9.217189820789036"><ele>95.8</ele><time>2026-04-12T06:01:36Z</time></trkpt><trkpt lat="45.366680634775356" lon="9.217281117569186"><ele>95.4</ele><time>2026-04-12T06:01:38Z</time></trkpt><trkpt lat="45.366593182245836" lon="9.21736862947339"><ele>95.0</ele><time>2026-04-12T06:01:40Z</time></trkpt><trkpt lat="45.366505315955" lon="9.217452217611692"><ele>95.0</ele><time>2026-04-12T06:01:42Z</time></trkpt><trkpt lat="45.366410709657856" lon="9.217520217407857"><ele>95.0</ele><time>2026-04-12T06:01:44Z</time></trkpt><trkpt lat="45.36631543601256" lon="9.217590484318862"><ele>95.0</ele><time>2026-04-12T06:01:46Z</time></trkpt><trkpt lat="45.36621554730481" lon="9.217653206170576"><ele>95.0</ele><time>2026-04-12T06:01:48Z</time></trkpt><trkpt lat="45.36611574081877" lon="9.217709653816748"><ele>95.0</ele><time>2026-04-12T06:01:50Z</time></trkpt><trkpt lat="45.36601812204251" lon="9.217770791861305"><ele>95.0</ele><time>2026-04-12T06:01:52Z</time></trkpt><trkpt lat="45.36591920796666" lon="9.2178235278827"><ele>95.0</ele><time>2026-04-12T06:01:54Z</time></trkpt><trkpt lat="45.3658192566828" lon="9.21787676653975"><ele>95.0</ele><time>2026-04-12T06:01:56Z</time></trkpt><trkpt lat="45.36572225112578" lon="9.217940456896002"><ele>95.0</ele><time>2026-04-12T06:01:58Z</time></trkpt><trkpt lat="45.36562097616008" lon="9.217997693304339"><ele>95.0</ele><time>2026-04-12T06:02:00Z</time></trkpt><trkpt lat="45.365521372246796" lon="9.218052028245832"><ele>94.6</ele><time>2026-04-12T06:02:02Z</time></trkpt><trkpt lat="45.36542227560784" lon="9.218113418352964"><ele>94.2</ele><time>2026-04-12T06:02:04Z</time></trkpt><trkpt lat="45.365320346544834" lon="9.218168954972624"><ele>93.80000000000001</ele><time>2026-04-12T06:02:06Z</time></trkpt><trkpt lat="45.36521987853285" lon="9.218228220971664"><ele>93.4</ele><time>2026-04-12T06:02:08Z</time></trkpt><trkpt lat="45.36511906119465" lon="9.218286948050286"><ele>93.0</ele><time>2026-04-12T06:02:10Z</time></trkpt><trkpt lat="45.365017822871486" lon="9.21834009474257"><ele>93.0</ele><time>2026-04-12T06:02:12Z</time></trkpt><trkpt lat="45.36491294525392" lon="9.218360159067801"><ele>93.0</ele><time>2026-04-12T06:02:14Z</time></trkpt><trkpt lat="45.36480918108955" lon="9.218328049303283"><ele>93.0</ele><time>2026-04-12T06:02:16Z</time></trkpt><trkpt lat="45.36470664881171" lon="9.218300525766537"><ele>93.0</ele><time>2026-04-12T06:02:18Z</time></trkpt><trkpt lat="45.36460396296327" lon="9.218323991592031"><ele>93.0</ele><time>2026-04-12T06:02:20Z</time></trkpt><trkpt lat="45.364517687517505" lon="9.218409550963997"><ele>93.60000000000001</ele><time>2026-04-12T06:02:22Z</time></trkpt><trkpt lat="45.36444166627553" lon="9.218507680828278"><ele>94.2</ele><time>2026-04-12T06:02:24Z</time></trkpt><trkpt lat="45.36434873414064" lon="9.218578985486113"><ele>94.8</ele><time>2026-04-12T06:02:26Z</time></trkpt><trkpt lat="45.364243152796696" lon="9.218618712735266"><ele>95.4</ele><time>2026-04-12T06:02:28Z</time></trkpt><trkpt lat="45.36413576015475" lon="9.218645909237022"><ele>96.0</ele><time>2026-04-12T06:02:30Z</time></trkpt><trkpt lat="45.36402571461671" lon="9.21867094432319"><ele>96.0</ele><time>2026-04-12T06:02:32Z</time></trkpt><trkpt lat="45.36391939737659" lon="9.218701885330379"><ele>96.0</ele><time>2026-04-12T06:02:34Z</time></trkpt><trkpt lat="45.363812056492236" lon="9.218715804336643"><ele>96.0</ele><time>2026-04-12T06:02:36Z</time></trkpt><trkpt lat="45.36370862082881" lon="9.218754111529762"><ele>96.0</ele><time>2026-04-12T06:02:38Z</time></trkpt><trkpt lat="45.36360373618425" lon="9.218778598660991"><ele>96.0</ele><time>2026-04-12T06:02:40Z</time></trkpt><trkpt lat="45.36349980778892" lon="9.218806816280322"><ele>96.4</ele><time>2026-04-12T06:02:42Z</time></trkpt><trkpt lat="45.363401660050165" lon="9.218840343844448"><ele>96.8</ele><time>2026-04-12T06:02:44Z</time></trkpt><trkpt lat="45.363297577211696" lon="9.218868476642431"><ele>97.2</ele><time>2026-04-12T06:02:46Z</time></trkpt><trkpt lat="45.3631955782759" lon="9.21889356836191"><ele>97.60000000000001</ele><time>2026-04-12T06:02:48Z</time></trkpt><trkpt lat="45.36309570937805" lon="9.218923208641256"><ele>98.0</ele><time>2026-04-12T06:02:50Z</time></trkpt><trkpt lat="45.3629949187621" lon="9.218932458801241"><ele>98.0</ele><time>2026-04-12T06:02:52Z</time></trkpt><trkpt lat="45.36289260369873" lon="9.218924973466295"><ele>98.0</ele><time>2026-04-12T06:02:54Z</time></trkpt><trkpt lat="45.362790748977964" lon="9.218894423180165"><ele>98.0</ele><time>2026-04-12T06:02:56Z</time></trkpt><trkpt lat="45.362687699268065" lon="9.21885689102726"><ele>98.0</ele><time>2026-04-12T06:02:58Z</time></trkpt><trkpt lat="45.36258248151543" lon="9.218875593449717"><ele>98.0</ele><time>2026-04-12T06:03:00Z</time></trkpt><trkpt lat="45.3624883481659" lon="9.218952861186416"><ele>97.80000000000001</ele><time>2026-04-12T06:03:02Z</time></trkpt><trkpt lat="45.36240508310199" lon="9.219053248314928"><ele>97.6</ele><time>2026-04-12T06:03:04Z</time></trkpt><trkpt lat="45.36230561346137" lon="9.219110381111662"><ele>97.4</ele><time>2026-04-12T06:03:06Z</time></trkpt><trkpt lat="45.36220734943575" lon="9.21918183606047"><ele>97.19999999999999</ele><time>2026-04-12T06:03:08Z</time></trkpt><trkpt lat="45.362100696935194" lon="9.219216329976254"><ele>97.0</ele><time>2026-04-12T06:03:10Z</time></trkpt><trkpt lat="45.36199634552895" lon="9.219247771725682"><ele>97.0</ele><time>2026-04-12T06:03:12Z</time></trkpt><trkpt lat="45.36189088878535" lon="9.219276284635049"><ele>97.0</ele><time>2026-04-12T06:03:14Z</time></trkpt><trkpt lat="45.36178429070187" lon="9.219295861041282"><ele>97.0</ele><time>2026-04-12T06:03:16Z</time></trkpt><trkpt lat="45.36167701636982" lon="9.21931289574116"><ele>97.0</ele><time>2026-04-12T06:03:18Z</time></trkpt><trkpt lat="45.36157190584835" lon="9.219342547764816"><ele>97.0</ele><time>2026-04-12T06:03:20Z</time></trkpt><trkpt lat="45.36146403517192" lon="9.219364792430039"><ele>96.8</ele><time>2026-04-12T06:03:22Z</time></trkpt><trkpt lat="45.361357961497525" lon="9.219399401547328"><ele>96.6</ele><time>2026-04-12T06:03:24Z</time></trkpt><trkpt lat="45.36125048885602" lon="9.219422250853619"><ele>96.39999999999999</ele><time>2026-04-12T06:03:26Z</time></trkpt><trkpt lat="45.361144215310915" lon="9.219460033453256"><ele>96.19999999999999</ele><time>2026-04-12T06:03:28Z</time></trkpt><trkpt lat="45.361036631053295" lon="9.219489952924356"><ele>96.0</ele><time>2026-04-12T06:03:30Z</time></trkpt><trkpt lat="45.36093076786959" lon="9.219530577256263"><ele>96.0</ele><time>2026-04-12T06:03:32Z</time></trkpt><trkpt lat="45.360827066822665" lon="9.219575285892772"><ele>96.0</ele><time>2026-04-12T06:03:34Z</time></trkpt><trkpt lat="45.3607240467947" lon="9.219629762407333"><ele>96.0</ele><time>2026-04-12T06:03:36Z</time></trkpt><trkpt lat="45.36062578429752" lon="9.219678378723934"><ele>96.0</ele><time>2026-04-12T06:03:38Z</time></trkpt><trkpt lat="45.36052358728493" lon="9.219720281926206"><ele>96.0</ele><time>2026-04-12T06:03:40Z</time></trkpt><trkpt lat="45.36043066023017" lon="9.219804654703477"><ele>96.4</ele><time>2026-04-12T06:03:42Z</time></trkpt><trkpt lat="45.360336679418204" lon="9.219875983706713"><ele>96.8</ele><time>2026-04-12T06:03:44Z</time></trkpt><trkpt lat="45.36025125888293" lon="9.219962252204546"><ele>97.2</ele><time>2026-04-12T06:03:46Z</time></trkpt><trkpt lat="45.360167068243" lon="9.22005088275792"><ele>97.60000000000001</ele><time>2026-04-12T06:03:48Z</time></trkpt><trkpt lat="45.36008093396971" lon="9.220136956029885"><ele>98.0</ele><time>2026-04-12T06:03:50Z</time></trkpt><trkpt lat="45.36000047516448" lon="9.220232670189166"><ele>98.0</ele><time>2026-04-12T06:03:52Z</time></trkpt><trkpt lat="45.35991005369003" lon="9.22031411112895"><ele>98.0</ele><time>2026-04-12T06:03:54Z</time></trkpt><trkpt lat="45.35982502129528" lon="9.220399171281306"><ele>98.0</ele><time>2026-04-12T06:03:56Z</time></trkpt><trkpt lat="45.35973931241946" lon="9.220478052120624"><ele>98.0</ele><time>2026-04-12T06:03:58Z</time></trkpt><trkpt lat="45.35965574184406" lon="9.220551595777492"><ele>98.0</ele><time>2026-04-12T06:04:00Z</time></trkpt><trkpt lat="45.35959156100886" lon="9.22064179273366"><ele>97.83333333333333</ele><time>2026-04-12T06:04:02Z</time></trkpt><trkpt lat="45.35952071414751" lon="9.220625514524805"><ele>97.66666666666666</ele><time>2026-04-12T06:04:04Z</time></trkpt><trkpt lat="45.35948472407171" lon="9.220537609760335"><ele>97.5</ele><time>2026-04-12T06:04:06Z</time></trkpt><trkpt lat="45.359432814110406" lon="9.220434800399453"><ele>97.33333333333334</ele><time>2026-04-12T06:04:09Z</time></trkpt><trkpt lat="45.35938949657516" lon="9.220341363405673"><ele>97.16666666666667</ele><time>2026-04-12T06:04:12Z</time></trkpt><trkpt lat="45.359429901963125" lon="9.220417905734886"><ele>97.0</ele><time>2026-04-12T06:10:55Z</time></trkpt><trkpt lat="45.35947848387043" lon="9.22050811926069"><ele>97.00000000000001</ele><time>2026-04-12T06:11:01Z</time></trkpt><trkpt lat="45.3595112476212" lon="9.22058820647265"><ele>97.0</ele><time>2026-04-12T06:11:04Z</time></trkpt><trkpt lat="45.359540493335274" lon="9.220682972826358"><ele>97.0</ele><time>2026-04-12T06:11:07Z</time></trkpt><trkpt lat="45.35960222273421" lon="9.220735218312312"><ele>97.0</ele><time>2026-04-12T06:11:11Z</time></trkpt><trkpt lat="45.35965505303569" lon="9.22066549496853"><ele>97.00000000000001</ele><time>2026-04-12T06:11:14Z</time></trkpt><trkpt lat="45.35961521973827" lon="9.220778614007097"><ele>97.0</ele><time>2026-04-12T06:11:21Z</time></trkpt><trkpt lat="45.35955014414104" lon="9.22087453082886"><ele>97.0</ele><time>2026-04-12T06:11:23Z</time></trkpt><trkpt lat="45.35947012414799" lon="9.221023338361105"><ele>97.0</ele><time>2026-04-12T06:11:25Z</time></trkpt><trkpt lat="45.359392990299675" lon="9.221113572548965"><ele>97.0</ele><time>2026-04-12T06:11:27Z</time></trkpt><trkpt lat="45.35934213371961" lon="9.22119614492637"><ele>97.0</ele><time>2026-04-12T06:11:29Z</time></trkpt><trkpt lat="45.35925232455081" lon="9.221274255534263"><ele>97.0</ele><time>2026-04-12T06:11:31Z</time></trkpt><trkpt lat="45.35933212941294" lon="9.221304117630583"><ele>97.00000000000001</ele><time>2026-04-12T06:11:33Z</time></trkpt><trkpt lat="45.3594026658311" lon="9.2213264480052"><ele>97.0</ele><time>2026-04-12T06:11:34Z</time></trkpt><trkpt lat="45.35947027447865" lon="9.22136798285772"><ele>97.0</ele><time>2026-04-12T06:11:36Z</time></trkpt><trkpt lat="45.35939053953712" lon="9.221332265729632"><ele>97.0</ele><time>2026-04-12T06:11:44Z</time></trkpt><trkpt lat="45.359329060632994" lon="9.221272522960076"><ele>97.00000000000001</ele><time>2026-04-12T06:11:46Z</time></trkpt><trkpt lat="45.359261500410824" lon="9.221214404348201"><ele>97.0</ele><time>2026-04-12T06:11:48Z</time></trkpt><trkpt lat="45.35917917519298" lon="9.221160313764303"><ele>97.00000000000001</ele><time>2026-04-12T06:11:51Z</time></trkpt><trkpt lat="45.35911213819148" lon="9.221147060315102"><ele>97.0</ele><time>2026-04-12T06:11:53Z</time></trkpt><trkpt lat="45.35903284183976" lon="9.22114211854242"><ele>97.0</ele><time>2026-04-12T06:11:55Z</time></trkpt><trkpt lat="45.358971944927376" lon="9.221170087996002"><ele>97.0</ele><time>2026-04-12T06:11:56Z</time></trkpt><trkpt lat="45.358895052125284" lon="9.22122789832394"><ele>97.00000000000001</ele><time>2026-04-12T06:11:58Z</time></trkpt><trkpt lat="45.35881917997878" lon="9.221284343061523"><ele>97.0</ele><time>2026-04-12T06:12:00Z</time></trkpt><trkpt lat="45.35874182849944" lon="9.221339872944046"><ele>97.00000000000001</ele><time>2026-04-12T06:12:02Z</time></trkpt><trkpt lat="45.358668513429706" lon="9.221393905457754"><ele>97.0</ele><time>2026-04-12T06:12:04Z</time></trkpt><trkpt lat="45.35859350434225" lon="9.221444102891821"><ele>97.0</ele><time>2026-04-12T06:12:06Z</time></trkpt><trkpt lat="45.35851893607842" lon="9.221487616423898"><ele>97.0</ele><time>2026-04-12T06:12:08Z</time></trkpt><trkpt lat="45.35843581201609" lon="9.221524221512976"><ele>97.00000000000001</ele><time>2026-04-12T06:12:10Z</time></trkpt><trkpt lat="45.35835581192888" lon="9.221585071643913"><ele>97.0</ele><time>2026-04-12T06:12:12Z</time></trkpt><trkpt lat="45.35828449539378" lon="9.221646052580487"><ele>97.33333333333334</ele><time>2026-04-12T06:12:14Z</time></trkpt><trkpt lat="45.35821523866528" lon="9.22169889005872"><ele>97.66666666666667</ele><time>2026-04-12T06:12:16Z</time></trkpt><trkpt lat="45.3581476552338" lon="9.221759391875805"><ele>98.0</ele><time>2026-04-12T06:12:18Z</time></trkpt><trkpt lat="45.358074135563825" lon="9.221819202795995"><ele>98.33333333333334</ele><time>2026-04-12T06:12:20Z</time></trkpt><trkpt lat="45.357996709184334" lon="9.221878384450864"><ele>98.66666666666667</ele><time>2026-04-12T06:12:22Z</time></trkpt><trkpt lat="45.35792002033448" lon="9.221940539095526"><ele>99.0</ele><time>2026-04-12T06:12:24Z</time></trkpt><trkpt lat="45.357851973385124" lon="9.22200056417214"><ele>99.0</ele><time>2026-04-12T06:12:26Z</time></trkpt><trkpt lat="45.357781449982085" lon="9.222064954429982"><ele>99.0</ele><time>2026-04-12T06:12:28Z</time></trkpt><trkpt lat="45.357702188977406" lon="9.222112048324892"><ele>99.0</ele><time>2026-04-12T06:12:30Z</time></trkpt><trkpt lat="45.35762664670503" lon="9.222163758949044"><ele>99.0</ele><time>2026-04-12T06:12:32Z</time></trkpt><trkpt lat="45.3575535822057" lon="9.222224267246297"><ele>99.0</ele><time>2026-04-12T06:12:34Z</time></trkpt><trkpt lat="45.35748331202733" lon="9.222285180433772"><ele>99.0</ele><time>2026-04-12T06:12:36Z</time></trkpt><trkpt lat="45.3574065472825" lon="9.222342112839046"><ele>99.0</ele><time>2026-04-12T06:12:38Z</time></trkpt><trkpt lat="45.35733080408948" lon="9.222399261276637"><ele>99.0</ele><time>2026-04-12T06:12:40Z</time></trkpt><trkpt lat="45.35725934064979" lon="9.222453050962116"><ele>99.0</ele><time>2026-04-12T06:12:42Z</time></trkpt><trkpt lat="45.35718770914475" lon="9.222496401920314"><ele>99.0</ele><time>2026-04-12T06:12:44Z</time></trkpt><trkpt lat="45.3571249483908" lon="9.222554476050275"><ele>99.0</ele><time>2026-04-12T06:12:46Z</time></trkpt><trkpt lat="45.35706888403158" lon="9.222608758235653"><ele>99.0</ele><time>2026-04-12T06:12:48Z</time></trkpt><trkpt lat="45.35700296247212" lon="9.222677170338672"><ele>99.0</ele><time>2026-04-12T06:12:50Z</time></trkpt><trkpt lat="45.35693904245876" lon="9.222747204652999"><ele>99.0</ele><time>2026-04-12T06:12:52Z</time></trkpt><trkpt lat="45.35687203418772" lon="9.22281182309205"><ele>99.0</ele><time>2026-04-12T06:12:54Z</time></trkpt><trkpt lat="45.35679972083833" lon="9.222867257583781"><ele>99.0</ele><time>2026-04-12T06:12:56Z</time></trkpt><trkpt lat="45.35672794002242" lon="9.222936702052476"><ele>99.0</ele><time>2026-04-12T06:12:58Z</time></trkpt><trkpt lat="45.35665614075477" lon="9.222997078095112"><ele>99.0</ele><time>2026-04-12T06:13:00Z</time></trkpt><trkpt lat="45.35658130498125" lon="9.223063887233582"><ele>99.0</ele><time>2026-04-12T06:13:02Z</time></trkpt><trkpt lat="45.356503604976226" lon="9.223117644340709"><ele>99.0</ele><time>2026-04-12T06:13:04Z</time></trkpt><trkpt lat="45.356422710096375" lon="9.223185089096589"><ele>99.0</ele><time>2026-04-12T06:13:06Z</time></trkpt><trkpt lat="45.35634107285255" lon="9.223249813370217"><ele>99.0</ele><time>2026-04-12T06:13:08Z</time></trkpt><trkpt lat="45.3562610114882" lon="9.223313640696924"><ele>99.0</ele><time>2026-04-12T06:13:10Z</time></trkpt><trkpt lat="45.356180133309635" lon="9.223376327681038"><ele>98.0</ele><time>2026-04-12T06:13:12Z</time></trkpt><trkpt lat="45.35610375056159" lon="9.223446052002636"><ele>97.0</ele><time>2026-04-12T06:13:14Z</time></trkpt><trkpt lat="45.35602463891163" lon="9.223515829353152"><ele>96.0</ele><time>2026-04-12T06:13:16Z</time></trkpt><trkpt lat="45.35594089205369" lon="9.223578644981478"><ele>95.0</ele><time>2026-04-12T06:13:18Z</time></trkpt><trkpt lat="45.355860173056314" lon="9.223643419911284"><ele>94.0</ele><time>2026-04-12T06:13:20Z</time></trkpt><trkpt lat="45.3557805461431" lon="9.223709854886206"><ele>94.0</ele><time>2026-04-12T06:13:22Z</time></trkpt><trkpt lat="45.35570170741911" lon="9.223778085367929"><ele>94.0</ele><time>2026-04-12T06:13:24Z</time></trkpt><trkpt lat="45.35561890002154" lon="9.223836191965196"><ele>94.0</ele><time>2026-04-12T06:13:26Z</time></trkpt><trkpt lat="45.35553943826968" lon="9.223907439273283"><ele>94.0</ele><time>2026-04-12T06:13:28Z</time></trkpt><trkpt lat="45.355460090156015" lon="9.223973043074325"><ele>94.0</ele><time>2026-04-12T06:13:30Z</time></trkpt><trkpt lat="45.355379860367144" lon="9.224031503227133"><ele>94.2</ele><time>2026-04-12T06:13:32Z</time></trkpt><trkpt lat="45.355304278147216" lon="9.224095769084565"><ele>94.4</ele><time>2026-04-12T06:13:34Z</time></trkpt><trkpt lat="45.355225970840024" lon="9.2241595913192"><ele>94.6</ele><time>2026-04-12T06:13:36Z</time></trkpt><trkpt lat="45.35514389319082" lon="9.224217471134914"><ele>94.8</ele><time>2026-04-12T06:13:38Z</time></trkpt><trkpt lat="45.35506631975483" lon="9.224288057764609"><ele>95.0</ele><time>2026-04-12T06:13:40Z</time></trkpt><trkpt lat="45.35498960547464" lon="9.22435341416534"><ele>95.0</ele><time>2026-04-12T06:13:42Z</time></trkpt><trkpt lat="45.35490869832543" lon="9.224423580657163"><ele>95.0</ele><time>2026-04-12T06:13:44Z</time></trkpt><trkpt lat="45.35483105062351" lon="9.22449363641325"><ele>95.0</ele><time>2026-04-12T06:13:46Z</time></trkpt><trkpt lat="45.354750900043356" lon="9.22456175094608"><ele>95.0</ele><time>2026-04-12T06:13:48Z</time></trkpt><trkpt lat="45.354666078769796" lon="9.224628299798095"><ele>95.0</ele><time>2026-04-12T06:13:50Z</time></trkpt><trkpt lat="45.35458236421857" lon="9.22469386675483"><ele>95.2</ele><time>2026-04-12T06:13:52Z</time></trkpt><trkpt lat="45.35449867036297" lon="9.224754245315236"><ele>95.4</ele><time>2026-04-12T06:13:54Z</time></trkpt><trkpt lat="45.35441794444004" lon="9.224822657773096"><ele>95.6</ele><time>2026-04-12T06:13:56Z</time></trkpt><trkpt lat="45.35433685273175" lon="9.224891751857562"><ele>95.8</ele><time>2026-04-12T06:13:58Z</time></trkpt><trkpt lat="45.35425662708896" lon="9.224960877672086"><ele>96.0</ele><time>2026-04-12T06:14:00Z</time></trkpt><trkpt lat="45.354173770103344" lon="9.225025078710164"><ele>96.0</ele><time>2026-04-12T06:14:02Z</time></trkpt><trkpt lat="45.35409053112249" lon="9.225083196634461"><ele>96.0</ele><time>2026-04-12T06:14:04Z</time></trkpt><trkpt lat="45.35400775829715" lon="9.225149242310179"><ele>96.0</ele><time>2026-04-12T06:14:06Z</time></trkpt><trkpt lat="45.353927359060194" lon="9.225221818041089"><ele>96.0</ele><time>2026-04-12T06:14:08Z</time></trkpt><trkpt lat="45.353850085489476" lon="9.225284655774471"><ele>96.0</ele><time>2026-04-12T06:14:10Z</time></trkpt><trkpt lat="45.35377416458528" lon="9.225354074220398"><ele>96.0</ele><time>2026-04-12T06:14:12Z</time></trkpt><trkpt lat="45.3536980277177" lon="9.22542212621728"><ele>96.0</ele><time>2026-04-12T06:14:14Z</time></trkpt><trkpt lat="45.35362170027762" lon="9.225492046374285"><ele>96.0</ele><time>2026-04-12T06:14:16Z</time></trkpt><trkpt lat="45.35355137095403" lon="9.225568730737562"><ele>96.0</ele><time>2026-04-12T06:14:18Z</time></trkpt><trkpt lat="45.35347429715993" lon="9.22563677791277"><ele>96.0</ele><time>2026-04-12T06:14:20Z</time></trkpt><trkpt lat="45.35338814379867" lon="9.225676654960042"><ele>96.0</ele><time>2026-04-12T06:14:22Z</time></trkpt><trkpt lat="45.353299031165434" lon="9.225710664029814"><ele>96.0</ele><time>2026-04-12T06:14:24Z</time></trkpt><trkpt lat="45.35320991028309" lon="9.225746451012375"><ele>96.0</ele><time>2026-04-12T06:14:26Z</time></trkpt><trkpt lat="45.35313834756169" lon="9.225841570215891"><ele>96.0</ele><time>2026-04-12T06:14:28Z</time></trkpt><trkpt lat="45.35308038406602" lon="9.225951759429316"><ele>96.0</ele><time>2026-04-12T06:14:30Z</time></trkpt><trkpt lat="45.35301719588454" lon="9.226051255243743"><ele>96.0</ele><time>2026-04-12T06:14:32Z</time></trkpt><trkpt lat="45.3529447532302" lon="9.226129460300259"><ele>96.0</ele><time>2026-04-12T06:14:34Z</time></trkpt><trkpt lat="45.352865427020596" lon="9.22619680539062"><ele>96.0</ele><time>2026-04-12T06:14:36Z</time></trkpt><trkpt lat="45.35278233115529" lon="9.22626084479291"><ele>96.0</ele><time>2026-04-12T06:14:38Z</time></trkpt><trkpt lat="45.35269483602417" lon="9.226321808248851"><ele>96.0</ele><time>2026-04-12T06:14:40Z</time></trkpt><trkpt lat="45.35260967166346" lon="9.22639883424965"><ele>96.0</ele><time>2026-04-12T06:14:42Z</time></trkpt><trkpt lat="45.352522868276" lon="9.226472076114035"><ele>96.0</ele><time>2026-04-12T06:14:44Z</time></trkpt><trkpt lat="45.35243425554013" lon="9.226538712292516"><ele>96.0</ele><time>2026-04-12T06:14:46Z</time></trkpt><trkpt lat="45.35234807578355" lon="9.226615669598186"><ele>96.0</ele><time>2026-04-12T06:14:48Z</time></trkpt><trkpt lat="45.35225944678173" lon="9.226688999883818"><ele>96.0</ele><time>2026-04-12T06:14:50Z</time></trkpt><trkpt lat="45.35217353014148" lon="9.226770573818028"><ele>95.8</ele><time>2026-04-12T06:14:52Z</time></trkpt><trkpt lat="45.352087302317294" lon="9.226851535075458"><ele>95.6</ele><time>2026-04-12T06:14:54Z</time></trkpt><trkpt lat="45.35200254058704" lon="9.22692809940723"><ele>95.4</ele><time>2026-04-12T06:14:56Z</time></trkpt><trkpt lat="45.351921198284536" lon="9.227005150196696"><ele>95.2</ele><time>2026-04-12T06:14:58Z</time></trkpt><trkpt lat="45.35184385615454" lon="9.227082147363147"><ele>95.0</ele><time>2026-04-12T06:15:00Z</time></trkpt><trkpt lat="45.35176701435383" lon="9.227152991821168"><ele>95.0</ele><time>2026-04-12T06:15:02Z</time></trkpt><trkpt lat="45.351686204269974" lon="9.227211874241748"><ele>95.0</ele><time>2026-04-12T06:15:04Z</time></trkpt><trkpt lat="45.3516114595321" lon="9.227289295791918"><ele>95.0</ele><time>2026-04-12T06:15:06Z</time></trkpt><trkpt lat="45.351532111372315" lon="9.227362958179272"><ele>95.0</ele><time>2026-04-12T06:15:08Z</time></trkpt><trkpt lat="45.35144947419575" lon="9.227440360034976"><ele>95.0</ele><time>2026-04-12T06:15:10Z</time></trkpt><trkpt lat="45.35136382139317" lon="9.227517593393863"><ele>95.0</ele><time>2026-04-12T06:15:12Z</time></trkpt><trkpt lat="45.35127971376575" lon="9.227596659873292"><ele>95.0</ele><time>2026-04-12T06:15:14Z</time></trkpt><trkpt lat="45.35119231206054" lon="9.22767802166821"><ele>95.0</ele><time>2026-04-12T06:15:16Z</time></trkpt><trkpt lat="45.351107703684754" lon="9.227761597278885"><ele>95.0</ele><time>2026-04-12T06:15:18Z</time></trkpt><trkpt lat="45.3510244899739" lon="9.227841620908274"><ele>95.0</ele><time>2026-04-12T06:15:20Z</time></trkpt><trkpt lat="45.35094076318536" lon="9.22791946212931"><ele>95.0</ele><time>2026-04-12T06:15:22Z</time></trkpt><trkpt lat="45.35085698612639" lon="9.22799826519783"><ele>95.0</ele><time>2026-04-12T06:15:24Z</time></trkpt><trkpt lat="45.35077109903178" lon="9.228075404856812"><ele>95.0</ele><time>2026-04-12T06:15:26Z</time></trkpt><trkpt lat="45.350684917853314" lon="9.22815507518051"><ele>95.0</ele><time>2026-04-12T06:15:28Z</time></trkpt><trkpt lat="45.350603936522546" lon="9.228239681858186"><ele>95.0</ele><time>2026-04-12T06:15:30Z</time></trkpt><trkpt lat="45.350517663637746" lon="9.228316350642839"><ele>95.0</ele><time>2026-04-12T06:15:32Z</time></trkpt><trkpt lat="45.350431745319455" lon="9.228401681820408"><ele>95.0</ele><time>2026-04-12T06:15:34Z</time></trkpt><trkpt lat="45.35034543126664" lon="9.228491491806073"><ele>95.0</ele><time>2026-04-12T06:15:36Z</time></trkpt><trkpt lat="45.35026479785918" lon="9.228588221789101"><ele>95.0</ele><time>2026-04-12T06:15:38Z</time></trkpt><trkpt lat="45.35018151379831" lon="9.22867875159116"><ele>95.0</ele><time>2026-04-12T06:15:40Z</time></trkpt><trkpt lat="45.35009535567394" lon="9.228760761673524"><ele>95.0</ele><time>2026-04-12T06:15:42Z</time></trkpt><trkpt lat="45.3500062497056" lon="9.228840095604129"><ele>95.0</ele><time>2026-04-12T06:15:44Z</time></trkpt><trkpt lat="45.34991718873564" lon="9.22890872079789"><ele>95.0</ele><time>2026-04-12T06:15:46Z</time></trkpt><trkpt lat="45.34982876418464" lon="9.228987127639641"><ele>95.0</ele><time>2026-04-12T06:15:48Z</time></trkpt><trkpt lat="45.34974001746224" lon="9.2290641251512"><ele>95.0</ele><time>2026-04-12T06:15:50Z</time></trkpt><trkpt lat="45.34965317127389" lon="9.22915203497625"><ele>94.4</ele><time>2026-04-12T06:15:52Z</time></trkpt><trkpt lat="45.34956641877859" lon="9.229240994252985"><ele>93.8</ele><time>2026-04-12T06:15:54Z</time></trkpt><trkpt lat="45.34947847798287" lon="9.229323984699727"><ele>93.19999999999999</ele><time>2026-04-12T06:15:56Z</time></trkpt><trkpt lat="45.349388590586585" lon="9.229405335635343"><ele>92.6</ele><time>2026-04-12T06:15:58Z</time></trkpt><trkpt lat="45.34929763672096" lon="9.229484174016893"><ele>92.0</ele><time>2026-04-12T06:16:00Z</time></trkpt><trkpt lat="45.34920316399627" lon="9.229558081221667"><ele>92.0</ele><time>2026-04-12T06:16:02Z</time></trkpt><trkpt lat="45.349108852880285" lon="9.22963028433226"><ele>92.0</ele><time>2026-04-12T06:16:04Z</time></trkpt><trkpt lat="45.34901319494966" lon="9.229694238529875"><ele>92.0</ele><time>2026-04-12T06:16:06Z</time></trkpt><trkpt lat="45.34891396286915" lon="9.229764138085185"><ele>92.0</ele><time>2026-04-12T06:16:08Z</time></trkpt><trkpt lat="45.348818633157165" lon="9.229840301594876"><ele>92.0</ele><time>2026-04-12T06:16:10Z</time></trkpt><trkpt lat="45.34872031817757" lon="9.229909918410664"><ele>92.19999999999999</ele><time>2026-04-12T06:16:12Z</time></trkpt><trkpt lat="45.34862147486673" lon="9.229977773875301"><ele>92.4</ele><time>2026-04-12T06:16:14Z</time></trkpt><trkpt lat="45.34852273998991" lon="9.230045497437693"><ele>92.6</ele><time>2026-04-12T06:16:16Z</time></trkpt><trkpt lat="45.34842441271208" lon="9.23011026611238"><ele>92.80000000000001</ele><time>2026-04-12T06:16:18Z</time></trkpt><trkpt lat="45.34832917170626" lon="9.230181855060714"><ele>93.0</ele><time>2026-04-12T06:16:20Z</time></trkpt><trkpt lat="45.34823311585447" lon="9.230252199422763"><ele>93.0</ele><time>2026-04-12T06:16:22Z</time></trkpt><trkpt lat="45.34813685946464" lon="9.230321088998622"><ele>93.0</ele><time>2026-04-12T06:16:24Z</time></trkpt><trkpt lat="45.348043403547614" lon="9.230389833977524"><ele>93.0</ele><time>2026-04-12T06:16:26Z</time></trkpt><trkpt lat="45.347950315344534" lon="9.230466978834905"><ele>93.0</ele><time>2026-04-12T06:16:28Z</time></trkpt><trkpt lat="45.34786138705433" lon="9.230546437273125"><ele>93.0</ele><time>2026-04-12T06:16:30Z</time></trkpt><trkpt lat="45.34777726364814" lon="9.230626658004478"><ele>93.0</ele><time>2026-04-12T06:16:32Z</time></trkpt><trkpt lat="45.34769187037139" lon="9.230698793270285"><ele>93.0</ele><time>2026-04-12T06:16:34Z</time></trkpt><trkpt lat="45.34760488592832" lon="9.23077197815158"><ele>93.0</ele><time>2026-04-12T06:16:36Z</time></trkpt><trkpt lat="45.34751712016112" lon="9.230845831416975"><ele>93.0</ele><time>2026-04-12T06:16:38Z</time></trkpt><trkpt lat="45.34743064582621" lon="9.23091850800906"><ele>93.0</ele><time>2026-04-12T06:16:40Z</time></trkpt><trkpt lat="45.347342646444645" lon="9.230992698592717"><ele>93.0</ele><time>2026-04-12T06:16:42Z</time></trkpt><trkpt lat="45.34725743158888" lon="9.231067071711884"><ele>93.0</ele><time>2026-04-12T06:16:44Z</time></trkpt><trkpt lat="45.34716892116572" lon="9.23113480980318"><ele>93.0</ele><time>2026-04-12T06:16:46Z</time></trkpt><trkpt lat="45.347083633735714" lon="9.231212904272915"><ele>93.0</ele><time>2026-04-12T06:16:48Z</time></trkpt><trkpt lat="45.34700045386447" lon="9.231286076966834"><ele>93.0</ele><time>2026-04-12T06:16:50Z</time></trkpt><trkpt lat="45.34691563497125" lon="9.231353805088041"><ele>93.0</ele><time>2026-04-12T06:16:52Z</time></trkpt><trkpt lat="45.34683195156178" lon="9.231426773835643"><ele>93.0</ele><time>2026-04-12T06:16:54Z</time></trkpt><trkpt lat="45.34674842950617" lon="9.231503757931236"><ele>93.0</ele><time>2026-04-12T06:16:56Z</time></trkpt><trkpt lat="45.34666599468524" lon="9.231579441545424"><ele>93.0</ele><time>2026-04-12T06:16:58Z</time></trkpt><trkpt lat="45.34658020688444" lon="9.231653514310334"><ele>93.0</ele><time>2026-04-12T06:17:00Z</time></trkpt><trkpt lat="45.346498853621505" lon="9.231736173694472"><ele>93.0</ele><time>2026-04-12T06:17:02Z</time></trkpt><trkpt lat="45.3464147917373" lon="9.231814583054438"><ele>93.0</ele><time>2026-04-12T06:17:04Z</time></trkpt><trkpt lat="45.34633160984633" lon="9.231895685746492"><ele>93.0</ele><time>2026-04-12T06:17:06Z</time></trkpt><trkpt lat="45.34624640132785" lon="9.231971215781662"><ele>93.0</ele><time>2026-04-12T06:17:08Z</time></trkpt><trkpt lat="45.34616071019936" lon="9.23204531588273"><ele>93.0</ele><time>2026-04-12T06:17:10Z</time></trkpt><trkpt lat="45.34607859300653" lon="9.23212427990737"><ele>93.0</ele><time>2026-04-12T06:17:12Z</time></trkpt><trkpt lat="45.345993404636516" lon="9.232198839021457"><ele>93.0</ele><time>2026-04-12T06:17:14Z</time></trkpt><trkpt lat="45.34590612891097" lon="9.232267950917027"><ele>93.0</ele><time>2026-04-12T06:17:16Z</time></trkpt><trkpt lat="45.34581830172366" lon="9.232337591427244"><ele>93.0</ele><time>2026-04-12T06:17:18Z</time></trkpt><trkpt lat="45.345730619514285" lon="9.23240881649098"><ele>93.0</ele><time>2026-04-12T06:17:20Z</time></trkpt><trkpt lat="45.34564082508435" lon="9.232474400930094"><ele>93.0</ele><time>2026-04-12T06:17:22Z</time></trkpt><trkpt lat="45.345550388959325" lon="9.23253846305446"><ele>93.0</ele><time>2026-04-12T06:17:24Z</time></trkpt><trkpt lat="45.34546443839041" lon="9.232611057240938"><ele>93.0</ele><time>2026-04-12T06:17:26Z</time></trkpt><trkpt lat="45.34537766387046" lon="9.232679102549225"><ele>93.0</ele><time>2026-04-12T06:17:28Z</time></trkpt><trkpt lat="45.34528915566022" lon="9.2327478822422"><ele>93.0</ele><time>2026-04-12T06:17:30Z</time></trkpt><trkpt lat="45.34520074070143" lon="9.23281374272415"><ele>93.0</ele><time>2026-04-12T06:17:32Z</time></trkpt><trkpt lat="45.345115170074784" lon="9.232881918920475"><ele>93.0</ele><time>2026-04-12T06:17:34Z</time></trkpt><trkpt lat="45.34502760035091" lon="9.232954478860643"><ele>93.0</ele><time>2026-04-12T06:17:36Z</time></trkpt><trkpt lat="45.3449410057311" lon="9.233030307080224"><ele>93.0</ele><time>2026-04-12T06:17:38Z</time></trkpt><trkpt lat="45.3448547658288" lon="9.233099615107403"><ele>93.0</ele><time>2026-04-12T06:17:40Z</time></trkpt><trkpt lat="45.344766256966174" lon="9.233170048763045"><ele>92.80000000000001</ele><time>2026-04-12T06:17:42Z</time></trkpt><trkpt lat="45.344676672429124" lon="9.233238458453199"><ele>92.6</ele><time>2026-04-12T06:17:44Z</time></trkpt><trkpt lat="45.34458934736277" lon="9.233312559657259"><ele>92.4</ele><time>2026-04-12T06:17:46Z</time></trkpt><trkpt lat="45.34450341106694" lon="9.233389958786802"><ele>92.19999999999999</ele><time>2026-04-12T06:17:48Z</time></trkpt><trkpt lat="45.34441611443386" lon="9.233468092308504"><ele>92.0</ele><time>2026-04-12T06:17:50Z</time></trkpt><trkpt lat="45.344325998983706" lon="9.233544884693424"><ele>92.0</ele><time>2026-04-12T06:17:52Z</time></trkpt><trkpt lat="45.34424152599528" lon="9.23363085984228"><ele>92.0</ele><time>2026-04-12T06:17:54Z</time></trkpt><trkpt lat="45.34415659485807" lon="9.233703681606482"><ele>92.0</ele><time>2026-04-12T06:17:56Z</time></trkpt><trkpt lat="45.34407749012277" lon="9.233794232361486"><ele>92.0</ele><time>2026-04-12T06:17:58Z</time></trkpt><trkpt lat="45.343990136690074" lon="9.23388054149127"><ele>92.0</ele><time>2026-04-12T06:18:00Z</time></trkpt><trkpt lat="45.34389900033297" lon="9.233965657912547"><ele>92.39999999999999</ele><time>2026-04-12T06:18:02Z</time></trkpt><trkpt lat="45.34381509580406" lon="9.234051050263295"><ele>92.8</ele><time>2026-04-12T06:18:04Z</time></trkpt><trkpt lat="45.34373362462867" lon="9.234133558378451"><ele>93.2</ele><time>2026-04-12T06:18:06Z</time></trkpt><trkpt lat="45.34364602650248" lon="9.234209433619599"><ele>93.6</ele><time>2026-04-12T06:18:08Z</time></trkpt><trkpt lat="45.34355537889512" lon="9.234280600526834"><ele>94.0</ele><time>2026-04-12T06:18:10Z</time></trkpt><trkpt lat="45.34346552291426" lon="9.234353600005889"><ele>94.0</ele><time>2026-04-12T06:18:12Z</time></trkpt><trkpt lat="45.3433715451258" lon="9.234420215846233"><ele>94.0</ele><time>2026-04-12T06:18:14Z</time></trkpt><trkpt lat="45.34327748395823" lon="9.23448076102242"><ele>94.0</ele><time>2026-04-12T06:18:16Z</time></trkpt><trkpt lat="45.343186397069665" lon="9.234546818591449"><ele>94.0</ele><time>2026-04-12T06:18:18Z</time></trkpt><trkpt lat="45.34309309359026" lon="9.234599804909037"><ele>94.0</ele><time>2026-04-12T06:18:20Z</time></trkpt><trkpt lat="45.343002392916866" lon="9.234663544197346"><ele>93.80000000000001</ele><time>2026-04-12T06:18:22Z</time></trkpt><trkpt lat="45.34290742110486" lon="9.234720138930289"><ele>93.60000000000001</ele><time>2026-04-12T06:18:24Z</time></trkpt><trkpt lat="45.34281380054539" lon="9.234771653330265"><ele>93.4</ele><time>2026-04-12T06:18:26Z</time></trkpt><trkpt lat="45.34271834537009" lon="9.234818011426206"><ele>93.2</ele><time>2026-04-12T06:18:28Z</time></trkpt><trkpt lat="45.342625653508144" lon="9.234878796368479"><ele>93.0</ele><time>2026-04-12T06:18:30Z</time></trkpt><trkpt lat="45.34253419611151" lon="9.2349449757884"><ele>92.80000000000001</ele><time>2026-04-12T06:18:32Z</time></trkpt><trkpt lat="45.34244441998275" lon="9.235016411144175"><ele>92.6</ele><time>2026-04-12T06:18:34Z</time></trkpt><trkpt lat="45.34235783421763" lon="9.235089674801657"><ele>92.4</ele><time>2026-04-12T06:18:36Z</time></trkpt><trkpt lat="45.34227177955217" lon="9.23515715751485"><ele>92.19999999999999</ele><time>2026-04-12T06:18:38Z</time></trkpt><trkpt lat="45.34218741521596" lon="9.235230271133632"><ele>92.0</ele><time>2026-04-12T06:18:40Z</time></trkpt><trkpt lat="45.34210507990462" lon="9.23530412152813"><ele>91.8</ele><time>2026-04-12T06:18:42Z</time></trkpt><trkpt lat="45.342022490078456" lon="9.235379183169004"><ele>91.6</ele><time>2026-04-12T06:18:44Z</time></trkpt><trkpt lat="45.341943593048136" lon="9.23544585935595"><ele>91.39999999999999</ele><time>2026-04-12T06:18:46Z</time></trkpt><trkpt lat="45.34185876097936" lon="9.235508866075888"><ele>91.19999999999999</ele><time>2026-04-12T06:18:48Z</time></trkpt><trkpt lat="45.341776325005476" lon="9.23557677297879"><ele>91.0</ele><time>2026-04-12T06:18:50Z</time></trkpt><trkpt lat="45.341698919064626" lon="9.235651912027622"><ele>90.8</ele><time>2026-04-12T06:18:52Z</time></trkpt><trkpt lat="45.34162124400675" lon="9.235722590570905"><ele>90.6</ele><time>2026-04-12T06:18:54Z</time></trkpt><trkpt lat="45.34154606099177" lon="9.235795421577508"><ele>90.4</ele><time>2026-04-12T06:18:56Z</time></trkpt><trkpt lat="45.341470279493215" lon="9.235867825145585"><ele>90.2</ele><time>2026-04-12T06:18:58Z</time></trkpt><trkpt lat="45.34138757743617" lon="9.235937490278744"><ele>90.0</ele><time>2026-04-12T06:19:00Z</time></trkpt><trkpt lat="45.341309367595095" lon="9.236018250028678"><ele>89.6</ele><time>2026-04-12T06:19:02Z</time></trkpt><trkpt lat="45.34122948136384" lon="9.236098901493092"><ele>89.2</ele><time>2026-04-12T06:19:04Z</time></trkpt><trkpt lat="45.34114754517896" lon="9.236174688494105"><ele>88.80000000000001</ele><time>2026-04-12T06:19:06Z</time></trkpt><trkpt lat="45.341067912110475" lon="9.236246174735196"><ele>88.4</ele><time>2026-04-12T06:19:08Z</time></trkpt><trkpt lat="45.340988284425976" lon="9.236320276030332"><ele>88.0</ele><time>2026-04-12T06:19:10Z</time></trkpt><trkpt lat="45.34090477207977" lon="9.23638765519733"><ele>88.0</ele><time>2026-04-12T06:19:12Z</time></trkpt><trkpt lat="45.34081927635799" lon="9.236465259773587"><ele>88.0</ele><time>2026-04-12T06:19:14Z</time></trkpt><trkpt lat="45.34073871250335" lon="9.236533299785322"><ele>88.0</ele><time>2026-04-12T06:19:16Z</time></trkpt><trkpt lat="45.340655173569" lon="9.236605839967329"><ele>88.0</ele><time>2026-04-12T06:19:18Z</time></trkpt><trkpt lat="45.340570247038826" lon="9.236678168902538"><ele>88.0</ele><time>2026-04-12T06:19:20Z</time></trkpt><trkpt lat="45.34048607783426" lon="9.236746522363047"><ele>88.2</ele><time>2026-04-12T06:19:22Z</time></trkpt><trkpt lat="45.340402164272305" lon="9.236824690000962"><ele>88.4</ele><time>2026-04-12T06:19:24Z</time></trkpt><trkpt lat="45.34031867077707" lon="9.236901862580048"><ele>88.60000000000001</ele><time>2026-04-12T06:19:26Z</time></trkpt><trkpt lat="45.34023362274281" lon="9.236976002434737"><ele>88.80000000000001</ele><time>2026-04-12T06:19:28Z</time></trkpt><trkpt lat="45.34014758594058" lon="9.2370495266248"><ele>89.0</ele><time>2026-04-12T06:19:30Z</time></trkpt><trkpt lat="45.34006408727491" lon="9.237124859569384"><ele>89.0</ele><time>2026-04-12T06:19:32Z</time></trkpt><trkpt lat="45.33997801370517" lon="9.237193332315488"><ele>89.0</ele><time>2026-04-12T06:19:34Z</time></trkpt><trkpt lat="45.33989022132241" lon="9.237267471023758"><ele>89.0</ele><time>2026-04-12T06:19:36Z</time></trkpt><trkpt lat="45.339801191344684" lon="9.237342534799977"><ele>89.0</ele><time>2026-04-12T06:19:38Z</time></trkpt><trkpt lat="45.33971471788395" lon="9.237425775648072"><ele>89.0</ele><time>2026-04-12T06:19:40Z</time></trkpt><trkpt lat="45.33962780741854" lon="9.237508460879797"><ele>89.4</ele><time>2026-04-12T06:19:42Z</time></trkpt><trkpt lat="45.339536235356" lon="9.237593873662794"><ele>89.80000000000001</ele><time>2026-04-12T06:19:44Z</time></trkpt><trkpt lat="45.33944671090073" lon="9.23767881525792"><ele>90.19999999999999</ele><time>2026-04-12T06:19:46Z</time></trkpt><trkpt lat="45.33935816537023" lon="9.237765577007242"><ele>90.6</ele><time>2026-04-12T06:19:48Z</time></trkpt><trkpt lat="45.33926835306731" lon="9.23785041657833"><ele>91.0</ele><time>2026-04-12T06:19:50Z</time></trkpt><trkpt lat="45.33917959643162" lon="9.237931140046616"><ele>91.0</ele><time>2026-04-12T06:19:52Z</time></trkpt><trkpt lat="45.339086167051775" lon="9.238004152179053"><ele>91.0</ele><time>2026-04-12T06:19:54Z</time></trkpt><trkpt lat="45.33899699193813" lon="9.23808337211736"><ele>91.0</ele><time>2026-04-12T06:19:56Z</time></trkpt><trkpt lat="45.33890722375114" lon="9.238154912230574"><ele>91.0</ele><time>2026-04-12T06:19:58Z</time></trkpt><trkpt lat="45.33881862881081" lon="9.238229916985027"><ele>91.0</ele><time>2026-04-12T06:20:00Z</time></trkpt><trkpt lat="45.33873064038107" lon="9.238306025713738"><ele>91.0</ele><time>2026-04-12T06:20:02Z</time></trkpt><trkpt lat="45.338640907941745" lon="9.238376185856408"><ele>91.0</ele><time>2026-04-12T06:20:04Z</time></trkpt><trkpt lat="45.33854997493193" lon="9.23844893288065"><ele>91.0</ele><time>2026-04-12T06:20:06Z</time></trkpt><trkpt lat="45.33845762525849" lon="9.238521176550403"><ele>91.0</ele><time>2026-04-12T06:20:08Z</time></trkpt><trkpt lat="45.338368435227395" lon="9.238599720644208"><ele>91.0</ele><time>2026-04-12T06:20:10Z</time></trkpt><trkpt lat="45.33827900321126" lon="9.238677076258094"><ele>91.0</ele><time>2026-04-12T06:20:12Z</time></trkpt><trkpt lat="45.338187696434865" lon="9.23874902107788"><ele>91.0</ele><time>2026-04-12T06:20:14Z</time></trkpt><trkpt lat="45.33809730383653" lon="9.238825978015818"><ele>91.0</ele><time>2026-04-12T06:20:16Z</time></trkpt><trkpt lat="45.338001574888125" lon="9.238895087448952"><ele>91.0</ele><time>2026-04-12T06:20:18Z</time></trkpt><trkpt lat="45.33791104377167" lon="9.238972604869746"><ele>91.0</ele><time>2026-04-12T06:20:20Z</time></trkpt><trkpt lat="45.33782231553168" lon="9.239044176673136"><ele>91.0</ele><time>2026-04-12T06:20:22Z</time></trkpt><trkpt lat="45.33773433058205" lon="9.239114673943469"><ele>91.0</ele><time>2026-04-12T06:20:24Z</time></trkpt><trkpt lat="45.337644059987774" lon="9.2391855631913"><ele>91.0</ele><time>2026-04-12T06:20:26Z</time></trkpt><trkpt lat="45.33755377007043" lon="9.239259851466459"><ele>91.0</ele><time>2026-04-12T06:20:28Z</time></trkpt><trkpt lat="45.33746162737445" lon="9.239330124126163"><ele>91.0</ele><time>2026-04-12T06:20:30Z</time></trkpt><trkpt lat="45.337371142792634" lon="9.239402190590653"><ele>91.0</ele><time>2026-04-12T06:20:32Z</time></trkpt><trkpt lat="45.33727749406918" lon="9.239475392680097"><ele>91.0</ele><time>2026-04-12T06:20:34Z</time></trkpt><trkpt lat="45.33718424695541" lon="9.239544265548977"><ele>91.0</ele><time>2026-04-12T06:20:36Z</time></trkpt><trkpt lat="45.337094418445844" lon="9.239617984439052"><ele>91.0</ele><time>2026-04-12T06:20:38Z</time></trkpt><trkpt lat="45.33700739517167" lon="9.239688515494349"><ele>91.0</ele><time>2026-04-12T06:20:40Z</time></trkpt><trkpt lat="45.33692057835792" lon="9.23976152134385"><ele>91.0</ele><time>2026-04-12T06:20:42Z</time></trkpt><trkpt lat="45.336830745356544" lon="9.239833232596261"><ele>91.0</ele><time>2026-04-12T06:20:44Z</time></trkpt><trkpt lat="45.336740902465564" lon="9.239908363301275"><ele>91.0</ele><time>2026-04-12T06:20:46Z</time></trkpt><trkpt lat="45.33664997836817" lon="9.239978903315452"><ele>91.0</ele><time>2026-04-12T06:20:48Z</time></trkpt><trkpt lat="45.336558508563954" lon="9.240049604521205"><ele>91.0</ele><time>2026-04-12T06:20:50Z</time></trkpt><trkpt lat="45.33647024517585" lon="9.240127789220814"><ele>91.0</ele><time>2026-04-12T06:20:52Z</time></trkpt><trkpt lat="45.33638054831096" lon="9.240201381066237"><ele>91.0</ele><time>2026-04-12T06:20:54Z</time></trkpt><trkpt lat="45.336288827517194" lon="9.240270657081956"><ele>91.0</ele><time>2026-04-12T06:20:56Z</time></trkpt><trkpt lat="45.33619776551905" lon="9.240344925884827"><ele>91.0</ele><time>2026-04-12T06:20:58Z</time></trkpt><trkpt lat="45.33610837197356" lon="9.240423152396007"><ele>91.0</ele><time>2026-04-12T06:21:00Z</time></trkpt><trkpt lat="45.336015032120855" lon="9.240492082855367"><ele>91.0</ele><time>2026-04-12T06:21:02Z</time></trkpt><trkpt lat="45.33592448411182" lon="9.240567338515579"><ele>91.0</ele><time>2026-04-12T06:21:04Z</time></trkpt><trkpt lat="45.3358350111915" lon="9.240646033371178"><ele>91.0</ele><time>2026-04-12T06:21:06Z</time></trkpt><trkpt lat="45.33574339741878" lon="9.24071682770802"><ele>91.0</ele><time>2026-04-12T06:21:08Z</time></trkpt><trkpt lat="45.33565338759175" lon="9.240789177172932"><ele>91.0</ele><time>2026-04-12T06:21:10Z</time></trkpt><trkpt lat="45.33555965877123" lon="9.240859347107767"><ele>90.8</ele><time>2026-04-12T06:21:12Z</time></trkpt><trkpt lat="45.33547528949233" lon="9.240934251505543"><ele>90.6</ele><time>2026-04-12T06:21:14Z</time></trkpt><trkpt lat="45.33539127731761" lon="9.241011668621997"><ele>90.4</ele><time>2026-04-12T06:21:16Z</time></trkpt><trkpt lat="45.335304911798126" lon="9.241079644879404"><ele>90.2</ele><time>2026-04-12T06:21:18Z</time></trkpt><trkpt lat="45.335218700078336" lon="9.241148411938955"><ele>90.0</ele><time>2026-04-12T06:21:20Z</time></trkpt><trkpt lat="45.33513262153247" lon="9.241213146853495"><ele>90.0</ele><time>2026-04-12T06:21:22Z</time></trkpt><trkpt lat="45.33505145339702" lon="9.241275956884651"><ele>90.0</ele><time>2026-04-12T06:21:24Z</time></trkpt><trkpt lat="45.33497444375732" lon="9.241341353879259"><ele>90.0</ele><time>2026-04-12T06:21:26Z</time></trkpt><trkpt lat="45.334891790397045" lon="9.24142010645706"><ele>90.0</ele><time>2026-04-12T06:21:28Z</time></trkpt><trkpt lat="45.33480811277089" lon="9.241496642761087"><ele>90.0</ele><time>2026-04-12T06:21:30Z</time></trkpt><trkpt lat="45.33472448451196" lon="9.241573193268387"><ele>90.0</ele><time>2026-04-12T06:21:32Z</time></trkpt><trkpt lat="45.33464194130783" lon="9.241653389972408"><ele>90.0</ele><time>2026-04-12T06:21:34Z</time></trkpt><trkpt lat="45.334563920764786" lon="9.24173115635772"><ele>90.0</ele><time>2026-04-12T06:21:36Z</time></trkpt><trkpt lat="45.334487323038566" lon="9.241798954920446"><ele>90.0</ele><time>2026-04-12T06:21:38Z</time></trkpt><trkpt lat="45.3344070198353" lon="9.24186797488236"><ele>90.0</ele><time>2026-04-12T06:21:40Z</time></trkpt><trkpt lat="45.33433035176332" lon="9.241947228868385"><ele>90.0</ele><time>2026-04-12T06:21:42Z</time></trkpt><trkpt lat="45.33425300162758" lon="9.242024880137354"><ele>90.0</ele><time>2026-04-12T06:21:44Z</time></trkpt><trkpt lat="45.33417984687965" lon="9.242092724390615"><ele>90.0</ele><time>2026-04-12T06:21:46Z</time></trkpt><trkpt lat="45.334109690662686" lon="9.242157820987414"><ele>90.0</ele><time>2026-04-12T06:21:48Z</time></trkpt><trkpt lat="45.33404710270348" lon="9.242219334479364"><ele>90.0</ele><time>2026-04-12T06:21:50Z</time></trkpt><trkpt lat="45.333964796726534" lon="9.242265352284203"><ele>90.0</ele><time>2026-04-12T06:21:53Z</time></trkpt><trkpt lat="45.333899422781286" lon="9.242276882993597"><ele>90.16666666666667</ele><time>2026-04-12T06:21:56Z</time></trkpt><trkpt lat="45.33383297241588" lon="9.24229712912732"><ele>90.33333333333333</ele><time>2026-04-12T06:22:08Z</time></trkpt><trkpt lat="45.33376519523873" lon="9.242360180143244"><ele>90.5</ele><time>2026-04-12T06:22:11Z</time></trkpt><trkpt lat="45.3337694589801" lon="9.242459808504396"><ele>90.66666666666666</ele><time>2026-04-12T06:22:14Z</time></trkpt><trkpt lat="45.33372082578093" lon="9.242541548728486"><ele>90.83333333333333</ele><time>2026-04-12T06:22:16Z</time></trkpt><trkpt lat="45.33362195244079" lon="9.24263719784132"><ele>91.0</ele><time>2026-04-12T06:22:18Z</time></trkpt><trkpt lat="45.333516578129334" lon="9.242712473390672"><ele>91.16666666666666</ele><time>2026-04-12T06:22:20Z</time></trkpt><trkpt lat="45.33346719696808" lon="9.242768767347949"><ele>91.33333333333333</ele><time>2026-04-12T06:22:21Z</time></trkpt><trkpt lat="45.333408777268204" lon="9.242808731233582"><ele>91.5</ele><time>2026-04-12T06:22:22Z</time></trkpt><trkpt lat="45.3333538386359" lon="9.24285253584965"><ele>91.66666666666667</ele><time>2026-04-12T06:22:23Z</time></trkpt><trkpt lat="45.33325077136306" lon="9.242937000108162"><ele>91.83333333333334</ele><time>2026-04-12T06:22:25Z</time></trkpt><trkpt lat="45.33315279960477" lon="9.243021397808207"><ele>92.0</ele><time>2026-04-12T06:22:27Z</time></trkpt><trkpt lat="45.33305630619848" lon="9.243099778441008"><ele>91.8</ele><time>2026-04-12T06:22:29Z</time></trkpt><trkpt lat="45.33296578197239" lon="9.243175289891703"><ele>91.6</ele><time>2026-04-12T06:22:31Z</time></trkpt><trkpt lat="45.33287355781823" lon="9.243254926368776"><ele>91.39999999999999</ele><time>2026-04-12T06:22:33Z</time></trkpt><trkpt lat="45.33278238338003" lon="9.24332762049802"><ele>91.19999999999999</ele><time>2026-04-12T06:22:35Z</time></trkpt><trkpt lat="45.3326948623311" lon="9.243405443371035"><ele>91.0</ele><time>2026-04-12T06:22:37Z</time></trkpt><trkpt lat="45.33261266418851" lon="9.243476854558086"><ele>91.0</ele><time>2026-04-12T06:22:39Z</time></trkpt><trkpt lat="45.33252689452892" lon="9.243541408116833"><ele>91.0</ele><time>2026-04-12T06:22:41Z</time></trkpt><trkpt lat="45.3324442687153" lon="9.24361554091603"><ele>91.0</ele><time>2026-04-12T06:22:43Z</time></trkpt><trkpt lat="45.33235298840199" lon="9.243703305782773"><ele>91.0</ele><time>2026-04-12T06:22:45Z</time></trkpt><trkpt lat="45.33226417975194" lon="9.243783397052688"><ele>91.0</ele><time>2026-04-12T06:22:47Z</time></trkpt><trkpt lat="45.33217788580529" lon="9.243853619889977"><ele>90.8</ele><time>2026-04-12T06:22:49Z</time></trkpt><trkpt lat="45.332094109986734" lon="9.243931973006882"><ele>90.6</ele><time>2026-04-12T06:22:51Z</time></trkpt><trkpt lat="45.33199695575183" lon="9.244004681575039"><ele>90.4</ele><time>2026-04-12T06:22:53Z</time></trkpt><trkpt lat="45.33190242079154" lon="9.244094190621164"><ele>90.2</ele><time>2026-04-12T06:22:55Z</time></trkpt><trkpt lat="45.33180126171201" lon="9.244172727762209"><ele>90.0</ele><time>2026-04-12T06:22:57Z</time></trkpt><trkpt lat="45.33170984159485" lon="9.24425956519218"><ele>90.0</ele><time>2026-04-12T06:22:59Z</time></trkpt><trkpt lat="45.33162236943063" lon="9.24435952027143"><ele>90.0</ele><time>2026-04-12T06:23:01Z</time></trkpt><trkpt lat="45.33153215534723" lon="9.244414255702887"><ele>90.0</ele><time>2026-04-12T06:23:03Z</time></trkpt><trkpt lat="45.33144743741948" lon="9.244490545961957"><ele>90.0</ele><time>2026-04-12T06:23:05Z</time></trkpt><trkpt lat="45.33136024978838" lon="9.24456268333624"><ele>90.0</ele><time>2026-04-12T06:23:07Z</time></trkpt><trkpt lat="45.33127115023487" lon="9.244633329716853"><ele>89.83333333333333</ele><time>2026-04-12T06:23:09Z</time></trkpt><trkpt lat="45.33119335851489" lon="9.244702424409876"><ele>89.66666666666667</ele><time>2026-04-12T06:23:11Z</time></trkpt><trkpt lat="45.33111980805057" lon="9.244765545268939"><ele>89.5</ele><time>2026-04-12T06:23:13Z</time></trkpt><trkpt lat="45.331044350169364" lon="9.244817770367623"><ele>89.33333333333334</ele><time>2026-04-12T06:23:15Z</time></trkpt><trkpt lat="45.3309687670707" lon="9.244890020798376"><ele>89.16666666666667</ele><time>2026-04-12T06:23:17Z</time></trkpt><trkpt lat="45.33092767460367" lon="9.244987748345094"><ele>89.0</ele><time>2026-04-12T06:23:19Z</time></trkpt><trkpt lat="45.33095680993855" lon="9.24508666566928"><ele>89.0</ele><time>2026-04-12T06:23:21Z</time></trkpt><trkpt lat="45.330968980296426" lon="9.245177205164936"><ele>89.0</ele><time>2026-04-12T06:23:24Z</time></trkpt><trkpt lat="45.33092546900912" lon="9.245296251339537"><ele>89.0</ele><time>2026-04-12T06:23:27Z</time></trkpt><trkpt lat="45.33094308403929" lon="9.245424792335609"><ele>89.0</ele><time>2026-04-12T06:23:30Z</time></trkpt><trkpt lat="45.33097872074067" lon="9.245510400854931"><ele>89.0</ele><time>2026-04-12T06:23:32Z</time></trkpt><trkpt lat="45.33101421833014" lon="9.24560608884619"><ele>89.0</ele><time>2026-04-12T06:23:34Z</time></trkpt><trkpt lat="45.331054022021206" lon="9.245705590701581"><ele>89.16666666666667</ele><time>2026-04-12T06:23:36Z</time></trkpt><trkpt lat="45.33109337778161" lon="9.245807962138912"><ele>89.33333333333334</ele><time>2026-04-12T06:23:38Z</time></trkpt><trkpt lat="45.33113643160976" lon="9.245904826210623"><ele>89.5</ele><time>2026-04-12T06:23:40Z</time></trkpt><trkpt lat="45.33114980444403" lon="9.246020467154107"><ele>89.66666666666667</ele><time>2026-04-12T06:23:42Z</time></trkpt><trkpt lat="45.33119398965165" lon="9.246119668012438"><ele>89.83333333333333</ele><time>2026-04-12T06:23:44Z</time></trkpt><trkpt lat="45.33123257942126" lon="9.246222361138845"><ele>90.0</ele><time>2026-04-12T06:23:46Z</time></trkpt><trkpt lat="45.33127364867915" lon="9.246327366612777"><ele>90.0</ele><time>2026-04-12T06:23:48Z</time></trkpt><trkpt lat="45.33131654773881" lon="9.246433051794385"><ele>90.0</ele><time>2026-04-12T06:23:50Z</time></trkpt><trkpt lat="45.331358794488445" lon="9.246533102108886"><ele>90.0</ele><time>2026-04-12T06:23:52Z</time></trkpt><trkpt lat="45.331398456251584" lon="9.246634570137637"><ele>90.0</ele><time>2026-04-12T06:23:54Z</time></trkpt><trkpt lat="45.33144545942255" lon="9.246735760397545"><ele>90.0</ele><time>2026-04-12T06:23:56Z</time></trkpt><trkpt lat="45.33148500384106" lon="9.246842513884722"><ele>90.0</ele><time>2026-04-12T06:23:58Z</time></trkpt><trkpt lat="45.33152192214611" lon="9.246948080091306"><ele>90.0</ele><time>2026-04-12T06:24:00Z</time></trkpt><trkpt lat="45.331564877940494" lon="9.247054801891856"><ele>90.0</ele><time>2026-04-12T06:24:02Z</time></trkpt><trkpt lat="45.331604255276545" lon="9.247163673582417"><ele>90.0</ele><time>2026-04-12T06:24:04Z</time></trkpt><trkpt lat="45.33164411451384" lon="9.247277979077609"><ele>90.0</ele><time>2026-04-12T06:24:06Z</time></trkpt><trkpt lat="45.331692264579985" lon="9.24738550962955"><ele>90.0</ele><time>2026-04-12T06:24:08Z</time></trkpt><trkpt lat="45.33173285836262" lon="9.247489450194518"><ele>90.0</ele><time>2026-04-12T06:24:10Z</time></trkpt><trkpt lat="45.33176955799325" lon="9.247601231838951"><ele>90.0</ele><time>2026-04-12T06:24:12Z</time></trkpt><trkpt lat="45.3317955222869" lon="9.24772001829202"><ele>90.0</ele><time>2026-04-12T06:24:14Z</time></trkpt><trkpt lat="45.33181721363798" lon="9.247843194127327"><ele>90.0</ele><time>2026-04-12T06:24:16Z</time></trkpt><trkpt lat="45.331840545162976" lon="9.247963273996485"><ele>90.0</ele><time>2026-04-12T06:24:18Z</time></trkpt><trkpt lat="45.33187131113321" lon="9.248079078809667"><ele>90.0</ele><time>2026-04-12T06:24:20Z</time></trkpt><trkpt lat="45.33191277572652" lon="9.24818862317802"><ele>90.0</ele><time>2026-04-12T06:24:22Z</time></trkpt><trkpt lat="45.33196035470511" lon="9.248296458074151"><ele>90.0</ele><time>2026-04-12T06:24:24Z</time></trkpt><trkpt lat="45.33201447319981" lon="9.248409370527371"><ele>90.0</ele><time>2026-04-12T06:24:26Z</time></trkpt><trkpt lat="45.332073950440204" lon="9.248516970362232"><ele>90.0</ele><time>2026-04-12T06:24:28Z</time></trkpt><trkpt lat="45.332130962717414" lon="9.248626421007021"><ele>90.0</ele><time>2026-04-12T06:24:30Z</time></trkpt><trkpt lat="45.332186724533905" lon="9.248733165395485"><ele>90.0</ele><time>2026-04-12T06:24:32Z</time></trkpt><trkpt lat="45.3322440368925" lon="9.248836839188096"><ele>90.2</ele><time>2026-04-12T06:24:34Z</time></trkpt><trkpt lat="45.33229826079245" lon="9.248941244848757"><ele>90.4</ele><time>2026-04-12T06:24:36Z</time></trkpt><trkpt lat="45.332353164421505" lon="9.249045963565786"><ele>90.6</ele><time>2026-04-12T06:24:38Z</time></trkpt><trkpt lat="45.33240845500758" lon="9.24914674772949"><ele>90.8</ele><time>2026-04-12T06:24:40Z</time></trkpt><trkpt lat="45.3324622901081" lon="9.24925321980607"><ele>91.0</ele><time>2026-04-12T06:24:42Z</time></trkpt><trkpt lat="45.33252082395051" lon="9.249351568237948"><ele>91.0</ele><time>2026-04-12T06:24:44Z</time></trkpt><trkpt lat="45.332579647096395" lon="9.249448378718016"><ele>91.0</ele><time>2026-04-12T06:24:46Z</time></trkpt><trkpt lat="45.3326380803539" lon="9.249538825078703"><ele>91.0</ele><time>2026-04-12T06:24:48Z</time></trkpt><trkpt lat="45.33269906751558" lon="9.24963094553276"><ele>91.0</ele><time>2026-04-12T06:24:50Z</time></trkpt><trkpt lat="45.33276109696537" lon="9.249742219365142"><ele>91.0</ele><time>2026-04-12T06:24:52Z</time></trkpt><trkpt lat="45.33282804811913" lon="9.249852123320913"><ele>91.0</ele><time>2026-04-12T06:24:54Z</time></trkpt><trkpt lat="45.33289501029105" lon="9.249957219466749"><ele>91.0</ele><time>2026-04-12T06:24:56Z</time></trkpt><trkpt lat="45.332955784922575" lon="9.250060170785412"><ele>91.0</ele><time>2026-04-12T06:24:58Z</time></trkpt><trkpt lat="45.33301576291884" lon="9.25016025160968"><ele>91.0</ele><time>2026-04-12T06:25:00Z</time></trkpt><trkpt lat="45.333076708926754" lon="9.250258710678278"><ele>91.0</ele><time>2026-04-12T06:25:02Z</time></trkpt><trkpt lat="45.33313915917488" lon="9.250351577921817"><ele>91.0</ele><time>2026-04-12T06:25:04Z</time></trkpt><trkpt lat="45.3332022955348" lon="9.250440402363267"><ele>91.0</ele><time>2026-04-12T06:25:06Z</time></trkpt><trkpt lat="45.33327036996756" lon="9.25052761856374"><ele>91.0</ele><time>2026-04-12T06:25:08Z</time></trkpt><trkpt lat="45.33333263224403" lon="9.250621044252338"><ele>91.0</ele><time>2026-04-12T06:25:10Z</time></trkpt><trkpt lat="45.33338543694953" lon="9.250718914397485"><ele>91.0</ele><time>2026-04-12T06:25:12Z</time></trkpt><trkpt lat="45.33343623473076" lon="9.250814824697327"><ele>91.0</ele><time>2026-04-12T06:25:14Z</time></trkpt><trkpt lat="45.33348687979764" lon="9.250900350597394"><ele>91.0</ele><time>2026-04-12T06:25:16Z</time></trkpt><trkpt lat="45.33353353402506" lon="9.250990375829266"><ele>91.0</ele><time>2026-04-12T06:25:18Z</time></trkpt><trkpt lat="45.333590367521374" lon="9.251079684040851"><ele>91.0</ele><time>2026-04-12T06:25:20Z</time></trkpt><trkpt lat="45.33364725481699" lon="9.251189313766531"><ele>91.0</ele><time>2026-04-12T06:25:22Z</time></trkpt><trkpt lat="45.333698197422564" lon="9.251303814077314"><ele>91.0</ele><time>2026-04-12T06:25:24Z</time></trkpt><trkpt lat="45.333752884555395" lon="9.251402512072207"><ele>91.0</ele><time>2026-04-12T06:25:26Z</time></trkpt><trkpt lat="45.333803351255156" lon="9.251506251253456"><ele>91.0</ele><time>2026-04-12T06:25:28Z</time></trkpt><trkpt lat="45.333856569255374" lon="9.251611393865883"><ele>91.0</ele><time>2026-04-12T06:25:30Z</time></trkpt><trkpt lat="45.33391505091797" lon="9.251707311626951"><ele>91.0</ele><time>2026-04-12T06:25:32Z</time></trkpt><trkpt lat="45.33398008645079" lon="9.25180044162365"><ele>91.0</ele><time>2026-04-12T06:25:34Z</time></trkpt><trkpt lat="45.334038358141854" lon="9.251901886688428"><ele>91.0</ele><time>2026-04-12T06:25:36Z</time></trkpt><trkpt lat="45.3340953887723" lon="9.25200243811866"><ele>91.0</ele><time>2026-04-12T06:25:38Z</time></trkpt><trkpt lat="45.3341529725313" lon="9.252105675364628"><ele>91.0</ele><time>2026-04-12T06:25:40Z</time></trkpt><trkpt lat="45.334216815680335" lon="9.252209514667397"><ele>91.0</ele><time>2026-04-12T06:25:42Z</time></trkpt><trkpt lat="45.33427469260622" lon="9.252306378659231"><ele>91.0</ele><time>2026-04-12T06:25:44Z</time></trkpt><trkpt lat="45.33433269623749" lon="9.252404083610662"><ele>91.0</ele><time>2026-04-12T06:25:46Z</time></trkpt><trkpt lat="45.33439294643299" lon="9.252502076921234"><ele>91.0</ele><time>2026-04-12T06:25:48Z</time></trkpt><trkpt lat="45.334455586122544" lon="9.252599025823661"><ele>91.0</ele><time>2026-04-12T06:25:50Z</time></trkpt><trkpt lat="45.33451982145575" lon="9.252697370040133"><ele>91.0</ele><time>2026-04-12T06:25:52Z</time></trkpt><trkpt lat="45.33458163343383" lon="9.25279332410252"><ele>91.0</ele><time>2026-04-12T06:25:54Z</time></trkpt><trkpt lat="45.33463787847996" lon="9.252892047824146"><ele>91.0</ele><time>2026-04-12T06:25:56Z</time></trkpt><trkpt lat="45.33469523866857" lon="9.252995333838589"><ele>91.19999999999999</ele><time>2026-04-12T06:25:58Z</time></trkpt><trkpt lat="45.33475304166246" lon="9.253098031132577"><ele>91.39999999999999</ele><time>2026-04-12T06:26:00Z</time></trkpt><trkpt lat="45.334822931310484" lon="9.253190776776755"><ele>91.6</ele><time>2026-04-12T06:26:02Z</time></trkpt><trkpt lat="45.33489520806078" lon="9.25328244472909"><ele>91.8</ele><time>2026-04-12T06:26:04Z</time></trkpt><trkpt lat="45.33496460873186" lon="9.253386013280737"><ele>92.0</ele><time>2026-04-12T06:26:06Z</time></trkpt><trkpt lat="45.33502479430507" lon="9.253499059493713"><ele>92.0</ele><time>2026-04-12T06:26:08Z</time></trkpt><trkpt lat="45.33508820001266" lon="9.253609970010208"><ele>92.0</ele><time>2026-04-12T06:26:10Z</time></trkpt><trkpt lat="45.33515003272683" lon="9.253721319204269"><ele>92.0</ele><time>2026-04-12T06:26:12Z</time></trkpt><trkpt lat="45.33520753068813" lon="9.253832317488998"><ele>92.0</ele><time>2026-04-12T06:26:14Z</time></trkpt><trkpt lat="45.33526914376981" lon="9.25393652176747"><ele>92.0</ele><time>2026-04-12T06:26:16Z</time></trkpt><trkpt lat="45.335321675338434" lon="9.254050427147245"><ele>92.0</ele><time>2026-04-12T06:26:18Z</time></trkpt><trkpt lat="45.33536382021668" lon="9.254171340749846"><ele>92.0</ele><time>2026-04-12T06:26:20Z</time></trkpt><trkpt lat="45.33539743386559" lon="9.25429628912983"><ele>92.0</ele><time>2026-04-12T06:26:22Z</time></trkpt><trkpt lat="45.33543050264462" lon="9.254419713458867"><ele>92.0</ele><time>2026-04-12T06:26:24Z</time></trkpt><trkpt lat="45.335462762532465" lon="9.254543677267154"><ele>92.0</ele><time>2026-04-12T06:26:26Z</time></trkpt><trkpt lat="45.33549969309869" lon="9.25466605447748"><ele>91.6</ele><time>2026-04-12T06:26:28Z</time></trkpt><trkpt lat="45.335530595197255" lon="9.254792654768183"><ele>91.19999999999999</ele><time>2026-04-12T06:26:30Z</time></trkpt><trkpt lat="45.33556374770942" lon="9.254916966938193"><ele>90.8</ele><time>2026-04-12T06:26:32Z</time></trkpt><trkpt lat="45.33560058089466" lon="9.25503980608645"><ele>90.4</ele><time>2026-04-12T06:26:34Z</time></trkpt><trkpt lat="45.3356342417904" lon="9.25516385891212"><ele>90.0</ele><time>2026-04-12T06:26:36Z</time></trkpt><trkpt lat="45.33566691654024" lon="9.255288664696542"><ele>89.8</ele><time>2026-04-12T06:26:38Z</time></trkpt><trkpt lat="45.33570250452591" lon="9.255410722089197"><ele>89.6</ele><time>2026-04-12T06:26:40Z</time></trkpt><trkpt lat="45.33573751352771" lon="9.255536070945007"><ele>89.4</ele><time>2026-04-12T06:26:42Z</time></trkpt><trkpt lat="45.33577212902463" lon="9.255660789169717"><ele>89.2</ele><time>2026-04-12T06:26:44Z</time></trkpt><trkpt lat="45.33580629484451" lon="9.25578569701582"><ele>89.0</ele><time>2026-04-12T06:26:46Z</time></trkpt><trkpt lat="45.33584384627284" lon="9.25590846720538"><ele>89.0</ele><time>2026-04-12T06:26:48Z</time></trkpt><trkpt lat="45.33587903846033" lon="9.256033008654873"><ele>89.0</ele><time>2026-04-12T06:26:50Z</time></trkpt><trkpt lat="45.3359142190111" lon="9.256158062965431"><ele>89.0</ele><time>2026-04-12T06:26:52Z</time></trkpt><trkpt lat="45.335947940936315" lon="9.256286179343826"><ele>89.0</ele><time>2026-04-12T06:26:54Z</time></trkpt><trkpt lat="45.33598344405065" lon="9.25641515108202"><ele>89.0</ele><time>2026-04-12T06:26:56Z</time></trkpt><trkpt lat="45.33602152362367" lon="9.256539954094002"><ele>89.0</ele><time>2026-04-12T06:26:58Z</time></trkpt><trkpt lat="45.33605275698593" lon="9.256667536007525"><ele>89.0</ele><time>2026-04-12T06:27:00Z</time></trkpt><trkpt lat="45.33609045860099" lon="9.256792308762108"><ele>89.0</ele><time>2026-04-12T06:27:02Z</time></trkpt><trkpt lat="45.33612681277056" lon="9.25691891118237"><ele>89.0</ele><time>2026-04-12T06:27:04Z</time></trkpt><trkpt lat="45.336160662037486" lon="9.257048003246513"><ele>89.0</ele><time>2026-04-12T06:27:06Z</time></trkpt><trkpt lat="45.336195575974365" lon="9.257173862016973"><ele>89.0</ele><time>2026-04-12T06:27:08Z</time></trkpt><trkpt lat="45.33622941133963" lon="9.257299464287563"><ele>89.0</ele><time>2026-04-12T06:27:10Z</time></trkpt><trkpt lat="45.33626671200333" lon="9.257425503621418"><ele>89.0</ele><time>2026-04-12T06:27:12Z</time></trkpt><trkpt lat="45.33629947191017" lon="9.257553273899138"><ele>89.0</ele><time>2026-04-12T06:27:14Z</time></trkpt><trkpt lat="45.33633451501596" lon="9.257680431672627"><ele>89.0</ele><time>2026-04-12T06:27:16Z</time></trkpt><trkpt lat="45.33636904074704" lon="9.257805987155125"><ele>89.2</ele><time>2026-04-12T06:27:18Z</time></trkpt><trkpt lat="45.33640689200036" lon="9.257931412847384"><ele>89.4</ele><time>2026-04-12T06:27:20Z</time></trkpt><trkpt lat="45.336438715683954" lon="9.258057264180149"><ele>89.6</ele><time>2026-04-12T06:27:22Z</time></trkpt><trkpt lat="45.336472108688945" lon="9.258182163289169"><ele>89.8</ele><time>2026-04-12T06:27:24Z</time></trkpt><trkpt lat="45.33650764994995" lon="9.258308308191468"><ele>90.0</ele><time>2026-04-12T06:27:26Z</time></trkpt><trkpt lat="45.33653951920041" lon="9.258435592332518"><ele>90.0</ele><time>2026-04-12T06:27:28Z</time></trkpt><trkpt lat="45.336574360897295" lon="9.258571140764845"><ele>90.0</ele><time>2026-04-12T06:27:30Z</time></trkpt><trkpt lat="45.33661461787247" lon="9.258688298239665"><ele>90.0</ele><time>2026-04-12T06:27:32Z</time></trkpt><trkpt lat="45.33666923214278" lon="9.258798827918032"><ele>90.0</ele><time>2026-04-12T06:27:34Z</time></trkpt><trkpt lat="45.33672433749505" lon="9.258909879491595"><ele>90.0</ele><time>2026-04-12T06:27:36Z</time></trkpt><trkpt lat="45.33678021590743" lon="9.259026119228169"><ele>90.2</ele><time>2026-04-12T06:27:38Z</time></trkpt><trkpt lat="45.33683373188893" lon="9.259140592737538"><ele>90.4</ele><time>2026-04-12T06:27:40Z</time></trkpt><trkpt lat="45.33688907835361" lon="9.259251795911275"><ele>90.6</ele><time>2026-04-12T06:27:42Z</time></trkpt><trkpt lat="45.33694010817444" lon="9.259364746244493"><ele>90.8</ele><time>2026-04-12T06:27:44Z</time></trkpt><trkpt lat="45.33699437910777" lon="9.259474380938233"><ele>91.0</ele><time>2026-04-12T06:27:46Z</time></trkpt><trkpt lat="45.337048365977644" lon="9.259587273881925"><ele>91.0</ele><time>2026-04-12T06:27:48Z</time></trkpt><trkpt lat="45.337099505971366" lon="9.259704275272439"><ele>91.0</ele><time>2026-04-12T06:27:50Z</time></trkpt><trkpt lat="45.33715550446835" lon="9.259816913876339"><ele>91.0</ele><time>2026-04-12T06:27:52Z</time></trkpt><trkpt lat="45.337210079931914" lon="9.25993319697638"><ele>91.0</ele><time>2026-04-12T06:27:54Z</time></trkpt><trkpt lat="45.33726314324288" lon="9.260047185045694"><ele>91.0</ele><time>2026-04-12T06:27:56Z</time></trkpt><trkpt lat="45.33731877471172" lon="9.260157143222015"><ele>91.0</ele><time>2026-04-12T06:27:58Z</time></trkpt><trkpt lat="45.33737695331714" lon="9.260263910639875"><ele>91.0</ele><time>2026-04-12T06:28:00Z</time></trkpt><trkpt lat="45.33744075894889" lon="9.260366563472214"><ele>91.0</ele><time>2026-04-12T06:28:02Z</time></trkpt><trkpt lat="45.337502604564584" lon="9.260472158936741"><ele>91.0</ele><time>2026-04-12T06:28:04Z</time></trkpt><trkpt lat="45.33756233546174" lon="9.260576802321268"><ele>91.0</ele><time>2026-04-12T06:28:06Z</time></trkpt><trkpt lat="45.3376206244853" lon="9.260682694788072"><ele>91.0</ele><time>2026-04-12T06:28:08Z</time></trkpt><trkpt lat="45.33767986720481" lon="9.260789083926195"><ele>91.0</ele><time>2026-04-12T06:28:10Z</time></trkpt><trkpt lat="45.337737861139026" lon="9.260899251037426"><ele>91.0</ele><time>2026-04-12T06:28:12Z</time></trkpt><trkpt lat="45.3377986967912" lon="9.261004765667067"><ele>91.0</ele><time>2026-04-12T06:28:14Z</time></trkpt><trkpt lat="45.337857495390594" lon="9.261114823819687"><ele>91.0</ele><time>2026-04-12T06:28:16Z</time></trkpt><trkpt lat="45.33791927372185" lon="9.2612222218198"><ele>91.0</ele><time>2026-04-12T06:28:18Z</time></trkpt><trkpt lat="45.33797938395959" lon="9.2613311807685"><ele>91.0</ele><time>2026-04-12T06:28:20Z</time></trkpt><trkpt lat="45.33803490421041" lon="9.261441930670909"><ele>91.0</ele><time>2026-04-12T06:28:22Z</time></trkpt><trkpt lat="45.338086493015105" lon="9.261557001636644"><ele>91.0</ele><time>2026-04-12T06:28:24Z</time></trkpt><trkpt lat="45.338143577264646" lon="9.261667754481381"><ele>91.0</ele><time>2026-04-12T06:28:26Z</time></trkpt><trkpt lat="45.33818993784811" lon="9.261783876844065"><ele>90.6</ele><time>2026-04-12T06:28:28Z</time></trkpt><trkpt lat="45.338231920146704" lon="9.261907609322416"><ele>90.19999999999999</ele><time>2026-04-12T06:28:30Z</time></trkpt><trkpt lat="45.33826359748656" lon="9.262036483930682"><ele>89.80000000000001</ele><time>2026-04-12T06:28:32Z</time></trkpt><trkpt lat="45.338291882750895" lon="9.262167120471688"><ele>89.4</ele><time>2026-04-12T06:28:34Z</time></trkpt><trkpt lat="45.33831779913128" lon="9.262295624765253"><ele>89.0</ele><time>2026-04-12T06:28:36Z</time></trkpt><trkpt lat="45.33835945105147" lon="9.26241938258542"><ele>88.80000000000001</ele><time>2026-04-12T06:28:38Z</time></trkpt><trkpt lat="45.338407762581454" lon="9.262537200926563"><ele>88.60000000000001</ele><time>2026-04-12T06:28:40Z</time></trkpt><trkpt lat="45.33845628486179" lon="9.262653822815546"><ele>88.4</ele><time>2026-04-12T06:28:42Z</time></trkpt><trkpt lat="45.338505845196686" lon="9.26277919114168"><ele>88.2</ele><time>2026-04-12T06:28:44Z</time></trkpt><trkpt lat="45.33855357308451" lon="9.262902357432766"><ele>88.0</ele><time>2026-04-12T06:28:46Z</time></trkpt><trkpt lat="45.338592076014166" lon="9.263028259034389"><ele>87.80000000000001</ele><time>2026-04-12T06:28:48Z</time></trkpt><trkpt lat="45.33863515192296" lon="9.263154137939841"><ele>87.6</ele><time>2026-04-12T06:28:50Z</time></trkpt><trkpt lat="45.338676236052954" lon="9.263281880778509"><ele>87.4</ele><time>2026-04-12T06:28:52Z</time></trkpt><trkpt lat="45.33871692919041" lon="9.263411026655586"><ele>87.19999999999999</ele><time>2026-04-12T06:28:54Z</time></trkpt><trkpt lat="45.33875875743209" lon="9.263537550989023"><ele>87.0</ele><time>2026-04-12T06:28:56Z</time></trkpt><trkpt lat="45.33879767135872" lon="9.263663716072436"><ele>87.0</ele><time>2026-04-12T06:28:58Z</time></trkpt><trkpt lat="45.33883453650947" lon="9.263789676182961"><ele>87.0</ele><time>2026-04-12T06:29:00Z</time></trkpt><trkpt lat="45.33887883338947" lon="9.263913540543243"><ele>87.0</ele><time>2026-04-12T06:29:02Z</time></trkpt><trkpt lat="45.33891147590772" lon="9.264047862515959"><ele>87.0</ele><time>2026-04-12T06:29:04Z</time></trkpt><trkpt lat="45.33895043979266" lon="9.264169609022192"><ele>87.0</ele><time>2026-04-12T06:29:06Z</time></trkpt><trkpt lat="45.33898699196912" lon="9.264295277151206"><ele>87.19999999999999</ele><time>2026-04-12T06:29:08Z</time></trkpt><trkpt lat="45.33902675374871" lon="9.264418767854295"><ele>87.4</ele><time>2026-04-12T06:29:10Z</time></trkpt><trkpt lat="45.33906367781339" lon="9.264542910096555"><ele>87.6</ele><time>2026-04-12T06:29:12Z</time></trkpt><trkpt lat="45.33910435241685" lon="9.264667079816896"><ele>87.80000000000001</ele><time>2026-04-12T06:29:14Z</time></trkpt><trkpt lat="45.33914045414615" lon="9.264796088338876"><ele>88.0</ele><time>2026-04-12T06:29:16Z</time></trkpt><trkpt lat="45.33916496155869" lon="9.264966361936803"><ele>88.0</ele><time>2026-04-12T06:29:18Z</time></trkpt><trkpt lat="45.33922657827975" lon="9.26505017167641"><ele>88.0</ele><time>2026-04-12T06:29:20Z</time></trkpt><trkpt lat="45.339271614396935" lon="9.265176702150216"><ele>88.0</ele><time>2026-04-12T06:29:22Z</time></trkpt><trkpt lat="45.33931864992122" lon="9.265295315890745"><ele>88.0</ele><time>2026-04-12T06:29:24Z</time></trkpt><trkpt lat="45.339363954245435" lon="9.265410952028349"><ele>88.0</ele><time>2026-04-12T06:29:26Z</time></trkpt><trkpt lat="45.33941286027301" lon="9.265529773392783"><ele>88.2</ele><time>2026-04-12T06:29:28Z</time></trkpt><trkpt lat="45.33947241325752" lon="9.265644227200994"><ele>88.4</ele><time>2026-04-12T06:29:30Z</time></trkpt><trkpt lat="45.339535633952515" lon="9.265754331041565"><ele>88.60000000000001</ele><time>2026-04-12T06:29:32Z</time></trkpt><trkpt lat="45.33959125076821" lon="9.26585925579923"><ele>88.80000000000001</ele><time>2026-04-12T06:29:34Z</time></trkpt><trkpt lat="45.339645771718615" lon="9.265986673693888"><ele>89.0</ele><time>2026-04-12T06:29:36Z</time></trkpt><trkpt lat="45.33968932274299" lon="9.266114307129413"><ele>89.0</ele><time>2026-04-12T06:29:38Z</time></trkpt><trkpt lat="45.33973890894768" lon="9.266238904050134"><ele>89.0</ele><time>2026-04-12T06:29:40Z</time></trkpt><trkpt lat="45.339783115173795" lon="9.266367560385591"><ele>89.0</ele><time>2026-04-12T06:29:42Z</time></trkpt><trkpt lat="45.339823284818245" lon="9.266497014564932"><ele>89.0</ele><time>2026-04-12T06:29:44Z</time></trkpt><trkpt lat="45.33985719328516" lon="9.266629413994568"><ele>89.0</ele><time>2026-04-12T06:29:46Z</time></trkpt><trkpt lat="45.33989044264391" lon="9.266762937417663"><ele>89.0</ele><time>2026-04-12T06:29:48Z</time></trkpt><trkpt lat="45.33992103041194" lon="9.266898723527513"><ele>89.0</ele><time>2026-04-12T06:29:50Z</time></trkpt><trkpt lat="45.339950393439956" lon="9.26703354751606"><ele>89.0</ele><time>2026-04-12T06:29:52Z</time></trkpt><trkpt lat="45.33997683764232" lon="9.267169587471194"><ele>89.0</ele><time>2026-04-12T06:29:54Z</time></trkpt><trkpt lat="45.34001380957852" lon="9.267300706756465"><ele>89.0</ele><time>2026-04-12T06:29:56Z</time></trkpt><trkpt lat="45.34006902825793" lon="9.267423116156152"><ele>88.80000000000001</ele><time>2026-04-12T06:29:58Z</time></trkpt><trkpt lat="45.34013063988457" lon="9.267543588996382"><ele>88.60000000000001</ele><time>2026-04-12T06:30:00Z</time></trkpt><trkpt lat="45.340201257469026" lon="9.267655515227377"><ele>88.4</ele><time>2026-04-12T06:30:02Z</time></trkpt><trkpt lat="45.3402682060491" lon="9.26776871678966"><ele>88.2</ele><time>2026-04-12T06:30:04Z</time></trkpt><trkpt lat="45.34032955182929" lon="9.267885499101967"><ele>88.0</ele><time>2026-04-12T06:30:06Z</time></trkpt><trkpt lat="45.34040211845488" lon="9.267994039608558"><ele>88.0</ele><time>2026-04-12T06:30:08Z</time></trkpt><trkpt lat="45.34046801166056" lon="9.268105184623701"><ele>88.0</ele><time>2026-04-12T06:30:10Z</time></trkpt><trkpt lat="45.34053695893211" lon="9.268208574928119"><ele>88.0</ele><time>2026-04-12T06:30:12Z</time></trkpt><trkpt lat="45.34059710296068" lon="9.268319027352158"><ele>88.0</ele><time>2026-04-12T06:30:14Z</time></trkpt><trkpt lat="45.340640709488035" lon="9.268447439206156"><ele>88.0</ele><time>2026-04-12T06:30:16Z</time></trkpt><trkpt lat="45.34067186172627" lon="9.268581411118657"><ele>88.4</ele><time>2026-04-12T06:30:18Z</time></trkpt><trkpt lat="45.340686635747424" lon="9.268720171710049"><ele>88.80000000000001</ele><time>2026-04-12T06:30:20Z</time></trkpt><trkpt lat="45.34069955310878" lon="9.268869715135658"><ele>89.2</ele><time>2026-04-12T06:30:22Z</time></trkpt><trkpt lat="45.34071781872249" lon="9.269009917528026"><ele>89.6</ele><time>2026-04-12T06:30:24Z</time></trkpt><trkpt lat="45.34073470683606" lon="9.269150081821689"><ele>90.0</ele><time>2026-04-12T06:30:25.999Z</time></trkpt><trkpt lat="45.34074716323179" lon="9.26928933874204"><ele>90.2</ele><time>2026-04-12T06:30:27.999Z</time></trkpt><trkpt lat="45.340765137957845" lon="9.269427534877773"><ele>90.4</ele><time>2026-04-12T06:30:29.999Z</time></trkpt><trkpt lat="45.340780858289406" lon="9.26955943282522"><ele>90.6</ele><time>2026-04-12T06:30:31.999Z</time></trkpt><trkpt lat="45.34079569039895" lon="9.269692882922323"><ele>90.8</ele><time>2026-04-12T06:30:33.999Z</time></trkpt><trkpt lat="45.34081059084563" lon="9.26982250642174"><ele>91.0</ele><time>2026-04-12T06:30:35.999Z</time></trkpt><trkpt lat="45.34082858511764" lon="9.269961033850995"><ele>91.16666666666666</ele><time>2026-04-12T06:30:37.999Z</time></trkpt><trkpt lat="45.3408467562715" lon="9.270091567755848"><ele>91.33333333333333</ele><time>2026-04-12T06:30:39.999Z</time></trkpt><trkpt lat="45.34086757917121" lon="9.270218556374171"><ele>91.5</ele><time>2026-04-12T06:30:41.999Z</time></trkpt><trkpt lat="45.340882126706056" lon="9.270343014052084"><ele>91.66666666666667</ele><time>2026-04-12T06:30:44Z</time></trkpt><trkpt lat="45.34089639492239" lon="9.270460471156769"><ele>91.83333333333334</ele><time>2026-04-12T06:30:46Z</time></trkpt><trkpt lat="45.34091641123126" lon="9.270575536559555"><ele>92.0</ele><time>2026-04-12T06:30:48Z</time></trkpt><trkpt lat="45.34093444495477" lon="9.270699730725072"><ele>91.66666666666667</ele><time>2026-04-12T06:30:50Z</time></trkpt><trkpt lat="45.34095370461602" lon="9.27082756751099"><ele>91.33333333333334</ele><time>2026-04-12T06:30:52Z</time></trkpt><trkpt lat="45.34097247545141" lon="9.270956013046371"><ele>91.0</ele><time>2026-04-12T06:30:54Z</time></trkpt><trkpt lat="45.3410006962764" lon="9.271076892750758"><ele>90.66666666666667</ele><time>2026-04-12T06:30:56Z</time></trkpt><trkpt lat="45.34106743630012" lon="9.27114422028007"><ele>90.33333333333333</ele><time>2026-04-12T06:30:58Z</time></trkpt><trkpt lat="45.34115005464048" lon="9.271151575373526"><ele>90.0</ele><time>2026-04-12T06:31:00Z</time></trkpt><trkpt lat="45.341238722074095" lon="9.27112415226803"><ele>90.0</ele><time>2026-04-12T06:31:02Z</time></trkpt><trkpt lat="45.341324290011634" lon="9.27111896007102"><ele>90.0</ele><time>2026-04-12T06:31:04Z</time></trkpt><trkpt lat="45.34140349490446" lon="9.271166496651823"><ele>90.0</ele><time>2026-04-12T06:31:06Z</time></trkpt><trkpt lat="45.341441554346204" lon="9.271265347338026"><ele>90.0</ele><time>2026-04-12T06:31:08Z</time></trkpt><trkpt lat="45.34148728738906" lon="9.271359442039222"><ele>90.0</ele><time>2026-04-12T06:31:10Z</time></trkpt><trkpt lat="45.341574516238786" lon="9.271417644079342"><ele>90.0</ele><time>2026-04-12T06:31:12Z</time></trkpt><trkpt lat="45.341666671173044" lon="9.27146094267835"><ele>90.0</ele><time>2026-04-12T06:31:14Z</time></trkpt><trkpt lat="45.341755643135635" lon="9.271509076311448"><ele>90.0</ele><time>2026-04-12T06:31:16Z</time></trkpt><trkpt lat="45.341844679370496" lon="9.271512783057302"><ele>90.0</ele><time>2026-04-12T06:31:18Z</time></trkpt><trkpt lat="45.341917009988215" lon="9.271412473839792"><ele>90.0</ele><time>2026-04-12T06:31:20Z</time></trkpt><trkpt lat="45.34199396358842" lon="9.271338521660548"><ele>90.0</ele><time>2026-04-12T06:31:22Z</time></trkpt><trkpt lat="45.34206332754856" lon="9.271266822616314"><ele>90.0</ele><time>2026-04-12T06:31:24Z</time></trkpt><trkpt lat="45.342146431626496" lon="9.271235080314469"><ele>90.0</ele><time>2026-04-12T06:31:26Z</time></trkpt><trkpt lat="45.34222266317883" lon="9.271319372214517"><ele>90.0</ele><time>2026-04-12T06:31:28Z</time></trkpt><trkpt lat="45.3422853428683" lon="9.271403821053733"><ele>90.0</ele><time>2026-04-12T06:31:30Z</time></trkpt><trkpt lat="45.34234217977712" lon="9.271503473875319"><ele>90.0</ele><time>2026-04-12T06:31:32Z</time></trkpt><trkpt lat="45.342385529950974" lon="9.271618994583717"><ele>90.0</ele><time>2026-04-12T06:31:34Z</time></trkpt><trkpt lat="45.342447094633414" lon="9.271715225469022"><ele>90.0</ele><time>2026-04-12T06:31:36Z</time></trkpt><trkpt lat="45.34250611497658" lon="9.271810860760477"><ele>90.0</ele><time>2026-04-12T06:31:38Z</time></trkpt><trkpt lat="45.34256275963681" lon="9.271912260572675"><ele>90.0</ele><time>2026-04-12T06:31:40Z</time></trkpt><trkpt lat="45.3426225240526" lon="9.27201561039561"><ele>90.0</ele><time>2026-04-12T06:31:42Z</time></trkpt><trkpt lat="45.34268194632686" lon="9.272119605089266"><ele>90.0</ele><time>2026-04-12T06:31:44Z</time></trkpt><trkpt lat="45.34273632997992" lon="9.272223695833826"><ele>90.0</ele><time>2026-04-12T06:31:46Z</time></trkpt><trkpt lat="45.342791835838675" lon="9.272323367358162"><ele>90.0</ele><time>2026-04-12T06:31:48Z</time></trkpt><trkpt lat="45.342841943304606" lon="9.272420615172903"><ele>90.0</ele><time>2026-04-12T06:31:50Z</time></trkpt><trkpt lat="45.34289396927959" lon="9.272528812774725"><ele>90.0</ele><time>2026-04-12T06:31:52Z</time></trkpt><trkpt lat="45.34292657140135" lon="9.272656802605006"><ele>90.2</ele><time>2026-04-12T06:31:54Z</time></trkpt><trkpt lat="45.34295207532517" lon="9.272785918650465"><ele>90.4</ele><time>2026-04-12T06:31:56Z</time></trkpt><trkpt lat="45.342969889969154" lon="9.272923211358057"><ele>90.6</ele><time>2026-04-12T06:31:58Z</time></trkpt><trkpt lat="45.34297486506735" lon="9.2730631663874"><ele>90.8</ele><time>2026-04-12T06:32:00Z</time></trkpt><trkpt lat="45.34297465353525" lon="9.273201988399487"><ele>91.0</ele><time>2026-04-12T06:32:02Z</time></trkpt><trkpt lat="45.34296103365413" lon="9.273340471577999"><ele>91.0</ele><time>2026-04-12T06:32:04Z</time></trkpt><trkpt lat="45.34293641032968" lon="9.273479064506056"><ele>91.0</ele><time>2026-04-12T06:32:06Z</time></trkpt><trkpt lat="45.342902517867486" lon="9.273614110246362"><ele>91.0</ele><time>2026-04-12T06:32:08Z</time></trkpt><trkpt lat="45.34286048374258" lon="9.273740372411911"><ele>91.0</ele><time>2026-04-12T06:32:10Z</time></trkpt><trkpt lat="45.34281498238293" lon="9.273856007703111"><ele>91.0</ele><time>2026-04-12T06:32:12Z</time></trkpt><trkpt lat="45.342765210194294" lon="9.273981068381024"><ele>91.0</ele><time>2026-04-12T06:32:14Z</time></trkpt><trkpt lat="45.34270434917743" lon="9.274099048447527"><ele>91.0</ele><time>2026-04-12T06:32:16Z</time></trkpt><trkpt lat="45.34264803346669" lon="9.274214724947035"><ele>91.0</ele><time>2026-04-12T06:32:18Z</time></trkpt><trkpt lat="45.34259080570337" lon="9.274329137136053"><ele>91.0</ele><time>2026-04-12T06:32:20Z</time></trkpt><trkpt lat="45.342534818260084" lon="9.27444609054675"><ele>91.0</ele><time>2026-04-12T06:32:22Z</time></trkpt><trkpt lat="45.342479632362725" lon="9.274560693672832"><ele>91.0</ele><time>2026-04-12T06:32:24Z</time></trkpt><trkpt lat="45.34242088561739" lon="9.274678231035857"><ele>91.0</ele><time>2026-04-12T06:32:26Z</time></trkpt><trkpt lat="45.342364935230314" lon="9.274794444249244"><ele>91.0</ele><time>2026-04-12T06:32:28Z</time></trkpt><trkpt lat="45.34230477445708" lon="9.274904599839122"><ele>91.0</ele><time>2026-04-12T06:32:30Z</time></trkpt><trkpt lat="45.342248715462475" lon="9.275019453553098"><ele>91.0</ele><time>2026-04-12T06:32:31.999Z</time></trkpt><trkpt lat="45.342191926735794" lon="9.275133520664582"><ele>90.8</ele><time>2026-04-12T06:32:34Z</time></trkpt><trkpt lat="45.34211868012037" lon="9.275230274191745"><ele>90.6</ele><time>2026-04-12T06:32:36Z</time></trkpt><trkpt lat="45.34204519023675" lon="9.27533114733765"><ele>90.4</ele><time>2026-04-12T06:32:38Z</time></trkpt><trkpt lat="45.34197038098599" lon="9.275430941050908"><ele>90.2</ele><time>2026-04-12T06:32:40Z</time></trkpt><trkpt lat="45.341897947518326" lon="9.27552647608158"><ele>90.0</ele><time>2026-04-12T06:32:42Z</time></trkpt><trkpt lat="45.341823834767105" lon="9.275624344442816"><ele>90.0</ele><time>2026-04-12T06:32:44Z</time></trkpt><trkpt lat="45.34175123975763" lon="9.27572159919476"><ele>90.0</ele><time>2026-04-12T06:32:46Z</time></trkpt><trkpt lat="45.34167113084387" lon="9.275812362139746"><ele>90.0</ele><time>2026-04-12T06:32:48Z</time></trkpt><trkpt lat="45.34160621870871" lon="9.275916749355673"><ele>90.0</ele><time>2026-04-12T06:32:50Z</time></trkpt><trkpt lat="45.34153526303587" lon="9.276016335404647"><ele>90.0</ele><time>2026-04-12T06:32:52Z</time></trkpt><trkpt lat="45.34145862149718" lon="9.27610657001786"><ele>90.0</ele><time>2026-04-12T06:32:54Z</time></trkpt><trkpt lat="45.34138776675646" lon="9.276210220246053"><ele>90.0</ele><time>2026-04-12T06:32:56Z</time></trkpt><trkpt lat="45.34132114902002" lon="9.276322102692998"><ele>90.0</ele><time>2026-04-12T06:32:58Z</time></trkpt><trkpt lat="45.34125177869732" lon="9.276427599846231"><ele>90.0</ele><time>2026-04-12T06:33:00Z</time></trkpt><trkpt lat="45.34118481790049" lon="9.276532182068637"><ele>90.0</ele><time>2026-04-12T06:33:02Z</time></trkpt><trkpt lat="45.34111964190203" lon="9.276636291754398"><ele>90.2</ele><time>2026-04-12T06:33:04Z</time></trkpt><trkpt lat="45.34105157720264" lon="9.276738741143143"><ele>90.4</ele><time>2026-04-12T06:33:06Z</time></trkpt><trkpt lat="45.34099012502438" lon="9.276841121224653"><ele>90.6</ele><time>2026-04-12T06:33:08Z</time></trkpt><trkpt lat="45.340927631632546" lon="9.276930680666412"><ele>90.8</ele><time>2026-04-12T06:33:10Z</time></trkpt><trkpt lat="45.34086433068694" lon="9.277028634114908"><ele>91.0</ele><time>2026-04-12T06:33:12Z</time></trkpt><trkpt lat="45.340806138617246" lon="9.277133180224832"><ele>91.0</ele><time>2026-04-12T06:33:14Z</time></trkpt><trkpt lat="45.34075084411948" lon="9.277249869523704"><ele>91.0</ele><time>2026-04-12T06:33:16Z</time></trkpt><trkpt lat="45.340715507692536" lon="9.277374863041448"><ele>91.0</ele><time>2026-04-12T06:33:18Z</time></trkpt><trkpt lat="45.340692898053696" lon="9.277508781412102"><ele>91.0</ele><time>2026-04-12T06:33:20Z</time></trkpt><trkpt lat="45.34068286397101" lon="9.27764197893694"><ele>91.0</ele><time>2026-04-12T06:33:22Z</time></trkpt><trkpt lat="45.34068173362234" lon="9.277776726082083"><ele>91.0</ele><time>2026-04-12T06:33:24Z</time></trkpt><trkpt lat="45.34068502130366" lon="9.277911920045966"><ele>91.0</ele><time>2026-04-12T06:33:26Z</time></trkpt><trkpt lat="45.34069065614821" lon="9.278046675931964"><ele>91.0</ele><time>2026-04-12T06:33:28Z</time></trkpt><trkpt lat="45.34069355512334" lon="9.278181496653126"><ele>91.0</ele><time>2026-04-12T06:33:30.001Z</time></trkpt><trkpt lat="45.34069268655126" lon="9.278321541058485"><ele>91.0</ele><time>2026-04-12T06:33:32.001Z</time></trkpt><trkpt lat="45.34066322862947" lon="9.278459794627745"><ele>91.0</ele><time>2026-04-12T06:33:34.001Z</time></trkpt><trkpt lat="45.34061625185431" lon="9.278587602900986"><ele>91.0</ele><time>2026-04-12T06:33:36.001Z</time></trkpt><trkpt lat="45.340574483026714" lon="9.278720714219164"><ele>91.0</ele><time>2026-04-12T06:33:38.001Z</time></trkpt><trkpt lat="45.34052958907977" lon="9.278848828657846"><ele>91.0</ele><time>2026-04-12T06:33:40.001Z</time></trkpt><trkpt lat="45.340493830281645" lon="9.278978076411676"><ele>91.0</ele><time>2026-04-12T06:33:42.001Z</time></trkpt><trkpt lat="45.340461755114575" lon="9.27910895318809"><ele>90.8</ele><time>2026-04-12T06:33:44.001Z</time></trkpt><trkpt lat="45.3404377568844" lon="9.279238392173578"><ele>90.6</ele><time>2026-04-12T06:33:46.001Z</time></trkpt><trkpt lat="45.34042044328026" lon="9.279372032333255"><ele>90.4</ele><time>2026-04-12T06:33:48.001Z</time></trkpt><trkpt lat="45.34039888643063" lon="9.279500064437977"><ele>90.2</ele><time>2026-04-12T06:33:50.001Z</time></trkpt><trkpt lat="45.34038507128761" lon="9.279638310064175"><ele>90.0</ele><time>2026-04-12T06:33:52.001Z</time></trkpt><trkpt lat="45.340378618550154" lon="9.279775818107106"><ele>89.6</ele><time>2026-04-12T06:33:54.001Z</time></trkpt><trkpt lat="45.34037264340469" lon="9.279913396789643"><ele>89.2</ele><time>2026-04-12T06:33:56.001Z</time></trkpt><trkpt lat="45.34037318831556" lon="9.28005130666113"><ele>88.80000000000001</ele><time>2026-04-12T06:33:58.001Z</time></trkpt><trkpt lat="45.34037053863117" lon="9.280187544865687"><ele>88.4</ele><time>2026-04-12T06:34:00.001Z</time></trkpt><trkpt lat="45.340368128666306" lon="9.2803239305114"><ele>88.0</ele><time>2026-04-12T06:34:02.001Z</time></trkpt><trkpt lat="45.340366600467696" lon="9.280458461776043"><ele>88.0</ele><time>2026-04-12T06:34:04.001Z</time></trkpt><trkpt lat="45.34036610445176" lon="9.28059497148789"><ele>88.0</ele><time>2026-04-12T06:34:06.001Z</time></trkpt><trkpt lat="45.340370397522406" lon="9.280729629390327"><ele>88.0</ele><time>2026-04-12T06:34:08.001Z</time></trkpt><trkpt lat="45.34036129487123" lon="9.280866838610146"><ele>88.0</ele><time>2026-04-12T06:34:10.001Z</time></trkpt><trkpt lat="45.34035199949896" lon="9.280994424396786"><ele>88.0</ele><time>2026-04-12T06:34:12.001Z</time></trkpt><trkpt lat="45.34033973457896" lon="9.281122998229991"><ele>88.0</ele><time>2026-04-12T06:34:14.001Z</time></trkpt><trkpt lat="45.34033870973963" lon="9.281258769050718"><ele>88.0</ele><time>2026-04-12T06:34:16.001Z</time></trkpt><trkpt lat="45.340351237297554" lon="9.281394216575595"><ele>88.0</ele><time>2026-04-12T06:34:18.001Z</time></trkpt><trkpt lat="45.340367420284274" lon="9.281526266954078"><ele>88.0</ele><time>2026-04-12T06:34:20.001Z</time></trkpt><trkpt lat="45.34039640254289" lon="9.281654622160188"><ele>88.0</ele><time>2026-04-12T06:34:22.001Z</time></trkpt><trkpt lat="45.34044477637357" lon="9.281786749529692"><ele>88.0</ele><time>2026-04-12T06:34:24.001Z</time></trkpt><trkpt lat="45.34050205833341" lon="9.281912232360865"><ele>88.0</ele><time>2026-04-12T06:34:26.001Z</time></trkpt><trkpt lat="45.340563077272904" lon="9.28203219121454"><ele>88.0</ele><time>2026-04-12T06:34:28.001Z</time></trkpt><trkpt lat="45.3406221117247" lon="9.282151007739772"><ele>88.0</ele><time>2026-04-12T06:34:30.001Z</time></trkpt><trkpt lat="45.34067733876007" lon="9.282273125294711"><ele>88.0</ele><time>2026-04-12T06:34:32.001Z</time></trkpt><trkpt lat="45.34073223979925" lon="9.282386416419254"><ele>88.0</ele><time>2026-04-12T06:34:34.001Z</time></trkpt><trkpt lat="45.34078629367116" lon="9.282498358409724"><ele>88.0</ele><time>2026-04-12T06:34:36.001Z</time></trkpt><trkpt lat="45.34084348824914" lon="9.282611839334532"><ele>88.0</ele><time>2026-04-12T06:34:38.001Z</time></trkpt><trkpt lat="45.34089840819534" lon="9.28272279177637"><ele>88.0</ele><time>2026-04-12T06:34:40.001Z</time></trkpt><trkpt lat="45.34095060624887" lon="9.282835094267009"><ele>88.0</ele><time>2026-04-12T06:34:42.001Z</time></trkpt><trkpt lat="45.34100435481276" lon="9.282951597937656"><ele>88.0</ele><time>2026-04-12T06:34:44.001Z</time></trkpt><trkpt lat="45.341055624103305" lon="9.283066341385537"><ele>88.0</ele><time>2026-04-12T06:34:46.001Z</time></trkpt><trkpt lat="45.341114955764674" lon="9.28317984205014"><ele>88.0</ele><time>2026-04-12T06:34:48.001Z</time></trkpt><trkpt lat="45.341164739460005" lon="9.283292094385208"><ele>88.0</ele><time>2026-04-12T06:34:50.001Z</time></trkpt><trkpt lat="45.341223307395495" lon="9.283401074974936"><ele>88.0</ele><time>2026-04-12T06:34:52.001Z</time></trkpt><trkpt lat="45.34127547862819" lon="9.283517197207358"><ele>88.0</ele><time>2026-04-12T06:34:54.001Z</time></trkpt><trkpt lat="45.34133119589066" lon="9.283622049193283"><ele>88.0</ele><time>2026-04-12T06:34:56.001Z</time></trkpt><trkpt lat="45.341377871025244" lon="9.283733880542826"><ele>88.0</ele><time>2026-04-12T06:34:58.001Z</time></trkpt><trkpt lat="45.34145065411266" lon="9.283829293064693"><ele>88.0</ele><time>2026-04-12T06:35:00.001Z</time></trkpt><trkpt lat="45.341517891089076" lon="9.283925666223718"><ele>88.0</ele><time>2026-04-12T06:35:02.001Z</time></trkpt><trkpt lat="45.3415799678559" lon="9.284019367858614"><ele>88.0</ele><time>2026-04-12T06:35:04.001Z</time></trkpt><trkpt lat="45.34164205395459" lon="9.284112337322647"><ele>88.0</ele><time>2026-04-12T06:35:06.001Z</time></trkpt><trkpt lat="45.34170250957534" lon="9.28420601862442"><ele>88.0</ele><time>2026-04-12T06:35:08.001Z</time></trkpt><trkpt lat="45.341761882915236" lon="9.284305408683682"><ele>88.0</ele><time>2026-04-12T06:35:10.001Z</time></trkpt><trkpt lat="45.34181958263743" lon="9.284401268652054"><ele>88.0</ele><time>2026-04-12T06:35:12.001Z</time></trkpt><trkpt lat="45.34188057311572" lon="9.284499526699037"><ele>88.0</ele><time>2026-04-12T06:35:14.001Z</time></trkpt><trkpt lat="45.34194627563056" lon="9.284598162566681"><ele>88.0</ele><time>2026-04-12T06:35:16.001Z</time></trkpt><trkpt lat="45.3420066552167" lon="9.284689343827088"><ele>88.0</ele><time>2026-04-12T06:35:18.001Z</time></trkpt><trkpt lat="45.342074544511505" lon="9.284788474720276"><ele>88.0</ele><time>2026-04-12T06:35:20.001Z</time></trkpt><trkpt lat="45.342142871395666" lon="9.284886212552998"><ele>88.0</ele><time>2026-04-12T06:35:22.001Z</time></trkpt><trkpt lat="45.342212549044774" lon="9.284977454097987"><ele>88.2</ele><time>2026-04-12T06:35:24.001Z</time></trkpt><trkpt lat="45.34227835056335" lon="9.285079593210865"><ele>88.4</ele><time>2026-04-12T06:35:26.001Z</time></trkpt><trkpt lat="45.34234833126044" lon="9.285173284287932"><ele>88.60000000000001</ele><time>2026-04-12T06:35:28.001Z</time></trkpt><trkpt lat="45.34241370390298" lon="9.28526790422291"><ele>88.80000000000001</ele><time>2026-04-12T06:35:30.001Z</time></trkpt><trkpt lat="45.34247787945531" lon="9.285360978647951"><ele>89.0</ele><time>2026-04-12T06:35:32.001Z</time></trkpt><trkpt lat="45.34254204353686" lon="9.285454898000921"><ele>89.0</ele><time>2026-04-12T06:35:34.001Z</time></trkpt><trkpt lat="45.34261061473067" lon="9.285551452703722"><ele>89.0</ele><time>2026-04-12T06:35:36.001Z</time></trkpt><trkpt lat="45.342676986313705" lon="9.285645575546537"><ele>89.0</ele><time>2026-04-12T06:35:38.001Z</time></trkpt><trkpt lat="45.34274219025984" lon="9.2857404126152"><ele>89.0</ele><time>2026-04-12T06:35:40.001Z</time></trkpt><trkpt lat="45.34280651427068" lon="9.285836709648382"><ele>89.0</ele><time>2026-04-12T06:35:42.001Z</time></trkpt><trkpt lat="45.342874959493784" lon="9.285934032882711"><ele>89.2</ele><time>2026-04-12T06:35:44.001Z</time></trkpt><trkpt lat="45.34294122841475" lon="9.286021561295586"><ele>89.4</ele><time>2026-04-12T06:35:46.001Z</time></trkpt><trkpt lat="45.343007024907905" lon="9.286130086096103"><ele>89.6</ele><time>2026-04-12T06:35:48.001Z</time></trkpt><trkpt lat="45.34307440304288" lon="9.28622865425168"><ele>89.8</ele><time>2026-04-12T06:35:50.001Z</time></trkpt><trkpt lat="45.34314368674974" lon="9.286325325822181"><ele>90.0</ele><time>2026-04-12T06:35:52.001Z</time></trkpt><trkpt lat="45.34321074040584" lon="9.28642740542335"><ele>90.0</ele><time>2026-04-12T06:35:54.001Z</time></trkpt><trkpt lat="45.34327345134954" lon="9.286530737049056"><ele>90.0</ele><time>2026-04-12T06:35:56.001Z</time></trkpt><trkpt lat="45.343336479638864" lon="9.286635186130631"><ele>90.0</ele><time>2026-04-12T06:35:58.001Z</time></trkpt><trkpt lat="45.3433857035033" lon="9.286732932983687"><ele>90.0</ele><time>2026-04-12T06:36:00.001Z</time></trkpt><trkpt lat="45.34343866998262" lon="9.286834408489694"><ele>90.0</ele><time>2026-04-12T06:36:02.001Z</time></trkpt><trkpt lat="45.34350873024017" lon="9.286938419285157"><ele>90.0</ele><time>2026-04-12T06:36:04.001Z</time></trkpt><trkpt lat="45.34356670063949" lon="9.287054290711756"><ele>90.0</ele><time>2026-04-12T06:36:06.001Z</time></trkpt><trkpt lat="45.343639077622534" lon="9.287151881689153"><ele>90.0</ele><time>2026-04-12T06:36:08.001Z</time></trkpt><trkpt lat="45.343704205764716" lon="9.287265866327155"><ele>90.0</ele><time>2026-04-12T06:36:10.001Z</time></trkpt><trkpt lat="45.3437666319144" lon="9.287370748971775"><ele>90.0</ele><time>2026-04-12T06:36:12.001Z</time></trkpt><trkpt lat="45.343828909301415" lon="9.287473764931967"><ele>89.8</ele><time>2026-04-12T06:36:14.001Z</time></trkpt><trkpt lat="45.343892895538985" lon="9.287577209730769"><ele>89.6</ele><time>2026-04-12T06:36:16.001Z</time></trkpt><trkpt lat="45.34396950169506" lon="9.287648030384572"><ele>89.4</ele><time>2026-04-12T06:36:18.001Z</time></trkpt><trkpt lat="45.34406909416061" lon="9.287663308357248"><ele>89.2</ele><time>2026-04-12T06:36:20.001Z</time></trkpt><trkpt lat="45.3441648712495" lon="9.287597096646362"><ele>89.0</ele><time>2026-04-12T06:36:22.001Z</time></trkpt><trkpt lat="45.34425055602928" lon="9.287567735639938"><ele>89.0</ele><time>2026-04-12T06:36:24.001Z</time></trkpt><trkpt lat="45.34430290351391" lon="9.287512448584915"><ele>89.0</ele><time>2026-04-12T06:36:25.001Z</time></trkpt><trkpt lat="45.34440018637438" lon="9.287465398484828"><ele>89.0</ele><time>2026-04-12T06:36:27.001Z</time></trkpt><trkpt lat="45.34449332634111" lon="9.287528878765865"><ele>89.0</ele><time>2026-04-12T06:36:29.001Z</time></trkpt><trkpt lat="45.34455166839402" lon="9.287659369201352"><ele>89.0</ele><time>2026-04-12T06:36:31.001Z</time></trkpt><trkpt lat="45.34460933116748" lon="9.287773759149658"><ele>89.0</ele><time>2026-04-12T06:36:33.001Z</time></trkpt><trkpt lat="45.34466614184547" lon="9.28788528542985"><ele>89.0</ele><time>2026-04-12T06:36:35.001Z</time></trkpt><trkpt lat="45.34473001635335" lon="9.287991805687017"><ele>89.0</ele><time>2026-04-12T06:36:37.001Z</time></trkpt><trkpt lat="45.34478816628532" lon="9.288103939364873"><ele>89.0</ele><time>2026-04-12T06:36:39.001Z</time></trkpt><trkpt lat="45.34484815778872" lon="9.288221229993527"><ele>89.0</ele><time>2026-04-12T06:36:41.001Z</time></trkpt><trkpt lat="45.34490735276785" lon="9.288333099084804"><ele>89.2</ele><time>2026-04-12T06:36:43.001Z</time></trkpt><trkpt lat="45.34496885400284" lon="9.288442799287342"><ele>89.4</ele><time>2026-04-12T06:36:45.001Z</time></trkpt><trkpt lat="45.3450283571807" lon="9.288557757183078"><ele>89.6</ele><time>2026-04-12T06:36:47.001Z</time></trkpt><trkpt lat="45.345081441989514" lon="9.28867353868813"><ele>89.8</ele><time>2026-04-12T06:36:49.001Z</time></trkpt><trkpt lat="45.34513653356331" lon="9.288788724383044"><ele>90.0</ele><time>2026-04-12T06:36:51.001Z</time></trkpt><trkpt lat="45.345191870025786" lon="9.288906147656288"><ele>90.0</ele><time>2026-04-12T06:36:53Z</time></trkpt><trkpt lat="45.34524947023568" lon="9.289024800566176"><ele>90.0</ele><time>2026-04-12T06:36:55.001Z</time></trkpt><trkpt lat="45.34530036373449" lon="9.289147435790372"><ele>90.0</ele><time>2026-04-12T06:36:57Z</time></trkpt><trkpt lat="45.34534883218409" lon="9.289269613278021"><ele>90.0</ele><time>2026-04-12T06:36:59.001Z</time></trkpt><trkpt lat="45.345400051922965" lon="9.289391213185912"><ele>90.0</ele><time>2026-04-12T06:37:01.001Z</time></trkpt><trkpt lat="45.34544840110172" lon="9.289517003435064"><ele>90.0</ele><time>2026-04-12T06:37:03.001Z</time></trkpt><trkpt lat="45.345504958017955" lon="9.28963663520417"><ele>90.0</ele><time>2026-04-12T06:37:05.001Z</time></trkpt><trkpt lat="45.34556673069256" lon="9.28975300427487"><ele>90.0</ele><time>2026-04-12T06:37:07.001Z</time></trkpt><trkpt lat="45.34563021794162" lon="9.289865438084862"><ele>90.0</ele><time>2026-04-12T06:37:09.001Z</time></trkpt><trkpt lat="45.34569364381863" lon="9.289976416570829"><ele>90.0</ele><time>2026-04-12T06:37:11.001Z</time></trkpt><trkpt lat="45.34575449683176" lon="9.290092552923497"><ele>90.0</ele><time>2026-04-12T06:37:13.001Z</time></trkpt><trkpt lat="45.3458153674846" lon="9.290209051105078"><ele>90.0</ele><time>2026-04-12T06:37:15.001Z</time></trkpt><trkpt lat="45.34587954157602" lon="9.290324425067102"><ele>90.0</ele><time>2026-04-12T06:37:17.001Z</time></trkpt><trkpt lat="45.3459377454995" lon="9.290438970798688"><ele>90.0</ele><time>2026-04-12T06:37:19.001Z</time></trkpt><trkpt lat="45.34599574605378" lon="9.29055197344508"><ele>90.0</ele><time>2026-04-12T06:37:21.001Z</time></trkpt><trkpt lat="45.34605659883496" lon="9.290666315681646"><ele>90.0</ele><time>2026-04-12T06:37:23.001Z</time></trkpt><trkpt lat="45.34611181293827" lon="9.290780315117107"><ele>90.0</ele><time>2026-04-12T06:37:25.001Z</time></trkpt><trkpt lat="45.34616890690848" lon="9.290893745906725"><ele>90.0</ele><time>2026-04-12T06:37:27.001Z</time></trkpt><trkpt lat="45.34622502617492" lon="9.291007194665267"><ele>90.0</ele><time>2026-04-12T06:37:29.001Z</time></trkpt><trkpt lat="45.34628310149305" lon="9.2911200736665"><ele>90.0</ele><time>2026-04-12T06:37:31.001Z</time></trkpt><trkpt lat="45.34633723326944" lon="9.291233417703623"><ele>89.8</ele><time>2026-04-12T06:37:33.001Z</time></trkpt><trkpt lat="45.346394909560566" lon="9.291347294060872"><ele>89.6</ele><time>2026-04-12T06:37:35.001Z</time></trkpt><trkpt lat="45.346453457144655" lon="9.29146425865266"><ele>89.4</ele><time>2026-04-12T06:37:37.001Z</time></trkpt><trkpt lat="45.34650895041432" lon="9.291579782899577"><ele>89.2</ele><time>2026-04-12T06:37:39.001Z</time></trkpt><trkpt lat="45.34656311442461" lon="9.291698502093219"><ele>89.0</ele><time>2026-04-12T06:37:41.001Z</time></trkpt><trkpt lat="45.3466225549799" lon="9.291815286225471"><ele>89.0</ele><time>2026-04-12T06:37:43.001Z</time></trkpt><trkpt lat="45.34666497561249" lon="9.291944823287103"><ele>89.0</ele><time>2026-04-12T06:37:45.001Z</time></trkpt><trkpt lat="45.34668153619496" lon="9.292090545936945"><ele>89.0</ele><time>2026-04-12T06:37:47.001Z</time></trkpt><trkpt lat="45.34669950048891" lon="9.292238396083881"><ele>89.0</ele><time>2026-04-12T06:37:49.001Z</time></trkpt><trkpt lat="45.346726570424" lon="9.292380285482478"><ele>89.0</ele><time>2026-04-12T06:37:51.001Z</time></trkpt><trkpt lat="45.34675541836135" lon="9.29251740922976"><ele>89.0</ele><time>2026-04-12T06:37:53.001Z</time></trkpt><trkpt lat="45.34678901125244" lon="9.29265209606089"><ele>89.0</ele><time>2026-04-12T06:37:55.001Z</time></trkpt><trkpt lat="45.34681995566452" lon="9.292787361366253"><ele>89.0</ele><time>2026-04-12T06:37:57.001Z</time></trkpt><trkpt lat="45.346852971133444" lon="9.292926887914614"><ele>89.0</ele><time>2026-04-12T06:37:59.001Z</time></trkpt><trkpt lat="45.346885773962015" lon="9.293064144447307"><ele>89.0</ele><time>2026-04-12T06:38:01.001Z</time></trkpt><trkpt lat="45.34691868493211" lon="9.293201624546564"><ele>89.2</ele><time>2026-04-12T06:38:03.001Z</time></trkpt><trkpt lat="45.346947168547274" lon="9.293344864223723"><ele>89.4</ele><time>2026-04-12T06:38:05.001Z</time></trkpt><trkpt lat="45.34698229278735" lon="9.293482504070136"><ele>89.6</ele><time>2026-04-12T06:38:07.001Z</time></trkpt><trkpt lat="45.34700923581962" lon="9.293622083560008"><ele>89.8</ele><time>2026-04-12T06:38:09.001Z</time></trkpt><trkpt lat="45.34704123112701" lon="9.293757210307659"><ele>90.0</ele><time>2026-04-12T06:38:11.001Z</time></trkpt><trkpt lat="45.34707745099452" lon="9.293891219743953"><ele>90.0</ele><time>2026-04-12T06:38:13.001Z</time></trkpt><trkpt lat="45.34710363217162" lon="9.294034406442291"><ele>90.0</ele><time>2026-04-12T06:38:15.001Z</time></trkpt><trkpt lat="45.347130040216804" lon="9.29417475897477"><ele>90.0</ele><time>2026-04-12T06:38:17.001Z</time></trkpt><trkpt lat="45.34715870323662" lon="9.294310861209807"><ele>90.0</ele><time>2026-04-12T06:38:19.001Z</time></trkpt><trkpt lat="45.34718881084606" lon="9.29444726042836"><ele>90.0</ele><time>2026-04-12T06:38:21.001Z</time></trkpt><trkpt lat="45.34721966569622" lon="9.294580624010798"><ele>90.0</ele><time>2026-04-12T06:38:23.001Z</time></trkpt><trkpt lat="45.34724955194191" lon="9.29471498291729"><ele>90.0</ele><time>2026-04-12T06:38:25.001Z</time></trkpt><trkpt lat="45.34728344704616" lon="9.294848731982093"><ele>90.0</ele><time>2026-04-12T06:38:27.001Z</time></trkpt><trkpt lat="45.34732086391187" lon="9.294974847933029"><ele>90.0</ele><time>2026-04-12T06:38:29.001Z</time></trkpt><trkpt lat="45.34736353762263" lon="9.29509913925735"><ele>90.0</ele><time>2026-04-12T06:38:31.001Z</time></trkpt><trkpt lat="45.347409749040175" lon="9.295222213580377"><ele>90.0</ele><time>2026-04-12T06:38:33.001Z</time></trkpt><trkpt lat="45.34746416475518" lon="9.295337626605846"><ele>90.0</ele><time>2026-04-12T06:38:35.001Z</time></trkpt><trkpt lat="45.34752784200647" lon="9.295442508231156"><ele>90.0</ele><time>2026-04-12T06:38:37.001Z</time></trkpt><trkpt lat="45.34758191977455" lon="9.295551935361429"><ele>90.0</ele><time>2026-04-12T06:38:39.001Z</time></trkpt><trkpt lat="45.34764308451318" lon="9.295653350832529"><ele>90.0</ele><time>2026-04-12T06:38:41.001Z</time></trkpt><trkpt lat="45.34770337163857" lon="9.295757128814476"><ele>90.0</ele><time>2026-04-12T06:38:43.001Z</time></trkpt><trkpt lat="45.34776655501901" lon="9.295868241899203"><ele>90.0</ele><time>2026-04-12T06:38:45.001Z</time></trkpt><trkpt lat="45.34783717936138" lon="9.295955877090709"><ele>90.0</ele><time>2026-04-12T06:38:47.001Z</time></trkpt><trkpt lat="45.34790597487283" lon="9.296046197012393"><ele>90.0</ele><time>2026-04-12T06:38:49.001Z</time></trkpt><trkpt lat="45.347961586283176" lon="9.296154025740488"><ele>90.0</ele><time>2026-04-12T06:38:51.001Z</time></trkpt><trkpt lat="45.34801001685136" lon="9.296267444400716"><ele>90.0</ele><time>2026-04-12T06:38:53.001Z</time></trkpt><trkpt lat="45.34804694096367" lon="9.296387809474037"><ele>90.0</ele><time>2026-04-12T06:38:55.001Z</time></trkpt><trkpt lat="45.34808342815806" lon="9.29650854564958"><ele>90.0</ele><time>2026-04-12T06:38:57Z</time></trkpt><trkpt lat="45.348127640238154" lon="9.296624480370712"><ele>90.0</ele><time>2026-04-12T06:38:59.001Z</time></trkpt><trkpt lat="45.34816893013364" lon="9.296746588994651"><ele>90.0</ele><time>2026-04-12T06:39:01.001Z</time></trkpt><trkpt lat="45.348205098301925" lon="9.296864329103668"><ele>90.0</ele><time>2026-04-12T06:39:03Z</time></trkpt><trkpt lat="45.34818498719301" lon="9.296985070696298"><ele>90.0</ele><time>2026-04-12T06:39:05.001Z</time></trkpt><trkpt lat="45.34810745833951" lon="9.297073275676347"><ele>90.0</ele><time>2026-04-12T06:39:07.001Z</time></trkpt><trkpt lat="45.34801865255783" lon="9.29713880358339"><ele>90.0</ele><time>2026-04-12T06:39:09.001Z</time></trkpt><trkpt lat="45.34793253391635" lon="9.297207810035788"><ele>90.0</ele><time>2026-04-12T06:39:11.001Z</time></trkpt><trkpt lat="45.34784879435547" lon="9.297266062124253"><ele>90.0</ele><time>2026-04-12T06:39:13.001Z</time></trkpt><trkpt lat="45.347770940236714" lon="9.297333875539598"><ele>90.0</ele><time>2026-04-12T06:39:15.001Z</time></trkpt><trkpt lat="45.34769445052014" lon="9.297397472610227"><ele>90.0</ele><time>2026-04-12T06:39:17.001Z</time></trkpt><trkpt lat="45.34761934154818" lon="9.297456929200665"><ele>90.0</ele><time>2026-04-12T06:39:19.001Z</time></trkpt><trkpt lat="45.347542392324" lon="9.297519883468"><ele>90.0</ele><time>2026-04-12T06:39:21.001Z</time></trkpt><trkpt lat="45.34746652168492" lon="9.297585015348782"><ele>90.0</ele><time>2026-04-12T06:39:23.001Z</time></trkpt><trkpt lat="45.34739528531743" lon="9.29766671512559"><ele>90.0</ele><time>2026-04-12T06:39:25.001Z</time></trkpt><trkpt lat="45.34737161240292" lon="9.29780318344187"><ele>90.0</ele><time>2026-04-12T06:39:27.001Z</time></trkpt><trkpt lat="45.34737454605972" lon="9.29793857090989"><ele>90.0</ele><time>2026-04-12T06:39:29.001Z</time></trkpt><trkpt lat="45.347378490369614" lon="9.298070079361379"><ele>90.0</ele><time>2026-04-12T06:39:31.001Z</time></trkpt><trkpt lat="45.3473794395365" lon="9.298200447952704"><ele>90.0</ele><time>2026-04-12T06:39:33.001Z</time></trkpt><trkpt lat="45.34737817306329" lon="9.29832609203985"><ele>90.0</ele><time>2026-04-12T06:39:35.001Z</time></trkpt><trkpt lat="45.347378743785654" lon="9.298447985306163"><ele>90.0</ele><time>2026-04-12T06:39:37.001Z</time></trkpt><trkpt lat="45.3473812705956" lon="9.298571725926019"><ele>90.0</ele><time>2026-04-12T06:39:39.001Z</time></trkpt><trkpt lat="45.34737951208552" lon="9.298701630067116"><ele>90.0</ele><time>2026-04-12T06:39:41.001Z</time></trkpt><trkpt lat="45.34738460405474" lon="9.298831196700945"><ele>90.0</ele><time>2026-04-12T06:39:43.001Z</time></trkpt><trkpt lat="45.347386381599854" lon="9.2989569615701"><ele>90.0</ele><time>2026-04-12T06:39:45.001Z</time></trkpt><trkpt lat="45.347388962713865" lon="9.299087674876628"><ele>90.0</ele><time>2026-04-12T06:39:47.001Z</time></trkpt><trkpt lat="45.34738577238861" lon="9.299223724761314"><ele>90.0</ele><time>2026-04-12T06:39:49.001Z</time></trkpt><trkpt lat="45.34738710033971" lon="9.299353884999347"><ele>90.0</ele><time>2026-04-12T06:39:51.001Z</time></trkpt><trkpt lat="45.3473920754951" lon="9.299484476282874"><ele>90.0</ele><time>2026-04-12T06:39:53.001Z</time></trkpt><trkpt lat="45.347381385055144" lon="9.299629742676927"><ele>90.0</ele><time>2026-04-12T06:39:55.001Z</time></trkpt><trkpt lat="45.347382307088814" lon="9.299722674895074"><ele>90.0</ele><time>2026-04-12T06:39:56.001Z</time></trkpt><trkpt lat="45.34738507433657" lon="9.299816569238669"><ele>90.2</ele><time>2026-04-12T06:39:58.001Z</time></trkpt><trkpt lat="45.34738197126025" lon="9.299942413624906"><ele>90.4</ele><time>2026-04-12T06:40:00.001Z</time></trkpt><trkpt lat="45.34737908752962" lon="9.300073597692908"><ele>90.6</ele><time>2026-04-12T06:40:02.001Z</time></trkpt><trkpt lat="45.34738150699531" lon="9.300208443233657"><ele>90.8</ele><time>2026-04-12T06:40:04.001Z</time></trkpt><trkpt lat="45.347389791071826" lon="9.300339268699407"><ele>91.0</ele><time>2026-04-12T06:40:06.001Z</time></trkpt><trkpt lat="45.34741720423119" lon="9.30046256097137"><ele>91.0</ele><time>2026-04-12T06:40:08.001Z</time></trkpt><trkpt lat="45.347458803803555" lon="9.300580414446223"><ele>91.0</ele><time>2026-04-12T06:40:10.001Z</time></trkpt><trkpt lat="45.3474970049551" lon="9.300700297093305"><ele>91.0</ele><time>2026-04-12T06:40:12.001Z</time></trkpt><trkpt lat="45.34753862065825" lon="9.300827549905872"><ele>91.0</ele><time>2026-04-12T06:40:14.001Z</time></trkpt><trkpt lat="45.34758455619705" lon="9.300950040536684"><ele>91.0</ele><time>2026-04-12T06:40:16.001Z</time></trkpt><trkpt lat="45.34762715491329" lon="9.301066202737228"><ele>90.8</ele><time>2026-04-12T06:40:18.001Z</time></trkpt><trkpt lat="45.347667532342044" lon="9.301185084432507"><ele>90.6</ele><time>2026-04-12T06:40:20.001Z</time></trkpt><trkpt lat="45.3477130203726" lon="9.301309755429038"><ele>90.4</ele><time>2026-04-12T06:40:22.001Z</time></trkpt><trkpt lat="45.3477627508089" lon="9.301427025884957"><ele>90.2</ele><time>2026-04-12T06:40:24.001Z</time></trkpt><trkpt lat="45.34781409008257" lon="9.301548023655926"><ele>90.0</ele><time>2026-04-12T06:40:26.001Z</time></trkpt><trkpt lat="45.34786631284072" lon="9.301667689208402"><ele>90.0</ele><time>2026-04-12T06:40:28.001Z</time></trkpt><trkpt lat="45.3479149516342" lon="9.301791185148389"><ele>90.0</ele><time>2026-04-12T06:40:30.001Z</time></trkpt><trkpt lat="45.34796547460893" lon="9.30191125815352"><ele>90.0</ele><time>2026-04-12T06:40:32.001Z</time></trkpt><trkpt lat="45.34800520877336" lon="9.302035420521884"><ele>90.0</ele><time>2026-04-12T06:40:34.001Z</time></trkpt><trkpt lat="45.34804785576459" lon="9.30215700219768"><ele>90.0</ele><time>2026-04-12T06:40:36.001Z</time></trkpt><trkpt lat="45.348094707310224" lon="9.302274079564386"><ele>90.0</ele><time>2026-04-12T06:40:38.001Z</time></trkpt><trkpt lat="45.3481393658067" lon="9.30239339590797"><ele>90.0</ele><time>2026-04-12T06:40:40.001Z</time></trkpt><trkpt lat="45.34817741699094" lon="9.302516586139507"><ele>90.0</ele><time>2026-04-12T06:40:42.001Z</time></trkpt><trkpt lat="45.34822398923945" lon="9.302636522159599"><ele>90.0</ele><time>2026-04-12T06:40:44.001Z</time></trkpt><trkpt lat="45.34827722716173" lon="9.302748386154446"><ele>90.0</ele><time>2026-04-12T06:40:46.001Z</time></trkpt><trkpt lat="45.34833976976897" lon="9.302851593361448"><ele>90.0</ele><time>2026-04-12T06:40:48.001Z</time></trkpt><trkpt lat="45.34840886634676" lon="9.30294945892219"><ele>90.0</ele><time>2026-04-12T06:40:50.001Z</time></trkpt><trkpt lat="45.34848569750454" lon="9.303035706058813"><ele>90.0</ele><time>2026-04-12T06:40:52.001Z</time></trkpt><trkpt lat="45.3485585618496" lon="9.303132791954306"><ele>90.0</ele><time>2026-04-12T06:40:54.001Z</time></trkpt><trkpt lat="45.34862469372813" lon="9.30323769984346"><ele>90.0</ele><time>2026-04-12T06:40:56Z</time></trkpt><trkpt lat="45.34868361872474" lon="9.303349227932443"><ele>90.2</ele><time>2026-04-12T06:40:58Z</time></trkpt><trkpt lat="45.348737016250226" lon="9.303467640508408"><ele>90.4</ele><time>2026-04-12T06:41:00Z</time></trkpt><trkpt lat="45.34879419697276" lon="9.303581947840703"><ele>90.6</ele><time>2026-04-12T06:41:02Z</time></trkpt><trkpt lat="45.34884416303517" lon="9.303704947523352"><ele>90.8</ele><time>2026-04-12T06:41:04Z</time></trkpt><trkpt lat="45.34889074922862" lon="9.30383262558831"><ele>91.0</ele><time>2026-04-12T06:41:06Z</time></trkpt><trkpt lat="45.348923508957824" lon="9.30395877106472"><ele>91.16666666666666</ele><time>2026-04-12T06:41:08Z</time></trkpt><trkpt lat="45.34895744878254" lon="9.30407538175823"><ele>91.33333333333333</ele><time>2026-04-12T06:41:10Z</time></trkpt><trkpt lat="45.3489955101026" lon="9.304183724932951"><ele>91.5</ele><time>2026-04-12T06:41:12Z</time></trkpt><trkpt lat="45.34903141643673" lon="9.304266178873581"><ele>91.66666666666667</ele><time>2026-04-12T06:41:14Z</time></trkpt><trkpt lat="45.34905505599753" lon="9.30438676541773"><ele>91.83333333333334</ele><time>2026-04-12T06:41:18.001Z</time></trkpt><trkpt lat="45.349057239552366" lon="9.304501893909434"><ele>92.0</ele><time>2026-04-12T06:41:20.001Z</time></trkpt><trkpt lat="45.3490626190397" lon="9.304619249918629"><ele>92.0</ele><time>2026-04-12T06:41:22.001Z</time></trkpt><trkpt lat="45.349114531784565" lon="9.304720863179712"><ele>92.0</ele><time>2026-04-12T06:41:24.001Z</time></trkpt><trkpt lat="45.34919063774896" lon="9.304791734642661"><ele>92.0</ele><time>2026-04-12T06:41:26.001Z</time></trkpt><trkpt lat="45.34928359428416" lon="9.304816833359064"><ele>92.0</ele><time>2026-04-12T06:41:28.001Z</time></trkpt><trkpt lat="45.34937067187709" lon="9.30486603130653"><ele>92.0</ele><time>2026-04-12T06:41:30.001Z</time></trkpt><trkpt lat="45.34944640127047" lon="9.304966267173109"><ele>91.8</ele><time>2026-04-12T06:41:32.001Z</time></trkpt><trkpt lat="45.349531876693256" lon="9.305068471916778"><ele>91.6</ele><time>2026-04-12T06:41:34.001Z</time></trkpt><trkpt lat="45.34960937173824" lon="9.305187523831156"><ele>91.39999999999999</ele><time>2026-04-12T06:41:36.001Z</time></trkpt><trkpt lat="45.3496592621553" lon="9.305326135127613"><ele>91.19999999999999</ele><time>2026-04-12T06:41:38.001Z</time></trkpt><trkpt lat="45.34972032659253" lon="9.305451455389035"><ele>91.0</ele><time>2026-04-12T06:41:40.001Z</time></trkpt><trkpt lat="45.34977442212796" lon="9.305582874983891"><ele>90.6</ele><time>2026-04-12T06:41:42.001Z</time></trkpt><trkpt lat="45.34982961534888" lon="9.305697107823196"><ele>90.19999999999999</ele><time>2026-04-12T06:41:44.001Z</time></trkpt><trkpt lat="45.349883540528324" lon="9.305804192752944"><ele>89.80000000000001</ele><time>2026-04-12T06:41:46.001Z</time></trkpt><trkpt lat="45.34994702265718" lon="9.305907015887325"><ele>89.4</ele><time>2026-04-12T06:41:48.001Z</time></trkpt><trkpt lat="45.35002433330422" lon="9.305997812703756"><ele>89.0</ele><time>2026-04-12T06:41:50.001Z</time></trkpt><trkpt lat="45.35009583931635" lon="9.30609360843154"><ele>89.0</ele><time>2026-04-12T06:41:52.001Z</time></trkpt><trkpt lat="45.35016279503787" lon="9.306191424278902"><ele>89.0</ele><time>2026-04-12T06:41:54.001Z</time></trkpt><trkpt lat="45.35021267934334" lon="9.30630045738044"><ele>89.0</ele><time>2026-04-12T06:41:56.001Z</time></trkpt><trkpt lat="45.35025669275499" lon="9.30641614836977"><ele>89.0</ele><time>2026-04-12T06:41:58.001Z</time></trkpt><trkpt lat="45.350296888928796" lon="9.306553158106619"><ele>89.0</ele><time>2026-04-12T06:42:00.001Z</time></trkpt><trkpt lat="45.350334337718714" lon="9.306680074286096"><ele>89.14285714285714</ele><time>2026-04-12T06:42:02.001Z</time></trkpt><trkpt lat="45.35037458908204" lon="9.306777347656594"><ele>89.28571428571428</ele><time>2026-04-12T06:42:04.001Z</time></trkpt><trkpt lat="45.35040903504746" lon="9.30687976567146"><ele>89.42857142857142</ele><time>2026-04-12T06:42:06.001Z</time></trkpt><trkpt lat="45.350456888451696" lon="9.30696859625226"><ele>89.57142857142857</ele><time>2026-04-12T06:42:08.001Z</time></trkpt><trkpt lat="45.35051098820357" lon="9.307046713240538"><ele>89.71428571428572</ele><time>2026-04-12T06:42:10.001Z</time></trkpt><trkpt lat="45.350558547889236" lon="9.30711534596718"><ele>89.85714285714285</ele><time>2026-04-12T06:42:12.001Z</time></trkpt><trkpt lat="45.350593454064864" lon="9.30719177512305"><ele>90.0</ele><time>2026-04-12T06:42:14.001Z</time></trkpt><trkpt lat="45.35063878584854" lon="9.30726036444403"><ele>90.0</ele><time>2026-04-12T06:42:16.001Z</time></trkpt><trkpt lat="45.35068318979784" lon="9.30733537355044"><ele>90.0</ele><time>2026-04-12T06:42:18.001Z</time></trkpt><trkpt lat="45.35074195033681" lon="9.307430815704226"><ele>90.0</ele><time>2026-04-12T06:42:21.001Z</time></trkpt><trkpt lat="45.35080333806322" lon="9.307517058761537"><ele>90.0</ele><time>2026-04-12T06:42:24.001Z</time></trkpt><trkpt lat="45.35085836358335" lon="9.307613800929662"><ele>90.0</ele><time>2026-04-12T06:42:27.001Z</time></trkpt><trkpt lat="45.350917879043514" lon="9.30771747072325"><ele>90.0</ele><time>2026-04-12T06:42:30.001Z</time></trkpt><trkpt lat="45.350961616248696" lon="9.307799736727821"><ele>90.0</ele><time>2026-04-12T06:42:32.001Z</time></trkpt><trkpt lat="45.351015103881146" lon="9.307885713803751"><ele>90.0</ele><time>2026-04-12T06:42:34.001Z</time></trkpt><trkpt lat="45.35106592567996" lon="9.307971902627468"><ele>90.0</ele><time>2026-04-12T06:42:36.001Z</time></trkpt><trkpt lat="45.35111699203926" lon="9.308058742727674"><ele>90.0</ele><time>2026-04-12T06:42:38.001Z</time></trkpt><trkpt lat="45.351173661487266" lon="9.30815160753912"><ele>90.0</ele><time>2026-04-12T06:42:40.001Z</time></trkpt><trkpt lat="45.3512329303078" lon="9.308247911193261"><ele>90.0</ele><time>2026-04-12T06:42:42.001Z</time></trkpt><trkpt lat="45.35129404215611" lon="9.308353411269518"><ele>90.2</ele><time>2026-04-12T06:42:44.001Z</time></trkpt><trkpt lat="45.351346285059634" lon="9.308471527962324"><ele>90.4</ele><time>2026-04-12T06:42:46.001Z</time></trkpt><trkpt lat="45.35139438766846" lon="9.308602535657174"><ele>90.6</ele><time>2026-04-12T06:42:48.001Z</time></trkpt><trkpt lat="45.35144199807928" lon="9.308747826907666"><ele>90.8</ele><time>2026-04-12T06:42:50.001Z</time></trkpt><trkpt lat="45.35147510688501" lon="9.308918847173016"><ele>91.0</ele><time>2026-04-12T06:42:52.001Z</time></trkpt><trkpt lat="45.35149957248215" lon="9.309005325981369"><ele>91.0</ele><time>2026-04-12T06:42:53.001Z</time></trkpt><trkpt lat="45.351524985142746" lon="9.309093293996412"><ele>91.0</ele><time>2026-04-12T06:42:54.001Z</time></trkpt><trkpt lat="45.351552618110155" lon="9.309186005475457"><ele>91.0</ele><time>2026-04-12T06:42:55.001Z</time></trkpt><trkpt lat="45.35156657083207" lon="9.30928800087259"><ele>91.0</ele><time>2026-04-12T06:42:56.001Z</time></trkpt><trkpt lat="45.3515868612189" lon="9.309387870450388"><ele>91.0</ele><time>2026-04-12T06:42:57.001Z</time></trkpt><trkpt lat="45.35161562926976" lon="9.30948687478972"><ele>91.0</ele><time>2026-04-12T06:42:58.001Z</time></trkpt><trkpt lat="45.35164124449255" lon="9.309592958899602"><ele>91.0</ele><time>2026-04-12T06:42:59.001Z</time></trkpt><trkpt lat="45.351666191752486" lon="9.309697323325809"><ele>90.83333333333333</ele><time>2026-04-12T06:43:00.001Z</time></trkpt><trkpt lat="45.351705552165626" lon="9.309799424039909"><ele>90.66666666666666</ele><time>2026-04-12T06:43:01.001Z</time></trkpt><trkpt lat="45.351749845809294" lon="9.3098993052303"><ele>90.5</ele><time>2026-04-12T06:43:02.001Z</time></trkpt><trkpt lat="45.35178816591642" lon="9.310001931107918"><ele>90.33333333333333</ele><time>2026-04-12T06:43:03Z</time></trkpt><trkpt lat="45.3518223305855" lon="9.310107895007196"><ele>90.16666666666667</ele><time>2026-04-12T06:43:04Z</time></trkpt><trkpt lat="45.35185989591105" lon="9.310207681449393"><ele>90.0</ele><time>2026-04-12T06:43:05.001Z</time></trkpt><trkpt lat="45.35189986055752" lon="9.310303366176509"><ele>90.0</ele><time>2026-04-12T06:43:06Z</time></trkpt><trkpt lat="45.35193924726511" lon="9.310389227674603"><ele>90.0</ele><time>2026-04-12T06:43:07.001Z</time></trkpt><trkpt lat="45.35198000073183" lon="9.310472010515182"><ele>90.0</ele><time>2026-04-12T06:43:08Z</time></trkpt><trkpt lat="45.352013556077495" lon="9.310554066493594"><ele>90.0</ele><time>2026-04-12T06:43:09Z</time></trkpt><trkpt lat="45.352045774668525" lon="9.310632474302077"><ele>90.0</ele><time>2026-04-12T06:43:10Z</time></trkpt><trkpt lat="45.35211019655237" lon="9.31077609077555"><ele>90.0</ele><time>2026-04-12T06:43:12Z</time></trkpt><trkpt lat="45.352178793210115" lon="9.310907740159433"><ele>90.2</ele><time>2026-04-12T06:43:14Z</time></trkpt><trkpt lat="45.352234595408866" lon="9.311037382318297"><ele>90.4</ele><time>2026-04-12T06:43:16Z</time></trkpt><trkpt lat="45.35228101064831" lon="9.311163591542531"><ele>90.6</ele><time>2026-04-12T06:43:18Z</time></trkpt><trkpt lat="45.35233010869037" lon="9.311272214870831"><ele>90.8</ele><time>2026-04-12T06:43:20.001Z</time></trkpt><trkpt lat="45.35237375526021" lon="9.311375397343806"><ele>91.0</ele><time>2026-04-12T06:43:22.001Z</time></trkpt><trkpt lat="45.352409689038666" lon="9.311476468442265"><ele>91.16666666666666</ele><time>2026-04-12T06:43:24.001Z</time></trkpt><trkpt lat="45.35245163998014" lon="9.311564322120296"><ele>91.33333333333333</ele><time>2026-04-12T06:43:26.001Z</time></trkpt><trkpt lat="45.35248322480763" lon="9.311665495773964"><ele>91.5</ele><time>2026-04-12T06:43:28.001Z</time></trkpt><trkpt lat="45.35252641043277" lon="9.31175454503512"><ele>91.66666666666667</ele><time>2026-04-12T06:43:30.001Z</time></trkpt><trkpt lat="45.352564954158325" lon="9.311852051228627"><ele>91.83333333333334</ele><time>2026-04-12T06:43:32.001Z</time></trkpt><trkpt lat="45.3526027111631" lon="9.311946164422757"><ele>92.0</ele><time>2026-04-12T06:43:34.001Z</time></trkpt><trkpt lat="45.35264825763237" lon="9.31203617195599"><ele>92.0</ele><time>2026-04-12T06:43:36.001Z</time></trkpt><trkpt lat="45.35269608980313" lon="9.3121318403901"><ele>92.0</ele><time>2026-04-12T06:43:38.001Z</time></trkpt><trkpt lat="45.35273869327915" lon="9.31223700993205"><ele>92.0</ele><time>2026-04-12T06:43:40.001Z</time></trkpt><trkpt lat="45.35278143089274" lon="9.312346153192305"><ele>92.0</ele><time>2026-04-12T06:43:42.001Z</time></trkpt><trkpt lat="45.35283306314595" lon="9.312448140597194"><ele>92.0</ele><time>2026-04-12T06:43:44.001Z</time></trkpt><trkpt lat="45.352880441892644" lon="9.3125585928687"><ele>92.0</ele><time>2026-04-12T06:43:46.001Z</time></trkpt><trkpt lat="45.35288834964796" lon="9.312659180133355"><ele>92.19999999999999</ele><time>2026-04-12T06:43:49.001Z</time></trkpt><trkpt lat="45.35294578291157" lon="9.312764495772244"><ele>92.4</ele><time>2026-04-12T06:43:56.001Z</time></trkpt><trkpt lat="45.352985250391505" lon="9.312868132084308"><ele>92.6</ele><time>2026-04-12T06:43:58.001Z</time></trkpt><trkpt lat="45.353040140711165" lon="9.313006971772825"><ele>92.80000000000001</ele><time>2026-04-12T06:44:00.001Z</time></trkpt><trkpt lat="45.35309643481888" lon="9.31316171026789"><ele>93.0</ele><time>2026-04-12T06:44:02.001Z</time></trkpt><trkpt lat="45.353132360512674" lon="9.31323891622656"><ele>92.5</ele><time>2026-04-12T06:44:03.001Z</time></trkpt><trkpt lat="45.35319883782251" lon="9.31338314224407"><ele>92.0</ele><time>2026-04-12T06:44:05.001Z</time></trkpt><trkpt lat="45.35325966357907" lon="9.313538838740124"><ele>91.5</ele><time>2026-04-12T06:44:07.001Z</time></trkpt><trkpt lat="45.35332178835977" lon="9.313674656947217"><ele>91.0</ele><time>2026-04-12T06:44:09.001Z</time></trkpt><trkpt lat="45.35337888254142" lon="9.313818233873212"><ele>91.0</ele><time>2026-04-12T06:44:11.001Z</time></trkpt><trkpt lat="45.35342799780078" lon="9.313945566623978"><ele>91.0</ele><time>2026-04-12T06:44:13.001Z</time></trkpt><trkpt lat="45.35348082049683" lon="9.3140870477488"><ele>91.0</ele><time>2026-04-12T06:44:15.001Z</time></trkpt><trkpt lat="45.35353623772701" lon="9.31422249049875"><ele>91.0</ele><time>2026-04-12T06:44:17.001Z</time></trkpt><trkpt lat="45.35356551422429" lon="9.314304689834437"><ele>91.0</ele><time>2026-04-12T06:44:18.001Z</time></trkpt><trkpt lat="45.3536206127747" lon="9.314419758592996"><ele>91.0</ele><time>2026-04-12T06:44:20.001Z</time></trkpt><trkpt lat="45.35365908740017" lon="9.314543168098904"><ele>91.0</ele><time>2026-04-12T06:44:22.001Z</time></trkpt><trkpt lat="45.35370396467341" lon="9.314667094538205"><ele>91.0</ele><time>2026-04-12T06:44:24.001Z</time></trkpt><trkpt lat="45.35375252251775" lon="9.314780393670882"><ele>91.0</ele><time>2026-04-12T06:44:26.001Z</time></trkpt><trkpt lat="45.35379929711056" lon="9.31490896597842"><ele>91.0</ele><time>2026-04-12T06:44:28.001Z</time></trkpt><trkpt lat="45.353847228350766" lon="9.315027774516716"><ele>91.0</ele><time>2026-04-12T06:44:30.001Z</time></trkpt><trkpt lat="45.35389096338618" lon="9.315137959977715"><ele>91.0</ele><time>2026-04-12T06:44:32.001Z</time></trkpt><trkpt lat="45.3539342490641" lon="9.31523885635383"><ele>91.0</ele><time>2026-04-12T06:44:34.001Z</time></trkpt><trkpt lat="45.35397537617715" lon="9.315345372604565"><ele>91.0</ele><time>2026-04-12T06:44:36.001Z</time></trkpt><trkpt lat="45.35402255255765" lon="9.315458444805572"><ele>91.0</ele><time>2026-04-12T06:44:38.001Z</time></trkpt><trkpt lat="45.35407303039122" lon="9.315580974196122"><ele>91.0</ele><time>2026-04-12T06:44:40.001Z</time></trkpt><trkpt lat="45.35412014824878" lon="9.315689489765262"><ele>91.0</ele><time>2026-04-12T06:44:42.001Z</time></trkpt><trkpt lat="45.35415612645875" lon="9.315807080331352"><ele>91.0</ele><time>2026-04-12T06:44:44.001Z</time></trkpt><trkpt lat="45.35419468915629" lon="9.315898175246847"><ele>91.0</ele><time>2026-04-12T06:44:46.001Z</time></trkpt><trkpt lat="45.3542440242428" lon="9.316037441409298"><ele>91.0</ele><time>2026-04-12T06:44:48.001Z</time></trkpt><trkpt lat="45.354283582507556" lon="9.316157757061847"><ele>91.0</ele><time>2026-04-12T06:44:50.001Z</time></trkpt><trkpt lat="45.3543339752609" lon="9.316268843454676"><ele>91.0</ele><time>2026-04-12T06:44:52.001Z</time></trkpt><trkpt lat="45.35437276651234" lon="9.31638515614862"><ele>91.0</ele><time>2026-04-12T06:44:54.001Z</time></trkpt><trkpt lat="45.35442260648131" lon="9.316496810185862"><ele>91.0</ele><time>2026-04-12T06:44:56.001Z</time></trkpt><trkpt lat="45.35445430758701" lon="9.31661828539206"><ele>91.0</ele><time>2026-04-12T06:44:58.001Z</time></trkpt><trkpt lat="45.3545049064065" lon="9.3167291008942"><ele>91.16666666666666</ele><time>2026-04-12T06:45:00.001Z</time></trkpt><trkpt lat="45.35454682905899" lon="9.316827418754837"><ele>91.33333333333333</ele><time>2026-04-12T06:45:02.001Z</time></trkpt><trkpt lat="45.35459872501667" lon="9.316960043262464"><ele>91.5</ele><time>2026-04-12T06:45:04.001Z</time></trkpt><trkpt lat="45.3546282976783" lon="9.317061895532783"><ele>91.66666666666667</ele><time>2026-04-12T06:45:06.001Z</time></trkpt><trkpt lat="45.35467480878136" lon="9.317164953151481"><ele>91.83333333333334</ele><time>2026-04-12T06:45:08Z</time></trkpt><trkpt lat="45.354716502921896" lon="9.317273016160408"><ele>92.0</ele><time>2026-04-12T06:45:10Z</time></trkpt><trkpt lat="45.354749747251354" lon="9.317383120635025"><ele>91.66666666666667</ele><time>2026-04-12T06:45:12Z</time></trkpt><trkpt lat="45.35479076400961" lon="9.31747714664173"><ele>91.33333333333334</ele><time>2026-04-12T06:45:14Z</time></trkpt><trkpt lat="45.3548350530176" lon="9.317572082405137"><ele>91.0</ele><time>2026-04-12T06:45:16Z</time></trkpt><trkpt lat="45.354871733992816" lon="9.317679703454223"><ele>90.66666666666667</ele><time>2026-04-12T06:45:18Z</time></trkpt><trkpt lat="45.354918061297745" lon="9.317786615158703"><ele>90.33333333333333</ele><time>2026-04-12T06:45:20Z</time></trkpt><trkpt lat="45.354954579518754" lon="9.31790530409654"><ele>90.0</ele><time>2026-04-12T06:45:22Z</time></trkpt><trkpt lat="45.355000657175076" lon="9.318006734578725"><ele>90.33333333333333</ele><time>2026-04-12T06:45:24Z</time></trkpt><trkpt lat="45.35501986046296" lon="9.318101205513209"><ele>90.66666666666667</ele><time>2026-04-12T06:45:26.001Z</time></trkpt><trkpt lat="45.35506457950624" lon="9.318214400322095"><ele>91.0</ele><time>2026-04-12T06:45:28.001Z</time></trkpt><trkpt lat="45.35509668595931" lon="9.318310356380355"><ele>91.33333333333334</ele><time>2026-04-12T06:45:30.001Z</time></trkpt><trkpt lat="45.355117105450624" lon="9.318404699194156"><ele>91.66666666666667</ele><time>2026-04-12T06:45:32.001Z</time></trkpt><trkpt lat="45.3551406519293" lon="9.318506008654941"><ele>92.0</ele><time>2026-04-12T06:45:34.001Z</time></trkpt><trkpt lat="45.355188702228325" lon="9.3185858686093"><ele>92.0</ele><time>2026-04-12T06:45:36.001Z</time></trkpt><trkpt lat="45.35524367126649" lon="9.318654710463933"><ele>92.0</ele><time>2026-04-12T06:45:38.001Z</time></trkpt><trkpt lat="45.35528904407253" lon="9.31874299329103"><ele>92.0</ele><time>2026-04-12T06:45:40.001Z</time></trkpt><trkpt lat="45.35532657190144" lon="9.318845762508975"><ele>92.0</ele><time>2026-04-12T06:45:42.001Z</time></trkpt><trkpt lat="45.355368550015584" lon="9.318946592299183"><ele>92.0</ele><time>2026-04-12T06:45:44.001Z</time></trkpt><trkpt lat="45.355408791377904" lon="9.319049152447965"><ele>92.0</ele><time>2026-04-12T06:45:46.001Z</time></trkpt><trkpt lat="45.355446713457965" lon="9.319157950444367"><ele>92.16666666666667</ele><time>2026-04-12T06:45:48.001Z</time></trkpt><trkpt lat="45.35548654481966" lon="9.319246783104813"><ele>92.33333333333334</ele><time>2026-04-12T06:45:50.001Z</time></trkpt><trkpt lat="45.355534833543715" lon="9.31933915563001"><ele>92.5</ele><time>2026-04-12T06:45:53.001Z</time></trkpt><trkpt lat="45.3555783020878" lon="9.319426399671267"><ele>92.66666666666667</ele><time>2026-04-12T06:45:58.001Z</time></trkpt><trkpt lat="45.3556130901031" lon="9.31951719192486"><ele>92.83333333333333</ele><time>2026-04-12T06:46:00.001Z</time></trkpt><trkpt lat="45.35566275399171" lon="9.319596481788"><ele>93.0</ele><time>2026-04-12T06:46:02.001Z</time></trkpt><trkpt lat="45.355718028811864" lon="9.319705095682274"><ele>93.33333333333333</ele><time>2026-04-12T06:46:05.001Z</time></trkpt><trkpt lat="45.35578534905965" lon="9.319818027890447"><ele>93.66666666666667</ele><time>2026-04-12T06:46:07.001Z</time></trkpt><trkpt lat="45.35583897398964" lon="9.31990621272235"><ele>94.0</ele><time>2026-04-12T06:46:09.001Z</time></trkpt><trkpt lat="45.35582648874105" lon="9.320010934417722"><ele>94.33333333333334</ele><time>2026-04-12T06:46:11.001Z</time></trkpt><trkpt lat="45.355860567724065" lon="9.32009358321938"><ele>94.66666666666667</ele><time>2026-04-12T06:46:14.001Z</time></trkpt><trkpt lat="45.35586744871429" lon="9.320205668224752"><ele>95.0</ele><time>2026-04-12T06:46:16.001Z</time></trkpt><trkpt lat="45.355913620768035" lon="9.320312007143418"><ele>95.0</ele><time>2026-04-12T06:46:18.001Z</time></trkpt><trkpt lat="45.35595803686698" lon="9.320420424815865"><ele>95.0</ele><time>2026-04-12T06:46:20.001Z</time></trkpt><trkpt lat="45.35599725924047" lon="9.320525731991419"><ele>95.0</ele><time>2026-04-12T06:46:22.001Z</time></trkpt><trkpt lat="45.356037197971865" lon="9.32063111651101"><ele>95.0</ele><time>2026-04-12T06:46:24.001Z</time></trkpt><trkpt lat="45.356079563107116" lon="9.320738614857706"><ele>95.0</ele><time>2026-04-12T06:46:26.001Z</time></trkpt><trkpt lat="45.35613077477446" lon="9.320849972331137"><ele>95.0</ele><time>2026-04-12T06:46:28.001Z</time></trkpt><trkpt lat="45.35617338859747" lon="9.320969546243123"><ele>94.8</ele><time>2026-04-12T06:46:30.001Z</time></trkpt><trkpt lat="45.35621822763909" lon="9.321083735497119"><ele>94.6</ele><time>2026-04-12T06:46:32.001Z</time></trkpt><trkpt lat="45.35625737924996" lon="9.321196503949222"><ele>94.4</ele><time>2026-04-12T06:46:34.001Z</time></trkpt><trkpt lat="45.35630800833258" lon="9.321319295285026"><ele>94.2</ele><time>2026-04-12T06:46:36.001Z</time></trkpt><trkpt lat="45.356353037074676" lon="9.321434209123849"><ele>94.0</ele><time>2026-04-12T06:46:38.001Z</time></trkpt><trkpt lat="45.35639959290276" lon="9.321543637854733"><ele>94.0</ele><time>2026-04-12T06:46:40.001Z</time></trkpt><trkpt lat="45.35643982315043" lon="9.321650778436135"><ele>94.0</ele><time>2026-04-12T06:46:42.001Z</time></trkpt><trkpt lat="45.35648031331275" lon="9.321766274535563"><ele>94.0</ele><time>2026-04-12T06:46:44.001Z</time></trkpt><trkpt lat="45.35651055342816" lon="9.321859301610406"><ele>94.0</ele><time>2026-04-12T06:46:46.001Z</time></trkpt><trkpt lat="45.35655848879271" lon="9.32196801708668"><ele>94.0</ele><time>2026-04-12T06:46:48.001Z</time></trkpt><trkpt lat="45.3565916780172" lon="9.322065704536"><ele>94.0</ele><time>2026-04-12T06:46:50.001Z</time></trkpt><trkpt lat="45.35662842780379" lon="9.322172188180817"><ele>94.0</ele><time>2026-04-12T06:46:52.001Z</time></trkpt><trkpt lat="45.35665656961798" lon="9.322279806452226"><ele>94.0</ele><time>2026-04-12T06:46:54.001Z</time></trkpt><trkpt lat="45.35668180642472" lon="9.32239662158037"><ele>94.0</ele><time>2026-04-12T06:46:56.001Z</time></trkpt><trkpt lat="45.35671756133581" lon="9.322502336760422"><ele>94.0</ele><time>2026-04-12T06:46:58.001Z</time></trkpt><trkpt lat="45.35675226977371" lon="9.322608001023895"><ele>94.0</ele><time>2026-04-12T06:47:00.001Z</time></trkpt><trkpt lat="45.35677359738544" lon="9.322709739433549"><ele>94.0</ele><time>2026-04-12T06:47:02.001Z</time></trkpt><trkpt lat="45.35681011624569" lon="9.322797451792916"><ele>94.0</ele><time>2026-04-12T06:47:04.001Z</time></trkpt><trkpt lat="45.35684693283679" lon="9.3228905824227"><ele>94.0</ele><time>2026-04-12T06:47:06.001Z</time></trkpt><trkpt lat="45.356890822730435" lon="9.32296553353589"><ele>94.0</ele><time>2026-04-12T06:47:08.001Z</time></trkpt><trkpt lat="45.35694925284636" lon="9.323045634627073"><ele>94.0</ele><time>2026-04-12T06:47:10.001Z</time></trkpt><trkpt lat="45.35698353413945" lon="9.323144809328474"><ele>94.0</ele><time>2026-04-12T06:47:12.001Z</time></trkpt><trkpt lat="45.357022019827255" lon="9.32323675427927"><ele>94.0</ele><time>2026-04-12T06:47:14Z</time></trkpt><trkpt lat="45.35705574094433" lon="9.323334698081648"><ele>93.85714285714286</ele><time>2026-04-12T06:47:16Z</time></trkpt><trkpt lat="45.357094579343475" lon="9.323423227171636"><ele>93.71428571428571</ele><time>2026-04-12T06:47:18Z</time></trkpt><trkpt lat="45.357132058812546" lon="9.323517826609537"><ele>93.57142857142858</ele><time>2026-04-12T06:47:20Z</time></trkpt><trkpt lat="45.3571636055082" lon="9.323617798769234"><ele>93.42857142857143</ele><time>2026-04-12T06:47:22Z</time></trkpt><trkpt lat="45.357193885658894" lon="9.323710794176394"><ele>93.28571428571429</ele><time>2026-04-12T06:47:24Z</time></trkpt><trkpt lat="45.3572167394168" lon="9.323801442474064"><ele>93.14285714285715</ele><time>2026-04-12T06:47:26Z</time></trkpt><trkpt lat="45.35725062236402" lon="9.323883315776104"><ele>93.0</ele><time>2026-04-12T06:47:28Z</time></trkpt><trkpt lat="45.35728328553889" lon="9.323975545767619"><ele>93.60000000000001</ele><time>2026-04-12T06:47:30.001Z</time></trkpt><trkpt lat="45.357319766702815" lon="9.324074706327773"><ele>94.2</ele><time>2026-04-12T06:47:32.001Z</time></trkpt><trkpt lat="45.35735249300658" lon="9.324191466354742"><ele>94.8</ele><time>2026-04-12T06:47:34.001Z</time></trkpt><trkpt lat="45.35739373894215" lon="9.324311364369747"><ele>95.4</ele><time>2026-04-12T06:47:36.001Z</time></trkpt><trkpt lat="45.357437158843915" lon="9.324425728251686"><ele>96.0</ele><time>2026-04-12T06:47:38.001Z</time></trkpt><trkpt lat="45.35750506499506" lon="9.324530236464415"><ele>96.0</ele><time>2026-04-12T06:47:40.001Z</time></trkpt><trkpt lat="45.35756497423044" lon="9.324625280391672"><ele>96.0</ele><time>2026-04-12T06:47:42.001Z</time></trkpt><trkpt lat="45.3576253397161" lon="9.324721535525525"><ele>96.0</ele><time>2026-04-12T06:47:44.001Z</time></trkpt><trkpt lat="45.35764390681575" lon="9.32486308466405"><ele>96.0</ele><time>2026-04-12T06:47:46.001Z</time></trkpt><trkpt lat="45.35759558116902" lon="9.325022404354945"><ele>96.0</ele><time>2026-04-12T06:47:48.001Z</time></trkpt><trkpt lat="45.357554395292865" lon="9.325182573864385"><ele>95.0</ele><time>2026-04-12T06:47:50.001Z</time></trkpt><trkpt lat="45.35755079546284" lon="9.325347630908462"><ele>94.0</ele><time>2026-04-12T06:47:52.001Z</time></trkpt><trkpt lat="45.35754440984793" lon="9.325512178440267"><ele>93.0</ele><time>2026-04-12T06:47:54.001Z</time></trkpt><trkpt lat="45.35753726085659" lon="9.325669585201357"><ele>92.0</ele><time>2026-04-12T06:47:56.001Z</time></trkpt><trkpt lat="45.35753426" lon="9.325822962201185"><ele>90.19999999999999</ele><time>2026-04-12T06:47:58.001Z</time></trkpt><trkpt lat="45.357534271737144" lon="9.325982743371888"><ele>88.4</ele><time>2026-04-12T06:48:00.001Z</time></trkpt><trkpt lat="45.357531773551" lon="9.32614477984869"><ele>86.6</ele><time>2026-04-12T06:48:02.001Z</time></trkpt><trkpt lat="45.35753341748389" lon="9.326296357618476"><ele>84.80000000000001</ele><time>2026-04-12T06:48:04.001Z</time></trkpt><trkpt lat="45.3575165334715" lon="9.32644698766128"><ele>83.0</ele><time>2026-04-12T06:48:06.001Z</time></trkpt><trkpt lat="45.3575237551795" lon="9.326595221155946"><ele>83.60000000000001</ele><time>2026-04-12T06:48:08.001Z</time></trkpt><trkpt lat="45.35753356524422" lon="9.326746062667473"><ele>84.2</ele><time>2026-04-12T06:48:10.001Z</time></trkpt><trkpt lat="45.357587739337944" lon="9.32689266516173"><ele>84.8</ele><time>2026-04-12T06:48:12.001Z</time></trkpt><trkpt lat="45.357644857900056" lon="9.327025386506891"><ele>85.4</ele><time>2026-04-12T06:48:14.001Z</time></trkpt><trkpt lat="45.35769969928346" lon="9.327160016190094"><ele>86.0</ele><time>2026-04-12T06:48:16.001Z</time></trkpt><trkpt lat="45.35775316548263" lon="9.327275309109037"><ele>86.0</ele><time>2026-04-12T06:48:18.001Z</time></trkpt><trkpt lat="45.35781086783239" lon="9.327384477192373"><ele>86.0</ele><time>2026-04-12T06:48:20.001Z</time></trkpt><trkpt lat="45.357857739277186" lon="9.32749905100349"><ele>86.0</ele><time>2026-04-12T06:48:22.001Z</time></trkpt><trkpt lat="45.35790832560931" lon="9.327617052093084"><ele>86.0</ele><time>2026-04-12T06:48:24.001Z</time></trkpt><trkpt lat="45.35795922775024" lon="9.327729755800044"><ele>86.0</ele><time>2026-04-12T06:48:26.001Z</time></trkpt><trkpt lat="45.358012233471264" lon="9.32784057310378"><ele>86.0</ele><time>2026-04-12T06:48:28.001Z</time></trkpt><trkpt lat="45.35806391066991" lon="9.327954146609407"><ele>86.0</ele><time>2026-04-12T06:48:30.001Z</time></trkpt><trkpt lat="45.358116356456115" lon="9.32806545559972"><ele>86.0</ele><time>2026-04-12T06:48:32.001Z</time></trkpt><trkpt lat="45.35816942796055" lon="9.328181689108982"><ele>86.0</ele><time>2026-04-12T06:48:34.001Z</time></trkpt><trkpt lat="45.35822169256018" lon="9.32830635144498"><ele>86.0</ele><time>2026-04-12T06:48:36.001Z</time></trkpt><trkpt lat="45.358277962197334" lon="9.328421356466407"><ele>86.0</ele><time>2026-04-12T06:48:38.001Z</time></trkpt><trkpt lat="45.35833351475796" lon="9.328529549046964"><ele>86.0</ele><time>2026-04-12T06:48:40.001Z</time></trkpt><trkpt lat="45.35838708963505" lon="9.328638083086663"><ele>86.0</ele><time>2026-04-12T06:48:42.001Z</time></trkpt><trkpt lat="45.358443204958625" lon="9.328747000803219"><ele>86.0</ele><time>2026-04-12T06:48:44.001Z</time></trkpt><trkpt lat="45.35849792019971" lon="9.32885267693827"><ele>86.0</ele><time>2026-04-12T06:48:46.001Z</time></trkpt><trkpt lat="45.358543787483086" lon="9.328960284384692"><ele>86.4</ele><time>2026-04-12T06:48:48.001Z</time></trkpt><trkpt lat="45.358596302863255" lon="9.32906506250825"><ele>86.8</ele><time>2026-04-12T06:48:50.001Z</time></trkpt><trkpt lat="45.35866205575301" lon="9.329150525169375"><ele>87.2</ele><time>2026-04-12T06:48:52.001Z</time></trkpt><trkpt lat="45.358753212994905" lon="9.329214117249913"><ele>87.60000000000001</ele><time>2026-04-12T06:48:54.001Z</time></trkpt><trkpt lat="45.358851543605724" lon="9.329226808283035"><ele>88.0</ele><time>2026-04-12T06:48:56.001Z</time></trkpt><trkpt lat="45.358950876643355" lon="9.329224059907009"><ele>87.2</ele><time>2026-04-12T06:48:58.001Z</time></trkpt><trkpt lat="45.3590498620017" lon="9.329228943816148"><ele>86.4</ele><time>2026-04-12T06:49:00.001Z</time></trkpt><trkpt lat="45.359146871412" lon="9.329225769882164"><ele>85.60000000000001</ele><time>2026-04-12T06:49:02.001Z</time></trkpt><trkpt lat="45.35924467645587" lon="9.329245353940491"><ele>84.80000000000001</ele><time>2026-04-12T06:49:04.001Z</time></trkpt><trkpt lat="45.359343472352116" lon="9.32926123144759"><ele>84.0</ele><time>2026-04-12T06:49:06.001Z</time></trkpt><trkpt lat="45.35943679584581" lon="9.329279981826083"><ele>84.0</ele><time>2026-04-12T06:49:08.001Z</time></trkpt><trkpt lat="45.35953109930711" lon="9.329288687054136"><ele>84.0</ele><time>2026-04-12T06:49:10.001Z</time></trkpt><trkpt lat="45.35962317598423" lon="9.329311474077283"><ele>84.0</ele><time>2026-04-12T06:49:12.001Z</time></trkpt><trkpt lat="45.3597126491979" lon="9.329321217227161"><ele>84.0</ele><time>2026-04-12T06:49:14.001Z</time></trkpt><trkpt lat="45.35980146645425" lon="9.3293361724815"><ele>84.0</ele><time>2026-04-12T06:49:16.001Z</time></trkpt><trkpt lat="45.35988801142889" lon="9.329354372104069"><ele>83.80000000000001</ele><time>2026-04-12T06:49:18.001Z</time></trkpt><trkpt lat="45.35997969858438" lon="9.329366329822943"><ele>83.60000000000001</ele><time>2026-04-12T06:49:20.001Z</time></trkpt><trkpt lat="45.360073499642965" lon="9.329382122197073"><ele>83.4</ele><time>2026-04-12T06:49:22.001Z</time></trkpt><trkpt lat="45.36016656507442" lon="9.329389306324549"><ele>83.2</ele><time>2026-04-12T06:49:24.001Z</time></trkpt><trkpt lat="45.360259139126356" lon="9.329405626774705"><ele>83.0</ele><time>2026-04-12T06:49:26.001Z</time></trkpt><trkpt lat="45.36035496189416" lon="9.329420334864674"><ele>83.0</ele><time>2026-04-12T06:49:28.001Z</time></trkpt><trkpt lat="45.36044926842241" lon="9.329438212440142"><ele>83.0</ele><time>2026-04-12T06:49:30.001Z</time></trkpt><trkpt lat="45.3605396391138" lon="9.32945347496117"><ele>83.0</ele><time>2026-04-12T06:49:32.001Z</time></trkpt><trkpt lat="45.36062540618628" lon="9.32944931926505"><ele>83.0</ele><time>2026-04-12T06:49:34.001Z</time></trkpt><trkpt lat="45.360708614778765" lon="9.329473854789132"><ele>83.0</ele><time>2026-04-12T06:49:36.001Z</time></trkpt><trkpt lat="45.360783240423274" lon="9.329480972108511"><ele>83.0</ele><time>2026-04-12T06:49:38.001Z</time></trkpt><trkpt lat="45.36087387946279" lon="9.32949599014094"><ele>83.33333333333334</ele><time>2026-04-12T06:49:41.001Z</time></trkpt><trkpt lat="45.36093674112933" lon="9.329504685602025"><ele>83.66666666666667</ele><time>2026-04-12T06:49:44.001Z</time></trkpt><trkpt lat="45.36101259241303" lon="9.329514426814843"><ele>84.0</ele><time>2026-04-12T06:49:48.001Z</time></trkpt><trkpt lat="45.36110259897388" lon="9.329524140452074"><ele>84.33333333333333</ele><time>2026-04-12T06:51:19.001Z</time></trkpt><trkpt lat="45.36118066505145" lon="9.329551341161642"><ele>84.66666666666666</ele><time>2026-04-12T06:51:21.001Z</time></trkpt><trkpt lat="45.36127251854911" lon="9.329596560656947"><ele>85.0</ele><time>2026-04-12T06:51:23.001Z</time></trkpt><trkpt lat="45.361369311087074" lon="9.329599375630304"><ele>85.0</ele><time>2026-04-12T06:51:25.001Z</time></trkpt><trkpt lat="45.36144815143846" lon="9.329601005530515"><ele>85.0</ele><time>2026-04-12T06:51:27Z</time></trkpt><trkpt lat="45.36152168508455" lon="9.329600869000185"><ele>85.0</ele><time>2026-04-12T06:51:29Z</time></trkpt><trkpt lat="45.36160721314268" lon="9.329617457305654"><ele>85.0</ele><time>2026-04-12T06:51:31Z</time></trkpt><trkpt lat="45.36169339151085" lon="9.329634081648257"><ele>85.0</ele><time>2026-04-12T06:51:33Z</time></trkpt><trkpt lat="45.3617803059967" lon="9.329644195509461"><ele>85.0</ele><time>2026-04-12T06:51:35Z</time></trkpt><trkpt lat="45.36186826941655" lon="9.329663403847906"><ele>85.0</ele><time>2026-04-12T06:51:37Z</time></trkpt><trkpt lat="45.36195037085027" lon="9.329682808790894"><ele>85.0</ele><time>2026-04-12T06:51:39Z</time></trkpt><trkpt lat="45.362040590652306" lon="9.329696934845416"><ele>85.0</ele><time>2026-04-12T06:51:41Z</time></trkpt><trkpt lat="45.362129851571645" lon="9.329710954516603"><ele>85.0</ele><time>2026-04-12T06:51:43Z</time></trkpt><trkpt lat="45.362220401908765" lon="9.329732191929443"><ele>85.0</ele><time>2026-04-12T06:51:45Z</time></trkpt><trkpt lat="45.36230957865689" lon="9.329747600056455"><ele>85.0</ele><time>2026-04-12T06:51:47Z</time></trkpt><trkpt lat="45.36240285678875" lon="9.329755784982984"><ele>85.4</ele><time>2026-04-12T06:51:49Z</time></trkpt><trkpt lat="45.36250360825583" lon="9.329823642031261"><ele>85.8</ele><time>2026-04-12T06:51:51Z</time></trkpt><trkpt lat="45.36261145255246" lon="9.329882134362688"><ele>86.19999999999999</ele><time>2026-04-12T06:51:53Z</time></trkpt><trkpt lat="45.3627166039172" lon="9.329908008767154"><ele>86.6</ele><time>2026-04-12T06:51:55Z</time></trkpt><trkpt lat="45.362819672533604" lon="9.329917223546635"><ele>87.0</ele><time>2026-04-12T06:51:57.001Z</time></trkpt><trkpt lat="45.36290525080499" lon="9.32994176130505"><ele>87.0</ele><time>2026-04-12T06:51:59.001Z</time></trkpt><trkpt lat="45.36296749709937" lon="9.329966280504648"><ele>87.0</ele><time>2026-04-12T06:52:01.001Z</time></trkpt><trkpt lat="45.36301148619133" lon="9.330057934745748"><ele>87.0</ele><time>2026-04-12T06:52:03.001Z</time></trkpt><trkpt lat="45.363044541432544" lon="9.330178883525905"><ele>87.0</ele><time>2026-04-12T06:52:05.001Z</time></trkpt><trkpt lat="45.36309408347794" lon="9.330315958915616"><ele>87.0</ele><time>2026-04-12T06:52:07.001Z</time></trkpt><trkpt lat="45.36312770413339" lon="9.330466467274887"><ele>86.0</ele><time>2026-04-12T06:52:09.001Z</time></trkpt><trkpt lat="45.36317781188366" lon="9.330603433832502"><ele>85.0</ele><time>2026-04-12T06:52:11.001Z</time></trkpt><trkpt lat="45.36321801376881" lon="9.330746178281789"><ele>84.0</ele><time>2026-04-12T06:52:13.001Z</time></trkpt><trkpt lat="45.363241819685555" lon="9.330887828428574"><ele>83.0</ele><time>2026-04-12T06:52:15.001Z</time></trkpt><trkpt lat="45.36328044474663" lon="9.331018477591448"><ele>82.0</ele><time>2026-04-12T06:52:17.001Z</time></trkpt><trkpt lat="45.36331483961608" lon="9.331148661264349"><ele>82.0</ele><time>2026-04-12T06:52:19.001Z</time></trkpt><trkpt lat="45.36334566844822" lon="9.33128321509935"><ele>82.0</ele><time>2026-04-12T06:52:21.001Z</time></trkpt><trkpt lat="45.36338267147865" lon="9.331423852031731"><ele>82.0</ele><time>2026-04-12T06:52:23.001Z</time></trkpt><trkpt lat="45.36342155839376" lon="9.331581032251417"><ele>82.0</ele><time>2026-04-12T06:52:25.001Z</time></trkpt><trkpt lat="45.36345702468309" lon="9.331752060258946"><ele>82.0</ele><time>2026-04-12T06:52:27.001Z</time></trkpt><trkpt lat="45.36347724200114" lon="9.331840900133535"><ele>82.42857142857142</ele><time>2026-04-12T06:52:28.001Z</time></trkpt><trkpt lat="45.3634959351028" lon="9.33193065595819"><ele>82.85714285714286</ele><time>2026-04-12T06:52:29.001Z</time></trkpt><trkpt lat="45.36351546470077" lon="9.332023110364718"><ele>83.28571428571428</ele><time>2026-04-12T06:52:30.001Z</time></trkpt><trkpt lat="45.36353756960084" lon="9.332115833703243"><ele>83.71428571428571</ele><time>2026-04-12T06:52:31.001Z</time></trkpt><trkpt lat="45.36355544360731" lon="9.332211271532541"><ele>84.14285714285714</ele><time>2026-04-12T06:52:32.001Z</time></trkpt><trkpt lat="45.36357668253755" lon="9.332307084533069"><ele>84.57142857142857</ele><time>2026-04-12T06:52:33.001Z</time></trkpt><trkpt lat="45.36360071410458" lon="9.332396373891523"><ele>85.0</ele><time>2026-04-12T06:52:34.001Z</time></trkpt><trkpt lat="45.36361910628099" lon="9.332486811540575"><ele>85.0</ele><time>2026-04-12T06:52:35.001Z</time></trkpt><trkpt lat="45.36363521958841" lon="9.332577292103544"><ele>85.0</ele><time>2026-04-12T06:52:36.001Z</time></trkpt><trkpt lat="45.3636624523078" lon="9.332661240547948"><ele>85.0</ele><time>2026-04-12T06:52:37.001Z</time></trkpt><trkpt lat="45.363697482490245" lon="9.332829973785616"><ele>85.0</ele><time>2026-04-12T06:52:39.001Z</time></trkpt><trkpt lat="45.363735554583094" lon="9.332991540498558"><ele>85.0</ele><time>2026-04-12T06:52:41.001Z</time></trkpt><trkpt lat="45.36377610490136" lon="9.33314309216637"><ele>84.25</ele><time>2026-04-12T06:52:43.001Z</time></trkpt><trkpt lat="45.36380905513026" lon="9.333300390817515"><ele>83.5</ele><time>2026-04-12T06:52:45.001Z</time></trkpt><trkpt lat="45.363844090847124" lon="9.333455905656963"><ele>82.75</ele><time>2026-04-12T06:52:47.001Z</time></trkpt><trkpt lat="45.36389002106819" lon="9.333623370000055"><ele>82.0</ele><time>2026-04-12T06:52:49.001Z</time></trkpt><trkpt lat="45.36392004568782" lon="9.333792124173621"><ele>81.75</ele><time>2026-04-12T06:52:51.001Z</time></trkpt><trkpt lat="45.363954972352204" lon="9.333962391335858"><ele>81.5</ele><time>2026-04-12T06:52:53.001Z</time></trkpt><trkpt lat="45.36398428960294" lon="9.334124448220516"><ele>81.25</ele><time>2026-04-12T06:52:55.001Z</time></trkpt><trkpt lat="45.36401186454004" lon="9.334276402978416"><ele>81.0</ele><time>2026-04-12T06:52:57.001Z</time></trkpt><trkpt lat="45.364041911747556" lon="9.33441725881681"><ele>81.0</ele><time>2026-04-12T06:52:59.001Z</time></trkpt><trkpt lat="45.3640722044427" lon="9.334551687505554"><ele>81.0</ele><time>2026-04-12T06:53:01.001Z</time></trkpt><trkpt lat="45.364102989942275" lon="9.334689336263668"><ele>81.0</ele><time>2026-04-12T06:53:03.001Z</time></trkpt><trkpt lat="45.36413744442459" lon="9.334831047244569"><ele>81.0</ele><time>2026-04-12T06:53:05.001Z</time></trkpt><trkpt lat="45.3641698781757" lon="9.334976614935554"><ele>81.0</ele><time>2026-04-12T06:53:07.001Z</time></trkpt><trkpt lat="45.36419916024801" lon="9.335108706425752"><ele>81.6</ele><time>2026-04-12T06:53:09.001Z</time></trkpt><trkpt lat="45.36422484537215" lon="9.335225012955608"><ele>82.19999999999999</ele><time>2026-04-12T06:53:11.001Z</time></trkpt><trkpt lat="45.36425625913262" lon="9.33534570050603"><ele>82.80000000000001</ele><time>2026-04-12T06:53:13.001Z</time></trkpt><trkpt lat="45.364292218894896" lon="9.335467374141063"><ele>83.4</ele><time>2026-04-12T06:53:15.001Z</time></trkpt><trkpt lat="45.36432753108682" lon="9.335595065368995"><ele>84.0</ele><time>2026-04-12T06:53:17.001Z</time></trkpt><trkpt lat="45.364362692477876" lon="9.335715973450228"><ele>84.2</ele><time>2026-04-12T06:53:19.001Z</time></trkpt><trkpt lat="45.364393825647795" lon="9.335838306345455"><ele>84.4</ele><time>2026-04-12T06:53:21.001Z</time></trkpt><trkpt lat="45.3644220525757" lon="9.335960462479571"><ele>84.6</ele><time>2026-04-12T06:53:23.001Z</time></trkpt><trkpt lat="45.36446111910528" lon="9.336089977392337"><ele>84.8</ele><time>2026-04-12T06:53:25.001Z</time></trkpt><trkpt lat="45.36450015008765" lon="9.336225312901094"><ele>85.0</ele><time>2026-04-12T06:53:27.001Z</time></trkpt><trkpt lat="45.364538339693034" lon="9.336349029241003"><ele>85.0</ele><time>2026-04-12T06:53:29.001Z</time></trkpt><trkpt lat="45.364574061768096" lon="9.336467981988456"><ele>85.0</ele><time>2026-04-12T06:53:31.001Z</time></trkpt><trkpt lat="45.3646142061687" lon="9.336584072578235"><ele>85.0</ele><time>2026-04-12T06:53:33Z</time></trkpt><trkpt lat="45.36465838105152" lon="9.336699369792136"><ele>85.0</ele><time>2026-04-12T06:53:35Z</time></trkpt><trkpt lat="45.3647191455151" lon="9.336808548816592"><ele>85.0</ele><time>2026-04-12T06:53:37Z</time></trkpt><trkpt lat="45.364819817638775" lon="9.336819591166257"><ele>85.0</ele><time>2026-04-12T06:53:39Z</time></trkpt><trkpt lat="45.364921863203335" lon="9.33677990604813"><ele>85.0</ele><time>2026-04-12T06:53:41Z</time></trkpt><trkpt lat="45.36501919851253" lon="9.3367466431732"><ele>85.0</ele><time>2026-04-12T06:53:43Z</time></trkpt><trkpt lat="45.36511723993669" lon="9.336713855693882"><ele>85.0</ele><time>2026-04-12T06:53:45Z</time></trkpt><trkpt lat="45.36521748604926" lon="9.336688101430505"><ele>85.0</ele><time>2026-04-12T06:53:47Z</time></trkpt><trkpt lat="45.36531643214002" lon="9.336655242853187"><ele>85.0</ele><time>2026-04-12T06:53:49Z</time></trkpt><trkpt lat="45.36541243412706" lon="9.336621443756126"><ele>85.0</ele><time>2026-04-12T06:53:51Z</time></trkpt><trkpt lat="45.36550778755945" lon="9.33659795084736"><ele>85.0</ele><time>2026-04-12T06:53:53Z</time></trkpt><trkpt lat="45.36559877124286" lon="9.336568691389248"><ele>85.0</ele><time>2026-04-12T06:53:55Z</time></trkpt><trkpt lat="45.36568819595702" lon="9.336546047895979"><ele>85.0</ele><time>2026-04-12T06:53:57Z</time></trkpt><trkpt lat="45.36577912085203" lon="9.336518322128482"><ele>85.0</ele><time>2026-04-12T06:53:59Z</time></trkpt><trkpt lat="45.36587067711321" lon="9.336490772280568"><ele>85.0</ele><time>2026-04-12T06:54:01Z</time></trkpt><trkpt lat="45.3659617375667" lon="9.336462639716988"><ele>85.0</ele><time>2026-04-12T06:54:03.001Z</time></trkpt><trkpt lat="45.366053442163675" lon="9.33643137084326"><ele>85.0</ele><time>2026-04-12T06:54:05.001Z</time></trkpt><trkpt lat="45.36614270058572" lon="9.336395746182601"><ele>85.0</ele><time>2026-04-12T06:54:07.001Z</time></trkpt><trkpt lat="45.36623015454519" lon="9.336371577749699"><ele>85.0</ele><time>2026-04-12T06:54:09.001Z</time></trkpt><trkpt lat="45.36631849849149" lon="9.336354643080993"><ele>85.0</ele><time>2026-04-12T06:54:11.001Z</time></trkpt><trkpt lat="45.366406127078136" lon="9.33633052109065"><ele>85.0</ele><time>2026-04-12T06:54:13.001Z</time></trkpt><trkpt lat="45.36649206615154" lon="9.336305775479385"><ele>85.0</ele><time>2026-04-12T06:54:15.001Z</time></trkpt><trkpt lat="45.36657401319977" lon="9.336282649864353"><ele>85.0</ele><time>2026-04-12T06:54:17.001Z</time></trkpt><trkpt lat="45.36666097651129" lon="9.336269278180119"><ele>85.0</ele><time>2026-04-12T06:54:19.001Z</time></trkpt><trkpt lat="45.36675916018325" lon="9.336239500234822"><ele>85.2</ele><time>2026-04-12T06:54:21.001Z</time></trkpt><trkpt lat="45.3668534609296" lon="9.336210980684408"><ele>85.4</ele><time>2026-04-12T06:54:23.001Z</time></trkpt><trkpt lat="45.366943133388986" lon="9.336193378110806"><ele>85.6</ele><time>2026-04-12T06:54:25.001Z</time></trkpt><trkpt lat="45.36703082530197" lon="9.336164395014498"><ele>85.8</ele><time>2026-04-12T06:54:27.001Z</time></trkpt><trkpt lat="45.36712597148295" lon="9.336136325970196"><ele>86.0</ele><time>2026-04-12T06:54:29.001Z</time></trkpt><trkpt lat="45.36722501379758" lon="9.336107434579247"><ele>85.66666666666667</ele><time>2026-04-12T06:54:31.001Z</time></trkpt><trkpt lat="45.36731873560034" lon="9.336081454596448"><ele>85.33333333333334</ele><time>2026-04-12T06:54:33.001Z</time></trkpt><trkpt lat="45.36740465453949" lon="9.336044243081801"><ele>85.0</ele><time>2026-04-12T06:54:35.001Z</time></trkpt><trkpt lat="45.36746712123536" lon="9.336105172721732"><ele>84.66666666666667</ele><time>2026-04-12T06:54:38.001Z</time></trkpt><trkpt lat="45.367538058540916" lon="9.336123108693206"><ele>84.33333333333333</ele><time>2026-04-12T06:54:42.001Z</time></trkpt><trkpt lat="45.36762329218094" lon="9.33612152313804"><ele>84.0</ele><time>2026-04-12T06:54:44.001Z</time></trkpt><trkpt lat="45.36772962208405" lon="9.336140187870212"><ele>84.0</ele><time>2026-04-12T06:54:46.001Z</time></trkpt><trkpt lat="45.36782888672116" lon="9.336167381681388"><ele>84.0</ele><time>2026-04-12T06:54:48.001Z</time></trkpt><trkpt lat="45.367946091334645" lon="9.336182749728179"><ele>84.0</ele><time>2026-04-12T06:54:50.001Z</time></trkpt><trkpt lat="45.368011089086444" lon="9.336191586421604"><ele>84.0</ele><time>2026-04-12T06:54:51.001Z</time></trkpt><trkpt lat="45.36807615178471" lon="9.33620203521294"><ele>84.0</ele><time>2026-04-12T06:54:52.001Z</time></trkpt><trkpt lat="45.36814105539093" lon="9.336189198326771"><ele>84.0</ele><time>2026-04-12T06:54:53.001Z</time></trkpt><trkpt lat="45.368202239573236" lon="9.336153954410014"><ele>83.83333333333333</ele><time>2026-04-12T06:54:54.001Z</time></trkpt><trkpt lat="45.36825753865697" lon="9.33610250508103"><ele>83.66666666666667</ele><time>2026-04-12T06:54:55.001Z</time></trkpt><trkpt lat="45.36830863734392" lon="9.336042307851283"><ele>83.5</ele><time>2026-04-12T06:54:56.001Z</time></trkpt><trkpt lat="45.36835708188058" lon="9.335983978590189"><ele>83.33333333333334</ele><time>2026-04-12T06:54:57.001Z</time></trkpt><trkpt lat="45.36846287056596" lon="9.335889627538798"><ele>83.16666666666667</ele><time>2026-04-12T06:54:59.001Z</time></trkpt><trkpt lat="45.36852049318523" lon="9.335848083019728"><ele>83.0</ele><time>2026-04-12T06:55:00.001Z</time></trkpt><trkpt lat="45.36857979782061" lon="9.335806133194959"><ele>83.0</ele><time>2026-04-12T06:55:01.001Z</time></trkpt><trkpt lat="45.36863122958905" lon="9.335748562486657"><ele>83.0</ele><time>2026-04-12T06:55:02.001Z</time></trkpt><trkpt lat="45.36868061087554" lon="9.335690427706911"><ele>83.0</ele><time>2026-04-12T06:55:03.001Z</time></trkpt><trkpt lat="45.36878998033181" lon="9.335613731691641"><ele>83.0</ele><time>2026-04-12T06:55:05.001Z</time></trkpt><trkpt lat="45.36889884448508" lon="9.33555103270791"><ele>83.0</ele><time>2026-04-12T06:55:07.001Z</time></trkpt><trkpt lat="45.369006467308026" lon="9.335509492933616"><ele>82.80000000000001</ele><time>2026-04-12T06:55:09.001Z</time></trkpt><trkpt lat="45.369112440183784" lon="9.335435928245303"><ele>82.6</ele><time>2026-04-12T06:55:11.001Z</time></trkpt><trkpt lat="45.369219581200355" lon="9.335355756769426"><ele>82.4</ele><time>2026-04-12T06:55:13.001Z</time></trkpt><trkpt lat="45.369330537940314" lon="9.335284428958463"><ele>82.19999999999999</ele><time>2026-04-12T06:55:15.001Z</time></trkpt><trkpt lat="45.36939380207986" lon="9.335245210245805"><ele>82.0</ele><time>2026-04-12T06:55:16.001Z</time></trkpt><trkpt lat="45.36950626879926" lon="9.335182551240715"><ele>82.0</ele><time>2026-04-12T06:55:18.001Z</time></trkpt><trkpt lat="45.36961293415415" lon="9.33510942752398"><ele>82.0</ele><time>2026-04-12T06:55:20.001Z</time></trkpt><trkpt lat="45.36972991623623" lon="9.335051297548238"><ele>82.0</ele><time>2026-04-12T06:55:22.001Z</time></trkpt><trkpt lat="45.36978954287241" lon="9.335006730790026"><ele>82.0</ele><time>2026-04-12T06:55:23.001Z</time></trkpt><trkpt lat="45.36984661336993" lon="9.334963325820125"><ele>82.0</ele><time>2026-04-12T06:55:24.001Z</time></trkpt><trkpt lat="45.369902447152164" lon="9.334918098277827"><ele>82.0</ele><time>2026-04-12T06:55:25.001Z</time></trkpt><trkpt lat="45.36995545408693" lon="9.334863293593031"><ele>82.14285714285714</ele><time>2026-04-12T06:55:26.001Z</time></trkpt><trkpt lat="45.37000497507244" lon="9.334796889880216"><ele>82.28571428571428</ele><time>2026-04-12T06:55:27.001Z</time></trkpt><trkpt lat="45.37006568379831" lon="9.334750519529168"><ele>82.42857142857142</ele><time>2026-04-12T06:55:28.001Z</time></trkpt><trkpt lat="45.370131685719564" lon="9.334734068728011"><ele>82.57142857142857</ele><time>2026-04-12T06:55:29.001Z</time></trkpt><trkpt lat="45.3701958714829" lon="9.334719784075931"><ele>82.71428571428572</ele><time>2026-04-12T06:55:30.001Z</time></trkpt><trkpt lat="45.37025889355174" lon="9.33470164752938"><ele>82.85714285714285</ele><time>2026-04-12T06:55:31.001Z</time></trkpt><trkpt lat="45.37033094718907" lon="9.334701992327567"><ele>83.0</ele><time>2026-04-12T06:55:32.001Z</time></trkpt><trkpt lat="45.37040263968985" lon="9.334707365083956"><ele>83.0</ele><time>2026-04-12T06:55:33.001Z</time></trkpt><trkpt lat="45.37048533826863" lon="9.334720194101513"><ele>83.0</ele><time>2026-04-12T06:55:34.001Z</time></trkpt><trkpt lat="45.370565341523665" lon="9.334696119709038"><ele>83.0</ele><time>2026-04-12T06:55:35.001Z</time></trkpt><trkpt lat="45.37064332702507" lon="9.334654812505157"><ele>83.0</ele><time>2026-04-12T06:55:36.001Z</time></trkpt><trkpt lat="45.370721070239895" lon="9.334582509543102"><ele>83.0</ele><time>2026-04-12T06:55:37.001Z</time></trkpt><trkpt lat="45.370789443513914" lon="9.334536265069564"><ele>83.0</ele><time>2026-04-12T06:55:38Z</time></trkpt><trkpt lat="45.370849076276365" lon="9.334499972702424"><ele>83.0</ele><time>2026-04-12T06:55:39Z</time></trkpt><trkpt lat="45.3709388913749" lon="9.334405032576644"><ele>83.0</ele><time>2026-04-12T06:55:41Z</time></trkpt><trkpt lat="45.37101639308286" lon="9.33431371536412"><ele>83.0</ele><time>2026-04-12T06:55:43Z</time></trkpt><trkpt lat="45.371089797202636" lon="9.334223402070071"><ele>83.0</ele><time>2026-04-12T06:55:45Z</time></trkpt><trkpt lat="45.37117059057615" lon="9.334143763423333"><ele>83.0</ele><time>2026-04-12T06:55:47Z</time></trkpt><trkpt lat="45.37126095658422" lon="9.334082864837574"><ele>83.60000000000001</ele><time>2026-04-12T06:55:49Z</time></trkpt><trkpt lat="45.371369491448164" lon="9.334055722976137"><ele>84.2</ele><time>2026-04-12T06:55:51Z</time></trkpt><trkpt lat="45.37148315604965" lon="9.334072668351537"><ele>84.8</ele><time>2026-04-12T06:55:53Z</time></trkpt><trkpt lat="45.37159490452334" lon="9.334122366915967"><ele>85.4</ele><time>2026-04-12T06:55:55Z</time></trkpt><trkpt lat="45.37165062785295" lon="9.334169376021622"><ele>86.0</ele><time>2026-04-12T06:55:56Z</time></trkpt><trkpt lat="45.3717525629791" lon="9.334266070590486"><ele>86.0</ele><time>2026-04-12T06:55:58Z</time></trkpt><trkpt lat="45.37185055436538" lon="9.334343467001089"><ele>86.0</ele><time>2026-04-12T06:56:00Z</time></trkpt><trkpt lat="45.37195124001013" lon="9.334421617770264"><ele>86.0</ele><time>2026-04-12T06:56:02Z</time></trkpt><trkpt lat="45.37205605039916" lon="9.334500203324671"><ele>86.0</ele><time>2026-04-12T06:56:04Z</time></trkpt><trkpt lat="45.37215702122855" lon="9.334587108751522"><ele>86.0</ele><time>2026-04-12T06:56:06Z</time></trkpt><trkpt lat="45.37226264903898" lon="9.334661869515326"><ele>86.0</ele><time>2026-04-12T06:56:08Z</time></trkpt><trkpt lat="45.372367971465145" lon="9.334738798741627"><ele>86.0</ele><time>2026-04-12T06:56:10Z</time></trkpt><trkpt lat="45.3724706429996" lon="9.334818743017136"><ele>86.0</ele><time>2026-04-12T06:56:12.001Z</time></trkpt><trkpt lat="45.37257010079176" lon="9.334897595067906"><ele>86.0</ele><time>2026-04-12T06:56:14.001Z</time></trkpt><trkpt lat="45.37266281428538" lon="9.334967343594535"><ele>86.0</ele><time>2026-04-12T06:56:16.001Z</time></trkpt><trkpt lat="45.37275436836331" lon="9.335036886953732"><ele>86.0</ele><time>2026-04-12T06:56:18.001Z</time></trkpt><trkpt lat="45.37284200084863" lon="9.335112478892693"><ele>86.0</ele><time>2026-04-12T06:56:20.001Z</time></trkpt><trkpt lat="45.37293345828684" lon="9.335187236650958"><ele>86.0</ele><time>2026-04-12T06:56:22.001Z</time></trkpt><trkpt lat="45.3730249057307" lon="9.335256260323536"><ele>85.8</ele><time>2026-04-12T06:56:24.001Z</time></trkpt><trkpt lat="45.373113363247256" lon="9.335323080274705"><ele>85.6</ele><time>2026-04-12T06:56:26.001Z</time></trkpt><trkpt lat="45.37320261204644" lon="9.33539871293983"><ele>85.4</ele><time>2026-04-12T06:56:28.001Z</time></trkpt><trkpt lat="45.37328723548144" lon="9.335476650803082"><ele>85.2</ele><time>2026-04-12T06:56:30.001Z</time></trkpt><trkpt lat="45.3733821784729" lon="9.33553289519547"><ele>85.0</ele><time>2026-04-12T06:56:32.001Z</time></trkpt><trkpt lat="45.37348427507501" lon="9.335512192135734"><ele>85.0</ele><time>2026-04-12T06:56:34.001Z</time></trkpt><trkpt lat="45.373573820554164" lon="9.335490963858675"><ele>85.0</ele><time>2026-04-12T06:56:36.001Z</time></trkpt><trkpt lat="45.37366540094388" lon="9.335560554765518"><ele>85.0</ele><time>2026-04-12T06:56:38.001Z</time></trkpt><trkpt lat="45.37375674139671" lon="9.335640475147654"><ele>85.0</ele><time>2026-04-12T06:56:40.001Z</time></trkpt><trkpt lat="45.37384787532454" lon="9.335709264960206"><ele>85.0</ele><time>2026-04-12T06:56:42.001Z</time></trkpt><trkpt lat="45.3739378951879" lon="9.335776809260475"><ele>85.0</ele><time>2026-04-12T06:56:44.001Z</time></trkpt><trkpt lat="45.37402502942021" lon="9.335853373285774"><ele>85.0</ele><time>2026-04-12T06:56:46.001Z</time></trkpt><trkpt lat="45.37411647978543" lon="9.335923834323001"><ele>85.0</ele><time>2026-04-12T06:56:48.001Z</time></trkpt><trkpt lat="45.374217135026974" lon="9.335998546207032"><ele>85.0</ele><time>2026-04-12T06:56:50.001Z</time></trkpt><trkpt lat="45.3743013475742" lon="9.336064521777706"><ele>85.0</ele><time>2026-04-12T06:56:52.001Z</time></trkpt><trkpt lat="45.374394250352566" lon="9.336133364841633"><ele>85.0</ele><time>2026-04-12T06:56:54.001Z</time></trkpt><trkpt lat="45.37448834534773" lon="9.33621121798299"><ele>85.0</ele><time>2026-04-12T06:56:56.001Z</time></trkpt><trkpt lat="45.37458036449983" lon="9.336283082617129"><ele>85.0</ele><time>2026-04-12T06:56:58.001Z</time></trkpt><trkpt lat="45.3746699623369" lon="9.336346456730544"><ele>85.0</ele><time>2026-04-12T06:57:00.001Z</time></trkpt><trkpt lat="45.37475635282698" lon="9.336415271076216"><ele>85.0</ele><time>2026-04-12T06:57:02.001Z</time></trkpt><trkpt lat="45.37484077367263" lon="9.33648840079947"><ele>85.2</ele><time>2026-04-12T06:57:04.001Z</time></trkpt><trkpt lat="45.374932204138524" lon="9.336558072047994"><ele>85.4</ele><time>2026-04-12T06:57:06.001Z</time></trkpt><trkpt lat="45.375026933573395" lon="9.336629310751002"><ele>85.6</ele><time>2026-04-12T06:57:08.001Z</time></trkpt><trkpt lat="45.375119327196515" lon="9.336698805407508"><ele>85.8</ele><time>2026-04-12T06:57:10.001Z</time></trkpt><trkpt lat="45.375211084242345" lon="9.336777609428099"><ele>86.0</ele><time>2026-04-12T06:57:12.001Z</time></trkpt><trkpt lat="45.375293943061166" lon="9.33685275177361"><ele>86.0</ele><time>2026-04-12T06:57:14.001Z</time></trkpt><trkpt lat="45.37539548794961" lon="9.336920207003702"><ele>86.0</ele><time>2026-04-12T06:57:16.001Z</time></trkpt><trkpt lat="45.3754925626492" lon="9.336989328888954"><ele>86.0</ele><time>2026-04-12T06:57:18.001Z</time></trkpt><trkpt lat="45.375588191894465" lon="9.337065763175897"><ele>86.0</ele><time>2026-04-12T06:57:20.001Z</time></trkpt><trkpt lat="45.37568106536291" lon="9.337139527129406"><ele>86.0</ele><time>2026-04-12T06:57:22.001Z</time></trkpt><trkpt lat="45.37577280687255" lon="9.337209733693527"><ele>85.8</ele><time>2026-04-12T06:57:24.001Z</time></trkpt><trkpt lat="45.37586540005634" lon="9.337278797214045"><ele>85.6</ele><time>2026-04-12T06:57:26.001Z</time></trkpt><trkpt lat="45.37596135975387" lon="9.337342875205664"><ele>85.4</ele><time>2026-04-12T06:57:28.001Z</time></trkpt><trkpt lat="45.376055411879435" lon="9.337406851150154"><ele>85.2</ele><time>2026-04-12T06:57:30.001Z</time></trkpt><trkpt lat="45.37614717340966" lon="9.337482201820638"><ele>85.0</ele><time>2026-04-12T06:57:32.001Z</time></trkpt><trkpt lat="45.3762433171222" lon="9.337542934225244"><ele>85.0</ele><time>2026-04-12T06:57:34.001Z</time></trkpt><trkpt lat="45.37633696457833" lon="9.337610903584688"><ele>85.0</ele><time>2026-04-12T06:57:36.001Z</time></trkpt><trkpt lat="45.37643140419423" lon="9.337677811446518"><ele>85.0</ele><time>2026-04-12T06:57:38.001Z</time></trkpt><trkpt lat="45.37652289582255" lon="9.337744603347282"><ele>85.0</ele><time>2026-04-12T06:57:40.001Z</time></trkpt><trkpt lat="45.37661440538383" lon="9.337814363938383"><ele>85.0</ele><time>2026-04-12T06:57:42.001Z</time></trkpt><trkpt lat="45.37670541011408" lon="9.337884939658593"><ele>84.8</ele><time>2026-04-12T06:57:44Z</time></trkpt><trkpt lat="45.37679531503836" lon="9.337955706208376"><ele>84.6</ele><time>2026-04-12T06:57:46Z</time></trkpt><trkpt lat="45.376889192328214" lon="9.338020026454519"><ele>84.4</ele><time>2026-04-12T06:57:48Z</time></trkpt><trkpt lat="45.37697832324414" lon="9.33809115786438"><ele>84.2</ele><time>2026-04-12T06:57:50Z</time></trkpt><trkpt lat="45.37707308085612" lon="9.33816058114593"><ele>84.0</ele><time>2026-04-12T06:57:52Z</time></trkpt><trkpt lat="45.37716310054151" lon="9.338233252983436"><ele>84.4</ele><time>2026-04-12T06:57:54Z</time></trkpt><trkpt lat="45.37725302405356" lon="9.338295836370165"><ele>84.80000000000001</ele><time>2026-04-12T06:57:56Z</time></trkpt><trkpt lat="45.37733528023296" lon="9.33836412919562"><ele>85.19999999999999</ele><time>2026-04-12T06:57:58Z</time></trkpt><trkpt lat="45.377413081709065" lon="9.338420012604995"><ele>85.6</ele><time>2026-04-12T06:58:00Z</time></trkpt><trkpt lat="45.377491467934554" lon="9.338470392497065"><ele>86.0</ele><time>2026-04-12T06:58:02Z</time></trkpt><trkpt lat="45.37756730830321" lon="9.338535568022793"><ele>86.0</ele><time>2026-04-12T06:58:04Z</time></trkpt><trkpt lat="45.37764272673716" lon="9.338594607921333"><ele>86.0</ele><time>2026-04-12T06:58:06Z</time></trkpt><trkpt lat="45.37772372493251" lon="9.338660615860721"><ele>86.0</ele><time>2026-04-12T06:58:08Z</time></trkpt><trkpt lat="45.377811924486394" lon="9.338727891817955"><ele>86.0</ele><time>2026-04-12T06:58:10Z</time></trkpt><trkpt lat="45.37790056322322" lon="9.338788107895075"><ele>86.0</ele><time>2026-04-12T06:58:12Z</time></trkpt><trkpt lat="45.37798471538415" lon="9.33885565074058"><ele>86.5</ele><time>2026-04-12T06:58:14Z</time></trkpt><trkpt lat="45.378065076375826" lon="9.338915616547704"><ele>87.0</ele><time>2026-04-12T06:58:16Z</time></trkpt><trkpt lat="45.378143206834004" lon="9.338975784883111"><ele>87.5</ele><time>2026-04-12T06:58:18Z</time></trkpt><trkpt lat="45.37821815811617" lon="9.339028149715231"><ele>88.0</ele><time>2026-04-12T06:58:20Z</time></trkpt><trkpt lat="45.37829906784067" lon="9.339051593581182"><ele>88.5</ele><time>2026-04-12T06:58:22Z</time></trkpt><trkpt lat="45.378376760942956" lon="9.338994839615221"><ele>89.0</ele><time>2026-04-12T06:58:24.001Z</time></trkpt><trkpt lat="45.37845452148008" lon="9.33892362833078"><ele>89.2</ele><time>2026-04-12T06:58:26.001Z</time></trkpt><trkpt lat="45.37854137127918" lon="9.338858308570838"><ele>89.4</ele><time>2026-04-12T06:58:28.001Z</time></trkpt><trkpt lat="45.37862284125712" lon="9.338794164223524"><ele>89.6</ele><time>2026-04-12T06:58:30.001Z</time></trkpt><trkpt lat="45.37870304814205" lon="9.338726950057906"><ele>89.8</ele><time>2026-04-12T06:58:32.001Z</time></trkpt><trkpt lat="45.37878481566363" lon="9.338661750472694"><ele>90.0</ele><time>2026-04-12T06:58:34.001Z</time></trkpt><trkpt lat="45.378871265856546" lon="9.338593210313283"><ele>90.16666666666667</ele><time>2026-04-12T06:58:36.001Z</time></trkpt><trkpt lat="45.3789586407405" lon="9.338549363051627"><ele>90.33333333333333</ele><time>2026-04-12T06:58:38.001Z</time></trkpt><trkpt lat="45.379048358601366" lon="9.338539241800664"><ele>90.5</ele><time>2026-04-12T06:58:40.001Z</time></trkpt><trkpt lat="45.379119961438654" lon="9.338510802286905"><ele>90.66666666666666</ele><time>2026-04-12T06:58:42.001Z</time></trkpt><trkpt lat="45.379186654866075" lon="9.338488878495944"><ele>90.83333333333333</ele><time>2026-04-12T06:58:46.001Z</time></trkpt><trkpt lat="45.37923741679262" lon="9.338385198710473"><ele>91.0</ele><time>2026-04-12T06:58:49.001Z</time></trkpt><trkpt lat="45.379213768525375" lon="9.338255078877292"><ele>91.0</ele><time>2026-04-12T06:58:51.001Z</time></trkpt><trkpt lat="45.37918676642186" lon="9.33813594093845"><ele>91.0</ele><time>2026-04-12T06:58:53.001Z</time></trkpt><trkpt lat="45.37917073367516" lon="9.338016405258225"><ele>91.0</ele><time>2026-04-12T06:58:55.001Z</time></trkpt><trkpt lat="45.37914335600098" lon="9.337894659311734"><ele>91.0</ele><time>2026-04-12T06:58:57.001Z</time></trkpt><trkpt lat="45.37911836294349" lon="9.337779191962586"><ele>91.0</ele><time>2026-04-12T06:58:59.001Z</time></trkpt><trkpt lat="45.37909301095177" lon="9.337652288712711"><ele>91.0</ele><time>2026-04-12T06:59:01.001Z</time></trkpt><trkpt lat="45.379075108774146" lon="9.337528598974188"><ele>91.6</ele><time>2026-04-12T06:59:03.001Z</time></trkpt><trkpt lat="45.37905528457726" lon="9.33738951323394"><ele>92.19999999999999</ele><time>2026-04-12T06:59:05.001Z</time></trkpt><trkpt lat="45.37902138405877" lon="9.337250051479693"><ele>92.80000000000001</ele><time>2026-04-12T06:59:07.001Z</time></trkpt><trkpt lat="45.3790044920908" lon="9.337094499476184"><ele>93.4</ele><time>2026-04-12T06:59:09.001Z</time></trkpt><trkpt lat="45.37897205738592" lon="9.336940178487497"><ele>94.0</ele><time>2026-04-12T06:59:11.001Z</time></trkpt><trkpt lat="45.37895020018514" lon="9.33678952853037"><ele>94.0</ele><time>2026-04-12T06:59:13.001Z</time></trkpt><trkpt lat="45.37892870256571" lon="9.33663394211888"><ele>94.0</ele><time>2026-04-12T06:59:15.001Z</time></trkpt><trkpt lat="45.37894539713719" lon="9.336477213816254"><ele>94.0</ele><time>2026-04-12T06:59:17.001Z</time></trkpt><trkpt lat="45.37903873742814" lon="9.336406814884242"><ele>94.0</ele><time>2026-04-12T06:59:19.001Z</time></trkpt><trkpt lat="45.3791314764436" lon="9.336360008476154"><ele>94.0</ele><time>2026-04-12T06:59:21.001Z</time></trkpt><trkpt lat="45.37921556121738" lon="9.336336144496201"><ele>93.6</ele><time>2026-04-12T06:59:23.001Z</time></trkpt><trkpt lat="45.379293604103104" lon="9.336304848758203"><ele>93.2</ele><time>2026-04-12T06:59:25.001Z</time></trkpt><trkpt lat="45.37939090164768" lon="9.33627688166137"><ele>92.8</ele><time>2026-04-12T06:59:27.001Z</time></trkpt><trkpt lat="45.37947734757009" lon="9.336254097617802"><ele>92.39999999999999</ele><time>2026-04-12T06:59:29.001Z</time></trkpt><trkpt lat="45.379563644084946" lon="9.33624706771247"><ele>92.0</ele><time>2026-04-12T06:59:31.001Z</time></trkpt><trkpt lat="45.37966807127779" lon="9.336258738846945"><ele>92.0</ele><time>2026-04-12T06:59:33.001Z</time></trkpt><trkpt lat="45.37975830592693" lon="9.336252005889971"><ele>92.0</ele><time>2026-04-12T06:59:35.001Z</time></trkpt><trkpt lat="45.37984599272904" lon="9.336239859815704"><ele>92.0</ele><time>2026-04-12T06:59:37.001Z</time></trkpt><trkpt lat="45.379936467943665" lon="9.336216540293423"><ele>92.0</ele><time>2026-04-12T06:59:39.001Z</time></trkpt><trkpt lat="45.38001745121587" lon="9.336182514106852"><ele>92.0</ele><time>2026-04-12T06:59:41.001Z</time></trkpt><trkpt lat="45.38010479057743" lon="9.336156566646563"><ele>92.0</ele><time>2026-04-12T06:59:43.001Z</time></trkpt><trkpt lat="45.38020129310266" lon="9.336160322216205"><ele>92.0</ele><time>2026-04-12T06:59:45.001Z</time></trkpt><trkpt lat="45.38028505279712" lon="9.336118583465982"><ele>92.0</ele><time>2026-04-12T06:59:47.001Z</time></trkpt><trkpt lat="45.3803722455749" lon="9.336066451148392"><ele>92.0</ele><time>2026-04-12T06:59:49.001Z</time></trkpt><trkpt lat="45.38046278942237" lon="9.336016057174891"><ele>92.0</ele><time>2026-04-12T06:59:51Z</time></trkpt><trkpt lat="45.3805498396674" lon="9.33595720986112"><ele>92.0</ele><time>2026-04-12T06:59:53Z</time></trkpt><trkpt lat="45.380641167649955" lon="9.335902227643823"><ele>91.8</ele><time>2026-04-12T06:59:55Z</time></trkpt><trkpt lat="45.38072950122922" lon="9.335854057149307"><ele>91.6</ele><time>2026-04-12T06:59:57Z</time></trkpt><trkpt lat="45.38081848713551" lon="9.335814021508975"><ele>91.39999999999999</ele><time>2026-04-12T06:59:59Z</time></trkpt><trkpt lat="45.38090927032062" lon="9.3357688391771"><ele>91.19999999999999</ele><time>2026-04-12T07:00:01Z</time></trkpt><trkpt lat="45.38100031254673" lon="9.33572099087601"><ele>91.0</ele><time>2026-04-12T07:00:03Z</time></trkpt><trkpt lat="45.38108807841652" lon="9.335656853615253"><ele>91.0</ele><time>2026-04-12T07:00:05Z</time></trkpt><trkpt lat="45.38117658734194" lon="9.335590758035284"><ele>91.0</ele><time>2026-04-12T07:00:07Z</time></trkpt><trkpt lat="45.38126775038088" lon="9.335541077032039"><ele>91.0</ele><time>2026-04-12T07:00:09Z</time></trkpt><trkpt lat="45.381351930679514" lon="9.335499653387567"><ele>91.0</ele><time>2026-04-12T07:00:11Z</time></trkpt><trkpt lat="45.381428393914646" lon="9.33547862302381"><ele>91.0</ele><time>2026-04-12T07:00:13Z</time></trkpt><trkpt lat="45.381493257849435" lon="9.335486486574618"><ele>91.0</ele><time>2026-04-12T07:00:15Z</time></trkpt><trkpt lat="45.38157304653175" lon="9.335514839415806"><ele>91.19999999999999</ele><time>2026-04-12T07:00:17Z</time></trkpt><trkpt lat="45.38165419433859" lon="9.335525409346612"><ele>91.39999999999999</ele><time>2026-04-12T07:00:19Z</time></trkpt><trkpt lat="45.38173994691691" lon="9.335547317559028"><ele>91.6</ele><time>2026-04-12T07:00:21Z</time></trkpt><trkpt lat="45.38183597124184" lon="9.335571117583127"><ele>91.8</ele><time>2026-04-12T07:00:23Z</time></trkpt><trkpt lat="45.38193061744801" lon="9.335609050970435"><ele>92.0</ele><time>2026-04-12T07:00:25Z</time></trkpt><trkpt lat="45.38202428285538" lon="9.335647812103492"><ele>92.0</ele><time>2026-04-12T07:00:27Z</time></trkpt><trkpt lat="45.38211590583345" lon="9.335687874309363"><ele>92.0</ele><time>2026-04-12T07:00:29.001Z</time></trkpt><trkpt lat="45.38220608124654" lon="9.335738993510473"><ele>92.0</ele><time>2026-04-12T07:00:31.001Z</time></trkpt><trkpt lat="45.38229341722485" lon="9.335784850973585"><ele>92.0</ele><time>2026-04-12T07:00:33.001Z</time></trkpt><trkpt lat="45.38238074748011" lon="9.335838379325173"><ele>92.0</ele><time>2026-04-12T07:00:35.001Z</time></trkpt><trkpt lat="45.38246869588287" lon="9.335890517001218"><ele>92.0</ele><time>2026-04-12T07:00:37.001Z</time></trkpt><trkpt lat="45.38255495212664" lon="9.335939760713027"><ele>92.0</ele><time>2026-04-12T07:00:39.001Z</time></trkpt><trkpt lat="45.382639023504865" lon="9.336000810134479"><ele>92.0</ele><time>2026-04-12T07:00:41.001Z</time></trkpt><trkpt lat="45.38272145964271" lon="9.336054355460503"><ele>92.0</ele><time>2026-04-12T07:00:43.001Z</time></trkpt><trkpt lat="45.382802144082" lon="9.336073667999257"><ele>92.0</ele><time>2026-04-12T07:00:45.001Z</time></trkpt><trkpt lat="45.38289303992088" lon="9.336069406120693"><ele>92.0</ele><time>2026-04-12T07:00:48.001Z</time></trkpt><trkpt lat="45.38296457940739" lon="9.336109920732625"><ele>92.0</ele><time>2026-04-12T07:00:50.001Z</time></trkpt><trkpt lat="45.3830487848531" lon="9.336148242213048"><ele>92.0</ele><time>2026-04-12T07:00:52.001Z</time></trkpt><trkpt lat="45.38311698877551" lon="9.336172677983269"><ele>92.0</ele><time>2026-04-12T07:00:54.001Z</time></trkpt><trkpt lat="45.38321057893166" lon="9.33616571337664"><ele>92.0</ele><time>2026-04-12T07:00:57.001Z</time></trkpt><trkpt lat="45.38330105276388" lon="9.336128224962444"><ele>92.0</ele><time>2026-04-12T07:00:59.001Z</time></trkpt><trkpt lat="45.38338321322784" lon="9.336104766712078"><ele>92.0</ele><time>2026-04-12T07:01:01.001Z</time></trkpt><trkpt lat="45.383458513305726" lon="9.336084133834065"><ele>92.0</ele><time>2026-04-12T07:01:03.001Z</time></trkpt><trkpt lat="45.38353559399417" lon="9.33605926918813"><ele>92.0</ele><time>2026-04-12T07:01:05.001Z</time></trkpt><trkpt lat="45.38361499235736" lon="9.336036479977635"><ele>92.0</ele><time>2026-04-12T07:01:07.001Z</time></trkpt><trkpt lat="45.383704145655734" lon="9.336025994188477"><ele>92.0</ele><time>2026-04-12T07:01:09.001Z</time></trkpt><trkpt lat="45.38379344419931" lon="9.336002358399226"><ele>92.0</ele><time>2026-04-12T07:01:11.001Z</time></trkpt><trkpt lat="45.38388891754674" lon="9.335943239646625"><ele>92.19999999999999</ele><time>2026-04-12T07:01:13.001Z</time></trkpt><trkpt lat="45.38398264802929" lon="9.335874762029741"><ele>92.4</ele><time>2026-04-12T07:01:15.001Z</time></trkpt><trkpt lat="45.384076237071724" lon="9.33582095871908"><ele>92.6</ele><time>2026-04-12T07:01:17.001Z</time></trkpt><trkpt lat="45.38415748045874" lon="9.33575666392588"><ele>92.80000000000001</ele><time>2026-04-12T07:01:19.001Z</time></trkpt><trkpt lat="45.38424120937348" lon="9.335698166534279"><ele>93.0</ele><time>2026-04-12T07:01:21.001Z</time></trkpt><trkpt lat="45.38432831214268" lon="9.335641531696638"><ele>93.0</ele><time>2026-04-12T07:01:23.001Z</time></trkpt><trkpt lat="45.38441208978743" lon="9.335580731245916"><ele>93.0</ele><time>2026-04-12T07:01:25.001Z</time></trkpt><trkpt lat="45.384496903484255" lon="9.3355237535801"><ele>93.0</ele><time>2026-04-12T07:01:27.001Z</time></trkpt><trkpt lat="45.384580576862255" lon="9.335466908672094"><ele>93.0</ele><time>2026-04-12T07:01:29.001Z</time></trkpt><trkpt lat="45.38466531321244" lon="9.335410074338261"><ele>93.0</ele><time>2026-04-12T07:01:31.001Z</time></trkpt><trkpt lat="45.38475337538478" lon="9.335346622609627"><ele>92.80000000000001</ele><time>2026-04-12T07:01:33.001Z</time></trkpt><trkpt lat="45.38483975404166" lon="9.335288480469213"><ele>92.6</ele><time>2026-04-12T07:01:35.001Z</time></trkpt><trkpt lat="45.384925260544335" lon="9.335228028555504"><ele>92.4</ele><time>2026-04-12T07:01:37.001Z</time></trkpt><trkpt lat="45.38501225845495" lon="9.33517031553859"><ele>92.19999999999999</ele><time>2026-04-12T07:01:39.001Z</time></trkpt><trkpt lat="45.38509796682951" lon="9.335108123472933"><ele>92.0</ele><time>2026-04-12T07:01:41.001Z</time></trkpt><trkpt lat="45.38518450853102" lon="9.33504970714325"><ele>92.0</ele><time>2026-04-12T07:01:43.001Z</time></trkpt><trkpt lat="45.38527129828968" lon="9.33499307499983"><ele>92.0</ele><time>2026-04-12T07:01:45.001Z</time></trkpt><trkpt lat="45.38535268933551" lon="9.334939058390937"><ele>92.0</ele><time>2026-04-12T07:01:47.001Z</time></trkpt><trkpt lat="45.38543001002327" lon="9.334881741697268"><ele>92.0</ele><time>2026-04-12T07:01:49.001Z</time></trkpt><trkpt lat="45.38550837642672" lon="9.33483902020466"><ele>92.0</ele><time>2026-04-12T07:01:51.001Z</time></trkpt><trkpt lat="45.38558737394238" lon="9.334818785300328"><ele>92.0</ele><time>2026-04-12T07:01:53.001Z</time></trkpt><trkpt lat="45.385657944968465" lon="9.33481879014947"><ele>91.83333333333334</ele><time>2026-04-12T07:01:55.001Z</time></trkpt><trkpt lat="45.38573395309719" lon="9.334795103075438"><ele>91.66666666666667</ele><time>2026-04-12T07:01:57Z</time></trkpt><trkpt lat="45.38579942162273" lon="9.334770530340197"><ele>91.5</ele><time>2026-04-12T07:02:01Z</time></trkpt><trkpt lat="45.38587670635296" lon="9.334780595633049"><ele>91.33333333333333</ele><time>2026-04-12T07:02:10Z</time></trkpt><trkpt lat="45.38596180443869" lon="9.33475406344085"><ele>91.16666666666666</ele><time>2026-04-12T07:02:12Z</time></trkpt><trkpt lat="45.3860638041382" lon="9.334734682946303"><ele>91.0</ele><time>2026-04-12T07:02:14Z</time></trkpt><trkpt lat="45.386158310429856" lon="9.334709219755837"><ele>91.0</ele><time>2026-04-12T07:02:16Z</time></trkpt><trkpt lat="45.38624795225635" lon="9.334688961135777"><ele>91.0</ele><time>2026-04-12T07:02:18Z</time></trkpt><trkpt lat="45.38632703849713" lon="9.334660053153089"><ele>91.0</ele><time>2026-04-12T07:02:20Z</time></trkpt><trkpt lat="45.38641784092011" lon="9.334642796380903"><ele>91.0</ele><time>2026-04-12T07:02:22Z</time></trkpt><trkpt lat="45.3865151081582" lon="9.334616664463823"><ele>91.0</ele><time>2026-04-12T07:02:24Z</time></trkpt><trkpt lat="45.38661602119878" lon="9.334592541930677"><ele>91.19999999999999</ele><time>2026-04-12T07:02:26Z</time></trkpt><trkpt lat="45.38671447417109" lon="9.334571795978885"><ele>91.39999999999999</ele><time>2026-04-12T07:02:28Z</time></trkpt><trkpt lat="45.38681770221259" lon="9.334563506882105"><ele>91.6</ele><time>2026-04-12T07:02:30Z</time></trkpt><trkpt lat="45.386917654138834" lon="9.334543889932457"><ele>91.8</ele><time>2026-04-12T07:02:32Z</time></trkpt><trkpt lat="45.38702038277414" lon="9.334526812038897"><ele>92.0</ele><time>2026-04-12T07:02:34Z</time></trkpt><trkpt lat="45.38711960993741" lon="9.334508786658882"><ele>92.0</ele><time>2026-04-12T07:02:36Z</time></trkpt><trkpt lat="45.38721410654775" lon="9.33449500071977"><ele>92.0</ele><time>2026-04-12T07:02:38Z</time></trkpt><trkpt lat="45.38731219296362" lon="9.334466979164477"><ele>92.0</ele><time>2026-04-12T07:02:40.001Z</time></trkpt><trkpt lat="45.38739508251038" lon="9.334439198095236"><ele>92.0</ele><time>2026-04-12T07:02:42.001Z</time></trkpt><trkpt lat="45.38748016558081" lon="9.334419465625206"><ele>92.0</ele><time>2026-04-12T07:02:44.001Z</time></trkpt><trkpt lat="45.387559208215734" lon="9.334406502262143"><ele>92.0</ele><time>2026-04-12T07:02:46.001Z</time></trkpt><trkpt lat="45.387630822038034" lon="9.33438570175335"><ele>92.0</ele><time>2026-04-12T07:02:51.001Z</time></trkpt><trkpt lat="45.38767412806602" lon="9.334487266487729"><ele>92.0</ele><time>2026-04-12T07:03:25.001Z</time></trkpt><trkpt lat="45.38775855505328" lon="9.334500905589152"><ele>92.0</ele><time>2026-04-12T07:03:27.001Z</time></trkpt><trkpt lat="45.387852874824596" lon="9.33457553005352"><ele>92.0</ele><time>2026-04-12T07:03:29.001Z</time></trkpt><trkpt lat="45.38794066659034" lon="9.33467137413917"><ele>92.0</ele><time>2026-04-12T07:03:31.001Z</time></trkpt><trkpt lat="45.38802952105326" lon="9.334783328897352"><ele>92.19999999999999</ele><time>2026-04-12T07:03:33.001Z</time></trkpt><trkpt lat="45.3881252438236" lon="9.334852303398177"><ele>92.4</ele><time>2026-04-12T07:03:35.001Z</time></trkpt><trkpt lat="45.388239558910804" lon="9.334856313036495"><ele>92.6</ele><time>2026-04-12T07:03:37.001Z</time></trkpt><trkpt lat="45.388347344675196" lon="9.334824115963897"><ele>92.80000000000001</ele><time>2026-04-12T07:03:39.001Z</time></trkpt><trkpt lat="45.388444565182134" lon="9.334794941982182"><ele>93.0</ele><time>2026-04-12T07:03:41.001Z</time></trkpt><trkpt lat="45.388540763220966" lon="9.334779417710708"><ele>93.0</ele><time>2026-04-12T07:03:43.001Z</time></trkpt><trkpt lat="45.388627567898546" lon="9.334749343363212"><ele>93.0</ele><time>2026-04-12T07:03:45.001Z</time></trkpt><trkpt lat="45.38871138473052" lon="9.334725245283646"><ele>93.0</ele><time>2026-04-12T07:03:47.001Z</time></trkpt><trkpt lat="45.38879095139156" lon="9.334706625239715"><ele>93.0</ele><time>2026-04-12T07:03:49.001Z</time></trkpt><trkpt lat="45.388873563282786" lon="9.334683240954657"><ele>93.0</ele><time>2026-04-12T07:03:51.001Z</time></trkpt><trkpt lat="45.38895853252516" lon="9.334663051487189"><ele>93.0</ele><time>2026-04-12T07:03:53.001Z</time></trkpt><trkpt lat="45.38904421759846" lon="9.334644301141346"><ele>92.83333333333333</ele><time>2026-04-12T07:03:55.001Z</time></trkpt><trkpt lat="45.389132260863036" lon="9.334616932662431"><ele>92.66666666666667</ele><time>2026-04-12T07:03:57.001Z</time></trkpt><trkpt lat="45.389216481046844" lon="9.334603038630613"><ele>92.5</ele><time>2026-04-12T07:03:59.001Z</time></trkpt><trkpt lat="45.38930506199085" lon="9.334576068749419"><ele>92.33333333333334</ele><time>2026-04-12T07:04:01.001Z</time></trkpt><trkpt lat="45.38939321608516" lon="9.334553968659213"><ele>92.16666666666667</ele><time>2026-04-12T07:04:03Z</time></trkpt><trkpt lat="45.389480958022865" lon="9.334526025444204"><ele>92.0</ele><time>2026-04-12T07:04:05Z</time></trkpt><trkpt lat="45.389568409712695" lon="9.334509125386548"><ele>92.0</ele><time>2026-04-12T07:04:07Z</time></trkpt><trkpt lat="45.389657213145114" lon="9.334495408580048"><ele>92.0</ele><time>2026-04-12T07:04:09Z</time></trkpt><trkpt lat="45.38974584803222" lon="9.33446570954675"><ele>92.0</ele><time>2026-04-12T07:04:11Z</time></trkpt><trkpt lat="45.389833069327054" lon="9.33444516257484"><ele>92.0</ele><time>2026-04-12T07:04:13Z</time></trkpt><trkpt lat="45.38991798081446" lon="9.33442214818832"><ele>92.0</ele><time>2026-04-12T07:04:15Z</time></trkpt><trkpt lat="45.39000516983078" lon="9.334399464304605"><ele>92.0</ele><time>2026-04-12T07:04:17Z</time></trkpt><trkpt lat="45.390091821093336" lon="9.334378802038605"><ele>92.16666666666667</ele><time>2026-04-12T07:04:19Z</time></trkpt><trkpt lat="45.39018148143248" lon="9.334345098969365"><ele>92.33333333333334</ele><time>2026-04-12T07:04:21Z</time></trkpt><trkpt lat="45.39026358333963" lon="9.33432721371731"><ele>92.5</ele><time>2026-04-12T07:04:23Z</time></trkpt><trkpt lat="45.39035011456766" lon="9.334302027206059"><ele>92.66666666666667</ele><time>2026-04-12T07:04:25Z</time></trkpt><trkpt lat="45.39043619712864" lon="9.334283444278997"><ele>92.83333333333333</ele><time>2026-04-12T07:04:27Z</time></trkpt><trkpt lat="45.390523448449244" lon="9.334265552960067"><ele>93.0</ele><time>2026-04-12T07:04:29Z</time></trkpt><trkpt lat="45.39060880026553" lon="9.334236588694706"><ele>93.16666666666667</ele><time>2026-04-12T07:04:31Z</time></trkpt><trkpt lat="45.39069458551224" lon="9.334215844214711"><ele>93.33333333333333</ele><time>2026-04-12T07:04:33Z</time></trkpt><trkpt lat="45.39077959582436" lon="9.334197183550646"><ele>93.5</ele><time>2026-04-12T07:04:35Z</time></trkpt><trkpt lat="45.390867782672736" lon="9.334168679553036"><ele>93.66666666666666</ele><time>2026-04-12T07:04:37Z</time></trkpt><trkpt lat="45.39095584044246" lon="9.3341507939229"><ele>93.83333333333333</ele><time>2026-04-12T07:04:39Z</time></trkpt><trkpt lat="45.391041979823626" lon="9.334124613378593"><ele>94.0</ele><time>2026-04-12T07:04:41Z</time></trkpt><trkpt lat="45.39112936863188" lon="9.334104654453641"><ele>94.0</ele><time>2026-04-12T07:04:43Z</time></trkpt><trkpt lat="45.39121821263195" lon="9.33408103624404"><ele>94.0</ele><time>2026-04-12T07:04:45Z</time></trkpt><trkpt lat="45.39130783461814" lon="9.334060313388148"><ele>94.0</ele><time>2026-04-12T07:04:47Z</time></trkpt><trkpt lat="45.391393497599836" lon="9.334033514592152"><ele>94.0</ele><time>2026-04-12T07:04:49Z</time></trkpt><trkpt lat="45.39148707104226" lon="9.33400792731824"><ele>94.0</ele><time>2026-04-12T07:04:51Z</time></trkpt><trkpt lat="45.39157712087878" lon="9.333977308716637"><ele>94.0</ele><time>2026-04-12T07:04:53Z</time></trkpt><trkpt lat="45.39167002483646" lon="9.333958286608395"><ele>94.0</ele><time>2026-04-12T07:04:55Z</time></trkpt><trkpt lat="45.39176116362414" lon="9.33393560812871"><ele>94.0</ele><time>2026-04-12T07:04:57Z</time></trkpt><trkpt lat="45.391841908855326" lon="9.333912220108369"><ele>94.0</ele><time>2026-04-12T07:04:59Z</time></trkpt><trkpt lat="45.3919297827043" lon="9.3338900608105"><ele>94.0</ele><time>2026-04-12T07:05:01Z</time></trkpt><trkpt lat="45.39202326583233" lon="9.333864045271644"><ele>94.0</ele><time>2026-04-12T07:05:03Z</time></trkpt><trkpt lat="45.39211738608954" lon="9.333827934048633"><ele>94.0</ele><time>2026-04-12T07:05:05Z</time></trkpt><trkpt lat="45.39220894855061" lon="9.333801903251809"><ele>94.0</ele><time>2026-04-12T07:05:07Z</time></trkpt><trkpt lat="45.39230103571555" lon="9.333779990234646"><ele>94.0</ele><time>2026-04-12T07:05:09Z</time></trkpt><trkpt lat="45.392389534797275" lon="9.333753892643884"><ele>94.0</ele><time>2026-04-12T07:05:11Z</time></trkpt><trkpt lat="45.39248087063516" lon="9.333728417236225"><ele>94.0</ele><time>2026-04-12T07:05:13Z</time></trkpt><trkpt lat="45.39257701121369" lon="9.333705202093523"><ele>94.0</ele><time>2026-04-12T07:05:15Z</time></trkpt><trkpt lat="45.39267021003184" lon="9.333684077669421"><ele>94.0</ele><time>2026-04-12T07:05:17Z</time></trkpt><trkpt lat="45.392760706486335" lon="9.333656784011723"><ele>94.0</ele><time>2026-04-12T07:05:19Z</time></trkpt><trkpt lat="45.39285253802822" lon="9.333635243276754"><ele>94.0</ele><time>2026-04-12T07:05:21Z</time></trkpt><trkpt lat="45.392943482902" lon="9.333609464412598"><ele>94.0</ele><time>2026-04-12T07:05:23Z</time></trkpt><trkpt lat="45.39303493194837" lon="9.333587267697531"><ele>94.0</ele><time>2026-04-12T07:05:25Z</time></trkpt><trkpt lat="45.39312845713616" lon="9.3335601835877"><ele>94.0</ele><time>2026-04-12T07:05:27Z</time></trkpt><trkpt lat="45.393218609606386" lon="9.333527236619368"><ele>94.0</ele><time>2026-04-12T07:05:29Z</time></trkpt><trkpt lat="45.39330867515549" lon="9.333502218123874"><ele>94.0</ele><time>2026-04-12T07:05:31Z</time></trkpt><trkpt lat="45.39340089261161" lon="9.333482870839529"><ele>94.0</ele><time>2026-04-12T07:05:33Z</time></trkpt><trkpt lat="45.39348952076529" lon="9.333452227360299"><ele>94.0</ele><time>2026-04-12T07:05:35Z</time></trkpt><trkpt lat="45.393583535815196" lon="9.333424911812275"><ele>94.0</ele><time>2026-04-12T07:05:37Z</time></trkpt><trkpt lat="45.393673414199306" lon="9.333399094078347"><ele>94.0</ele><time>2026-04-12T07:05:39Z</time></trkpt><trkpt lat="45.39376991570114" lon="9.333380248719015"><ele>94.0</ele><time>2026-04-12T07:05:41Z</time></trkpt><trkpt lat="45.393861855517" lon="9.333355365191125"><ele>94.2</ele><time>2026-04-12T07:05:43Z</time></trkpt><trkpt lat="45.39395675243465" lon="9.33332971797691"><ele>94.4</ele><time>2026-04-12T07:05:45Z</time></trkpt><trkpt lat="45.39405461632567" lon="9.333304380307634"><ele>94.6</ele><time>2026-04-12T07:05:47Z</time></trkpt><trkpt lat="45.394155155743746" lon="9.333274581777891"><ele>94.8</ele><time>2026-04-12T07:05:49Z</time></trkpt><trkpt lat="45.394253839161244" lon="9.333243295190028"><ele>95.0</ele><time>2026-04-12T07:05:51Z</time></trkpt><trkpt lat="45.39435253675875" lon="9.333215253411312"><ele>95.0</ele><time>2026-04-12T07:05:53Z</time></trkpt><trkpt lat="45.39444966984094" lon="9.33318550921792"><ele>95.0</ele><time>2026-04-12T07:05:55Z</time></trkpt><trkpt lat="45.39454072358919" lon="9.33315335164501"><ele>95.0</ele><time>2026-04-12T07:05:57Z</time></trkpt><trkpt lat="45.394627670474605" lon="9.333121690360967"><ele>95.0</ele><time>2026-04-12T07:05:59Z</time></trkpt><trkpt lat="45.39471625000616" lon="9.333075799574912"><ele>95.0</ele><time>2026-04-12T07:06:01Z</time></trkpt><trkpt lat="45.394804321204354" lon="9.333026535562515"><ele>95.0</ele><time>2026-04-12T07:06:03Z</time></trkpt><trkpt lat="45.39489362708121" lon="9.33297429997388"><ele>95.0</ele><time>2026-04-12T07:06:05Z</time></trkpt><trkpt lat="45.39498700535369" lon="9.332923758019604"><ele>95.0</ele><time>2026-04-12T07:06:07Z</time></trkpt><trkpt lat="45.39508255714209" lon="9.332880881513727"><ele>95.0</ele><time>2026-04-12T07:06:09Z</time></trkpt><trkpt lat="45.395175683249605" lon="9.332824815388653"><ele>95.0</ele><time>2026-04-12T07:06:11Z</time></trkpt><trkpt lat="45.39527083160653" lon="9.332787671140167"><ele>95.0</ele><time>2026-04-12T07:06:13Z</time></trkpt><trkpt lat="45.39537301045451" lon="9.332747039548646"><ele>95.0</ele><time>2026-04-12T07:06:15Z</time></trkpt><trkpt lat="45.395477734007976" lon="9.332717181830668"><ele>95.0</ele><time>2026-04-12T07:06:17Z</time></trkpt><trkpt lat="45.39558105686968" lon="9.332687429537527"><ele>95.0</ele><time>2026-04-12T07:06:19Z</time></trkpt><trkpt lat="45.39568084521053" lon="9.332658975146344"><ele>95.0</ele><time>2026-04-12T07:06:21Z</time></trkpt><trkpt lat="45.39578134973536" lon="9.332646131062742"><ele>95.2</ele><time>2026-04-12T07:06:23Z</time></trkpt><trkpt lat="45.39588541262402" lon="9.332637755774398"><ele>95.4</ele><time>2026-04-12T07:06:25Z</time></trkpt><trkpt lat="45.39598384859661" lon="9.332617805835877"><ele>95.6</ele><time>2026-04-12T07:06:27Z</time></trkpt><trkpt lat="45.39608149336029" lon="9.332593773358857"><ele>95.8</ele><time>2026-04-12T07:06:29Z</time></trkpt><trkpt lat="45.396173819023645" lon="9.332567383143834"><ele>96.0</ele><time>2026-04-12T07:06:31Z</time></trkpt><trkpt lat="45.396266629099436" lon="9.332525244619662"><ele>95.8</ele><time>2026-04-12T07:06:33Z</time></trkpt><trkpt lat="45.39636234869364" lon="9.332498642710119"><ele>95.6</ele><time>2026-04-12T07:06:35Z</time></trkpt><trkpt lat="45.396457830775304" lon="9.332445361473573"><ele>95.4</ele><time>2026-04-12T07:06:37Z</time></trkpt><trkpt lat="45.39655397639654" lon="9.332382859064168"><ele>95.2</ele><time>2026-04-12T07:06:39Z</time></trkpt><trkpt lat="45.396651334196676" lon="9.332327391268795"><ele>95.0</ele><time>2026-04-12T07:06:41Z</time></trkpt><trkpt lat="45.39674653448352" lon="9.33226946870183"><ele>94.8</ele><time>2026-04-12T07:06:43Z</time></trkpt><trkpt lat="45.39683896341332" lon="9.332205774208662"><ele>94.6</ele><time>2026-04-12T07:06:45Z</time></trkpt><trkpt lat="45.396916288255746" lon="9.33212472598417"><ele>94.4</ele><time>2026-04-12T07:06:47Z</time></trkpt><trkpt lat="45.3970018554917" lon="9.332072309842902"><ele>94.2</ele><time>2026-04-12T07:06:49Z</time></trkpt><trkpt lat="45.397066620119276" lon="9.331981330728844"><ele>94.0</ele><time>2026-04-12T07:06:51Z</time></trkpt><trkpt lat="45.39709572662369" lon="9.331839982154895"><ele>94.0</ele><time>2026-04-12T07:06:53Z</time></trkpt><trkpt lat="45.39716642491795" lon="9.331740649962638"><ele>94.0</ele><time>2026-04-12T07:06:55Z</time></trkpt><trkpt lat="45.39724877126333" lon="9.33166456978748"><ele>94.0</ele><time>2026-04-12T07:06:57Z</time></trkpt><trkpt lat="45.397333307448605" lon="9.331585841578596"><ele>94.0</ele><time>2026-04-12T07:06:59.001Z</time></trkpt><trkpt lat="45.39742461019968" lon="9.33151637404243"><ele>94.0</ele><time>2026-04-12T07:07:01.001Z</time></trkpt><trkpt lat="45.3975072145191" lon="9.331434917450371"><ele>94.0</ele><time>2026-04-12T07:07:03.001Z</time></trkpt><trkpt lat="45.39759155265815" lon="9.331352310487084"><ele>94.0</ele><time>2026-04-12T07:07:05.001Z</time></trkpt><trkpt lat="45.39767002288335" lon="9.331266088650002"><ele>94.0</ele><time>2026-04-12T07:07:07.001Z</time></trkpt><trkpt lat="45.397745201763954" lon="9.331179691209238"><ele>94.0</ele><time>2026-04-12T07:07:09.001Z</time></trkpt><trkpt lat="45.397812736881285" lon="9.33108918985701"><ele>94.0</ele><time>2026-04-12T07:07:11.001Z</time></trkpt><trkpt lat="45.397882898915405" lon="9.33098424641597"><ele>94.0</ele><time>2026-04-12T07:07:13.001Z</time></trkpt><trkpt lat="45.39794149163307" lon="9.330873997224614"><ele>94.0</ele><time>2026-04-12T07:07:15.001Z</time></trkpt><trkpt lat="45.398003067608855" lon="9.330763175165707"><ele>94.0</ele><time>2026-04-12T07:07:17.001Z</time></trkpt><trkpt lat="45.398056009174795" lon="9.330649264943068"><ele>94.0</ele><time>2026-04-12T07:07:19.001Z</time></trkpt><trkpt lat="45.39811564400378" lon="9.330536971670766"><ele>94.0</ele><time>2026-04-12T07:07:21.001Z</time></trkpt><trkpt lat="45.398168366350795" lon="9.330420094194494"><ele>94.2</ele><time>2026-04-12T07:07:23.001Z</time></trkpt><trkpt lat="45.398227747922476" lon="9.330310816610385"><ele>94.4</ele><time>2026-04-12T07:07:25.001Z</time></trkpt><trkpt lat="45.39828390478584" lon="9.330192327693336"><ele>94.6</ele><time>2026-04-12T07:07:27.001Z</time></trkpt><trkpt lat="45.39834476245972" lon="9.330073670621292"><ele>94.8</ele><time>2026-04-12T07:07:29.001Z</time></trkpt><trkpt lat="45.398404399148816" lon="9.329951315049039"><ele>95.0</ele><time>2026-04-12T07:07:31.001Z</time></trkpt><trkpt lat="45.398469848918694" lon="9.329833048549805"><ele>94.8</ele><time>2026-04-12T07:07:33.001Z</time></trkpt><trkpt lat="45.39853137291797" lon="9.32970410552304"><ele>94.6</ele><time>2026-04-12T07:07:35.001Z</time></trkpt><trkpt lat="45.39859455444917" lon="9.329583364821652"><ele>94.4</ele><time>2026-04-12T07:07:37.001Z</time></trkpt><trkpt lat="45.39866201375649" lon="9.329459145653436"><ele>94.2</ele><time>2026-04-12T07:07:39.001Z</time></trkpt><trkpt lat="45.398732243557596" lon="9.329340158963635"><ele>94.0</ele><time>2026-04-12T07:07:41.001Z</time></trkpt><trkpt lat="45.39880747519533" lon="9.32922377421749"><ele>94.0</ele><time>2026-04-12T07:07:43.001Z</time></trkpt><trkpt lat="45.39887784585222" lon="9.32910300459504"><ele>94.0</ele><time>2026-04-12T07:07:45.001Z</time></trkpt><trkpt lat="45.39895077184568" lon="9.328984839259542"><ele>94.0</ele><time>2026-04-12T07:07:47.001Z</time></trkpt><trkpt lat="45.39902471172459" lon="9.328871388257388"><ele>94.0</ele><time>2026-04-12T07:07:49.001Z</time></trkpt><trkpt lat="45.39909567235559" lon="9.328755017251952"><ele>94.0</ele><time>2026-04-12T07:07:51.001Z</time></trkpt><trkpt lat="45.399170325766306" lon="9.32863231372037"><ele>94.0</ele><time>2026-04-12T07:07:53.001Z</time></trkpt><trkpt lat="45.399242148301035" lon="9.328509532450848"><ele>94.0</ele><time>2026-04-12T07:07:55.001Z</time></trkpt><trkpt lat="45.39931815135025" lon="9.328384436748783"><ele>94.0</ele><time>2026-04-12T07:07:57.001Z</time></trkpt><trkpt lat="45.39939438780953" lon="9.32826117468338"><ele>94.0</ele><time>2026-04-12T07:07:59.001Z</time></trkpt><trkpt lat="45.399468300979784" lon="9.32813586216949"><ele>94.25</ele><time>2026-04-12T07:08:01.001Z</time></trkpt><trkpt lat="45.39954707767089" lon="9.328017213023793"><ele>94.5</ele><time>2026-04-12T07:08:03.001Z</time></trkpt><trkpt lat="45.39962095177567" lon="9.32789129340917"><ele>94.75</ele><time>2026-04-12T07:08:05.001Z</time></trkpt><trkpt lat="45.39969747036463" lon="9.327774679813446"><ele>95.0</ele><time>2026-04-12T07:08:07.001Z</time></trkpt><trkpt lat="45.399765928780496" lon="9.327656172218058"><ele>95.0</ele><time>2026-04-12T07:08:09.001Z</time></trkpt><trkpt lat="45.399819231776476" lon="9.327506739370442"><ele>95.0</ele><time>2026-04-12T07:08:11.001Z</time></trkpt><trkpt lat="45.39985617899537" lon="9.327353178836846"><ele>95.0</ele><time>2026-04-12T07:08:13.001Z</time></trkpt><trkpt lat="45.3998974566949" lon="9.327195300381732"><ele>95.0</ele><time>2026-04-12T07:08:15Z</time></trkpt><trkpt lat="45.39993644481739" lon="9.327039860992342"><ele>94.5</ele><time>2026-04-12T07:08:17Z</time></trkpt><trkpt lat="45.39996944873949" lon="9.326880896099329"><ele>94.0</ele><time>2026-04-12T07:08:19Z</time></trkpt><trkpt lat="45.39998913139917" lon="9.326714713493867"><ele>93.5</ele><time>2026-04-12T07:08:21Z</time></trkpt><trkpt lat="45.400001014581825" lon="9.326551518349621"><ele>93.0</ele><time>2026-04-12T07:08:23Z</time></trkpt><trkpt lat="45.400008639813606" lon="9.326389569376953"><ele>93.0</ele><time>2026-04-12T07:08:25Z</time></trkpt><trkpt lat="45.40001384841447" lon="9.326227132609242"><ele>93.0</ele><time>2026-04-12T07:08:27Z</time></trkpt><trkpt lat="45.40001753644585" lon="9.326058342800025"><ele>93.0</ele><time>2026-04-12T07:08:29Z</time></trkpt><trkpt lat="45.400025261041726" lon="9.325901218958782"><ele>93.0</ele><time>2026-04-12T07:08:31Z</time></trkpt><trkpt lat="45.40002931521397" lon="9.325737948618276"><ele>93.0</ele><time>2026-04-12T07:08:33Z</time></trkpt><trkpt lat="45.400032224136545" lon="9.325572540204293"><ele>93.0</ele><time>2026-04-12T07:08:35Z</time></trkpt><trkpt lat="45.40004657978738" lon="9.325405300182181"><ele>93.0</ele><time>2026-04-12T07:08:37Z</time></trkpt><trkpt lat="45.400072834467316" lon="9.325244966735497"><ele>93.0</ele><time>2026-04-12T07:08:39Z</time></trkpt><trkpt lat="45.40010130165825" lon="9.325086310956607"><ele>93.0</ele><time>2026-04-12T07:08:41Z</time></trkpt><trkpt lat="45.40013371870787" lon="9.324930106262649"><ele>93.0</ele><time>2026-04-12T07:08:43Z</time></trkpt><trkpt lat="45.40016973984075" lon="9.324773472979135"><ele>93.0</ele><time>2026-04-12T07:08:45Z</time></trkpt><trkpt lat="45.40021477723367" lon="9.324626193161041"><ele>93.0</ele><time>2026-04-12T07:08:47Z</time></trkpt><trkpt lat="45.40026348409258" lon="9.324477023794822"><ele>92.80000000000001</ele><time>2026-04-12T07:08:49Z</time></trkpt><trkpt lat="45.400324581329244" lon="9.324349570598446"><ele>92.6</ele><time>2026-04-12T07:08:51Z</time></trkpt><trkpt lat="45.400386417135344" lon="9.324215899340556"><ele>92.4</ele><time>2026-04-12T07:08:53Z</time></trkpt><trkpt lat="45.40044142603267" lon="9.324095319689482"><ele>92.19999999999999</ele><time>2026-04-12T07:08:55.001Z</time></trkpt><trkpt lat="45.400486723248946" lon="9.323978354395091"><ele>92.0</ele><time>2026-04-12T07:08:57.001Z</time></trkpt><trkpt lat="45.40049880959594" lon="9.323840098328093"><ele>92.39999999999999</ele><time>2026-04-12T07:08:59.001Z</time></trkpt><trkpt lat="45.40046931044841" lon="9.323695959713996"><ele>92.8</ele><time>2026-04-12T07:09:01.001Z</time></trkpt><trkpt lat="45.40043835963049" lon="9.323555947503642"><ele>93.2</ele><time>2026-04-12T07:09:03.001Z</time></trkpt><trkpt lat="45.40041078308203" lon="9.323405189232899"><ele>93.6</ele><time>2026-04-12T07:09:05.001Z</time></trkpt><trkpt lat="45.400456724940696" lon="9.323266718983302"><ele>94.0</ele><time>2026-04-12T07:09:07.001Z</time></trkpt><trkpt lat="45.400546685748054" lon="9.323196614606914"><ele>94.16666666666666</ele><time>2026-04-12T07:09:09.001Z</time></trkpt><trkpt lat="45.40062401593284" lon="9.323147711220837"><ele>94.33333333333333</ele><time>2026-04-12T07:09:11.001Z</time></trkpt><trkpt lat="45.400698291811835" lon="9.32310106635934"><ele>94.5</ele><time>2026-04-12T07:09:13.001Z</time></trkpt><trkpt lat="45.400780130115294" lon="9.323075691433063"><ele>94.66666666666667</ele><time>2026-04-12T07:09:16.001Z</time></trkpt><trkpt lat="45.40083904466993" lon="9.323002418316909"><ele>94.83333333333334</ele><time>2026-04-12T07:09:19.001Z</time></trkpt><trkpt lat="45.4008387542089" lon="9.32290670505362"><ele>95.0</ele><time>2026-04-12T07:09:21.001Z</time></trkpt><trkpt lat="45.400814345219544" lon="9.32282276740558"><ele>95.0</ele><time>2026-04-12T07:09:23.001Z</time></trkpt><trkpt lat="45.400790652407466" lon="9.322727499349208"><ele>95.0</ele><time>2026-04-12T07:09:25.001Z</time></trkpt><trkpt lat="45.40077704831912" lon="9.322626900657655"><ele>95.0</ele><time>2026-04-12T07:09:27.001Z</time></trkpt><trkpt lat="45.40076083875707" lon="9.32252632450497"><ele>95.0</ele><time>2026-04-12T07:09:29.001Z</time></trkpt><trkpt lat="45.40074628201522" lon="9.322417012302013"><ele>95.0</ele><time>2026-04-12T07:09:31.001Z</time></trkpt><trkpt lat="45.40073641251073" lon="9.32231249456451"><ele>95.0</ele><time>2026-04-12T07:09:33.001Z</time></trkpt><trkpt lat="45.40074398453658" lon="9.322209740461728"><ele>95.0</ele><time>2026-04-12T07:09:35.001Z</time></trkpt><trkpt lat="45.4007375808073" lon="9.322116775282256"><ele>94.2</ele><time>2026-04-12T07:09:37.001Z</time></trkpt><trkpt lat="45.40071306845314" lon="9.321998804283878"><ele>93.4</ele><time>2026-04-12T07:09:39.001Z</time></trkpt><trkpt lat="45.40070541574157" lon="9.321867552594817"><ele>92.6</ele><time>2026-04-12T07:09:41.001Z</time></trkpt><trkpt lat="45.4007824315739" lon="9.321762988962808"><ele>91.8</ele><time>2026-04-12T07:09:43.001Z</time></trkpt><trkpt lat="45.40087591421463" lon="9.321693446156543"><ele>91.0</ele><time>2026-04-12T07:09:45.001Z</time></trkpt><trkpt lat="45.40096226858086" lon="9.321623571586189"><ele>91.0</ele><time>2026-04-12T07:09:47.001Z</time></trkpt><trkpt lat="45.401052084990326" lon="9.321552322710701"><ele>91.0</ele><time>2026-04-12T07:09:49.001Z</time></trkpt><trkpt lat="45.40114931666256" lon="9.32148723033116"><ele>91.0</ele><time>2026-04-12T07:09:51.001Z</time></trkpt><trkpt lat="45.40124935932043" lon="9.321417991746184"><ele>91.0</ele><time>2026-04-12T07:09:53.001Z</time></trkpt><trkpt lat="45.40134958028732" lon="9.321366133899867"><ele>91.0</ele><time>2026-04-12T07:09:55.001Z</time></trkpt><trkpt lat="45.401445523691386" lon="9.321312030787004"><ele>90.6</ele><time>2026-04-12T07:09:57.001Z</time></trkpt><trkpt lat="45.401543249866315" lon="9.321257827195685"><ele>90.19999999999999</ele><time>2026-04-12T07:09:59.001Z</time></trkpt><trkpt lat="45.401639951698655" lon="9.321207027158119"><ele>89.80000000000001</ele><time>2026-04-12T07:10:01.001Z</time></trkpt><trkpt lat="45.40174333069664" lon="9.321156435050023"><ele>89.4</ele><time>2026-04-12T07:10:03.001Z</time></trkpt><trkpt lat="45.401848528845996" lon="9.32112071860555"><ele>89.0</ele><time>2026-04-12T07:10:05.001Z</time></trkpt><trkpt lat="45.40196083800119" lon="9.321055762616593"><ele>89.0</ele><time>2026-04-12T07:10:07.001Z</time></trkpt><trkpt lat="45.40207076678996" lon="9.321004081563519"><ele>89.0</ele><time>2026-04-12T07:10:09.001Z</time></trkpt><trkpt lat="45.40218177122098" lon="9.320940851167734"><ele>89.0</ele><time>2026-04-12T07:10:11.001Z</time></trkpt><trkpt lat="45.402302580109826" lon="9.320886127719783"><ele>89.0</ele><time>2026-04-12T07:10:13.001Z</time></trkpt><trkpt lat="45.40236310292646" lon="9.320861407567522"><ele>89.0</ele><time>2026-04-12T07:10:14.001Z</time></trkpt><trkpt lat="45.40248402139127" lon="9.320804787879442"><ele>89.75</ele><time>2026-04-12T07:10:16.001Z</time></trkpt><trkpt lat="45.40259675619746" lon="9.32075002608832"><ele>90.5</ele><time>2026-04-12T07:10:18.001Z</time></trkpt><trkpt lat="45.40270749360613" lon="9.320700756711863"><ele>91.25</ele><time>2026-04-12T07:10:20Z</time></trkpt><trkpt lat="45.402812819764144" lon="9.320645509022139"><ele>92.0</ele><time>2026-04-12T07:10:22Z</time></trkpt><trkpt lat="45.40291695554464" lon="9.320598265006396"><ele>92.0</ele><time>2026-04-12T07:10:24Z</time></trkpt><trkpt lat="45.4030163934648" lon="9.320550569303197"><ele>92.0</ele><time>2026-04-12T07:10:26Z</time></trkpt><trkpt lat="45.40311362715265" lon="9.320500676838757"><ele>92.0</ele><time>2026-04-12T07:10:28Z</time></trkpt><trkpt lat="45.40320522142803" lon="9.320455046714184"><ele>92.0</ele><time>2026-04-12T07:10:30Z</time></trkpt><trkpt lat="45.403307247406254" lon="9.320410375643135"><ele>92.0</ele><time>2026-04-12T07:10:32Z</time></trkpt><trkpt lat="45.403405114069514" lon="9.32036136320252"><ele>92.0</ele><time>2026-04-12T07:10:34Z</time></trkpt><trkpt lat="45.40350977088534" lon="9.320320219118383"><ele>92.0</ele><time>2026-04-12T07:10:36Z</time></trkpt><trkpt lat="45.40361103497207" lon="9.320268812821208"><ele>92.0</ele><time>2026-04-12T07:10:38Z</time></trkpt><trkpt lat="45.4037154024675" lon="9.320219157687088"><ele>92.0</ele><time>2026-04-12T07:10:40Z</time></trkpt><trkpt lat="45.403818792201854" lon="9.320170419447686"><ele>92.0</ele><time>2026-04-12T07:10:42Z</time></trkpt><trkpt lat="45.40392064342252" lon="9.320123106959318"><ele>92.19999999999999</ele><time>2026-04-12T07:10:44Z</time></trkpt><trkpt lat="45.40401804693083" lon="9.320075291707056"><ele>92.4</ele><time>2026-04-12T07:10:46Z</time></trkpt><trkpt lat="45.40411531494045" lon="9.320028272538082"><ele>92.6</ele><time>2026-04-12T07:10:48Z</time></trkpt><trkpt lat="45.404213035710406" lon="9.319985011975428"><ele>92.80000000000001</ele><time>2026-04-12T07:10:50Z</time></trkpt><trkpt lat="45.404306866212416" lon="9.319933348060264"><ele>93.0</ele><time>2026-04-12T07:10:52Z</time></trkpt><trkpt lat="45.40440249532388" lon="9.319891222419058"><ele>93.0</ele><time>2026-04-12T07:10:54Z</time></trkpt><trkpt lat="45.40449697876941" lon="9.319847535427183"><ele>93.0</ele><time>2026-04-12T07:10:56Z</time></trkpt><trkpt lat="45.404589465471965" lon="9.319800655445205"><ele>93.0</ele><time>2026-04-12T07:10:58Z</time></trkpt><trkpt lat="45.404680186637265" lon="9.319755115118793"><ele>93.0</ele><time>2026-04-12T07:11:00Z</time></trkpt><trkpt lat="45.40477127587096" lon="9.319714199546741"><ele>93.0</ele><time>2026-04-12T07:11:02Z</time></trkpt><trkpt lat="45.404858866150285" lon="9.319675244213126"><ele>93.16666666666667</ele><time>2026-04-12T07:11:04Z</time></trkpt><trkpt lat="45.40492220799989" lon="9.319640214985572"><ele>93.33333333333333</ele><time>2026-04-12T07:11:06Z</time></trkpt><trkpt lat="45.40498871501515" lon="9.31960917491634"><ele>93.5</ele><time>2026-04-12T07:11:10Z</time></trkpt><trkpt lat="45.40501749479079" lon="9.31952323753948"><ele>93.66666666666666</ele><time>2026-04-12T07:11:24.001Z</time></trkpt><trkpt lat="45.405019757813726" lon="9.319389756781542"><ele>93.83333333333333</ele><time>2026-04-12T07:11:27.001Z</time></trkpt><trkpt lat="45.40510055703845" lon="9.319345988413028"><ele>94.0</ele><time>2026-04-12T07:11:29.001Z</time></trkpt><trkpt lat="45.405193329770725" lon="9.319308787078258"><ele>94.0</ele><time>2026-04-12T07:11:31.001Z</time></trkpt><trkpt lat="45.4052754639748" lon="9.319265336095537"><ele>94.0</ele><time>2026-04-12T07:11:33.001Z</time></trkpt><trkpt lat="45.40535817862924" lon="9.31922926011667"><ele>94.0</ele><time>2026-04-12T07:11:35.001Z</time></trkpt><trkpt lat="45.40544541531317" lon="9.319189051905912"><ele>94.0</ele><time>2026-04-12T07:11:37.001Z</time></trkpt><trkpt lat="45.405536295265144" lon="9.319146890089977"><ele>94.0</ele><time>2026-04-12T07:11:39.001Z</time></trkpt><trkpt lat="45.40562510279184" lon="9.319100423959293"><ele>93.80000000000001</ele><time>2026-04-12T07:11:41.001Z</time></trkpt><trkpt lat="45.40571747704408" lon="9.319057995188393"><ele>93.60000000000001</ele><time>2026-04-12T07:11:43.001Z</time></trkpt><trkpt lat="45.40581071025793" lon="9.319013027997741"><ele>93.4</ele><time>2026-04-12T07:11:45.001Z</time></trkpt><trkpt lat="45.40590476199991" lon="9.318959571426689"><ele>93.2</ele><time>2026-04-12T07:11:47.001Z</time></trkpt><trkpt lat="45.405999281210754" lon="9.31889869096595"><ele>93.0</ele><time>2026-04-12T07:11:49.001Z</time></trkpt><trkpt lat="45.40609836132143" lon="9.318843672464855"><ele>93.0</ele><time>2026-04-12T07:11:51.001Z</time></trkpt><trkpt lat="45.40619653901854" lon="9.318776807542193"><ele>93.0</ele><time>2026-04-12T07:11:53.001Z</time></trkpt><trkpt lat="45.406300129617215" lon="9.318716010297539"><ele>93.0</ele><time>2026-04-12T07:11:55.001Z</time></trkpt><trkpt lat="45.406400573354105" lon="9.318645327625804"><ele>93.0</ele><time>2026-04-12T07:11:57.001Z</time></trkpt><trkpt lat="45.40650361557911" lon="9.31857500968165"><ele>93.0</ele><time>2026-04-12T07:11:59.001Z</time></trkpt><trkpt lat="45.40660424295013" lon="9.318499643824634"><ele>93.0</ele><time>2026-04-12T07:12:01.001Z</time></trkpt><trkpt lat="45.40670433108827" lon="9.318431343400311"><ele>93.0</ele><time>2026-04-12T07:12:03.001Z</time></trkpt><trkpt lat="45.406801372298034" lon="9.318367833611882"><ele>93.0</ele><time>2026-04-12T07:12:05.001Z</time></trkpt><trkpt lat="45.40689558955415" lon="9.31829965843737"><ele>93.0</ele><time>2026-04-12T07:12:07.001Z</time></trkpt><trkpt lat="45.40699309557653" lon="9.31823383271214"><ele>93.0</ele><time>2026-04-12T07:12:09.001Z</time></trkpt><trkpt lat="45.40709045788555" lon="9.318165726958634"><ele>93.2</ele><time>2026-04-12T07:12:11.001Z</time></trkpt><trkpt lat="45.40718709187184" lon="9.318100847543645"><ele>93.4</ele><time>2026-04-12T07:12:13.001Z</time></trkpt><trkpt lat="45.40728123080066" lon="9.31803315215186"><ele>93.60000000000001</ele><time>2026-04-12T07:12:15.001Z</time></trkpt><trkpt lat="45.40737698667864" lon="9.31796798045601"><ele>93.80000000000001</ele><time>2026-04-12T07:12:17.001Z</time></trkpt><trkpt lat="45.40747297006061" lon="9.31790221839442"><ele>94.0</ele><time>2026-04-12T07:12:19.001Z</time></trkpt><trkpt lat="45.40756621396111" lon="9.317833826391746"><ele>94.0</ele><time>2026-04-12T07:12:21.001Z</time></trkpt><trkpt lat="45.40765787035424" lon="9.317764051433983"><ele>94.0</ele><time>2026-04-12T07:12:23.001Z</time></trkpt><trkpt lat="45.407748193492445" lon="9.317689002812006"><ele>94.0</ele><time>2026-04-12T07:12:25Z</time></trkpt><trkpt lat="45.40783742758098" lon="9.317615856786572"><ele>94.0</ele><time>2026-04-12T07:12:27Z</time></trkpt><trkpt lat="45.407929645853734" lon="9.317546729052538"><ele>94.0</ele><time>2026-04-12T07:12:29Z</time></trkpt><trkpt lat="45.40801533289772" lon="9.317492000460689"><ele>94.0</ele><time>2026-04-12T07:12:31Z</time></trkpt><trkpt lat="45.408104820611015" lon="9.31743000534271"><ele>94.0</ele><time>2026-04-12T07:12:33Z</time></trkpt><trkpt lat="45.408195710346035" lon="9.31735291560257"><ele>94.0</ele><time>2026-04-12T07:12:35Z</time></trkpt><trkpt lat="45.40830431926235" lon="9.317271878388928"><ele>94.0</ele><time>2026-04-12T07:12:37Z</time></trkpt><trkpt lat="45.40840297921118" lon="9.317190905921189"><ele>94.0</ele><time>2026-04-12T07:12:39Z</time></trkpt><trkpt lat="45.408497668339365" lon="9.317116162488338"><ele>93.80000000000001</ele><time>2026-04-12T07:12:41Z</time></trkpt><trkpt lat="45.40858859227893" lon="9.317037096807208"><ele>93.60000000000001</ele><time>2026-04-12T07:12:43Z</time></trkpt><trkpt lat="45.40867978390362" lon="9.316962948942063"><ele>93.4</ele><time>2026-04-12T07:12:45Z</time></trkpt><trkpt lat="45.40877452758214" lon="9.316887291420135"><ele>93.2</ele><time>2026-04-12T07:12:47Z</time></trkpt><trkpt lat="45.408867896039155" lon="9.316818664331285"><ele>93.0</ele><time>2026-04-12T07:12:49Z</time></trkpt><trkpt lat="45.40895221658455" lon="9.316752221413736"><ele>93.0</ele><time>2026-04-12T07:12:51Z</time></trkpt><trkpt lat="45.409039223608794" lon="9.316682024403047"><ele>93.0</ele><time>2026-04-12T07:12:53Z</time></trkpt><trkpt lat="45.40912910839024" lon="9.316613248439175"><ele>93.0</ele><time>2026-04-12T07:12:55Z</time></trkpt><trkpt lat="45.409223625168295" lon="9.316533259989292"><ele>93.0</ele><time>2026-04-12T07:12:57Z</time></trkpt><trkpt lat="45.40932149321952" lon="9.316464988245032"><ele>93.0</ele><time>2026-04-12T07:12:59Z</time></trkpt><trkpt lat="45.40941810972247" lon="9.31639493132776"><ele>93.2</ele><time>2026-04-12T07:13:01Z</time></trkpt><trkpt lat="45.409512382722674" lon="9.316327305286993"><ele>93.4</ele><time>2026-04-12T07:13:03Z</time></trkpt><trkpt lat="45.40960601010093" lon="9.3162601068394"><ele>93.60000000000001</ele><time>2026-04-12T07:13:05Z</time></trkpt><trkpt lat="45.409695807507255" lon="9.31618209896805"><ele>93.80000000000001</ele><time>2026-04-12T07:13:07Z</time></trkpt><trkpt lat="45.40979119216283" lon="9.316115696951833"><ele>94.0</ele><time>2026-04-12T07:13:09Z</time></trkpt><trkpt lat="45.40988463456532" lon="9.316050052610265"><ele>93.6</ele><time>2026-04-12T07:13:11Z</time></trkpt><trkpt lat="45.40997809688963" lon="9.31598748698655"><ele>93.2</ele><time>2026-04-12T07:13:13Z</time></trkpt><trkpt lat="45.41006988058347" lon="9.31592673009442"><ele>92.8</ele><time>2026-04-12T07:13:15Z</time></trkpt><trkpt lat="45.41016154551531" lon="9.315874077667454"><ele>92.39999999999999</ele><time>2026-04-12T07:13:17Z</time></trkpt><trkpt lat="45.410251336166084" lon="9.315818965988157"><ele>92.0</ele><time>2026-04-12T07:13:19.001Z</time></trkpt><trkpt lat="45.41034009628306" lon="9.315766314534564"><ele>92.0</ele><time>2026-04-12T07:13:21.001Z</time></trkpt><trkpt lat="45.41042765638883" lon="9.315718539131163"><ele>92.0</ele><time>2026-04-12T07:13:23.001Z</time></trkpt><trkpt lat="45.410514579249494" lon="9.315660566715238"><ele>92.0</ele><time>2026-04-12T07:13:25.001Z</time></trkpt><trkpt lat="45.41060236938506" lon="9.3156075519779"><ele>92.0</ele><time>2026-04-12T07:13:27.001Z</time></trkpt><trkpt lat="45.41068929452879" lon="9.315551056312742"><ele>92.0</ele><time>2026-04-12T07:13:29.001Z</time></trkpt><trkpt lat="45.410774568271776" lon="9.315500979834482"><ele>92.19999999999999</ele><time>2026-04-12T07:13:31.001Z</time></trkpt><trkpt lat="45.41086260833427" lon="9.315450335708265"><ele>92.4</ele><time>2026-04-12T07:13:33.001Z</time></trkpt><trkpt lat="45.410952461918306" lon="9.315404428008486"><ele>92.6</ele><time>2026-04-12T07:13:35.001Z</time></trkpt><trkpt lat="45.411042445644384" lon="9.315350454662996"><ele>92.80000000000001</ele><time>2026-04-12T07:13:37.001Z</time></trkpt><trkpt lat="45.41112453561739" lon="9.315310157597757"><ele>93.0</ele><time>2026-04-12T07:13:39.001Z</time></trkpt><trkpt lat="45.4112300434493" lon="9.315287004912724"><ele>93.2</ele><time>2026-04-12T07:13:41.001Z</time></trkpt><trkpt lat="45.41133346738659" lon="9.31527076880077"><ele>93.4</ele><time>2026-04-12T07:13:43.001Z</time></trkpt><trkpt lat="45.41143302488324" lon="9.315255588248293"><ele>93.60000000000001</ele><time>2026-04-12T07:13:45.001Z</time></trkpt><trkpt lat="45.41153297663283" lon="9.315240179944148"><ele>93.80000000000001</ele><time>2026-04-12T07:13:47.001Z</time></trkpt><trkpt lat="45.4116314001773" lon="9.315211965380012"><ele>94.0</ele><time>2026-04-12T07:13:49.001Z</time></trkpt><trkpt lat="45.41173105046985" lon="9.31517746251608"><ele>94.0</ele><time>2026-04-12T07:13:51.001Z</time></trkpt><trkpt lat="45.41183183362014" lon="9.31514119637849"><ele>94.0</ele><time>2026-04-12T07:13:53.001Z</time></trkpt><trkpt lat="45.41193202673474" lon="9.315109824869669"><ele>94.0</ele><time>2026-04-12T07:13:55.001Z</time></trkpt><trkpt lat="45.41203580612676" lon="9.315084032472509"><ele>94.0</ele><time>2026-04-12T07:13:57.001Z</time></trkpt><trkpt lat="45.412139297039296" lon="9.315054893101584"><ele>94.0</ele><time>2026-04-12T07:13:59.001Z</time></trkpt><trkpt lat="45.412241529547344" lon="9.315028518839023"><ele>93.80000000000001</ele><time>2026-04-12T07:14:01.001Z</time></trkpt><trkpt lat="45.412342325884" lon="9.31500309523415"><ele>93.60000000000001</ele><time>2026-04-12T07:14:03.001Z</time></trkpt><trkpt lat="45.41244378111937" lon="9.314976729923444"><ele>93.4</ele><time>2026-04-12T07:14:05.001Z</time></trkpt><trkpt lat="45.41254360076566" lon="9.31495529779845"><ele>93.2</ele><time>2026-04-12T07:14:07.001Z</time></trkpt><trkpt lat="45.41264343674013" lon="9.314933723071158"><ele>93.0</ele><time>2026-04-12T07:14:09.001Z</time></trkpt><trkpt lat="45.41274454066926" lon="9.31492620683513"><ele>93.0</ele><time>2026-04-12T07:14:11.001Z</time></trkpt><trkpt lat="45.41284347371241" lon="9.31492207412093"><ele>93.0</ele><time>2026-04-12T07:14:13.001Z</time></trkpt><trkpt lat="45.412942463958025" lon="9.314903420401281"><ele>93.0</ele><time>2026-04-12T07:14:15.001Z</time></trkpt><trkpt lat="45.41303324328084" lon="9.314877442367989"><ele>93.0</ele><time>2026-04-12T07:14:17.001Z</time></trkpt><trkpt lat="45.413113090945316" lon="9.314822332202464"><ele>93.0</ele><time>2026-04-12T07:14:19.001Z</time></trkpt><trkpt lat="45.41319131480551" lon="9.31481726640925"><ele>93.16666666666667</ele><time>2026-04-12T07:14:21.001Z</time></trkpt><trkpt lat="45.41326757804813" lon="9.31480913142651"><ele>93.33333333333333</ele><time>2026-04-12T07:14:23.001Z</time></trkpt><trkpt lat="45.41335541560091" lon="9.314775971251587"><ele>93.5</ele><time>2026-04-12T07:14:25.001Z</time></trkpt><trkpt lat="45.413433417727525" lon="9.314713186170913"><ele>93.66666666666666</ele><time>2026-04-12T07:14:27.001Z</time></trkpt><trkpt lat="45.41351762200767" lon="9.314674916296132"><ele>93.83333333333333</ele><time>2026-04-12T07:14:29.001Z</time></trkpt><trkpt lat="45.413600317165994" lon="9.314643343269251"><ele>94.0</ele><time>2026-04-12T07:14:31Z</time></trkpt><trkpt lat="45.41368689615002" lon="9.314607480270983"><ele>94.0</ele><time>2026-04-12T07:14:33Z</time></trkpt><trkpt lat="45.413775717593815" lon="9.314569789014929"><ele>94.0</ele><time>2026-04-12T07:14:35Z</time></trkpt><trkpt lat="45.41386240131895" lon="9.314532309926193"><ele>94.0</ele><time>2026-04-12T07:14:37Z</time></trkpt><trkpt lat="45.413933386074675" lon="9.314502111425236"><ele>94.0</ele><time>2026-04-12T07:14:39Z</time></trkpt><trkpt lat="45.414012485904614" lon="9.314477388719318"><ele>94.0</ele><time>2026-04-12T07:14:41Z</time></trkpt><trkpt lat="45.41409499807949" lon="9.314440379442482"><ele>94.0</ele><time>2026-04-12T07:14:43Z</time></trkpt><trkpt lat="45.41419368128404" lon="9.314398633168942"><ele>94.4</ele><time>2026-04-12T07:14:45Z</time></trkpt><trkpt lat="45.4142897565014" lon="9.31435799397837"><ele>94.80000000000001</ele><time>2026-04-12T07:14:47Z</time></trkpt><trkpt lat="45.41439536604574" lon="9.314311864621335"><ele>95.19999999999999</ele><time>2026-04-12T07:14:49Z</time></trkpt><trkpt lat="45.41450348350517" lon="9.314255304187492"><ele>95.6</ele><time>2026-04-12T07:14:51Z</time></trkpt><trkpt lat="45.414602910890714" lon="9.314172232906266"><ele>96.0</ele><time>2026-04-12T07:14:53Z</time></trkpt><trkpt lat="45.41470207504171" lon="9.314100197674748"><ele>96.0</ele><time>2026-04-12T07:14:55Z</time></trkpt><trkpt lat="45.41479445252087" lon="9.314047764908235"><ele>96.0</ele><time>2026-04-12T07:14:57Z</time></trkpt><trkpt lat="45.414861908848195" lon="9.313995142530333"><ele>96.0</ele><time>2026-04-12T07:14:59Z</time></trkpt><trkpt lat="45.41493175710255" lon="9.313936369785631"><ele>96.0</ele><time>2026-04-12T07:15:01Z</time></trkpt><trkpt lat="45.415017058114934" lon="9.313868240135971"><ele>96.0</ele><time>2026-04-12T07:15:03Z</time></trkpt><trkpt lat="45.415114409287334" lon="9.313796472326162"><ele>96.0</ele><time>2026-04-12T07:15:05Z</time></trkpt><trkpt lat="45.415209484840545" lon="9.313729670018299"><ele>96.0</ele><time>2026-04-12T07:15:07Z</time></trkpt><trkpt lat="45.41531463406799" lon="9.313657995720908"><ele>96.0</ele><time>2026-04-12T07:15:09Z</time></trkpt><trkpt lat="45.4154113355271" lon="9.313573469989048"><ele>96.0</ele><time>2026-04-12T07:15:11Z</time></trkpt><trkpt lat="45.415512871616656" lon="9.313493464873687"><ele>96.0</ele><time>2026-04-12T07:15:13Z</time></trkpt><trkpt lat="45.41561227460587" lon="9.31341809266925"><ele>96.0</ele><time>2026-04-12T07:15:15Z</time></trkpt><trkpt lat="45.41571017052041" lon="9.313343381787142"><ele>96.0</ele><time>2026-04-12T07:15:17Z</time></trkpt><trkpt lat="45.415801925648985" lon="9.313264317106231"><ele>96.0</ele><time>2026-04-12T07:15:19Z</time></trkpt><trkpt lat="45.41588293935537" lon="9.31317754225516"><ele>96.0</ele><time>2026-04-12T07:15:21Z</time></trkpt><trkpt lat="45.41597190318658" lon="9.31310762527951"><ele>96.4</ele><time>2026-04-12T07:15:23Z</time></trkpt><trkpt lat="45.416058383154954" lon="9.313036335691583"><ele>96.8</ele><time>2026-04-12T07:15:25Z</time></trkpt><trkpt lat="45.416140210136234" lon="9.312955431763212"><ele>97.2</ele><time>2026-04-12T07:15:27Z</time></trkpt><trkpt lat="45.416220511698526" lon="9.312878172555106"><ele>97.60000000000001</ele><time>2026-04-12T07:15:29Z</time></trkpt><trkpt lat="45.416305333227335" lon="9.312803299057459"><ele>98.0</ele><time>2026-04-12T07:15:31Z</time></trkpt><trkpt lat="45.41639035324492" lon="9.31272595811887"><ele>98.2</ele><time>2026-04-12T07:15:33Z</time></trkpt><trkpt lat="45.41647790779429" lon="9.312646537020383"><ele>98.4</ele><time>2026-04-12T07:15:35.001Z</time></trkpt><trkpt lat="45.41656985144133" lon="9.312566002579995"><ele>98.60000000000001</ele><time>2026-04-12T07:15:37.001Z</time></trkpt><trkpt lat="45.416669428082" lon="9.312500461483626"><ele>98.80000000000001</ele><time>2026-04-12T07:15:39.001Z</time></trkpt><trkpt lat="45.416780283775736" lon="9.312518374287176"><ele>99.0</ele><time>2026-04-12T07:15:41.001Z</time></trkpt><trkpt lat="45.416876494418304" lon="9.3124419653604"><ele>99.0</ele><time>2026-04-12T07:15:43.001Z</time></trkpt><trkpt lat="45.41689829994736" lon="9.312271242177275"><ele>99.0</ele><time>2026-04-12T07:15:45.001Z</time></trkpt><trkpt lat="45.41696254245081" lon="9.312136664445884"><ele>99.0</ele><time>2026-04-12T07:15:47.001Z</time></trkpt><trkpt lat="45.417047709242226" lon="9.312019454189537"><ele>99.0</ele><time>2026-04-12T07:15:49.001Z</time></trkpt><trkpt lat="45.41713385075593" lon="9.31190469812237"><ele>98.75</ele><time>2026-04-12T07:15:51.001Z</time></trkpt><trkpt lat="45.41721769308645" lon="9.31179383606468"><ele>98.5</ele><time>2026-04-12T07:15:53.001Z</time></trkpt><trkpt lat="45.417309152353646" lon="9.31169450245185"><ele>98.25</ele><time>2026-04-12T07:15:55.001Z</time></trkpt><trkpt lat="45.41740690914588" lon="9.311606066137903"><ele>98.0</ele><time>2026-04-12T07:15:57.001Z</time></trkpt><trkpt lat="45.41750139688629" lon="9.311518201078886"><ele>98.0</ele><time>2026-04-12T07:15:59.001Z</time></trkpt><trkpt lat="45.41759404335736" lon="9.311424066689721"><ele>98.0</ele><time>2026-04-12T07:16:01.001Z</time></trkpt><trkpt lat="45.417695063535696" lon="9.311338874731074"><ele>98.0</ele><time>2026-04-12T07:16:03.001Z</time></trkpt><trkpt lat="45.41779082297953" lon="9.311246255249623"><ele>98.0</ele><time>2026-04-12T07:16:05.001Z</time></trkpt><trkpt lat="45.41788812939084" lon="9.311158634437243"><ele>98.0</ele><time>2026-04-12T07:16:07.001Z</time></trkpt><trkpt lat="45.4179821706569" lon="9.311067681800099"><ele>98.0</ele><time>2026-04-12T07:16:09.001Z</time></trkpt><trkpt lat="45.41807849256436" lon="9.310983216371152"><ele>98.0</ele><time>2026-04-12T07:16:11.001Z</time></trkpt><trkpt lat="45.41817680881215" lon="9.310891855402451"><ele>98.0</ele><time>2026-04-12T07:16:13.001Z</time></trkpt><trkpt lat="45.41828044215107" lon="9.310800454059258"><ele>98.0</ele><time>2026-04-12T07:16:15.001Z</time></trkpt><trkpt lat="45.4183819760456" lon="9.310709425633158"><ele>98.0</ele><time>2026-04-12T07:16:17.001Z</time></trkpt><trkpt lat="45.418484837754825" lon="9.310640251930304"><ele>98.0</ele><time>2026-04-12T07:16:19.001Z</time></trkpt><trkpt lat="45.41858169245229" lon="9.310550971361621"><ele>98.0</ele><time>2026-04-12T07:16:21.001Z</time></trkpt><trkpt lat="45.418667135296396" lon="9.31044349018445"><ele>98.0</ele><time>2026-04-12T07:16:23.001Z</time></trkpt><trkpt lat="45.418767337184526" lon="9.310354808024332"><ele>98.0</ele><time>2026-04-12T07:16:25.001Z</time></trkpt><trkpt lat="45.41888083034287" lon="9.31030523708922"><ele>98.0</ele><time>2026-04-12T07:16:27.001Z</time></trkpt><trkpt lat="45.41899605025419" lon="9.310251209922516"><ele>98.0</ele><time>2026-04-12T07:16:29.001Z</time></trkpt><trkpt lat="45.41911379164514" lon="9.31021016143189"><ele>97.80000000000001</ele><time>2026-04-12T07:16:31.001Z</time></trkpt><trkpt lat="45.41920795676831" lon="9.310142252606571"><ele>97.6</ele><time>2026-04-12T07:16:33.001Z</time></trkpt><trkpt lat="45.41928501926127" lon="9.310129816059893"><ele>97.4</ele><time>2026-04-12T07:16:34.001Z</time></trkpt><trkpt lat="45.419347577532946" lon="9.310094536993505"><ele>97.19999999999999</ele><time>2026-04-12T07:16:35.001Z</time></trkpt><trkpt lat="45.41945919304131" lon="9.310050798130439"><ele>97.0</ele><time>2026-04-12T07:16:37Z</time></trkpt><trkpt lat="45.41957208657322" lon="9.309996211540005"><ele>97.0</ele><time>2026-04-12T07:16:39Z</time></trkpt><trkpt lat="45.4196845958116" lon="9.309939786263584"><ele>97.0</ele><time>2026-04-12T07:16:41Z</time></trkpt><trkpt lat="45.419796991698455" lon="9.309878553125984"><ele>97.0</ele><time>2026-04-12T07:16:43Z</time></trkpt><trkpt lat="45.41990875828954" lon="9.309825565767568"><ele>97.0</ele><time>2026-04-12T07:16:45Z</time></trkpt><trkpt lat="45.420017386089626" lon="9.309771267378904"><ele>97.19999999999999</ele><time>2026-04-12T07:16:47Z</time></trkpt><trkpt lat="45.42012411492835" lon="9.309719247828939"><ele>97.4</ele><time>2026-04-12T07:16:49Z</time></trkpt><trkpt lat="45.42022868658039" lon="9.30966692870513"><ele>97.6</ele><time>2026-04-12T07:16:51Z</time></trkpt><trkpt lat="45.420334673372565" lon="9.309618435889485"><ele>97.80000000000001</ele><time>2026-04-12T07:16:53Z</time></trkpt><trkpt lat="45.42043621085778" lon="9.309563338044015"><ele>98.0</ele><time>2026-04-12T07:16:55Z</time></trkpt><trkpt lat="45.42053180041713" lon="9.309508959933249"><ele>97.99999999999999</ele><time>2026-04-12T07:16:57Z</time></trkpt><trkpt lat="45.42061917125643" lon="9.309468947210712"><ele>98.0</ele><time>2026-04-12T07:16:59Z</time></trkpt><trkpt lat="45.420697713458175" lon="9.3094311239163"><ele>98.0</ele><time>2026-04-12T07:17:01Z</time></trkpt><trkpt lat="45.42077230480248" lon="9.309388623829362"><ele>98.0</ele><time>2026-04-12T07:17:03Z</time></trkpt><trkpt lat="45.42083550696637" lon="9.309300366665692"><ele>97.99999999999999</ele><time>2026-04-12T07:17:05Z</time></trkpt><trkpt lat="45.42092139025314" lon="9.309232912336416"><ele>98.0</ele><time>2026-04-12T07:17:07Z</time></trkpt><trkpt lat="45.42102262343002" lon="9.30921203270178"><ele>98.0</ele><time>2026-04-12T07:17:09Z</time></trkpt><trkpt lat="45.421123284675474" lon="9.309175667631202"><ele>98.0</ele><time>2026-04-12T07:17:11Z</time></trkpt><trkpt lat="45.42122285275524" lon="9.309155476199408"><ele>98.0</ele><time>2026-04-12T07:17:13Z</time></trkpt><trkpt lat="45.421325719632925" lon="9.30913514909152"><ele>98.0</ele><time>2026-04-12T07:17:15Z</time></trkpt><trkpt lat="45.42142718501536" lon="9.30911330912454"><ele>98.0</ele><time>2026-04-12T07:17:17Z</time></trkpt><trkpt lat="45.42153245658766" lon="9.309099849394864"><ele>98.2</ele><time>2026-04-12T07:17:19Z</time></trkpt><trkpt lat="45.42163397289166" lon="9.30908064952019"><ele>98.4</ele><time>2026-04-12T07:17:21Z</time></trkpt><trkpt lat="45.421736680109554" lon="9.309058726634609"><ele>98.60000000000001</ele><time>2026-04-12T07:17:23Z</time></trkpt><trkpt lat="45.421843519995264" lon="9.30904728909723"><ele>98.80000000000001</ele><time>2026-04-12T07:17:25Z</time></trkpt><trkpt lat="45.42195019466656" lon="9.309025194243837"><ele>99.0</ele><time>2026-04-12T07:17:27Z</time></trkpt><trkpt lat="45.42204831312749" lon="9.308991840242355"><ele>99.2</ele><time>2026-04-12T07:17:29Z</time></trkpt><trkpt lat="45.42214933109958" lon="9.30896124603777"><ele>99.4</ele><time>2026-04-12T07:17:31Z</time></trkpt><trkpt lat="45.422249639905694" lon="9.308939333345583"><ele>99.6</ele><time>2026-04-12T07:17:33Z</time></trkpt><trkpt lat="45.4223486161341" lon="9.308916560472637"><ele>99.8</ele><time>2026-04-12T07:17:35Z</time></trkpt><trkpt lat="45.42244712027519" lon="9.308897037265151"><ele>100.0</ele><time>2026-04-12T07:17:37Z</time></trkpt><trkpt lat="45.422552792140934" lon="9.308880747700577"><ele>99.8</ele><time>2026-04-12T07:17:39Z</time></trkpt><trkpt lat="45.42266066206358" lon="9.308876380323294"><ele>99.6</ele><time>2026-04-12T07:17:41.001Z</time></trkpt><trkpt lat="45.422771399266594" lon="9.308881348640776"><ele>99.4</ele><time>2026-04-12T07:17:43.001Z</time></trkpt><trkpt lat="45.42288388256018" lon="9.30886934707302"><ele>99.2</ele><time>2026-04-12T07:17:45.001Z</time></trkpt><trkpt lat="45.42298862723904" lon="9.30886273295499"><ele>99.0</ele><time>2026-04-12T07:17:47.001Z</time></trkpt><trkpt lat="45.42309753448343" lon="9.308868793461466"><ele>99.0</ele><time>2026-04-12T07:17:49.001Z</time></trkpt><trkpt lat="45.423198582427126" lon="9.308864472812159"><ele>99.0</ele><time>2026-04-12T07:17:51.001Z</time></trkpt><trkpt lat="45.42331094228369" lon="9.308873214736519"><ele>99.0</ele><time>2026-04-12T07:17:53.001Z</time></trkpt><trkpt lat="45.42341771921592" lon="9.308865751353027"><ele>99.0</ele><time>2026-04-12T07:17:55.001Z</time></trkpt><trkpt lat="45.42352560181596" lon="9.308880606316967"><ele>99.0</ele><time>2026-04-12T07:17:57.001Z</time></trkpt><trkpt lat="45.42363574048006" lon="9.308879224459082"><ele>99.0</ele><time>2026-04-12T07:17:59.001Z</time></trkpt><trkpt lat="45.42374305859635" lon="9.308877924330485"><ele>99.0</ele><time>2026-04-12T07:18:01.001Z</time></trkpt><trkpt lat="45.423852357569984" lon="9.308877386129351"><ele>99.0</ele><time>2026-04-12T07:18:03.001Z</time></trkpt><trkpt lat="45.42396220446525" lon="9.308874949531363"><ele>99.0</ele><time>2026-04-12T07:18:05.001Z</time></trkpt><trkpt lat="45.42407161947693" lon="9.308869232497862"><ele>99.0</ele><time>2026-04-12T07:18:07.001Z</time></trkpt><trkpt lat="45.42418151303283" lon="9.308879155162186"><ele>99.0</ele><time>2026-04-12T07:18:09.001Z</time></trkpt><trkpt lat="45.42429071802365" lon="9.308878515297891"><ele>99.0</ele><time>2026-04-12T07:18:11.001Z</time></trkpt><trkpt lat="45.42440210861047" lon="9.308875278263365"><ele>99.0</ele><time>2026-04-12T07:18:13.001Z</time></trkpt><trkpt lat="45.42451608426079" lon="9.30887582058582"><ele>99.0</ele><time>2026-04-12T07:18:15.001Z</time></trkpt><trkpt lat="45.42462767672976" lon="9.308863538849492"><ele>99.0</ele><time>2026-04-12T07:18:17.001Z</time></trkpt><trkpt lat="45.42473269523398" lon="9.308845577322877"><ele>99.0</ele><time>2026-04-12T07:18:19.001Z</time></trkpt><trkpt lat="45.424832457359194" lon="9.308821960705373"><ele>99.0</ele><time>2026-04-12T07:18:21.001Z</time></trkpt><trkpt lat="45.42493591252502" lon="9.308785692761921"><ele>99.0</ele><time>2026-04-12T07:18:23.001Z</time></trkpt><trkpt lat="45.42504434610837" lon="9.308747497525172"><ele>99.0</ele><time>2026-04-12T07:18:25.001Z</time></trkpt><trkpt lat="45.42515297189693" lon="9.308714584845296"><ele>99.0</ele><time>2026-04-12T07:18:27.001Z</time></trkpt><trkpt lat="45.42523470839875" lon="9.308605001054234"><ele>99.0</ele><time>2026-04-12T07:18:29.001Z</time></trkpt><trkpt lat="45.42522278330721" lon="9.308431448748472"><ele>99.0</ele><time>2026-04-12T07:18:31.001Z</time></trkpt><trkpt lat="45.42515250916344" lon="9.308296297495442"><ele>99.0</ele><time>2026-04-12T07:18:33.001Z</time></trkpt><trkpt lat="45.4251137430896" lon="9.308174187203335"><ele>99.0</ele><time>2026-04-12T07:18:35.001Z</time></trkpt><trkpt lat="45.42510928491346" lon="9.308028546937736"><ele>99.0</ele><time>2026-04-12T07:18:37.001Z</time></trkpt><trkpt lat="45.42507707863155" lon="9.307883365977274"><ele>99.0</ele><time>2026-04-12T07:18:39.001Z</time></trkpt><trkpt lat="45.4250562797319" lon="9.307745961715415"><ele>99.0</ele><time>2026-04-12T07:18:41.001Z</time></trkpt><trkpt lat="45.42503458929161" lon="9.307615499179317"><ele>99.0</ele><time>2026-04-12T07:18:43Z</time></trkpt><trkpt lat="45.42501613819345" lon="9.307481554377036"><ele>99.0</ele><time>2026-04-12T07:18:45Z</time></trkpt><trkpt lat="45.424996201147366" lon="9.307343694179622"><ele>99.0</ele><time>2026-04-12T07:18:47Z</time></trkpt><trkpt lat="45.424973166703275" lon="9.307207835848121"><ele>99.2</ele><time>2026-04-12T07:18:49Z</time></trkpt><trkpt lat="45.42495260064773" lon="9.307066900473346"><ele>99.4</ele><time>2026-04-12T07:18:51Z</time></trkpt><trkpt lat="45.424930664953735" lon="9.306921710677555"><ele>99.6</ele><time>2026-04-12T07:18:53Z</time></trkpt><trkpt lat="45.42490377048149" lon="9.306781166502654"><ele>99.8</ele><time>2026-04-12T07:18:55Z</time></trkpt><trkpt lat="45.42488132670283" lon="9.306641784657705"><ele>100.0</ele><time>2026-04-12T07:18:57Z</time></trkpt><trkpt lat="45.42485941845547" lon="9.306499833483521"><ele>100.0</ele><time>2026-04-12T07:18:59Z</time></trkpt><trkpt lat="45.424838276420445" lon="9.306353684184067"><ele>100.0</ele><time>2026-04-12T07:19:01Z</time></trkpt><trkpt lat="45.42481403176654" lon="9.306205663148903"><ele>100.0</ele><time>2026-04-12T07:19:03Z</time></trkpt><trkpt lat="45.4247909530568" lon="9.306057437326707"><ele>100.0</ele><time>2026-04-12T07:19:05Z</time></trkpt><trkpt lat="45.42476967682679" lon="9.305912262674154"><ele>100.0</ele><time>2026-04-12T07:19:07Z</time></trkpt><trkpt lat="45.42474410346965" lon="9.305766357771704"><ele>100.0</ele><time>2026-04-12T07:19:09Z</time></trkpt><trkpt lat="45.42472209840545" lon="9.305612079399351"><ele>100.0</ele><time>2026-04-12T07:19:11Z</time></trkpt><trkpt lat="45.42469850189354" lon="9.305461669109134"><ele>100.0</ele><time>2026-04-12T07:19:13Z</time></trkpt><trkpt lat="45.424670698944595" lon="9.305313493544993"><ele>100.0</ele><time>2026-04-12T07:19:15Z</time></trkpt><trkpt lat="45.42464324633456" lon="9.30516717607926"><ele>100.0</ele><time>2026-04-12T07:19:17Z</time></trkpt><trkpt lat="45.42462198363348" lon="9.305028198528312"><ele>99.8</ele><time>2026-04-12T07:19:19Z</time></trkpt><trkpt lat="45.42459281343672" lon="9.304899655667137"><ele>99.6</ele><time>2026-04-12T07:19:21Z</time></trkpt><trkpt lat="45.42455699360141" lon="9.304762500997423"><ele>99.4</ele><time>2026-04-12T07:19:23Z</time></trkpt><trkpt lat="45.42453226371658" lon="9.30461341190201"><ele>99.2</ele><time>2026-04-12T07:19:25Z</time></trkpt><trkpt lat="45.42450325231177" lon="9.304460187012436"><ele>99.0</ele><time>2026-04-12T07:19:27Z</time></trkpt><trkpt lat="45.42447469045933" lon="9.304303126522539"><ele>99.0</ele><time>2026-04-12T07:19:29Z</time></trkpt><trkpt lat="45.42444804757666" lon="9.304145743674832"><ele>99.0</ele><time>2026-04-12T07:19:31Z</time></trkpt><trkpt lat="45.42442052524947" lon="9.303997061439013"><ele>99.0</ele><time>2026-04-12T07:19:33Z</time></trkpt><trkpt lat="45.42438513758123" lon="9.303867634918545"><ele>99.0</ele><time>2026-04-12T07:19:35Z</time></trkpt><trkpt lat="45.42435763409795" lon="9.30373375091354"><ele>99.0</ele><time>2026-04-12T07:19:37Z</time></trkpt><trkpt lat="45.424293624288794" lon="9.303618321990639"><ele>99.25</ele><time>2026-04-12T07:19:39Z</time></trkpt><trkpt lat="45.42418998692955" lon="9.303534010268722"><ele>99.5</ele><time>2026-04-12T07:19:41Z</time></trkpt><trkpt lat="45.42407357755847" lon="9.303466560095274"><ele>99.75</ele><time>2026-04-12T07:19:43Z</time></trkpt><trkpt lat="45.42396103117732" lon="9.303396971290804"><ele>100.0</ele><time>2026-04-12T07:19:45Z</time></trkpt><trkpt lat="45.423847756139196" lon="9.303339758565626"><ele>99.8</ele><time>2026-04-12T07:19:47Z</time></trkpt><trkpt lat="45.423736114250154" lon="9.30326983153967"><ele>99.6</ele><time>2026-04-12T07:19:49Z</time></trkpt><trkpt lat="45.42362537845888" lon="9.30319798625394"><ele>99.4</ele><time>2026-04-12T07:19:51.001Z</time></trkpt><trkpt lat="45.42352032593467" lon="9.303094981432041"><ele>99.2</ele><time>2026-04-12T07:19:53.001Z</time></trkpt><trkpt lat="45.42347025980624" lon="9.30303918299337"><ele>99.0</ele><time>2026-04-12T07:19:54.001Z</time></trkpt><trkpt lat="45.42342589254083" lon="9.30297414982173"><ele>99.0</ele><time>2026-04-12T07:19:55.001Z</time></trkpt><trkpt lat="45.42334579952639" lon="9.302839444496813"><ele>99.0</ele><time>2026-04-12T07:19:57.001Z</time></trkpt><trkpt lat="45.42328116329847" lon="9.302690169227965"><ele>99.0</ele><time>2026-04-12T07:19:59.001Z</time></trkpt><trkpt lat="45.42323219302951" lon="9.302530070807022"><ele>99.0</ele><time>2026-04-12T07:20:01.001Z</time></trkpt><trkpt lat="45.4231983428547" lon="9.302365350626406"><ele>99.0</ele><time>2026-04-12T07:20:03.001Z</time></trkpt><trkpt lat="45.42318789052616" lon="9.302198978033863"><ele>99.0</ele><time>2026-04-12T07:20:05.001Z</time></trkpt><trkpt lat="45.42319161137718" lon="9.30203175648221"><ele>99.0</ele><time>2026-04-12T07:20:07.001Z</time></trkpt><trkpt lat="45.423206944262425" lon="9.301859000364635"><ele>99.0</ele><time>2026-04-12T07:20:09.001Z</time></trkpt><trkpt lat="45.42321826077888" lon="9.301686945634302"><ele>99.0</ele><time>2026-04-12T07:20:11.001Z</time></trkpt><trkpt lat="45.423236117046606" lon="9.301513896725082"><ele>99.0</ele><time>2026-04-12T07:20:13.001Z</time></trkpt><trkpt lat="45.42324376385136" lon="9.301338877993173"><ele>99.0</ele><time>2026-04-12T07:20:15.001Z</time></trkpt><trkpt lat="45.423238768551776" lon="9.301244223554773"><ele>99.0</ele><time>2026-04-12T07:20:16.001Z</time></trkpt><trkpt lat="45.42321214787464" lon="9.30108431943309"><ele>99.0</ele><time>2026-04-12T07:20:18.001Z</time></trkpt><trkpt lat="45.4231837056718" lon="9.301001557532988"><ele>98.83333333333333</ele><time>2026-04-12T07:20:19.001Z</time></trkpt><trkpt lat="45.42314392991268" lon="9.30093177851189"><ele>98.66666666666666</ele><time>2026-04-12T07:20:20.001Z</time></trkpt><trkpt lat="45.42312855623599" lon="9.300767542950542"><ele>98.5</ele><time>2026-04-12T07:20:22.001Z</time></trkpt><trkpt lat="45.423189009250635" lon="9.30061771038201"><ele>98.33333333333333</ele><time>2026-04-12T07:20:24.001Z</time></trkpt><trkpt lat="45.4232142493791" lon="9.300530299700142"><ele>98.16666666666666</ele><time>2026-04-12T07:20:25.001Z</time></trkpt><trkpt lat="45.42322144267757" lon="9.3004302606168"><ele>98.0</ele><time>2026-04-12T07:20:26.001Z</time></trkpt><trkpt lat="45.42321630565323" lon="9.30032999180896"><ele>97.71428571428571</ele><time>2026-04-12T07:20:27.001Z</time></trkpt><trkpt lat="45.42320221583492" lon="9.300234087428567"><ele>97.42857142857143</ele><time>2026-04-12T07:20:28.001Z</time></trkpt><trkpt lat="45.42317959301592" lon="9.30014317224487"><ele>97.14285714285714</ele><time>2026-04-12T07:20:29.001Z</time></trkpt><trkpt lat="45.42316157160633" lon="9.300053468795685"><ele>96.85714285714286</ele><time>2026-04-12T07:20:30.001Z</time></trkpt><trkpt lat="45.42314073923085" lon="9.299965813114618"><ele>96.57142857142857</ele><time>2026-04-12T07:20:31.001Z</time></trkpt><trkpt lat="45.42312043433562" lon="9.299880217660663"><ele>96.28571428571428</ele><time>2026-04-12T07:20:32.001Z</time></trkpt><trkpt lat="45.423105175147256" lon="9.299790861510159"><ele>96.0</ele><time>2026-04-12T07:20:33.001Z</time></trkpt><trkpt lat="45.423091996692236" lon="9.299701903850199"><ele>96.0</ele><time>2026-04-12T07:20:34.001Z</time></trkpt><trkpt lat="45.42305727726804" lon="9.299524722163808"><ele>96.0</ele><time>2026-04-12T07:20:36.001Z</time></trkpt><trkpt lat="45.423021622796426" lon="9.299362266311832"><ele>96.0</ele><time>2026-04-12T07:20:38.001Z</time></trkpt><trkpt lat="45.4230041953812" lon="9.299275770688174"><ele>96.0</ele><time>2026-04-12T07:20:39.001Z</time></trkpt><trkpt lat="45.42297980775831" lon="9.299113601409028"><ele>96.0</ele><time>2026-04-12T07:20:41.001Z</time></trkpt><trkpt lat="45.422952517212146" lon="9.298962131428201"><ele>96.19999999999999</ele><time>2026-04-12T07:20:43.001Z</time></trkpt><trkpt lat="45.422920876952304" lon="9.298816674095539"><ele>96.39999999999999</ele><time>2026-04-12T07:20:45.001Z</time></trkpt><trkpt lat="45.42289652091026" lon="9.298661882216166"><ele>96.6</ele><time>2026-04-12T07:20:47.001Z</time></trkpt><trkpt lat="45.42286935581094" lon="9.298501719696858"><ele>96.8</ele><time>2026-04-12T07:20:49Z</time></trkpt><trkpt lat="45.42283698350404" lon="9.29834863550295"><ele>97.0</ele><time>2026-04-12T07:20:51Z</time></trkpt><trkpt lat="45.42280394207837" lon="9.298207199662428"><ele>97.16666666666667</ele><time>2026-04-12T07:20:53Z</time></trkpt><trkpt lat="45.42276141019886" lon="9.298081510885542"><ele>97.33333333333334</ele><time>2026-04-12T07:20:55Z</time></trkpt><trkpt lat="45.42271602022872" lon="9.297985773761228"><ele>97.5</ele><time>2026-04-12T07:20:57Z</time></trkpt><trkpt lat="45.42265106036452" lon="9.297931466494088"><ele>97.66666666666666</ele><time>2026-04-12T07:20:59Z</time></trkpt><trkpt lat="45.42256755636772" lon="9.29791858069003"><ele>97.83333333333333</ele><time>2026-04-12T07:21:01Z</time></trkpt><trkpt lat="45.42247763989109" lon="9.297848711981578"><ele>98.0</ele><time>2026-04-12T07:21:03Z</time></trkpt><trkpt lat="45.42239476587821" lon="9.297825338809963"><ele>98.0</ele><time>2026-04-12T07:21:05Z</time></trkpt><trkpt lat="45.42235605675342" lon="9.297742150833045"><ele>98.0</ele><time>2026-04-12T07:21:07Z</time></trkpt><trkpt lat="45.422418243248195" lon="9.297651072366186"><ele>98.0</ele><time>2026-04-12T07:21:09Z</time></trkpt><trkpt lat="45.422490964091594" lon="9.297546994445632"><ele>98.0</ele><time>2026-04-12T07:21:11Z</time></trkpt><trkpt lat="45.422553717598845" lon="9.297418926219946"><ele>98.0</ele><time>2026-04-12T07:21:13Z</time></trkpt><trkpt lat="45.42260293809881" lon="9.297274866210913"><ele>98.0</ele><time>2026-04-12T07:21:15Z</time></trkpt><trkpt lat="45.42259715961282" lon="9.297107889486501"><ele>98.0</ele><time>2026-04-12T07:21:17Z</time></trkpt><trkpt lat="45.42258397297203" lon="9.296944523708364"><ele>98.0</ele><time>2026-04-12T07:21:19Z</time></trkpt><trkpt lat="45.42255702072669" lon="9.296782878054561"><ele>98.0</ele><time>2026-04-12T07:21:21Z</time></trkpt><trkpt lat="45.422531424547465" lon="9.296620939767676"><ele>98.0</ele><time>2026-04-12T07:21:23Z</time></trkpt><trkpt lat="45.422503961182485" lon="9.296456883289714"><ele>98.0</ele><time>2026-04-12T07:21:25Z</time></trkpt><trkpt lat="45.42247540392273" lon="9.296295756476963"><ele>98.0</ele><time>2026-04-12T07:21:27Z</time></trkpt><trkpt lat="45.42244670010802" lon="9.296129284076402"><ele>98.0</ele><time>2026-04-12T07:21:29Z</time></trkpt><trkpt lat="45.42241534316947" lon="9.295967611186216"><ele>97.80000000000001</ele><time>2026-04-12T07:21:31Z</time></trkpt><trkpt lat="45.42239232706277" lon="9.295799620460409"><ele>97.6</ele><time>2026-04-12T07:21:33Z</time></trkpt><trkpt lat="45.42236823769162" lon="9.295623360546623"><ele>97.4</ele><time>2026-04-12T07:21:35Z</time></trkpt><trkpt lat="45.42235407267645" lon="9.29553414772356"><ele>97.19999999999999</ele><time>2026-04-12T07:21:36Z</time></trkpt><trkpt lat="45.42233421290502" lon="9.295448881090214"><ele>97.0</ele><time>2026-04-12T07:21:37Z</time></trkpt><trkpt lat="45.422303738611305" lon="9.295278675100914"><ele>97.0</ele><time>2026-04-12T07:21:39Z</time></trkpt><trkpt lat="45.42228155915356" lon="9.295111320182906"><ele>97.0</ele><time>2026-04-12T07:21:41Z</time></trkpt><trkpt lat="45.422253767954096" lon="9.294941033484422"><ele>97.0</ele><time>2026-04-12T07:21:43Z</time></trkpt><trkpt lat="45.42221839429404" lon="9.294771790350552"><ele>97.0</ele><time>2026-04-12T07:21:45Z</time></trkpt><trkpt lat="45.42219105490524" lon="9.294601375770043"><ele>97.0</ele><time>2026-04-12T07:21:47Z</time></trkpt><trkpt lat="45.42216428993543" lon="9.294434050393802"><ele>97.0</ele><time>2026-04-12T07:21:49Z</time></trkpt><trkpt lat="45.422135314643405" lon="9.294272263347915"><ele>97.0</ele><time>2026-04-12T07:21:51Z</time></trkpt><trkpt lat="45.42210819962683" lon="9.294108314055615"><ele>97.0</ele><time>2026-04-12T07:21:53Z</time></trkpt><trkpt lat="45.422083032598096" lon="9.293946493323348"><ele>98.0</ele><time>2026-04-12T07:21:55Z</time></trkpt><trkpt lat="45.42205766075735" lon="9.293787502289959"><ele>99.0</ele><time>2026-04-12T07:21:57Z</time></trkpt><trkpt lat="45.42202654602655" lon="9.293645435641126"><ele>100.0</ele><time>2026-04-12T07:21:59Z</time></trkpt><trkpt lat="45.422006328848276" lon="9.293528904207733"><ele>101.0</ele><time>2026-04-12T07:22:01Z</time></trkpt><trkpt lat="45.42198760836984" lon="9.293419017642513"><ele>102.0</ele><time>2026-04-12T07:22:03Z</time></trkpt><trkpt lat="45.42201224074047" lon="9.29331613324356"><ele>102.0</ele><time>2026-04-12T07:22:06.001Z</time></trkpt><trkpt lat="45.42207943437543" lon="9.29331034258994"><ele>102.0</ele><time>2026-04-12T07:22:08.001Z</time></trkpt><trkpt lat="45.4220800565228" lon="9.293157696290612"><ele>102.0</ele><time>2026-04-12T07:22:11.001Z</time></trkpt><trkpt lat="45.42204410445393" lon="9.293029885736864"><ele>102.0</ele><time>2026-04-12T07:22:13.001Z</time></trkpt><trkpt lat="45.422018000677376" lon="9.292887818470197"><ele>102.0</ele><time>2026-04-12T07:22:15.001Z</time></trkpt><trkpt lat="45.422007094783474" lon="9.292738649222356"><ele>101.6</ele><time>2026-04-12T07:22:17.001Z</time></trkpt><trkpt lat="45.42195388187427" lon="9.292606404148907"><ele>101.19999999999999</ele><time>2026-04-12T07:22:19.001Z</time></trkpt><trkpt lat="45.42189546558043" lon="9.292464169435405"><ele>100.8</ele><time>2026-04-12T07:22:21.001Z</time></trkpt><trkpt lat="45.42185731836962" lon="9.292317360250678"><ele>100.4</ele><time>2026-04-12T07:22:23.001Z</time></trkpt><trkpt lat="45.42184080706231" lon="9.292162929913626"><ele>100.0</ele><time>2026-04-12T07:22:25.001Z</time></trkpt><trkpt lat="45.4218527857681" lon="9.292009618780472"><ele>99.4</ele><time>2026-04-12T07:22:27.001Z</time></trkpt><trkpt lat="45.42186940007109" lon="9.291859050890253"><ele>98.8</ele><time>2026-04-12T07:22:29.001Z</time></trkpt><trkpt lat="45.42190522942771" lon="9.291710367977434"><ele>98.19999999999999</ele><time>2026-04-12T07:22:31.001Z</time></trkpt><trkpt lat="45.4219701399211" lon="9.291567898697553"><ele>97.6</ele><time>2026-04-12T07:22:33.001Z</time></trkpt><trkpt lat="45.42204382025856" lon="9.291450813399512"><ele>97.0</ele><time>2026-04-12T07:22:35.001Z</time></trkpt><trkpt lat="45.422131244603165" lon="9.291349469053834"><ele>97.25</ele><time>2026-04-12T07:22:37.001Z</time></trkpt><trkpt lat="45.42222963469705" lon="9.291272028901245"><ele>97.5</ele><time>2026-04-12T07:22:39.001Z</time></trkpt><trkpt lat="45.42233637324708" lon="9.291209918005135"><ele>97.75</ele><time>2026-04-12T07:22:41.001Z</time></trkpt><trkpt lat="45.422440288207255" lon="9.291136809843888"><ele>98.0</ele><time>2026-04-12T07:22:43.001Z</time></trkpt><trkpt lat="45.4225395267848" lon="9.291065031722058"><ele>98.0</ele><time>2026-04-12T07:22:45.001Z</time></trkpt><trkpt lat="45.42264432024609" lon="9.291002651578024"><ele>98.0</ele><time>2026-04-12T07:22:47.001Z</time></trkpt><trkpt lat="45.422743223820966" lon="9.290924668674453"><ele>98.0</ele><time>2026-04-12T07:22:49.001Z</time></trkpt><trkpt lat="45.42284599110482" lon="9.290862066872858"><ele>98.0</ele><time>2026-04-12T07:22:51.001Z</time></trkpt><trkpt lat="45.42294413744397" lon="9.290788882701982"><ele>98.0</ele><time>2026-04-12T07:22:53.001Z</time></trkpt><trkpt lat="45.42304391094482" lon="9.290733555549117"><ele>98.66666666666666</ele><time>2026-04-12T07:22:55Z</time></trkpt><trkpt lat="45.42315142797407" lon="9.29072684146051"><ele>99.33333333333333</ele><time>2026-04-12T07:22:57Z</time></trkpt><trkpt lat="45.4232254777285" lon="9.290750307820952"><ele>100.0</ele><time>2026-04-12T07:23:01Z</time></trkpt><trkpt lat="45.423305746936116" lon="9.290752529051638"><ele>100.66666666666666</ele><time>2026-04-12T07:23:04Z</time></trkpt><trkpt lat="45.42338100055258" lon="9.290764823704585"><ele>101.33333333333333</ele><time>2026-04-12T07:23:06Z</time></trkpt><trkpt lat="45.423476596560704" lon="9.290806121023913"><ele>102.0</ele><time>2026-04-12T07:23:08Z</time></trkpt><trkpt lat="45.423575370063155" lon="9.290791141610173"><ele>102.0</ele><time>2026-04-12T07:23:10Z</time></trkpt><trkpt lat="45.423655933438646" lon="9.290750069418863"><ele>102.0</ele><time>2026-04-12T07:23:12Z</time></trkpt><trkpt lat="45.423739380947794" lon="9.290731816373677"><ele>102.0</ele><time>2026-04-12T07:23:14Z</time></trkpt><trkpt lat="45.42380954619349" lon="9.290807961701582"><ele>102.0</ele><time>2026-04-12T07:23:16Z</time></trkpt><trkpt lat="45.423861093999776" lon="9.29089199110626"><ele>102.0</ele><time>2026-04-12T07:23:18Z</time></trkpt><trkpt lat="45.42390956757192" lon="9.290969449436478"><ele>102.0</ele><time>2026-04-12T07:23:20Z</time></trkpt><trkpt lat="45.42399753442837" lon="9.290939720509371"><ele>102.0</ele><time>2026-04-12T07:23:22Z</time></trkpt><trkpt lat="45.424051762019566" lon="9.291023834617768"><ele>102.0</ele><time>2026-04-12T07:23:24Z</time></trkpt><trkpt lat="45.42404785401638" lon="9.291174840196556"><ele>102.0</ele><time>2026-04-12T07:23:26Z</time></trkpt><trkpt lat="45.42407477833038" lon="9.291311813606743"><ele>102.0</ele><time>2026-04-12T07:23:28Z</time></trkpt><trkpt lat="45.42410030211839" lon="9.291454458549305"><ele>102.0</ele><time>2026-04-12T07:23:30Z</time></trkpt><trkpt lat="45.42412030944611" lon="9.29159841807046"><ele>102.0</ele><time>2026-04-12T07:23:32Z</time></trkpt><trkpt lat="45.42413883778464" lon="9.291732181874378"><ele>102.0</ele><time>2026-04-12T07:23:34Z</time></trkpt><trkpt lat="45.42415506002715" lon="9.291848783624893"><ele>102.0</ele><time>2026-04-12T07:23:36Z</time></trkpt><trkpt lat="45.42416808576968" lon="9.291959705021906"><ele>102.0</ele><time>2026-04-12T07:23:38Z</time></trkpt><trkpt lat="45.42425471577639" lon="9.292004460371087"><ele>102.0</ele><time>2026-04-12T07:23:40Z</time></trkpt><trkpt lat="45.42433021239134" lon="9.291930503887892"><ele>102.0</ele><time>2026-04-12T07:23:42Z</time></trkpt><trkpt lat="45.424443559832845" lon="9.291888611089663"><ele>102.0</ele><time>2026-04-12T07:23:44Z</time></trkpt><trkpt lat="45.424549209190126" lon="9.291895343712211"><ele>102.0</ele><time>2026-04-12T07:23:46Z</time></trkpt><trkpt lat="45.42459450708818" lon="9.291960540288791"><ele>102.0</ele><time>2026-04-12T07:23:47Z</time></trkpt><trkpt lat="45.424627353218405" lon="9.292111969431337"><ele>102.0</ele><time>2026-04-12T07:23:49Z</time></trkpt><trkpt lat="45.42468509290296" lon="9.292244417182483"><ele>102.0</ele><time>2026-04-12T07:23:51Z</time></trkpt><trkpt lat="45.42473609862507" lon="9.292374259620486"><ele>102.39999999999999</ele><time>2026-04-12T07:23:53Z</time></trkpt><trkpt lat="45.42478899737466" lon="9.29250388639117"><ele>102.8</ele><time>2026-04-12T07:23:55Z</time></trkpt><trkpt lat="45.424837186206965" lon="9.292629963248448"><ele>103.2</ele><time>2026-04-12T07:23:57Z</time></trkpt><trkpt lat="45.424881498737946" lon="9.292749701907207"><ele>103.6</ele><time>2026-04-12T07:23:59Z</time></trkpt><trkpt lat="45.42492072212398" lon="9.292866044570138"><ele>104.0</ele><time>2026-04-12T07:24:01Z</time></trkpt><trkpt lat="45.4249671698332" lon="9.292978620853658"><ele>103.6</ele><time>2026-04-12T07:24:03Z</time></trkpt><trkpt lat="45.425006718943884" lon="9.293099249729718"><ele>103.2</ele><time>2026-04-12T07:24:05Z</time></trkpt><trkpt lat="45.42505141631006" lon="9.293226409490988"><ele>102.8</ele><time>2026-04-12T07:24:07Z</time></trkpt><trkpt lat="45.42509456394851" lon="9.29334742714629"><ele>102.39999999999999</ele><time>2026-04-12T07:24:09Z</time></trkpt><trkpt lat="45.425135343737516" lon="9.293466025610257"><ele>102.0</ele><time>2026-04-12T07:24:11.001Z</time></trkpt><trkpt lat="45.42518046675922" lon="9.293583030211657"><ele>102.0</ele><time>2026-04-12T07:24:13.001Z</time></trkpt><trkpt lat="45.42521736949169" lon="9.293707290740034"><ele>102.0</ele><time>2026-04-12T07:24:15.001Z</time></trkpt><trkpt lat="45.42525589695555" lon="9.29382524993977"><ele>102.0</ele><time>2026-04-12T07:24:17.001Z</time></trkpt><trkpt lat="45.42528283546711" lon="9.293954877777212"><ele>102.0</ele><time>2026-04-12T07:24:19.001Z</time></trkpt><trkpt lat="45.425306987367435" lon="9.29408918192086"><ele>102.0</ele><time>2026-04-12T07:24:21.001Z</time></trkpt><trkpt lat="45.425338916263506" lon="9.294220824027391"><ele>102.0</ele><time>2026-04-12T07:24:23.001Z</time></trkpt><trkpt lat="45.42536838970545" lon="9.294347901199492"><ele>102.0</ele><time>2026-04-12T07:24:25.001Z</time></trkpt><trkpt lat="45.42541739131335" lon="9.294449726425329"><ele>102.0</ele><time>2026-04-12T07:24:27.001Z</time></trkpt><trkpt lat="45.42546633393782" lon="9.294538082310494"><ele>102.0</ele><time>2026-04-12T07:24:29.001Z</time></trkpt><trkpt lat="45.42553710919813" lon="9.294553652045192"><ele>102.0</ele><time>2026-04-12T07:24:31.001Z</time></trkpt><trkpt lat="45.42560980359479" lon="9.294467578820171"><ele>102.0</ele><time>2026-04-12T07:24:33.001Z</time></trkpt><trkpt lat="45.42567015398356" lon="9.294409445170322"><ele>102.0</ele><time>2026-04-12T07:24:35.001Z</time></trkpt><trkpt lat="45.42574759682531" lon="9.29435757358666"><ele>102.0</ele><time>2026-04-12T07:24:37.001Z</time></trkpt><trkpt lat="45.42583307414085" lon="9.294319094080826"><ele>102.0</ele><time>2026-04-12T07:24:39.001Z</time></trkpt><trkpt lat="45.42592887347058" lon="9.29436020051123"><ele>102.0</ele><time>2026-04-12T07:24:41.001Z</time></trkpt><trkpt lat="45.42601652255165" lon="9.294409576771036"><ele>102.0</ele><time>2026-04-12T07:24:43.001Z</time></trkpt><trkpt lat="45.42613727005464" lon="9.294378470600753"><ele>102.0</ele><time>2026-04-12T07:24:45.001Z</time></trkpt><trkpt lat="45.42620015929225" lon="9.294348857998557"><ele>102.0</ele><time>2026-04-12T07:24:46.001Z</time></trkpt><trkpt lat="45.42629646247654" lon="9.294288295073603"><ele>102.0</ele><time>2026-04-12T07:24:48.001Z</time></trkpt><trkpt lat="45.42641047816103" lon="9.294223831062826"><ele>102.0</ele><time>2026-04-12T07:24:50.001Z</time></trkpt><trkpt lat="45.42652161166872" lon="9.294165149850892"><ele>102.0</ele><time>2026-04-12T07:24:52.001Z</time></trkpt><trkpt lat="45.42662675656644" lon="9.294107119822721"><ele>102.0</ele><time>2026-04-12T07:24:54.001Z</time></trkpt><trkpt lat="45.42673020042269" lon="9.294054193251378"><ele>102.0</ele><time>2026-04-12T07:24:56.001Z</time></trkpt><trkpt lat="45.42684215492871" lon="9.293996064701114"><ele>102.0</ele><time>2026-04-12T07:24:58.001Z</time></trkpt><trkpt lat="45.42694605229677" lon="9.293937282698245"><ele>102.0</ele><time>2026-04-12T07:25:00.001Z</time></trkpt><trkpt lat="45.4270544581469" lon="9.293884752642185"><ele>102.19999999999999</ele><time>2026-04-12T07:25:02Z</time></trkpt><trkpt lat="45.42715961742436" lon="9.293821706919715"><ele>102.4</ele><time>2026-04-12T07:25:04Z</time></trkpt><trkpt lat="45.42725974268465" lon="9.293773219566075"><ele>102.6</ele><time>2026-04-12T07:25:06Z</time></trkpt><trkpt lat="45.427337169571544" lon="9.293740918784248"><ele>102.80000000000001</ele><time>2026-04-12T07:25:08Z</time></trkpt><trkpt lat="45.42742542030587" lon="9.293695341761609"><ele>103.0</ele><time>2026-04-12T07:25:11Z</time></trkpt><trkpt lat="45.427489073692406" lon="9.293639199295656"><ele>103.0</ele><time>2026-04-12T07:25:13Z</time></trkpt><trkpt lat="45.427555935008456" lon="9.293567514544447"><ele>103.0</ele><time>2026-04-12T07:25:15Z</time></trkpt><trkpt lat="45.4275659129299" lon="9.293432495421753"><ele>103.0</ele><time>2026-04-12T07:25:17Z</time></trkpt><trkpt lat="45.42751685387733" lon="9.293311526757968"><ele>103.0</ele><time>2026-04-12T07:25:19Z</time></trkpt><trkpt lat="45.42749502386603" lon="9.293183429077969"><ele>103.0</ele><time>2026-04-12T07:25:21Z</time></trkpt><trkpt lat="45.42746392726305" lon="9.293048694385856"><ele>103.0</ele><time>2026-04-12T07:25:23Z</time></trkpt><trkpt lat="45.42743098507791" lon="9.292917372871326"><ele>103.0</ele><time>2026-04-12T07:25:25Z</time></trkpt><trkpt lat="45.4274126237658" lon="9.292782266052859"><ele>103.0</ele><time>2026-04-12T07:25:27Z</time></trkpt><trkpt lat="45.42739418202727" lon="9.292642375671482"><ele>103.0</ele><time>2026-04-12T07:25:29Z</time></trkpt><trkpt lat="45.42736926985072" lon="9.292507067593931"><ele>103.0</ele><time>2026-04-12T07:25:31Z</time></trkpt><trkpt lat="45.42734400923484" lon="9.292361565257718"><ele>103.00000000000001</ele><time>2026-04-12T07:25:33Z</time></trkpt><trkpt lat="45.427333895444825" lon="9.292205048859483"><ele>103.0</ele><time>2026-04-12T07:25:35Z</time></trkpt><trkpt lat="45.427338651723296" lon="9.29201847307561"><ele>103.0</ele><time>2026-04-12T07:25:37Z</time></trkpt><trkpt lat="45.427362387921015" lon="9.291929681174302"><ele>103.0</ele><time>2026-04-12T07:25:38Z</time></trkpt><trkpt lat="45.42738982843254" lon="9.291840929590998"><ele>103.00000000000001</ele><time>2026-04-12T07:25:39Z</time></trkpt><trkpt lat="45.42740877810076" lon="9.291750659246215"><ele>103.0</ele><time>2026-04-12T07:25:40Z</time></trkpt><trkpt lat="45.42742771099298" lon="9.29166477615126"><ele>103.0</ele><time>2026-04-12T07:25:41Z</time></trkpt><trkpt lat="45.427449931881725" lon="9.291580494795706"><ele>103.0</ele><time>2026-04-12T07:25:42Z</time></trkpt><trkpt lat="45.427471532750964" lon="9.291495500254772"><ele>103.0</ele><time>2026-04-12T07:25:43Z</time></trkpt><trkpt lat="45.42751155939166" lon="9.291326878429798"><ele>103.0</ele><time>2026-04-12T07:25:45Z</time></trkpt><trkpt lat="45.427556136316205" lon="9.291155701658205"><ele>103.0</ele><time>2026-04-12T07:25:47Z</time></trkpt><trkpt lat="45.4275741283715" lon="9.291059239049247"><ele>102.71428571428571</ele><time>2026-04-12T07:25:48Z</time></trkpt><trkpt lat="45.427593190619625" lon="9.290963519519497"><ele>102.42857142857143</ele><time>2026-04-12T07:25:49Z</time></trkpt><trkpt lat="45.4276161412853" lon="9.29085728698212"><ele>102.14285714285714</ele><time>2026-04-12T07:25:50Z</time></trkpt><trkpt lat="45.42763849686182" lon="9.290760047779262"><ele>101.85714285714286</ele><time>2026-04-12T07:25:51Z</time></trkpt><trkpt lat="45.427657361513" lon="9.290666888181793"><ele>101.57142857142857</ele><time>2026-04-12T07:25:52Z</time></trkpt><trkpt lat="45.42768186864462" lon="9.29056241816251"><ele>101.28571428571428</ele><time>2026-04-12T07:25:53Z</time></trkpt><trkpt lat="45.42770956064452" lon="9.290459159620822"><ele>101.0</ele><time>2026-04-12T07:25:54Z</time></trkpt><trkpt lat="45.42773976601842" lon="9.290355232003225"><ele>100.83333333333333</ele><time>2026-04-12T07:25:55Z</time></trkpt><trkpt lat="45.427768092447316" lon="9.29024798490821"><ele>100.66666666666666</ele><time>2026-04-12T07:25:56Z</time></trkpt><trkpt lat="45.42779489515877" lon="9.290140008918147"><ele>100.5</ele><time>2026-04-12T07:25:57Z</time></trkpt><trkpt lat="45.42782341298603" lon="9.290032037608261"><ele>100.33333333333334</ele><time>2026-04-12T07:25:58Z</time></trkpt><trkpt lat="45.42785032234616" lon="9.289922169840398"><ele>100.16666666666667</ele><time>2026-04-12T07:25:59Z</time></trkpt><trkpt lat="45.427877136527485" lon="9.28981414284033"><ele>100.0</ele><time>2026-04-12T07:26:00Z</time></trkpt><trkpt lat="45.427904274086764" lon="9.289709777146527"><ele>100.00000000000001</ele><time>2026-04-12T07:26:01Z</time></trkpt><trkpt lat="45.42793658387337" lon="9.289609503549634"><ele>100.0</ele><time>2026-04-12T07:26:02Z</time></trkpt><trkpt lat="45.42796837359351" lon="9.289516710416732"><ele>100.0</ele><time>2026-04-12T07:26:03Z</time></trkpt><trkpt lat="45.42799351862138" lon="9.289426266536179"><ele>100.0</ele><time>2026-04-12T07:26:04Z</time></trkpt><trkpt lat="45.428019297826914" lon="9.289330239545398"><ele>100.00000000000001</ele><time>2026-04-12T07:26:05Z</time></trkpt><trkpt lat="45.428040590369505" lon="9.289241852031008"><ele>100.0</ele><time>2026-04-12T07:26:06Z</time></trkpt><trkpt lat="45.42810401242093" lon="9.289116397987467"><ele>100.00000000000001</ele><time>2026-04-12T07:26:08Z</time></trkpt><trkpt lat="45.42813364416981" lon="9.288977351640494"><ele>100.0</ele><time>2026-04-12T07:26:10Z</time></trkpt><trkpt lat="45.42817707984003" lon="9.288855292977454"><ele>100.0</ele><time>2026-04-12T07:26:12Z</time></trkpt><trkpt lat="45.42820936560668" lon="9.288738848244119"><ele>100.0</ele><time>2026-04-12T07:26:14Z</time></trkpt><trkpt lat="45.42823981189133" lon="9.288628588847091"><ele>100.00000000000001</ele><time>2026-04-12T07:26:16Z</time></trkpt><trkpt lat="45.428307672060775" lon="9.288635967005527"><ele>100.0</ele><time>2026-04-12T07:26:19Z</time></trkpt><trkpt lat="45.42837272052359" lon="9.288622229668034"><ele>100.00000000000001</ele><time>2026-04-12T07:26:21Z</time></trkpt><trkpt lat="45.428445211472436" lon="9.288603114084395"><ele>100.0</ele><time>2026-04-12T07:26:23Z</time></trkpt><trkpt lat="45.428525620335215" lon="9.288569589546796"><ele>100.0</ele><time>2026-04-12T07:26:25Z</time></trkpt><trkpt lat="45.42861259223442" lon="9.288510763375747"><ele>100.0</ele><time>2026-04-12T07:26:27.001Z</time></trkpt><trkpt lat="45.428706071086005" lon="9.288488715939925"><ele>100.00000000000001</ele><time>2026-04-12T07:26:29.001Z</time></trkpt><trkpt lat="45.428800542520214" lon="9.288483996594271"><ele>100.0</ele><time>2026-04-12T07:26:31.001Z</time></trkpt><trkpt lat="45.42889878294546" lon="9.288479737996601"><ele>100.4</ele><time>2026-04-12T07:26:33.001Z</time></trkpt><trkpt lat="45.42899610773297" lon="9.288478847414387"><ele>100.8</ele><time>2026-04-12T07:26:35.001Z</time></trkpt><trkpt lat="45.429097570837705" lon="9.28846793506183"><ele>101.19999999999999</ele><time>2026-04-12T07:26:37.001Z</time></trkpt><trkpt lat="45.42919808793803" lon="9.288469453621586"><ele>101.6</ele><time>2026-04-12T07:26:39.001Z</time></trkpt><trkpt lat="45.42929649618053" lon="9.288472994059143"><ele>102.0</ele><time>2026-04-12T07:26:41.001Z</time></trkpt><trkpt lat="45.42939081478282" lon="9.288463227282147"><ele>102.0</ele><time>2026-04-12T07:26:43.001Z</time></trkpt><trkpt lat="45.429484065095124" lon="9.288465682045844"><ele>102.0</ele><time>2026-04-12T07:26:45.001Z</time></trkpt><trkpt lat="45.429576618429586" lon="9.2884712678642"><ele>102.0</ele><time>2026-04-12T07:26:47.001Z</time></trkpt><trkpt lat="45.429667857686056" lon="9.288474051031544"><ele>102.0</ele><time>2026-04-12T07:26:49.001Z</time></trkpt><trkpt lat="45.42975993548183" lon="9.28847971537854"><ele>102.0</ele><time>2026-04-12T07:26:51.001Z</time></trkpt><trkpt lat="45.42985635680904" lon="9.288491888074837"><ele>102.0</ele><time>2026-04-12T07:26:53.001Z</time></trkpt><trkpt lat="45.429952831964435" lon="9.288504871963552"><ele>102.0</ele><time>2026-04-12T07:26:55.001Z</time></trkpt><trkpt lat="45.43005253680462" lon="9.28851303407"><ele>102.0</ele><time>2026-04-12T07:26:57.001Z</time></trkpt><trkpt lat="45.4301480317258" lon="9.288518211217214"><ele>102.0</ele><time>2026-04-12T07:26:59.001Z</time></trkpt><trkpt lat="45.43024632900687" lon="9.288531326700937"><ele>102.0</ele><time>2026-04-12T07:27:01.001Z</time></trkpt><trkpt lat="45.43034681986274" lon="9.288550036844676"><ele>102.0</ele><time>2026-04-12T07:27:03.001Z</time></trkpt><trkpt lat="45.4304540303246" lon="9.288570666004729"><ele>102.0</ele><time>2026-04-12T07:27:05.001Z</time></trkpt><trkpt lat="45.43055661360417" lon="9.288587018099161"><ele>102.0</ele><time>2026-04-12T07:27:07Z</time></trkpt><trkpt lat="45.43066076296798" lon="9.288612414904199"><ele>102.0</ele><time>2026-04-12T07:27:09Z</time></trkpt><trkpt lat="45.43076591725601" lon="9.28863456738799"><ele>102.0</ele><time>2026-04-12T07:27:11Z</time></trkpt><trkpt lat="45.43086797425172" lon="9.288662087868353"><ele>102.0</ele><time>2026-04-12T07:27:13Z</time></trkpt><trkpt lat="45.43097192958961" lon="9.288688410434686"><ele>102.0</ele><time>2026-04-12T07:27:15Z</time></trkpt><trkpt lat="45.43107454774991" lon="9.288722490155354"><ele>102.0</ele><time>2026-04-12T07:27:17Z</time></trkpt><trkpt lat="45.43117386500588" lon="9.288755724830805"><ele>102.0</ele><time>2026-04-12T07:27:19Z</time></trkpt><trkpt lat="45.43127372023549" lon="9.28878935544281"><ele>102.0</ele><time>2026-04-12T07:27:21Z</time></trkpt><trkpt lat="45.43137527266209" lon="9.288824387271013"><ele>102.0</ele><time>2026-04-12T07:27:23Z</time></trkpt><trkpt lat="45.431474714804175" lon="9.288855335331936"><ele>102.0</ele><time>2026-04-12T07:27:25Z</time></trkpt><trkpt lat="45.43156873788169" lon="9.288888729636469"><ele>102.0</ele><time>2026-04-12T07:27:27Z</time></trkpt><trkpt lat="45.431664109688334" lon="9.288912317024748"><ele>102.0</ele><time>2026-04-12T07:27:29Z</time></trkpt><trkpt lat="45.4317614392023" lon="9.288937300870144"><ele>102.0</ele><time>2026-04-12T07:27:31Z</time></trkpt><trkpt lat="45.431853585088774" lon="9.288961934212557"><ele>102.0</ele><time>2026-04-12T07:27:33Z</time></trkpt><trkpt lat="45.431948520278496" lon="9.289006341100382"><ele>102.0</ele><time>2026-04-12T07:27:35Z</time></trkpt><trkpt lat="45.43204482181118" lon="9.28904017590468"><ele>102.0</ele><time>2026-04-12T07:27:37Z</time></trkpt><trkpt lat="45.43213678804395" lon="9.289073364145167"><ele>102.0</ele><time>2026-04-12T07:27:39Z</time></trkpt><trkpt lat="45.43222879974279" lon="9.289108753999395"><ele>102.0</ele><time>2026-04-12T07:27:41Z</time></trkpt><trkpt lat="45.43231647392704" lon="9.289137815930399"><ele>101.8</ele><time>2026-04-12T07:27:43Z</time></trkpt><trkpt lat="45.43239056176927" lon="9.28916789149117"><ele>101.6</ele><time>2026-04-12T07:27:45Z</time></trkpt><trkpt lat="45.432469463755545" lon="9.289238976761428"><ele>101.39999999999999</ele><time>2026-04-12T07:27:47Z</time></trkpt><trkpt lat="45.43253126470261" lon="9.289347895271815"><ele>101.19999999999999</ele><time>2026-04-12T07:27:49Z</time></trkpt><trkpt lat="45.432619545042726" lon="9.289403780287488"><ele>101.0</ele><time>2026-04-12T07:27:51Z</time></trkpt><trkpt lat="45.432721175312" lon="9.289373126445977"><ele>101.0</ele><time>2026-04-12T07:27:53Z</time></trkpt><trkpt lat="45.432810778857046" lon="9.289305992660715"><ele>101.0</ele><time>2026-04-12T07:27:55Z</time></trkpt><trkpt lat="45.43291040676702" lon="9.289307633780153"><ele>101.0</ele><time>2026-04-12T07:27:57Z</time></trkpt><trkpt lat="45.43300152964799" lon="9.289370954985003"><ele>101.0</ele><time>2026-04-12T07:27:59Z</time></trkpt><trkpt lat="45.433098192690125" lon="9.289403015704293"><ele>101.0</ele><time>2026-04-12T07:28:01Z</time></trkpt><trkpt lat="45.433193660146706" lon="9.289430613414817"><ele>101.4</ele><time>2026-04-12T07:28:03Z</time></trkpt><trkpt lat="45.433288036186916" lon="9.28944689397542"><ele>101.8</ele><time>2026-04-12T07:28:05Z</time></trkpt><trkpt lat="45.43338655795489" lon="9.289462086387504"><ele>102.2</ele><time>2026-04-12T07:28:07Z</time></trkpt><trkpt lat="45.43348442736824" lon="9.289478601510593"><ele>102.60000000000001</ele><time>2026-04-12T07:28:09Z</time></trkpt><trkpt lat="45.43358336200671" lon="9.289496736001572"><ele>103.0</ele><time>2026-04-12T07:28:11Z</time></trkpt><trkpt lat="45.433681759346676" lon="9.289510047253506"><ele>103.0</ele><time>2026-04-12T07:28:13Z</time></trkpt><trkpt lat="45.433783665761865" lon="9.289511123842122"><ele>103.0</ele><time>2026-04-12T07:28:15Z</time></trkpt><trkpt lat="45.4338880595288" lon="9.28951619212818"><ele>103.0</ele><time>2026-04-12T07:28:17Z</time></trkpt><trkpt lat="45.43399465463725" lon="9.289510544157821"><ele>103.0</ele><time>2026-04-12T07:28:19Z</time></trkpt><trkpt lat="45.43410040431776" lon="9.289498285720509"><ele>103.0</ele><time>2026-04-12T07:28:21Z</time></trkpt><trkpt lat="45.43420926772571" lon="9.28949482100179"><ele>103.2</ele><time>2026-04-12T07:28:23Z</time></trkpt><trkpt lat="45.43431550325333" lon="9.289480371573225"><ele>103.4</ele><time>2026-04-12T07:28:25Z</time></trkpt><trkpt lat="45.43442518037331" lon="9.289465257224192"><ele>103.60000000000001</ele><time>2026-04-12T07:28:27Z</time></trkpt><trkpt lat="45.43453036997311" lon="9.289442762449251"><ele>103.80000000000001</ele><time>2026-04-12T07:28:29Z</time></trkpt><trkpt lat="45.43463426841848" lon="9.289416468795455"><ele>104.0</ele><time>2026-04-12T07:28:31Z</time></trkpt><trkpt lat="45.43473646736876" lon="9.289395603344106"><ele>104.0</ele><time>2026-04-12T07:28:33Z</time></trkpt><trkpt lat="45.43484373526818" lon="9.289366037537219"><ele>104.0</ele><time>2026-04-12T07:28:35Z</time></trkpt><trkpt lat="45.43495106087997" lon="9.289347530707982"><ele>104.0</ele><time>2026-04-12T07:28:37Z</time></trkpt><trkpt lat="45.43505731461727" lon="9.28933165988796"><ele>104.0</ele><time>2026-04-12T07:28:39Z</time></trkpt><trkpt lat="45.435163292557164" lon="9.289313708451052"><ele>104.0</ele><time>2026-04-12T07:28:41Z</time></trkpt><trkpt lat="45.43526918141184" lon="9.289282468520211"><ele>104.0</ele><time>2026-04-12T07:28:43.001Z</time></trkpt><trkpt lat="45.435373463834964" lon="9.289256507657116"><ele>104.0</ele><time>2026-04-12T07:28:45.001Z</time></trkpt><trkpt lat="45.435479372383114" lon="9.289239176733597"><ele>104.0</ele><time>2026-04-12T07:28:47.001Z</time></trkpt><trkpt lat="45.43558476565942" lon="9.289209627303125"><ele>104.0</ele><time>2026-04-12T07:28:49.001Z</time></trkpt><trkpt lat="45.43569346362564" lon="9.289182519934355"><ele>104.0</ele><time>2026-04-12T07:28:51.001Z</time></trkpt><trkpt lat="45.43580171543892" lon="9.289161971718986"><ele>104.0</ele><time>2026-04-12T07:28:53.001Z</time></trkpt><trkpt lat="45.43590932531493" lon="9.28913060513552"><ele>104.0</ele><time>2026-04-12T07:28:55.001Z</time></trkpt><trkpt lat="45.436012747233384" lon="9.289103462656469"><ele>104.0</ele><time>2026-04-12T07:28:57.001Z</time></trkpt><trkpt lat="45.436116504764826" lon="9.289087727406653"><ele>104.0</ele><time>2026-04-12T07:28:59.001Z</time></trkpt><trkpt lat="45.43622017845702" lon="9.289061651808598"><ele>104.0</ele><time>2026-04-12T07:29:01.001Z</time></trkpt><trkpt lat="45.43632037551846" lon="9.28904399202323"><ele>104.0</ele><time>2026-04-12T07:29:03.001Z</time></trkpt><trkpt lat="45.436411576342124" lon="9.289027062848453"><ele>104.0</ele><time>2026-04-12T07:29:05.001Z</time></trkpt><trkpt lat="45.43649880888897" lon="9.289017124063855"><ele>104.0</ele><time>2026-04-12T07:29:07.001Z</time></trkpt><trkpt lat="45.43659099543182" lon="9.288994611729391"><ele>104.0</ele><time>2026-04-12T07:29:09.001Z</time></trkpt><trkpt lat="45.43669037821095" lon="9.288965924314551"><ele>104.0</ele><time>2026-04-12T07:29:11.001Z</time></trkpt><trkpt lat="45.436790266047055" lon="9.288948687263296"><ele>104.0</ele><time>2026-04-12T07:29:13Z</time></trkpt><trkpt lat="45.43688887713706" lon="9.28893066230741"><ele>104.0</ele><time>2026-04-12T07:29:15Z</time></trkpt><trkpt lat="45.4369897954993" lon="9.288908179829637"><ele>104.0</ele><time>2026-04-12T07:29:17Z</time></trkpt><trkpt lat="45.43709516442691" lon="9.288891140264464"><ele>104.0</ele><time>2026-04-12T07:29:19Z</time></trkpt><trkpt lat="45.437186643977185" lon="9.288866017313026"><ele>104.0</ele><time>2026-04-12T07:29:21Z</time></trkpt><trkpt lat="45.437279408812934" lon="9.288851182433554"><ele>104.2</ele><time>2026-04-12T07:29:23Z</time></trkpt><trkpt lat="45.4373703436651" lon="9.288830847260872"><ele>104.4</ele><time>2026-04-12T07:29:25Z</time></trkpt><trkpt lat="45.4374514684516" lon="9.288811126415165"><ele>104.6</ele><time>2026-04-12T07:29:27Z</time></trkpt><trkpt lat="45.43754973351897" lon="9.288786997806326"><ele>104.8</ele><time>2026-04-12T07:29:29Z</time></trkpt><trkpt lat="45.437644963800864" lon="9.288773939037997"><ele>105.0</ele><time>2026-04-12T07:29:31Z</time></trkpt><trkpt lat="45.43774601728921" lon="9.288758236086776"><ele>105.0</ele><time>2026-04-12T07:29:33Z</time></trkpt><trkpt lat="45.437850950789056" lon="9.288767092321539"><ele>105.0</ele><time>2026-04-12T07:29:35Z</time></trkpt><trkpt lat="45.43794594164592" lon="9.288831132318544"><ele>105.0</ele><time>2026-04-12T07:29:37Z</time></trkpt><trkpt lat="45.438031199227716" lon="9.288931821937558"><ele>105.0</ele><time>2026-04-12T07:29:39Z</time></trkpt><trkpt lat="45.438106189768085" lon="9.28904934840903"><ele>105.0</ele><time>2026-04-12T07:29:41Z</time></trkpt><trkpt lat="45.438199890615714" lon="9.289140779627264"><ele>105.0</ele><time>2026-04-12T07:29:43Z</time></trkpt><trkpt lat="45.43831476847762" lon="9.289160640774398"><ele>105.0</ele><time>2026-04-12T07:29:45Z</time></trkpt><trkpt lat="45.43837544079877" lon="9.289128302662673"><ele>105.0</ele><time>2026-04-12T07:29:46Z</time></trkpt><trkpt lat="45.43847179245032" lon="9.289030234575028"><ele>105.0</ele><time>2026-04-12T07:29:48Z</time></trkpt><trkpt lat="45.43855058787137" lon="9.288910671486684"><ele>105.0</ele><time>2026-04-12T07:29:50Z</time></trkpt><trkpt lat="45.43863521904088" lon="9.288801191027659"><ele>105.0</ele><time>2026-04-12T07:29:52Z</time></trkpt><trkpt lat="45.43873630810732" lon="9.288731412277045"><ele>105.0</ele><time>2026-04-12T07:29:54Z</time></trkpt><trkpt lat="45.438844033062885" lon="9.28867552652047"><ele>105.0</ele><time>2026-04-12T07:29:56Z</time></trkpt><trkpt lat="45.4389477359371" lon="9.288619369884364"><ele>105.0</ele><time>2026-04-12T07:29:58Z</time></trkpt><trkpt lat="45.43904900715408" lon="9.2885572044164"><ele>105.0</ele><time>2026-04-12T07:30:00Z</time></trkpt><trkpt lat="45.43915261042884" lon="9.288491085548827"><ele>105.0</ele><time>2026-04-12T07:30:02Z</time></trkpt><trkpt lat="45.439253606150295" lon="9.288409777248607"><ele>105.0</ele><time>2026-04-12T07:30:04Z</time></trkpt><trkpt lat="45.43935368426221" lon="9.2883437280685"><ele>105.0</ele><time>2026-04-12T07:30:06Z</time></trkpt><trkpt lat="45.43945685214568" lon="9.2883043514053"><ele>105.0</ele><time>2026-04-12T07:30:08Z</time></trkpt><trkpt lat="45.439559670089935" lon="9.288269823083487"><ele>105.0</ele><time>2026-04-12T07:30:10Z</time></trkpt><trkpt lat="45.43966364279848" lon="9.288219559682322"><ele>104.8</ele><time>2026-04-12T07:30:12Z</time></trkpt><trkpt lat="45.43976515814623" lon="9.288179295296487"><ele>104.6</ele><time>2026-04-12T07:30:14Z</time></trkpt><trkpt lat="45.4398703800614" lon="9.288142450737118"><ele>104.4</ele><time>2026-04-12T07:30:16Z</time></trkpt><trkpt lat="45.439974071255094" lon="9.288110042462115"><ele>104.2</ele><time>2026-04-12T07:30:18Z</time></trkpt><trkpt lat="45.44007855285106" lon="9.288073800888672"><ele>104.0</ele><time>2026-04-12T07:30:20Z</time></trkpt><trkpt lat="45.44017903236387" lon="9.288006514997074"><ele>104.0</ele><time>2026-04-12T07:30:22Z</time></trkpt><trkpt lat="45.44028887550527" lon="9.287988740030322"><ele>104.0</ele><time>2026-04-12T07:30:24Z</time></trkpt><trkpt lat="45.44039547460689" lon="9.287950269176806"><ele>104.0</ele><time>2026-04-12T07:30:26Z</time></trkpt><trkpt lat="45.44049920374835" lon="9.287915430995199"><ele>104.0</ele><time>2026-04-12T07:30:28Z</time></trkpt><trkpt lat="45.44060429815337" lon="9.287880501187951"><ele>104.0</ele><time>2026-04-12T07:30:30Z</time></trkpt><trkpt lat="45.44071038488742" lon="9.2878462018397"><ele>104.0</ele><time>2026-04-12T07:30:32Z</time></trkpt><trkpt lat="45.44081289482625" lon="9.287819605046781"><ele>104.0</ele><time>2026-04-12T07:30:34Z</time></trkpt><trkpt lat="45.4409157450824" lon="9.287778979539329"><ele>104.0</ele><time>2026-04-12T07:30:36Z</time></trkpt><trkpt lat="45.44102032942704" lon="9.2877449068952"><ele>104.0</ele><time>2026-04-12T07:30:38Z</time></trkpt><trkpt lat="45.44112178078944" lon="9.287706709411218"><ele>104.0</ele><time>2026-04-12T07:30:40Z</time></trkpt><trkpt lat="45.44122611657453" lon="9.28768278059736"><ele>104.0</ele><time>2026-04-12T07:30:42.001Z</time></trkpt><trkpt lat="45.4413289812822" lon="9.287653675398477"><ele>104.0</ele><time>2026-04-12T07:30:44.001Z</time></trkpt><trkpt lat="45.441431723442065" lon="9.287616515752733"><ele>104.0</ele><time>2026-04-12T07:30:46.001Z</time></trkpt><trkpt lat="45.44153750649597" lon="9.287592535738307"><ele>104.0</ele><time>2026-04-12T07:30:48.001Z</time></trkpt><trkpt lat="45.4416442296582" lon="9.28755942473634"><ele>104.0</ele><time>2026-04-12T07:30:50.001Z</time></trkpt><trkpt lat="45.4417527523355" lon="9.287541659050792"><ele>104.0</ele><time>2026-04-12T07:30:52.001Z</time></trkpt><trkpt lat="45.44185942725002" lon="9.287527483032589"><ele>104.0</ele><time>2026-04-12T07:30:54.001Z</time></trkpt><trkpt lat="45.441962491281146" lon="9.287527384225134"><ele>104.0</ele><time>2026-04-12T07:30:56.001Z</time></trkpt><trkpt lat="45.442064589147094" lon="9.287522555081992"><ele>104.0</ele><time>2026-04-12T07:30:58.001Z</time></trkpt><trkpt lat="45.44216587851333" lon="9.287535395173506"><ele>104.0</ele><time>2026-04-12T07:31:00.001Z</time></trkpt><trkpt lat="45.44226873084058" lon="9.287522277539413"><ele>104.0</ele><time>2026-04-12T07:31:02.001Z</time></trkpt><trkpt lat="45.44236658346893" lon="9.28752555811796"><ele>104.0</ele><time>2026-04-12T07:31:04.001Z</time></trkpt><trkpt lat="45.44246347363121" lon="9.287529210157846"><ele>104.0</ele><time>2026-04-12T07:31:06.001Z</time></trkpt><trkpt lat="45.4425639964738" lon="9.287535534052468"><ele>104.0</ele><time>2026-04-12T07:31:08.001Z</time></trkpt><trkpt lat="45.44266017725599" lon="9.287547357881955"><ele>104.0</ele><time>2026-04-12T07:31:10.001Z</time></trkpt><trkpt lat="45.44275355931016" lon="9.28755100343141"><ele>104.0</ele><time>2026-04-12T07:31:12.001Z</time></trkpt><trkpt lat="45.44285781968654" lon="9.287562668848588"><ele>104.0</ele><time>2026-04-12T07:31:14.001Z</time></trkpt><trkpt lat="45.44295974271881" lon="9.287569257064693"><ele>104.0</ele><time>2026-04-12T07:31:16.001Z</time></trkpt><trkpt lat="45.44305954768691" lon="9.28757755176315"><ele>104.0</ele><time>2026-04-12T07:31:18.001Z</time></trkpt><trkpt lat="45.44316036331652" lon="9.287585973028031"><ele>104.0</ele><time>2026-04-12T07:31:20Z</time></trkpt><trkpt lat="45.44326377547795" lon="9.287596469677302"><ele>103.80000000000001</ele><time>2026-04-12T07:31:22Z</time></trkpt><trkpt lat="45.44336548715267" lon="9.287608147414591"><ele>103.60000000000001</ele><time>2026-04-12T07:31:24Z</time></trkpt><trkpt lat="45.4434658380891" lon="9.287620367927065"><ele>103.4</ele><time>2026-04-12T07:31:26Z</time></trkpt><trkpt lat="45.44356404532174" lon="9.287619703104548"><ele>103.2</ele><time>2026-04-12T07:31:28Z</time></trkpt><trkpt lat="45.44365704217178" lon="9.287625491519984"><ele>103.0</ele><time>2026-04-12T07:31:30Z</time></trkpt><trkpt lat="45.44374565925347" lon="9.287643037320105"><ele>103.16666666666667</ele><time>2026-04-12T07:31:32Z</time></trkpt><trkpt lat="45.44381464675862" lon="9.287701280952696"><ele>103.33333333333334</ele><time>2026-04-12T07:31:34Z</time></trkpt><trkpt lat="45.44386640014642" lon="9.287788736984423"><ele>103.5</ele><time>2026-04-12T07:31:36Z</time></trkpt><trkpt lat="45.443915061205246" lon="9.287862375161595"><ele>103.66666666666666</ele><time>2026-04-12T07:31:38Z</time></trkpt><trkpt lat="45.44397655719422" lon="9.287941856244718"><ele>103.83333333333333</ele><time>2026-04-12T07:31:41Z</time></trkpt><trkpt lat="45.44406090426882" lon="9.287937203853838"><ele>104.0</ele><time>2026-04-12T07:31:44Z</time></trkpt><trkpt lat="45.44412693540947" lon="9.287873566974874"><ele>103.99999999999999</ele><time>2026-04-12T07:31:46Z</time></trkpt><trkpt lat="45.44415939698335" lon="9.287755381915337"><ele>104.0</ele><time>2026-04-12T07:31:48Z</time></trkpt><trkpt lat="45.44420898495854" lon="9.287665263116061"><ele>104.0</ele><time>2026-04-12T07:31:50Z</time></trkpt><trkpt lat="45.44426729466495" lon="9.287596531742523"><ele>104.0</ele><time>2026-04-12T07:31:53Z</time></trkpt><trkpt lat="45.44430548173873" lon="9.287473262457436"><ele>103.99999999999999</ele><time>2026-04-12T07:31:57Z</time></trkpt><trkpt lat="45.44433333520993" lon="9.28737201255896"><ele>104.0</ele><time>2026-04-12T07:31:59Z</time></trkpt><trkpt lat="45.444403785209964" lon="9.287370724118322"><ele>103.99999999999999</ele><time>2026-04-12T07:32:01Z</time></trkpt><trkpt lat="45.44447036793969" lon="9.28738505040268"><ele>104.0</ele><time>2026-04-12T07:32:03Z</time></trkpt><trkpt lat="45.44456191252375" lon="9.287389539094015"><ele>104.0</ele><time>2026-04-12T07:32:05Z</time></trkpt><trkpt lat="45.44465333885052" lon="9.287394228592506"><ele>104.0</ele><time>2026-04-12T07:32:07Z</time></trkpt><trkpt lat="45.44475037411542" lon="9.287402152048632"><ele>103.99999999999999</ele><time>2026-04-12T07:32:09Z</time></trkpt><trkpt lat="45.44484784779113" lon="9.287421135258548"><ele>104.0</ele><time>2026-04-12T07:32:11Z</time></trkpt><trkpt lat="45.44494498126448" lon="9.287424105507265"><ele>104.4</ele><time>2026-04-12T07:32:13Z</time></trkpt><trkpt lat="45.44504172971749" lon="9.287426721288242"><ele>104.80000000000001</ele><time>2026-04-12T07:32:15Z</time></trkpt><trkpt lat="45.445134181319816" lon="9.28743940005915"><ele>105.19999999999999</ele><time>2026-04-12T07:32:17Z</time></trkpt><trkpt lat="45.44522584147913" lon="9.287451956325127"><ele>105.6</ele><time>2026-04-12T07:32:19Z</time></trkpt><trkpt lat="45.44531983457" lon="9.287456589630981"><ele>106.0</ele><time>2026-04-12T07:32:21Z</time></trkpt><trkpt lat="45.4454146645906" lon="9.28746129190136"><ele>106.0</ele><time>2026-04-12T07:32:23Z</time></trkpt><trkpt lat="45.4455126945873" lon="9.287471976463625"><ele>106.0</ele><time>2026-04-12T07:32:25Z</time></trkpt><trkpt lat="45.44561196412437" lon="9.28747786993303"><ele>106.0</ele><time>2026-04-12T07:32:27Z</time></trkpt><trkpt lat="45.44571426314666" lon="9.287484765329781"><ele>106.0</ele><time>2026-04-12T07:32:29Z</time></trkpt><trkpt lat="45.445816494950904" lon="9.28749570184813"><ele>106.0</ele><time>2026-04-12T07:32:31Z</time></trkpt><trkpt lat="45.44591713931368" lon="9.28750320773004"><ele>106.0</ele><time>2026-04-12T07:32:33Z</time></trkpt><trkpt lat="45.446022297209566" lon="9.287517992953298"><ele>106.0</ele><time>2026-04-12T07:32:35Z</time></trkpt><trkpt lat="45.4461157497732" lon="9.287528111171675"><ele>106.0</ele><time>2026-04-12T07:32:37.001Z</time></trkpt><trkpt lat="45.44621060115045" lon="9.287530156531087"><ele>106.0</ele><time>2026-04-12T07:32:39.001Z</time></trkpt><trkpt lat="45.446307010271546" lon="9.287547066166427"><ele>106.0</ele><time>2026-04-12T07:32:41.001Z</time></trkpt><trkpt lat="45.44640204777295" lon="9.287551531378188"><ele>106.19999999999999</ele><time>2026-04-12T07:32:43.001Z</time></trkpt><trkpt lat="45.44649674381579" lon="9.287567775813516"><ele>106.39999999999999</ele><time>2026-04-12T07:32:45.001Z</time></trkpt><trkpt lat="45.446595670107286" lon="9.287571673506301"><ele>106.6</ele><time>2026-04-12T07:32:47.001Z</time></trkpt><trkpt lat="45.44669254501673" lon="9.287581665448975"><ele>106.8</ele><time>2026-04-12T07:32:49.001Z</time></trkpt><trkpt lat="45.44679015839863" lon="9.287590399626268"><ele>107.0</ele><time>2026-04-12T07:32:51.001Z</time></trkpt><trkpt lat="45.44689079707925" lon="9.287599500088206"><ele>107.0</ele><time>2026-04-12T07:32:53.001Z</time></trkpt><trkpt lat="45.44698819101531" lon="9.287610383800184"><ele>106.99999999999999</ele><time>2026-04-12T07:32:55.001Z</time></trkpt><trkpt lat="45.4470843135305" lon="9.28762170210304"><ele>106.99999999999999</ele><time>2026-04-12T07:32:57.001Z</time></trkpt><trkpt lat="45.447180783071374" lon="9.287631646694322"><ele>107.0</ele><time>2026-04-12T07:32:59.001Z</time></trkpt><trkpt lat="45.44728107273162" lon="9.287639238246214"><ele>107.0</ele><time>2026-04-12T07:33:01.001Z</time></trkpt><trkpt lat="45.44738714039439" lon="9.287645752856527"><ele>106.75</ele><time>2026-04-12T07:33:03.001Z</time></trkpt><trkpt lat="45.447502154872744" lon="9.287668186956559"><ele>106.5</ele><time>2026-04-12T07:33:05.001Z</time></trkpt><trkpt lat="45.44761591715924" lon="9.287707953780806"><ele>106.25</ele><time>2026-04-12T07:33:07.001Z</time></trkpt><trkpt lat="45.44772901678786" lon="9.28772606933455"><ele>106.0</ele><time>2026-04-12T07:33:09.001Z</time></trkpt><trkpt lat="45.44784327863696" lon="9.287740776533276"><ele>105.0</ele><time>2026-04-12T07:33:11.001Z</time></trkpt><trkpt lat="45.44796632794341" lon="9.287761915239319"><ele>104.0</ele><time>2026-04-12T07:33:13.001Z</time></trkpt><trkpt lat="45.44808381121752" lon="9.287770706317264"><ele>103.0</ele><time>2026-04-12T07:33:15.001Z</time></trkpt><trkpt lat="45.44819959437194" lon="9.287779793549849"><ele>102.0</ele><time>2026-04-12T07:33:17.001Z</time></trkpt><trkpt lat="45.4483179262142" lon="9.287788725534375"><ele>102.0</ele><time>2026-04-12T07:33:19.001Z</time></trkpt><trkpt lat="45.44843861681795" lon="9.287799172628846"><ele>102.0</ele><time>2026-04-12T07:33:21.001Z</time></trkpt><trkpt lat="45.44856041248246" lon="9.28781039687995"><ele>102.0</ele><time>2026-04-12T07:33:23.001Z</time></trkpt><trkpt lat="45.44862338277087" lon="9.287814736834834"><ele>102.0</ele><time>2026-04-12T07:33:24.001Z</time></trkpt><trkpt lat="45.44874379828336" lon="9.28783240383485"><ele>102.0</ele><time>2026-04-12T07:33:26Z</time></trkpt><trkpt lat="45.44886498788719" lon="9.287840847232273"><ele>102.5</ele><time>2026-04-12T07:33:28Z</time></trkpt><trkpt lat="45.44898548358697" lon="9.287845229537018"><ele>103.0</ele><time>2026-04-12T07:33:30Z</time></trkpt><trkpt lat="45.44910660501327" lon="9.287850433436597"><ele>103.5</ele><time>2026-04-12T07:33:32Z</time></trkpt><trkpt lat="45.44922724210561" lon="9.287859212085097"><ele>104.0</ele><time>2026-04-12T07:33:34Z</time></trkpt><trkpt lat="45.44934764637432" lon="9.287874400514621"><ele>103.99999999999999</ele><time>2026-04-12T07:33:36Z</time></trkpt><trkpt lat="45.44941393725782" lon="9.287884019292488"><ele>104.0</ele><time>2026-04-12T07:33:37Z</time></trkpt><trkpt lat="45.449478589292845" lon="9.28788760013841"><ele>104.0</ele><time>2026-04-12T07:33:38Z</time></trkpt><trkpt lat="45.44954316742757" lon="9.287882243248765"><ele>104.0</ele><time>2026-04-12T07:33:39Z</time></trkpt><trkpt lat="45.449605306328145" lon="9.287862117186476"><ele>103.99999999999999</ele><time>2026-04-12T07:33:40Z</time></trkpt><trkpt lat="45.44966933871068" lon="9.287852050152955"><ele>104.0</ele><time>2026-04-12T07:33:41Z</time></trkpt><trkpt lat="45.44979474069943" lon="9.28782668335759"><ele>104.4</ele><time>2026-04-12T07:33:43Z</time></trkpt><trkpt lat="45.44985619323387" lon="9.287806492385961"><ele>104.80000000000001</ele><time>2026-04-12T07:33:44Z</time></trkpt><trkpt lat="45.449978969014985" lon="9.28777964404159"><ele>105.19999999999999</ele><time>2026-04-12T07:33:46Z</time></trkpt><trkpt lat="45.450048049952116" lon="9.287765250325998"><ele>105.6</ele><time>2026-04-12T07:33:47Z</time></trkpt><trkpt lat="45.450160963638496" lon="9.287738163072474"><ele>106.0</ele><time>2026-04-12T07:33:49Z</time></trkpt><trkpt lat="45.450280067332706" lon="9.287711011207815"><ele>106.0</ele><time>2026-04-12T07:33:51Z</time></trkpt><trkpt lat="45.450399216550274" lon="9.28768186659802"><ele>106.0</ele><time>2026-04-12T07:33:53Z</time></trkpt><trkpt lat="45.450518794620876" lon="9.287659135807923"><ele>106.0</ele><time>2026-04-12T07:33:55Z</time></trkpt><trkpt lat="45.45064187325417" lon="9.287670799708287"><ele>106.0</ele><time>2026-04-12T07:33:57Z</time></trkpt><trkpt lat="45.45075992933089" lon="9.287720994145756"><ele>106.6</ele><time>2026-04-12T07:33:59Z</time></trkpt><trkpt lat="45.450872157276045" lon="9.287787405586588"><ele>107.19999999999999</ele><time>2026-04-12T07:34:01Z</time></trkpt><trkpt lat="45.45099124657683" lon="9.287830448456177"><ele>107.80000000000001</ele><time>2026-04-12T07:34:03Z</time></trkpt><trkpt lat="45.45110899888407" lon="9.287767512124548"><ele>108.4</ele><time>2026-04-12T07:34:05Z</time></trkpt><trkpt lat="45.45114365985404" lon="9.287682368102603"><ele>109.0</ele><time>2026-04-12T07:34:06Z</time></trkpt><trkpt lat="45.45115280878937" lon="9.287587688221555"><ele>109.0</ele><time>2026-04-12T07:34:07Z</time></trkpt><trkpt lat="45.45115458202144" lon="9.287415397657794"><ele>109.0</ele><time>2026-04-12T07:34:09Z</time></trkpt><trkpt lat="45.45117181260006" lon="9.287256099783116"><ele>109.0</ele><time>2026-04-12T07:34:11Z</time></trkpt><trkpt lat="45.4511725790073" lon="9.287111648864592"><ele>109.0</ele><time>2026-04-12T07:34:13Z</time></trkpt><trkpt lat="45.451206426576405" lon="9.287029707728195"><ele>109.0</ele><time>2026-04-12T07:34:15Z</time></trkpt><trkpt lat="45.4512862182862" lon="9.28703493764516"><ele>109.00000000000001</ele><time>2026-04-12T07:34:17Z</time></trkpt><trkpt lat="45.45136136718462" lon="9.287069717218422"><ele>109.0</ele><time>2026-04-12T07:34:19Z</time></trkpt><trkpt lat="45.451441164452056" lon="9.28707617576938"><ele>109.0</ele><time>2026-04-12T07:34:21Z</time></trkpt><trkpt lat="45.45153260673103" lon="9.287088108046936"><ele>109.0</ele><time>2026-04-12T07:34:23Z</time></trkpt><trkpt lat="45.45162265540622" lon="9.287104812956121"><ele>109.00000000000001</ele><time>2026-04-12T07:34:25Z</time></trkpt><trkpt lat="45.45172239008126" lon="9.287125230380484"><ele>109.0</ele><time>2026-04-12T07:34:27Z</time></trkpt><trkpt lat="45.45181991915843" lon="9.28713453165822"><ele>109.0</ele><time>2026-04-12T07:34:29Z</time></trkpt><trkpt lat="45.451909732340766" lon="9.287143794503512"><ele>109.0</ele><time>2026-04-12T07:34:31Z</time></trkpt><trkpt lat="45.45199582536005" lon="9.287166557321248"><ele>109.0</ele><time>2026-04-12T07:34:33Z</time></trkpt><trkpt lat="45.45208315914174" lon="9.28717761385564"><ele>109.0</ele><time>2026-04-12T07:34:35Z</time></trkpt><trkpt lat="45.45215339204464" lon="9.287260038882714"><ele>109.0</ele><time>2026-04-12T07:34:37Z</time></trkpt><trkpt lat="45.452151147102605" lon="9.287414914866071"><ele>109.00000000000001</ele><time>2026-04-12T07:34:39Z</time></trkpt><trkpt lat="45.45213317811176" lon="9.287550919524962"><ele>109.0</ele><time>2026-04-12T07:34:41Z</time></trkpt><trkpt lat="45.45212446343301" lon="9.287679917476678"><ele>109.0</ele><time>2026-04-12T07:34:43Z</time></trkpt><trkpt lat="45.452114201024415" lon="9.287793545362746"><ele>109.0</ele><time>2026-04-12T07:34:45Z</time></trkpt><trkpt lat="45.45211188052608" lon="9.287916553256958"><ele>109.00000000000001</ele><time>2026-04-12T07:34:48.001Z</time></trkpt><trkpt lat="45.452056307901294" lon="9.287973904122156"><ele>109.0</ele><time>2026-04-12T07:34:50.001Z</time></trkpt><trkpt lat="45.45206388444534" lon="9.288075398127875"><ele>109.00000000000001</ele><time>2026-04-12T07:34:53.001Z</time></trkpt><trkpt lat="45.45213861557534" lon="9.2880869473737"><ele>109.0</ele><time>2026-04-12T07:34:55.001Z</time></trkpt><trkpt lat="45.4522266378789" lon="9.288082932302665"><ele>109.0</ele><time>2026-04-12T07:34:57.001Z</time></trkpt><trkpt lat="45.45232563078074" lon="9.288071719479428"><ele>109.0</ele><time>2026-04-12T07:34:59.001Z</time></trkpt><trkpt lat="45.45240231963935" lon="9.288093412480494"><ele>109.00000000000001</ele><time>2026-04-12T07:35:01.001Z</time></trkpt><trkpt lat="45.452472290160486" lon="9.28815622571162"><ele>109.0</ele><time>2026-04-12T07:35:04.001Z</time></trkpt><trkpt lat="45.45249643605125" lon="9.288262914434215"><ele>109.00000000000001</ele><time>2026-04-12T07:35:08.001Z</time></trkpt><trkpt lat="45.45250187290439" lon="9.288403502691386"><ele>109.0</ele><time>2026-04-12T07:35:11.001Z</time></trkpt><trkpt lat="45.45249571267923" lon="9.28851420310758"><ele>109.0</ele><time>2026-04-12T07:35:13.001Z</time></trkpt><trkpt lat="45.45248972576801" lon="9.288620732465581"><ele>109.0</ele><time>2026-04-12T07:35:15.001Z</time></trkpt><trkpt lat="45.4524793659651" lon="9.288730827457734"><ele>109.00000000000001</ele><time>2026-04-12T07:35:17.001Z</time></trkpt><trkpt lat="45.452469377754376" lon="9.28884646361536"><ele>109.0</ele><time>2026-04-12T07:35:19.001Z</time></trkpt><trkpt lat="45.45246870109722" lon="9.288954340399538"><ele>109.2</ele><time>2026-04-12T07:35:21.001Z</time></trkpt><trkpt lat="45.452452871650095" lon="9.289084607347828"><ele>109.4</ele><time>2026-04-12T07:35:23.001Z</time></trkpt><trkpt lat="45.45244267964126" lon="9.289211110167791"><ele>109.6</ele><time>2026-04-12T07:35:25.001Z</time></trkpt><trkpt lat="45.4524380959439" lon="9.289330659554382"><ele>109.8</ele><time>2026-04-12T07:35:27.001Z</time></trkpt><trkpt lat="45.45242329455474" lon="9.289467381254532"><ele>110.0</ele><time>2026-04-12T07:35:29.001Z</time></trkpt><trkpt lat="45.45241198330497" lon="9.289612077983444"><ele>110.2</ele><time>2026-04-12T07:35:31Z</time></trkpt><trkpt lat="45.45239979532721" lon="9.289759036320529"><ele>110.4</ele><time>2026-04-12T07:35:33Z</time></trkpt><trkpt lat="45.45238629063876" lon="9.28990417242244"><ele>110.6</ele><time>2026-04-12T07:35:35Z</time></trkpt><trkpt lat="45.45238947180429" lon="9.29005278454255"><ele>110.8</ele><time>2026-04-12T07:35:37Z</time></trkpt><trkpt lat="45.452412372855676" lon="9.29018936414125"><ele>111.0</ele><time>2026-04-12T07:35:39Z</time></trkpt><trkpt lat="45.45241931166883" lon="9.290326244574509"><ele>111.0</ele><time>2026-04-12T07:35:41Z</time></trkpt><trkpt lat="45.45241032757827" lon="9.290461867154892"><ele>111.0</ele><time>2026-04-12T07:35:43Z</time></trkpt><trkpt lat="45.452399058649846" lon="9.290593105218818"><ele>111.0</ele><time>2026-04-12T07:35:45Z</time></trkpt><trkpt lat="45.452397704216" lon="9.290731739541414"><ele>111.0</ele><time>2026-04-12T07:35:47Z</time></trkpt><trkpt lat="45.45245503670259" lon="9.29084763842806"><ele>111.0</ele><time>2026-04-12T07:35:49Z</time></trkpt><trkpt lat="45.45253980965581" lon="9.290924635309763"><ele>110.8</ele><time>2026-04-12T07:35:51Z</time></trkpt><trkpt lat="45.452627580172816" lon="9.290986217683963"><ele>110.6</ele><time>2026-04-12T07:35:53Z</time></trkpt><trkpt lat="45.45271467748822" lon="9.291049791181553"><ele>110.4</ele><time>2026-04-12T07:35:55Z</time></trkpt><trkpt lat="45.45280720207961" lon="9.291109131307937"><ele>110.2</ele><time>2026-04-12T07:35:57Z</time></trkpt><trkpt lat="45.45289935410751" lon="9.291156516976132"><ele>110.0</ele><time>2026-04-12T07:35:59Z</time></trkpt><trkpt lat="45.45299496054951" lon="9.291205646285544"><ele>109.6</ele><time>2026-04-12T07:36:01Z</time></trkpt><trkpt lat="45.453092204569764" lon="9.291234112448844"><ele>109.2</ele><time>2026-04-12T07:36:03Z</time></trkpt><trkpt lat="45.453193507770976" lon="9.291250804742699"><ele>108.80000000000001</ele><time>2026-04-12T07:36:05Z</time></trkpt><trkpt lat="45.45329250081117" lon="9.29126781589083"><ele>108.4</ele><time>2026-04-12T07:36:07Z</time></trkpt><trkpt lat="45.4533889896882" lon="9.291303914083727"><ele>108.0</ele><time>2026-04-12T07:36:09Z</time></trkpt><trkpt lat="45.45347326827544" lon="9.291382764332981"><ele>108.0</ele><time>2026-04-12T07:36:11Z</time></trkpt><trkpt lat="45.45357061039922" lon="9.291445139969687"><ele>108.00000000000001</ele><time>2026-04-12T07:36:13Z</time></trkpt><trkpt lat="45.453679428204126" lon="9.291475997781133"><ele>108.00000000000001</ele><time>2026-04-12T07:36:15Z</time></trkpt><trkpt lat="45.453776889010385" lon="9.29149893129873"><ele>108.0</ele><time>2026-04-12T07:36:17Z</time></trkpt><trkpt lat="45.45386668895406" lon="9.291530547098098"><ele>108.0</ele><time>2026-04-12T07:36:19Z</time></trkpt><trkpt lat="45.45396260832927" lon="9.291552602136699"><ele>108.0</ele><time>2026-04-12T07:36:21Z</time></trkpt><trkpt lat="45.45405790387731" lon="9.291560970698361"><ele>108.0</ele><time>2026-04-12T07:36:23Z</time></trkpt><trkpt lat="45.45415228708812" lon="9.29154260948622"><ele>108.0</ele><time>2026-04-12T07:36:25Z</time></trkpt><trkpt lat="45.45423962250656" lon="9.291524955004466"><ele>108.0</ele><time>2026-04-12T07:36:27Z</time></trkpt><trkpt lat="45.45431496249537" lon="9.291508911466849"><ele>108.0</ele><time>2026-04-12T07:36:29Z</time></trkpt><trkpt lat="45.45438313228961" lon="9.291486789692659"><ele>108.0</ele><time>2026-04-12T07:36:31Z</time></trkpt><trkpt lat="45.454461971993325" lon="9.291474791356892"><ele>108.0</ele><time>2026-04-12T07:36:33Z</time></trkpt><trkpt lat="45.45454793717681" lon="9.29150438524671"><ele>108.0</ele><time>2026-04-12T07:36:35Z</time></trkpt><trkpt lat="45.454636215495256" lon="9.291521221308669"><ele>108.0</ele><time>2026-04-12T07:36:37Z</time></trkpt><trkpt lat="45.45472273091996" lon="9.291535971871028"><ele>108.0</ele><time>2026-04-12T07:36:39Z</time></trkpt><trkpt lat="45.454811469860246" lon="9.29154941525187"><ele>108.0</ele><time>2026-04-12T07:36:41Z</time></trkpt><trkpt lat="45.45490224424651" lon="9.291566270428165"><ele>108.0</ele><time>2026-04-12T07:36:43Z</time></trkpt><trkpt lat="45.45499338298737" lon="9.291571925084781"><ele>108.16666666666667</ele><time>2026-04-12T07:36:45Z</time></trkpt><trkpt lat="45.455075519256724" lon="9.291588609921996"><ele>108.33333333333334</ele><time>2026-04-12T07:36:47Z</time></trkpt><trkpt lat="45.45516698379488" lon="9.291599764115245"><ele>108.5</ele><time>2026-04-12T07:36:49Z</time></trkpt><trkpt lat="45.45525781767236" lon="9.29161248348631"><ele>108.66666666666667</ele><time>2026-04-12T07:36:51Z</time></trkpt><trkpt lat="45.45535018648732" lon="9.291620833520486"><ele>108.83333333333334</ele><time>2026-04-12T07:36:53Z</time></trkpt><trkpt lat="45.4554340741084" lon="9.291609440832593"><ele>109.0</ele><time>2026-04-12T07:36:55Z</time></trkpt><trkpt lat="45.455533485203055" lon="9.291616764935146"><ele>109.4</ele><time>2026-04-12T07:36:57Z</time></trkpt><trkpt lat="45.45562300757748" lon="9.29160791718212"><ele>109.80000000000001</ele><time>2026-04-12T07:36:59Z</time></trkpt><trkpt lat="45.455716380785454" lon="9.291596219309117"><ele>110.19999999999999</ele><time>2026-04-12T07:37:01Z</time></trkpt><trkpt lat="45.45580609856169" lon="9.291578974196687"><ele>110.6</ele><time>2026-04-12T07:37:03.001Z</time></trkpt><trkpt lat="45.455892166855776" lon="9.29155632327847"><ele>111.0</ele><time>2026-04-12T07:37:05.001Z</time></trkpt><trkpt lat="45.45598077193101" lon="9.291527128140023"><ele>111.0</ele><time>2026-04-12T07:37:07.001Z</time></trkpt><trkpt lat="45.45606953971333" lon="9.291485970125633"><ele>111.0</ele><time>2026-04-12T07:37:09.001Z</time></trkpt><trkpt lat="45.45616327205542" lon="9.291453180808233"><ele>111.0</ele><time>2026-04-12T07:37:11.001Z</time></trkpt><trkpt lat="45.45624978512393" lon="9.29140811192645"><ele>111.0</ele><time>2026-04-12T07:37:13.001Z</time></trkpt><trkpt lat="45.45633820012433" lon="9.2913580232914"><ele>111.0</ele><time>2026-04-12T07:37:15.001Z</time></trkpt><trkpt lat="45.45642369312294" lon="9.291310744861153"><ele>111.4</ele><time>2026-04-12T07:37:17.001Z</time></trkpt><trkpt lat="45.456506752844554" lon="9.291243387742314"><ele>111.8</ele><time>2026-04-12T07:37:19.001Z</time></trkpt><trkpt lat="45.45658054305994" lon="9.291131321119147"><ele>112.20000000000002</ele><time>2026-04-12T07:37:21.001Z</time></trkpt><trkpt lat="45.45665318386488" lon="9.291031391749236"><ele>112.60000000000001</ele><time>2026-04-12T07:37:23.001Z</time></trkpt><trkpt lat="45.45673159790286" lon="9.290953709172728"><ele>113.0</ele><time>2026-04-12T07:37:25.001Z</time></trkpt><trkpt lat="45.4568050699193" lon="9.290880036635489"><ele>113.0</ele><time>2026-04-12T07:37:27.001Z</time></trkpt><trkpt lat="45.45688797746903" lon="9.290805462586354"><ele>113.00000000000001</ele><time>2026-04-12T07:37:29.001Z</time></trkpt><trkpt lat="45.45696482961682" lon="9.2907336364036"><ele>113.00000000000001</ele><time>2026-04-12T07:37:31.001Z</time></trkpt><trkpt lat="45.4570420949508" lon="9.290664136238842"><ele>113.0</ele><time>2026-04-12T07:37:33.001Z</time></trkpt><trkpt lat="45.45710892876407" lon="9.2906100883873"><ele>113.0</ele><time>2026-04-12T07:37:35.001Z</time></trkpt><trkpt lat="45.45719091665719" lon="9.290526380884785"><ele>112.33333333333333</ele><time>2026-04-12T07:37:37Z</time></trkpt><trkpt lat="45.4572648576536" lon="9.29045589077752"><ele>111.66666666666666</ele><time>2026-04-12T07:37:39Z</time></trkpt><trkpt lat="45.457338099808204" lon="9.290384319920276"><ele>111.0</ele><time>2026-04-12T07:37:41Z</time></trkpt><trkpt lat="45.45741350565191" lon="9.290318476627178"><ele>110.33333333333334</ele><time>2026-04-12T07:37:43Z</time></trkpt><trkpt lat="45.45749187006949" lon="9.290263716904695"><ele>109.66666666666667</ele><time>2026-04-12T07:37:45Z</time></trkpt><trkpt lat="45.457577213993545" lon="9.290223758084608"><ele>109.0</ele><time>2026-04-12T07:37:47Z</time></trkpt><trkpt lat="45.45766566198692" lon="9.290205372079246"><ele>109.00000000000001</ele><time>2026-04-12T07:37:49Z</time></trkpt><trkpt lat="45.457751851292194" lon="9.290211963459438"><ele>109.0</ele><time>2026-04-12T07:37:51Z</time></trkpt><trkpt lat="45.45783177038399" lon="9.290223827296423"><ele>109.0</ele><time>2026-04-12T07:37:53Z</time></trkpt><trkpt lat="45.45791402338807" lon="9.290232653947237"><ele>109.0</ele><time>2026-04-12T07:37:55Z</time></trkpt><trkpt lat="45.45801004265513" lon="9.290240579278043"><ele>109.00000000000001</ele><time>2026-04-12T07:37:57Z</time></trkpt><trkpt lat="45.45810303233696" lon="9.29026098257248"><ele>109.0</ele><time>2026-04-12T07:37:59Z</time></trkpt><trkpt lat="45.458195612217416" lon="9.290278838539434"><ele>109.33333333333334</ele><time>2026-04-12T07:38:01Z</time></trkpt><trkpt lat="45.458284782474756" lon="9.290287070385071"><ele>109.66666666666667</ele><time>2026-04-12T07:38:03Z</time></trkpt><trkpt lat="45.458374624434185" lon="9.290301671463357"><ele>110.0</ele><time>2026-04-12T07:38:05Z</time></trkpt><trkpt lat="45.45846378053002" lon="9.290322775411317"><ele>110.33333333333334</ele><time>2026-04-12T07:38:07Z</time></trkpt><trkpt lat="45.458550949932004" lon="9.290325296786177"><ele>110.66666666666667</ele><time>2026-04-12T07:38:09Z</time></trkpt><trkpt lat="45.45863961142642" lon="9.290345715789432"><ele>111.0</ele><time>2026-04-12T07:38:11Z</time></trkpt><trkpt lat="45.458733031809494" lon="9.29036072189286"><ele>110.6</ele><time>2026-04-12T07:38:13Z</time></trkpt><trkpt lat="45.458826203487014" lon="9.290379139324696"><ele>110.19999999999999</ele><time>2026-04-12T07:38:15Z</time></trkpt><trkpt lat="45.45891700457852" lon="9.290406419325619"><ele>109.80000000000001</ele><time>2026-04-12T07:38:17Z</time></trkpt><trkpt lat="45.45900744668146" lon="9.29041852964704"><ele>109.4</ele><time>2026-04-12T07:38:19Z</time></trkpt><trkpt lat="45.459101241344676" lon="9.290434135321494"><ele>109.0</ele><time>2026-04-12T07:38:21Z</time></trkpt><trkpt lat="45.45919631238731" lon="9.290450152168718"><ele>109.0</ele><time>2026-04-12T07:38:23Z</time></trkpt><trkpt lat="45.459291509006846" lon="9.290466561392238"><ele>109.0</ele><time>2026-04-12T07:38:25Z</time></trkpt><trkpt lat="45.459380510016075" lon="9.290491879067936"><ele>109.0</ele><time>2026-04-12T07:38:27Z</time></trkpt><trkpt lat="45.45946763669352" lon="9.290505814140028"><ele>109.0</ele><time>2026-04-12T07:38:29Z</time></trkpt><trkpt lat="45.45955960330504" lon="9.290522245311612"><ele>109.0</ele><time>2026-04-12T07:38:31Z</time></trkpt><trkpt lat="45.45965782155943" lon="9.290538322138847"><ele>109.0</ele><time>2026-04-12T07:38:33Z</time></trkpt><trkpt lat="45.45975272002364" lon="9.290546617748582"><ele>109.0</ele><time>2026-04-12T07:38:35Z</time></trkpt><trkpt lat="45.459840392165475" lon="9.290563054923513"><ele>109.0</ele><time>2026-04-12T07:38:37Z</time></trkpt><trkpt lat="45.45992572252346" lon="9.29057524935196"><ele>109.0</ele><time>2026-04-12T07:38:39Z</time></trkpt><trkpt lat="45.460023808676965" lon="9.290598276788836"><ele>109.0</ele><time>2026-04-12T07:38:41Z</time></trkpt><trkpt lat="45.46011582407952" lon="9.290622640937833"><ele>110.2</ele><time>2026-04-12T07:38:43Z</time></trkpt><trkpt lat="45.460210587604806" lon="9.290634659004438"><ele>111.4</ele><time>2026-04-12T07:38:45Z</time></trkpt><trkpt lat="45.46029822760615" lon="9.290657122341907"><ele>112.6</ele><time>2026-04-12T07:38:47Z</time></trkpt><trkpt lat="45.46039176563819" lon="9.290662500923128"><ele>113.8</ele><time>2026-04-12T07:38:49Z</time></trkpt><trkpt lat="45.46048948502099" lon="9.290679261148513"><ele>115.0</ele><time>2026-04-12T07:38:51Z</time></trkpt><trkpt lat="45.4605846128476" lon="9.290688349933244"><ele>115.0</ele><time>2026-04-12T07:38:53Z</time></trkpt><trkpt lat="45.46068148228525" lon="9.29070605084655"><ele>115.0</ele><time>2026-04-12T07:38:55.001Z</time></trkpt><trkpt lat="45.46077940529934" lon="9.290729847935319"><ele>115.0</ele><time>2026-04-12T07:38:57.001Z</time></trkpt><trkpt lat="45.46087606527593" lon="9.290746079383194"><ele>115.0</ele><time>2026-04-12T07:38:59.001Z</time></trkpt><trkpt lat="45.4609696723918" lon="9.29075771669599"><ele>115.0</ele><time>2026-04-12T07:39:01.001Z</time></trkpt><trkpt lat="45.46106394666659" lon="9.290765350137468"><ele>115.0</ele><time>2026-04-12T07:39:03.001Z</time></trkpt><trkpt lat="45.46116134877935" lon="9.290786847011454"><ele>115.0</ele><time>2026-04-12T07:39:05.001Z</time></trkpt><trkpt lat="45.46125259019428" lon="9.290809352414426"><ele>115.0</ele><time>2026-04-12T07:39:07.001Z</time></trkpt><trkpt lat="45.461344555730406" lon="9.290823683661605"><ele>115.0</ele><time>2026-04-12T07:39:09.001Z</time></trkpt><trkpt lat="45.461436414766325" lon="9.29084282208794"><ele>115.0</ele><time>2026-04-12T07:39:11.001Z</time></trkpt><trkpt lat="45.46152715819553" lon="9.290858547911258"><ele>114.4</ele><time>2026-04-12T07:39:13.001Z</time></trkpt><trkpt lat="45.461619870595456" lon="9.290875071393845"><ele>113.8</ele><time>2026-04-12T07:39:15.001Z</time></trkpt><trkpt lat="45.46171642588622" lon="9.290883879773675"><ele>113.19999999999999</ele><time>2026-04-12T07:39:17.001Z</time></trkpt><trkpt lat="45.46181167335879" lon="9.290900266022295"><ele>112.6</ele><time>2026-04-12T07:39:19.001Z</time></trkpt><trkpt lat="45.46190955296421" lon="9.290914478962232"><ele>112.0</ele><time>2026-04-12T07:39:21.001Z</time></trkpt><trkpt lat="45.46201699326714" lon="9.290926098569756"><ele>112.19999999999999</ele><time>2026-04-12T07:39:23.001Z</time></trkpt><trkpt lat="45.46211773704327" lon="9.29094590508942"><ele>112.39999999999999</ele><time>2026-04-12T07:39:25.001Z</time></trkpt><trkpt lat="45.46221359873328" lon="9.290959497765392"><ele>112.60000000000001</ele><time>2026-04-12T07:39:27.001Z</time></trkpt><trkpt lat="45.46231055969782" lon="9.290981081127466"><ele>112.80000000000001</ele><time>2026-04-12T07:39:29.001Z</time></trkpt><trkpt lat="45.46240419147635" lon="9.290993339151262"><ele>113.0</ele><time>2026-04-12T07:39:31.001Z</time></trkpt><trkpt lat="45.462503325678355" lon="9.2910057114074"><ele>113.0</ele><time>2026-04-12T07:39:33.001Z</time></trkpt><trkpt lat="45.46259983027278" lon="9.291031339049349"><ele>113.00000000000001</ele><time>2026-04-12T07:39:35.001Z</time></trkpt><trkpt lat="45.46268345614462" lon="9.291036187550421"><ele>113.00000000000001</ele><time>2026-04-12T07:39:37.001Z</time></trkpt><trkpt lat="45.462791018503864" lon="9.291052228202709"><ele>113.0</ele><time>2026-04-12T07:39:39.001Z</time></trkpt><trkpt lat="45.462893478193166" lon="9.291071703844498"><ele>113.0</ele><time>2026-04-12T07:39:41.001Z</time></trkpt><trkpt lat="45.46298663264232" lon="9.29106949476994"><ele>112.2</ele><time>2026-04-12T07:39:43Z</time></trkpt><trkpt lat="45.46308119478469" lon="9.291099080983916"><ele>111.4</ele><time>2026-04-12T07:39:45Z</time></trkpt><trkpt lat="45.463174133763104" lon="9.291118994453436"><ele>110.60000000000001</ele><time>2026-04-12T07:39:47Z</time></trkpt><trkpt lat="45.46326940404374" lon="9.291126938596737"><ele>109.80000000000001</ele><time>2026-04-12T07:39:49Z</time></trkpt><trkpt lat="45.46336298837402" lon="9.29114542541838"><ele>109.0</ele><time>2026-04-12T07:39:51Z</time></trkpt><trkpt lat="45.4634616997684" lon="9.291163419548157"><ele>109.0</ele><time>2026-04-12T07:39:53Z</time></trkpt><trkpt lat="45.463558867666" lon="9.291182653986203"><ele>109.0</ele><time>2026-04-12T07:39:55Z</time></trkpt><trkpt lat="45.46365857578408" lon="9.291197845190263"><ele>109.0</ele><time>2026-04-12T07:39:57Z</time></trkpt><trkpt lat="45.46375613205339" lon="9.291211857201178"><ele>109.0</ele><time>2026-04-12T07:39:59Z</time></trkpt><trkpt lat="45.46384499729509" lon="9.291235505419673"><ele>109.0</ele><time>2026-04-12T07:40:01Z</time></trkpt><trkpt lat="45.46392660479235" lon="9.291238680932857"><ele>109.2</ele><time>2026-04-12T07:40:03Z</time></trkpt><trkpt lat="45.46402725728819" lon="9.291260789770059"><ele>109.4</ele><time>2026-04-12T07:40:05Z</time></trkpt><trkpt lat="45.46413445579771" lon="9.291282890176301"><ele>109.6</ele><time>2026-04-12T07:40:07Z</time></trkpt><trkpt lat="45.46423495032405" lon="9.291293746616224"><ele>109.8</ele><time>2026-04-12T07:40:09Z</time></trkpt><trkpt lat="45.464328537948155" lon="9.291313044215919"><ele>110.0</ele><time>2026-04-12T07:40:11Z</time></trkpt><trkpt lat="45.464428537320266" lon="9.291339282435352"><ele>110.0</ele><time>2026-04-12T07:40:13Z</time></trkpt><trkpt lat="45.46453142522658" lon="9.291351346476452"><ele>110.0</ele><time>2026-04-12T07:40:15Z</time></trkpt><trkpt lat="45.46463520608402" lon="9.291371618463462"><ele>110.0</ele><time>2026-04-12T07:40:17Z</time></trkpt><trkpt lat="45.4647408094659" lon="9.291391727778803"><ele>110.0</ele><time>2026-04-12T07:40:19Z</time></trkpt><trkpt lat="45.46484508304138" lon="9.291411477078066"><ele>110.0</ele><time>2026-04-12T07:40:21Z</time></trkpt><trkpt lat="45.46495003904074" lon="9.291441636964796"><ele>111.0</ele><time>2026-04-12T07:40:23Z</time></trkpt><trkpt lat="45.46505472496476" lon="9.29146241265431"><ele>112.0</ele><time>2026-04-12T07:40:25Z</time></trkpt><trkpt lat="45.465157365380435" lon="9.29147580913673"><ele>113.0</ele><time>2026-04-12T07:40:27Z</time></trkpt><trkpt lat="45.46525556136973" lon="9.291496433159004"><ele>114.0</ele><time>2026-04-12T07:40:29Z</time></trkpt><trkpt lat="45.46535480282138" lon="9.291508446370225"><ele>115.0</ele><time>2026-04-12T07:40:31Z</time></trkpt><trkpt lat="45.46545119482691" lon="9.291525233000513"><ele>115.0</ele><time>2026-04-12T07:40:33Z</time></trkpt><trkpt lat="45.465554263253395" lon="9.29154342037605"><ele>115.0</ele><time>2026-04-12T07:40:35Z</time></trkpt><trkpt lat="45.465659119396264" lon="9.291565995269695"><ele>115.0</ele><time>2026-04-12T07:40:37Z</time></trkpt><trkpt lat="45.46576570779409" lon="9.291577923575346"><ele>115.0</ele><time>2026-04-12T07:40:39Z</time></trkpt><trkpt lat="45.46587217418206" lon="9.291596876939723"><ele>115.0</ele><time>2026-04-12T07:40:41Z</time></trkpt><trkpt lat="45.46597536028926" lon="9.29161413319913"><ele>115.0</ele><time>2026-04-12T07:40:43Z</time></trkpt><trkpt lat="45.46607616389421" lon="9.29163539762451"><ele>115.0</ele><time>2026-04-12T07:40:45Z</time></trkpt><trkpt lat="45.46617702396252" lon="9.291653163013866"><ele>115.0</ele><time>2026-04-12T07:40:47Z</time></trkpt><trkpt lat="45.46627437961979" lon="9.291662342379455"><ele>115.0</ele><time>2026-04-12T07:40:49Z</time></trkpt><trkpt lat="45.466372535084176" lon="9.291680830073634"><ele>115.0</ele><time>2026-04-12T07:40:51Z</time></trkpt><trkpt lat="45.466471574288526" lon="9.291699711276596"><ele>114.6</ele><time>2026-04-12T07:40:53Z</time></trkpt><trkpt lat="45.4665726794707" lon="9.291713711508745"><ele>114.2</ele><time>2026-04-12T07:40:55Z</time></trkpt><trkpt lat="45.46666812785144" lon="9.291733375019968"><ele>113.80000000000001</ele><time>2026-04-12T07:40:57Z</time></trkpt><trkpt lat="45.46676445125724" lon="9.291752479086904"><ele>113.4</ele><time>2026-04-12T07:40:59Z</time></trkpt><trkpt lat="45.46686665007366" lon="9.291771192773654"><ele>113.0</ele><time>2026-04-12T07:41:01Z</time></trkpt><trkpt lat="45.46696926483333" lon="9.291777152554406"><ele>113.0</ele><time>2026-04-12T07:41:03Z</time></trkpt><trkpt lat="45.467069767801966" lon="9.29179578923782"><ele>113.00000000000001</ele><time>2026-04-12T07:41:05Z</time></trkpt><trkpt lat="45.4671693304609" lon="9.291808306501087"><ele>113.00000000000001</ele><time>2026-04-12T07:41:07Z</time></trkpt><trkpt lat="45.46726542635121" lon="9.291834985200618"><ele>113.0</ele><time>2026-04-12T07:41:09Z</time></trkpt><trkpt lat="45.46736499549417" lon="9.291856763465535"><ele>113.0</ele><time>2026-04-12T07:41:11Z</time></trkpt><trkpt lat="45.46746619303146" lon="9.291875559743692"><ele>112.4</ele><time>2026-04-12T07:41:13Z</time></trkpt><trkpt lat="45.46756506970978" lon="9.291895383134227"><ele>111.80000000000001</ele><time>2026-04-12T07:41:15Z</time></trkpt><trkpt lat="45.46766232069715" lon="9.291914661619938"><ele>111.2</ele><time>2026-04-12T07:41:17Z</time></trkpt><trkpt lat="45.46776141001426" lon="9.291933396438575"><ele>110.6</ele><time>2026-04-12T07:41:19Z</time></trkpt><trkpt lat="45.46786289124293" lon="9.291950309369492"><ele>110.0</ele><time>2026-04-12T07:41:21.001Z</time></trkpt><trkpt lat="45.467964125236136" lon="9.291970241320762"><ele>109.8</ele><time>2026-04-12T07:41:23.001Z</time></trkpt><trkpt lat="45.46806302849032" lon="9.292000250127929"><ele>109.6</ele><time>2026-04-12T07:41:25.001Z</time></trkpt><trkpt lat="45.46816174098216" lon="9.292022671710708"><ele>109.4</ele><time>2026-04-12T07:41:27.001Z</time></trkpt><trkpt lat="45.468252987580236" lon="9.29203072185935"><ele>109.2</ele><time>2026-04-12T07:41:29.001Z</time></trkpt><trkpt lat="45.468326693570496" lon="9.291947833864695"><ele>109.0</ele><time>2026-04-12T07:41:31.001Z</time></trkpt><trkpt lat="45.46834186174745" lon="9.291824769231663"><ele>109.0</ele><time>2026-04-12T07:41:33.001Z</time></trkpt><trkpt lat="45.46833961852197" lon="9.29170836190915"><ele>109.0</ele><time>2026-04-12T07:41:35.001Z</time></trkpt><trkpt lat="45.46838067702123" lon="9.291594971360539"><ele>109.0</ele><time>2026-04-12T07:41:37.001Z</time></trkpt><trkpt lat="45.46848062420323" lon="9.291557100978505"><ele>109.0</ele><time>2026-04-12T07:41:39.001Z</time></trkpt><trkpt lat="45.468576265305025" lon="9.291609882633148"><ele>109.0</ele><time>2026-04-12T07:41:41.001Z</time></trkpt><trkpt lat="45.4686723713286" lon="9.291648038995897"><ele>109.00000000000001</ele><time>2026-04-12T07:41:43.001Z</time></trkpt><trkpt lat="45.468739901824" lon="9.291674959792111"><ele>109.0</ele><time>2026-04-12T07:41:45.001Z</time></trkpt><trkpt lat="45.468832138555264" lon="9.291713016033812"><ele>109.0</ele><time>2026-04-12T07:41:48Z</time></trkpt><trkpt lat="45.46890141981099" lon="9.291743757006591"><ele>109.0</ele><time>2026-04-12T07:41:50Z</time></trkpt><trkpt lat="45.46898125496265" lon="9.291774513660483"><ele>109.00000000000001</ele><time>2026-04-12T07:41:52Z</time></trkpt><trkpt lat="45.46906322825847" lon="9.291815608278052"><ele>109.0</ele><time>2026-04-12T07:41:54Z</time></trkpt><trkpt lat="45.46915245402807" lon="9.291850583658206"><ele>108.80000000000001</ele><time>2026-04-12T07:41:56Z</time></trkpt><trkpt lat="45.46924887482306" lon="9.291893107987066"><ele>108.60000000000001</ele><time>2026-04-12T07:41:58Z</time></trkpt><trkpt lat="45.469347566309104" lon="9.291934566442118"><ele>108.4</ele><time>2026-04-12T07:42:00Z</time></trkpt><trkpt lat="45.469445569697605" lon="9.291972265394438"><ele>108.2</ele><time>2026-04-12T07:42:02Z</time></trkpt><trkpt lat="45.46954066948641" lon="9.29200764943634"><ele>108.0</ele><time>2026-04-12T07:42:04Z</time></trkpt><trkpt lat="45.46963373395956" lon="9.292046818429574"><ele>108.0</ele><time>2026-04-12T07:42:06Z</time></trkpt><trkpt lat="45.469732647337835" lon="9.292063383041379"><ele>108.00000000000001</ele><time>2026-04-12T07:42:08Z</time></trkpt><trkpt lat="45.469837786299806" lon="9.292065788654902"><ele>108.00000000000001</ele><time>2026-04-12T07:42:10Z</time></trkpt><trkpt lat="45.46994799026307" lon="9.292109253763623"><ele>108.0</ele><time>2026-04-12T07:42:12Z</time></trkpt><trkpt lat="45.470055981606265" lon="9.29217626096667"><ele>108.0</ele><time>2026-04-12T07:42:14Z</time></trkpt><trkpt lat="45.470156944576345" lon="9.292247508233148"><ele>108.2</ele><time>2026-04-12T07:42:16Z</time></trkpt><trkpt lat="45.47025036663438" lon="9.29231654929643"><ele>108.4</ele><time>2026-04-12T07:42:18Z</time></trkpt><trkpt lat="45.470338834212114" lon="9.292380590322367"><ele>108.60000000000001</ele><time>2026-04-12T07:42:20Z</time></trkpt><trkpt lat="45.470423474653785" lon="9.292430605902704"><ele>108.80000000000001</ele><time>2026-04-12T07:42:22Z</time></trkpt><trkpt lat="45.470520434843046" lon="9.292465154084992"><ele>109.0</ele><time>2026-04-12T07:42:24Z</time></trkpt><trkpt lat="45.47062401775192" lon="9.292493859139393"><ele>109.0</ele><time>2026-04-12T07:42:26Z</time></trkpt><trkpt lat="45.470724070894974" lon="9.292523295916215"><ele>109.0</ele><time>2026-04-12T07:42:28Z</time></trkpt><trkpt lat="45.47082856830936" lon="9.292549095274067"><ele>109.0</ele><time>2026-04-12T07:42:30Z</time></trkpt><trkpt lat="45.470937627754445" lon="9.292568366622353"><ele>109.0</ele><time>2026-04-12T07:42:32Z</time></trkpt><trkpt lat="45.4710458698858" lon="9.29259917790573"><ele>109.0</ele><time>2026-04-12T07:42:34Z</time></trkpt><trkpt lat="45.47115495761113" lon="9.292616260700507"><ele>109.0</ele><time>2026-04-12T07:42:36Z</time></trkpt><trkpt lat="45.47125876953136" lon="9.292607908691174"><ele>109.0</ele><time>2026-04-12T07:42:38Z</time></trkpt><trkpt lat="45.47135523310122" lon="9.292656740410006"><ele>109.0</ele><time>2026-04-12T07:42:40Z</time></trkpt><trkpt lat="45.47144066227977" lon="9.29272680056469"><ele>109.0</ele><time>2026-04-12T07:42:42Z</time></trkpt><trkpt lat="45.47152773973665" lon="9.292788882218515"><ele>109.0</ele><time>2026-04-12T07:42:44Z</time></trkpt><trkpt lat="45.47162206552516" lon="9.292834693541833"><ele>109.0</ele><time>2026-04-12T07:42:46Z</time></trkpt><trkpt lat="45.47172425660875" lon="9.29285418493792"><ele>109.0</ele><time>2026-04-12T07:42:48Z</time></trkpt><trkpt lat="45.47183162257714" lon="9.292873187066743"><ele>109.0</ele><time>2026-04-12T07:42:50Z</time></trkpt><trkpt lat="45.47193267682787" lon="9.29289734646236"><ele>109.0</ele><time>2026-04-12T07:42:52Z</time></trkpt><trkpt lat="45.472017279479" lon="9.29296619572347"><ele>109.0</ele><time>2026-04-12T07:42:54Z</time></trkpt><trkpt lat="45.472078825452236" lon="9.2930647400516"><ele>109.00000000000001</ele><time>2026-04-12T07:42:56Z</time></trkpt><trkpt lat="45.47211006600007" lon="9.293172624420132"><ele>109.0</ele><time>2026-04-12T07:42:58Z</time></trkpt><trkpt lat="45.47211605429246" lon="9.293295342842129"><ele>109.0</ele><time>2026-04-12T07:43:00Z</time></trkpt><trkpt lat="45.47208592983954" lon="9.29341703226335"><ele>109.0</ele><time>2026-04-12T07:43:02Z</time></trkpt><trkpt lat="45.47202914990509" lon="9.293516901989305"><ele>109.00000000000001</ele><time>2026-04-12T07:43:04Z</time></trkpt><trkpt lat="45.471965261722126" lon="9.293602833111088"><ele>109.0</ele><time>2026-04-12T07:43:06Z</time></trkpt><trkpt lat="45.471959921269715" lon="9.293732779444591"><ele>109.0</ele><time>2026-04-12T07:43:08Z</time></trkpt><trkpt lat="45.472057954222755" lon="9.293809061966241"><ele>109.0</ele><time>2026-04-12T07:43:10Z</time></trkpt><trkpt lat="45.47216193232035" lon="9.293818857438398"><ele>109.0</ele><time>2026-04-12T07:43:12Z</time></trkpt><trkpt lat="45.47225861848195" lon="9.293836238254107"><ele>109.0</ele><time>2026-04-12T07:43:14Z</time></trkpt><trkpt lat="45.47234662234343" lon="9.293850402298048"><ele>109.0</ele><time>2026-04-12T07:43:16Z</time></trkpt><trkpt lat="45.47243219843248" lon="9.293865747640968"><ele>109.16666666666667</ele><time>2026-04-12T07:43:18Z</time></trkpt><trkpt lat="45.472511140967356" lon="9.293886297628408"><ele>109.33333333333334</ele><time>2026-04-12T07:43:20Z</time></trkpt><trkpt lat="45.47258536915442" lon="9.293897504560006"><ele>109.5</ele><time>2026-04-12T07:43:22Z</time></trkpt><trkpt lat="45.47266741271302" lon="9.29390352908236"><ele>109.66666666666666</ele><time>2026-04-12T07:43:24Z</time></trkpt><trkpt lat="45.472751061945615" lon="9.293921226213522"><ele>109.83333333333333</ele><time>2026-04-12T07:43:26Z</time></trkpt><trkpt lat="45.47283321636258" lon="9.293943589016196"><ele>110.0</ele><time>2026-04-12T07:43:28Z</time></trkpt><trkpt lat="45.4729197648812" lon="9.29395707158817"><ele>110.49999999999999</ele><time>2026-04-12T07:43:30Z</time></trkpt><trkpt lat="45.47300517467981" lon="9.293974630240657"><ele>111.0</ele><time>2026-04-12T07:43:32Z</time></trkpt><trkpt lat="45.473086321391705" lon="9.293998751479721"><ele>111.5</ele><time>2026-04-12T07:43:34Z</time></trkpt><trkpt lat="45.47316354846576" lon="9.29402245997479"><ele>112.0</ele><time>2026-04-12T07:43:36Z</time></trkpt><trkpt lat="45.473252777982765" lon="9.294036376336145"><ele>112.49999999999999</ele><time>2026-04-12T07:43:38Z</time></trkpt><trkpt lat="45.4733365811293" lon="9.294055150121574"><ele>113.0</ele><time>2026-04-12T07:43:40.001Z</time></trkpt><trkpt lat="45.47342456331258" lon="9.294068254380756"><ele>112.99999999999999</ele><time>2026-04-12T07:43:42.001Z</time></trkpt><trkpt lat="45.47349977341743" lon="9.294084362856834"><ele>113.0</ele><time>2026-04-12T07:43:44.001Z</time></trkpt><trkpt lat="45.47358619266645" lon="9.29410793395858"><ele>113.0</ele><time>2026-04-12T07:43:46.001Z</time></trkpt><trkpt lat="45.47368722329458" lon="9.294123958951278"><ele>113.0</ele><time>2026-04-12T07:43:48.001Z</time></trkpt><trkpt lat="45.473781312078614" lon="9.294136140278061"><ele>112.99999999999999</ele><time>2026-04-12T07:43:50.001Z</time></trkpt><trkpt lat="45.47385870596731" lon="9.294157797404225"><ele>113.0</ele><time>2026-04-12T07:43:52.001Z</time></trkpt><trkpt lat="45.47394954281082" lon="9.294174086332292"><ele>112.66666666666666</ele><time>2026-04-12T07:43:54Z</time></trkpt><trkpt lat="45.474023660320924" lon="9.29417946977747"><ele>112.33333333333333</ele><time>2026-04-12T07:43:56Z</time></trkpt><trkpt lat="45.47410115039865" lon="9.29419328876001"><ele>112.0</ele><time>2026-04-12T07:43:58Z</time></trkpt><trkpt lat="45.47417761366521" lon="9.294222692458664"><ele>111.66666666666666</ele><time>2026-04-12T07:44:00Z</time></trkpt><trkpt lat="45.47425529886034" lon="9.294260053038379"><ele>111.33333333333333</ele><time>2026-04-12T07:44:02Z</time></trkpt><trkpt lat="45.474334238466874" lon="9.294202754584942"><ele>111.0</ele><time>2026-04-12T07:44:04Z</time></trkpt><trkpt lat="45.4743551086059" lon="9.29410383892974"><ele>111.0</ele><time>2026-04-12T07:44:06Z</time></trkpt><trkpt lat="45.47440449288884" lon="9.29402923818581"><ele>111.0</ele><time>2026-04-12T07:44:09Z</time></trkpt><trkpt lat="45.47445371193347" lon="9.293958319965526"><ele>111.0</ele><time>2026-04-12T07:44:12Z</time></trkpt><trkpt lat="45.47451163144102" lon="9.293886542968703"><ele>111.0</ele><time>2026-04-12T07:44:15Z</time></trkpt><trkpt lat="45.47456755151632" lon="9.293826547184322"><ele>111.0</ele><time>2026-04-12T07:44:18Z</time></trkpt><trkpt lat="45.47462934514625" lon="9.293775963502338"><ele>111.0</ele><time>2026-04-12T07:44:22Z</time></trkpt><trkpt lat="45.47467973857343" lon="9.29371847027865"><ele>111.0</ele><time>2026-04-12T07:44:25Z</time></trkpt><trkpt lat="45.47468709252034" lon="9.29361191401082"><ele>111.0</ele><time>2026-04-12T07:44:28Z</time></trkpt><trkpt lat="45.474710805571846" lon="9.293519285993483"><ele>111.0</ele><time>2026-04-12T07:44:51Z</time></trkpt><trkpt lat="45.4747078434916" lon="9.293422674744036"><ele>111.0</ele><time>2026-04-12T07:44:56Z</time></trkpt><trkpt lat="45.47477456749639" lon="9.293461421483954"><ele>111.0</ele><time>2026-04-12T07:45:10Z</time></trkpt><trkpt lat="45.474851788273725" lon="9.293509394345223"><ele>111.0</ele><time>2026-04-12T07:45:12Z</time></trkpt><trkpt lat="45.47490563538092" lon="9.293597226494711"><ele>111.0</ele><time>2026-04-12T07:45:14Z</time></trkpt><trkpt lat="45.47485520644329" lon="9.293726320165893"><ele>111.0</ele><time>2026-04-12T07:45:16Z</time></trkpt><trkpt lat="45.47474360062457" lon="9.293794606000429"><ele>111.0</ele><time>2026-04-12T07:45:18Z</time></trkpt><trkpt lat="45.474631999112724" lon="9.293825432306084"><ele>111.0</ele><time>2026-04-12T07:45:20Z</time></trkpt><trkpt lat="45.47458399247481" lon="9.293896351455855"><ele>111.0</ele><time>2026-04-12T07:45:23Z</time></trkpt><trkpt lat="45.47458614230613" lon="9.294020942757152"><ele>111.0</ele><time>2026-04-12T07:45:26Z</time></trkpt><trkpt lat="45.47457670392968" lon="9.294133809438835"><ele>111.85714285714286</ele><time>2026-04-12T07:45:29Z</time></trkpt><trkpt lat="45.474605009782536" lon="9.29423697026221"><ele>112.71428571428572</ele><time>2026-04-12T07:45:32Z</time></trkpt><trkpt lat="45.47468737972405" lon="9.2942320069196"><ele>113.57142857142858</ele><time>2026-04-12T07:45:35Z</time></trkpt><trkpt lat="45.47475152807414" lon="9.294236948435234"><ele>114.42857142857143</ele><time>2026-04-12T07:45:38Z</time></trkpt><trkpt lat="45.474822369848894" lon="9.294255033805944"><ele>115.2857142857143</ele><time>2026-04-12T07:45:41Z</time></trkpt><trkpt lat="45.47489541393197" lon="9.294260737612749"><ele>116.14285714285715</ele><time>2026-04-12T07:45:44.001Z</time></trkpt><trkpt lat="45.47495974787152" lon="9.294273157172668"><ele>117.0</ele><time>2026-04-12T07:45:46.001Z</time></trkpt><trkpt lat="45.47503200182565" lon="9.294294452205975"><ele>117.0</ele><time>2026-04-12T07:45:48.001Z</time></trkpt><trkpt lat="45.475105507605676" lon="9.294315903632906"><ele>117.0</ele><time>2026-04-12T07:45:50.001Z</time></trkpt><trkpt lat="45.475175029498" lon="9.294333587620986"><ele>117.0</ele><time>2026-04-12T07:45:52.001Z</time></trkpt><trkpt lat="45.47524303636487" lon="9.294383089567125"><ele>117.0</ele><time>2026-04-12T07:45:54.001Z</time></trkpt><trkpt lat="45.47531809406338" lon="9.294409629451224"><ele>117.0</ele><time>2026-04-12T07:45:56.001Z</time></trkpt><trkpt lat="45.475401314184964" lon="9.294419651279188"><ele>117.0</ele><time>2026-04-12T07:45:58.001Z</time></trkpt><trkpt lat="45.475483340249475" lon="9.294434012318396"><ele>117.33333333333333</ele><time>2026-04-12T07:46:00Z</time></trkpt><trkpt lat="45.475565894709106" lon="9.29444390332925"><ele>117.66666666666666</ele><time>2026-04-12T07:46:02Z</time></trkpt><trkpt lat="45.47564589024063" lon="9.294465981201798"><ele>118.0</ele><time>2026-04-12T07:46:04Z</time></trkpt><trkpt lat="45.47573064662248" lon="9.294479481746581"><ele>118.33333333333333</ele><time>2026-04-12T07:46:06Z</time></trkpt><trkpt lat="45.47581343242068" lon="9.294486961099869"><ele>118.66666666666666</ele><time>2026-04-12T07:46:08Z</time></trkpt><trkpt lat="45.47589183973524" lon="9.294499702107156"><ele>119.0</ele><time>2026-04-12T07:46:10Z</time></trkpt><trkpt lat="45.47597059210625" lon="9.294522301881864"><ele>118.99999999999999</ele><time>2026-04-12T07:46:12Z</time></trkpt><trkpt lat="45.47603254222447" lon="9.294454136940715"><ele>119.0</ele><time>2026-04-12T07:46:14Z</time></trkpt><trkpt lat="45.47603729315028" lon="9.294319716124962"><ele>119.0</ele><time>2026-04-12T07:46:16Z</time></trkpt><trkpt lat="45.476046968521814" lon="9.2942041208861"><ele>119.0</ele><time>2026-04-12T07:46:18Z</time></trkpt><trkpt lat="45.47605014057574" lon="9.29408329771303"><ele>118.99999999999999</ele><time>2026-04-12T07:46:20Z</time></trkpt><trkpt lat="45.47606223886575" lon="9.293964889622137"><ele>119.0</ele><time>2026-04-12T07:46:22Z</time></trkpt><trkpt lat="45.47608337528608" lon="9.293852073097888"><ele>118.16666666666666</ele><time>2026-04-12T07:46:24Z</time></trkpt><trkpt lat="45.4761168026041" lon="9.293761593220468"><ele>117.33333333333333</ele><time>2026-04-12T07:46:26Z</time></trkpt><trkpt lat="45.47612702574982" lon="9.293657759855899"><ele>116.5</ele><time>2026-04-12T07:46:28Z</time></trkpt><trkpt lat="45.47612426982196" lon="9.293542499743774"><ele>115.66666666666666</ele><time>2026-04-12T07:46:30Z</time></trkpt><trkpt lat="45.47613678006276" lon="9.29342606619866"><ele>114.83333333333333</ele><time>2026-04-12T07:46:32Z</time></trkpt><trkpt lat="45.47616259979338" lon="9.293309077451273"><ele>114.0</ele><time>2026-04-12T07:46:34Z</time></trkpt><trkpt lat="45.47618706702232" lon="9.293169633000911"><ele>113.33333333333333</ele><time>2026-04-12T07:46:36Z</time></trkpt><trkpt lat="45.476199469200374" lon="9.293012079534149"><ele>112.66666666666666</ele><time>2026-04-12T07:46:38Z</time></trkpt><trkpt lat="45.47618730764788" lon="9.29284194349742"><ele>112.0</ele><time>2026-04-12T07:46:40Z</time></trkpt><trkpt lat="45.47616220239015" lon="9.29275477613998"><ele>111.33333333333333</ele><time>2026-04-12T07:46:41Z</time></trkpt><trkpt lat="45.4761399735147" lon="9.292666490775986"><ele>110.66666666666666</ele><time>2026-04-12T07:46:42Z</time></trkpt><trkpt lat="45.47611794823601" lon="9.29257653021251"><ele>110.0</ele><time>2026-04-12T07:46:43Z</time></trkpt><trkpt lat="45.47608970960979" lon="9.292486212101457"><ele>109.99999999999999</ele><time>2026-04-12T07:46:44Z</time></trkpt><trkpt lat="45.4760588609094" lon="9.292393531696352"><ele>110.0</ele><time>2026-04-12T07:46:45Z</time></trkpt><trkpt lat="45.47602516051696" lon="9.292300712326897"><ele>110.0</ele><time>2026-04-12T07:46:46Z</time></trkpt><trkpt lat="45.47599600510717" lon="9.292205924292624"><ele>110.0</ele><time>2026-04-12T07:46:47Z</time></trkpt><trkpt lat="45.475970366376785" lon="9.29212202438657"><ele>110.0</ele><time>2026-04-12T07:46:48Z</time></trkpt><trkpt lat="45.47594547472993" lon="9.292030971816898"><ele>109.99999999999999</ele><time>2026-04-12T07:46:49Z</time></trkpt><trkpt lat="45.4759190875921" lon="9.291942727444079"><ele>110.0</ele><time>2026-04-12T07:46:50Z</time></trkpt><trkpt lat="45.475873471718145" lon="9.291775116996133"><ele>110.6</ele><time>2026-04-12T07:46:52Z</time></trkpt><trkpt lat="45.47585090318225" lon="9.291690767230985"><ele>111.2</ele><time>2026-04-12T07:46:53Z</time></trkpt><trkpt lat="45.4758075102688" lon="9.291541790991353"><ele>111.80000000000001</ele><time>2026-04-12T07:46:55Z</time></trkpt><trkpt lat="45.47576651962033" lon="9.291394141857188"><ele>112.4</ele><time>2026-04-12T07:46:57Z</time></trkpt><trkpt lat="45.475733240826195" lon="9.291255263443675"><ele>113.0</ele><time>2026-04-12T07:46:59Z</time></trkpt><trkpt lat="45.47568791459146" lon="9.291112623628061"><ele>113.0</ele><time>2026-04-12T07:47:01Z</time></trkpt><trkpt lat="45.47564535531177" lon="9.290965601987848"><ele>113.0</ele><time>2026-04-12T07:47:03Z</time></trkpt><trkpt lat="45.475604351290315" lon="9.290805923784943"><ele>113.0</ele><time>2026-04-12T07:47:05Z</time></trkpt><trkpt lat="45.475562278095936" lon="9.290647553904018"><ele>113.0</ele><time>2026-04-12T07:47:07Z</time></trkpt><trkpt lat="45.4755172869272" lon="9.290495518623198"><ele>113.0</ele><time>2026-04-12T07:47:09Z</time></trkpt><trkpt lat="45.47547658128959" lon="9.290342386964838"><ele>113.00000000000001</ele><time>2026-04-12T07:47:11Z</time></trkpt><trkpt lat="45.47543445216678" lon="9.290192607426263"><ele>113.00000000000001</ele><time>2026-04-12T07:47:13Z</time></trkpt><trkpt lat="45.475391297144235" lon="9.290050770802685"><ele>113.0</ele><time>2026-04-12T07:47:15Z</time></trkpt><trkpt lat="45.47535548066311" lon="9.28990969525874"><ele>113.0</ele><time>2026-04-12T07:47:17Z</time></trkpt><trkpt lat="45.47531109991165" lon="9.289769995238473"><ele>112.4</ele><time>2026-04-12T07:47:19Z</time></trkpt><trkpt lat="45.475262227279174" lon="9.289635482659854"><ele>111.80000000000001</ele><time>2026-04-12T07:47:21Z</time></trkpt><trkpt lat="45.4752045203716" lon="9.289508052862475"><ele>111.2</ele><time>2026-04-12T07:47:23Z</time></trkpt><trkpt lat="45.47512759179733" lon="9.28940021588701"><ele>110.6</ele><time>2026-04-12T07:47:25Z</time></trkpt><trkpt lat="45.47503773036413" lon="9.289302101345983"><ele>110.0</ele><time>2026-04-12T07:47:27Z</time></trkpt><trkpt lat="45.474943904266546" lon="9.289219401898984"><ele>110.0</ele><time>2026-04-12T07:47:29Z</time></trkpt><trkpt lat="45.47484767524054" lon="9.28914691491771"><ele>110.0</ele><time>2026-04-12T07:47:31Z</time></trkpt><trkpt lat="45.47474603941886" lon="9.289093207437807"><ele>110.0</ele><time>2026-04-12T07:47:33Z</time></trkpt><trkpt lat="45.47463948786683" lon="9.289071562051024"><ele>110.0</ele><time>2026-04-12T07:47:35Z</time></trkpt><trkpt lat="45.47453413964706" lon="9.289053414145686"><ele>110.0</ele><time>2026-04-12T07:47:37Z</time></trkpt><trkpt lat="45.47443420216923" lon="9.289040029643573"><ele>109.6</ele><time>2026-04-12T07:47:39Z</time></trkpt><trkpt lat="45.474340528890956" lon="9.289025537552673"><ele>109.2</ele><time>2026-04-12T07:47:41Z</time></trkpt><trkpt lat="45.47424886644259" lon="9.28902112608363"><ele>108.80000000000001</ele><time>2026-04-12T07:47:43Z</time></trkpt><trkpt lat="45.474157428940245" lon="9.289003724005202"><ele>108.4</ele><time>2026-04-12T07:47:45Z</time></trkpt><trkpt lat="45.47406780418265" lon="9.288980643232788"><ele>108.0</ele><time>2026-04-12T07:47:47Z</time></trkpt><trkpt lat="45.47398088802819" lon="9.288961953615"><ele>108.0</ele><time>2026-04-12T07:47:49Z</time></trkpt><trkpt lat="45.4738984813175" lon="9.288944020819486"><ele>108.0</ele><time>2026-04-12T07:47:51Z</time></trkpt><trkpt lat="45.47381781606229" lon="9.288934636348273"><ele>108.0</ele><time>2026-04-12T07:47:53Z</time></trkpt><trkpt lat="45.47373178116372" lon="9.288930690035203"><ele>108.0</ele><time>2026-04-12T07:47:55Z</time></trkpt><trkpt lat="45.47364457968102" lon="9.288914913141108"><ele>108.0</ele><time>2026-04-12T07:47:57.001Z</time></trkpt><trkpt lat="45.4735572489961" lon="9.288894411491649"><ele>108.0</ele><time>2026-04-12T07:47:59.001Z</time></trkpt><trkpt lat="45.47346971314725" lon="9.288889610011632"><ele>109.0</ele><time>2026-04-12T07:48:01.001Z</time></trkpt><trkpt lat="45.47338141396572" lon="9.288891045854207"><ele>110.0</ele><time>2026-04-12T07:48:03.001Z</time></trkpt><trkpt lat="45.47329663191113" lon="9.288891509231235"><ele>111.0</ele><time>2026-04-12T07:48:05.001Z</time></trkpt><trkpt lat="45.47321638062928" lon="9.288883906741487"><ele>112.0</ele><time>2026-04-12T07:48:07Z</time></trkpt><trkpt lat="45.4731409963557" lon="9.28887717340874"><ele>113.0</ele><time>2026-04-12T07:48:09Z</time></trkpt><trkpt lat="45.47307060598807" lon="9.288874967763464"><ele>114.0</ele><time>2026-04-12T07:48:11Z</time></trkpt><trkpt lat="45.47300558193919" lon="9.288859922715833"><ele>114.0</ele><time>2026-04-12T07:48:13Z</time></trkpt><trkpt lat="45.47294100517475" lon="9.288841360362051"><ele>114.0</ele><time>2026-04-12T07:48:15Z</time></trkpt><trkpt lat="45.47287219284754" lon="9.28881564338691"><ele>114.0</ele><time>2026-04-12T07:48:17Z</time></trkpt><trkpt lat="45.47280184905383" lon="9.288785159604334"><ele>114.0</ele><time>2026-04-12T07:48:19Z</time></trkpt><trkpt lat="45.47272205876561" lon="9.28877138669172"><ele>114.0</ele><time>2026-04-12T07:48:21Z</time></trkpt><trkpt lat="45.47264016009112" lon="9.288746236826436"><ele>114.0</ele><time>2026-04-12T07:48:23Z</time></trkpt><trkpt lat="45.47255353470608" lon="9.288715663858314"><ele>114.0</ele><time>2026-04-12T07:48:25Z</time></trkpt><trkpt lat="45.472465543794776" lon="9.288694155214127"><ele>114.0</ele><time>2026-04-12T07:48:27Z</time></trkpt><trkpt lat="45.472375016781015" lon="9.28867105389034"><ele>114.0</ele><time>2026-04-12T07:48:29Z</time></trkpt><trkpt lat="45.472281950743884" lon="9.288651536111804"><ele>114.0</ele><time>2026-04-12T07:48:31Z</time></trkpt><trkpt lat="45.4721896124994" lon="9.288628756947693"><ele>114.0</ele><time>2026-04-12T07:48:33Z</time></trkpt><trkpt lat="45.47209823648936" lon="9.288604281356"><ele>113.6</ele><time>2026-04-12T07:48:35Z</time></trkpt><trkpt lat="45.472004937264074" lon="9.288588114841016"><ele>113.2</ele><time>2026-04-12T07:48:37Z</time></trkpt><trkpt lat="45.47190928309569" lon="9.28858005347338"><ele>112.79999999999998</ele><time>2026-04-12T07:48:39Z</time></trkpt><trkpt lat="45.47180804214146" lon="9.288562293749004"><ele>112.39999999999999</ele><time>2026-04-12T07:48:41Z</time></trkpt><trkpt lat="45.47170394729623" lon="9.288545572576187"><ele>112.0</ele><time>2026-04-12T07:48:43Z</time></trkpt><trkpt lat="45.4715999283093" lon="9.288534154208204"><ele>112.0</ele><time>2026-04-12T07:48:45Z</time></trkpt><trkpt lat="45.4714953263473" lon="9.288525456232641"><ele>111.99999999999999</ele><time>2026-04-12T07:48:47Z</time></trkpt><trkpt lat="45.471390553370426" lon="9.28851309245776"><ele>111.99999999999999</ele><time>2026-04-12T07:48:49Z</time></trkpt><trkpt lat="45.471285299632676" lon="9.288499671768099"><ele>112.0</ele><time>2026-04-12T07:48:51Z</time></trkpt><trkpt lat="45.47118454164387" lon="9.28848354855523"><ele>112.0</ele><time>2026-04-12T07:48:53Z</time></trkpt><trkpt lat="45.471083713469916" lon="9.288467209201528"><ele>111.8</ele><time>2026-04-12T07:48:55Z</time></trkpt><trkpt lat="45.470985779577795" lon="9.288455807608532"><ele>111.6</ele><time>2026-04-12T07:48:57Z</time></trkpt><trkpt lat="45.470890989894315" lon="9.288437371964292"><ele>111.39999999999999</ele><time>2026-04-12T07:48:59Z</time></trkpt><trkpt lat="45.47079774066901" lon="9.288417618252616"><ele>111.19999999999999</ele><time>2026-04-12T07:49:01Z</time></trkpt><trkpt lat="45.47070250092661" lon="9.28839829238414"><ele>111.0</ele><time>2026-04-12T07:49:03Z</time></trkpt><trkpt lat="45.47060521807262" lon="9.288381845312397"><ele>111.0</ele><time>2026-04-12T07:49:05Z</time></trkpt><trkpt lat="45.470508879080974" lon="9.288367494566772"><ele>111.0</ele><time>2026-04-12T07:49:07Z</time></trkpt><trkpt lat="45.47040792988138" lon="9.28835092778022"><ele>111.0</ele><time>2026-04-12T07:49:09Z</time></trkpt><trkpt lat="45.47030743324221" lon="9.28833380253775"><ele>111.0</ele><time>2026-04-12T07:49:11Z</time></trkpt><trkpt lat="45.47020763397675" lon="9.288315091919337"><ele>111.0</ele><time>2026-04-12T07:49:13Z</time></trkpt><trkpt lat="45.47010857108149" lon="9.288297810681907"><ele>111.0</ele><time>2026-04-12T07:49:15Z</time></trkpt><trkpt lat="45.47001259727541" lon="9.288283314173707"><ele>111.0</ele><time>2026-04-12T07:49:17Z</time></trkpt><trkpt lat="45.46991788880669" lon="9.28826149863883"><ele>111.0</ele><time>2026-04-12T07:49:19Z</time></trkpt><trkpt lat="45.469828006582084" lon="9.288241813593705"><ele>111.0</ele><time>2026-04-12T07:49:21Z</time></trkpt><trkpt lat="45.46974461109741" lon="9.288230979046181"><ele>111.0</ele><time>2026-04-12T07:49:23Z</time></trkpt><trkpt lat="45.46966664009164" lon="9.28822293055129"><ele>111.0</ele><time>2026-04-12T07:49:25Z</time></trkpt><trkpt lat="45.46959531583149" lon="9.288207582645645"><ele>111.0</ele><time>2026-04-12T07:49:27Z</time></trkpt><trkpt lat="45.469527531223385" lon="9.288197906911819"><ele>111.0</ele><time>2026-04-12T07:49:29Z</time></trkpt><trkpt lat="45.46946436064455" lon="9.288188839189138"><ele>111.0</ele><time>2026-04-12T07:49:31Z</time></trkpt><trkpt lat="45.46937822556644" lon="9.288171973870561"><ele>111.0</ele><time>2026-04-12T07:49:34Z</time></trkpt><trkpt lat="45.46930877460795" lon="9.288167003138716"><ele>111.0</ele><time>2026-04-12T07:49:37Z</time></trkpt><trkpt lat="45.469244116696736" lon="9.288159956408247"><ele>111.0</ele><time>2026-04-12T07:49:40Z</time></trkpt><trkpt lat="45.46916881979173" lon="9.288142429962084"><ele>111.0</ele><time>2026-04-12T07:49:44Z</time></trkpt><trkpt lat="45.46913275467335" lon="9.288224051281057"><ele>111.0</ele><time>2026-04-12T07:50:29Z</time></trkpt><trkpt lat="45.46917447426434" lon="9.28815171099619"><ele>111.0</ele><time>2026-04-12T07:53:52Z</time></trkpt><trkpt lat="45.46916098843661" lon="9.288054022896844"><ele>111.0</ele><time>2026-04-12T07:54:01Z</time></trkpt><trkpt lat="45.469244389109654" lon="9.288026042206134"><ele>111.0</ele><time>2026-04-12T07:54:29Z</time></trkpt><trkpt lat="45.46926358731374" lon="9.287939303079504"><ele>111.0</ele><time>2026-04-12T07:54:36Z</time></trkpt><trkpt lat="45.46926005610194" lon="9.28784810089803"><ele>111.0</ele><time>2026-04-12T07:54:42Z</time></trkpt><trkpt lat="45.46924912977753" lon="9.287949471574766"><ele>111.0</ele><time>2026-04-12T07:57:12Z</time></trkpt><trkpt lat="45.46922745096217" lon="9.288037172173981"><ele>111.0</ele><time>2026-04-12T07:57:24Z</time></trkpt><trkpt lat="45.46918353785139" lon="9.288118768556568"><ele>111.0</ele><time>2026-04-12T07:57:35Z</time></trkpt><trkpt lat="45.46913600744421" lon="9.288192638525551"><ele>111.0</ele><time>2026-04-12T07:57:45Z</time></trkpt><trkpt lat="45.46920315652025" lon="9.288203525194763"><ele>111.0</ele><time>2026-04-12T08:03:52Z</time></trkpt><trkpt lat="45.46919955507775" lon="9.288113341979328"><ele>111.0</ele><time>2026-04-12T08:04:02Z</time></trkpt><trkpt lat="45.46916001463259" lon="9.288184538070244"><ele>111.0</ele><time>2026-04-12T08:04:21Z</time></trkpt><trkpt lat="45.46924656375069" lon="9.2881769667623"><ele>111.0</ele><time>2026-04-12T08:08:22Z</time></trkpt><trkpt lat="45.46931934848145" lon="9.288178534797595"><ele>111.0</ele><time>2026-04-12T08:08:25Z</time></trkpt><trkpt lat="45.469385965661715" lon="9.288166336117794"><ele>111.0</ele><time>2026-04-12T08:08:28Z</time></trkpt><trkpt lat="45.46944575796712" lon="9.288201665367684"><ele>111.0</ele><time>2026-04-12T08:08:30Z</time></trkpt><trkpt lat="45.469507581352644" lon="9.288226455777798"><ele>111.0</ele><time>2026-04-12T08:08:32Z</time></trkpt><trkpt lat="45.46957116781701" lon="9.288270356205846"><ele>111.0</ele><time>2026-04-12T08:08:34Z</time></trkpt><trkpt lat="45.46964910022318" lon="9.288306443585265"><ele>111.0</ele><time>2026-04-12T08:08:36Z</time></trkpt><trkpt lat="45.46973007218292" lon="9.288328766368178"><ele>111.0</ele><time>2026-04-12T08:08:38Z</time></trkpt><trkpt lat="45.46981164597766" lon="9.288347516939778"><ele>111.5</ele><time>2026-04-12T08:08:40Z</time></trkpt><trkpt lat="45.4698969198082" lon="9.288357347308088"><ele>112.0</ele><time>2026-04-12T08:08:42Z</time></trkpt><trkpt lat="45.46998286860323" lon="9.288370155317834"><ele>112.5</ele><time>2026-04-12T08:08:44Z</time></trkpt><trkpt lat="45.47007244298388" lon="9.288384517863973"><ele>113.0</ele><time>2026-04-12T08:08:46Z</time></trkpt><trkpt lat="45.47016283648926" lon="9.288399202577121"><ele>113.5</ele><time>2026-04-12T08:08:48Z</time></trkpt><trkpt lat="45.47025477626082" lon="9.288408550313164"><ele>114.0</ele><time>2026-04-12T08:08:50Z</time></trkpt><trkpt lat="45.47034396286482" lon="9.288435080911102"><ele>114.0</ele><time>2026-04-12T08:08:52Z</time></trkpt><trkpt lat="45.47043415859371" lon="9.288446130434965"><ele>114.0</ele><time>2026-04-12T08:08:54Z</time></trkpt><trkpt lat="45.47052373042001" lon="9.288465239672185"><ele>114.0</ele><time>2026-04-12T08:08:56Z</time></trkpt><trkpt lat="45.47061350197952" lon="9.288469856029446"><ele>114.0</ele><time>2026-04-12T08:08:58Z</time></trkpt><trkpt lat="45.47070000748625" lon="9.288481615573794"><ele>114.0</ele><time>2026-04-12T08:09:00Z</time></trkpt><trkpt lat="45.47078131968252" lon="9.288495187326966"><ele>114.0</ele><time>2026-04-12T08:09:02Z</time></trkpt><trkpt lat="45.47085759827202" lon="9.28850571066869"><ele>113.66666666666667</ele><time>2026-04-12T08:09:04Z</time></trkpt><trkpt lat="45.470936621642814" lon="9.288517243808595"><ele>113.33333333333334</ele><time>2026-04-12T08:09:06Z</time></trkpt><trkpt lat="45.47101772518181" lon="9.288531253564944"><ele>113.0</ele><time>2026-04-12T08:09:08Z</time></trkpt><trkpt lat="45.47109816926391" lon="9.288563120125596"><ele>112.66666666666667</ele><time>2026-04-12T08:09:10Z</time></trkpt><trkpt lat="45.47118874265717" lon="9.288566683476631"><ele>112.33333333333334</ele><time>2026-04-12T08:09:12Z</time></trkpt><trkpt lat="45.47128074528184" lon="9.28857090172385"><ele>112.0</ele><time>2026-04-12T08:09:14Z</time></trkpt><trkpt lat="45.47137408224122" lon="9.28858187305413"><ele>112.0</ele><time>2026-04-12T08:09:16Z</time></trkpt><trkpt lat="45.47146982708618" lon="9.288579807759607"><ele>111.99999999999999</ele><time>2026-04-12T08:09:18Z</time></trkpt><trkpt lat="45.47156961397216" lon="9.288589644493264"><ele>111.99999999999999</ele><time>2026-04-12T08:09:20Z</time></trkpt><trkpt lat="45.47166339780655" lon="9.288604070264954"><ele>112.0</ele><time>2026-04-12T08:09:22Z</time></trkpt><trkpt lat="45.47175705938917" lon="9.288617806417466"><ele>112.0</ele><time>2026-04-12T08:09:24Z</time></trkpt><trkpt lat="45.47185289928023" lon="9.288625042317282"><ele>112.0</ele><time>2026-04-12T08:09:26Z</time></trkpt><trkpt lat="45.47195058401094" lon="9.288618278086672"><ele>111.99999999999999</ele><time>2026-04-12T08:09:28Z</time></trkpt><trkpt lat="45.47204709526031" lon="9.28860701582114"><ele>111.99999999999999</ele><time>2026-04-12T08:09:30Z</time></trkpt><trkpt lat="45.47214401389204" lon="9.288589754347994"><ele>112.0</ele><time>2026-04-12T08:09:32Z</time></trkpt><trkpt lat="45.47223725720619" lon="9.288552243546256"><ele>112.0</ele><time>2026-04-12T08:09:34Z</time></trkpt><trkpt lat="45.47232811564809" lon="9.28850139842167"><ele>112.39999999999999</ele><time>2026-04-12T08:09:36Z</time></trkpt><trkpt lat="45.47241851240503" lon="9.28845309310658"><ele>112.79999999999998</ele><time>2026-04-12T08:09:38Z</time></trkpt><trkpt lat="45.47250912101871" lon="9.28840667448503"><ele>113.2</ele><time>2026-04-12T08:09:40Z</time></trkpt><trkpt lat="45.47260162262916" lon="9.288382352549716"><ele>113.6</ele><time>2026-04-12T08:09:42Z</time></trkpt><trkpt lat="45.472692257325875" lon="9.288367225872422"><ele>114.0</ele><time>2026-04-12T08:09:44Z</time></trkpt><trkpt lat="45.47278155634902" lon="9.288358018441611"><ele>114.0</ele><time>2026-04-12T08:09:46Z</time></trkpt><trkpt lat="45.47287170761305" lon="9.288360765210019"><ele>114.0</ele><time>2026-04-12T08:09:48Z</time></trkpt><trkpt lat="45.47296219853723" lon="9.288382777802829"><ele>114.0</ele><time>2026-04-12T08:09:50Z</time></trkpt><trkpt lat="45.47305294122265" lon="9.288404793501533"><ele>114.0</ele><time>2026-04-12T08:09:52Z</time></trkpt><trkpt lat="45.4731416406473" lon="9.288431156872"><ele>114.0</ele><time>2026-04-12T08:09:54Z</time></trkpt><trkpt lat="45.47323081294129" lon="9.2884604340584"><ele>114.0</ele><time>2026-04-12T08:09:56Z</time></trkpt><trkpt lat="45.473319655901264" lon="9.288490554748623"><ele>114.0</ele><time>2026-04-12T08:09:58Z</time></trkpt><trkpt lat="45.47340918839176" lon="9.288517642083693"><ele>114.0</ele><time>2026-04-12T08:10:00Z</time></trkpt><trkpt lat="45.47349455386252" lon="9.28855270517481"><ele>114.0</ele><time>2026-04-12T08:10:02Z</time></trkpt><trkpt lat="45.473579949653455" lon="9.288581877228639"><ele>114.0</ele><time>2026-04-12T08:10:04Z</time></trkpt><trkpt lat="45.47366819963716" lon="9.288608776648521"><ele>114.0</ele><time>2026-04-12T08:10:06Z</time></trkpt><trkpt lat="45.47375607750659" lon="9.288638201218872"><ele>114.0</ele><time>2026-04-12T08:10:08Z</time></trkpt><trkpt lat="45.473846673989755" lon="9.288656919211572"><ele>114.0</ele><time>2026-04-12T08:10:10Z</time></trkpt><trkpt lat="45.47393529790388" lon="9.288681200430949"><ele>114.0</ele><time>2026-04-12T08:10:12Z</time></trkpt><trkpt lat="45.47402444573751" lon="9.28870308907447"><ele>114.0</ele><time>2026-04-12T08:10:14Z</time></trkpt><trkpt lat="45.474114212350315" lon="9.288719801229165"><ele>114.0</ele><time>2026-04-12T08:10:16Z</time></trkpt><trkpt lat="45.474203338550765" lon="9.288729203776729"><ele>114.0</ele><time>2026-04-12T08:10:18Z</time></trkpt><trkpt lat="45.474292591644584" lon="9.28875375734861"><ele>114.0</ele><time>2026-04-12T08:10:20Z</time></trkpt><trkpt lat="45.474381655597604" lon="9.288760296757802"><ele>114.0</ele><time>2026-04-12T08:10:22Z</time></trkpt><trkpt lat="45.47446836686433" lon="9.288763270508174"><ele>114.0</ele><time>2026-04-12T08:10:24Z</time></trkpt><trkpt lat="45.47455316458386" lon="9.288764888493448"><ele>114.0</ele><time>2026-04-12T08:10:26Z</time></trkpt><trkpt lat="45.47463093033391" lon="9.288754542109405"><ele>114.16666666666667</ele><time>2026-04-12T08:10:28Z</time></trkpt><trkpt lat="45.47469085079785" lon="9.288695090104163"><ele>114.33333333333334</ele><time>2026-04-12T08:10:30Z</time></trkpt><trkpt lat="45.47473582313136" lon="9.288620151840323"><ele>114.5</ele><time>2026-04-12T08:10:32Z</time></trkpt><trkpt lat="45.47480551837326" lon="9.28860485700675"><ele>114.66666666666667</ele><time>2026-04-12T08:10:35Z</time></trkpt><trkpt lat="45.47486792523673" lon="9.288680066739634"><ele>114.83333333333334</ele><time>2026-04-12T08:10:38Z</time></trkpt><trkpt lat="45.474923424137586" lon="9.288776777698633"><ele>115.0</ele><time>2026-04-12T08:10:41Z</time></trkpt><trkpt lat="45.4749932701752" lon="9.288829895011627"><ele>115.0</ele><time>2026-04-12T08:10:44Z</time></trkpt><trkpt lat="45.475040154988996" lon="9.288733359526162"><ele>115.0</ele><time>2026-04-12T08:10:46Z</time></trkpt><trkpt lat="45.47501505762612" lon="9.288630426343648"><ele>115.0</ele><time>2026-04-12T08:10:48Z</time></trkpt><trkpt lat="45.47494983993788" lon="9.288539820026516"><ele>115.0</ele><time>2026-04-12T08:10:50Z</time></trkpt><trkpt lat="45.47488370728622" lon="9.288432369318008"><ele>115.0</ele><time>2026-04-12T08:10:52Z</time></trkpt><trkpt lat="45.47480814002906" lon="9.28830718412002"><ele>115.0</ele><time>2026-04-12T08:10:54Z</time></trkpt><trkpt lat="45.47472319814057" lon="9.288176809698289"><ele>115.0</ele><time>2026-04-12T08:10:56Z</time></trkpt><trkpt lat="45.47465354056061" lon="9.28806654611529"><ele>115.0</ele><time>2026-04-12T08:10:58Z</time></trkpt><trkpt lat="45.47460082718136" lon="9.28797429779979"><ele>115.0</ele><time>2026-04-12T08:11:00Z</time></trkpt><trkpt lat="45.47461543535279" lon="9.287857153377619"><ele>115.0</ele><time>2026-04-12T08:11:03Z</time></trkpt><trkpt lat="45.47460683396699" lon="9.287710968333347"><ele>115.0</ele><time>2026-04-12T08:11:06Z</time></trkpt><trkpt lat="45.47461164840998" lon="9.287576569141374"><ele>115.0</ele><time>2026-04-12T08:11:08.068Z</time></trkpt><trkpt lat="45.47470756647362" lon="9.287446125488323"><ele>115.0</ele><time>2026-04-12T08:11:10Z</time></trkpt><trkpt lat="45.474647882234294" lon="9.287303439034185"><ele>115.0</ele><time>2026-04-12T08:11:12Z</time></trkpt><trkpt lat="45.474603514902" lon="9.287187741980443"><ele>115.0</ele><time>2026-04-12T08:11:14Z</time></trkpt><trkpt lat="45.474548224433505" lon="9.287083607650262"><ele>114.33333333333334</ele><time>2026-04-12T08:11:16Z</time></trkpt><trkpt lat="45.4744939561538" lon="9.286980922336918"><ele>113.66666666666667</ele><time>2026-04-12T08:11:18Z</time></trkpt><trkpt lat="45.47444376140676" lon="9.286883116450682"><ele>113.0</ele><time>2026-04-12T08:11:20Z</time></trkpt><trkpt lat="45.47438724701235" lon="9.2867895671406"><ele>112.33333333333334</ele><time>2026-04-12T08:11:22Z</time></trkpt><trkpt lat="45.474317253330135" lon="9.286722106930327"><ele>111.66666666666667</ele><time>2026-04-12T08:11:24Z</time></trkpt><trkpt lat="45.47427025965418" lon="9.286607233237198"><ele>111.0</ele><time>2026-04-12T08:11:26Z</time></trkpt><trkpt lat="45.47421329435187" lon="9.286505779976384"><ele>111.0</ele><time>2026-04-12T08:11:28Z</time></trkpt><trkpt lat="45.47415653114351" lon="9.286396692347175"><ele>111.0</ele><time>2026-04-12T08:11:30Z</time></trkpt><trkpt lat="45.47409011877173" lon="9.286303674736523"><ele>111.0</ele><time>2026-04-12T08:11:32Z</time></trkpt><trkpt lat="45.4740151179221" lon="9.286211625207896"><ele>111.0</ele><time>2026-04-12T08:11:34Z</time></trkpt><trkpt lat="45.473981103009464" lon="9.286077164091662"><ele>111.0</ele><time>2026-04-12T08:11:36Z</time></trkpt><trkpt lat="45.473983277487804" lon="9.285932865304085"><ele>111.0</ele><time>2026-04-12T08:11:38Z</time></trkpt><trkpt lat="45.47395763746597" lon="9.28580159788778"><ele>111.0</ele><time>2026-04-12T08:11:40Z</time></trkpt><trkpt lat="45.473945215916245" lon="9.285675000180168"><ele>111.0</ele><time>2026-04-12T08:11:42Z</time></trkpt><trkpt lat="45.47395059159665" lon="9.28554346500872"><ele>111.0</ele><time>2026-04-12T08:11:44Z</time></trkpt><trkpt lat="45.47395409171588" lon="9.285422182409155"><ele>111.0</ele><time>2026-04-12T08:11:46Z</time></trkpt><trkpt lat="45.47396567311208" lon="9.285328651721116"><ele>111.0</ele><time>2026-04-12T08:11:48Z</time></trkpt><trkpt lat="45.47398330018865" lon="9.285220992181047"><ele>111.19999999999999</ele><time>2026-04-12T08:11:50Z</time></trkpt><trkpt lat="45.47397570348916" lon="9.285087130471794"><ele>111.39999999999999</ele><time>2026-04-12T08:11:52Z</time></trkpt><trkpt lat="45.4739817907278" lon="9.284952902745651"><ele>111.6</ele><time>2026-04-12T08:11:54Z</time></trkpt><trkpt lat="45.4739848908067" lon="9.284816844129823"><ele>111.8</ele><time>2026-04-12T08:11:56Z</time></trkpt><trkpt lat="45.47398840207159" lon="9.28467536425822"><ele>112.0</ele><time>2026-04-12T08:11:58Z</time></trkpt><trkpt lat="45.47399188716065" lon="9.28453611706675"><ele>112.39999999999999</ele><time>2026-04-12T08:12:00Z</time></trkpt><trkpt lat="45.47399444891152" lon="9.284397966748111"><ele>112.79999999999998</ele><time>2026-04-12T08:12:02Z</time></trkpt><trkpt lat="45.47399902558157" lon="9.284258542783176"><ele>113.2</ele><time>2026-04-12T08:12:04Z</time></trkpt><trkpt lat="45.47401198829081" lon="9.284119306592846"><ele>113.6</ele><time>2026-04-12T08:12:06Z</time></trkpt><trkpt lat="45.47401322304632" lon="9.28398232521045"><ele>114.0</ele><time>2026-04-12T08:12:08Z</time></trkpt><trkpt lat="45.47402487076361" lon="9.28384376519849"><ele>114.2</ele><time>2026-04-12T08:12:10Z</time></trkpt><trkpt lat="45.47406736871452" lon="9.283714640707094"><ele>114.4</ele><time>2026-04-12T08:12:12Z</time></trkpt><trkpt lat="45.474102436134196" lon="9.283578756049344"><ele>114.6</ele><time>2026-04-12T08:12:14Z</time></trkpt><trkpt lat="45.47414987244399" lon="9.283447507276442"><ele>114.8</ele><time>2026-04-12T08:12:16Z</time></trkpt><trkpt lat="45.474190894902634" lon="9.28331438830225"><ele>115.0</ele><time>2026-04-12T08:12:18Z</time></trkpt><trkpt lat="45.47422885700709" lon="9.2831803851236"><ele>114.4</ele><time>2026-04-12T08:12:20Z</time></trkpt><trkpt lat="45.47426848180288" lon="9.283048283424202"><ele>113.8</ele><time>2026-04-12T08:12:22Z</time></trkpt><trkpt lat="45.47430801448118" lon="9.282914594398806"><ele>113.19999999999999</ele><time>2026-04-12T08:12:24Z</time></trkpt><trkpt lat="45.47431235790883" lon="9.28277150947671"><ele>112.6</ele><time>2026-04-12T08:12:26Z</time></trkpt><trkpt lat="45.47431868470886" lon="9.28262492005533"><ele>112.0</ele><time>2026-04-12T08:12:28Z</time></trkpt><trkpt lat="45.474346265221406" lon="9.28246827843241"><ele>112.0</ele><time>2026-04-12T08:12:30Z</time></trkpt><trkpt lat="45.47437119401925" lon="9.282312119604205"><ele>112.0</ele><time>2026-04-12T08:12:32Z</time></trkpt><trkpt lat="45.47439077396089" lon="9.282148159653946"><ele>112.0</ele><time>2026-04-12T08:12:34Z</time></trkpt><trkpt lat="45.4743922747806" lon="9.28198224836304"><ele>112.0</ele><time>2026-04-12T08:12:36Z</time></trkpt><trkpt lat="45.47438365650855" lon="9.281819005438141"><ele>112.00000000000001</ele><time>2026-04-12T08:12:38Z</time></trkpt><trkpt lat="45.47434673222148" lon="9.281653445199193"><ele>112.0</ele><time>2026-04-12T08:12:40Z</time></trkpt><trkpt lat="45.474300541884894" lon="9.281494389467479"><ele>112.0</ele><time>2026-04-12T08:12:42Z</time></trkpt><trkpt lat="45.47427238246715" lon="9.281409998081573"><ele>112.0</ele><time>2026-04-12T08:12:43Z</time></trkpt><trkpt lat="45.474245428613806" lon="9.281325141522629"><ele>112.00000000000001</ele><time>2026-04-12T08:12:44Z</time></trkpt><trkpt lat="45.474214040462044" lon="9.281240849654193"><ele>112.0</ele><time>2026-04-12T08:12:45Z</time></trkpt><trkpt lat="45.47418363078794" lon="9.281157974944307"><ele>112.14285714285714</ele><time>2026-04-12T08:12:46Z</time></trkpt><trkpt lat="45.47415636600705" lon="9.281073218233857"><ele>112.28571428571428</ele><time>2026-04-12T08:12:47Z</time></trkpt><trkpt lat="45.47412500974253" lon="9.280988288947668"><ele>112.42857142857143</ele><time>2026-04-12T08:12:48Z</time></trkpt><trkpt lat="45.47409427823942" lon="9.280906165774317"><ele>112.57142857142857</ele><time>2026-04-12T08:12:49Z</time></trkpt><trkpt lat="45.474059727867676" lon="9.28082075078284"><ele>112.71428571428571</ele><time>2026-04-12T08:12:50Z</time></trkpt><trkpt lat="45.47403038329169" lon="9.280736650050617"><ele>112.85714285714286</ele><time>2026-04-12T08:12:51Z</time></trkpt><trkpt lat="45.47400184039677" lon="9.280653719111129"><ele>113.0</ele><time>2026-04-12T08:12:52Z</time></trkpt><trkpt lat="45.473968786412755" lon="9.280570494429007"><ele>113.0</ele><time>2026-04-12T08:12:53Z</time></trkpt><trkpt lat="45.473938941691046" lon="9.280486720157327"><ele>113.0</ele><time>2026-04-12T08:12:54Z</time></trkpt><trkpt lat="45.47390918744826" lon="9.280402215388193"><ele>113.0</ele><time>2026-04-12T08:12:55Z</time></trkpt><trkpt lat="45.473877579350734" lon="9.280314293660462"><ele>113.0</ele><time>2026-04-12T08:12:56Z</time></trkpt><trkpt lat="45.473847095555975" lon="9.280230261856945"><ele>113.0</ele><time>2026-04-12T08:12:57Z</time></trkpt><trkpt lat="45.473819329117674" lon="9.280144222547607"><ele>113.0</ele><time>2026-04-12T08:12:58Z</time></trkpt><trkpt lat="45.473789062717884" lon="9.280059212121577"><ele>113.0</ele><time>2026-04-12T08:12:59Z</time></trkpt><trkpt lat="45.4737575634133" lon="9.279974197474667"><ele>112.85714285714286</ele><time>2026-04-12T08:13:00Z</time></trkpt><trkpt lat="45.473730110548026" lon="9.27988985241312"><ele>112.71428571428571</ele><time>2026-04-12T08:13:01Z</time></trkpt><trkpt lat="45.47369913263796" lon="9.279806641157814"><ele>112.57142857142857</ele><time>2026-04-12T08:13:02Z</time></trkpt><trkpt lat="45.47366844934475" lon="9.279721411332496"><ele>112.42857142857143</ele><time>2026-04-12T08:13:03Z</time></trkpt><trkpt lat="45.47364182446754" lon="9.27963423226559"><ele>112.28571428571428</ele><time>2026-04-12T08:13:04Z</time></trkpt><trkpt lat="45.47361712975378" lon="9.27954645586235"><ele>112.14285714285714</ele><time>2026-04-12T08:13:05Z</time></trkpt><trkpt lat="45.473598503625595" lon="9.27945829010123"><ele>112.0</ele><time>2026-04-12T08:13:06Z</time></trkpt><trkpt lat="45.47357701542966" lon="9.279372431415764"><ele>112.0</ele><time>2026-04-12T08:13:07Z</time></trkpt><trkpt lat="45.473558400753646" lon="9.279284959625762"><ele>111.99999999999999</ele><time>2026-04-12T08:13:08Z</time></trkpt><trkpt lat="45.47352765790602" lon="9.279114529234215"><ele>111.99999999999999</ele><time>2026-04-12T08:13:10Z</time></trkpt><trkpt lat="45.47350934090502" lon="9.279026720680925"><ele>112.0</ele><time>2026-04-12T08:13:11Z</time></trkpt><trkpt lat="45.47345419591938" lon="9.27886278505157"><ele>112.0</ele><time>2026-04-12T08:13:13Z</time></trkpt><trkpt lat="45.47339198756203" lon="9.278708311577342"><ele>112.39999999999999</ele><time>2026-04-12T08:13:15Z</time></trkpt><trkpt lat="45.47335807494858" lon="9.278632658442282"><ele>112.79999999999998</ele><time>2026-04-12T08:13:16Z</time></trkpt><trkpt lat="45.47329025915747" lon="9.278482573312768"><ele>113.2</ele><time>2026-04-12T08:13:18Z</time></trkpt><trkpt lat="45.47322675713442" lon="9.278332724349406"><ele>113.6</ele><time>2026-04-12T08:13:20Z</time></trkpt><trkpt lat="45.47316579441532" lon="9.278181509347789"><ele>114.0</ele><time>2026-04-12T08:13:22Z</time></trkpt><trkpt lat="45.473135196764765" lon="9.278102549321053"><ele>114.125</ele><time>2026-04-12T08:13:23Z</time></trkpt><trkpt lat="45.4731016325207" lon="9.278023181109"><ele>114.25</ele><time>2026-04-12T08:13:24Z</time></trkpt><trkpt lat="45.47307095191129" lon="9.277944396900814"><ele>114.375</ele><time>2026-04-12T08:13:25Z</time></trkpt><trkpt lat="45.47303885365926" lon="9.277863455322764"><ele>114.5</ele><time>2026-04-12T08:13:26Z</time></trkpt><trkpt lat="45.4730051159138" lon="9.277787268831975"><ele>114.625</ele><time>2026-04-12T08:13:27Z</time></trkpt><trkpt lat="45.47297145465443" lon="9.27771009444611"><ele>114.75</ele><time>2026-04-12T08:13:28Z</time></trkpt><trkpt lat="45.47293283310275" lon="9.277636144233005"><ele>114.875</ele><time>2026-04-12T08:13:29Z</time></trkpt><trkpt lat="45.472896608900335" lon="9.277561185334157"><ele>115.0</ele><time>2026-04-12T08:13:30Z</time></trkpt><trkpt lat="45.4728602245331" lon="9.27748398375087"><ele>114.99999999999999</ele><time>2026-04-12T08:13:31Z</time></trkpt><trkpt lat="45.4728266387807" lon="9.27740323037284"><ele>115.0</ele><time>2026-04-12T08:13:32Z</time></trkpt><trkpt lat="45.47279442715999" lon="9.277320646409672"><ele>114.99999999999999</ele><time>2026-04-12T08:13:33Z</time></trkpt><trkpt lat="45.47276365946953" lon="9.277236319193792"><ele>114.99999999999999</ele><time>2026-04-12T08:13:34Z</time></trkpt><trkpt lat="45.47273817880474" lon="9.277148209073438"><ele>115.0</ele><time>2026-04-12T08:13:35Z</time></trkpt><trkpt lat="45.47272413419278" lon="9.277057828996162"><ele>114.99999999999999</ele><time>2026-04-12T08:13:36Z</time></trkpt><trkpt lat="45.47271064495129" lon="9.276967398096525"><ele>114.99999999999999</ele><time>2026-04-12T08:13:37Z</time></trkpt><trkpt lat="45.47269394598455" lon="9.276878012039965"><ele>114.99999999999999</ele><time>2026-04-12T08:13:38Z</time></trkpt><trkpt lat="45.47268388510732" lon="9.276784100395059"><ele>115.0</ele><time>2026-04-12T08:13:39Z</time></trkpt><trkpt lat="45.47267609950577" lon="9.276690918631363"><ele>114.99999999999999</ele><time>2026-04-12T08:13:40Z</time></trkpt><trkpt lat="45.472669154935396" lon="9.276593914416901"><ele>114.99999999999999</ele><time>2026-04-12T08:13:41Z</time></trkpt><trkpt lat="45.47266440505611" lon="9.276498244010266"><ele>115.0</ele><time>2026-04-12T08:13:42Z</time></trkpt><trkpt lat="45.472661091994965" lon="9.276404927613218"><ele>114.99999999999999</ele><time>2026-04-12T08:13:43Z</time></trkpt><trkpt lat="45.47266423564007" lon="9.276312062383315"><ele>114.99999999999999</ele><time>2026-04-12T08:13:44Z</time></trkpt><trkpt lat="45.47266670711316" lon="9.276214918035677"><ele>114.4</ele><time>2026-04-12T08:13:45Z</time></trkpt><trkpt lat="45.472667579027096" lon="9.276120789552973"><ele>113.8</ele><time>2026-04-12T08:13:46Z</time></trkpt><trkpt lat="45.472662977863415" lon="9.27602646878488"><ele>113.19999999999999</ele><time>2026-04-12T08:13:47Z</time></trkpt><trkpt lat="45.47266002858966" lon="9.275845142766943"><ele>112.6</ele><time>2026-04-12T08:13:49Z</time></trkpt><trkpt lat="45.4726609838724" lon="9.275663851031105"><ele>112.0</ele><time>2026-04-12T08:13:51Z</time></trkpt><trkpt lat="45.47265590271" lon="9.275571743771437"><ele>112.0</ele><time>2026-04-12T08:13:52Z</time></trkpt><trkpt lat="45.47266458994238" lon="9.275398534018105"><ele>111.99999999999999</ele><time>2026-04-12T08:13:54Z</time></trkpt><trkpt lat="45.472667571708655" lon="9.275303825904906"><ele>111.99999999999999</ele><time>2026-04-12T08:13:55Z</time></trkpt><trkpt lat="45.472677207827935" lon="9.275203877404719"><ele>112.0</ele><time>2026-04-12T08:13:56Z</time></trkpt><trkpt lat="45.47268400493823" lon="9.275030388795452"><ele>112.0</ele><time>2026-04-12T08:13:58Z</time></trkpt><trkpt lat="45.47269289276937" lon="9.274852727412197"><ele>112.33333333333334</ele><time>2026-04-12T08:14:00Z</time></trkpt><trkpt lat="45.47270570591421" lon="9.274671284447338"><ele>112.66666666666667</ele><time>2026-04-12T08:14:02Z</time></trkpt><trkpt lat="45.47270961030494" lon="9.274580891431583"><ele>113.0</ele><time>2026-04-12T08:14:03Z</time></trkpt><trkpt lat="45.47271178252131" lon="9.274488105139367"><ele>113.33333333333334</ele><time>2026-04-12T08:14:04Z</time></trkpt><trkpt lat="45.47271540562056" lon="9.274392691887066"><ele>113.66666666666667</ele><time>2026-04-12T08:14:05Z</time></trkpt><trkpt lat="45.472724065143886" lon="9.274301311871273"><ele>114.0</ele><time>2026-04-12T08:14:06Z</time></trkpt><trkpt lat="45.47273245389511" lon="9.274205960702922"><ele>114.0</ele><time>2026-04-12T08:14:07Z</time></trkpt><trkpt lat="45.47273055175419" lon="9.274102887764862"><ele>114.0</ele><time>2026-04-12T08:14:08Z</time></trkpt><trkpt lat="45.47272315411786" lon="9.274004942052612"><ele>114.0</ele><time>2026-04-12T08:14:09Z</time></trkpt><trkpt lat="45.47273236267436" lon="9.27391019825275"><ele>114.0</ele><time>2026-04-12T08:14:10Z</time></trkpt><trkpt lat="45.47273234821109" lon="9.273819991428308"><ele>114.0</ele><time>2026-04-12T08:14:11Z</time></trkpt><trkpt lat="45.47273183558163" lon="9.273729011061226"><ele>114.0</ele><time>2026-04-12T08:14:12Z</time></trkpt><trkpt lat="45.47272378716106" lon="9.273555373931732"><ele>113.75</ele><time>2026-04-12T08:14:14Z</time></trkpt><trkpt lat="45.47270806391241" lon="9.273415877579145"><ele>113.5</ele><time>2026-04-12T08:14:16Z</time></trkpt><trkpt lat="45.47269915232674" lon="9.273231567665189"><ele>113.25</ele><time>2026-04-12T08:14:18Z</time></trkpt><trkpt lat="45.472688236636" lon="9.273064946380403"><ele>113.0</ele><time>2026-04-12T08:14:20Z</time></trkpt><trkpt lat="45.47267401935195" lon="9.27289382892961"><ele>112.80000000000001</ele><time>2026-04-12T08:14:22Z</time></trkpt><trkpt lat="45.472661245295704" lon="9.272731706829887"><ele>112.60000000000001</ele><time>2026-04-12T08:14:24Z</time></trkpt><trkpt lat="45.47265333493806" lon="9.272573400227868"><ele>112.39999999999999</ele><time>2026-04-12T08:14:26Z</time></trkpt><trkpt lat="45.4726409321199" lon="9.272403653510144"><ele>112.19999999999999</ele><time>2026-04-12T08:14:28Z</time></trkpt><trkpt lat="45.47263418622174" lon="9.272310979690584"><ele>112.0</ele><time>2026-04-12T08:14:29Z</time></trkpt><trkpt lat="45.47259797383935" lon="9.272149844513141"><ele>112.39999999999999</ele><time>2026-04-12T08:14:31Z</time></trkpt><trkpt lat="45.47257810707533" lon="9.272064657898774"><ele>112.79999999999998</ele><time>2026-04-12T08:14:32Z</time></trkpt><trkpt lat="45.47253370922992" lon="9.27190385116906"><ele>113.2</ele><time>2026-04-12T08:14:34Z</time></trkpt><trkpt lat="45.472490387040786" lon="9.271735967956914"><ele>113.6</ele><time>2026-04-12T08:14:36Z</time></trkpt><trkpt lat="45.47243765232311" lon="9.271574478949843"><ele>114.0</ele><time>2026-04-12T08:14:38Z</time></trkpt><trkpt lat="45.472416718251424" lon="9.271489333017406"><ele>113.83333333333333</ele><time>2026-04-12T08:14:39Z</time></trkpt><trkpt lat="45.472382151631784" lon="9.27131552217338"><ele>113.66666666666666</ele><time>2026-04-12T08:14:41Z</time></trkpt><trkpt lat="45.472369700362016" lon="9.271226547617443"><ele>113.5</ele><time>2026-04-12T08:14:42Z</time></trkpt><trkpt lat="45.47235950823363" lon="9.271133290785672"><ele>113.33333333333333</ele><time>2026-04-12T08:14:43Z</time></trkpt><trkpt lat="45.472355235610216" lon="9.27103996489447"><ele>113.16666666666666</ele><time>2026-04-12T08:14:44Z</time></trkpt><trkpt lat="45.47235431285504" lon="9.27094989869715"><ele>113.0</ele><time>2026-04-12T08:14:45Z</time></trkpt><trkpt lat="45.47235673085485" lon="9.27085540887729"><ele>113.0</ele><time>2026-04-12T08:14:46Z</time></trkpt><trkpt lat="45.47236233140423" lon="9.270765275779436"><ele>113.0</ele><time>2026-04-12T08:14:47Z</time></trkpt><trkpt lat="45.47236862911229" lon="9.270673215584607"><ele>113.0</ele><time>2026-04-12T08:14:48Z</time></trkpt><trkpt lat="45.47237463149721" lon="9.27058183641049"><ele>113.0</ele><time>2026-04-12T08:14:49Z</time></trkpt><trkpt lat="45.47237744364301" lon="9.270491732432799"><ele>113.0</ele><time>2026-04-12T08:14:50Z</time></trkpt><trkpt lat="45.47238438551937" lon="9.270401507537326"><ele>113.0</ele><time>2026-04-12T08:14:51Z</time></trkpt><trkpt lat="45.47239753114802" lon="9.27022475563909"><ele>113.0</ele><time>2026-04-12T08:14:53Z</time></trkpt><trkpt lat="45.472405978435404" lon="9.270101883996512"><ele>112.99999999999999</ele><time>2026-04-12T08:14:55Z</time></trkpt><trkpt lat="45.472405886442715" lon="9.269980949422905"><ele>113.0</ele><time>2026-04-12T08:14:57Z</time></trkpt><trkpt lat="45.47238866809471" lon="9.269858603983295"><ele>113.0</ele><time>2026-04-12T08:14:59Z</time></trkpt><trkpt lat="45.47237934711306" lon="9.269730659067587"><ele>113.0</ele><time>2026-04-12T08:15:01Z</time></trkpt><trkpt lat="45.47236804733299" lon="9.269594622634752"><ele>112.99999999999999</ele><time>2026-04-12T08:15:03Z</time></trkpt><trkpt lat="45.47235316835482" lon="9.26947547990618"><ele>113.0</ele><time>2026-04-12T08:15:05Z</time></trkpt><trkpt lat="45.47234082241799" lon="9.269365331781248"><ele>112.99999999999999</ele><time>2026-04-12T08:15:08Z</time></trkpt><trkpt lat="45.472290671874234" lon="9.269272857465674"><ele>113.0</ele><time>2026-04-12T08:15:16Z</time></trkpt><trkpt lat="45.47228348920538" lon="9.269180385487678"><ele>113.0</ele><time>2026-04-12T08:15:18Z</time></trkpt><trkpt lat="45.47227522790794" lon="9.269045607658251"><ele>113.0</ele><time>2026-04-12T08:15:20Z</time></trkpt><trkpt lat="45.4722652976337" lon="9.268889632415059"><ele>112.99999999999999</ele><time>2026-04-12T08:15:22Z</time></trkpt><trkpt lat="45.47225256717702" lon="9.268800956064569"><ele>113.0</ele><time>2026-04-12T08:15:23Z</time></trkpt><trkpt lat="45.472235946486265" lon="9.26870712793866"><ele>113.0</ele><time>2026-04-12T08:15:24Z</time></trkpt><trkpt lat="45.472224508906734" lon="9.268608612271418"><ele>113.0</ele><time>2026-04-12T08:15:25Z</time></trkpt><trkpt lat="45.47222155872179" lon="9.268508313789141"><ele>113.0</ele><time>2026-04-12T08:15:26Z</time></trkpt><trkpt lat="45.47221480280219" lon="9.268408905406478"><ele>113.0</ele><time>2026-04-12T08:15:27Z</time></trkpt><trkpt lat="45.47220368454028" lon="9.268309511470587"><ele>113.0</ele><time>2026-04-12T08:15:28Z</time></trkpt><trkpt lat="45.47219507297041" lon="9.26820890123647"><ele>113.0</ele><time>2026-04-12T08:15:29Z</time></trkpt><trkpt lat="45.47218540630701" lon="9.268109480222991"><ele>113.0</ele><time>2026-04-12T08:15:30Z</time></trkpt><trkpt lat="45.472173578848775" lon="9.268009103906019"><ele>113.0</ele><time>2026-04-12T08:15:31Z</time></trkpt><trkpt lat="45.47216014945725" lon="9.267910029058509"><ele>113.0</ele><time>2026-04-12T08:15:32Z</time></trkpt><trkpt lat="45.472150691841165" lon="9.267809744408039"><ele>113.0</ele><time>2026-04-12T08:15:33Z</time></trkpt><trkpt lat="45.47214443416998" lon="9.267714459577165"><ele>113.0</ele><time>2026-04-12T08:15:34Z</time></trkpt><trkpt lat="45.47213550856079" lon="9.26761783694664"><ele>113.0</ele><time>2026-04-12T08:15:35Z</time></trkpt><trkpt lat="45.472126214493024" lon="9.267523284643543"><ele>113.0</ele><time>2026-04-12T08:15:36Z</time></trkpt><trkpt lat="45.472118318219486" lon="9.267432346799328"><ele>113.0</ele><time>2026-04-12T08:15:37Z</time></trkpt><trkpt lat="45.472108381053694" lon="9.26733702170954"><ele>112.80000000000001</ele><time>2026-04-12T08:15:38Z</time></trkpt><trkpt lat="45.47209941405161" lon="9.267241731418656"><ele>112.60000000000001</ele><time>2026-04-12T08:15:39Z</time></trkpt><trkpt lat="45.47208587997993" lon="9.267151520671703"><ele>112.39999999999999</ele><time>2026-04-12T08:15:40Z</time></trkpt><trkpt lat="45.47206133786413" lon="9.266977362281038"><ele>112.19999999999999</ele><time>2026-04-12T08:15:42Z</time></trkpt><trkpt lat="45.47201546001103" lon="9.266820365186142"><ele>112.0</ele><time>2026-04-12T08:15:44Z</time></trkpt><trkpt lat="45.47198952015487" lon="9.266672366967587"><ele>112.0</ele><time>2026-04-12T08:15:46Z</time></trkpt><trkpt lat="45.47197633831324" lon="9.266516292015671"><ele>111.99999999999999</ele><time>2026-04-12T08:15:48Z</time></trkpt><trkpt lat="45.47196378943159" lon="9.266388765828266"><ele>111.99999999999999</ele><time>2026-04-12T08:15:50Z</time></trkpt><trkpt lat="45.47190632251647" lon="9.26631117122758"><ele>112.0</ele><time>2026-04-12T08:15:52Z</time></trkpt><trkpt lat="45.471815936585685" lon="9.266359489482607"><ele>112.0</ele><time>2026-04-12T08:15:54Z</time></trkpt><trkpt lat="45.47172497985755" lon="9.26639592843023"><ele>112.0</ele><time>2026-04-12T08:15:56Z</time></trkpt><trkpt lat="45.47163050261143" lon="9.266418091486278"><ele>111.99999999999999</ele><time>2026-04-12T08:15:58Z</time></trkpt><trkpt lat="45.4715292404524" lon="9.266435417752346"><ele>111.99999999999999</ele><time>2026-04-12T08:16:00Z</time></trkpt><trkpt lat="45.471421910764434" lon="9.266459481831657"><ele>112.0</ele><time>2026-04-12T08:16:02Z</time></trkpt><trkpt lat="45.471316756238814" lon="9.26648153925942"><ele>112.0</ele><time>2026-04-12T08:16:04Z</time></trkpt><trkpt lat="45.47121441616717" lon="9.266488885233823"><ele>111.8</ele><time>2026-04-12T08:16:06Z</time></trkpt><trkpt lat="45.471110788306575" lon="9.266508653077446"><ele>111.6</ele><time>2026-04-12T08:16:08Z</time></trkpt><trkpt lat="45.47100620006238" lon="9.266526685615663"><ele>111.39999999999999</ele><time>2026-04-12T08:16:10Z</time></trkpt><trkpt lat="45.4708972149285" lon="9.266532280545514"><ele>111.19999999999999</ele><time>2026-04-12T08:16:12Z</time></trkpt><trkpt lat="45.470795798998616" lon="9.266543623198633"><ele>111.0</ele><time>2026-04-12T08:16:14Z</time></trkpt><trkpt lat="45.470699109381876" lon="9.266531011627517"><ele>111.0</ele><time>2026-04-12T08:16:16Z</time></trkpt><trkpt lat="45.47062107960085" lon="9.26648456028598"><ele>111.0</ele><time>2026-04-12T08:16:18Z</time></trkpt><trkpt lat="45.470540611836235" lon="9.266477285921093"><ele>111.0</ele><time>2026-04-12T08:16:20Z</time></trkpt><trkpt lat="45.47044540970831" lon="9.26651128902389"><ele>111.0</ele><time>2026-04-12T08:16:22Z</time></trkpt><trkpt lat="45.47034961273644" lon="9.266584079022403"><ele>111.0</ele><time>2026-04-12T08:16:24Z</time></trkpt><trkpt lat="45.470257805778914" lon="9.266680344825925"><ele>111.0</ele><time>2026-04-12T08:16:26Z</time></trkpt><trkpt lat="45.470175386269645" lon="9.266791282995456"><ele>111.0</ele><time>2026-04-12T08:16:28Z</time></trkpt><trkpt lat="45.47010515558192" lon="9.266920029907942"><ele>111.0</ele><time>2026-04-12T08:16:30Z</time></trkpt><trkpt lat="45.47000332368559" lon="9.26700291330593"><ele>111.0</ele><time>2026-04-12T08:16:32Z</time></trkpt><trkpt lat="45.469885209433976" lon="9.267034436461907"><ele>111.0</ele><time>2026-04-12T08:16:34Z</time></trkpt><trkpt lat="45.46977011037005" lon="9.267081781641721"><ele>111.0</ele><time>2026-04-12T08:16:36Z</time></trkpt><trkpt lat="45.46965569710498" lon="9.26712618584239"><ele>111.0</ele><time>2026-04-12T08:16:38Z</time></trkpt><trkpt lat="45.46954099723086" lon="9.267171115728418"><ele>111.0</ele><time>2026-04-12T08:16:40Z</time></trkpt><trkpt lat="45.46942154477176" lon="9.267159042180449"><ele>110.0</ele><time>2026-04-12T08:16:42Z</time></trkpt><trkpt lat="45.469312347362205" lon="9.267086992214214"><ele>109.0</ele><time>2026-04-12T08:16:44Z</time></trkpt><trkpt lat="45.4692067257163" lon="9.267013592411464"><ele>108.0</ele><time>2026-04-12T08:16:46Z</time></trkpt><trkpt lat="45.469096462444625" lon="9.26695508080373"><ele>107.0</ele><time>2026-04-12T08:16:48Z</time></trkpt><trkpt lat="45.4689825852555" lon="9.266903136670711"><ele>107.0</ele><time>2026-04-12T08:16:50Z</time></trkpt><trkpt lat="45.46886741321042" lon="9.266880914896847"><ele>107.0</ele><time>2026-04-12T08:16:52Z</time></trkpt><trkpt lat="45.468752223655834" lon="9.26688694740007"><ele>107.0</ele><time>2026-04-12T08:16:54Z</time></trkpt><trkpt lat="45.4686353934148" lon="9.266910871655552"><ele>107.0</ele><time>2026-04-12T08:16:56Z</time></trkpt><trkpt lat="45.46852033043876" lon="9.266925377100645"><ele>107.19999999999999</ele><time>2026-04-12T08:16:58Z</time></trkpt><trkpt lat="45.46840576494069" lon="9.266933294249657"><ele>107.39999999999999</ele><time>2026-04-12T08:17:00Z</time></trkpt><trkpt lat="45.46829771442921" lon="9.266919039214548"><ele>107.60000000000001</ele><time>2026-04-12T08:17:02Z</time></trkpt><trkpt lat="45.46819870524468" lon="9.266919021503638"><ele>107.80000000000001</ele><time>2026-04-12T08:17:04Z</time></trkpt><trkpt lat="45.468116230469136" lon="9.26691105376338"><ele>108.0</ele><time>2026-04-12T08:17:06Z</time></trkpt><trkpt lat="45.4680552382059" lon="9.266887584033519"><ele>108.0</ele><time>2026-04-12T08:17:08Z</time></trkpt><trkpt lat="45.4679898765059" lon="9.266821324042482"><ele>108.0</ele><time>2026-04-12T08:17:10Z</time></trkpt><trkpt lat="45.46790458072696" lon="9.266755951568644"><ele>108.0</ele><time>2026-04-12T08:17:12Z</time></trkpt><trkpt lat="45.467823675509266" lon="9.266630419747198"><ele>108.0</ele><time>2026-04-12T08:17:14Z</time></trkpt><trkpt lat="45.46779272124391" lon="9.266551558181153"><ele>108.0</ele><time>2026-04-12T08:17:15Z</time></trkpt><trkpt lat="45.46778485262529" lon="9.266458083336488"><ele>108.0</ele><time>2026-04-12T08:17:16Z</time></trkpt><trkpt lat="45.46780225055392" lon="9.266365575983285"><ele>108.2</ele><time>2026-04-12T08:17:17Z</time></trkpt><trkpt lat="45.467843133412536" lon="9.266282072289384"><ele>108.4</ele><time>2026-04-12T08:17:18Z</time></trkpt><trkpt lat="45.46789006145236" lon="9.266221678240607"><ele>108.60000000000001</ele><time>2026-04-12T08:17:19Z</time></trkpt><trkpt lat="45.46796868784361" lon="9.266086769253222"><ele>108.80000000000001</ele><time>2026-04-12T08:17:21Z</time></trkpt><trkpt lat="45.46800543625022" lon="9.265922987006233"><ele>109.0</ele><time>2026-04-12T08:17:23Z</time></trkpt><trkpt lat="45.46802241368153" lon="9.265748419302685"><ele>108.50000000000001</ele><time>2026-04-12T08:17:25Z</time></trkpt><trkpt lat="45.46800544327771" lon="9.265574040393508"><ele>108.0</ele><time>2026-04-12T08:17:27Z</time></trkpt><trkpt lat="45.46797243114819" lon="9.265497208697884"><ele>107.5</ele><time>2026-04-12T08:17:28Z</time></trkpt><trkpt lat="45.46791063662675" lon="9.265449310562698"><ele>107.0</ele><time>2026-04-12T08:17:29Z</time></trkpt><trkpt lat="45.46784444971626" lon="9.265428681095475"><ele>106.50000000000001</ele><time>2026-04-12T08:17:30Z</time></trkpt><trkpt lat="45.467776393623396" lon="9.265431462102516"><ele>106.0</ele><time>2026-04-12T08:17:31Z</time></trkpt><trkpt lat="45.46771157630797" lon="9.26542877775951"><ele>105.71428571428572</ele><time>2026-04-12T08:17:32Z</time></trkpt><trkpt lat="45.467647325541826" lon="9.26542470171815"><ele>105.42857142857142</ele><time>2026-04-12T08:17:33Z</time></trkpt><trkpt lat="45.46758296193264" lon="9.265407065696676"><ele>105.14285714285714</ele><time>2026-04-12T08:17:34Z</time></trkpt><trkpt lat="45.46752414267468" lon="9.265362942953706"><ele>104.85714285714286</ele><time>2026-04-12T08:17:35Z</time></trkpt><trkpt lat="45.46747286668084" lon="9.265302268387739"><ele>104.57142857142858</ele><time>2026-04-12T08:17:36Z</time></trkpt><trkpt lat="45.467427149818846" lon="9.2652387549869"><ele>104.28571428571428</ele><time>2026-04-12T08:17:37Z</time></trkpt><trkpt lat="45.46733351576765" lon="9.26513287471508"><ele>104.0</ele><time>2026-04-12T08:17:39Z</time></trkpt><trkpt lat="45.467234368463224" lon="9.265073130764456"><ele>103.99999999999999</ele><time>2026-04-12T08:17:41Z</time></trkpt><trkpt lat="45.46714122122297" lon="9.26506172621212"><ele>104.0</ele><time>2026-04-12T08:17:43Z</time></trkpt><trkpt lat="45.467065202922754" lon="9.265071105910785"><ele>104.0</ele><time>2026-04-12T08:17:45Z</time></trkpt><trkpt lat="45.46698292181473" lon="9.265117049296602"><ele>104.0</ele><time>2026-04-12T08:17:48Z</time></trkpt><trkpt lat="45.466915835880556" lon="9.26514146160803"><ele>103.99999999999999</ele><time>2026-04-12T08:17:50Z</time></trkpt><trkpt lat="45.46682648176457" lon="9.26511453817225"><ele>104.0</ele><time>2026-04-12T08:17:52Z</time></trkpt><trkpt lat="45.46673320677816" lon="9.265051262078305"><ele>105.2</ele><time>2026-04-12T08:17:54Z</time></trkpt><trkpt lat="45.46663251714056" lon="9.26499610888106"><ele>106.4</ele><time>2026-04-12T08:17:56Z</time></trkpt><trkpt lat="45.4665321286893" lon="9.26492210562135"><ele>107.6</ele><time>2026-04-12T08:17:58Z</time></trkpt><trkpt lat="45.46645337079514" lon="9.264822020454373"><ele>108.8</ele><time>2026-04-12T08:18:00Z</time></trkpt><trkpt lat="45.466414226067094" lon="9.264693557268343"><ele>110.0</ele><time>2026-04-12T08:18:02Z</time></trkpt><trkpt lat="45.466411510148376" lon="9.2645552165417"><ele>110.0</ele><time>2026-04-12T08:18:04Z</time></trkpt><trkpt lat="45.46644030873213" lon="9.264415437561327"><ele>110.0</ele><time>2026-04-12T08:18:06Z</time></trkpt><trkpt lat="45.466448291532224" lon="9.264261434429446"><ele>110.0</ele><time>2026-04-12T08:18:08Z</time></trkpt><trkpt lat="45.466432724482914" lon="9.26411055519968"><ele>110.0</ele><time>2026-04-12T08:18:10Z</time></trkpt><trkpt lat="45.46640778788729" lon="9.263956873629986"><ele>110.0</ele><time>2026-04-12T08:18:12Z</time></trkpt><trkpt lat="45.466369555305086" lon="9.263800737289191"><ele>109.8</ele><time>2026-04-12T08:18:14Z</time></trkpt><trkpt lat="45.46632105176358" lon="9.263663137642997"><ele>109.6</ele><time>2026-04-12T08:18:16Z</time></trkpt><trkpt lat="45.46626110692757" lon="9.263545396516966"><ele>109.4</ele><time>2026-04-12T08:18:18Z</time></trkpt><trkpt lat="45.466203519615576" lon="9.263434017748992"><ele>109.2</ele><time>2026-04-12T08:18:20Z</time></trkpt><trkpt lat="45.466143616570406" lon="9.263320256801524"><ele>109.0</ele><time>2026-04-12T08:18:22Z</time></trkpt><trkpt lat="45.466096041868276" lon="9.263188330161853"><ele>108.80000000000001</ele><time>2026-04-12T08:18:24Z</time></trkpt><trkpt lat="45.46604621816058" lon="9.263074035997906"><ele>108.60000000000001</ele><time>2026-04-12T08:18:26Z</time></trkpt><trkpt lat="45.46600132588417" lon="9.26296326371812"><ele>108.4</ele><time>2026-04-12T08:18:28Z</time></trkpt><trkpt lat="45.465957354062326" lon="9.262838109240617"><ele>108.2</ele><time>2026-04-12T08:18:30Z</time></trkpt><trkpt lat="45.465954822437396" lon="9.262691003701349"><ele>108.0</ele><time>2026-04-12T08:18:32Z</time></trkpt><trkpt lat="45.46594411943332" lon="9.262549897103462"><ele>108.0</ele><time>2026-04-12T08:18:34Z</time></trkpt><trkpt lat="45.46593524784641" lon="9.262415369981134"><ele>108.0</ele><time>2026-04-12T08:18:36Z</time></trkpt><trkpt lat="45.46594391758613" lon="9.262292064082837"><ele>108.0</ele><time>2026-04-12T08:18:38Z</time></trkpt><trkpt lat="45.46596949149476" lon="9.2621660308782"><ele>108.0</ele><time>2026-04-12T08:18:40Z</time></trkpt><trkpt lat="45.466003758369" lon="9.262068396390658"><ele>108.0</ele><time>2026-04-12T08:18:42Z</time></trkpt><trkpt lat="45.466050567001105" lon="9.261983641403846"><ele>108.0</ele><time>2026-04-12T08:18:45Z</time></trkpt><trkpt lat="45.466090885529944" lon="9.261913541144"><ele>108.33333333333333</ele><time>2026-04-12T08:18:47Z</time></trkpt><trkpt lat="45.46613935607155" lon="9.261806623827301"><ele>108.66666666666666</ele><time>2026-04-12T08:18:50Z</time></trkpt><trkpt lat="45.466179776404985" lon="9.261705810067815"><ele>109.0</ele><time>2026-04-12T08:18:53Z</time></trkpt><trkpt lat="45.466219895944164" lon="9.261621727004684"><ele>109.33333333333333</ele><time>2026-04-12T08:18:58Z</time></trkpt><trkpt lat="45.46626863811337" lon="9.261564555335932"><ele>109.66666666666666</ele><time>2026-04-12T08:19:02Z</time></trkpt><trkpt lat="45.466317463315754" lon="9.261480569800213"><ele>110.0</ele><time>2026-04-12T08:19:04Z</time></trkpt><trkpt lat="45.46638210765693" lon="9.261410930594286"><ele>110.83333333333333</ele><time>2026-04-12T08:19:06Z</time></trkpt><trkpt lat="45.46644924224044" lon="9.261361498259566"><ele>111.66666666666666</ele><time>2026-04-12T08:19:08Z</time></trkpt><trkpt lat="45.46651199258764" lon="9.261295647205978"><ele>112.5</ele><time>2026-04-12T08:19:10Z</time></trkpt><trkpt lat="45.46659800979193" lon="9.261243107471142"><ele>113.33333333333334</ele><time>2026-04-12T08:19:12Z</time></trkpt><trkpt lat="45.46668448121775" lon="9.261181714431467"><ele>114.16666666666667</ele><time>2026-04-12T08:19:14Z</time></trkpt><trkpt lat="45.466769675325644" lon="9.261111717662237"><ele>115.0</ele><time>2026-04-12T08:19:16Z</time></trkpt><trkpt lat="45.466845905845915" lon="9.2610143014657"><ele>115.0</ele><time>2026-04-12T08:19:18Z</time></trkpt><trkpt lat="45.466903637977836" lon="9.260898113919358"><ele>115.0</ele><time>2026-04-12T08:19:20Z</time></trkpt><trkpt lat="45.46691534952398" lon="9.260746790074363"><ele>115.0</ele><time>2026-04-12T08:19:22Z</time></trkpt><trkpt lat="45.466904407139104" lon="9.260594128120204"><ele>115.0</ele><time>2026-04-12T08:19:24Z</time></trkpt><trkpt lat="45.46688023073441" lon="9.260448381787013"><ele>115.0</ele><time>2026-04-12T08:19:26Z</time></trkpt><trkpt lat="45.466837166216024" lon="9.260313475113437"><ele>114.6</ele><time>2026-04-12T08:19:28Z</time></trkpt><trkpt lat="45.46678856111663" lon="9.260184665025818"><ele>114.2</ele><time>2026-04-12T08:19:30Z</time></trkpt><trkpt lat="45.46674098380972" lon="9.260053975144256"><ele>113.80000000000001</ele><time>2026-04-12T08:19:32Z</time></trkpt><trkpt lat="45.466681512988345" lon="9.259935058906471"><ele>113.4</ele><time>2026-04-12T08:19:34Z</time></trkpt><trkpt lat="45.46661906156342" lon="9.259826401239843"><ele>113.0</ele><time>2026-04-12T08:19:36Z</time></trkpt><trkpt lat="45.466564909393746" lon="9.259722031920393"><ele>112.4</ele><time>2026-04-12T08:19:38Z</time></trkpt><trkpt lat="45.46649303656234" lon="9.25963062068696"><ele>111.80000000000001</ele><time>2026-04-12T08:19:40Z</time></trkpt><trkpt lat="45.46640990600838" lon="9.25954743481207"><ele>111.2</ele><time>2026-04-12T08:19:42Z</time></trkpt><trkpt lat="45.46631728430132" lon="9.259492888621988"><ele>110.6</ele><time>2026-04-12T08:19:44Z</time></trkpt><trkpt lat="45.466219355265224" lon="9.259461454012557"><ele>110.0</ele><time>2026-04-12T08:19:46Z</time></trkpt><trkpt lat="45.4661211066314" lon="9.259447421142445"><ele>110.0</ele><time>2026-04-12T08:19:48Z</time></trkpt><trkpt lat="45.46601859103192" lon="9.259450728498631"><ele>110.0</ele><time>2026-04-12T08:19:50Z</time></trkpt><trkpt lat="45.4659150916521" lon="9.259498954678769"><ele>110.0</ele><time>2026-04-12T08:19:52Z</time></trkpt><trkpt lat="45.46582237289614" lon="9.25954975818678"><ele>110.0</ele><time>2026-04-12T08:19:54Z</time></trkpt><trkpt lat="45.46573662684882" lon="9.259608346363427"><ele>110.0</ele><time>2026-04-12T08:19:56Z</time></trkpt><trkpt lat="45.46565680348809" lon="9.259673528237554"><ele>109.99999999999999</ele><time>2026-04-12T08:19:58Z</time></trkpt><trkpt lat="45.465579457945964" lon="9.259744871640967"><ele>110.0</ele><time>2026-04-12T08:20:00Z</time></trkpt><trkpt lat="45.46550791303866" lon="9.259825876159685"><ele>110.0</ele><time>2026-04-12T08:20:02Z</time></trkpt><trkpt lat="45.46544477447274" lon="9.259910147517225"><ele>110.0</ele><time>2026-04-12T08:20:04Z</time></trkpt><trkpt lat="45.4653883577537" lon="9.259991967436612"><ele>109.99999999999999</ele><time>2026-04-12T08:20:06Z</time></trkpt><trkpt lat="45.465334738573965" lon="9.260072901067899"><ele>110.0</ele><time>2026-04-12T08:20:08Z</time></trkpt><trkpt lat="45.46526785119084" lon="9.260143136428885"><ele>110.2</ele><time>2026-04-12T08:20:10Z</time></trkpt><trkpt lat="45.46521316597267" lon="9.260238372272964"><ele>110.4</ele><time>2026-04-12T08:20:12Z</time></trkpt><trkpt lat="45.46514404030258" lon="9.260339209052312"><ele>110.6</ele><time>2026-04-12T08:20:14Z</time></trkpt><trkpt lat="45.46507457365081" lon="9.260448990806479"><ele>110.8</ele><time>2026-04-12T08:20:16Z</time></trkpt><trkpt lat="45.46500625771034" lon="9.260547958429536"><ele>111.0</ele><time>2026-04-12T08:20:18Z</time></trkpt><trkpt lat="45.464933327883486" lon="9.260647156213007"><ele>111.0</ele><time>2026-04-12T08:20:20Z</time></trkpt><trkpt lat="45.46485999886492" lon="9.260734854025"><ele>111.0</ele><time>2026-04-12T08:20:22Z</time></trkpt><trkpt lat="45.464772419063124" lon="9.260812834731832"><ele>111.0</ele><time>2026-04-12T08:20:24Z</time></trkpt><trkpt lat="45.46467928472679" lon="9.26086519910862"><ele>111.0</ele><time>2026-04-12T08:20:26Z</time></trkpt><trkpt lat="45.46457706594414" lon="9.260870365119157"><ele>111.0</ele><time>2026-04-12T08:20:28Z</time></trkpt><trkpt lat="45.46447934566117" lon="9.260826866062041"><ele>110.8</ele><time>2026-04-12T08:20:30Z</time></trkpt><trkpt lat="45.464383081944455" lon="9.26077287982616"><ele>110.6</ele><time>2026-04-12T08:20:32Z</time></trkpt><trkpt lat="45.46428896686441" lon="9.260763519613963"><ele>110.4</ele><time>2026-04-12T08:20:34Z</time></trkpt><trkpt lat="45.46425967833637" lon="9.260914315725547"><ele>110.2</ele><time>2026-04-12T08:20:36Z</time></trkpt><trkpt lat="45.46425938694959" lon="9.261054559400517"><ele>110.0</ele><time>2026-04-12T08:20:38Z</time></trkpt><trkpt lat="45.46424143717822" lon="9.261193510834765"><ele>109.99999999999999</ele><time>2026-04-12T08:20:40Z</time></trkpt><trkpt lat="45.464225403822766" lon="9.261319914591875"><ele>110.0</ele><time>2026-04-12T08:20:42Z</time></trkpt><trkpt lat="45.46420824970489" lon="9.261411970554256"><ele>110.0</ele><time>2026-04-12T08:20:44Z</time></trkpt><trkpt lat="45.46415552452461" lon="9.261463681316902"><ele>110.0</ele><time>2026-04-12T08:20:46Z</time></trkpt><trkpt lat="45.46407915607401" lon="9.261443403987595"><ele>109.99999999999999</ele><time>2026-04-12T08:20:48Z</time></trkpt><trkpt lat="45.463981737392466" lon="9.261441088996943"><ele>110.0</ele><time>2026-04-12T08:20:50Z</time></trkpt><trkpt lat="45.46387659695605" lon="9.261464456857157"><ele>109.4</ele><time>2026-04-12T08:20:52Z</time></trkpt><trkpt lat="45.46377208148473" lon="9.261485610262804"><ele>108.8</ele><time>2026-04-12T08:20:54Z</time></trkpt><trkpt lat="45.46366220412235" lon="9.261508820621977"><ele>108.19999999999999</ele><time>2026-04-12T08:20:56Z</time></trkpt><trkpt lat="45.46355316027301" lon="9.261532614817707"><ele>107.6</ele><time>2026-04-12T08:20:58Z</time></trkpt><trkpt lat="45.4634436841283" lon="9.261560621771864"><ele>107.0</ele><time>2026-04-12T08:21:00Z</time></trkpt><trkpt lat="45.46333521252559" lon="9.26159204936952"><ele>107.0</ele><time>2026-04-12T08:21:02Z</time></trkpt><trkpt lat="45.46323092084032" lon="9.26162891874822"><ele>106.99999999999999</ele><time>2026-04-12T08:21:04Z</time></trkpt><trkpt lat="45.46313023073065" lon="9.261665574458627"><ele>106.99999999999999</ele><time>2026-04-12T08:21:06Z</time></trkpt><trkpt lat="45.463034834645256" lon="9.261705461358128"><ele>107.0</ele><time>2026-04-12T08:21:08Z</time></trkpt><trkpt lat="45.4629562894054" lon="9.2617277223575"><ele>107.0</ele><time>2026-04-12T08:21:10Z</time></trkpt><trkpt lat="45.46291766997692" lon="9.261653548779611"><ele>107.0</ele><time>2026-04-12T08:21:12Z</time></trkpt><trkpt lat="45.46296263017763" lon="9.261551207260545"><ele>106.99999999999999</ele><time>2026-04-12T08:21:14Z</time></trkpt><trkpt lat="45.46299453407218" lon="9.261439906445212"><ele>106.99999999999999</ele><time>2026-04-12T08:21:16Z</time></trkpt><trkpt lat="45.46302138609839" lon="9.261301208377729"><ele>107.0</ele><time>2026-04-12T08:21:18Z</time></trkpt><trkpt lat="45.46304092397018" lon="9.261150568653601"><ele>107.0</ele><time>2026-04-12T08:21:20Z</time></trkpt><trkpt lat="45.46306213450145" lon="9.260993894046594"><ele>107.39999999999999</ele><time>2026-04-12T08:21:22Z</time></trkpt><trkpt lat="45.46306952225838" lon="9.260834433769388"><ele>107.79999999999998</ele><time>2026-04-12T08:21:24Z</time></trkpt><trkpt lat="45.46307133869211" lon="9.260681335686035"><ele>108.2</ele><time>2026-04-12T08:21:26Z</time></trkpt><trkpt lat="45.46306323058074" lon="9.260526213528403"><ele>108.6</ele><time>2026-04-12T08:21:28Z</time></trkpt><trkpt lat="45.46303431853451" lon="9.26036652273239"><ele>109.0</ele><time>2026-04-12T08:21:30Z</time></trkpt><trkpt lat="45.46301562275879" lon="9.260212801663837"><ele>109.6</ele><time>2026-04-12T08:21:32Z</time></trkpt><trkpt lat="45.46301102066153" lon="9.260060747033904"><ele>110.2</ele><time>2026-04-12T08:21:34Z</time></trkpt><trkpt lat="45.46303080022343" lon="9.259916064441555"><ele>110.79999999999998</ele><time>2026-04-12T08:21:36Z</time></trkpt><trkpt lat="45.463063584335096" lon="9.259770616490872"><ele>111.39999999999999</ele><time>2026-04-12T08:21:38Z</time></trkpt><trkpt lat="45.46312677010606" lon="9.259644027183938"><ele>112.0</ele><time>2026-04-12T08:21:40Z</time></trkpt><trkpt lat="45.4631988192832" lon="9.259532304613089"><ele>112.6</ele><time>2026-04-12T08:21:42Z</time></trkpt><trkpt lat="45.46327323605171" lon="9.259434711660418"><ele>113.19999999999999</ele><time>2026-04-12T08:21:44Z</time></trkpt><trkpt lat="45.46335762286669" lon="9.259327805776763"><ele>113.8</ele><time>2026-04-12T08:21:46Z</time></trkpt><trkpt lat="45.46344109634268" lon="9.259239886152455"><ele>114.4</ele><time>2026-04-12T08:21:48Z</time></trkpt><trkpt lat="45.46350628260002" lon="9.25912682954627"><ele>115.0</ele><time>2026-04-12T08:21:50Z</time></trkpt><trkpt lat="45.4635471396867" lon="9.258981043861818"><ele>114.75</ele><time>2026-04-12T08:21:52Z</time></trkpt><trkpt lat="45.46352744016465" lon="9.258825585299963"><ele>114.5</ele><time>2026-04-12T08:21:54Z</time></trkpt><trkpt lat="45.46351056900547" lon="9.258675244371563"><ele>114.25</ele><time>2026-04-12T08:21:56Z</time></trkpt><trkpt lat="45.46345009347486" lon="9.258532303540692"><ele>114.0</ele><time>2026-04-12T08:21:58Z</time></trkpt><trkpt lat="45.46337770777208" lon="9.258398127060243"><ele>114.0</ele><time>2026-04-12T08:22:00Z</time></trkpt><trkpt lat="45.46330443474474" lon="9.258272781550707"><ele>114.0</ele><time>2026-04-12T08:22:02Z</time></trkpt><trkpt lat="45.46323128613917" lon="9.258155003567639"><ele>114.0</ele><time>2026-04-12T08:22:04Z</time></trkpt><trkpt lat="45.46316877654326" lon="9.258044224823003"><ele>114.0</ele><time>2026-04-12T08:22:06Z</time></trkpt><trkpt lat="45.46310916238541" lon="9.25794099708695"><ele>114.0</ele><time>2026-04-12T08:22:08Z</time></trkpt><trkpt lat="45.4630110144305" lon="9.257972199809924"><ele>113.83333333333333</ele><time>2026-04-12T08:22:10Z</time></trkpt><trkpt lat="45.46293147978241" lon="9.258034416979726"><ele>113.66666666666666</ele><time>2026-04-12T08:22:12Z</time></trkpt><trkpt lat="45.46285169951665" lon="9.258080790276791"><ele>113.5</ele><time>2026-04-12T08:22:14Z</time></trkpt><trkpt lat="45.4627722489721" lon="9.258114006539573"><ele>113.33333333333333</ele><time>2026-04-12T08:22:16Z</time></trkpt><trkpt lat="45.46269270172374" lon="9.258143218695572"><ele>113.16666666666666</ele><time>2026-04-12T08:22:18Z</time></trkpt><trkpt lat="45.4626181252777" lon="9.258131137958001"><ele>113.0</ele><time>2026-04-12T08:22:20Z</time></trkpt><trkpt lat="45.462543029198024" lon="9.258125048633648"><ele>112.71428571428572</ele><time>2026-04-12T08:22:22Z</time></trkpt><trkpt lat="45.462470797441554" lon="9.258096641851493"><ele>112.42857142857142</ele><time>2026-04-12T08:22:24Z</time></trkpt><trkpt lat="45.462395671787895" lon="9.258066903158978"><ele>112.14285714285714</ele><time>2026-04-12T08:22:26Z</time></trkpt><trkpt lat="45.46233671390644" lon="9.258026449729428"><ele>111.85714285714286</ele><time>2026-04-12T08:22:28Z</time></trkpt><trkpt lat="45.46227686203633" lon="9.257982452650802"><ele>111.57142857142858</ele><time>2026-04-12T08:22:30Z</time></trkpt><trkpt lat="45.46222016861825" lon="9.257939853250715"><ele>111.28571428571428</ele><time>2026-04-12T08:22:32Z</time></trkpt><trkpt lat="45.46215289081508" lon="9.257902954983606"><ele>111.0</ele><time>2026-04-12T08:22:34Z</time></trkpt><trkpt lat="45.46207306944594" lon="9.257851560086136"><ele>111.0</ele><time>2026-04-12T08:22:37Z</time></trkpt><trkpt lat="45.462010244694646" lon="9.257820191449591"><ele>111.0</ele><time>2026-04-12T08:22:40Z</time></trkpt><trkpt lat="45.46193210391575" lon="9.257778844526241"><ele>111.0</ele><time>2026-04-12T08:22:44Z</time></trkpt><trkpt lat="45.46186656607882" lon="9.257737177488398"><ele>111.0</ele><time>2026-04-12T08:22:47Z</time></trkpt><trkpt lat="45.46179824464546" lon="9.25767651498377"><ele>111.0</ele><time>2026-04-12T08:22:50Z</time></trkpt><trkpt lat="45.461706413379076" lon="9.25764055434892"><ele>111.0</ele><time>2026-04-12T08:22:53Z</time></trkpt><trkpt lat="45.46165970527242" lon="9.257556546020108"><ele>111.0</ele><time>2026-04-12T08:22:55Z</time></trkpt><trkpt lat="45.46168332444812" lon="9.25741694461556"><ele>111.0</ele><time>2026-04-12T08:22:57Z</time></trkpt><trkpt lat="45.46169354656838" lon="9.257268800808836"><ele>111.0</ele><time>2026-04-12T08:22:59Z</time></trkpt><trkpt lat="45.4617172878216" lon="9.25710220077594"><ele>111.0</ele><time>2026-04-12T08:23:01Z</time></trkpt><trkpt lat="45.46173258902437" lon="9.256930373375996"><ele>111.0</ele><time>2026-04-12T08:23:03Z</time></trkpt><trkpt lat="45.46173585391439" lon="9.256840474600214"><ele>110.8</ele><time>2026-04-12T08:23:04Z</time></trkpt><trkpt lat="45.46172806617791" lon="9.256741278920586"><ele>110.6</ele><time>2026-04-12T08:23:05Z</time></trkpt><trkpt lat="45.46172372660701" lon="9.256643601379372"><ele>110.4</ele><time>2026-04-12T08:23:06Z</time></trkpt><trkpt lat="45.46173536304841" lon="9.256479632014795"><ele>110.2</ele><time>2026-04-12T08:23:08Z</time></trkpt><trkpt lat="45.46178417070782" lon="9.256329425536935"><ele>110.0</ele><time>2026-04-12T08:23:10Z</time></trkpt><trkpt lat="45.461804926148375" lon="9.256190678756763"><ele>109.8</ele><time>2026-04-12T08:23:12Z</time></trkpt><trkpt lat="45.46181375158499" lon="9.256052744757111"><ele>109.6</ele><time>2026-04-12T08:23:14Z</time></trkpt><trkpt lat="45.46178457542414" lon="9.255930967793937"><ele>109.4</ele><time>2026-04-12T08:23:16Z</time></trkpt><trkpt lat="45.461787817343385" lon="9.25578561287538"><ele>109.2</ele><time>2026-04-12T08:23:18Z</time></trkpt><trkpt lat="45.461784338551034" lon="9.255652155533404"><ele>109.0</ele><time>2026-04-12T08:23:20Z</time></trkpt><trkpt lat="45.461787957643" lon="9.255527300104244"><ele>109.00000000000001</ele><time>2026-04-12T08:23:22Z</time></trkpt><trkpt lat="45.461786143261605" lon="9.255401795632316"><ele>109.0</ele><time>2026-04-12T08:23:24Z</time></trkpt><trkpt lat="45.46178660226791" lon="9.255287110342255"><ele>109.0</ele><time>2026-04-12T08:23:26Z</time></trkpt><trkpt lat="45.461786555958575" lon="9.255174055034848"><ele>109.0</ele><time>2026-04-12T08:23:28Z</time></trkpt><trkpt lat="45.461784788801566" lon="9.255079013059664"><ele>109.00000000000001</ele><time>2026-04-12T08:23:30Z</time></trkpt><trkpt lat="45.46178926884944" lon="9.25498238176962"><ele>109.0</ele><time>2026-04-12T08:23:33Z</time></trkpt><trkpt lat="45.46178182411408" lon="9.254868683088594"><ele>109.50000000000001</ele><time>2026-04-12T08:23:37Z</time></trkpt><trkpt lat="45.461758748835734" lon="9.254740657699541"><ele>110.0</ele><time>2026-04-12T08:23:40Z</time></trkpt><trkpt lat="45.461726114161" lon="9.25465290852434"><ele>110.5</ele><time>2026-04-12T08:23:42Z</time></trkpt><trkpt lat="45.461671927365174" lon="9.254576425456996"><ele>111.0</ele><time>2026-04-12T08:23:44Z</time></trkpt><trkpt lat="45.46159007261135" lon="9.254498722869975"><ele>111.50000000000001</ele><time>2026-04-12T08:23:46Z</time></trkpt><trkpt lat="45.46151565471529" lon="9.254423449824948"><ele>112.0</ele><time>2026-04-12T08:23:48Z</time></trkpt><trkpt lat="45.46141362472257" lon="9.254404914090047"><ele>112.0</ele><time>2026-04-12T08:23:50Z</time></trkpt><trkpt lat="45.46130528256033" lon="9.25441479026442"><ele>111.99999999999999</ele><time>2026-04-12T08:23:52Z</time></trkpt><trkpt lat="45.461196635684594" lon="9.254406946638047"><ele>111.99999999999999</ele><time>2026-04-12T08:23:54Z</time></trkpt><trkpt lat="45.46108143729455" lon="9.2544165145485"><ele>112.0</ele><time>2026-04-12T08:23:56Z</time></trkpt><trkpt lat="45.46097092138666" lon="9.254443093253728"><ele>112.0</ele><time>2026-04-12T08:23:58Z</time></trkpt><trkpt lat="45.46086146974083" lon="9.254486801375704"><ele>112.0</ele><time>2026-04-12T08:24:00Z</time></trkpt><trkpt lat="45.460756415406415" lon="9.25454064309142"><ele>111.99999999999999</ele><time>2026-04-12T08:24:02Z</time></trkpt><trkpt lat="45.460656543141084" lon="9.254585577841818"><ele>111.99999999999999</ele><time>2026-04-12T08:24:04Z</time></trkpt><trkpt lat="45.46056640140121" lon="9.25465290431827"><ele>112.0</ele><time>2026-04-12T08:24:06Z</time></trkpt><trkpt lat="45.46047480993931" lon="9.254713257026632"><ele>112.0</ele><time>2026-04-12T08:24:08Z</time></trkpt><trkpt lat="45.46038633526916" lon="9.254771322497717"><ele>112.19999999999999</ele><time>2026-04-12T08:24:10Z</time></trkpt><trkpt lat="45.460296893078684" lon="9.254832536618434"><ele>112.39999999999999</ele><time>2026-04-12T08:24:12Z</time></trkpt><trkpt lat="45.46020477144121" lon="9.25489503931693"><ele>112.60000000000001</ele><time>2026-04-12T08:24:14Z</time></trkpt><trkpt lat="45.46011391959652" lon="9.254961954420507"><ele>112.80000000000001</ele><time>2026-04-12T08:24:16Z</time></trkpt><trkpt lat="45.46002123071054" lon="9.255020020184727"><ele>113.0</ele><time>2026-04-12T08:24:18Z</time></trkpt><trkpt lat="45.459926746538684" lon="9.255075588648165"><ele>113.0</ele><time>2026-04-12T08:24:20Z</time></trkpt><trkpt lat="45.45983165442409" lon="9.25513224672822"><ele>113.00000000000001</ele><time>2026-04-12T08:24:22Z</time></trkpt><trkpt lat="45.45973730266305" lon="9.255190044503628"><ele>113.00000000000001</ele><time>2026-04-12T08:24:24Z</time></trkpt><trkpt lat="45.45963782986887" lon="9.255253753713857"><ele>113.0</ele><time>2026-04-12T08:24:26Z</time></trkpt><trkpt lat="45.459537070572516" lon="9.255312625709168"><ele>113.0</ele><time>2026-04-12T08:24:28Z</time></trkpt><trkpt lat="45.4594364492691" lon="9.255379408038552"><ele>112.16666666666666</ele><time>2026-04-12T08:24:30Z</time></trkpt><trkpt lat="45.459326240433626" lon="9.255445990268816"><ele>111.33333333333333</ele><time>2026-04-12T08:24:32Z</time></trkpt><trkpt lat="45.45921722731735" lon="9.255526695953563"><ele>110.5</ele><time>2026-04-12T08:24:34Z</time></trkpt><trkpt lat="45.45915718649765" lon="9.255564284849818"><ele>109.66666666666666</ele><time>2026-04-12T08:24:35Z</time></trkpt><trkpt lat="45.45909929075157" lon="9.255603602753956"><ele>108.83333333333333</ele><time>2026-04-12T08:24:36Z</time></trkpt><trkpt lat="45.45904227349328" lon="9.255643504589196"><ele>108.0</ele><time>2026-04-12T08:24:37Z</time></trkpt><trkpt lat="45.458928289874" lon="9.255723035068193"><ele>107.85714285714286</ele><time>2026-04-12T08:24:39Z</time></trkpt><trkpt lat="45.45887100287132" lon="9.255764562774191"><ele>107.71428571428571</ele><time>2026-04-12T08:24:40Z</time></trkpt><trkpt lat="45.45881486029848" lon="9.25580895310956"><ele>107.57142857142858</ele><time>2026-04-12T08:24:41Z</time></trkpt><trkpt lat="45.45876166120362" lon="9.255857578041908"><ele>107.42857142857143</ele><time>2026-04-12T08:24:42Z</time></trkpt><trkpt lat="45.45870831123873" lon="9.255908718905966"><ele>107.28571428571429</ele><time>2026-04-12T08:24:43Z</time></trkpt><trkpt lat="45.458655762170345" lon="9.255962574903243"><ele>107.14285714285715</ele><time>2026-04-12T08:24:44Z</time></trkpt><trkpt lat="45.458606888946264" lon="9.256024328690168"><ele>107.0</ele><time>2026-04-12T08:24:45Z</time></trkpt><trkpt lat="45.45856001651426" lon="9.256090684445681"><ele>107.00000000000001</ele><time>2026-04-12T08:24:46Z</time></trkpt><trkpt lat="45.45851589473158" lon="9.256160369547581"><ele>107.0</ele><time>2026-04-12T08:24:47Z</time></trkpt><trkpt lat="45.458475979218946" lon="9.256237910971363"><ele>107.0</ele><time>2026-04-12T08:24:48Z</time></trkpt><trkpt lat="45.45843734122457" lon="9.25631711911395"><ele>107.0</ele><time>2026-04-12T08:24:49Z</time></trkpt><trkpt lat="45.45839820633379" lon="9.256394748021977"><ele>107.0</ele><time>2026-04-12T08:24:50Z</time></trkpt><trkpt lat="45.45835866960503" lon="9.256471274877773"><ele>107.00000000000001</ele><time>2026-04-12T08:24:51Z</time></trkpt><trkpt lat="45.458320809967866" lon="9.256549081800902"><ele>107.0</ele><time>2026-04-12T08:24:52Z</time></trkpt><trkpt lat="45.458285964114026" lon="9.25663066620665"><ele>107.28571428571429</ele><time>2026-04-12T08:24:53Z</time></trkpt><trkpt lat="45.4582490619425" lon="9.256704536136748"><ele>107.57142857142857</ele><time>2026-04-12T08:24:54Z</time></trkpt><trkpt lat="45.45820861717833" lon="9.256780037411305"><ele>107.85714285714286</ele><time>2026-04-12T08:24:55Z</time></trkpt><trkpt lat="45.45816761027591" lon="9.25685486771458"><ele>108.14285714285714</ele><time>2026-04-12T08:24:56Z</time></trkpt><trkpt lat="45.45812952163993" lon="9.256929037606083"><ele>108.42857142857143</ele><time>2026-04-12T08:24:57Z</time></trkpt><trkpt lat="45.45809092769247" lon="9.257005243920693"><ele>108.71428571428572</ele><time>2026-04-12T08:24:58Z</time></trkpt><trkpt lat="45.45805263691596" lon="9.257079150023843"><ele>109.0</ele><time>2026-04-12T08:24:59Z</time></trkpt><trkpt lat="45.458014447660055" lon="9.257154848834057"><ele>109.0</ele><time>2026-04-12T08:25:00Z</time></trkpt><trkpt lat="45.45797364693257" lon="9.257228417626933"><ele>109.0</ele><time>2026-04-12T08:25:01Z</time></trkpt><trkpt lat="45.457929182978" lon="9.257294585483473"><ele>109.0</ele><time>2026-04-12T08:25:02Z</time></trkpt><trkpt lat="45.45788177646772" lon="9.257359575765973"><ele>109.0</ele><time>2026-04-12T08:25:03Z</time></trkpt><trkpt lat="45.457834417797315" lon="9.257425559749164"><ele>109.0</ele><time>2026-04-12T08:25:04Z</time></trkpt><trkpt lat="45.457785888429136" lon="9.25748913746252"><ele>109.0</ele><time>2026-04-12T08:25:05Z</time></trkpt><trkpt lat="45.45773569262261" lon="9.257551568462231"><ele>109.0</ele><time>2026-04-12T08:25:06Z</time></trkpt><trkpt lat="45.45767813273905" lon="9.257604949982179"><ele>109.57142857142857</ele><time>2026-04-12T08:25:07Z</time></trkpt><trkpt lat="45.45761958008627" lon="9.25765147928507"><ele>110.14285714285714</ele><time>2026-04-12T08:25:08Z</time></trkpt><trkpt lat="45.45756046191458" lon="9.257697323752634"><ele>110.71428571428572</ele><time>2026-04-12T08:25:09Z</time></trkpt><trkpt lat="45.457500410656515" lon="9.25774068686095"><ele>111.28571428571428</ele><time>2026-04-12T08:25:10Z</time></trkpt><trkpt lat="45.457439175006854" lon="9.257780995494045"><ele>111.85714285714285</ele><time>2026-04-12T08:25:11Z</time></trkpt><trkpt lat="45.45738038748784" lon="9.257819353520839"><ele>112.42857142857143</ele><time>2026-04-12T08:25:12Z</time></trkpt><trkpt lat="45.45732392944381" lon="9.25786483780338"><ele>113.0</ele><time>2026-04-12T08:25:13Z</time></trkpt><trkpt lat="45.45726127655627" lon="9.257907480327022"><ele>113.0</ele><time>2026-04-12T08:25:14Z</time></trkpt><trkpt lat="45.45720393554713" lon="9.257950704422226"><ele>113.0</ele><time>2026-04-12T08:25:15Z</time></trkpt><trkpt lat="45.45714439520177" lon="9.257995717379597"><ele>113.0</ele><time>2026-04-12T08:25:16Z</time></trkpt><trkpt lat="45.45708513820987" lon="9.258035660946971"><ele>113.0</ele><time>2026-04-12T08:25:17Z</time></trkpt><trkpt lat="45.45702468761521" lon="9.25807343711377"><ele>113.0</ele><time>2026-04-12T08:25:18Z</time></trkpt><trkpt lat="45.45696603650807" lon="9.25811190776392"><ele>113.0</ele><time>2026-04-12T08:25:19Z</time></trkpt><trkpt lat="45.456908069176656" lon="9.258152904837736"><ele>113.0</ele><time>2026-04-12T08:25:20Z</time></trkpt><trkpt lat="45.45684858918486" lon="9.25819467360036"><ele>112.83333333333333</ele><time>2026-04-12T08:25:21Z</time></trkpt><trkpt lat="45.45679105223589" lon="9.258236549804437"><ele>112.66666666666666</ele><time>2026-04-12T08:25:22Z</time></trkpt><trkpt lat="45.45667070895803" lon="9.258303179862624"><ele>112.5</ele><time>2026-04-12T08:25:24Z</time></trkpt><trkpt lat="45.45661318455539" lon="9.258343143300035"><ele>112.33333333333334</ele><time>2026-04-12T08:25:25Z</time></trkpt><trkpt lat="45.456556059455465" lon="9.258386228202324"><ele>112.16666666666667</ele><time>2026-04-12T08:25:26Z</time></trkpt><trkpt lat="45.4564957118545" lon="9.258423100950646"><ele>112.0</ele><time>2026-04-12T08:25:27Z</time></trkpt><trkpt lat="45.456436029811606" lon="9.258456138971967"><ele>112.0</ele><time>2026-04-12T08:25:28Z</time></trkpt><trkpt lat="45.456375630929074" lon="9.258493286058235"><ele>112.0</ele><time>2026-04-12T08:25:29Z</time></trkpt><trkpt lat="45.456313223262335" lon="9.25853562396231"><ele>112.0</ele><time>2026-04-12T08:25:30Z</time></trkpt><trkpt lat="45.45625076128652" lon="9.258579464008063"><ele>112.0</ele><time>2026-04-12T08:25:31Z</time></trkpt><trkpt lat="45.45618899580888" lon="9.258622561656992"><ele>112.0</ele><time>2026-04-12T08:25:32Z</time></trkpt><trkpt lat="45.456124862381095" lon="9.258666599071226"><ele>112.0</ele><time>2026-04-12T08:25:33Z</time></trkpt><trkpt lat="45.45606036989761" lon="9.258712947080229"><ele>112.0</ele><time>2026-04-12T08:25:34Z</time></trkpt><trkpt lat="45.45599262890887" lon="9.258755479893642"><ele>112.42857142857143</ele><time>2026-04-12T08:25:35Z</time></trkpt><trkpt lat="45.45592395988615" lon="9.258799385531704"><ele>112.85714285714286</ele><time>2026-04-12T08:25:36Z</time></trkpt><trkpt lat="45.45585717660362" lon="9.258844294026149"><ele>113.28571428571428</ele><time>2026-04-12T08:25:37Z</time></trkpt><trkpt lat="45.45579076987154" lon="9.25888929905176"><ele>113.71428571428571</ele><time>2026-04-12T08:25:38Z</time></trkpt><trkpt lat="45.45572448822108" lon="9.258931611898381"><ele>114.14285714285714</ele><time>2026-04-12T08:25:39Z</time></trkpt><trkpt lat="45.45565763347278" lon="9.258971085495043"><ele>114.57142857142856</ele><time>2026-04-12T08:25:40Z</time></trkpt><trkpt lat="45.455592557206955" lon="9.259013978378123"><ele>114.99999999999999</ele><time>2026-04-12T08:25:41Z</time></trkpt><trkpt lat="45.455526148281606" lon="9.259058536985576"><ele>114.99999999999999</ele><time>2026-04-12T08:25:42Z</time></trkpt><trkpt lat="45.455459506988" lon="9.259097152991924"><ele>115.0</ele><time>2026-04-12T08:25:43Z</time></trkpt><trkpt lat="45.45539101246051" lon="9.259136899982574"><ele>114.99999999999999</ele><time>2026-04-12T08:25:44Z</time></trkpt><trkpt lat="45.455323273622575" lon="9.259183683092504"><ele>114.99999999999999</ele><time>2026-04-12T08:25:45Z</time></trkpt><trkpt lat="45.455254080515765" lon="9.259232700600537"><ele>115.0</ele><time>2026-04-12T08:25:46Z</time></trkpt><trkpt lat="45.45518739211951" lon="9.259280495468769"><ele>114.99999999999999</ele><time>2026-04-12T08:25:47Z</time></trkpt><trkpt lat="45.45512180029423" lon="9.259331666066764"><ele>114.99999999999999</ele><time>2026-04-12T08:25:48Z</time></trkpt><trkpt lat="45.455058461235424" lon="9.25937987869689"><ele>114.99999999999999</ele><time>2026-04-12T08:25:49Z</time></trkpt><trkpt lat="45.4549938952404" lon="9.259424327105272"><ele>115.0</ele><time>2026-04-12T08:25:50Z</time></trkpt><trkpt lat="45.45493105095827" lon="9.259467671266147"><ele>114.99999999999999</ele><time>2026-04-12T08:25:51Z</time></trkpt><trkpt lat="45.45487184242398" lon="9.259513397890363"><ele>114.99999999999999</ele><time>2026-04-12T08:25:52Z</time></trkpt><trkpt lat="45.454811385526305" lon="9.259555378738312"><ele>115.0</ele><time>2026-04-12T08:25:53Z</time></trkpt><trkpt lat="45.45474862807313" lon="9.259596911865128"><ele>114.99999999999999</ele><time>2026-04-12T08:25:54Z</time></trkpt><trkpt lat="45.45468438965147" lon="9.259637883595772"><ele>114.99999999999999</ele><time>2026-04-12T08:25:55Z</time></trkpt><trkpt lat="45.45462296570371" lon="9.259678171213109"><ele>114.14285714285712</ele><time>2026-04-12T08:25:56Z</time></trkpt><trkpt lat="45.45455708577317" lon="9.259711291278274"><ele>113.28571428571428</ele><time>2026-04-12T08:25:57Z</time></trkpt><trkpt lat="45.45449340917912" lon="9.25975083306329"><ele>112.42857142857142</ele><time>2026-04-12T08:25:58Z</time></trkpt><trkpt lat="45.45443148191137" lon="9.259795887319"><ele>111.57142857142856</ele><time>2026-04-12T08:25:59Z</time></trkpt><trkpt lat="45.45436740601376" lon="9.259834764862568"><ele>110.71428571428572</ele><time>2026-04-12T08:26:00Z</time></trkpt><trkpt lat="45.45430413795682" lon="9.259874270927893"><ele>109.85714285714286</ele><time>2026-04-12T08:26:01Z</time></trkpt><trkpt lat="45.454242617848905" lon="9.259910123667288"><ele>109.0</ele><time>2026-04-12T08:26:02Z</time></trkpt><trkpt lat="45.45418219917133" lon="9.25994827691758"><ele>108.75</ele><time>2026-04-12T08:26:03Z</time></trkpt><trkpt lat="45.454071112621655" lon="9.260025404332614"><ele>108.5</ele><time>2026-04-12T08:26:05Z</time></trkpt><trkpt lat="45.45396135657694" lon="9.26009958844356"><ele>108.25</ele><time>2026-04-12T08:26:07Z</time></trkpt><trkpt lat="45.45385450056827" lon="9.260183377431806"><ele>108.0</ele><time>2026-04-12T08:26:09Z</time></trkpt><trkpt lat="45.453750499159185" lon="9.260254350807871"><ele>107.75</ele><time>2026-04-12T08:26:11Z</time></trkpt><trkpt lat="45.45364680196671" lon="9.260324419109176"><ele>107.5</ele><time>2026-04-12T08:26:13Z</time></trkpt><trkpt lat="45.453540580507244" lon="9.260396527453516"><ele>107.25</ele><time>2026-04-12T08:26:15Z</time></trkpt><trkpt lat="45.4534299726859" lon="9.260464393166162"><ele>107.0</ele><time>2026-04-12T08:26:17Z</time></trkpt><trkpt lat="45.45332389282658" lon="9.260535978754408"><ele>107.0</ele><time>2026-04-12T08:26:18.999Z</time></trkpt><trkpt lat="45.453216938502244" lon="9.26060514501974"><ele>107.0</ele><time>2026-04-12T08:26:20.999Z</time></trkpt><trkpt lat="45.4531087185292" lon="9.260675083217306"><ele>107.0</ele><time>2026-04-12T08:26:22.999Z</time></trkpt><trkpt lat="45.45300352539025" lon="9.260747329371297"><ele>107.0</ele><time>2026-04-12T08:26:24.999Z</time></trkpt><trkpt lat="45.45289591425023" lon="9.260818566485282"><ele>107.25</ele><time>2026-04-12T08:26:26.999Z</time></trkpt><trkpt lat="45.45279371238331" lon="9.260895671833492"><ele>107.5</ele><time>2026-04-12T08:26:28.999Z</time></trkpt><trkpt lat="45.45269293663869" lon="9.260975654756573"><ele>107.75</ele><time>2026-04-12T08:26:30.999Z</time></trkpt><trkpt lat="45.452588752310625" lon="9.261051767983952"><ele>108.0</ele><time>2026-04-12T08:26:32.999Z</time></trkpt><trkpt lat="45.45249646499073" lon="9.261143766293225"><ele>108.0</ele><time>2026-04-12T08:26:34.999Z</time></trkpt><trkpt lat="45.45240481180566" lon="9.261247110243525"><ele>108.0</ele><time>2026-04-12T08:26:36.999Z</time></trkpt><trkpt lat="45.452321268633" lon="9.261362407389388"><ele>108.0</ele><time>2026-04-12T08:26:38.999Z</time></trkpt><trkpt lat="45.452245488578185" lon="9.261490452453668"><ele>108.0</ele><time>2026-04-12T08:26:40.999Z</time></trkpt><trkpt lat="45.452170028638655" lon="9.26161164597757"><ele>107.5</ele><time>2026-04-12T08:26:42.999Z</time></trkpt><trkpt lat="45.45209986057064" lon="9.261745865986834"><ele>107.0</ele><time>2026-04-12T08:26:44.999Z</time></trkpt><trkpt lat="45.45203586391024" lon="9.261887383288567"><ele>106.5</ele><time>2026-04-12T08:26:46.999Z</time></trkpt><trkpt lat="45.45197639706263" lon="9.262029844160827"><ele>106.0</ele><time>2026-04-12T08:26:48.999Z</time></trkpt><trkpt lat="45.45192145052603" lon="9.262176156614032"><ele>106.0</ele><time>2026-04-12T08:26:50.999Z</time></trkpt><trkpt lat="45.45187944354914" lon="9.26233026191593"><ele>106.0</ele><time>2026-04-12T08:26:52.999Z</time></trkpt><trkpt lat="45.451844339936166" lon="9.262490473362574"><ele>106.0</ele><time>2026-04-12T08:26:54.999Z</time></trkpt><trkpt lat="45.45181293570996" lon="9.26266022181281"><ele>106.0</ele><time>2026-04-12T08:26:56.999Z</time></trkpt><trkpt lat="45.45179303591267" lon="9.262822756552133"><ele>106.0</ele><time>2026-04-12T08:26:58.999Z</time></trkpt><trkpt lat="45.451775262222746" lon="9.262994385402925"><ele>106.0</ele><time>2026-04-12T08:27:00.999Z</time></trkpt><trkpt lat="45.451756047427466" lon="9.263166369479542"><ele>106.0</ele><time>2026-04-12T08:27:02.999Z</time></trkpt><trkpt lat="45.45173562327278" lon="9.263337282593168"><ele>106.0</ele><time>2026-04-12T08:27:04.999Z</time></trkpt><trkpt lat="45.45172031514953" lon="9.263510583312522"><ele>106.50000000000001</ele><time>2026-04-12T08:27:06.999Z</time></trkpt><trkpt lat="45.45170977888775" lon="9.263599300788835"><ele>107.0</ele><time>2026-04-12T08:27:07.999Z</time></trkpt><trkpt lat="45.451701850981415" lon="9.263691647566073"><ele>107.5</ele><time>2026-04-12T08:27:08.999Z</time></trkpt><trkpt lat="45.45169141416582" lon="9.263780704764384"><ele>108.0</ele><time>2026-04-12T08:27:09.999Z</time></trkpt><trkpt lat="45.4516755196932" lon="9.26395905048497"><ele>108.50000000000001</ele><time>2026-04-12T08:27:11.999Z</time></trkpt><trkpt lat="45.45166500929498" lon="9.264051775658201"><ele>109.0</ele><time>2026-04-12T08:27:12.999Z</time></trkpt><trkpt lat="45.451639504135485" lon="9.26422976692991"><ele>109.00000000000001</ele><time>2026-04-12T08:27:14.999Z</time></trkpt><trkpt lat="45.45163775453635" lon="9.264322420489803"><ele>109.0</ele><time>2026-04-12T08:27:15.999Z</time></trkpt><trkpt lat="45.45162870423942" lon="9.26441651598605"><ele>109.0</ele><time>2026-04-12T08:27:16.999Z</time></trkpt><trkpt lat="45.45161563250519" lon="9.264507773727427"><ele>109.0</ele><time>2026-04-12T08:27:17.999Z</time></trkpt><trkpt lat="45.451606922017845" lon="9.264597325806156"><ele>109.00000000000001</ele><time>2026-04-12T08:27:18.999Z</time></trkpt><trkpt lat="45.45159287244535" lon="9.264773370860466"><ele>109.0</ele><time>2026-04-12T08:27:20.999Z</time></trkpt><trkpt lat="45.451580106277675" lon="9.264864189710384"><ele>108.4</ele><time>2026-04-12T08:27:21.999Z</time></trkpt><trkpt lat="45.45156942625896" lon="9.264954785502807"><ele>107.80000000000001</ele><time>2026-04-12T08:27:22.999Z</time></trkpt><trkpt lat="45.45154796429275" lon="9.265124374323646"><ele>107.19999999999999</ele><time>2026-04-12T08:27:24.999Z</time></trkpt><trkpt lat="45.4515215695928" lon="9.265296451799983"><ele>106.6</ele><time>2026-04-12T08:27:26.999Z</time></trkpt><trkpt lat="45.451483484306515" lon="9.265455134976104"><ele>106.0</ele><time>2026-04-12T08:27:28.999Z</time></trkpt><trkpt lat="45.451457757185345" lon="9.265620129943805"><ele>105.75</ele><time>2026-04-12T08:27:30.999Z</time></trkpt><trkpt lat="45.451413445376346" lon="9.265770183148826"><ele>105.5</ele><time>2026-04-12T08:27:32.999Z</time></trkpt><trkpt lat="45.45136108888512" lon="9.265916417851976"><ele>105.25</ele><time>2026-04-12T08:27:34.999Z</time></trkpt><trkpt lat="45.45130966657448" lon="9.266058909297048"><ele>105.0</ele><time>2026-04-12T08:27:36.999Z</time></trkpt><trkpt lat="45.45125566737818" lon="9.266201534387294"><ele>105.0</ele><time>2026-04-12T08:27:38.999Z</time></trkpt><trkpt lat="45.45119760504513" lon="9.266338426837303"><ele>105.0</ele><time>2026-04-12T08:27:40.999Z</time></trkpt><trkpt lat="45.451120102724545" lon="9.266465479690996"><ele>105.0</ele><time>2026-04-12T08:27:42.999Z</time></trkpt><trkpt lat="45.45104371253623" lon="9.266590848483544"><ele>105.0</ele><time>2026-04-12T08:27:44.999Z</time></trkpt><trkpt lat="45.450971273675755" lon="9.266715806242797"><ele>105.25</ele><time>2026-04-12T08:27:46.999Z</time></trkpt><trkpt lat="45.450894019975586" lon="9.266830387692575"><ele>105.5</ele><time>2026-04-12T08:27:48.999Z</time></trkpt><trkpt lat="45.450809772629654" lon="9.266943144378494"><ele>105.75</ele><time>2026-04-12T08:27:50.999Z</time></trkpt><trkpt lat="45.45072448180166" lon="9.267048757414889"><ele>106.0</ele><time>2026-04-12T08:27:52.999Z</time></trkpt><trkpt lat="45.45063270761399" lon="9.267138191670734"><ele>106.0</ele><time>2026-04-12T08:27:54.999Z</time></trkpt><trkpt lat="45.45052780005594" lon="9.267235786980477"><ele>106.0</ele><time>2026-04-12T08:27:56.999Z</time></trkpt><trkpt lat="45.45042193698442" lon="9.267332468598719"><ele>106.0</ele><time>2026-04-12T08:27:58.999Z</time></trkpt><trkpt lat="45.450316344509474" lon="9.267423911497465"><ele>106.0</ele><time>2026-04-12T08:28:00.999Z</time></trkpt><trkpt lat="45.450262379817474" lon="9.267476330831787"><ele>106.0</ele><time>2026-04-12T08:28:01.999Z</time></trkpt><trkpt lat="45.45020677177193" lon="9.267529723943339"><ele>106.14285714285715</ele><time>2026-04-12T08:28:02.999Z</time></trkpt><trkpt lat="45.45014982114525" lon="9.267584176141328"><ele>106.28571428571428</ele><time>2026-04-12T08:28:03.999Z</time></trkpt><trkpt lat="45.45009036646584" lon="9.267637897125395"><ele>106.42857142857143</ele><time>2026-04-12T08:28:04.999Z</time></trkpt><trkpt lat="45.45002985823814" lon="9.267693723195306"><ele>106.57142857142858</ele><time>2026-04-12T08:28:05.999Z</time></trkpt><trkpt lat="45.44997147722733" lon="9.26775211492535"><ele>106.71428571428572</ele><time>2026-04-12T08:28:06.999Z</time></trkpt><trkpt lat="45.44992076533942" lon="9.26781928656836"><ele>106.85714285714286</ele><time>2026-04-12T08:28:07.999Z</time></trkpt><trkpt lat="45.449866990090214" lon="9.26787193857704"><ele>107.0</ele><time>2026-04-12T08:28:09Z</time></trkpt><trkpt lat="45.44981148389861" lon="9.267929338963857"><ele>107.0</ele><time>2026-04-12T08:28:10Z</time></trkpt><trkpt lat="45.44975892282017" lon="9.267985122316109"><ele>106.99999999999999</ele><time>2026-04-12T08:28:11Z</time></trkpt><trkpt lat="45.44970808112254" lon="9.268043262007225"><ele>106.99999999999999</ele><time>2026-04-12T08:28:12Z</time></trkpt><trkpt lat="45.44962311121984" lon="9.268162053931734"><ele>107.0</ele><time>2026-04-12T08:28:14Z</time></trkpt><trkpt lat="45.449545809414765" lon="9.268288705132987"><ele>107.0</ele><time>2026-04-12T08:28:16Z</time></trkpt><trkpt lat="45.449476981100176" lon="9.268421242821448"><ele>106.5</ele><time>2026-04-12T08:28:18Z</time></trkpt><trkpt lat="45.449409277313215" lon="9.268557223295064"><ele>106.0</ele><time>2026-04-12T08:28:20Z</time></trkpt><trkpt lat="45.44934730279243" lon="9.26869276661852"><ele>105.5</ele><time>2026-04-12T08:28:22Z</time></trkpt><trkpt lat="45.449301918348056" lon="9.268842276545312"><ele>105.0</ele><time>2026-04-12T08:28:24Z</time></trkpt><trkpt lat="45.44925748064556" lon="9.268984166933729"><ele>104.6</ele><time>2026-04-12T08:28:26Z</time></trkpt><trkpt lat="45.44922436818789" lon="9.26913086855203"><ele>104.2</ele><time>2026-04-12T08:28:28Z</time></trkpt><trkpt lat="45.44920201070479" lon="9.269281052656101"><ele>103.80000000000001</ele><time>2026-04-12T08:28:30Z</time></trkpt><trkpt lat="45.449188539022785" lon="9.269432907533417"><ele>103.4</ele><time>2026-04-12T08:28:32Z</time></trkpt><trkpt lat="45.44918441273844" lon="9.269586007974157"><ele>103.0</ele><time>2026-04-12T08:28:34Z</time></trkpt><trkpt lat="45.44918833511421" lon="9.269736572991626"><ele>102.80000000000001</ele><time>2026-04-12T08:28:36Z</time></trkpt><trkpt lat="45.44919028786779" lon="9.269888409010894"><ele>102.6</ele><time>2026-04-12T08:28:38Z</time></trkpt><trkpt lat="45.449191919719794" lon="9.270038868561127"><ele>102.4</ele><time>2026-04-12T08:28:40Z</time></trkpt><trkpt lat="45.44917319314369" lon="9.270194575635996"><ele>102.19999999999999</ele><time>2026-04-12T08:28:42Z</time></trkpt><trkpt lat="45.44916183207429" lon="9.270348873300295"><ele>102.0</ele><time>2026-04-12T08:28:44Z</time></trkpt><trkpt lat="45.449158370511256" lon="9.270507495016776"><ele>102.5</ele><time>2026-04-12T08:28:46Z</time></trkpt><trkpt lat="45.44915672337361" lon="9.270667717165336"><ele>103.0</ele><time>2026-04-12T08:28:48Z</time></trkpt><trkpt lat="45.44915565951452" lon="9.270818866052975"><ele>103.5</ele><time>2026-04-12T08:28:50Z</time></trkpt><trkpt lat="45.449161229273805" lon="9.270978125786005"><ele>104.0</ele><time>2026-04-12T08:28:52Z</time></trkpt><trkpt lat="45.44916179334799" lon="9.271148560334582"><ele>104.0</ele><time>2026-04-12T08:28:54Z</time></trkpt><trkpt lat="45.44916049768467" lon="9.2713146370385"><ele>104.0</ele><time>2026-04-12T08:28:56Z</time></trkpt><trkpt lat="45.44915825794977" lon="9.271482723597826"><ele>104.0</ele><time>2026-04-12T08:28:58Z</time></trkpt><trkpt lat="45.44915565885367" lon="9.271647052170783"><ele>104.0</ele><time>2026-04-12T08:29:00Z</time></trkpt><trkpt lat="45.44915376744246" lon="9.271803054082705"><ele>104.0</ele><time>2026-04-12T08:29:02Z</time></trkpt><trkpt lat="45.449151873163956" lon="9.271955649537965"><ele>104.0</ele><time>2026-04-12T08:29:04Z</time></trkpt><trkpt lat="45.44915317921907" lon="9.27209790124988"><ele>104.0</ele><time>2026-04-12T08:29:06Z</time></trkpt><trkpt lat="45.44914947654988" lon="9.272237427295988"><ele>104.0</ele><time>2026-04-12T08:29:08Z</time></trkpt><trkpt lat="45.44913581072214" lon="9.272372729460397"><ele>104.0</ele><time>2026-04-12T08:29:10Z</time></trkpt><trkpt lat="45.44907235046276" lon="9.272477620344636"><ele>103.99999999999999</ele><time>2026-04-12T08:29:12Z</time></trkpt><trkpt lat="45.44900824435988" lon="9.272498747883622"><ele>104.0</ele><time>2026-04-12T08:29:13Z</time></trkpt><trkpt lat="45.448885220260294" lon="9.272476144450525"><ele>104.0</ele><time>2026-04-12T08:29:15Z</time></trkpt><trkpt lat="45.448764021021034" lon="9.272466520394461"><ele>104.0</ele><time>2026-04-12T08:29:17Z</time></trkpt><trkpt lat="45.4486989172665" lon="9.272468604329804"><ele>103.99999999999999</ele><time>2026-04-12T08:29:18Z</time></trkpt><trkpt lat="45.4486296552276" lon="9.272464409613908"><ele>104.0</ele><time>2026-04-12T08:29:19Z</time></trkpt><trkpt lat="45.44856338774752" lon="9.272458607337724"><ele>104.14285714285714</ele><time>2026-04-12T08:29:20Z</time></trkpt><trkpt lat="45.44849474143576" lon="9.272459600495324"><ele>104.28571428571429</ele><time>2026-04-12T08:29:21Z</time></trkpt><trkpt lat="45.44842678581919" lon="9.272459540895134"><ele>104.42857142857143</ele><time>2026-04-12T08:29:22Z</time></trkpt><trkpt lat="45.448361528529645" lon="9.272453215429296"><ele>104.57142857142857</ele><time>2026-04-12T08:29:23Z</time></trkpt><trkpt lat="45.44829433796041" lon="9.272451911160061"><ele>104.71428571428572</ele><time>2026-04-12T08:29:24Z</time></trkpt><trkpt lat="45.44822498688227" lon="9.27244942046555"><ele>104.85714285714286</ele><time>2026-04-12T08:29:25Z</time></trkpt><trkpt lat="45.44815475304691" lon="9.272435763547888"><ele>105.0</ele><time>2026-04-12T08:29:26Z</time></trkpt><trkpt lat="45.448084671038956" lon="9.27242883491334"><ele>105.0</ele><time>2026-04-12T08:29:27Z</time></trkpt><trkpt lat="45.44801217340522" lon="9.272422063514126"><ele>105.0</ele><time>2026-04-12T08:29:28Z</time></trkpt><trkpt lat="45.447939987012106" lon="9.272410468883974"><ele>105.0</ele><time>2026-04-12T08:29:29Z</time></trkpt><trkpt lat="45.4478645390234" lon="9.272399424384073"><ele>105.0</ele><time>2026-04-12T08:29:30Z</time></trkpt><trkpt lat="45.44779859061859" lon="9.272394648789884"><ele>105.0</ele><time>2026-04-12T08:29:31Z</time></trkpt><trkpt lat="45.447724856675784" lon="9.27239440529922"><ele>105.0</ele><time>2026-04-12T08:29:32Z</time></trkpt><trkpt lat="45.447656026840846" lon="9.272385121401909"><ele>105.0</ele><time>2026-04-12T08:29:33Z</time></trkpt><trkpt lat="45.44758856113951" lon="9.272378587226823"><ele>105.0</ele><time>2026-04-12T08:29:34Z</time></trkpt><trkpt lat="45.44752270241265" lon="9.272371864741455"><ele>105.0</ele><time>2026-04-12T08:29:35Z</time></trkpt><trkpt lat="45.44745811088061" lon="9.272364079311906"><ele>105.0</ele><time>2026-04-12T08:29:36Z</time></trkpt><trkpt lat="45.44738902181756" lon="9.272356560469929"><ele>105.0</ele><time>2026-04-12T08:29:37Z</time></trkpt><trkpt lat="45.44732233233863" lon="9.272348077425102"><ele>105.0</ele><time>2026-04-12T08:29:38Z</time></trkpt><trkpt lat="45.44725184917655" lon="9.272329087949158"><ele>105.0</ele><time>2026-04-12T08:29:39Z</time></trkpt><trkpt lat="45.447188612248674" lon="9.272318411713458"><ele>105.0</ele><time>2026-04-12T08:29:40Z</time></trkpt><trkpt lat="45.44712100912905" lon="9.272314668659439"><ele>105.16666666666667</ele><time>2026-04-12T08:29:41Z</time></trkpt><trkpt lat="45.447049079028446" lon="9.272315313797376"><ele>105.33333333333334</ele><time>2026-04-12T08:29:42Z</time></trkpt><trkpt lat="45.44698594897195" lon="9.272313980603125"><ele>105.5</ele><time>2026-04-12T08:29:43Z</time></trkpt><trkpt lat="45.446923240764136" lon="9.272305733557118"><ele>105.66666666666667</ele><time>2026-04-12T08:29:44Z</time></trkpt><trkpt lat="45.44685819838823" lon="9.272289265388912"><ele>105.83333333333334</ele><time>2026-04-12T08:29:45Z</time></trkpt><trkpt lat="45.446746022907654" lon="9.272276563463059"><ele>106.0</ele><time>2026-04-12T08:29:47Z</time></trkpt><trkpt lat="45.44662206164753" lon="9.272272022434038"><ele>106.0</ele><time>2026-04-12T08:29:49Z</time></trkpt><trkpt lat="45.44650249861048" lon="9.272253925993308"><ele>106.0</ele><time>2026-04-12T08:29:51Z</time></trkpt><trkpt lat="45.44638613863464" lon="9.272244829709628"><ele>106.0</ele><time>2026-04-12T08:29:53Z</time></trkpt><trkpt lat="45.446277907748254" lon="9.272229805341517"><ele>106.0</ele><time>2026-04-12T08:29:55Z</time></trkpt><trkpt lat="45.446171266604246" lon="9.27222300534464"><ele>106.19999999999999</ele><time>2026-04-12T08:29:57Z</time></trkpt><trkpt lat="45.44606326683692" lon="9.27221133786287"><ele>106.39999999999999</ele><time>2026-04-12T08:29:59Z</time></trkpt><trkpt lat="45.44595183655288" lon="9.272211168635966"><ele>106.6</ele><time>2026-04-12T08:30:01Z</time></trkpt><trkpt lat="45.44584580032068" lon="9.272211373113148"><ele>106.8</ele><time>2026-04-12T08:30:03Z</time></trkpt><trkpt lat="45.445739700912036" lon="9.272212138945159"><ele>107.0</ele><time>2026-04-12T08:30:05Z</time></trkpt><trkpt lat="45.44563324017858" lon="9.272219777892191"><ele>107.0</ele><time>2026-04-12T08:30:07Z</time></trkpt><trkpt lat="45.44552006215365" lon="9.272212089909104"><ele>106.99999999999999</ele><time>2026-04-12T08:30:09Z</time></trkpt><trkpt lat="45.44541570626544" lon="9.272202435199882"><ele>106.99999999999999</ele><time>2026-04-12T08:30:11Z</time></trkpt><trkpt lat="45.44532209120606" lon="9.272198900931272"><ele>107.0</ele><time>2026-04-12T08:30:13Z</time></trkpt><trkpt lat="45.445242996879905" lon="9.27219034058451"><ele>107.0</ele><time>2026-04-12T08:30:15Z</time></trkpt><trkpt lat="45.44516997423642" lon="9.272178961031976"><ele>106.99999999999999</ele><time>2026-04-12T08:30:17Z</time></trkpt><trkpt lat="45.44510795242474" lon="9.272107218118231"><ele>107.0</ele><time>2026-04-12T08:30:19Z</time></trkpt><trkpt lat="45.445032071411745" lon="9.27210775658661"><ele>107.0</ele><time>2026-04-12T08:30:21Z</time></trkpt><trkpt lat="45.44495516407927" lon="9.272202436369744"><ele>107.0</ele><time>2026-04-12T08:30:23Z</time></trkpt><trkpt lat="45.44484196345033" lon="9.272235308788087"><ele>106.99999999999999</ele><time>2026-04-12T08:30:25Z</time></trkpt><trkpt lat="45.444778226027275" lon="9.272260791778221"><ele>107.0</ele><time>2026-04-12T08:30:26Z</time></trkpt><trkpt lat="45.44471037855868" lon="9.272285019428336"><ele>106.33333333333333</ele><time>2026-04-12T08:30:27Z</time></trkpt><trkpt lat="45.444586941953204" lon="9.27233477466462"><ele>105.66666666666666</ele><time>2026-04-12T08:30:29Z</time></trkpt><trkpt lat="45.44452214282149" lon="9.272361856301751"><ele>105.0</ele><time>2026-04-12T08:30:30Z</time></trkpt><trkpt lat="45.444458116137135" lon="9.272389737152071"><ele>104.33333333333334</ele><time>2026-04-12T08:30:31Z</time></trkpt><trkpt lat="45.44439547320514" lon="9.272416892560972"><ele>103.66666666666667</ele><time>2026-04-12T08:30:32Z</time></trkpt><trkpt lat="45.44433072370438" lon="9.27244119288247"><ele>103.0</ele><time>2026-04-12T08:30:33Z</time></trkpt><trkpt lat="45.444265345884446" lon="9.27246273067862"><ele>102.99999999999999</ele><time>2026-04-12T08:30:34Z</time></trkpt><trkpt lat="45.44420060811313" lon="9.272486781418756"><ele>103.0</ele><time>2026-04-12T08:30:35Z</time></trkpt><trkpt lat="45.444135461426924" lon="9.272511274699136"><ele>103.0</ele><time>2026-04-12T08:30:36Z</time></trkpt><trkpt lat="45.44407038344023" lon="9.272532970206727"><ele>103.0</ele><time>2026-04-12T08:30:37Z</time></trkpt><trkpt lat="45.44400784532406" lon="9.27255895622063"><ele>103.0</ele><time>2026-04-12T08:30:38Z</time></trkpt><trkpt lat="45.44394379471938" lon="9.2725839403519"><ele>102.99999999999999</ele><time>2026-04-12T08:30:39Z</time></trkpt><trkpt lat="45.44388010884687" lon="9.272608692846639"><ele>103.0</ele><time>2026-04-12T08:30:40Z</time></trkpt><trkpt lat="45.443816604850035" lon="9.272635695861348"><ele>103.00000000000001</ele><time>2026-04-12T08:30:41Z</time></trkpt><trkpt lat="45.443755117306885" lon="9.272661154683526"><ele>103.0</ele><time>2026-04-12T08:30:42Z</time></trkpt><trkpt lat="45.443693971795454" lon="9.27268883336593"><ele>103.0</ele><time>2026-04-12T08:30:43Z</time></trkpt><trkpt lat="45.44362699699735" lon="9.272715351484482"><ele>103.0</ele><time>2026-04-12T08:30:44Z</time></trkpt><trkpt lat="45.44350417252352" lon="9.27276392344796"><ele>103.00000000000001</ele><time>2026-04-12T08:30:46Z</time></trkpt><trkpt lat="45.44344140516218" lon="9.272792609476763"><ele>103.0</ele><time>2026-04-12T08:30:47Z</time></trkpt><trkpt lat="45.44337753533672" lon="9.27281844029738"><ele>103.0</ele><time>2026-04-12T08:30:48Z</time></trkpt><trkpt lat="45.44331629706013" lon="9.272846759062572"><ele>103.0</ele><time>2026-04-12T08:30:49Z</time></trkpt><trkpt lat="45.4432548817248" lon="9.272873051793615"><ele>103.0</ele><time>2026-04-12T08:30:50Z</time></trkpt><trkpt lat="45.443136320560996" lon="9.272927770302472"><ele>103.0</ele><time>2026-04-12T08:30:52Z</time></trkpt><trkpt lat="45.443018111518825" lon="9.272974959763202"><ele>103.0</ele><time>2026-04-12T08:30:54Z</time></trkpt><trkpt lat="45.44290226810695" lon="9.273019837386752"><ele>103.25</ele><time>2026-04-12T08:30:56Z</time></trkpt><trkpt lat="45.442787270149914" lon="9.273069863676838"><ele>103.5</ele><time>2026-04-12T08:30:58Z</time></trkpt><trkpt lat="45.44267395582288" lon="9.273118361490699"><ele>103.75</ele><time>2026-04-12T08:31:00Z</time></trkpt><trkpt lat="45.442559741679425" lon="9.273169431128107"><ele>104.0</ele><time>2026-04-12T08:31:02Z</time></trkpt><trkpt lat="45.442444254206976" lon="9.273208813963729"><ele>104.0</ele><time>2026-04-12T08:31:04Z</time></trkpt><trkpt lat="45.44232462027875" lon="9.273231714576063"><ele>104.0</ele><time>2026-04-12T08:31:06Z</time></trkpt><trkpt lat="45.44220244339006" lon="9.27325103922572"><ele>104.0</ele><time>2026-04-12T08:31:08Z</time></trkpt><trkpt lat="45.44213906235321" lon="9.273258177639699"><ele>104.0</ele><time>2026-04-12T08:31:09Z</time></trkpt><trkpt lat="45.442010998895825" lon="9.273271527559697"><ele>104.0</ele><time>2026-04-12T08:31:11Z</time></trkpt><trkpt lat="45.44194589721519" lon="9.273279732980933"><ele>103.80000000000001</ele><time>2026-04-12T08:31:12Z</time></trkpt><trkpt lat="45.44188098938955" lon="9.273287296847167"><ele>103.60000000000001</ele><time>2026-04-12T08:31:13Z</time></trkpt><trkpt lat="45.44175783180006" lon="9.273301362079152"><ele>103.4</ele><time>2026-04-12T08:31:15Z</time></trkpt><trkpt lat="45.44163456256717" lon="9.273317944431783"><ele>103.2</ele><time>2026-04-12T08:31:17Z</time></trkpt><trkpt lat="45.44156748483925" lon="9.273340097052898"><ele>103.0</ele><time>2026-04-12T08:31:18Z</time></trkpt><trkpt lat="45.44144529268519" lon="9.273348695584836"><ele>103.0</ele><time>2026-04-12T08:31:20Z</time></trkpt><trkpt lat="45.441319170498" lon="9.273362084882603"><ele>103.0</ele><time>2026-04-12T08:31:22Z</time></trkpt><trkpt lat="45.441193796085216" lon="9.273379373137471"><ele>103.0</ele><time>2026-04-12T08:31:24Z</time></trkpt><trkpt lat="45.44106687776133" lon="9.273394144885046"><ele>103.0</ele><time>2026-04-12T08:31:26Z</time></trkpt><trkpt lat="45.44100282926339" lon="9.273404162182638"><ele>103.0</ele><time>2026-04-12T08:31:27Z</time></trkpt><trkpt lat="45.44093804685081" lon="9.273414023316983"><ele>103.00000000000001</ele><time>2026-04-12T08:31:28Z</time></trkpt><trkpt lat="45.440873512553836" lon="9.273423552005632"><ele>103.0</ele><time>2026-04-12T08:31:29Z</time></trkpt><trkpt lat="45.440806761506416" lon="9.273432034427493"><ele>103.0</ele><time>2026-04-12T08:31:30Z</time></trkpt><trkpt lat="45.44074154793668" lon="9.273442257729695"><ele>103.0</ele><time>2026-04-12T08:31:31Z</time></trkpt><trkpt lat="45.440676507159075" lon="9.27344883624806"><ele>103.00000000000001</ele><time>2026-04-12T08:31:32Z</time></trkpt><trkpt lat="45.44054694515451" lon="9.273462499387438"><ele>103.0</ele><time>2026-04-12T08:31:34Z</time></trkpt><trkpt lat="45.44042010372842" lon="9.273477445130961"><ele>102.50000000000001</ele><time>2026-04-12T08:31:36Z</time></trkpt><trkpt lat="45.44029452865228" lon="9.273498969351015"><ele>102.0</ele><time>2026-04-12T08:31:38Z</time></trkpt><trkpt lat="45.440231482451146" lon="9.273504690713736"><ele>101.5</ele><time>2026-04-12T08:31:39Z</time></trkpt><trkpt lat="45.440166635443425" lon="9.273514964362224"><ele>101.0</ele><time>2026-04-12T08:31:40Z</time></trkpt><trkpt lat="45.44010234394283" lon="9.273526031682517"><ele>100.50000000000001</ele><time>2026-04-12T08:31:41Z</time></trkpt><trkpt lat="45.4400371900402" lon="9.27353710619581"><ele>100.0</ele><time>2026-04-12T08:31:42Z</time></trkpt><trkpt lat="45.4399723689887" lon="9.273546953598691"><ele>100.00000000000001</ele><time>2026-04-12T08:31:43Z</time></trkpt><trkpt lat="45.43990769555148" lon="9.27355693626189"><ele>100.0</ele><time>2026-04-12T08:31:44Z</time></trkpt><trkpt lat="45.43984318585798" lon="9.273568619894085"><ele>100.0</ele><time>2026-04-12T08:31:45Z</time></trkpt><trkpt lat="45.439780132822214" lon="9.273580870228855"><ele>100.0</ele><time>2026-04-12T08:31:46Z</time></trkpt><trkpt lat="45.4397171281726" lon="9.273591695632858"><ele>100.0</ele><time>2026-04-12T08:31:47Z</time></trkpt><trkpt lat="45.43965394415652" lon="9.27360364885734"><ele>100.00000000000001</ele><time>2026-04-12T08:31:48Z</time></trkpt><trkpt lat="45.439590486686974" lon="9.273615125389577"><ele>100.0</ele><time>2026-04-12T08:31:49Z</time></trkpt><trkpt lat="45.439467692640854" lon="9.27363965660802"><ele>99.14285714285715</ele><time>2026-04-12T08:31:51Z</time></trkpt><trkpt lat="45.43940435701952" lon="9.27365017188866"><ele>98.28571428571429</ele><time>2026-04-12T08:31:52Z</time></trkpt><trkpt lat="45.43934079292449" lon="9.273663713363105"><ele>97.42857142857143</ele><time>2026-04-12T08:31:53Z</time></trkpt><trkpt lat="45.43927622864052" lon="9.273678550762481"><ele>96.57142857142858</ele><time>2026-04-12T08:31:54Z</time></trkpt><trkpt lat="45.43921255361543" lon="9.273694790070223"><ele>95.71428571428571</ele><time>2026-04-12T08:31:55Z</time></trkpt><trkpt lat="45.43914834252324" lon="9.273707753057405"><ele>94.85714285714286</ele><time>2026-04-12T08:31:56Z</time></trkpt><trkpt lat="45.439085057831875" lon="9.273719604252818"><ele>94.0</ele><time>2026-04-12T08:31:57Z</time></trkpt><trkpt lat="45.439021437833375" lon="9.273729990641748"><ele>94.0</ele><time>2026-04-12T08:31:58Z</time></trkpt><trkpt lat="45.438957479005765" lon="9.273741025484403"><ele>94.0</ele><time>2026-04-12T08:31:59Z</time></trkpt><trkpt lat="45.43889384115377" lon="9.27375337426704"><ele>94.0</ele><time>2026-04-12T08:32:00Z</time></trkpt><trkpt lat="45.438830750871055" lon="9.273765642275885"><ele>94.0</ele><time>2026-04-12T08:32:01Z</time></trkpt><trkpt lat="45.438706430190905" lon="9.273780527927908"><ele>94.0</ele><time>2026-04-12T08:32:03Z</time></trkpt><trkpt lat="45.438643031910935" lon="9.273788209108533"><ele>94.0</ele><time>2026-04-12T08:32:04Z</time></trkpt><trkpt lat="45.43852233489824" lon="9.27381646282871"><ele>95.66666666666666</ele><time>2026-04-12T08:32:06Z</time></trkpt><trkpt lat="45.438400871213055" lon="9.273846962826838"><ele>97.33333333333333</ele><time>2026-04-12T08:32:08Z</time></trkpt><trkpt lat="45.43827665641993" lon="9.273869631463588"><ele>99.0</ele><time>2026-04-12T08:32:10Z</time></trkpt><trkpt lat="45.43821365268093" lon="9.273880654690299"><ele>100.66666666666666</ele><time>2026-04-12T08:32:11Z</time></trkpt><trkpt lat="45.43815107733466" lon="9.273892307260327"><ele>102.33333333333333</ele><time>2026-04-12T08:32:12Z</time></trkpt><trkpt lat="45.438086703228734" lon="9.273901015488853"><ele>104.0</ele><time>2026-04-12T08:32:13Z</time></trkpt><trkpt lat="45.4380187047835" lon="9.273914098807596"><ele>104.28571428571428</ele><time>2026-04-12T08:32:14Z</time></trkpt><trkpt lat="45.437953642800494" lon="9.273929039385365"><ele>104.57142857142858</ele><time>2026-04-12T08:32:15Z</time></trkpt><trkpt lat="45.43788802040704" lon="9.27394095675263"><ele>104.85714285714286</ele><time>2026-04-12T08:32:16Z</time></trkpt><trkpt lat="45.437820780156166" lon="9.273953942000992"><ele>105.14285714285714</ele><time>2026-04-12T08:32:17Z</time></trkpt><trkpt lat="45.43775370402567" lon="9.273966258237445"><ele>105.42857142857142</ele><time>2026-04-12T08:32:18Z</time></trkpt><trkpt lat="45.437687054935374" lon="9.273978238582275"><ele>105.71428571428572</ele><time>2026-04-12T08:32:19Z</time></trkpt><trkpt lat="45.43762102895687" lon="9.27398820569036"><ele>106.0</ele><time>2026-04-12T08:32:20Z</time></trkpt><trkpt lat="45.43755639931956" lon="9.273989284972208"><ele>106.0</ele><time>2026-04-12T08:32:21Z</time></trkpt><trkpt lat="45.437491171592455" lon="9.273986848284958"><ele>106.0</ele><time>2026-04-12T08:32:22Z</time></trkpt><trkpt lat="45.43742786311826" lon="9.273988941014508"><ele>106.0</ele><time>2026-04-12T08:32:23Z</time></trkpt><trkpt lat="45.4373619697758" lon="9.273986695790622"><ele>106.0</ele><time>2026-04-12T08:32:24Z</time></trkpt><trkpt lat="45.437298476766955" lon="9.273979233241857"><ele>106.0</ele><time>2026-04-12T08:32:25Z</time></trkpt><trkpt lat="45.43723542124445" lon="9.273970546412931"><ele>106.0</ele><time>2026-04-12T08:32:26Z</time></trkpt><trkpt lat="45.43710959508383" lon="9.273955601785788"><ele>106.0</ele><time>2026-04-12T08:32:28Z</time></trkpt><trkpt lat="45.43698548245455" lon="9.273934816542974"><ele>105.0</ele><time>2026-04-12T08:32:30Z</time></trkpt><trkpt lat="45.43686121050655" lon="9.273912442949959"><ele>104.0</ele><time>2026-04-12T08:32:32Z</time></trkpt><trkpt lat="45.436740361096774" lon="9.273900895591094"><ele>103.0</ele><time>2026-04-12T08:32:34Z</time></trkpt><trkpt lat="45.43662074677849" lon="9.273890205194634"><ele>102.0</ele><time>2026-04-12T08:32:36Z</time></trkpt><trkpt lat="45.436502412468464" lon="9.273875189360755"><ele>102.0</ele><time>2026-04-12T08:32:38Z</time></trkpt><trkpt lat="45.43638484173217" lon="9.273870038073937"><ele>102.0</ele><time>2026-04-12T08:32:40Z</time></trkpt><trkpt lat="45.43626433159545" lon="9.273869558897026"><ele>102.0</ele><time>2026-04-12T08:32:42Z</time></trkpt><trkpt lat="45.43614654896492" lon="9.273874552467985"><ele>102.0</ele><time>2026-04-12T08:32:44Z</time></trkpt><trkpt lat="45.43602491449125" lon="9.273867138797216"><ele>102.25</ele><time>2026-04-12T08:32:46Z</time></trkpt><trkpt lat="45.43590599081002" lon="9.27384971250579"><ele>102.5</ele><time>2026-04-12T08:32:48Z</time></trkpt><trkpt lat="45.43578604294439" lon="9.273830557011731"><ele>102.75</ele><time>2026-04-12T08:32:50Z</time></trkpt><trkpt lat="45.43566992962379" lon="9.273815474254073"><ele>103.0</ele><time>2026-04-12T08:32:52Z</time></trkpt><trkpt lat="45.4355534967043" lon="9.273796501480476"><ele>103.75</ele><time>2026-04-12T08:32:54Z</time></trkpt><trkpt lat="45.43543630014769" lon="9.273782221090102"><ele>104.5</ele><time>2026-04-12T08:32:56Z</time></trkpt><trkpt lat="45.43531963518339" lon="9.273771674524744"><ele>105.25</ele><time>2026-04-12T08:32:58Z</time></trkpt><trkpt lat="45.43519828790718" lon="9.273751685776242"><ele>106.0</ele><time>2026-04-12T08:33:00Z</time></trkpt><trkpt lat="45.43507836215529" lon="9.273736905212084"><ele>106.0</ele><time>2026-04-12T08:33:02Z</time></trkpt><trkpt lat="45.43495970803735" lon="9.273717180724391"><ele>106.0</ele><time>2026-04-12T08:33:04Z</time></trkpt><trkpt lat="45.43483861544978" lon="9.273709402400153"><ele>106.0</ele><time>2026-04-12T08:33:06Z</time></trkpt><trkpt lat="45.43475698544573" lon="9.273833332585568"><ele>106.0</ele><time>2026-04-12T08:33:08Z</time></trkpt><trkpt lat="45.43466804554081" lon="9.273918580472072"><ele>105.0</ele><time>2026-04-12T08:33:10Z</time></trkpt><trkpt lat="45.43460302429357" lon="9.273897140110144"><ele>104.0</ele><time>2026-04-12T08:33:11Z</time></trkpt><trkpt lat="45.43448079927603" lon="9.273888169054443"><ele>103.0</ele><time>2026-04-12T08:33:13Z</time></trkpt><trkpt lat="45.43435555163376" lon="9.27391186614894"><ele>102.0</ele><time>2026-04-12T08:33:15Z</time></trkpt><trkpt lat="45.4342394917086" lon="9.273979999640193"><ele>101.0</ele><time>2026-04-12T08:33:17Z</time></trkpt><trkpt lat="45.434180834122664" lon="9.27401362633731"><ele>100.83333333333333</ele><time>2026-04-12T08:33:18Z</time></trkpt><trkpt lat="45.43412153574716" lon="9.274048224653807"><ele>100.66666666666666</ele><time>2026-04-12T08:33:19Z</time></trkpt><trkpt lat="45.43406229494835" lon="9.27407975798948"><ele>100.5</ele><time>2026-04-12T08:33:20Z</time></trkpt><trkpt lat="45.433943013785026" lon="9.274138668380846"><ele>100.33333333333334</ele><time>2026-04-12T08:33:22Z</time></trkpt><trkpt lat="45.43388381208873" lon="9.27417267575372"><ele>100.16666666666667</ele><time>2026-04-12T08:33:23Z</time></trkpt><trkpt lat="45.43382431769101" lon="9.274202857626523"><ele>100.0</ele><time>2026-04-12T08:33:24Z</time></trkpt><trkpt lat="45.4337063610749" lon="9.274266197781557"><ele>100.8</ele><time>2026-04-12T08:33:26Z</time></trkpt><trkpt lat="45.433648313815304" lon="9.274302956124139"><ele>101.6</ele><time>2026-04-12T08:33:27Z</time></trkpt><trkpt lat="45.4335301090313" lon="9.27436590555069"><ele>102.4</ele><time>2026-04-12T08:33:29Z</time></trkpt><trkpt lat="45.43341121358014" lon="9.274424808056507"><ele>103.2</ele><time>2026-04-12T08:33:31Z</time></trkpt><trkpt lat="45.433350987220365" lon="9.274451515832176"><ele>104.0</ele><time>2026-04-12T08:33:32Z</time></trkpt><trkpt lat="45.43323140851905" lon="9.274489696215081"><ele>104.0</ele><time>2026-04-12T08:33:34Z</time></trkpt><trkpt lat="45.43311633744668" lon="9.274544960261528"><ele>104.0</ele><time>2026-04-12T08:33:36Z</time></trkpt><trkpt lat="45.43299919708977" lon="9.274601756785703"><ele>104.0</ele><time>2026-04-12T08:33:38Z</time></trkpt><trkpt lat="45.4329411004341" lon="9.274636952802856"><ele>104.0</ele><time>2026-04-12T08:33:39Z</time></trkpt><trkpt lat="45.43282581647171" lon="9.274701426348713"><ele>104.0</ele><time>2026-04-12T08:33:41Z</time></trkpt><trkpt lat="45.432765183872746" lon="9.27473059438725"><ele>103.49999999999999</ele><time>2026-04-12T08:33:42Z</time></trkpt><trkpt lat="45.4326431398041" lon="9.274783097584544"><ele>103.0</ele><time>2026-04-12T08:33:44Z</time></trkpt><trkpt lat="45.43258103580629" lon="9.274815521188183"><ele>102.5</ele><time>2026-04-12T08:33:45Z</time></trkpt><trkpt lat="45.43252066942418" lon="9.274848958836925"><ele>102.0</ele><time>2026-04-12T08:33:46Z</time></trkpt><trkpt lat="45.43245914817151" lon="9.274881364328506"><ele>101.49999999999999</ele><time>2026-04-12T08:33:47Z</time></trkpt><trkpt lat="45.432398902906456" lon="9.274915669233653"><ele>101.0</ele><time>2026-04-12T08:33:48Z</time></trkpt><trkpt lat="45.432337552076255" lon="9.274948356151931"><ele>101.0</ele><time>2026-04-12T08:33:49Z</time></trkpt><trkpt lat="45.4322759703777" lon="9.274980096555002"><ele>101.0</ele><time>2026-04-12T08:33:50Z</time></trkpt><trkpt lat="45.43221694482339" lon="9.275012019003583"><ele>101.0</ele><time>2026-04-12T08:33:51Z</time></trkpt><trkpt lat="45.43215570764687" lon="9.275044589651095"><ele>101.0</ele><time>2026-04-12T08:33:52Z</time></trkpt><trkpt lat="45.43209323591194" lon="9.27507449678568"><ele>101.0</ele><time>2026-04-12T08:33:53Z</time></trkpt><trkpt lat="45.43203154964931" lon="9.275104936210143"><ele>101.0</ele><time>2026-04-12T08:33:54Z</time></trkpt><trkpt lat="45.43197118672214" lon="9.27513850371634"><ele>101.0</ele><time>2026-04-12T08:33:55Z</time></trkpt><trkpt lat="45.43190951296054" lon="9.275172524462539"><ele>100.49999999999999</ele><time>2026-04-12T08:33:56Z</time></trkpt><trkpt lat="45.431849204866516" lon="9.275205522491861"><ele>100.0</ele><time>2026-04-12T08:33:57Z</time></trkpt><trkpt lat="45.43178788895833" lon="9.27523672134989"><ele>99.5</ele><time>2026-04-12T08:33:58Z</time></trkpt><trkpt lat="45.43172899259458" lon="9.275268827765204"><ele>99.0</ele><time>2026-04-12T08:33:59Z</time></trkpt><trkpt lat="45.43167012360967" lon="9.275302192000149"><ele>98.49999999999999</ele><time>2026-04-12T08:34:00Z</time></trkpt><trkpt lat="45.431557521716435" lon="9.275360700238297"><ele>98.0</ele><time>2026-04-12T08:34:02Z</time></trkpt><trkpt lat="45.431456647607995" lon="9.27545221156898"><ele>98.0</ele><time>2026-04-12T08:34:04Z</time></trkpt><trkpt lat="45.43137833654494" lon="9.275576226267154"><ele>98.0</ele><time>2026-04-12T08:34:06Z</time></trkpt><trkpt lat="45.431378707333046" lon="9.275749860449825"><ele>98.0</ele><time>2026-04-12T08:34:08Z</time></trkpt><trkpt lat="45.431386858693486" lon="9.275927000579776"><ele>98.0</ele><time>2026-04-12T08:34:10Z</time></trkpt><trkpt lat="45.43139633567464" lon="9.276096536274794"><ele>98.0</ele><time>2026-04-12T08:34:12Z</time></trkpt><trkpt lat="45.43140774506327" lon="9.27626602514635"><ele>98.0</ele><time>2026-04-12T08:34:14Z</time></trkpt><trkpt lat="45.43141737007563" lon="9.276432176085311"><ele>98.0</ele><time>2026-04-12T08:34:16Z</time></trkpt><trkpt lat="45.43142442591697" lon="9.276599855253922"><ele>98.0</ele><time>2026-04-12T08:34:18Z</time></trkpt><trkpt lat="45.43143563276556" lon="9.276767242259774"><ele>98.0</ele><time>2026-04-12T08:34:20Z</time></trkpt><trkpt lat="45.431443406886615" lon="9.27692811548825"><ele>98.0</ele><time>2026-04-12T08:34:22Z</time></trkpt><trkpt lat="45.43144890979301" lon="9.27709187448456"><ele>98.0</ele><time>2026-04-12T08:34:24Z</time></trkpt><trkpt lat="45.43146105343749" lon="9.27725574152144"><ele>98.0</ele><time>2026-04-12T08:34:26Z</time></trkpt><trkpt lat="45.431471185058435" lon="9.277418624235983"><ele>98.2</ele><time>2026-04-12T08:34:28Z</time></trkpt><trkpt lat="45.431482190927674" lon="9.277583247878733"><ele>98.4</ele><time>2026-04-12T08:34:30Z</time></trkpt><trkpt lat="45.43149296985999" lon="9.27773678982543"><ele>98.60000000000001</ele><time>2026-04-12T08:34:32Z</time></trkpt><trkpt lat="45.43150647468331" lon="9.277882281204343"><ele>98.80000000000001</ele><time>2026-04-12T08:34:34Z</time></trkpt><trkpt lat="45.43142327533904" lon="9.277976499978426"><ele>99.0</ele><time>2026-04-12T08:34:36Z</time></trkpt><trkpt lat="45.43129977736766" lon="9.277955779522818"><ele>99.0</ele><time>2026-04-12T08:34:38Z</time></trkpt><trkpt lat="45.43123652148286" lon="9.277958585601283"><ele>99.0</ele><time>2026-04-12T08:34:39Z</time></trkpt><trkpt lat="45.43111531941392" lon="9.277969681963848"><ele>99.0</ele><time>2026-04-12T08:34:41Z</time></trkpt><trkpt lat="45.43105206917986" lon="9.277975111798437"><ele>99.0</ele><time>2026-04-12T08:34:42Z</time></trkpt><trkpt lat="45.43092983627377" lon="9.277989657572556"><ele>99.0</ele><time>2026-04-12T08:34:44Z</time></trkpt><trkpt lat="45.43080689797976" lon="9.278002590394452"><ele>99.0</ele><time>2026-04-12T08:34:46Z</time></trkpt><trkpt lat="45.43068338051223" lon="9.278018580319992"><ele>99.0</ele><time>2026-04-12T08:34:48Z</time></trkpt><trkpt lat="45.430562655774985" lon="9.278028460463771"><ele>99.0</ele><time>2026-04-12T08:34:50Z</time></trkpt><trkpt lat="45.430440855605525" lon="9.278043525521964"><ele>99.0</ele><time>2026-04-12T08:34:52Z</time></trkpt><trkpt lat="45.43032001225286" lon="9.278057653489626"><ele>99.0</ele><time>2026-04-12T08:34:54Z</time></trkpt><trkpt lat="45.430197482869296" lon="9.27806676556093"><ele>99.0</ele><time>2026-04-12T08:34:56Z</time></trkpt><trkpt lat="45.430074906105666" lon="9.278083187372316"><ele>99.0</ele><time>2026-04-12T08:34:58Z</time></trkpt><trkpt lat="45.429951235466795" lon="9.278097299588408"><ele>99.0</ele><time>2026-04-12T08:35:00Z</time></trkpt><trkpt lat="45.42983010187738" lon="9.278113393427606"><ele>99.16666666666667</ele><time>2026-04-12T08:35:02Z</time></trkpt><trkpt lat="45.42971488944085" lon="9.27809773200123"><ele>99.33333333333334</ele><time>2026-04-12T08:35:04Z</time></trkpt><trkpt lat="45.429612342290746" lon="9.27800817771087"><ele>99.5</ele><time>2026-04-12T08:35:06Z</time></trkpt><trkpt lat="45.429545903528734" lon="9.278021087081958"><ele>99.66666666666667</ele><time>2026-04-12T08:35:07Z</time></trkpt><trkpt lat="45.42947979162334" lon="9.27803707069798"><ele>99.83333333333334</ele><time>2026-04-12T08:35:08Z</time></trkpt><trkpt lat="45.42941231061107" lon="9.278043026358368"><ele>100.0</ele><time>2026-04-12T08:35:09Z</time></trkpt><trkpt lat="45.42934526913858" lon="9.278052656748091"><ele>100.00000000000001</ele><time>2026-04-12T08:35:10Z</time></trkpt><trkpt lat="45.42927964843513" lon="9.278058850377064"><ele>100.0</ele><time>2026-04-12T08:35:11Z</time></trkpt><trkpt lat="45.429216490278996" lon="9.278065952807816"><ele>100.0</ele><time>2026-04-12T08:35:12Z</time></trkpt><trkpt lat="45.429092145327516" lon="9.27808114916709"><ele>100.0</ele><time>2026-04-12T08:35:14Z</time></trkpt><trkpt lat="45.429027720338894" lon="9.278084358782927"><ele>100.00000000000001</ele><time>2026-04-12T08:35:15Z</time></trkpt><trkpt lat="45.42896332058744" lon="9.27808432840733"><ele>100.0</ele><time>2026-04-12T08:35:16Z</time></trkpt><trkpt lat="45.42883732734954" lon="9.278100972207865"><ele>99.57142857142858</ele><time>2026-04-12T08:35:18Z</time></trkpt><trkpt lat="45.42877437066116" lon="9.278112495984892"><ele>99.14285714285714</ele><time>2026-04-12T08:35:19Z</time></trkpt><trkpt lat="45.428709371265086" lon="9.27812158380935"><ele>98.71428571428572</ele><time>2026-04-12T08:35:20Z</time></trkpt><trkpt lat="45.42864572614259" lon="9.278127788889527"><ele>98.28571428571429</ele><time>2026-04-12T08:35:21Z</time></trkpt><trkpt lat="45.42858255405869" lon="9.2781323999864"><ele>97.85714285714286</ele><time>2026-04-12T08:35:22Z</time></trkpt><trkpt lat="45.42851754986581" lon="9.278141339333724"><ele>97.42857142857143</ele><time>2026-04-12T08:35:23Z</time></trkpt><trkpt lat="45.42839139263727" lon="9.278157997598704"><ele>97.0</ele><time>2026-04-12T08:35:25Z</time></trkpt><trkpt lat="45.42832837563219" lon="9.27816275404401"><ele>97.0</ele><time>2026-04-12T08:35:26Z</time></trkpt><trkpt lat="45.42820397000631" lon="9.27817245927147"><ele>97.0</ele><time>2026-04-12T08:35:28Z</time></trkpt><trkpt lat="45.42808450803484" lon="9.278188139755905"><ele>97.0</ele><time>2026-04-12T08:35:30Z</time></trkpt><trkpt lat="45.42796855281967" lon="9.278203875624435"><ele>97.0</ele><time>2026-04-12T08:35:32Z</time></trkpt><trkpt lat="45.42785356907284" lon="9.278218998000286"><ele>97.0</ele><time>2026-04-12T08:35:34Z</time></trkpt><trkpt lat="45.42779060214493" lon="9.278220999680356"><ele>97.0</ele><time>2026-04-12T08:35:35Z</time></trkpt><trkpt lat="45.42766941744622" lon="9.278234069268997"><ele>97.0</ele><time>2026-04-12T08:35:37Z</time></trkpt><trkpt lat="45.4275479736315" lon="9.278239366102714"><ele>97.0</ele><time>2026-04-12T08:35:39Z</time></trkpt><trkpt lat="45.42742733803803" lon="9.27825779276635"><ele>97.0</ele><time>2026-04-12T08:35:41Z</time></trkpt><trkpt lat="45.427307092468524" lon="9.278272133254461"><ele>97.0</ele><time>2026-04-12T08:35:43Z</time></trkpt><trkpt lat="45.4271871317185" lon="9.278286515994672"><ele>97.0</ele><time>2026-04-12T08:35:45Z</time></trkpt><trkpt lat="45.427070001401354" lon="9.278290335742533"><ele>97.0</ele><time>2026-04-12T08:35:47Z</time></trkpt><trkpt lat="45.42695646741253" lon="9.278300119052531"><ele>97.0</ele><time>2026-04-12T08:35:49Z</time></trkpt><trkpt lat="45.42683999308883" lon="9.278319450172201"><ele>97.0</ele><time>2026-04-12T08:35:51Z</time></trkpt><trkpt lat="45.42672602685678" lon="9.278335751500194"><ele>97.0</ele><time>2026-04-12T08:35:53Z</time></trkpt><trkpt lat="45.426616399361514" lon="9.278345959329426"><ele>97.0</ele><time>2026-04-12T08:35:55Z</time></trkpt><trkpt lat="45.426512271295735" lon="9.278352948033005"><ele>97.0</ele><time>2026-04-12T08:35:57Z</time></trkpt><trkpt lat="45.4264082150904" lon="9.278370216335574"><ele>97.0</ele><time>2026-04-12T08:35:59Z</time></trkpt><trkpt lat="45.42630565389928" lon="9.27839149262792"><ele>96.5</ele><time>2026-04-12T08:36:01Z</time></trkpt><trkpt lat="45.42619906388415" lon="9.278439729954673"><ele>96.0</ele><time>2026-04-12T08:36:03Z</time></trkpt><trkpt lat="45.426105546278905" lon="9.278542382622092"><ele>95.5</ele><time>2026-04-12T08:36:05Z</time></trkpt><trkpt lat="45.426036212506254" lon="9.278670533047315"><ele>95.0</ele><time>2026-04-12T08:36:07Z</time></trkpt><trkpt lat="45.42598236779553" lon="9.278816193199422"><ele>95.0</ele><time>2026-04-12T08:36:09Z</time></trkpt><trkpt lat="45.42595158626657" lon="9.278966262582449"><ele>95.0</ele><time>2026-04-12T08:36:11Z</time></trkpt><trkpt lat="45.42593071071976" lon="9.279120057663782"><ele>95.0</ele><time>2026-04-12T08:36:13Z</time></trkpt><trkpt lat="45.42592885543054" lon="9.279272627725168"><ele>95.0</ele><time>2026-04-12T08:36:15Z</time></trkpt><trkpt lat="45.425965493760955" lon="9.279426965003264"><ele>95.0</ele><time>2026-04-12T08:36:17Z</time></trkpt><trkpt lat="45.425987115227386" lon="9.27957228972179"><ele>95.0</ele><time>2026-04-12T08:36:19Z</time></trkpt><trkpt lat="45.426043781752284" lon="9.279685104968348"><ele>95.0</ele><time>2026-04-12T08:36:21Z</time></trkpt><trkpt lat="45.42611545686223" lon="9.279768889213496"><ele>95.0</ele><time>2026-04-12T08:36:23Z</time></trkpt><trkpt lat="45.4261534689234" lon="9.279892059089224"><ele>95.0</ele><time>2026-04-12T08:36:25Z</time></trkpt><trkpt lat="45.426137701182334" lon="9.280043918660189"><ele>95.0</ele><time>2026-04-12T08:36:27Z</time></trkpt><trkpt lat="45.42610618052197" lon="9.280198515671282"><ele>95.4</ele><time>2026-04-12T08:36:29Z</time></trkpt><trkpt lat="45.426084562338545" lon="9.280355237259833"><ele>95.8</ele><time>2026-04-12T08:36:31Z</time></trkpt><trkpt lat="45.42606855503136" lon="9.280513917741656"><ele>96.19999999999999</ele><time>2026-04-12T08:36:33Z</time></trkpt><trkpt lat="45.426067896992485" lon="9.280671129284578"><ele>96.6</ele><time>2026-04-12T08:36:35Z</time></trkpt><trkpt lat="45.426088984168416" lon="9.280824511262958"><ele>97.0</ele><time>2026-04-12T08:36:37Z</time></trkpt><trkpt lat="45.426106102548815" lon="9.280974852150699"><ele>97.19999999999999</ele><time>2026-04-12T08:36:39Z</time></trkpt><trkpt lat="45.42612353887123" lon="9.281121681264521"><ele>97.4</ele><time>2026-04-12T08:36:41Z</time></trkpt><trkpt lat="45.426140022713575" lon="9.281273770087385"><ele>97.6</ele><time>2026-04-12T08:36:43Z</time></trkpt><trkpt lat="45.426158527850944" lon="9.28142523295803"><ele>97.80000000000001</ele><time>2026-04-12T08:36:45Z</time></trkpt><trkpt lat="45.42617854082878" lon="9.281574623494667"><ele>98.0</ele><time>2026-04-12T08:36:47Z</time></trkpt><trkpt lat="45.42619514762497" lon="9.281721218826984"><ele>99.2</ele><time>2026-04-12T08:36:49Z</time></trkpt><trkpt lat="45.42621158440817" lon="9.281860224056194"><ele>100.4</ele><time>2026-04-12T08:36:51Z</time></trkpt><trkpt lat="45.42622580874078" lon="9.28199990538817"><ele>101.60000000000001</ele><time>2026-04-12T08:36:53Z</time></trkpt><trkpt lat="45.42624012337495" lon="9.282142127479574"><ele>102.80000000000001</ele><time>2026-04-12T08:36:55Z</time></trkpt><trkpt lat="45.42625744804794" lon="9.282284569831026"><ele>104.0</ele><time>2026-04-12T08:36:57Z</time></trkpt><trkpt lat="45.42627411115929" lon="9.282424795403314"><ele>104.0</ele><time>2026-04-12T08:36:59Z</time></trkpt><trkpt lat="45.42628966255779" lon="9.282566971804012"><ele>104.0</ele><time>2026-04-12T08:37:01Z</time></trkpt><trkpt lat="45.42630219650206" lon="9.282711436674505"><ele>104.0</ele><time>2026-04-12T08:37:03Z</time></trkpt><trkpt lat="45.426321647355" lon="9.28285344651187"><ele>104.0</ele><time>2026-04-12T08:37:05Z</time></trkpt><trkpt lat="45.42634207150799" lon="9.28299907689808"><ele>104.0</ele><time>2026-04-12T08:37:07Z</time></trkpt><trkpt lat="45.42635730280163" lon="9.283151342113307"><ele>103.2</ele><time>2026-04-12T08:37:09Z</time></trkpt><trkpt lat="45.42637564692963" lon="9.28329493369565"><ele>102.4</ele><time>2026-04-12T08:37:11Z</time></trkpt><trkpt lat="45.42639460477877" lon="9.283440181833178"><ele>101.6</ele><time>2026-04-12T08:37:13Z</time></trkpt><trkpt lat="45.42641638227768" lon="9.283582690105696"><ele>100.8</ele><time>2026-04-12T08:37:15Z</time></trkpt><trkpt lat="45.426443881981555" lon="9.283723362034355"><ele>100.0</ele><time>2026-04-12T08:37:17Z</time></trkpt><trkpt lat="45.426478158659165" lon="9.28386099972086"><ele>99.83333333333334</ele><time>2026-04-12T08:37:19Z</time></trkpt><trkpt lat="45.42650535377606" lon="9.284000442461961"><ele>99.66666666666667</ele><time>2026-04-12T08:37:21Z</time></trkpt><trkpt lat="45.42654110971005" lon="9.284131004811561"><ele>99.5</ele><time>2026-04-12T08:37:23Z</time></trkpt><trkpt lat="45.42658240037594" lon="9.284253737278636"><ele>99.33333333333334</ele><time>2026-04-12T08:37:25Z</time></trkpt><trkpt lat="45.426623909439556" lon="9.284355972357604"><ele>99.16666666666667</ele><time>2026-04-12T08:37:27Z</time></trkpt><trkpt lat="45.42665462688947" lon="9.284438996793439"><ele>99.0</ele><time>2026-04-12T08:37:30Z</time></trkpt><trkpt lat="45.42666011077259" lon="9.284540871500608"><ele>99.0</ele><time>2026-04-12T08:37:34Z</time></trkpt><trkpt lat="45.426696611488936" lon="9.284637927222086"><ele>99.0</ele><time>2026-04-12T08:37:37Z</time></trkpt><trkpt lat="45.426728249356294" lon="9.284726730941717"><ele>99.0</ele><time>2026-04-12T08:37:39Z</time></trkpt><trkpt lat="45.42675595290222" lon="9.284836597408564"><ele>99.0</ele><time>2026-04-12T08:37:41Z</time></trkpt><trkpt lat="45.42681601385875" lon="9.284928836429916"><ele>99.0</ele><time>2026-04-12T08:37:43Z</time></trkpt><trkpt lat="45.426788666573366" lon="9.285078161284758"><ele>99.0</ele><time>2026-04-12T08:37:45Z</time></trkpt><trkpt lat="45.426798182089506" lon="9.285223604370593"><ele>99.0</ele><time>2026-04-12T08:37:47Z</time></trkpt><trkpt lat="45.426848663387645" lon="9.285353707646985"><ele>99.0</ele><time>2026-04-12T08:37:49Z</time></trkpt><trkpt lat="45.42685979803146" lon="9.28549676533418"><ele>99.0</ele><time>2026-04-12T08:37:51Z</time></trkpt><trkpt lat="45.4269080464085" lon="9.285620439744923"><ele>99.0</ele><time>2026-04-12T08:37:53Z</time></trkpt><trkpt lat="45.42694662212274" lon="9.285752284270666"><ele>99.0</ele><time>2026-04-12T08:37:55Z</time></trkpt><trkpt lat="45.426984334914145" lon="9.285884276628158"><ele>99.0</ele><time>2026-04-12T08:37:57Z</time></trkpt><trkpt lat="45.42702535794303" lon="9.28601752381764"><ele>99.0</ele><time>2026-04-12T08:37:59Z</time></trkpt><trkpt lat="45.42706669685377" lon="9.28615068406927"><ele>99.0</ele><time>2026-04-12T08:38:01Z</time></trkpt><trkpt lat="45.42710757155015" lon="9.286282644894138"><ele>99.0</ele><time>2026-04-12T08:38:03Z</time></trkpt><trkpt lat="45.42715156676962" lon="9.286413159545159"><ele>99.0</ele><time>2026-04-12T08:38:05Z</time></trkpt><trkpt lat="45.42719106099685" lon="9.286544041295699"><ele>99.0</ele><time>2026-04-12T08:38:07Z</time></trkpt><trkpt lat="45.427228461205615" lon="9.286668498706328"><ele>99.0</ele><time>2026-04-12T08:38:09Z</time></trkpt><trkpt lat="45.42727296946236" lon="9.28679601014729"><ele>99.0</ele><time>2026-04-12T08:38:11Z</time></trkpt><trkpt lat="45.427313763139836" lon="9.28692441469488"><ele>99.0</ele><time>2026-04-12T08:38:13Z</time></trkpt><trkpt lat="45.42735591056104" lon="9.287044917364284"><ele>99.0</ele><time>2026-04-12T08:38:15Z</time></trkpt><trkpt lat="45.427398249478834" lon="9.287164821657399"><ele>99.4</ele><time>2026-04-12T08:38:17Z</time></trkpt><trkpt lat="45.42743712553853" lon="9.287283952861111"><ele>99.80000000000001</ele><time>2026-04-12T08:38:19Z</time></trkpt><trkpt lat="45.42748192471484" lon="9.287398066915978"><ele>100.19999999999999</ele><time>2026-04-12T08:38:21Z</time></trkpt><trkpt lat="45.427527656651506" lon="9.287531706826066"><ele>100.6</ele><time>2026-04-12T08:38:23Z</time></trkpt><trkpt lat="45.42756179210507" lon="9.287673071654945"><ele>101.0</ele><time>2026-04-12T08:38:25Z</time></trkpt><trkpt lat="45.4276174924948" lon="9.287803168113012"><ele>101.0</ele><time>2026-04-12T08:38:27Z</time></trkpt><trkpt lat="45.42766421847596" lon="9.28793870096152"><ele>101.0</ele><time>2026-04-12T08:38:29Z</time></trkpt><trkpt lat="45.42770822332941" lon="9.288070085465527"><ele>101.0</ele><time>2026-04-12T08:38:31Z</time></trkpt><trkpt lat="45.427749039209345" lon="9.28820079752797"><ele>101.0</ele><time>2026-04-12T08:38:33Z</time></trkpt><trkpt lat="45.42778332955087" lon="9.288335093054904"><ele>101.0</ele><time>2026-04-12T08:38:35Z</time></trkpt><trkpt lat="45.42775028346671" lon="9.288479798983651"><ele>101.0</ele><time>2026-04-12T08:38:37Z</time></trkpt><trkpt lat="45.42767243307578" lon="9.288520404678358"><ele>101.0</ele><time>2026-04-12T08:38:39Z</time></trkpt><trkpt lat="45.42759290584156" lon="9.288504290581058"><ele>101.0</ele><time>2026-04-12T08:38:41Z</time></trkpt><trkpt lat="45.427496213658294" lon="9.288552743990545"><ele>101.0</ele><time>2026-04-12T08:38:43Z</time></trkpt><trkpt lat="45.427393026532734" lon="9.288572316961893"><ele>101.0</ele><time>2026-04-12T08:38:45Z</time></trkpt><trkpt lat="45.427283742257416" lon="9.288601701595665"><ele>101.0</ele><time>2026-04-12T08:38:47Z</time></trkpt><trkpt lat="45.42717633708499" lon="9.288635772218509"><ele>101.0</ele><time>2026-04-12T08:38:49Z</time></trkpt><trkpt lat="45.42706397038908" lon="9.288674467712777"><ele>101.0</ele><time>2026-04-12T08:38:51Z</time></trkpt><trkpt lat="45.42695853830548" lon="9.288695752996246"><ele>101.0</ele><time>2026-04-12T08:38:53Z</time></trkpt><trkpt lat="45.42684649054048" lon="9.288727924088061"><ele>101.0</ele><time>2026-04-12T08:38:55Z</time></trkpt><trkpt lat="45.42673192473532" lon="9.28876330333147"><ele>100.75</ele><time>2026-04-12T08:38:57Z</time></trkpt><trkpt lat="45.426616591858824" lon="9.288790812685633"><ele>100.5</ele><time>2026-04-12T08:38:59Z</time></trkpt><trkpt lat="45.42650380216782" lon="9.288824300821997"><ele>100.25</ele><time>2026-04-12T08:39:01Z</time></trkpt><trkpt lat="45.426389442770386" lon="9.288853502036288"><ele>100.0</ele><time>2026-04-12T08:39:03Z</time></trkpt><trkpt lat="45.4262723391164" lon="9.288881643685542"><ele>100.0</ele><time>2026-04-12T08:39:05Z</time></trkpt><trkpt lat="45.426157471416815" lon="9.288927338898253"><ele>100.0</ele><time>2026-04-12T08:39:07Z</time></trkpt><trkpt lat="45.426042318488854" lon="9.288968777339685"><ele>100.0</ele><time>2026-04-12T08:39:09Z</time></trkpt><trkpt lat="45.4259248549524" lon="9.288999499628561"><ele>100.0</ele><time>2026-04-12T08:39:11Z</time></trkpt><trkpt lat="45.425806964811265" lon="9.289039983502857"><ele>100.0</ele><time>2026-04-12T08:39:13Z</time></trkpt><trkpt lat="45.42569586686948" lon="9.289099597038447"><ele>100.0</ele><time>2026-04-12T08:39:15Z</time></trkpt><trkpt lat="45.425578402064424" lon="9.289149797332906"><ele>100.0</ele><time>2026-04-12T08:39:17Z</time></trkpt><trkpt lat="45.425466995564925" lon="9.28921243733064"><ele>100.0</ele><time>2026-04-12T08:39:19Z</time></trkpt><trkpt lat="45.42536504808017" lon="9.289287077282422"><ele>100.0</ele><time>2026-04-12T08:39:21Z</time></trkpt><trkpt lat="45.42525214419575" lon="9.289350893246192"><ele>100.0</ele><time>2026-04-12T08:39:23Z</time></trkpt><trkpt lat="45.42514038222598" lon="9.289411319693999"><ele>100.0</ele><time>2026-04-12T08:39:25Z</time></trkpt><trkpt lat="45.42502907886405" lon="9.289477805491996"><ele>100.0</ele><time>2026-04-12T08:39:27Z</time></trkpt><trkpt lat="45.42492053708565" lon="9.289542527372472"><ele>100.0</ele><time>2026-04-12T08:39:29Z</time></trkpt><trkpt lat="45.42481145178695" lon="9.28961034151162"><ele>100.0</ele><time>2026-04-12T08:39:31Z</time></trkpt><trkpt lat="45.42470326242102" lon="9.289664890625792"><ele>100.0</ele><time>2026-04-12T08:39:33Z</time></trkpt><trkpt lat="45.42459460353982" lon="9.28971885727223"><ele>100.0</ele><time>2026-04-12T08:39:35Z</time></trkpt><trkpt lat="45.42448565536802" lon="9.28977181752443"><ele>100.25</ele><time>2026-04-12T08:39:37Z</time></trkpt><trkpt lat="45.42437817610972" lon="9.28983094596358"><ele>100.5</ele><time>2026-04-12T08:39:39Z</time></trkpt><trkpt lat="45.4242706250564" lon="9.28989055129184"><ele>100.75</ele><time>2026-04-12T08:39:41Z</time></trkpt><trkpt lat="45.424165408703466" lon="9.289954315444925"><ele>101.0</ele><time>2026-04-12T08:39:43Z</time></trkpt><trkpt lat="45.42406307285142" lon="9.29000683946155"><ele>100.99999999999999</ele><time>2026-04-12T08:39:45Z</time></trkpt><trkpt lat="45.423964137901805" lon="9.290037446070128"><ele>101.0</ele><time>2026-04-12T08:39:47Z</time></trkpt><trkpt lat="45.423895164427265" lon="9.290014925782389"><ele>101.0</ele><time>2026-04-12T08:39:49Z</time></trkpt><trkpt lat="45.42383380921709" lon="9.28997776009393"><ele>101.0</ele><time>2026-04-12T08:39:51Z</time></trkpt><trkpt lat="45.42374371770466" lon="9.289930825149417"><ele>100.99999999999999</ele><time>2026-04-12T08:39:53Z</time></trkpt><trkpt lat="45.42363801903408" lon="9.289891680582732"><ele>101.0</ele><time>2026-04-12T08:39:55Z</time></trkpt><trkpt lat="45.423543415434104" lon="9.289876127772727"><ele>101.0</ele><time>2026-04-12T08:39:57Z</time></trkpt><trkpt lat="45.423445476314484" lon="9.289913495303052"><ele>101.0</ele><time>2026-04-12T08:39:59Z</time></trkpt><trkpt lat="45.42335058900231" lon="9.290013049698738"><ele>101.0</ele><time>2026-04-12T08:40:01Z</time></trkpt><trkpt lat="45.42328888068145" lon="9.290130668258847"><ele>101.0</ele><time>2026-04-12T08:40:03Z</time></trkpt><trkpt lat="45.42324283366877" lon="9.290269245317626"><ele>101.0</ele><time>2026-04-12T08:40:05Z</time></trkpt><trkpt lat="45.42317429260863" lon="9.290394908368821"><ele>101.0</ele><time>2026-04-12T08:40:07Z</time></trkpt><trkpt lat="45.4230712902035" lon="9.29047082609337"><ele>101.0</ele><time>2026-04-12T08:40:09Z</time></trkpt><trkpt lat="45.422955141936704" lon="9.290499431126445"><ele>101.0</ele><time>2026-04-12T08:40:11Z</time></trkpt><trkpt lat="45.42285114562582" lon="9.290573062697833"><ele>101.0</ele><time>2026-04-12T08:40:13Z</time></trkpt><trkpt lat="45.42276722117165" lon="9.290628996155823"><ele>101.0</ele><time>2026-04-12T08:40:15Z</time></trkpt><trkpt lat="45.42270985456077" lon="9.290680464452713"><ele>100.99999999999999</ele><time>2026-04-12T08:40:17Z</time></trkpt><trkpt lat="45.42265371453251" lon="9.290723924859867"><ele>101.0</ele><time>2026-04-12T08:40:19Z</time></trkpt><trkpt lat="45.422644618607556" lon="9.290629974312589"><ele>101.0</ele><time>2026-04-12T08:40:23Z</time></trkpt><trkpt lat="45.42273012722498" lon="9.290600452756381"><ele>101.0</ele><time>2026-04-12T08:40:25Z</time></trkpt><trkpt lat="45.42281546892284" lon="9.290542345249143"><ele>100.99999999999999</ele><time>2026-04-12T08:40:27Z</time></trkpt><trkpt lat="45.422902271512285" lon="9.290473424837579"><ele>101.0</ele><time>2026-04-12T08:40:29Z</time></trkpt><trkpt lat="45.422990813764265" lon="9.290406234690629"><ele>101.0</ele><time>2026-04-12T08:40:31Z</time></trkpt><trkpt lat="45.42306945501662" lon="9.290298235055788"><ele>101.0</ele><time>2026-04-12T08:40:33Z</time></trkpt><trkpt lat="45.42313766674956" lon="9.290162192074238"><ele>101.0</ele><time>2026-04-12T08:40:35Z</time></trkpt><trkpt lat="45.42318718705934" lon="9.29000996284616"><ele>101.0</ele><time>2026-04-12T08:40:37Z</time></trkpt><trkpt lat="45.42321027966922" lon="9.28984614090267"><ele>101.19999999999999</ele><time>2026-04-12T08:40:39Z</time></trkpt><trkpt lat="45.423206057336856" lon="9.28967877993517"><ele>101.39999999999999</ele><time>2026-04-12T08:40:41Z</time></trkpt><trkpt lat="45.42318284538994" lon="9.289535386685214"><ele>101.6</ele><time>2026-04-12T08:40:43Z</time></trkpt><trkpt lat="45.42316877016101" lon="9.28938804732812"><ele>101.8</ele><time>2026-04-12T08:40:45Z</time></trkpt><trkpt lat="45.423145865141514" lon="9.289245123592535"><ele>102.0</ele><time>2026-04-12T08:40:47Z</time></trkpt><trkpt lat="45.42312750354377" lon="9.289105788200242"><ele>102.0</ele><time>2026-04-12T08:40:49Z</time></trkpt><trkpt lat="45.423111111304955" lon="9.288978342979478"><ele>102.0</ele><time>2026-04-12T08:40:51Z</time></trkpt><trkpt lat="45.42310238291527" lon="9.288857632678132"><ele>102.0</ele><time>2026-04-12T08:40:53Z</time></trkpt><trkpt lat="45.42309275526278" lon="9.288726986541741"><ele>102.0</ele><time>2026-04-12T08:40:55Z</time></trkpt><trkpt lat="45.42307802268814" lon="9.288594715379993"><ele>102.0</ele><time>2026-04-12T08:40:57Z</time></trkpt><trkpt lat="45.42305749888751" lon="9.288453987560075"><ele>101.6</ele><time>2026-04-12T08:40:59Z</time></trkpt><trkpt lat="45.42304162656683" lon="9.288324294389144"><ele>101.19999999999999</ele><time>2026-04-12T08:41:01Z</time></trkpt><trkpt lat="45.423019355965586" lon="9.288174795519875"><ele>100.8</ele><time>2026-04-12T08:41:03Z</time></trkpt><trkpt lat="45.42298216511464" lon="9.288017371476574"><ele>100.4</ele><time>2026-04-12T08:41:05Z</time></trkpt><trkpt lat="45.422962830853876" lon="9.287847226745845"><ele>100.0</ele><time>2026-04-12T08:41:07Z</time></trkpt><trkpt lat="45.42292559601412" lon="9.28768208851031"><ele>100.0</ele><time>2026-04-12T08:41:09Z</time></trkpt><trkpt lat="45.42291387964459" lon="9.287593826545082"><ele>100.0</ele><time>2026-04-12T08:41:10Z</time></trkpt><trkpt lat="45.4228787803283" lon="9.287439628532452"><ele>100.0</ele><time>2026-04-12T08:41:12Z</time></trkpt><trkpt lat="45.42285117424647" lon="9.287285362347097"><ele>100.0</ele><time>2026-04-12T08:41:14Z</time></trkpt><trkpt lat="45.422823630803066" lon="9.287131716074478"><ele>100.0</ele><time>2026-04-12T08:41:16Z</time></trkpt><trkpt lat="45.422812493641764" lon="9.287042869702283"><ele>100.00000000000001</ele><time>2026-04-12T08:41:17Z</time></trkpt><trkpt lat="45.42279734261263" lon="9.286953960999153"><ele>100.0</ele><time>2026-04-12T08:41:18Z</time></trkpt><trkpt lat="45.42278762575713" lon="9.286862734546299"><ele>100.0</ele><time>2026-04-12T08:41:19Z</time></trkpt><trkpt lat="45.42277826835637" lon="9.286768484355365"><ele>100.0</ele><time>2026-04-12T08:41:20Z</time></trkpt><trkpt lat="45.42276135570625" lon="9.286674522947326"><ele>100.0</ele><time>2026-04-12T08:41:21Z</time></trkpt><trkpt lat="45.42274596995347" lon="9.286578193340535"><ele>100.00000000000001</ele><time>2026-04-12T08:41:22Z</time></trkpt><trkpt lat="45.422734461760555" lon="9.286483906669657"><ele>100.0</ele><time>2026-04-12T08:41:23Z</time></trkpt><trkpt lat="45.4227225984267" lon="9.286386544484841"><ele>99.6</ele><time>2026-04-12T08:41:24Z</time></trkpt><trkpt lat="45.42270791649889" lon="9.286290188620937"><ele>99.2</ele><time>2026-04-12T08:41:25Z</time></trkpt><trkpt lat="45.42269794248918" lon="9.28619764037039"><ele>98.80000000000001</ele><time>2026-04-12T08:41:26Z</time></trkpt><trkpt lat="45.422685308761686" lon="9.286107498766745"><ele>98.4</ele><time>2026-04-12T08:41:27Z</time></trkpt><trkpt lat="45.42266220272415" lon="9.285932342131282"><ele>98.0</ele><time>2026-04-12T08:41:29Z</time></trkpt><trkpt lat="45.42258045387771" lon="9.28579704627231"><ele>98.0</ele><time>2026-04-12T08:41:31Z</time></trkpt><trkpt lat="45.42251396139213" lon="9.28576263213119"><ele>98.0</ele><time>2026-04-12T08:41:32Z</time></trkpt><trkpt lat="45.422436138182306" lon="9.285774689534554"><ele>98.0</ele><time>2026-04-12T08:41:33Z</time></trkpt><trkpt lat="45.42236828879735" lon="9.285829444395633"><ele>98.0</ele><time>2026-04-12T08:41:34Z</time></trkpt><trkpt lat="45.42230013216304" lon="9.285874160573572"><ele>98.0</ele><time>2026-04-12T08:41:35Z</time></trkpt><trkpt lat="45.42223315407879" lon="9.285892250728644"><ele>98.0</ele><time>2026-04-12T08:41:36Z</time></trkpt><trkpt lat="45.422159851611184" lon="9.28591047426251"><ele>98.0</ele><time>2026-04-12T08:41:37Z</time></trkpt><trkpt lat="45.42208738479956" lon="9.28594180559775"><ele>97.99999999999999</ele><time>2026-04-12T08:41:38Z</time></trkpt><trkpt lat="45.42201576856822" lon="9.285968950305868"><ele>98.0</ele><time>2026-04-12T08:41:39Z</time></trkpt><trkpt lat="45.42194155617141" lon="9.285997702079046"><ele>98.0</ele><time>2026-04-12T08:41:40Z</time></trkpt><trkpt lat="45.42186378633224" lon="9.286030061742578"><ele>98.0</ele><time>2026-04-12T08:41:41Z</time></trkpt><trkpt lat="45.42178443057704" lon="9.286062020178706"><ele>97.99999999999999</ele><time>2026-04-12T08:41:42Z</time></trkpt><trkpt lat="45.421704439866325" lon="9.286098111441431"><ele>98.0</ele><time>2026-04-12T08:41:43Z</time></trkpt><trkpt lat="45.4216261662753" lon="9.28613375297368"><ele>97.99999999999999</ele><time>2026-04-12T08:41:44Z</time></trkpt><trkpt lat="45.42154691025103" lon="9.286169893270712"><ele>98.0</ele><time>2026-04-12T08:41:45Z</time></trkpt><trkpt lat="45.42146738924201" lon="9.286204822338062"><ele>98.0</ele><time>2026-04-12T08:41:46Z</time></trkpt><trkpt lat="45.42138762205476" lon="9.286240517770459"><ele>98.0</ele><time>2026-04-12T08:41:47Z</time></trkpt><trkpt lat="45.42130822448088" lon="9.286268420817546"><ele>97.99999999999999</ele><time>2026-04-12T08:41:48Z</time></trkpt><trkpt lat="45.42122799616689" lon="9.286281287446124"><ele>98.0</ele><time>2026-04-12T08:41:49Z</time></trkpt><trkpt lat="45.42114552504916" lon="9.286259300955082"><ele>98.49999999999999</ele><time>2026-04-12T08:41:50Z</time></trkpt><trkpt lat="45.42106925647163" lon="9.286211438688943"><ele>99.0</ele><time>2026-04-12T08:41:51Z</time></trkpt><trkpt lat="45.421002506669204" lon="9.286139244619795"><ele>99.5</ele><time>2026-04-12T08:41:52Z</time></trkpt><trkpt lat="45.4209494896789" lon="9.28604817719262"><ele>100.0</ele><time>2026-04-12T08:41:53Z</time></trkpt><trkpt lat="45.42091194051857" lon="9.285941977233653"><ele>100.49999999999999</ele><time>2026-04-12T08:41:54Z</time></trkpt><trkpt lat="45.42088482601559" lon="9.285829635315157"><ele>101.0</ele><time>2026-04-12T08:41:55Z</time></trkpt><trkpt lat="45.42087035721411" lon="9.285721552488686"><ele>101.0</ele><time>2026-04-12T08:41:56Z</time></trkpt><trkpt lat="45.4208542738008" lon="9.285614693716072"><ele>101.0</ele><time>2026-04-12T08:41:57Z</time></trkpt><trkpt lat="45.420833567717665" lon="9.28551622243507"><ele>101.0</ele><time>2026-04-12T08:41:58Z</time></trkpt><trkpt lat="45.42081471321045" lon="9.285418430639288"><ele>101.0</ele><time>2026-04-12T08:41:59Z</time></trkpt><trkpt lat="45.420796385048256" lon="9.285323005377434"><ele>101.0</ele><time>2026-04-12T08:42:00Z</time></trkpt><trkpt lat="45.42078152736913" lon="9.285229656737163"><ele>101.0</ele><time>2026-04-12T08:42:01Z</time></trkpt><trkpt lat="45.42075656810813" lon="9.285138644991353"><ele>101.0</ele><time>2026-04-12T08:42:02Z</time></trkpt><trkpt lat="45.420707255440014" lon="9.285064277348095"><ele>101.19999999999999</ele><time>2026-04-12T08:42:03Z</time></trkpt><trkpt lat="45.42065451360106" lon="9.285002409942472"><ele>101.39999999999999</ele><time>2026-04-12T08:42:04Z</time></trkpt><trkpt lat="45.42057671669127" lon="9.284886143216553"><ele>101.6</ele><time>2026-04-12T08:42:06Z</time></trkpt><trkpt lat="45.42047854397991" lon="9.284899961742791"><ele>101.8</ele><time>2026-04-12T08:42:08Z</time></trkpt><trkpt lat="45.420437326248965" lon="9.284975594410492"><ele>102.0</ele><time>2026-04-12T08:42:09Z</time></trkpt><trkpt lat="45.42033454504326" lon="9.285058392948253"><ele>101.6</ele><time>2026-04-12T08:42:11Z</time></trkpt><trkpt lat="45.42021643423255" lon="9.285109974517749"><ele>101.19999999999999</ele><time>2026-04-12T08:42:13Z</time></trkpt><trkpt lat="45.42009881584778" lon="9.285116813264988"><ele>100.8</ele><time>2026-04-12T08:42:15Z</time></trkpt><trkpt lat="45.42004550448809" lon="9.285062955617583"><ele>100.4</ele><time>2026-04-12T08:42:16Z</time></trkpt><trkpt lat="45.42001722676041" lon="9.284974370899336"><ele>100.0</ele><time>2026-04-12T08:42:17Z</time></trkpt><trkpt lat="45.4199584054615" lon="9.284840684076244"><ele>100.0</ele><time>2026-04-12T08:42:19Z</time></trkpt><trkpt lat="45.41983919278848" lon="9.284801911805394"><ele>100.0</ele><time>2026-04-12T08:42:21Z</time></trkpt><trkpt lat="45.41976126830004" lon="9.284687120968595"><ele>100.0</ele><time>2026-04-12T08:42:23Z</time></trkpt><trkpt lat="45.41975558754894" lon="9.284592799190493"><ele>100.0</ele><time>2026-04-12T08:42:24Z</time></trkpt><trkpt lat="45.41977110211799" lon="9.284426238731543"><ele>100.0</ele><time>2026-04-12T08:42:26Z</time></trkpt><trkpt lat="45.41976239155051" lon="9.284270416774424"><ele>100.0</ele><time>2026-04-12T08:42:28Z</time></trkpt><trkpt lat="45.41975802982749" lon="9.284106735190237"><ele>100.0</ele><time>2026-04-12T08:42:30Z</time></trkpt><trkpt lat="45.419752862344126" lon="9.283945080277652"><ele>100.0</ele><time>2026-04-12T08:42:32Z</time></trkpt><trkpt lat="45.419749226876085" lon="9.283782010969903"><ele>100.0</ele><time>2026-04-12T08:42:34Z</time></trkpt><trkpt lat="45.41973858538133" lon="9.283621798674865"><ele>100.0</ele><time>2026-04-12T08:42:36Z</time></trkpt><trkpt lat="45.41972162326599" lon="9.283460884524985"><ele>100.0</ele><time>2026-04-12T08:42:38Z</time></trkpt><trkpt lat="45.41972374332675" lon="9.283307242161271"><ele>100.0</ele><time>2026-04-12T08:42:40Z</time></trkpt><trkpt lat="45.419655717624906" lon="9.283185879616049"><ele>100.0</ele><time>2026-04-12T08:42:42Z</time></trkpt><trkpt lat="45.41955201491064" lon="9.283139198577574"><ele>100.0</ele><time>2026-04-12T08:42:44Z</time></trkpt><trkpt lat="45.41944497760501" lon="9.28309566724003"><ele>100.2</ele><time>2026-04-12T08:42:46Z</time></trkpt><trkpt lat="45.4193425945027" lon="9.283036108890492"><ele>100.4</ele><time>2026-04-12T08:42:48Z</time></trkpt><trkpt lat="45.41924027017775" lon="9.282984897420418"><ele>100.6</ele><time>2026-04-12T08:42:50Z</time></trkpt><trkpt lat="45.41913707131244" lon="9.282932033885468"><ele>100.8</ele><time>2026-04-12T08:42:52Z</time></trkpt><trkpt lat="45.419035207543864" lon="9.282865222859723"><ele>101.0</ele><time>2026-04-12T08:42:54Z</time></trkpt><trkpt lat="45.41894231256964" lon="9.28278169329766"><ele>101.0</ele><time>2026-04-12T08:42:56Z</time></trkpt><trkpt lat="45.41884495749496" lon="9.282715863047343"><ele>101.0</ele><time>2026-04-12T08:42:58Z</time></trkpt><trkpt lat="45.418753526624904" lon="9.28263377030693"><ele>101.0</ele><time>2026-04-12T08:43:00Z</time></trkpt><trkpt lat="45.41866035698973" lon="9.2825665421162"><ele>101.0</ele><time>2026-04-12T08:43:02Z</time></trkpt><trkpt lat="45.418560131061696" lon="9.282510443454898"><ele>101.0</ele><time>2026-04-12T08:43:04Z</time></trkpt><trkpt lat="45.41845733894808" lon="9.282465780946087"><ele>101.4</ele><time>2026-04-12T08:43:06Z</time></trkpt><trkpt lat="45.41834769546076" lon="9.282469236794542"><ele>101.8</ele><time>2026-04-12T08:43:08Z</time></trkpt><trkpt lat="45.41823787329269" lon="9.282454390013736"><ele>102.2</ele><time>2026-04-12T08:43:10Z</time></trkpt><trkpt lat="45.418153912257225" lon="9.282358334626034"><ele>102.60000000000001</ele><time>2026-04-12T08:43:12Z</time></trkpt><trkpt lat="45.418049421479196" lon="9.282313944041857"><ele>103.0</ele><time>2026-04-12T08:43:14Z</time></trkpt><trkpt lat="45.417952336625056" lon="9.28225037094903"><ele>103.0</ele><time>2026-04-12T08:43:16Z</time></trkpt><trkpt lat="45.41784590334153" lon="9.282198459164624"><ele>103.0</ele><time>2026-04-12T08:43:18Z</time></trkpt><trkpt lat="45.41773703821588" lon="9.282140963056623"><ele>103.0</ele><time>2026-04-12T08:43:20Z</time></trkpt><trkpt lat="45.417632604550974" lon="9.282084758618632"><ele>103.0</ele><time>2026-04-12T08:43:22Z</time></trkpt><trkpt lat="45.41752674228903" lon="9.282025171575192"><ele>103.0</ele><time>2026-04-12T08:43:24Z</time></trkpt><trkpt lat="45.41743030940032" lon="9.281935567879296"><ele>103.0</ele><time>2026-04-12T08:43:26Z</time></trkpt><trkpt lat="45.41733010501748" lon="9.281860748779222"><ele>103.0</ele><time>2026-04-12T08:43:28Z</time></trkpt><trkpt lat="45.41723287068177" lon="9.281783326217736"><ele>103.0</ele><time>2026-04-12T08:43:30Z</time></trkpt><trkpt lat="45.41713575838806" lon="9.281702770091924"><ele>102.60000000000001</ele><time>2026-04-12T08:43:32Z</time></trkpt><trkpt lat="45.41705102077984" lon="9.281601582383804"><ele>102.2</ele><time>2026-04-12T08:43:34Z</time></trkpt><trkpt lat="45.416975830371236" lon="9.281487227665115"><ele>101.8</ele><time>2026-04-12T08:43:36Z</time></trkpt><trkpt lat="45.416908245745496" lon="9.281369835955124"><ele>101.4</ele><time>2026-04-12T08:43:38Z</time></trkpt><trkpt lat="45.41684779538106" lon="9.281248646428145"><ele>101.0</ele><time>2026-04-12T08:43:40Z</time></trkpt><trkpt lat="45.41680591925768" lon="9.281119115222275"><ele>101.6</ele><time>2026-04-12T08:43:42Z</time></trkpt><trkpt lat="45.41676148956928" lon="9.280986355659167"><ele>102.19999999999999</ele><time>2026-04-12T08:43:44Z</time></trkpt><trkpt lat="45.41671763668511" lon="9.280856396419637"><ele>102.80000000000001</ele><time>2026-04-12T08:43:46Z</time></trkpt><trkpt lat="45.41667496664306" lon="9.280719067528857"><ele>103.4</ele><time>2026-04-12T08:43:48Z</time></trkpt><trkpt lat="45.41662746870766" lon="9.28059331804205"><ele>104.0</ele><time>2026-04-12T08:43:50Z</time></trkpt><trkpt lat="45.416564327133045" lon="9.280482527112262"><ele>104.0</ele><time>2026-04-12T08:43:52Z</time></trkpt><trkpt lat="45.4165073320532" lon="9.280351786954776"><ele>104.0</ele><time>2026-04-12T08:43:54Z</time></trkpt><trkpt lat="45.4164410786018" lon="9.280226289454127"><ele>104.0</ele><time>2026-04-12T08:43:56Z</time></trkpt><trkpt lat="45.41634540269318" lon="9.280131912591347"><ele>104.0</ele><time>2026-04-12T08:43:58Z</time></trkpt><trkpt lat="45.416252692136304" lon="9.280035521305553"><ele>104.0</ele><time>2026-04-12T08:44:00Z</time></trkpt><trkpt lat="45.416166547924426" lon="9.279928539902961"><ele>103.4</ele><time>2026-04-12T08:44:02Z</time></trkpt><trkpt lat="45.416079786451675" lon="9.279827912727804"><ele>102.80000000000001</ele><time>2026-04-12T08:44:04Z</time></trkpt><trkpt lat="45.415990827695516" lon="9.279725367257697"><ele>102.19999999999999</ele><time>2026-04-12T08:44:06Z</time></trkpt><trkpt lat="45.41589963205494" lon="9.27963437465731"><ele>101.6</ele><time>2026-04-12T08:44:08Z</time></trkpt><trkpt lat="45.415815020844136" lon="9.279535043918798"><ele>101.0</ele><time>2026-04-12T08:44:10Z</time></trkpt><trkpt lat="45.41572903424088" lon="9.279432432149537"><ele>101.0</ele><time>2026-04-12T08:44:12Z</time></trkpt><trkpt lat="45.415642785363495" lon="9.279336255432215"><ele>101.0</ele><time>2026-04-12T08:44:14Z</time></trkpt><trkpt lat="45.4155564349015" lon="9.279237993654224"><ele>101.0</ele><time>2026-04-12T08:44:16Z</time></trkpt><trkpt lat="45.41547572200733" lon="9.279148375480577"><ele>101.0</ele><time>2026-04-12T08:44:18Z</time></trkpt><trkpt lat="45.415391714953095" lon="9.27906762753264"><ele>101.0</ele><time>2026-04-12T08:44:20Z</time></trkpt><trkpt lat="45.415314442181085" lon="9.27896312345167"><ele>100.19999999999999</ele><time>2026-04-12T08:44:22Z</time></trkpt><trkpt lat="45.41524455623733" lon="9.278878811145878"><ele>99.39999999999999</ele><time>2026-04-12T08:44:24Z</time></trkpt><trkpt lat="45.41518648683285" lon="9.278785394531134"><ele>98.6</ele><time>2026-04-12T08:44:27Z</time></trkpt><trkpt lat="45.415235277960726" lon="9.278682113288932"><ele>97.8</ele><time>2026-04-12T08:44:31Z</time></trkpt><trkpt lat="45.41519464006134" lon="9.278582993856022"><ele>97.0</ele><time>2026-04-12T08:44:33Z</time></trkpt><trkpt lat="45.415109471509666" lon="9.278496399895161"><ele>97.0</ele><time>2026-04-12T08:44:35Z</time></trkpt><trkpt lat="45.4150141387375" lon="9.278408558404392"><ele>97.0</ele><time>2026-04-12T08:44:37Z</time></trkpt><trkpt lat="45.41491406900411" lon="9.278321646494637"><ele>97.0</ele><time>2026-04-12T08:44:39Z</time></trkpt><trkpt lat="45.414805022850246" lon="9.278323230307528"><ele>97.0</ele><time>2026-04-12T08:44:41Z</time></trkpt><trkpt lat="45.4147630122222" lon="9.278396906520387"><ele>97.0</ele><time>2026-04-12T08:44:42Z</time></trkpt><trkpt lat="45.414708601436" lon="9.27854056763784"><ele>97.5</ele><time>2026-04-12T08:44:44Z</time></trkpt><trkpt lat="45.41462054068643" lon="9.27864529239697"><ele>98.0</ele><time>2026-04-12T08:44:46Z</time></trkpt><trkpt lat="45.41454008345555" lon="9.278759484813225"><ele>98.5</ele><time>2026-04-12T08:44:48Z</time></trkpt><trkpt lat="45.414454631134646" lon="9.278865758992898"><ele>99.0</ele><time>2026-04-12T08:44:50Z</time></trkpt><trkpt lat="45.41436885311279" lon="9.278970449359218"><ele>99.0</ele><time>2026-04-12T08:44:52Z</time></trkpt><trkpt lat="45.414303213645724" lon="9.279086927407528"><ele>99.0</ele><time>2026-04-12T08:44:54Z</time></trkpt><trkpt lat="45.414208008712606" lon="9.279186793631833"><ele>99.0</ele><time>2026-04-12T08:44:56Z</time></trkpt><trkpt lat="45.41412110425954" lon="9.27929111312918"><ele>99.0</ele><time>2026-04-12T08:44:58Z</time></trkpt><trkpt lat="45.414033207433846" lon="9.279401039479692"><ele>99.0</ele><time>2026-04-12T08:45:00Z</time></trkpt><trkpt lat="45.413947629321044" lon="9.279512814505416"><ele>99.0</ele><time>2026-04-12T08:45:02Z</time></trkpt><trkpt lat="45.41386035822609" lon="9.279622520242444"><ele>99.0</ele><time>2026-04-12T08:45:04Z</time></trkpt><trkpt lat="45.41377100314501" lon="9.279728969031076"><ele>99.0</ele><time>2026-04-12T08:45:06Z</time></trkpt><trkpt lat="45.413685272803406" lon="9.279841197319337"><ele>98.75</ele><time>2026-04-12T08:45:08Z</time></trkpt><trkpt lat="45.413595367735596" lon="9.279950889852518"><ele>98.5</ele><time>2026-04-12T08:45:10Z</time></trkpt><trkpt lat="45.413507881958374" lon="9.280059214952663"><ele>98.25</ele><time>2026-04-12T08:45:12Z</time></trkpt><trkpt lat="45.41342069067032" lon="9.280170610423923"><ele>98.0</ele><time>2026-04-12T08:45:14Z</time></trkpt><trkpt lat="45.413333289749026" lon="9.280283981576288"><ele>98.0</ele><time>2026-04-12T08:45:16Z</time></trkpt><trkpt lat="45.41324184587974" lon="9.280395494096009"><ele>98.0</ele><time>2026-04-12T08:45:18Z</time></trkpt><trkpt lat="45.41315598648823" lon="9.28050992208349"><ele>98.0</ele><time>2026-04-12T08:45:20Z</time></trkpt><trkpt lat="45.413066663457926" lon="9.280622223331571"><ele>98.0</ele><time>2026-04-12T08:45:22Z</time></trkpt><trkpt lat="45.41297996549828" lon="9.280730329293151"><ele>97.4</ele><time>2026-04-12T08:45:24Z</time></trkpt><trkpt lat="45.41289377317918" lon="9.280837582425582"><ele>96.80000000000001</ele><time>2026-04-12T08:45:26Z</time></trkpt><trkpt lat="45.41280594674905" lon="9.28093258949133"><ele>96.2</ele><time>2026-04-12T08:45:28Z</time></trkpt><trkpt lat="45.41271549451557" lon="9.281024417477964"><ele>95.6</ele><time>2026-04-12T08:45:30Z</time></trkpt><trkpt lat="45.412625294489075" lon="9.281114325888101"><ele>95.0</ele><time>2026-04-12T08:45:32Z</time></trkpt><trkpt lat="45.41252255181439" lon="9.281181060670335"><ele>95.0</ele><time>2026-04-12T08:45:34Z</time></trkpt><trkpt lat="45.41242355567294" lon="9.28126220981202"><ele>95.0</ele><time>2026-04-12T08:45:36Z</time></trkpt><trkpt lat="45.41233811549561" lon="9.281369068503196"><ele>95.0</ele><time>2026-04-12T08:45:38Z</time></trkpt><trkpt lat="45.41228952011641" lon="9.28152874164468"><ele>95.0</ele><time>2026-04-12T08:45:40Z</time></trkpt><trkpt lat="45.4122736916026" lon="9.281618404622563"><ele>95.0</ele><time>2026-04-12T08:45:41Z</time></trkpt><trkpt lat="45.41218314745433" lon="9.281741304995677"><ele>95.5</ele><time>2026-04-12T08:45:43Z</time></trkpt><trkpt lat="45.412092860508565" lon="9.281851210658635"><ele>96.0</ele><time>2026-04-12T08:45:45Z</time></trkpt><trkpt lat="45.41200316970448" lon="9.281967417992236"><ele>96.5</ele><time>2026-04-12T08:45:47Z</time></trkpt><trkpt lat="45.41191495969119" lon="9.282095891927439"><ele>97.0</ele><time>2026-04-12T08:45:49Z</time></trkpt><trkpt lat="45.41182619646732" lon="9.282189389866774"><ele>97.5</ele><time>2026-04-12T08:45:51Z</time></trkpt><trkpt lat="45.41173956064935" lon="9.28229505492104"><ele>98.0</ele><time>2026-04-12T08:45:53Z</time></trkpt><trkpt lat="45.4116538291634" lon="9.282404412433491"><ele>98.5</ele><time>2026-04-12T08:45:55Z</time></trkpt><trkpt lat="45.4115675297381" lon="9.282511540093692"><ele>99.0</ele><time>2026-04-12T08:45:57Z</time></trkpt><trkpt lat="45.41148245463603" lon="9.282617405075987"><ele>99.0</ele><time>2026-04-12T08:45:59Z</time></trkpt><trkpt lat="45.411400869823694" lon="9.282725274881553"><ele>99.0</ele><time>2026-04-12T08:46:01Z</time></trkpt><trkpt lat="45.41132218865246" lon="9.28284727292097"><ele>99.0</ele><time>2026-04-12T08:46:03Z</time></trkpt><trkpt lat="45.41127033855906" lon="9.283000305180192"><ele>99.0</ele><time>2026-04-12T08:46:05Z</time></trkpt><trkpt lat="45.41122326379533" lon="9.283160945416412"><ele>98.25</ele><time>2026-04-12T08:46:07Z</time></trkpt><trkpt lat="45.41117636685849" lon="9.283322757170177"><ele>97.5</ele><time>2026-04-12T08:46:09Z</time></trkpt><trkpt lat="45.41112627392493" lon="9.283483679057573"><ele>96.75</ele><time>2026-04-12T08:46:11Z</time></trkpt><trkpt lat="45.4110811101435" lon="9.28364722049371"><ele>96.0</ele><time>2026-04-12T08:46:13Z</time></trkpt><trkpt lat="45.41103395029039" lon="9.283807140607776"><ele>96.19999999999999</ele><time>2026-04-12T08:46:15Z</time></trkpt><trkpt lat="45.41098710882016" lon="9.28396036885737"><ele>96.39999999999999</ele><time>2026-04-12T08:46:17Z</time></trkpt><trkpt lat="45.41093740434123" lon="9.284119515220217"><ele>96.6</ele><time>2026-04-12T08:46:19Z</time></trkpt><trkpt lat="45.41091361700606" lon="9.284204981858709"><ele>96.8</ele><time>2026-04-12T08:46:20Z</time></trkpt><trkpt lat="45.41086438647589" lon="9.284369964033832"><ele>97.0</ele><time>2026-04-12T08:46:22Z</time></trkpt><trkpt lat="45.4108383334102" lon="9.284454022331694"><ele>97.0</ele><time>2026-04-12T08:46:23Z</time></trkpt><trkpt lat="45.410787018523656" lon="9.284616671059007"><ele>97.0</ele><time>2026-04-12T08:46:25Z</time></trkpt><trkpt lat="45.410760681387906" lon="9.284702754652697"><ele>97.0</ele><time>2026-04-12T08:46:26Z</time></trkpt><trkpt lat="45.410698315305346" lon="9.28485798872043"><ele>97.0</ele><time>2026-04-12T08:46:28Z</time></trkpt><trkpt lat="45.41066274750359" lon="9.284932554267408"><ele>97.0</ele><time>2026-04-12T08:46:29Z</time></trkpt><trkpt lat="45.41058777922278" lon="9.285071360279929"><ele>97.0</ele><time>2026-04-12T08:46:31Z</time></trkpt><trkpt lat="45.41050287555284" lon="9.285192143660423"><ele>97.0</ele><time>2026-04-12T08:46:33Z</time></trkpt><trkpt lat="45.41040613851653" lon="9.285296618650142"><ele>97.0</ele><time>2026-04-12T08:46:35Z</time></trkpt><trkpt lat="45.410313650544786" lon="9.285409116453602"><ele>97.0</ele><time>2026-04-12T08:46:37Z</time></trkpt><trkpt lat="45.410227152182024" lon="9.285534352763914"><ele>96.75</ele><time>2026-04-12T08:46:39Z</time></trkpt><trkpt lat="45.41014300871736" lon="9.28566526423656"><ele>96.5</ele><time>2026-04-12T08:46:41Z</time></trkpt><trkpt lat="45.41005542692759" lon="9.285791940633066"><ele>96.25</ele><time>2026-04-12T08:46:43Z</time></trkpt><trkpt lat="45.409970846204935" lon="9.285919660248876"><ele>96.0</ele><time>2026-04-12T08:46:45Z</time></trkpt><trkpt lat="45.409886298799314" lon="9.286046015504903"><ele>96.0</ele><time>2026-04-12T08:46:47Z</time></trkpt><trkpt lat="45.40980233084814" lon="9.286169329461993"><ele>96.0</ele><time>2026-04-12T08:46:49Z</time></trkpt><trkpt lat="45.40971876672856" lon="9.286295303166394"><ele>96.0</ele><time>2026-04-12T08:46:51Z</time></trkpt><trkpt lat="45.40963476114389" lon="9.286418974480062"><ele>96.0</ele><time>2026-04-12T08:46:53Z</time></trkpt><trkpt lat="45.409551894216094" lon="9.286542780274212"><ele>95.8</ele><time>2026-04-12T08:46:55Z</time></trkpt><trkpt lat="45.409469791810714" lon="9.286664935181674"><ele>95.6</ele><time>2026-04-12T08:46:57Z</time></trkpt><trkpt lat="45.409380937958616" lon="9.286776781150516"><ele>95.4</ele><time>2026-04-12T08:46:59Z</time></trkpt><trkpt lat="45.40929895941926" lon="9.286903622503493"><ele>95.2</ele><time>2026-04-12T08:47:01Z</time></trkpt><trkpt lat="45.40924862808271" lon="9.286967662332298"><ele>95.0</ele><time>2026-04-12T08:47:02Z</time></trkpt><trkpt lat="45.40916602409188" lon="9.287086927281944"><ele>95.0</ele><time>2026-04-12T08:47:04Z</time></trkpt><trkpt lat="45.409119455684085" lon="9.287149386747284"><ele>95.0</ele><time>2026-04-12T08:47:05Z</time></trkpt><trkpt lat="45.409034355506286" lon="9.287281646736615"><ele>95.0</ele><time>2026-04-12T08:47:07Z</time></trkpt><trkpt lat="45.40893342702135" lon="9.287383697256336"><ele>95.0</ele><time>2026-04-12T08:47:09Z</time></trkpt><trkpt lat="45.4088381991022" lon="9.287491819986824"><ele>95.0</ele><time>2026-04-12T08:47:11Z</time></trkpt><trkpt lat="45.40873388895989" lon="9.287608687527868"><ele>94.5</ele><time>2026-04-12T08:47:13Z</time></trkpt><trkpt lat="45.40864254248428" lon="9.28771123100372"><ele>94.0</ele><time>2026-04-12T08:47:15Z</time></trkpt><trkpt lat="45.40854653250257" lon="9.287821105891588"><ele>93.5</ele><time>2026-04-12T08:47:17Z</time></trkpt><trkpt lat="45.408451460004734" lon="9.287930089940469"><ele>93.0</ele><time>2026-04-12T08:47:19Z</time></trkpt><trkpt lat="45.40836025903831" lon="9.288040788007075"><ele>93.2</ele><time>2026-04-12T08:47:21Z</time></trkpt><trkpt lat="45.408274631655964" lon="9.28815569392361"><ele>93.4</ele><time>2026-04-12T08:47:23Z</time></trkpt><trkpt lat="45.40823112114173" lon="9.288221648688262"><ele>93.60000000000001</ele><time>2026-04-12T08:47:24Z</time></trkpt><trkpt lat="45.408141914024775" lon="9.288328154607823"><ele>93.80000000000001</ele><time>2026-04-12T08:47:26Z</time></trkpt><trkpt lat="45.40805523025601" lon="9.288442178259503"><ele>94.0</ele><time>2026-04-12T08:47:28Z</time></trkpt><trkpt lat="45.40796612135293" lon="9.288554657993089"><ele>94.0</ele><time>2026-04-12T08:47:30Z</time></trkpt><trkpt lat="45.407879083515596" lon="9.288668148639301"><ele>94.0</ele><time>2026-04-12T08:47:32Z</time></trkpt><trkpt lat="45.40779431045336" lon="9.288784308775865"><ele>94.0</ele><time>2026-04-12T08:47:34Z</time></trkpt><trkpt lat="45.407710107026496" lon="9.288907912900662"><ele>94.0</ele><time>2026-04-12T08:47:36Z</time></trkpt><trkpt lat="45.40763013470611" lon="9.289033295536745"><ele>94.0</ele><time>2026-04-12T08:47:38Z</time></trkpt><trkpt lat="45.40754966797724" lon="9.28915622399807"><ele>94.0</ele><time>2026-04-12T08:47:40Z</time></trkpt><trkpt lat="45.40747053036038" lon="9.28927640049068"><ele>94.0</ele><time>2026-04-12T08:47:42Z</time></trkpt><trkpt lat="45.40738906609421" lon="9.289397091552658"><ele>94.0</ele><time>2026-04-12T08:47:44Z</time></trkpt><trkpt lat="45.407307337913714" lon="9.289514867436274"><ele>94.0</ele><time>2026-04-12T08:47:46Z</time></trkpt><trkpt lat="45.40723316837274" lon="9.289644236766295"><ele>94.0</ele><time>2026-04-12T08:47:48Z</time></trkpt><trkpt lat="45.40715149058711" lon="9.289765452843948"><ele>94.0</ele><time>2026-04-12T08:47:50Z</time></trkpt><trkpt lat="45.407066883044806" lon="9.28988198598839"><ele>94.0</ele><time>2026-04-12T08:47:52Z</time></trkpt><trkpt lat="45.40698379252963" lon="9.29000738866512"><ele>94.5</ele><time>2026-04-12T08:47:54Z</time></trkpt><trkpt lat="45.406899910221405" lon="9.290130747201323"><ele>95.0</ele><time>2026-04-12T08:47:56Z</time></trkpt><trkpt lat="45.40681742729506" lon="9.290256344721467"><ele>95.5</ele><time>2026-04-12T08:47:58Z</time></trkpt><trkpt lat="45.406737316496375" lon="9.290385793094083"><ele>96.0</ele><time>2026-04-12T08:48:00Z</time></trkpt><trkpt lat="45.4066532125648" lon="9.290510219284357"><ele>95.5</ele><time>2026-04-12T08:48:02Z</time></trkpt><trkpt lat="45.40656989523992" lon="9.290634728015503"><ele>95.0</ele><time>2026-04-12T08:48:04Z</time></trkpt><trkpt lat="45.40648655276699" lon="9.290761773528539"><ele>94.5</ele><time>2026-04-12T08:48:06Z</time></trkpt><trkpt lat="45.40640531845037" lon="9.29088939341637"><ele>94.0</ele><time>2026-04-12T08:48:08Z</time></trkpt><trkpt lat="45.406323512350845" lon="9.291011501208143"><ele>94.0</ele><time>2026-04-12T08:48:10Z</time></trkpt><trkpt lat="45.40624199899071" lon="9.291130119323524"><ele>94.0</ele><time>2026-04-12T08:48:12Z</time></trkpt><trkpt lat="45.40616232405417" lon="9.291253635817865"><ele>94.0</ele><time>2026-04-12T08:48:14Z</time></trkpt><trkpt lat="45.406081146811204" lon="9.29137469006562"><ele>94.0</ele><time>2026-04-12T08:48:16Z</time></trkpt><trkpt lat="45.406001282994744" lon="9.291495840131665"><ele>94.25</ele><time>2026-04-12T08:48:18Z</time></trkpt><trkpt lat="45.405922205850636" lon="9.29161551353847"><ele>94.5</ele><time>2026-04-12T08:48:20Z</time></trkpt><trkpt lat="45.40584087033626" lon="9.29173967520199"><ele>94.75</ele><time>2026-04-12T08:48:22Z</time></trkpt><trkpt lat="45.40576040194097" lon="9.29186634118144"><ele>95.0</ele><time>2026-04-12T08:48:24Z</time></trkpt><trkpt lat="45.40568105200288" lon="9.291994095357019"><ele>95.0</ele><time>2026-04-12T08:48:26Z</time></trkpt><trkpt lat="45.40559568442601" lon="9.292115940663502"><ele>95.0</ele><time>2026-04-12T08:48:28Z</time></trkpt><trkpt lat="45.40551037390937" lon="9.29223429048151"><ele>95.0</ele><time>2026-04-12T08:48:30Z</time></trkpt><trkpt lat="45.405461750544404" lon="9.292291767001327"><ele>95.0</ele><time>2026-04-12T08:48:31Z</time></trkpt><trkpt lat="45.40535855808532" lon="9.292382147602938"><ele>95.0</ele><time>2026-04-12T08:48:33Z</time></trkpt><trkpt lat="45.405254862426084" lon="9.292457767392756"><ele>95.25</ele><time>2026-04-12T08:48:35Z</time></trkpt><trkpt lat="45.40515160079676" lon="9.292535817780985"><ele>95.5</ele><time>2026-04-12T08:48:37Z</time></trkpt><trkpt lat="45.40505093146251" lon="9.292613876974551"><ele>95.75</ele><time>2026-04-12T08:48:39Z</time></trkpt><trkpt lat="45.40494797839659" lon="9.292693265338137"><ele>96.0</ele><time>2026-04-12T08:48:41Z</time></trkpt><trkpt lat="45.40484217056727" lon="9.292771628282516"><ele>96.0</ele><time>2026-04-12T08:48:43Z</time></trkpt><trkpt lat="45.40474249573344" lon="9.292851290556127"><ele>96.0</ele><time>2026-04-12T08:48:45Z</time></trkpt><trkpt lat="45.40464439452026" lon="9.292922701629767"><ele>96.0</ele><time>2026-04-12T08:48:47Z</time></trkpt><trkpt lat="45.40454965311856" lon="9.29297005722589"><ele>96.0</ele><time>2026-04-12T08:48:49Z</time></trkpt><trkpt lat="45.40446830559462" lon="9.293013602312078"><ele>96.0</ele><time>2026-04-12T08:48:51Z</time></trkpt><trkpt lat="45.40442222285512" lon="9.293125113313746"><ele>96.66666666666667</ele><time>2026-04-12T08:48:53Z</time></trkpt><trkpt lat="45.40435518175116" lon="9.293195211215808"><ele>97.33333333333334</ele><time>2026-04-12T08:48:55Z</time></trkpt><trkpt lat="45.40429108712012" lon="9.293273834764324"><ele>98.0</ele><time>2026-04-12T08:48:57Z</time></trkpt><trkpt lat="45.404226409891415" lon="9.29335797938782"><ele>98.66666666666667</ele><time>2026-04-12T08:48:59Z</time></trkpt><trkpt lat="45.404165504079195" lon="9.293451269852829"><ele>99.33333333333334</ele><time>2026-04-12T08:49:01Z</time></trkpt><trkpt lat="45.40410574515396" lon="9.293540230470924"><ele>100.0</ele><time>2026-04-12T08:49:03Z</time></trkpt><trkpt lat="45.404043746515754" lon="9.293627376026643"><ele>100.00000000000001</ele><time>2026-04-12T08:49:05Z</time></trkpt><trkpt lat="45.40398795074653" lon="9.293721133138241"><ele>100.0</ele><time>2026-04-12T08:49:07Z</time></trkpt><trkpt lat="45.40392306630469" lon="9.29379900151805"><ele>100.0</ele><time>2026-04-12T08:49:09Z</time></trkpt><trkpt lat="45.40386410940153" lon="9.293887909766907"><ele>100.0</ele><time>2026-04-12T08:49:11Z</time></trkpt><trkpt lat="45.40380080004132" lon="9.293978145410566"><ele>100.00000000000001</ele><time>2026-04-12T08:49:13Z</time></trkpt><trkpt lat="45.403732318533805" lon="9.294072089241428"><ele>100.0</ele><time>2026-04-12T08:49:15Z</time></trkpt><trkpt lat="45.403651471251216" lon="9.294163584032182"><ele>99.8</ele><time>2026-04-12T08:49:17Z</time></trkpt><trkpt lat="45.403570373614215" lon="9.29424620391858"><ele>99.6</ele><time>2026-04-12T08:49:19Z</time></trkpt><trkpt lat="45.40348831409147" lon="9.294328511995888"><ele>99.4</ele><time>2026-04-12T08:49:21Z</time></trkpt><trkpt lat="45.40340453713216" lon="9.294413906459818"><ele>99.2</ele><time>2026-04-12T08:49:23Z</time></trkpt><trkpt lat="45.403318576487756" lon="9.294500571359665"><ele>99.0</ele><time>2026-04-12T08:49:25Z</time></trkpt><trkpt lat="45.40323040225819" lon="9.294583165874135"><ele>99.0</ele><time>2026-04-12T08:49:27Z</time></trkpt><trkpt lat="45.40312063794062" lon="9.294591161788828"><ele>99.0</ele><time>2026-04-12T08:49:29Z</time></trkpt><trkpt lat="45.40300785037211" lon="9.29459800930744"><ele>99.0</ele><time>2026-04-12T08:49:31Z</time></trkpt><trkpt lat="45.40291614239647" lon="9.294688639438624"><ele>99.0</ele><time>2026-04-12T08:49:33Z</time></trkpt><trkpt lat="45.4028791260404" lon="9.294838535991362"><ele>99.0</ele><time>2026-04-12T08:49:35Z</time></trkpt><trkpt lat="45.402834784681566" lon="9.294944572071874"><ele>98.2</ele><time>2026-04-12T08:49:37Z</time></trkpt><trkpt lat="45.40278236570994" lon="9.294998906601842"><ele>97.4</ele><time>2026-04-12T08:49:38Z</time></trkpt><trkpt lat="45.402698229756176" lon="9.295078900240686"><ele>96.6</ele><time>2026-04-12T08:49:40Z</time></trkpt><trkpt lat="45.402612652813" lon="9.295161797830106"><ele>95.8</ele><time>2026-04-12T08:49:42Z</time></trkpt><trkpt lat="45.40252928655531" lon="9.295254196351463"><ele>95.0</ele><time>2026-04-12T08:49:44Z</time></trkpt><trkpt lat="45.40243910581208" lon="9.29533180827058"><ele>95.0</ele><time>2026-04-12T08:49:46Z</time></trkpt><trkpt lat="45.402341800967804" lon="9.295377262724982"><ele>95.0</ele><time>2026-04-12T08:49:48Z</time></trkpt><trkpt lat="45.402247699928445" lon="9.295449981512165"><ele>95.0</ele><time>2026-04-12T08:49:50Z</time></trkpt><trkpt lat="45.40214904408942" lon="9.295502691167556"><ele>95.0</ele><time>2026-04-12T08:49:52Z</time></trkpt><trkpt lat="45.4020505188294" lon="9.295555428521894"><ele>95.0</ele><time>2026-04-12T08:49:54Z</time></trkpt><trkpt lat="45.40195007632239" lon="9.295604440243912"><ele>94.8</ele><time>2026-04-12T08:49:56Z</time></trkpt><trkpt lat="45.40185203095799" lon="9.295663486608754"><ele>94.6</ele><time>2026-04-12T08:49:58Z</time></trkpt><trkpt lat="45.401760431308034" lon="9.295738265150838"><ele>94.4</ele><time>2026-04-12T08:50:00Z</time></trkpt><trkpt lat="45.401674679097056" lon="9.295823542263854"><ele>94.2</ele><time>2026-04-12T08:50:02Z</time></trkpt><trkpt lat="45.40160377686787" lon="9.29593417567571"><ele>94.0</ele><time>2026-04-12T08:50:04Z</time></trkpt><trkpt lat="45.40154056763153" lon="9.296061010101733"><ele>94.0</ele><time>2026-04-12T08:50:06Z</time></trkpt><trkpt lat="45.401497339267074" lon="9.296203072324165"><ele>94.0</ele><time>2026-04-12T08:50:08Z</time></trkpt><trkpt lat="45.401448780930004" lon="9.2963407609795"><ele>94.0</ele><time>2026-04-12T08:50:10Z</time></trkpt><trkpt lat="45.40140397976775" lon="9.29648106470552"><ele>94.0</ele><time>2026-04-12T08:50:12Z</time></trkpt><trkpt lat="45.401358775740086" lon="9.296626185462035"><ele>94.0</ele><time>2026-04-12T08:50:14Z</time></trkpt><trkpt lat="45.40131011288763" lon="9.296769954850074"><ele>94.4</ele><time>2026-04-12T08:50:16Z</time></trkpt><trkpt lat="45.401264752165986" lon="9.296907630746144"><ele>94.80000000000001</ele><time>2026-04-12T08:50:18Z</time></trkpt><trkpt lat="45.40121334304724" lon="9.297056267687966"><ele>95.19999999999999</ele><time>2026-04-12T08:50:20Z</time></trkpt><trkpt lat="45.40115595204678" lon="9.297188424679442"><ele>95.6</ele><time>2026-04-12T08:50:22Z</time></trkpt><trkpt lat="45.40105882032302" lon="9.297280153304245"><ele>96.0</ele><time>2026-04-12T08:50:24Z</time></trkpt><trkpt lat="45.40094409424892" lon="9.29732795688841"><ele>96.0</ele><time>2026-04-12T08:50:26Z</time></trkpt><trkpt lat="45.40083601563041" lon="9.297374510436635"><ele>96.0</ele><time>2026-04-12T08:50:28Z</time></trkpt><trkpt lat="45.400723677785045" lon="9.297417519458667"><ele>96.0</ele><time>2026-04-12T08:50:30Z</time></trkpt><trkpt lat="45.40061191212003" lon="9.297462939962118"><ele>96.0</ele><time>2026-04-12T08:50:32Z</time></trkpt><trkpt lat="45.40050013158802" lon="9.297500372474039"><ele>96.0</ele><time>2026-04-12T08:50:34Z</time></trkpt><trkpt lat="45.40039626539434" lon="9.297541486263048"><ele>96.0</ele><time>2026-04-12T08:50:36Z</time></trkpt><trkpt lat="45.40029317884527" lon="9.297577774669419"><ele>96.0</ele><time>2026-04-12T08:50:38Z</time></trkpt><trkpt lat="45.40019357116458" lon="9.297533850388541"><ele>96.0</ele><time>2026-04-12T08:50:40Z</time></trkpt><trkpt lat="45.400166916599815" lon="9.297382832262944"><ele>96.0</ele><time>2026-04-12T08:50:42Z</time></trkpt><trkpt lat="45.40014630702978" lon="9.297222698553693"><ele>96.0</ele><time>2026-04-12T08:50:44Z</time></trkpt><trkpt lat="45.400110953140626" lon="9.297070103946965"><ele>96.0</ele><time>2026-04-12T08:50:46Z</time></trkpt><trkpt lat="45.400080890338955" lon="9.296908572333415"><ele>96.0</ele><time>2026-04-12T08:50:48Z</time></trkpt><trkpt lat="45.40004880381181" lon="9.296748428863358"><ele>96.0</ele><time>2026-04-12T08:50:50Z</time></trkpt><trkpt lat="45.400009696866185" lon="9.29659466020956"><ele>96.0</ele><time>2026-04-12T08:50:52Z</time></trkpt><trkpt lat="45.400012497028875" lon="9.296436551887082"><ele>96.0</ele><time>2026-04-12T08:50:54Z</time></trkpt><trkpt lat="45.40006379412324" lon="9.296312085414694"><ele>96.0</ele><time>2026-04-12T08:50:56Z</time></trkpt><trkpt lat="45.4000229435849" lon="9.296182354625437"><ele>96.0</ele><time>2026-04-12T08:50:58Z</time></trkpt><trkpt lat="45.39999333658872" lon="9.296057638899097"><ele>96.0</ele><time>2026-04-12T08:51:00Z</time></trkpt><trkpt lat="45.39996550831509" lon="9.29590923804234"><ele>96.0</ele><time>2026-04-12T08:51:02Z</time></trkpt><trkpt lat="45.39993538273263" lon="9.295767507019114"><ele>96.0</ele><time>2026-04-12T08:51:04Z</time></trkpt><trkpt lat="45.399902239550805" lon="9.29562185516345"><ele>96.0</ele><time>2026-04-12T08:51:06Z</time></trkpt><trkpt lat="45.399868161700866" lon="9.295481846606354"><ele>96.0</ele><time>2026-04-12T08:51:08Z</time></trkpt><trkpt lat="45.399837755461895" lon="9.29534242885907"><ele>96.0</ele><time>2026-04-12T08:51:10Z</time></trkpt><trkpt lat="45.39982609789371" lon="9.295208875837046"><ele>96.0</ele><time>2026-04-12T08:51:12Z</time></trkpt><trkpt lat="45.39984340526914" lon="9.295072163596117"><ele>96.0</ele><time>2026-04-12T08:51:14Z</time></trkpt><trkpt lat="45.399756198293126" lon="9.294996710570853"><ele>96.0</ele><time>2026-04-12T08:51:16Z</time></trkpt><trkpt lat="45.39969023483052" lon="9.294899385625266"><ele>96.0</ele><time>2026-04-12T08:51:18Z</time></trkpt><trkpt lat="45.399671213398356" lon="9.294731376790295"><ele>96.0</ele><time>2026-04-12T08:51:20Z</time></trkpt><trkpt lat="45.39963279967166" lon="9.294565779274274"><ele>95.6</ele><time>2026-04-12T08:51:22Z</time></trkpt><trkpt lat="45.399604566560434" lon="9.29439749230741"><ele>95.19999999999999</ele><time>2026-04-12T08:51:24Z</time></trkpt><trkpt lat="45.39961613187968" lon="9.294307343340153"><ele>94.80000000000001</ele><time>2026-04-12T08:51:25Z</time></trkpt><trkpt lat="45.39957151506823" lon="9.294146580362868"><ele>94.4</ele><time>2026-04-12T08:51:27Z</time></trkpt><trkpt lat="45.39952708394706" lon="9.293988234490294"><ele>94.0</ele><time>2026-04-12T08:51:29Z</time></trkpt><trkpt lat="45.3994918615522" lon="9.293823960851022"><ele>93.75</ele><time>2026-04-12T08:51:31Z</time></trkpt><trkpt lat="45.39944938448282" lon="9.293665708615583"><ele>93.5</ele><time>2026-04-12T08:51:33Z</time></trkpt><trkpt lat="45.39939985441825" lon="9.293519862913515"><ele>93.25</ele><time>2026-04-12T08:51:35Z</time></trkpt><trkpt lat="45.39932528344901" lon="9.2934001958307"><ele>93.0</ele><time>2026-04-12T08:51:37Z</time></trkpt><trkpt lat="45.39925054965097" lon="9.293287307335307"><ele>93.0</ele><time>2026-04-12T08:51:39Z</time></trkpt><trkpt lat="45.39917454650402" lon="9.293191031519425"><ele>93.0</ele><time>2026-04-12T08:51:41Z</time></trkpt><trkpt lat="45.39910135865709" lon="9.293099467749544"><ele>93.0</ele><time>2026-04-12T08:51:43Z</time></trkpt><trkpt lat="45.39903131228895" lon="9.293009799198964"><ele>93.0</ele><time>2026-04-12T08:51:45Z</time></trkpt><trkpt lat="45.398959045274786" lon="9.29292782470382"><ele>93.0</ele><time>2026-04-12T08:51:47Z</time></trkpt><trkpt lat="45.398891129434844" lon="9.292848999855059"><ele>92.83333333333333</ele><time>2026-04-12T08:51:49Z</time></trkpt><trkpt lat="45.398825324882864" lon="9.292777668042358"><ele>92.66666666666667</ele><time>2026-04-12T08:51:51Z</time></trkpt><trkpt lat="45.398768115059276" lon="9.292713854931488"><ele>92.5</ele><time>2026-04-12T08:51:53Z</time></trkpt><trkpt lat="45.39870383176704" lon="9.29273210282502"><ele>92.33333333333334</ele><time>2026-04-12T08:51:55Z</time></trkpt><trkpt lat="45.39862583131055" lon="9.29273255093651"><ele>92.16666666666667</ele><time>2026-04-12T08:51:57Z</time></trkpt><trkpt lat="45.39855486886901" lon="9.292636047194149"><ele>92.0</ele><time>2026-04-12T08:51:59Z</time></trkpt><trkpt lat="45.39845365420567" lon="9.292619632440614"><ele>92.0</ele><time>2026-04-12T08:52:01Z</time></trkpt><trkpt lat="45.39835304160653" lon="9.292623284580941"><ele>92.0</ele><time>2026-04-12T08:52:03Z</time></trkpt><trkpt lat="45.39825922143688" lon="9.292717777764308"><ele>92.0</ele><time>2026-04-12T08:52:05Z</time></trkpt><trkpt lat="45.398162924460834" lon="9.292815065676628"><ele>92.0</ele><time>2026-04-12T08:52:07Z</time></trkpt><trkpt lat="45.39809091569842" lon="9.29295264967926"><ele>92.0</ele><time>2026-04-12T08:52:09Z</time></trkpt><trkpt lat="45.39802422421648" lon="9.293090496309034"><ele>92.0</ele><time>2026-04-12T08:52:11Z</time></trkpt><trkpt lat="45.39795876476994" lon="9.293224637839392"><ele>92.0</ele><time>2026-04-12T08:52:13Z</time></trkpt><trkpt lat="45.39789847438417" lon="9.293360432250875"><ele>92.0</ele><time>2026-04-12T08:52:15Z</time></trkpt><trkpt lat="45.39784098392246" lon="9.293504064172115"><ele>92.0</ele><time>2026-04-12T08:52:17Z</time></trkpt><trkpt lat="45.39777537062728" lon="9.293638358744731"><ele>92.0</ele><time>2026-04-12T08:52:19Z</time></trkpt><trkpt lat="45.39770652296825" lon="9.29377763910962"><ele>92.0</ele><time>2026-04-12T08:52:21Z</time></trkpt><trkpt lat="45.39763980727619" lon="9.293918247128275"><ele>92.0</ele><time>2026-04-12T08:52:23Z</time></trkpt><trkpt lat="45.39757569108983" lon="9.294060110229113"><ele>92.5</ele><time>2026-04-12T08:52:25Z</time></trkpt><trkpt lat="45.39751050381536" lon="9.294202098231692"><ele>93.0</ele><time>2026-04-12T08:52:27Z</time></trkpt><trkpt lat="45.39744508604344" lon="9.294342565010298"><ele>93.5</ele><time>2026-04-12T08:52:29Z</time></trkpt><trkpt lat="45.39738309466927" lon="9.294480996035189"><ele>94.0</ele><time>2026-04-12T08:52:31Z</time></trkpt><trkpt lat="45.39731821435255" lon="9.294606298741806"><ele>94.0</ele><time>2026-04-12T08:52:33Z</time></trkpt><trkpt lat="45.39725646813798" lon="9.2947393871503"><ele>94.0</ele><time>2026-04-12T08:52:35Z</time></trkpt><trkpt lat="45.39719403848131" lon="9.294867000303661"><ele>94.0</ele><time>2026-04-12T08:52:37Z</time></trkpt><trkpt lat="45.39711879668655" lon="9.294989256107428"><ele>94.0</ele><time>2026-04-12T08:52:39Z</time></trkpt><trkpt lat="45.39705507121051" lon="9.295114521736705"><ele>94.0</ele><time>2026-04-12T08:52:41Z</time></trkpt><trkpt lat="45.396981201361726" lon="9.295225413452691"><ele>94.2</ele><time>2026-04-12T08:52:43Z</time></trkpt><trkpt lat="45.39691533099879" lon="9.295339791820425"><ele>94.4</ele><time>2026-04-12T08:52:45Z</time></trkpt><trkpt lat="45.39683056723731" lon="9.295437175671685"><ele>94.6</ele><time>2026-04-12T08:52:47Z</time></trkpt><trkpt lat="45.39675222308579" lon="9.295541015266538"><ele>94.8</ele><time>2026-04-12T08:52:49Z</time></trkpt><trkpt lat="45.39667450074112" lon="9.295641275966632"><ele>95.0</ele><time>2026-04-12T08:52:51Z</time></trkpt><trkpt lat="45.39659738755007" lon="9.295746538843837"><ele>95.0</ele><time>2026-04-12T08:52:53Z</time></trkpt><trkpt lat="45.396521156450895" lon="9.295853740174673"><ele>95.0</ele><time>2026-04-12T08:52:55Z</time></trkpt><trkpt lat="45.39643960269004" lon="9.29594937747464"><ele>95.0</ele><time>2026-04-12T08:52:57Z</time></trkpt><trkpt lat="45.39636001686885" lon="9.296048703702603"><ele>95.0</ele><time>2026-04-12T08:52:59Z</time></trkpt><trkpt lat="45.39629081674194" lon="9.296160440048059"><ele>95.0</ele><time>2026-04-12T08:53:01Z</time></trkpt><trkpt lat="45.396214615839355" lon="9.296251615996114"><ele>95.16666666666667</ele><time>2026-04-12T08:53:03Z</time></trkpt><trkpt lat="45.396153994804415" lon="9.296353570996876"><ele>95.33333333333334</ele><time>2026-04-12T08:53:05Z</time></trkpt><trkpt lat="45.396083246245354" lon="9.296440473006912"><ele>95.5</ele><time>2026-04-12T08:53:07Z</time></trkpt><trkpt lat="45.39602128179536" lon="9.29652808469201"><ele>95.66666666666667</ele><time>2026-04-12T08:53:09Z</time></trkpt><trkpt lat="45.39596247786383" lon="9.29661364900568"><ele>95.83333333333333</ele><time>2026-04-12T08:53:11Z</time></trkpt><trkpt lat="45.39590077364898" lon="9.296691220302229"><ele>96.0</ele><time>2026-04-12T08:53:13Z</time></trkpt><trkpt lat="45.39584076619348" lon="9.296780765824227"><ele>96.0</ele><time>2026-04-12T08:53:15Z</time></trkpt><trkpt lat="45.395775551725016" lon="9.296873885337988"><ele>96.0</ele><time>2026-04-12T08:53:17Z</time></trkpt><trkpt lat="45.39570583082061" lon="9.29695539455241"><ele>96.0</ele><time>2026-04-12T08:53:19Z</time></trkpt><trkpt lat="45.39564493026174" lon="9.297050211829188"><ele>96.0</ele><time>2026-04-12T08:53:21Z</time></trkpt><trkpt lat="45.39557654192326" lon="9.297133296129331"><ele>96.0</ele><time>2026-04-12T08:53:23Z</time></trkpt><trkpt lat="45.39551605062656" lon="9.297225357861606"><ele>95.83333333333333</ele><time>2026-04-12T08:53:25Z</time></trkpt><trkpt lat="45.39545102351995" lon="9.297312347131816"><ele>95.66666666666667</ele><time>2026-04-12T08:53:27Z</time></trkpt><trkpt lat="45.39539034346911" lon="9.297398443123177"><ele>95.5</ele><time>2026-04-12T08:53:29Z</time></trkpt><trkpt lat="45.39532838254327" lon="9.297482083510877"><ele>95.33333333333334</ele><time>2026-04-12T08:53:31Z</time></trkpt><trkpt lat="45.39527114682215" lon="9.297566071571739"><ele>95.16666666666667</ele><time>2026-04-12T08:53:33Z</time></trkpt><trkpt lat="45.395211439968996" lon="9.29764234687103"><ele>95.0</ele><time>2026-04-12T08:53:35Z</time></trkpt><trkpt lat="45.3951561084645" lon="9.297721457713367"><ele>95.0</ele><time>2026-04-12T08:53:37Z</time></trkpt><trkpt lat="45.395102394861524" lon="9.297790986030739"><ele>95.0</ele><time>2026-04-12T08:53:39Z</time></trkpt><trkpt lat="45.39502164242922" lon="9.29777142000463"><ele>95.0</ele><time>2026-04-12T08:53:42Z</time></trkpt><trkpt lat="45.39495173852615" lon="9.297748739008238"><ele>95.0</ele><time>2026-04-12T08:53:44Z</time></trkpt><trkpt lat="45.39489478708846" lon="9.297847704240592"><ele>95.0</ele><time>2026-04-12T08:53:46Z</time></trkpt><trkpt lat="45.39482937019287" lon="9.297871636093706"><ele>95.0</ele><time>2026-04-12T08:53:48Z</time></trkpt><trkpt lat="45.39477914160517" lon="9.297790998115484"><ele>95.0</ele><time>2026-04-12T08:53:50Z</time></trkpt><trkpt lat="45.39471573554488" lon="9.297697748110139"><ele>95.0</ele><time>2026-04-12T08:53:52Z</time></trkpt><trkpt lat="45.39464599180081" lon="9.297586866941808"><ele>95.0</ele><time>2026-04-12T08:53:54Z</time></trkpt><trkpt lat="45.39456878540254" lon="9.297468497201365"><ele>95.0</ele><time>2026-04-12T08:53:56Z</time></trkpt><trkpt lat="45.394491071112014" lon="9.297354182990075"><ele>95.0</ele><time>2026-04-12T08:53:58Z</time></trkpt><trkpt lat="45.39441571618622" lon="9.297237021130108"><ele>95.4</ele><time>2026-04-12T08:54:00Z</time></trkpt><trkpt lat="45.39433900461552" lon="9.297124341866368"><ele>95.8</ele><time>2026-04-12T08:54:02Z</time></trkpt><trkpt lat="45.39426693256426" lon="9.297006872547458"><ele>96.19999999999999</ele><time>2026-04-12T08:54:04Z</time></trkpt><trkpt lat="45.3941904500296" lon="9.296894995747081"><ele>96.6</ele><time>2026-04-12T08:54:06Z</time></trkpt><trkpt lat="45.394111380025116" lon="9.296784000452522"><ele>97.0</ele><time>2026-04-12T08:54:08Z</time></trkpt><trkpt lat="45.39403577320273" lon="9.29666371230996"><ele>97.0</ele><time>2026-04-12T08:54:10Z</time></trkpt><trkpt lat="45.39395437983735" lon="9.29655365988402"><ele>97.0</ele><time>2026-04-12T08:54:12Z</time></trkpt><trkpt lat="45.393877029397295" lon="9.296439418061546"><ele>97.0</ele><time>2026-04-12T08:54:14Z</time></trkpt><trkpt lat="45.39379678248501" lon="9.296330842974637"><ele>97.0</ele><time>2026-04-12T08:54:16Z</time></trkpt><trkpt lat="45.39372523516552" lon="9.296218331498407"><ele>97.0</ele><time>2026-04-12T08:54:18Z</time></trkpt><trkpt lat="45.39365764208458" lon="9.296136549554696"><ele>97.0</ele><time>2026-04-12T08:54:20Z</time></trkpt><trkpt lat="45.39359868269821" lon="9.296092344395737"><ele>97.0</ele><time>2026-04-12T08:54:22Z</time></trkpt><trkpt lat="45.39353247241188" lon="9.295985798786035"><ele>97.0</ele><time>2026-04-12T08:54:24Z</time></trkpt><trkpt lat="45.39345729955865" lon="9.29587719969773"><ele>97.0</ele><time>2026-04-12T08:54:26Z</time></trkpt><trkpt lat="45.39337385424982" lon="9.295755388046148"><ele>97.0</ele><time>2026-04-12T08:54:28Z</time></trkpt><trkpt lat="45.39330473889246" lon="9.295615074094552"><ele>96.75</ele><time>2026-04-12T08:54:30Z</time></trkpt><trkpt lat="45.39322232215699" lon="9.295493056923704"><ele>96.5</ele><time>2026-04-12T08:54:32Z</time></trkpt><trkpt lat="45.39314133222894" lon="9.295374625138896"><ele>96.25</ele><time>2026-04-12T08:54:34Z</time></trkpt><trkpt lat="45.39306255991904" lon="9.29525687954457"><ele>96.0</ele><time>2026-04-12T08:54:36Z</time></trkpt><trkpt lat="45.39298343494502" lon="9.295143588092738"><ele>96.0</ele><time>2026-04-12T08:54:38Z</time></trkpt><trkpt lat="45.39290385356026" lon="9.295026156905044"><ele>96.0</ele><time>2026-04-12T08:54:40Z</time></trkpt><trkpt lat="45.392813300291735" lon="9.294915528258908"><ele>96.0</ele><time>2026-04-12T08:54:42Z</time></trkpt><trkpt lat="45.39272826452528" lon="9.29479167333849"><ele>96.0</ele><time>2026-04-12T08:54:44Z</time></trkpt><trkpt lat="45.39264479116716" lon="9.294667573063244"><ele>96.25</ele><time>2026-04-12T08:54:46Z</time></trkpt><trkpt lat="45.39255789145505" lon="9.29455148451986"><ele>96.5</ele><time>2026-04-12T08:54:48Z</time></trkpt><trkpt lat="45.39247650549905" lon="9.29442892935328"><ele>96.75</ele><time>2026-04-12T08:54:50Z</time></trkpt><trkpt lat="45.39238847540943" lon="9.294317653679602"><ele>97.0</ele><time>2026-04-12T08:54:52Z</time></trkpt><trkpt lat="45.3923003739864" lon="9.294211343850488"><ele>97.0</ele><time>2026-04-12T08:54:54Z</time></trkpt><trkpt lat="45.39222878812762" lon="9.29408024135572"><ele>97.0</ele><time>2026-04-12T08:54:56Z</time></trkpt><trkpt lat="45.392173459235316" lon="9.293936501884248"><ele>97.0</ele><time>2026-04-12T08:54:58Z</time></trkpt><trkpt lat="45.39210804929132" lon="9.293800662793165"><ele>97.0</ele><time>2026-04-12T08:55:00Z</time></trkpt><trkpt lat="45.39199845894281" lon="9.293717447525573"><ele>96.75</ele><time>2026-04-12T08:55:02Z</time></trkpt><trkpt lat="45.39190514749845" lon="9.293617678703441"><ele>96.5</ele><time>2026-04-12T08:55:04Z</time></trkpt><trkpt lat="45.39181801890317" lon="9.29350876045251"><ele>96.25</ele><time>2026-04-12T08:55:06Z</time></trkpt><trkpt lat="45.391737189980596" lon="9.29338909218296"><ele>96.0</ele><time>2026-04-12T08:55:08Z</time></trkpt><trkpt lat="45.391661847645906" lon="9.293266645125954"><ele>96.0</ele><time>2026-04-12T08:55:10Z</time></trkpt><trkpt lat="45.3915953573147" lon="9.293135227999842"><ele>96.0</ele><time>2026-04-12T08:55:12Z</time></trkpt><trkpt lat="45.39152547573688" lon="9.293011830396484"><ele>96.0</ele><time>2026-04-12T08:55:14Z</time></trkpt><trkpt lat="45.391446690869984" lon="9.292895525463694"><ele>96.0</ele><time>2026-04-12T08:55:16Z</time></trkpt><trkpt lat="45.391366974768026" lon="9.29278257061971"><ele>96.5</ele><time>2026-04-12T08:55:18Z</time></trkpt><trkpt lat="45.3912881155089" lon="9.292667629733034"><ele>97.0</ele><time>2026-04-12T08:55:20Z</time></trkpt><trkpt lat="45.39120689932961" lon="9.29254772099397"><ele>97.5</ele><time>2026-04-12T08:55:22Z</time></trkpt><trkpt lat="45.39111972624725" lon="9.292423064941417"><ele>98.0</ele><time>2026-04-12T08:55:24Z</time></trkpt><trkpt lat="45.39103592990763" lon="9.292291283674382"><ele>97.83333333333333</ele><time>2026-04-12T08:55:26Z</time></trkpt><trkpt lat="45.390951785317924" lon="9.29216462893884"><ele>97.66666666666666</ele><time>2026-04-12T08:55:28Z</time></trkpt><trkpt lat="45.39091183731309" lon="9.292095038089393"><ele>97.5</ele><time>2026-04-12T08:55:29Z</time></trkpt><trkpt lat="45.390825422118056" lon="9.291963898716629"><ele>97.33333333333334</ele><time>2026-04-12T08:55:31Z</time></trkpt><trkpt lat="45.39077926060142" lon="9.291900357874159"><ele>97.16666666666667</ele><time>2026-04-12T08:55:32Z</time></trkpt><trkpt lat="45.3907340489575" lon="9.291835514097636"><ele>97.0</ele><time>2026-04-12T08:55:33Z</time></trkpt><trkpt lat="45.39069037808774" lon="9.291769080058828"><ele>97.00000000000001</ele><time>2026-04-12T08:55:34Z</time></trkpt><trkpt lat="45.390645815376196" lon="9.291705048763143"><ele>97.0</ele><time>2026-04-12T08:55:35Z</time></trkpt><trkpt lat="45.39060014231308" lon="9.291641074231995"><ele>97.0</ele><time>2026-04-12T08:55:36Z</time></trkpt><trkpt lat="45.39055410149337" lon="9.291578954673405"><ele>97.0</ele><time>2026-04-12T08:55:37Z</time></trkpt><trkpt lat="45.39049773464573" lon="9.291514876793098"><ele>97.00000000000001</ele><time>2026-04-12T08:55:38Z</time></trkpt><trkpt lat="45.39042450055235" lon="9.291391752825293"><ele>97.0</ele><time>2026-04-12T08:55:40Z</time></trkpt><trkpt lat="45.39035102962892" lon="9.291258634336756"><ele>97.19999999999999</ele><time>2026-04-12T08:55:42Z</time></trkpt><trkpt lat="45.390372650682636" lon="9.291169465993478"><ele>97.4</ele><time>2026-04-12T08:55:43Z</time></trkpt><trkpt lat="45.39040807943902" lon="9.291092198086044"><ele>97.6</ele><time>2026-04-12T08:55:44Z</time></trkpt><trkpt lat="45.39048379125454" lon="9.290952297481578"><ele>97.80000000000001</ele><time>2026-04-12T08:55:46Z</time></trkpt><trkpt lat="45.39057049382301" lon="9.290821425321782"><ele>98.0</ele><time>2026-04-12T08:55:48Z</time></trkpt><trkpt lat="45.39065477872288" lon="9.290689353961245"><ele>97.2</ele><time>2026-04-12T08:55:50Z</time></trkpt><trkpt lat="45.390733557391066" lon="9.290549822156107"><ele>96.4</ele><time>2026-04-12T08:55:52Z</time></trkpt><trkpt lat="45.390769649297575" lon="9.29047594425493"><ele>95.60000000000001</ele><time>2026-04-12T08:55:53Z</time></trkpt><trkpt lat="45.390815888053716" lon="9.290312889116299"><ele>94.80000000000001</ele><time>2026-04-12T08:55:55Z</time></trkpt><trkpt lat="45.390859077113944" lon="9.290155475340342"><ele>94.0</ele><time>2026-04-12T08:55:57Z</time></trkpt><trkpt lat="45.39090119115116" lon="9.290087919135246"><ele>94.0</ele><time>2026-04-12T08:55:58Z</time></trkpt><trkpt lat="45.390973914240874" lon="9.289947013540452"><ele>94.0</ele><time>2026-04-12T08:56:00Z</time></trkpt><trkpt lat="45.39103289682823" lon="9.289795683117722"><ele>94.0</ele><time>2026-04-12T08:56:02Z</time></trkpt><trkpt lat="45.3910933576155" lon="9.289642252193032"><ele>94.0</ele><time>2026-04-12T08:56:04Z</time></trkpt><trkpt lat="45.39116340609358" lon="9.289504595192794"><ele>94.5</ele><time>2026-04-12T08:56:06Z</time></trkpt><trkpt lat="45.39124011368507" lon="9.289379143329377"><ele>95.0</ele><time>2026-04-12T08:56:08Z</time></trkpt><trkpt lat="45.39131556552254" lon="9.289259323653743"><ele>95.5</ele><time>2026-04-12T08:56:10Z</time></trkpt><trkpt lat="45.39132165139101" lon="9.289092534158309"><ele>96.0</ele><time>2026-04-12T08:56:12Z</time></trkpt><trkpt lat="45.39128237492567" lon="9.288952110993646"><ele>96.19999999999999</ele><time>2026-04-12T08:56:14Z</time></trkpt><trkpt lat="45.39119159293747" lon="9.288856655869472"><ele>96.39999999999999</ele><time>2026-04-12T08:56:16Z</time></trkpt><trkpt lat="45.39113453577766" lon="9.288744406062314"><ele>96.6</ele><time>2026-04-12T08:56:18Z</time></trkpt><trkpt lat="45.39116150804343" lon="9.288646330933151"><ele>96.8</ele><time>2026-04-12T08:56:20Z</time></trkpt><trkpt lat="45.39124854741256" lon="9.288582943749853"><ele>97.0</ele><time>2026-04-12T08:56:22Z</time></trkpt><trkpt lat="45.391322351062634" lon="9.28848839633058"><ele>97.00000000000001</ele><time>2026-04-12T08:56:24Z</time></trkpt><trkpt lat="45.3913952256123" lon="9.288398809872655"><ele>97.0</ele><time>2026-04-12T08:56:26Z</time></trkpt><trkpt lat="45.39147212869472" lon="9.28831537022596"><ele>97.0</ele><time>2026-04-12T08:56:28Z</time></trkpt><trkpt lat="45.3915379887299" lon="9.288250696635936"><ele>97.0</ele><time>2026-04-12T08:56:30Z</time></trkpt><trkpt lat="45.39159066395402" lon="9.288190631870494"><ele>97.00000000000001</ele><time>2026-04-12T08:56:32Z</time></trkpt><trkpt lat="45.39164399505744" lon="9.28812090605778"><ele>97.0</ele><time>2026-04-12T08:56:34Z</time></trkpt><trkpt lat="45.39168744630925" lon="9.288052091087685"><ele>97.0</ele><time>2026-04-12T08:56:36Z</time></trkpt><trkpt lat="45.39171540875405" lon="9.287964133541019"><ele>97.0</ele><time>2026-04-12T08:56:38Z</time></trkpt><trkpt lat="45.3917692404362" lon="9.287885188936226"><ele>97.0</ele><time>2026-04-12T08:56:40Z</time></trkpt><trkpt lat="45.39184147244973" lon="9.287796485898173"><ele>97.0</ele><time>2026-04-12T08:56:42Z</time></trkpt><trkpt lat="45.39191452963801" lon="9.287689932634088"><ele>97.0</ele><time>2026-04-12T08:56:44Z</time></trkpt><trkpt lat="45.39198280308816" lon="9.287572465022949"><ele>97.0</ele><time>2026-04-12T08:56:46Z</time></trkpt><trkpt lat="45.392064087417026" lon="9.287460786029484"><ele>97.0</ele><time>2026-04-12T08:56:48Z</time></trkpt><trkpt lat="45.392131068195106" lon="9.28731443009023"><ele>97.0</ele><time>2026-04-12T08:56:50Z</time></trkpt><trkpt lat="45.39217940928548" lon="9.287164776917212"><ele>97.0</ele><time>2026-04-12T08:56:52Z</time></trkpt><trkpt lat="45.39213359866878" lon="9.28700743772517"><ele>96.8</ele><time>2026-04-12T08:56:54Z</time></trkpt><trkpt lat="45.392092265189035" lon="9.286873385496818"><ele>96.6</ele><time>2026-04-12T08:56:56Z</time></trkpt><trkpt lat="45.39202019561065" lon="9.286736766009625"><ele>96.39999999999999</ele><time>2026-04-12T08:56:58Z</time></trkpt><trkpt lat="45.3919767837667" lon="9.286590564084916"><ele>96.19999999999999</ele><time>2026-04-12T08:57:00Z</time></trkpt><trkpt lat="45.39195783431768" lon="9.28645128415078"><ele>96.0</ele><time>2026-04-12T08:57:02Z</time></trkpt><trkpt lat="45.39188823241427" lon="9.286431673779497"><ele>96.0</ele><time>2026-04-12T08:57:04Z</time></trkpt><trkpt lat="45.39184420033672" lon="9.286510807149032"><ele>96.0</ele><time>2026-04-12T08:57:07Z</time></trkpt><trkpt lat="45.391789168985376" lon="9.286573138614"><ele>96.0</ele><time>2026-04-12T08:57:09Z</time></trkpt><trkpt lat="45.391739424993105" lon="9.28648694480548"><ele>96.0</ele><time>2026-04-12T08:57:11Z</time></trkpt><trkpt lat="45.39167064859606" lon="9.286368684721237"><ele>96.0</ele><time>2026-04-12T08:57:13Z</time></trkpt><trkpt lat="45.39157686305243" lon="9.286251588313677"><ele>95.83333333333333</ele><time>2026-04-12T08:57:15Z</time></trkpt><trkpt lat="45.39152611558546" lon="9.286186654209647"><ele>95.66666666666667</ele><time>2026-04-12T08:57:16Z</time></trkpt><trkpt lat="45.39147395193583" lon="9.286121353716549"><ele>95.5</ele><time>2026-04-12T08:57:17Z</time></trkpt><trkpt lat="45.39138927190722" lon="9.285983148296244"><ele>95.33333333333334</ele><time>2026-04-12T08:57:19Z</time></trkpt><trkpt lat="45.39134348232288" lon="9.28592056486966"><ele>95.16666666666667</ele><time>2026-04-12T08:57:20Z</time></trkpt><trkpt lat="45.391297175134696" lon="9.285858347668288"><ele>95.0</ele><time>2026-04-12T08:57:21Z</time></trkpt><trkpt lat="45.391250391451244" lon="9.285795481479692"><ele>95.0</ele><time>2026-04-12T08:57:22Z</time></trkpt><trkpt lat="45.39117545487301" lon="9.285704056360947"><ele>95.0</ele><time>2026-04-12T08:57:24Z</time></trkpt><trkpt lat="45.39110524681724" lon="9.285608852947448"><ele>95.0</ele><time>2026-04-12T08:57:26Z</time></trkpt><trkpt lat="45.391041008514414" lon="9.28552659442172"><ele>95.0</ele><time>2026-04-12T08:57:28Z</time></trkpt><trkpt lat="45.39096934070585" lon="9.28544220604851"><ele>95.0</ele><time>2026-04-12T08:57:30Z</time></trkpt><trkpt lat="45.39089748221737" lon="9.285344340819314"><ele>95.0</ele><time>2026-04-12T08:57:32Z</time></trkpt><trkpt lat="45.39081311098736" lon="9.285254787643135"><ele>95.0</ele><time>2026-04-12T08:57:34Z</time></trkpt><trkpt lat="45.390713062893354" lon="9.285199606195297"><ele>95.0</ele><time>2026-04-12T08:57:36Z</time></trkpt><trkpt lat="45.39063618119698" lon="9.28507646328455"><ele>95.0</ele><time>2026-04-12T08:57:38Z</time></trkpt><trkpt lat="45.39055691135469" lon="9.284970457999218"><ele>95.0</ele><time>2026-04-12T08:57:40Z</time></trkpt><trkpt lat="45.39048240355668" lon="9.284853245710025"><ele>95.0</ele><time>2026-04-12T08:57:42Z</time></trkpt><trkpt lat="45.390394777990394" lon="9.284754243219318"><ele>95.0</ele><time>2026-04-12T08:57:44Z</time></trkpt><trkpt lat="45.390311998360886" lon="9.284655490420045"><ele>95.0</ele><time>2026-04-12T08:57:46Z</time></trkpt><trkpt lat="45.3902391760006" lon="9.284550969219762"><ele>95.0</ele><time>2026-04-12T08:57:48Z</time></trkpt><trkpt lat="45.39016537324089" lon="9.284454596194953"><ele>95.0</ele><time>2026-04-12T08:57:50Z</time></trkpt><trkpt lat="45.39008980533426" lon="9.284361159090686"><ele>95.0</ele><time>2026-04-12T08:57:52Z</time></trkpt><trkpt lat="45.390031452325" lon="9.284258253956935"><ele>95.0</ele><time>2026-04-12T08:57:54Z</time></trkpt><trkpt lat="45.389954305752084" lon="9.284166450687655"><ele>95.0</ele><time>2026-04-12T08:57:56Z</time></trkpt><trkpt lat="45.38988520492019" lon="9.28407494874992"><ele>95.0</ele><time>2026-04-12T08:57:58Z</time></trkpt><trkpt lat="45.389828117927685" lon="9.283975766270672"><ele>95.0</ele><time>2026-04-12T08:58:00Z</time></trkpt><trkpt lat="45.3897733444126" lon="9.28387492396846"><ele>95.0</ele><time>2026-04-12T08:58:02Z</time></trkpt><trkpt lat="45.38970677883362" lon="9.283793252570584"><ele>95.0</ele><time>2026-04-12T08:58:04Z</time></trkpt><trkpt lat="45.389637254524665" lon="9.283699343997148"><ele>95.0</ele><time>2026-04-12T08:58:06Z</time></trkpt><trkpt lat="45.389560774329205" lon="9.28361216661812"><ele>95.0</ele><time>2026-04-12T08:58:08Z</time></trkpt><trkpt lat="45.38948410702765" lon="9.28351725944222"><ele>95.0</ele><time>2026-04-12T08:58:10Z</time></trkpt><trkpt lat="45.389408930921796" lon="9.283416640495437"><ele>95.0</ele><time>2026-04-12T08:58:12Z</time></trkpt><trkpt lat="45.389333533976405" lon="9.283318231374567"><ele>95.0</ele><time>2026-04-12T08:58:14Z</time></trkpt><trkpt lat="45.389261097058146" lon="9.28322639204191"><ele>95.0</ele><time>2026-04-12T08:58:16Z</time></trkpt><trkpt lat="45.38918844597057" lon="9.283131953440934"><ele>95.0</ele><time>2026-04-12T08:58:18Z</time></trkpt><trkpt lat="45.38911861735921" lon="9.28304112118741"><ele>95.0</ele><time>2026-04-12T08:58:20Z</time></trkpt><trkpt lat="45.38904145063502" lon="9.282944398039449"><ele>94.8</ele><time>2026-04-12T08:58:22Z</time></trkpt><trkpt lat="45.38897940559151" lon="9.28286612698227"><ele>94.6</ele><time>2026-04-12T08:58:24Z</time></trkpt><trkpt lat="45.388907723057365" lon="9.282773158533166"><ele>94.4</ele><time>2026-04-12T08:58:26Z</time></trkpt><trkpt lat="45.38883839563991" lon="9.282683437379537"><ele>94.2</ele><time>2026-04-12T08:58:28Z</time></trkpt><trkpt lat="45.38876924999315" lon="9.282593699988924"><ele>94.0</ele><time>2026-04-12T08:58:30Z</time></trkpt><trkpt lat="45.38870012059188" lon="9.282508604628498"><ele>94.0</ele><time>2026-04-12T08:58:32Z</time></trkpt><trkpt lat="45.38862627723063" lon="9.282419691457639"><ele>94.0</ele><time>2026-04-12T08:58:34Z</time></trkpt><trkpt lat="45.38855749734383" lon="9.282316928801716"><ele>94.0</ele><time>2026-04-12T08:58:36Z</time></trkpt><trkpt lat="45.38848812527866" lon="9.282220148456446"><ele>94.0</ele><time>2026-04-12T08:58:38Z</time></trkpt><trkpt lat="45.38840410632182" lon="9.282115827780148"><ele>94.0</ele><time>2026-04-12T08:58:40Z</time></trkpt><trkpt lat="45.38834300208446" lon="9.282032349180215"><ele>94.0</ele><time>2026-04-12T08:58:42Z</time></trkpt><trkpt lat="45.38826567263251" lon="9.281934204741852"><ele>94.0</ele><time>2026-04-12T08:58:44Z</time></trkpt><trkpt lat="45.38820480342125" lon="9.281854017218011"><ele>94.0</ele><time>2026-04-12T08:58:46Z</time></trkpt><trkpt lat="45.38812470377513" lon="9.281748015421783"><ele>94.0</ele><time>2026-04-12T08:58:48Z</time></trkpt><trkpt lat="45.388048209239514" lon="9.281649287937139"><ele>94.0</ele><time>2026-04-12T08:58:50Z</time></trkpt><trkpt lat="45.38798567914212" lon="9.281550919218255"><ele>94.0</ele><time>2026-04-12T08:58:52Z</time></trkpt><trkpt lat="45.387904517011286" lon="9.281442572136731"><ele>94.0</ele><time>2026-04-12T08:58:54Z</time></trkpt><trkpt lat="45.38782772246003" lon="9.281346814326348"><ele>94.0</ele><time>2026-04-12T08:58:56Z</time></trkpt><trkpt lat="45.38775396398749" lon="9.281246715579305"><ele>94.0</ele><time>2026-04-12T08:58:58Z</time></trkpt><trkpt lat="45.38767903444263" lon="9.28114944644975"><ele>94.0</ele><time>2026-04-12T08:59:00Z</time></trkpt><trkpt lat="45.3876076447914" lon="9.281048648983964"><ele>93.80000000000001</ele><time>2026-04-12T08:59:02Z</time></trkpt><trkpt lat="45.38753472675369" lon="9.280955007859585"><ele>93.60000000000001</ele><time>2026-04-12T08:59:04Z</time></trkpt><trkpt lat="45.38746276703579" lon="9.28085354189105"><ele>93.4</ele><time>2026-04-12T08:59:06Z</time></trkpt><trkpt lat="45.38739056738259" lon="9.280757721510547"><ele>93.2</ele><time>2026-04-12T08:59:08Z</time></trkpt><trkpt lat="45.38731795072518" lon="9.28066014487145"><ele>93.0</ele><time>2026-04-12T08:59:10Z</time></trkpt><trkpt lat="45.38724371500685" lon="9.280573762668519"><ele>93.16666666666667</ele><time>2026-04-12T08:59:12Z</time></trkpt><trkpt lat="45.38717769015263" lon="9.280489462292527"><ele>93.33333333333333</ele><time>2026-04-12T08:59:14Z</time></trkpt><trkpt lat="45.387116157743364" lon="9.280403072701697"><ele>93.5</ele><time>2026-04-12T08:59:16Z</time></trkpt><trkpt lat="45.38704739427982" lon="9.280322595090254"><ele>93.66666666666666</ele><time>2026-04-12T08:59:18Z</time></trkpt><trkpt lat="45.38698112072074" lon="9.280234533673257"><ele>93.83333333333333</ele><time>2026-04-12T08:59:20Z</time></trkpt><trkpt lat="45.3869123005706" lon="9.280141823897976"><ele>94.0</ele><time>2026-04-12T08:59:22Z</time></trkpt><trkpt lat="45.38683974700531" lon="9.280053787329189"><ele>94.0</ele><time>2026-04-12T08:59:24Z</time></trkpt><trkpt lat="45.38677501535263" lon="9.279963181768357"><ele>94.0</ele><time>2026-04-12T08:59:26Z</time></trkpt><trkpt lat="45.38670376962772" lon="9.279869908991154"><ele>94.0</ele><time>2026-04-12T08:59:28Z</time></trkpt><trkpt lat="45.3866376053142" lon="9.27978187782306"><ele>94.0</ele><time>2026-04-12T08:59:30Z</time></trkpt><trkpt lat="45.386569125168414" lon="9.27969317602062"><ele>94.0</ele><time>2026-04-12T08:59:32Z</time></trkpt><trkpt lat="45.386506574265454" lon="9.279608298326632"><ele>93.66666666666666</ele><time>2026-04-12T08:59:34Z</time></trkpt><trkpt lat="45.38644225022665" lon="9.27952189957341"><ele>93.33333333333333</ele><time>2026-04-12T08:59:36Z</time></trkpt><trkpt lat="45.38637782920923" lon="9.27943933651376"><ele>93.0</ele><time>2026-04-12T08:59:38Z</time></trkpt><trkpt lat="45.38632086224759" lon="9.27937080858911"><ele>92.66666666666667</ele><time>2026-04-12T08:59:40Z</time></trkpt><trkpt lat="45.38625295712219" lon="9.27929370130711"><ele>92.33333333333334</ele><time>2026-04-12T08:59:42Z</time></trkpt><trkpt lat="45.386187875164794" lon="9.279226250188076"><ele>92.0</ele><time>2026-04-12T08:59:44Z</time></trkpt><trkpt lat="45.386112035849315" lon="9.27915359868791"><ele>92.0</ele><time>2026-04-12T08:59:46Z</time></trkpt><trkpt lat="45.38603401090986" lon="9.27908744078093"><ele>92.0</ele><time>2026-04-12T08:59:48Z</time></trkpt><trkpt lat="45.38596450093859" lon="9.279037090788568"><ele>92.0</ele><time>2026-04-12T08:59:50Z</time></trkpt><trkpt lat="45.38588462772231" lon="9.278986993272852"><ele>92.0</ele><time>2026-04-12T08:59:52Z</time></trkpt><trkpt lat="45.38579615183237" lon="9.278933492953708"><ele>92.0</ele><time>2026-04-12T08:59:54Z</time></trkpt><trkpt lat="45.38572479185569" lon="9.278887955400602"><ele>92.0</ele><time>2026-04-12T08:59:56Z</time></trkpt><trkpt lat="45.38564651686472" lon="9.278843087340945"><ele>92.66666666666667</ele><time>2026-04-12T08:59:58Z</time></trkpt><trkpt lat="45.38558304185539" lon="9.278783918951584"><ele>93.33333333333334</ele><time>2026-04-12T09:00:00Z</time></trkpt><trkpt lat="45.3855745714383" lon="9.278653156726868"><ele>94.0</ele><time>2026-04-12T09:00:02Z</time></trkpt><trkpt lat="45.38557935989903" lon="9.278528053417515"><ele>94.66666666666667</ele><time>2026-04-12T09:00:04Z</time></trkpt><trkpt lat="45.385568978199885" lon="9.27840217566742"><ele>95.33333333333333</ele><time>2026-04-12T09:00:06Z</time></trkpt><trkpt lat="45.3855484103069" lon="9.27828112041289"><ele>96.0</ele><time>2026-04-12T09:00:08Z</time></trkpt><trkpt lat="45.38551804062814" lon="9.278170731503302"><ele>96.33333333333333</ele><time>2026-04-12T09:00:10Z</time></trkpt><trkpt lat="45.38549373093154" lon="9.278061575748843"><ele>96.66666666666666</ele><time>2026-04-12T09:00:12Z</time></trkpt><trkpt lat="45.38545379575356" lon="9.277962290832978"><ele>97.0</ele><time>2026-04-12T09:00:14Z</time></trkpt><trkpt lat="45.38542242788207" lon="9.27785577830828"><ele>97.33333333333333</ele><time>2026-04-12T09:00:16Z</time></trkpt><trkpt lat="45.385395493783804" lon="9.277748665084276"><ele>97.66666666666666</ele><time>2026-04-12T09:00:18Z</time></trkpt><trkpt lat="45.38538312486698" lon="9.277629317096558"><ele>98.0</ele><time>2026-04-12T09:00:20Z</time></trkpt><trkpt lat="45.385365838407324" lon="9.2775099631733"><ele>97.99999999999999</ele><time>2026-04-12T09:00:22Z</time></trkpt><trkpt lat="45.38535922266634" lon="9.277382689020547"><ele>98.0</ele><time>2026-04-12T09:00:24Z</time></trkpt><trkpt lat="45.385357307275854" lon="9.277265965797225"><ele>98.0</ele><time>2026-04-12T09:00:26Z</time></trkpt><trkpt lat="45.38536510797491" lon="9.277149918132169"><ele>98.0</ele><time>2026-04-12T09:00:28Z</time></trkpt><trkpt lat="45.385374766294454" lon="9.277035645275893"><ele>97.99999999999999</ele><time>2026-04-12T09:00:30Z</time></trkpt><trkpt lat="45.38538698749244" lon="9.27692125225577"><ele>98.0</ele><time>2026-04-12T09:00:32Z</time></trkpt><trkpt lat="45.38539575881708" lon="9.276806544336578"><ele>97.99999999999999</ele><time>2026-04-12T09:00:34Z</time></trkpt><trkpt lat="45.385404346488315" lon="9.276689351718453"><ele>98.0</ele><time>2026-04-12T09:00:36Z</time></trkpt><trkpt lat="45.385418374263175" lon="9.276567575213745"><ele>98.0</ele><time>2026-04-12T09:00:38Z</time></trkpt><trkpt lat="45.38542913920031" lon="9.276447599125813"><ele>98.0</ele><time>2026-04-12T09:00:40Z</time></trkpt><trkpt lat="45.38544077213458" lon="9.276328038554643"><ele>97.99999999999999</ele><time>2026-04-12T09:00:42Z</time></trkpt><trkpt lat="45.385454060097516" lon="9.276207770338393"><ele>98.0</ele><time>2026-04-12T09:00:44Z</time></trkpt><trkpt lat="45.38546223082636" lon="9.276087122281908"><ele>97.99999999999999</ele><time>2026-04-12T09:00:46Z</time></trkpt><trkpt lat="45.38547479457694" lon="9.275964476171257"><ele>98.0</ele><time>2026-04-12T09:00:48Z</time></trkpt><trkpt lat="45.38549469291474" lon="9.275843989651294"><ele>98.0</ele><time>2026-04-12T09:00:50Z</time></trkpt><trkpt lat="45.385504592704585" lon="9.275717771604379"><ele>98.0</ele><time>2026-04-12T09:00:52Z</time></trkpt><trkpt lat="45.38551341574191" lon="9.275594287233611"><ele>97.99999999999999</ele><time>2026-04-12T09:00:54Z</time></trkpt><trkpt lat="45.38552434382393" lon="9.275468817328871"><ele>98.0</ele><time>2026-04-12T09:00:56Z</time></trkpt><trkpt lat="45.38553382343978" lon="9.275341376672126"><ele>97.4</ele><time>2026-04-12T09:00:58Z</time></trkpt><trkpt lat="45.38553903972898" lon="9.275207014831876"><ele>96.80000000000001</ele><time>2026-04-12T09:01:00Z</time></trkpt><trkpt lat="45.385538010867144" lon="9.275068719616382"><ele>96.2</ele><time>2026-04-12T09:01:02Z</time></trkpt><trkpt lat="45.38553420427947" lon="9.274926004078015"><ele>95.6</ele><time>2026-04-12T09:01:04Z</time></trkpt><trkpt lat="45.38553185001728" lon="9.274782293490112"><ele>95.0</ele><time>2026-04-12T09:01:06Z</time></trkpt><trkpt lat="45.38552454759768" lon="9.274643661112771"><ele>95.0</ele><time>2026-04-12T09:01:08Z</time></trkpt><trkpt lat="45.38551490491808" lon="9.274509887402832"><ele>95.0</ele><time>2026-04-12T09:01:10Z</time></trkpt><trkpt lat="45.38551556249804" lon="9.274381072353055"><ele>95.0</ele><time>2026-04-12T09:01:12Z</time></trkpt><trkpt lat="45.38549911452975" lon="9.274254613734081"><ele>95.0</ele><time>2026-04-12T09:01:14Z</time></trkpt><trkpt lat="45.3854757117872" lon="9.274139000963462"><ele>95.0</ele><time>2026-04-12T09:01:16Z</time></trkpt><trkpt lat="45.3854423693066" lon="9.274017534154197"><ele>95.2</ele><time>2026-04-12T09:01:18Z</time></trkpt><trkpt lat="45.3854066351601" lon="9.27389066470314"><ele>95.4</ele><time>2026-04-12T09:01:20Z</time></trkpt><trkpt lat="45.38535846817408" lon="9.273757358615484"><ele>95.6</ele><time>2026-04-12T09:01:22Z</time></trkpt><trkpt lat="45.385308777660875" lon="9.273635847738277"><ele>95.8</ele><time>2026-04-12T09:01:24Z</time></trkpt><trkpt lat="45.38525761070516" lon="9.273525474630812"><ele>96.0</ele><time>2026-04-12T09:01:26Z</time></trkpt><trkpt lat="45.38519842970103" lon="9.273418514771043"><ele>96.0</ele><time>2026-04-12T09:01:28Z</time></trkpt><trkpt lat="45.385125782169986" lon="9.273329226943986"><ele>96.0</ele><time>2026-04-12T09:01:30Z</time></trkpt><trkpt lat="45.385046557764255" lon="9.273239749683087"><ele>96.0</ele><time>2026-04-12T09:01:32Z</time></trkpt><trkpt lat="45.38496883288034" lon="9.27315440318423"><ele>96.0</ele><time>2026-04-12T09:01:34Z</time></trkpt><trkpt lat="45.3848909069688" lon="9.27307188650315"><ele>96.0</ele><time>2026-04-12T09:01:36Z</time></trkpt><trkpt lat="45.38481374583855" lon="9.272987449160137"><ele>95.8</ele><time>2026-04-12T09:01:38Z</time></trkpt><trkpt lat="45.38473754386938" lon="9.272901137206205"><ele>95.6</ele><time>2026-04-12T09:01:40Z</time></trkpt><trkpt lat="45.38465608847493" lon="9.272828989831698"><ele>95.4</ele><time>2026-04-12T09:01:42Z</time></trkpt><trkpt lat="45.38458104024299" lon="9.272753943128624"><ele>95.2</ele><time>2026-04-12T09:01:44Z</time></trkpt><trkpt lat="45.38450248918718" lon="9.272682656373778"><ele>95.0</ele><time>2026-04-12T09:01:46Z</time></trkpt><trkpt lat="45.38441724338818" lon="9.272630025050905"><ele>95.0</ele><time>2026-04-12T09:01:48Z</time></trkpt><trkpt lat="45.38432837479361" lon="9.272596023959851"><ele>95.0</ele><time>2026-04-12T09:01:50Z</time></trkpt><trkpt lat="45.38424016730432" lon="9.272568749068508"><ele>95.0</ele><time>2026-04-12T09:01:52Z</time></trkpt><trkpt lat="45.384149216115404" lon="9.272531612377765"><ele>95.0</ele><time>2026-04-12T09:01:54Z</time></trkpt><trkpt lat="45.38406328153747" lon="9.27245646842132"><ele>95.0</ele><time>2026-04-12T09:01:56Z</time></trkpt><trkpt lat="45.384035413335" lon="9.272319303757486"><ele>95.2</ele><time>2026-04-12T09:01:58Z</time></trkpt><trkpt lat="45.38405363311752" lon="9.272175298498167"><ele>95.4</ele><time>2026-04-12T09:02:00Z</time></trkpt><trkpt lat="45.38406316955174" lon="9.272039995462896"><ele>95.6</ele><time>2026-04-12T09:02:02Z</time></trkpt><trkpt lat="45.38407217342803" lon="9.271904726895574"><ele>95.8</ele><time>2026-04-12T09:02:04Z</time></trkpt><trkpt lat="45.38408221528156" lon="9.271772100546748"><ele>96.0</ele><time>2026-04-12T09:02:06Z</time></trkpt><trkpt lat="45.38409059230225" lon="9.271637885069161"><ele>96.0</ele><time>2026-04-12T09:02:08Z</time></trkpt><trkpt lat="45.38409842744535" lon="9.27150884656404"><ele>96.0</ele><time>2026-04-12T09:02:10Z</time></trkpt><trkpt lat="45.384106614709054" lon="9.271379794255903"><ele>96.0</ele><time>2026-04-12T09:02:12Z</time></trkpt><trkpt lat="45.38411423654711" lon="9.271249736366217"><ele>96.0</ele><time>2026-04-12T09:02:14Z</time></trkpt><trkpt lat="45.38412106323317" lon="9.271122023725995"><ele>96.0</ele><time>2026-04-12T09:02:16Z</time></trkpt><trkpt lat="45.384125572895904" lon="9.270996553244187"><ele>96.16666666666667</ele><time>2026-04-12T09:02:18Z</time></trkpt><trkpt lat="45.384129890030586" lon="9.270874892658025"><ele>96.33333333333334</ele><time>2026-04-12T09:02:20Z</time></trkpt><trkpt lat="45.38413273707555" lon="9.27075457435566"><ele>96.5</ele><time>2026-04-12T09:02:22Z</time></trkpt><trkpt lat="45.38412860695656" lon="9.270638371888676"><ele>96.66666666666667</ele><time>2026-04-12T09:02:24Z</time></trkpt><trkpt lat="45.38411554349452" lon="9.270523135839303"><ele>96.83333333333334</ele><time>2026-04-12T09:02:26Z</time></trkpt><trkpt lat="45.3840999375374" lon="9.270409399130916"><ele>97.0</ele><time>2026-04-12T09:02:28Z</time></trkpt><trkpt lat="45.38408257020851" lon="9.270313426366014"><ele>97.0</ele><time>2026-04-12T09:02:30Z</time></trkpt><trkpt lat="45.38405355860796" lon="9.270220100005373"><ele>97.0</ele><time>2026-04-12T09:02:32Z</time></trkpt><trkpt lat="45.38401664834392" lon="9.270123557776195"><ele>97.0</ele><time>2026-04-12T09:02:34Z</time></trkpt><trkpt lat="45.383980428982056" lon="9.270034641371575"><ele>97.0</ele><time>2026-04-12T09:02:36Z</time></trkpt><trkpt lat="45.383937955226365" lon="9.269949027011112"><ele>97.0</ele><time>2026-04-12T09:02:38Z</time></trkpt><trkpt lat="45.38389296040053" lon="9.269871550794766"><ele>97.0</ele><time>2026-04-12T09:02:40Z</time></trkpt><trkpt lat="45.38384851332148" lon="9.269784006682347"><ele>97.0</ele><time>2026-04-12T09:02:42Z</time></trkpt><trkpt lat="45.38379943298591" lon="9.269702467252394"><ele>97.00000000000001</ele><time>2026-04-12T09:02:44Z</time></trkpt><trkpt lat="45.38374787894406" lon="9.269616598336592"><ele>97.0</ele><time>2026-04-12T09:02:46Z</time></trkpt><trkpt lat="45.38369116817238" lon="9.26952751597114"><ele>97.0</ele><time>2026-04-12T09:02:48Z</time></trkpt><trkpt lat="45.38363354513395" lon="9.269429564703408"><ele>97.0</ele><time>2026-04-12T09:02:50Z</time></trkpt><trkpt lat="45.38357141939646" lon="9.269328111478353"><ele>97.00000000000001</ele><time>2026-04-12T09:02:52Z</time></trkpt><trkpt lat="45.38350773972867" lon="9.26922224642657"><ele>97.0</ele><time>2026-04-12T09:02:54Z</time></trkpt><trkpt lat="45.383443849984886" lon="9.269110582545514"><ele>97.0</ele><time>2026-04-12T09:02:56Z</time></trkpt><trkpt lat="45.383374540690404" lon="9.268993699610162"><ele>97.0</ele><time>2026-04-12T09:02:58Z</time></trkpt><trkpt lat="45.383298434725724" lon="9.268866384916214"><ele>97.0</ele><time>2026-04-12T09:03:00Z</time></trkpt><trkpt lat="45.38321851021986" lon="9.268728584203904"><ele>97.0</ele><time>2026-04-12T09:03:02Z</time></trkpt><trkpt lat="45.38314195773245" lon="9.2685860711684"><ele>97.14285714285714</ele><time>2026-04-12T09:03:04Z</time></trkpt><trkpt lat="45.38310553443379" lon="9.268508425135057"><ele>97.28571428571429</ele><time>2026-04-12T09:03:05Z</time></trkpt><trkpt lat="45.38307045323655" lon="9.268423890291368"><ele>97.42857142857143</ele><time>2026-04-12T09:03:06Z</time></trkpt><trkpt lat="45.38304105566546" lon="9.268338354596121"><ele>97.57142857142857</ele><time>2026-04-12T09:03:07Z</time></trkpt><trkpt lat="45.38301547336998" lon="9.26824875804977"><ele>97.71428571428572</ele><time>2026-04-12T09:03:08Z</time></trkpt><trkpt lat="45.38299189030535" lon="9.268158105008805"><ele>97.85714285714286</ele><time>2026-04-12T09:03:09Z</time></trkpt><trkpt lat="45.3829761471996" lon="9.268062046934476"><ele>98.0</ele><time>2026-04-12T09:03:10Z</time></trkpt><trkpt lat="45.38296172624717" lon="9.267962420200762"><ele>98.14285714285714</ele><time>2026-04-12T09:03:11Z</time></trkpt><trkpt lat="45.38295148547439" lon="9.267861788395283"><ele>98.28571428571428</ele><time>2026-04-12T09:03:12Z</time></trkpt><trkpt lat="45.38294423506054" lon="9.26775800151767"><ele>98.42857142857143</ele><time>2026-04-12T09:03:13Z</time></trkpt><trkpt lat="45.382942089740084" lon="9.267652468991429"><ele>98.57142857142857</ele><time>2026-04-12T09:03:14Z</time></trkpt><trkpt lat="45.382947341410784" lon="9.26754585600653"><ele>98.71428571428571</ele><time>2026-04-12T09:03:15Z</time></trkpt><trkpt lat="45.38295430103564" lon="9.267438214573145"><ele>98.85714285714286</ele><time>2026-04-12T09:03:16Z</time></trkpt><trkpt lat="45.38296517958433" lon="9.267329046833211"><ele>99.0</ele><time>2026-04-12T09:03:17Z</time></trkpt><trkpt lat="45.382975035565494" lon="9.267220114761603"><ele>99.33333333333333</ele><time>2026-04-12T09:03:18Z</time></trkpt><trkpt lat="45.3829859265997" lon="9.26710829218716"><ele>99.66666666666666</ele><time>2026-04-12T09:03:19Z</time></trkpt><trkpt lat="45.382997824503136" lon="9.266995582404233"><ele>100.0</ele><time>2026-04-12T09:03:20Z</time></trkpt><trkpt lat="45.38300720055233" lon="9.266885099660234"><ele>100.33333333333333</ele><time>2026-04-12T09:03:21Z</time></trkpt><trkpt lat="45.38301456526641" lon="9.266776563344328"><ele>100.66666666666666</ele><time>2026-04-12T09:03:22Z</time></trkpt><trkpt lat="45.38302297541349" lon="9.266671994982277"><ele>101.0</ele><time>2026-04-12T09:03:23Z</time></trkpt><trkpt lat="45.38303514303549" lon="9.26656491318874"><ele>100.99999999999999</ele><time>2026-04-12T09:03:24Z</time></trkpt><trkpt lat="45.38304571440427" lon="9.266461091653587"><ele>101.0</ele><time>2026-04-12T09:03:25Z</time></trkpt><trkpt lat="45.38305296184283" lon="9.26636084969264"><ele>101.0</ele><time>2026-04-12T09:03:26Z</time></trkpt><trkpt lat="45.383056610139015" lon="9.266258007778081"><ele>101.0</ele><time>2026-04-12T09:03:27Z</time></trkpt><trkpt lat="45.383065092601285" lon="9.266157452978572"><ele>100.99999999999999</ele><time>2026-04-12T09:03:28Z</time></trkpt><trkpt lat="45.3830789123003" lon="9.266063148214146"><ele>101.0</ele><time>2026-04-12T09:03:29Z</time></trkpt><trkpt lat="45.38308041904144" lon="9.265872930629621"><ele>100.71428571428571</ele><time>2026-04-12T09:03:31Z</time></trkpt><trkpt lat="45.38308439125979" lon="9.265773671323627"><ele>100.42857142857142</ele><time>2026-04-12T09:03:32Z</time></trkpt><trkpt lat="45.38309523455834" lon="9.265675222927348"><ele>100.14285714285714</ele><time>2026-04-12T09:03:33Z</time></trkpt><trkpt lat="45.38310290781731" lon="9.265572899589813"><ele>99.85714285714286</ele><time>2026-04-12T09:03:34Z</time></trkpt><trkpt lat="45.3831137065802" lon="9.265468942229075"><ele>99.57142857142857</ele><time>2026-04-12T09:03:35Z</time></trkpt><trkpt lat="45.38312490319419" lon="9.265372526588644"><ele>99.28571428571429</ele><time>2026-04-12T09:03:36Z</time></trkpt><trkpt lat="45.38313416800534" lon="9.265282258064515"><ele>99.0</ele><time>2026-04-12T09:03:37Z</time></trkpt><trkpt lat="45.38315788913798" lon="9.265194220880753"><ele>99.0</ele><time>2026-04-12T09:03:38Z</time></trkpt><trkpt lat="45.38318876847847" lon="9.265105936793491"><ele>99.0</ele><time>2026-04-12T09:03:39Z</time></trkpt><trkpt lat="45.38323599374893" lon="9.265023854289797"><ele>99.0</ele><time>2026-04-12T09:03:40Z</time></trkpt><trkpt lat="45.3832735069716" lon="9.264942921153972"><ele>99.0</ele><time>2026-04-12T09:03:41Z</time></trkpt><trkpt lat="45.383286936555066" lon="9.264836237797363"><ele>99.0</ele><time>2026-04-12T09:03:42Z</time></trkpt><trkpt lat="45.38328134244565" lon="9.264735883872843"><ele>99.0</ele><time>2026-04-12T09:03:43Z</time></trkpt><trkpt lat="45.38326212230507" lon="9.26463740080529"><ele>99.0</ele><time>2026-04-12T09:03:44Z</time></trkpt><trkpt lat="45.38323812200133" lon="9.264547801292364"><ele>99.0</ele><time>2026-04-12T09:03:45Z</time></trkpt><trkpt lat="45.3832214924013" lon="9.264449649188714"><ele>99.0</ele><time>2026-04-12T09:03:46Z</time></trkpt><trkpt lat="45.3832368730958" lon="9.264276500845478"><ele>99.0</ele><time>2026-04-12T09:03:48Z</time></trkpt><trkpt lat="45.38325727680532" lon="9.26411032901692"><ele>99.0</ele><time>2026-04-12T09:03:50Z</time></trkpt><trkpt lat="45.383270800133246" lon="9.263960913499906"><ele>99.0</ele><time>2026-04-12T09:03:52Z</time></trkpt><trkpt lat="45.38327973351861" lon="9.26381251581277"><ele>99.0</ele><time>2026-04-12T09:03:54Z</time></trkpt><trkpt lat="45.38327395504616" lon="9.263665064276841"><ele>99.0</ele><time>2026-04-12T09:03:56Z</time></trkpt><trkpt lat="45.38326109502434" lon="9.263524903802324"><ele>99.0</ele><time>2026-04-12T09:03:58Z</time></trkpt><trkpt lat="45.38323432897876" lon="9.263406047761272"><ele>99.0</ele><time>2026-04-12T09:04:00Z</time></trkpt><trkpt lat="45.38320509143051" lon="9.263279880001177"><ele>99.0</ele><time>2026-04-12T09:04:02Z</time></trkpt><trkpt lat="45.38315811201216" lon="9.26316534098098"><ele>98.80000000000001</ele><time>2026-04-12T09:04:04Z</time></trkpt><trkpt lat="45.38310634951401" lon="9.263059325211877"><ele>98.60000000000001</ele><time>2026-04-12T09:04:06Z</time></trkpt><trkpt lat="45.38304020937992" lon="9.262957223945081"><ele>98.4</ele><time>2026-04-12T09:04:08Z</time></trkpt><trkpt lat="45.382967414191874" lon="9.262871499066685"><ele>98.2</ele><time>2026-04-12T09:04:10Z</time></trkpt><trkpt lat="45.38288369241393" lon="9.262798731443675"><ele>98.0</ele><time>2026-04-12T09:04:12Z</time></trkpt><trkpt lat="45.38279716282277" lon="9.262744184623992"><ele>98.0</ele><time>2026-04-12T09:04:14Z</time></trkpt><trkpt lat="45.3827018754016" lon="9.262704660501488"><ele>98.0</ele><time>2026-04-12T09:04:16Z</time></trkpt><trkpt lat="45.38260622741158" lon="9.262677945089873"><ele>98.0</ele><time>2026-04-12T09:04:18Z</time></trkpt><trkpt lat="45.3825074160732" lon="9.262656155773236"><ele>98.0</ele><time>2026-04-12T09:04:20Z</time></trkpt><trkpt lat="45.382408690834446" lon="9.262627288193263"><ele>98.0</ele><time>2026-04-12T09:04:22Z</time></trkpt><trkpt lat="45.38230703819553" lon="9.262603718863252"><ele>98.0</ele><time>2026-04-12T09:04:24Z</time></trkpt><trkpt lat="45.38220058142487" lon="9.262577399424439"><ele>98.0</ele><time>2026-04-12T09:04:26Z</time></trkpt><trkpt lat="45.3820923843152" lon="9.262551915150265"><ele>98.0</ele><time>2026-04-12T09:04:28Z</time></trkpt><trkpt lat="45.381983902095726" lon="9.262524411020038"><ele>98.0</ele><time>2026-04-12T09:04:30Z</time></trkpt><trkpt lat="45.3818750773896" lon="9.262500783638252"><ele>98.0</ele><time>2026-04-12T09:04:32Z</time></trkpt><trkpt lat="45.381765639142344" lon="9.262471907567917"><ele>97.75</ele><time>2026-04-12T09:04:34Z</time></trkpt><trkpt lat="45.381656684812334" lon="9.2624424860928"><ele>97.5</ele><time>2026-04-12T09:04:36Z</time></trkpt><trkpt lat="45.381540721865726" lon="9.262405675082096"><ele>97.25</ele><time>2026-04-12T09:04:38Z</time></trkpt><trkpt lat="45.38141899186176" lon="9.262371883424988"><ele>97.0</ele><time>2026-04-12T09:04:40Z</time></trkpt><trkpt lat="45.38129461956391" lon="9.26233878619424"><ele>97.0</ele><time>2026-04-12T09:04:42Z</time></trkpt><trkpt lat="45.38123204558424" lon="9.262327503287171"><ele>97.0</ele><time>2026-04-12T09:04:43Z</time></trkpt><trkpt lat="45.38116799971899" lon="9.262305114534392"><ele>97.0</ele><time>2026-04-12T09:04:44Z</time></trkpt><trkpt lat="45.381100643052385" lon="9.26228459840557"><ele>97.0</ele><time>2026-04-12T09:04:45Z</time></trkpt><trkpt lat="45.38103210450414" lon="9.262267898730801"><ele>97.0</ele><time>2026-04-12T09:04:46Z</time></trkpt><trkpt lat="45.38095899273829" lon="9.262249872270493"><ele>97.0</ele><time>2026-04-12T09:04:47Z</time></trkpt><trkpt lat="45.38088279126284" lon="9.262233221685793"><ele>97.0</ele><time>2026-04-12T09:04:48Z</time></trkpt><trkpt lat="45.38080907393461" lon="9.26221436680369"><ele>97.00000000000001</ele><time>2026-04-12T09:04:49Z</time></trkpt><trkpt lat="45.38073072074692" lon="9.26219194919398"><ele>97.0</ele><time>2026-04-12T09:04:50Z</time></trkpt><trkpt lat="45.380649449123375" lon="9.262169814953612"><ele>97.0</ele><time>2026-04-12T09:04:51Z</time></trkpt><trkpt lat="45.380566146769155" lon="9.26215033336046"><ele>97.0</ele><time>2026-04-12T09:04:52Z</time></trkpt><trkpt lat="45.38048253402174" lon="9.262127654659203"><ele>97.00000000000001</ele><time>2026-04-12T09:04:53Z</time></trkpt><trkpt lat="45.38039704099086" lon="9.262101102949574"><ele>97.0</ele><time>2026-04-12T09:04:54Z</time></trkpt><trkpt lat="45.380308676957846" lon="9.26207735613978"><ele>96.6</ele><time>2026-04-12T09:04:55Z</time></trkpt><trkpt lat="45.3802187985716" lon="9.26205537407001"><ele>96.19999999999999</ele><time>2026-04-12T09:04:56Z</time></trkpt><trkpt lat="45.38012738155615" lon="9.262031570696633"><ele>95.8</ele><time>2026-04-12T09:04:57Z</time></trkpt><trkpt lat="45.38003654499628" lon="9.26200789203213"><ele>95.4</ele><time>2026-04-12T09:04:58Z</time></trkpt><trkpt lat="45.37994473597475" lon="9.261984972800555"><ele>95.0</ele><time>2026-04-12T09:04:59Z</time></trkpt><trkpt lat="45.3798525626153" lon="9.261959335252598"><ele>95.0</ele><time>2026-04-12T09:05:00Z</time></trkpt><trkpt lat="45.37976208770932" lon="9.261933890529871"><ele>95.0</ele><time>2026-04-12T09:05:01Z</time></trkpt><trkpt lat="45.37967147389223" lon="9.26191119207269"><ele>95.0</ele><time>2026-04-12T09:05:02Z</time></trkpt><trkpt lat="45.37958585917767" lon="9.261881593546715"><ele>95.0</ele><time>2026-04-12T09:05:03Z</time></trkpt><trkpt lat="45.3795073383297" lon="9.261847793575853"><ele>95.0</ele><time>2026-04-12T09:05:04Z</time></trkpt><trkpt lat="45.37944231148417" lon="9.261821190226565"><ele>95.0</ele><time>2026-04-12T09:05:05Z</time></trkpt><trkpt lat="45.3793468801839" lon="9.261774605724995"><ele>95.0</ele><time>2026-04-12T09:05:07Z</time></trkpt><trkpt lat="45.37928350704117" lon="9.261732194743736"><ele>95.0</ele><time>2026-04-12T09:05:09Z</time></trkpt><trkpt lat="45.37922943234941" lon="9.261818515501009"><ele>95.0</ele><time>2026-04-12T09:05:29Z</time></trkpt><trkpt lat="45.37919352697818" lon="9.261954566905107"><ele>95.0</ele><time>2026-04-12T09:05:32Z</time></trkpt><trkpt lat="45.37916282213033" lon="9.26208951802283"><ele>95.0</ele><time>2026-04-12T09:05:34Z</time></trkpt><trkpt lat="45.37910766524307" lon="9.262205181823475"><ele>95.0</ele><time>2026-04-12T09:05:36Z</time></trkpt><trkpt lat="45.37904408689502" lon="9.262159089356697"><ele>95.0</ele><time>2026-04-12T09:05:38Z</time></trkpt><trkpt lat="45.37900183950432" lon="9.262042470722918"><ele>95.0</ele><time>2026-04-12T09:05:40Z</time></trkpt><trkpt lat="45.37893367921449" lon="9.261944230009918"><ele>95.0</ele><time>2026-04-12T09:05:42Z</time></trkpt><trkpt lat="45.378857763437246" lon="9.261849478791694"><ele>95.0</ele><time>2026-04-12T09:05:44Z</time></trkpt><trkpt lat="45.37878291652284" lon="9.261748432227822"><ele>95.2</ele><time>2026-04-12T09:05:46Z</time></trkpt><trkpt lat="45.37870501767542" lon="9.261649334722959"><ele>95.4</ele><time>2026-04-12T09:05:48Z</time></trkpt><trkpt lat="45.37862278895968" lon="9.261551867149448"><ele>95.6</ele><time>2026-04-12T09:05:50Z</time></trkpt><trkpt lat="45.37854361072299" lon="9.261449573570241"><ele>95.8</ele><time>2026-04-12T09:05:52Z</time></trkpt><trkpt lat="45.378466091441254" lon="9.261343509831324"><ele>96.0</ele><time>2026-04-12T09:05:54Z</time></trkpt><trkpt lat="45.37838845711515" lon="9.26123845991953"><ele>96.0</ele><time>2026-04-12T09:05:56Z</time></trkpt><trkpt lat="45.378315018249154" lon="9.26112426917896"><ele>96.0</ele><time>2026-04-12T09:05:58Z</time></trkpt><trkpt lat="45.378246987758764" lon="9.261008411179622"><ele>96.0</ele><time>2026-04-12T09:06:00Z</time></trkpt><trkpt lat="45.37818394471936" lon="9.260888197585423"><ele>96.0</ele><time>2026-04-12T09:06:02Z</time></trkpt><trkpt lat="45.378108106055066" lon="9.26077282780175"><ele>96.0</ele><time>2026-04-12T09:06:04Z</time></trkpt><trkpt lat="45.378024069793014" lon="9.260658737511626"><ele>96.0</ele><time>2026-04-12T09:06:06Z</time></trkpt><trkpt lat="45.37794273943303" lon="9.260540017052847"><ele>96.0</ele><time>2026-04-12T09:06:08Z</time></trkpt><trkpt lat="45.37786659179286" lon="9.260412841137018"><ele>96.0</ele><time>2026-04-12T09:06:10Z</time></trkpt><trkpt lat="45.37778747415879" lon="9.260285927852605"><ele>96.0</ele><time>2026-04-12T09:06:12Z</time></trkpt><trkpt lat="45.37770820671313" lon="9.260162879726375"><ele>96.0</ele><time>2026-04-12T09:06:14Z</time></trkpt><trkpt lat="45.37763009608022" lon="9.260035605074187"><ele>96.0</ele><time>2026-04-12T09:06:16Z</time></trkpt><trkpt lat="45.377551441333374" lon="9.259906704875542"><ele>96.0</ele><time>2026-04-12T09:06:18Z</time></trkpt><trkpt lat="45.37747371038112" lon="9.259782790881395"><ele>96.0</ele><time>2026-04-12T09:06:20Z</time></trkpt><trkpt lat="45.37739802287807" lon="9.259654268494794"><ele>96.0</ele><time>2026-04-12T09:06:22Z</time></trkpt><trkpt lat="45.37731580544636" lon="9.259533516921108"><ele>96.0</ele><time>2026-04-12T09:06:24Z</time></trkpt><trkpt lat="45.377226936692935" lon="9.259418919445235"><ele>96.0</ele><time>2026-04-12T09:06:26Z</time></trkpt><trkpt lat="45.37714075477758" lon="9.25929917701366"><ele>96.0</ele><time>2026-04-12T09:06:28Z</time></trkpt><trkpt lat="45.37704864030487" lon="9.259184382060512"><ele>96.0</ele><time>2026-04-12T09:06:30Z</time></trkpt><trkpt lat="45.37695228861356" lon="9.259082601871368"><ele>96.0</ele><time>2026-04-12T09:06:32Z</time></trkpt><trkpt lat="45.37685022583291" lon="9.25898954287218"><ele>96.0</ele><time>2026-04-12T09:06:34Z</time></trkpt><trkpt lat="45.37675207346966" lon="9.258886150606248"><ele>96.0</ele><time>2026-04-12T09:06:36Z</time></trkpt><trkpt lat="45.376649403641686" lon="9.258784952701347"><ele>95.83333333333333</ele><time>2026-04-12T09:06:38Z</time></trkpt><trkpt lat="45.376534205388346" lon="9.258721226702368"><ele>95.66666666666667</ele><time>2026-04-12T09:06:40Z</time></trkpt><trkpt lat="45.37647159065632" lon="9.25870811374924"><ele>95.5</ele><time>2026-04-12T09:06:41Z</time></trkpt><trkpt lat="45.376347875024834" lon="9.258691807349662"><ele>95.33333333333334</ele><time>2026-04-12T09:06:43Z</time></trkpt><trkpt lat="45.376283875874556" lon="9.258681813113142"><ele>95.16666666666667</ele><time>2026-04-12T09:06:44Z</time></trkpt><trkpt lat="45.37621977197344" lon="9.258673081875301"><ele>95.0</ele><time>2026-04-12T09:06:45Z</time></trkpt><trkpt lat="45.376155349900785" lon="9.258665296043336"><ele>95.28571428571429</ele><time>2026-04-12T09:06:46Z</time></trkpt><trkpt lat="45.376089927191195" lon="9.258661053397445"><ele>95.57142857142858</ele><time>2026-04-12T09:06:47Z</time></trkpt><trkpt lat="45.37602378502357" lon="9.258659593507927"><ele>95.85714285714286</ele><time>2026-04-12T09:06:48Z</time></trkpt><trkpt lat="45.375958232572316" lon="9.258661302462404"><ele>96.14285714285714</ele><time>2026-04-12T09:06:49Z</time></trkpt><trkpt lat="45.3758912054668" lon="9.258668576906611"><ele>96.42857142857143</ele><time>2026-04-12T09:06:50Z</time></trkpt><trkpt lat="45.37582318525671" lon="9.258671238173418"><ele>96.71428571428571</ele><time>2026-04-12T09:06:51Z</time></trkpt><trkpt lat="45.37575621329949" lon="9.258668016270459"><ele>97.0</ele><time>2026-04-12T09:06:52Z</time></trkpt><trkpt lat="45.37568847323418" lon="9.258664790951093"><ele>97.00000000000001</ele><time>2026-04-12T09:06:53Z</time></trkpt><trkpt lat="45.37562130000576" lon="9.258657966794857"><ele>97.0</ele><time>2026-04-12T09:06:54Z</time></trkpt><trkpt lat="45.37555357559783" lon="9.258654830523131"><ele>97.0</ele><time>2026-04-12T09:06:55Z</time></trkpt><trkpt lat="45.37542656344814" lon="9.258639808046086"><ele>97.0</ele><time>2026-04-12T09:06:57Z</time></trkpt><trkpt lat="45.3753621680776" lon="9.258639752601308"><ele>97.00000000000001</ele><time>2026-04-12T09:06:58Z</time></trkpt><trkpt lat="45.37529521477197" lon="9.258639746532111"><ele>97.0</ele><time>2026-04-12T09:06:59Z</time></trkpt><trkpt lat="45.375227984075984" lon="9.258638414287748"><ele>96.83333333333334</ele><time>2026-04-12T09:07:00Z</time></trkpt><trkpt lat="45.37515867771998" lon="9.258628039452956"><ele>96.66666666666667</ele><time>2026-04-12T09:07:01Z</time></trkpt><trkpt lat="45.37509330316741" lon="9.258627886880005"><ele>96.5</ele><time>2026-04-12T09:07:02Z</time></trkpt><trkpt lat="45.375028525844144" lon="9.258621641899365"><ele>96.33333333333334</ele><time>2026-04-12T09:07:03Z</time></trkpt><trkpt lat="45.37496097559747" lon="9.258622546742618"><ele>96.16666666666667</ele><time>2026-04-12T09:07:04Z</time></trkpt><trkpt lat="45.374895867153086" lon="9.258621711011434"><ele>96.0</ele><time>2026-04-12T09:07:05Z</time></trkpt><trkpt lat="45.37477063446291" lon="9.258610574296165"><ele>95.66666666666667</ele><time>2026-04-12T09:07:07Z</time></trkpt><trkpt lat="45.374644635730284" lon="9.258598233820422"><ele>95.33333333333333</ele><time>2026-04-12T09:07:09Z</time></trkpt><trkpt lat="45.3745805963247" lon="9.258594087173256"><ele>95.0</ele><time>2026-04-12T09:07:10Z</time></trkpt><trkpt lat="45.37451641467733" lon="9.25859307174843"><ele>94.66666666666666</ele><time>2026-04-12T09:07:11Z</time></trkpt><trkpt lat="45.37445450959265" lon="9.258576231377047"><ele>94.33333333333333</ele><time>2026-04-12T09:07:12Z</time></trkpt><trkpt lat="45.37438459579923" lon="9.258566279382348"><ele>94.0</ele><time>2026-04-12T09:07:13Z</time></trkpt><trkpt lat="45.37426110718741" lon="9.258568258521317"><ele>94.0</ele><time>2026-04-12T09:07:15Z</time></trkpt><trkpt lat="45.37413857415271" lon="9.258562684988041"><ele>94.0</ele><time>2026-04-12T09:07:17Z</time></trkpt><trkpt lat="45.37401252967954" lon="9.258544305922998"><ele>94.0</ele><time>2026-04-12T09:07:19Z</time></trkpt><trkpt lat="45.37389872947403" lon="9.258519056514851"><ele>94.0</ele><time>2026-04-12T09:07:21Z</time></trkpt><trkpt lat="45.37377876240728" lon="9.258509530176148"><ele>94.0</ele><time>2026-04-12T09:07:23Z</time></trkpt><trkpt lat="45.373714711910054" lon="9.25850603417703"><ele>94.0</ele><time>2026-04-12T09:07:24Z</time></trkpt><trkpt lat="45.373591959830186" lon="9.258526549433034"><ele>94.0</ele><time>2026-04-12T09:07:26Z</time></trkpt><trkpt lat="45.373474916054704" lon="9.25854609442504"><ele>94.0</ele><time>2026-04-12T09:07:28Z</time></trkpt><trkpt lat="45.373359640062276" lon="9.258572607473743"><ele>94.0</ele><time>2026-04-12T09:07:30Z</time></trkpt><trkpt lat="45.373247638620676" lon="9.258610941360724"><ele>94.0</ele><time>2026-04-12T09:07:32Z</time></trkpt><trkpt lat="45.37313712976471" lon="9.258649119675484"><ele>94.0</ele><time>2026-04-12T09:07:34Z</time></trkpt><trkpt lat="45.37303618366496" lon="9.258716588520244"><ele>94.0</ele><time>2026-04-12T09:07:36Z</time></trkpt><trkpt lat="45.37293742239895" lon="9.258789539617243"><ele>94.0</ele><time>2026-04-12T09:07:38Z</time></trkpt><trkpt lat="45.372843227577924" lon="9.258866855085037"><ele>94.0</ele><time>2026-04-12T09:07:40Z</time></trkpt><trkpt lat="45.372751230008326" lon="9.25893983130263"><ele>94.4</ele><time>2026-04-12T09:07:42Z</time></trkpt><trkpt lat="45.37266375286268" lon="9.259015813367139"><ele>94.80000000000001</ele><time>2026-04-12T09:07:44Z</time></trkpt><trkpt lat="45.372576915826194" lon="9.259089099224314"><ele>95.19999999999999</ele><time>2026-04-12T09:07:46Z</time></trkpt><trkpt lat="45.372472727218224" lon="9.259085156870682"><ele>95.6</ele><time>2026-04-12T09:07:48Z</time></trkpt><trkpt lat="45.372405521663524" lon="9.258945055873006"><ele>96.0</ele><time>2026-04-12T09:07:50Z</time></trkpt><trkpt lat="45.372357413368974" lon="9.258799817794799"><ele>96.0</ele><time>2026-04-12T09:07:52Z</time></trkpt><trkpt lat="45.37230905065311" lon="9.258654175189704"><ele>96.0</ele><time>2026-04-12T09:07:54Z</time></trkpt><trkpt lat="45.37225719994334" lon="9.25851161552858"><ele>96.0</ele><time>2026-04-12T09:07:56Z</time></trkpt><trkpt lat="45.372198599808414" lon="9.258372995164109"><ele>96.0</ele><time>2026-04-12T09:07:58Z</time></trkpt><trkpt lat="45.372134537910384" lon="9.258242624582206"><ele>95.5</ele><time>2026-04-12T09:08:00Z</time></trkpt><trkpt lat="45.37207291186731" lon="9.258110875844658"><ele>95.0</ele><time>2026-04-12T09:08:02Z</time></trkpt><trkpt lat="45.37200893280792" lon="9.257978111334582"><ele>94.5</ele><time>2026-04-12T09:08:04Z</time></trkpt><trkpt lat="45.3719419133038" lon="9.257846252165455"><ele>94.0</ele><time>2026-04-12T09:08:06Z</time></trkpt><trkpt lat="45.371878247283405" lon="9.25771437726177"><ele>94.0</ele><time>2026-04-12T09:08:08Z</time></trkpt><trkpt lat="45.371817204086774" lon="9.257579925644505"><ele>94.0</ele><time>2026-04-12T09:08:10Z</time></trkpt><trkpt lat="45.37175321708843" lon="9.257447810824344"><ele>94.0</ele><time>2026-04-12T09:08:12Z</time></trkpt><trkpt lat="45.371688862933134" lon="9.257316501981073"><ele>94.0</ele><time>2026-04-12T09:08:14Z</time></trkpt><trkpt lat="45.371624600154405" lon="9.257183722469819"><ele>94.0</ele><time>2026-04-12T09:08:16Z</time></trkpt><trkpt lat="45.37156153209851" lon="9.257050238065029"><ele>94.0</ele><time>2026-04-12T09:08:18Z</time></trkpt><trkpt lat="45.37149664941251" lon="9.256915603188142"><ele>94.0</ele><time>2026-04-12T09:08:20Z</time></trkpt><trkpt lat="45.37142392526955" lon="9.256792701883517"><ele>94.0</ele><time>2026-04-12T09:08:22Z</time></trkpt><trkpt lat="45.37135137538135" lon="9.256663866377476"><ele>94.0</ele><time>2026-04-12T09:08:24Z</time></trkpt><trkpt lat="45.371282713665465" lon="9.25653726909344"><ele>94.0</ele><time>2026-04-12T09:08:26Z</time></trkpt><trkpt lat="45.37121394700196" lon="9.256411069906724"><ele>94.0</ele><time>2026-04-12T09:08:28Z</time></trkpt><trkpt lat="45.37115019622309" lon="9.256283147849144"><ele>94.0</ele><time>2026-04-12T09:08:30Z</time></trkpt><trkpt lat="45.37108439119875" lon="9.256159612465382"><ele>94.0</ele><time>2026-04-12T09:08:32Z</time></trkpt><trkpt lat="45.37104389784417" lon="9.256086826705321"><ele>94.0</ele><time>2026-04-12T09:08:33Z</time></trkpt><trkpt lat="45.370985958562116" lon="9.255970773584238"><ele>94.0</ele><time>2026-04-12T09:08:35Z</time></trkpt><trkpt lat="45.370919691122836" lon="9.255848071064083"><ele>94.0</ele><time>2026-04-12T09:08:37Z</time></trkpt><trkpt lat="45.370856778993044" lon="9.255721919277429"><ele>94.0</ele><time>2026-04-12T09:08:39Z</time></trkpt><trkpt lat="45.37079090619483" lon="9.255597384137577"><ele>94.0</ele><time>2026-04-12T09:08:41Z</time></trkpt><trkpt lat="45.370724925659054" lon="9.255468729150358"><ele>94.0</ele><time>2026-04-12T09:08:43Z</time></trkpt><trkpt lat="45.3706563389622" lon="9.25534943632221"><ele>94.0</ele><time>2026-04-12T09:08:45Z</time></trkpt><trkpt lat="45.37058710758434" lon="9.255245244531693"><ele>94.0</ele><time>2026-04-12T09:08:47Z</time></trkpt><trkpt lat="45.370493074123964" lon="9.255232348309367"><ele>94.0</ele><time>2026-04-12T09:08:49Z</time></trkpt><trkpt lat="45.370396839596545" lon="9.255294363344424"><ele>94.0</ele><time>2026-04-12T09:08:51Z</time></trkpt><trkpt lat="45.370292776162955" lon="9.25533377387149"><ele>94.0</ele><time>2026-04-12T09:08:53Z</time></trkpt><trkpt lat="45.370176038113776" lon="9.255379732149411"><ele>94.0</ele><time>2026-04-12T09:08:55Z</time></trkpt><trkpt lat="45.370065285475945" lon="9.2554261257636"><ele>94.0</ele><time>2026-04-12T09:08:57Z</time></trkpt><trkpt lat="45.36995502540652" lon="9.255466639503867"><ele>94.0</ele><time>2026-04-12T09:08:59Z</time></trkpt><trkpt lat="45.36984498934118" lon="9.25550970206007"><ele>94.0</ele><time>2026-04-12T09:09:01Z</time></trkpt><trkpt lat="45.36973355075287" lon="9.255555957166653"><ele>94.0</ele><time>2026-04-12T09:09:03Z</time></trkpt><trkpt lat="45.36962445351826" lon="9.255598191176109"><ele>94.0</ele><time>2026-04-12T09:09:05Z</time></trkpt><trkpt lat="45.369513897188156" lon="9.255636328188015"><ele>94.0</ele><time>2026-04-12T09:09:07Z</time></trkpt><trkpt lat="45.36940854577106" lon="9.255695707023847"><ele>94.0</ele><time>2026-04-12T09:09:09Z</time></trkpt><trkpt lat="45.36930145768649" lon="9.255739260036183"><ele>94.0</ele><time>2026-04-12T09:09:11Z</time></trkpt><trkpt lat="45.36919062404476" lon="9.25568682106862"><ele>94.0</ele><time>2026-04-12T09:09:13Z</time></trkpt><trkpt lat="45.369150935374584" lon="9.255617029441739"><ele>94.0</ele><time>2026-04-12T09:09:14Z</time></trkpt><trkpt lat="45.36912246558339" lon="9.255535845471323"><ele>94.0</ele><time>2026-04-12T09:09:15Z</time></trkpt><trkpt lat="45.369068655825096" lon="9.255378050223822"><ele>94.0</ele><time>2026-04-12T09:09:17Z</time></trkpt><trkpt lat="45.36903780266737" lon="9.25529664406418"><ele>94.0</ele><time>2026-04-12T09:09:18Z</time></trkpt><trkpt lat="45.36898426613096" lon="9.255151926857664"><ele>94.0</ele><time>2026-04-12T09:09:20Z</time></trkpt><trkpt lat="45.368924840039355" lon="9.255002941159695"><ele>94.0</ele><time>2026-04-12T09:09:22Z</time></trkpt><trkpt lat="45.36885907695265" lon="9.254859643421737"><ele>94.0</ele><time>2026-04-12T09:09:24Z</time></trkpt><trkpt lat="45.36879673334032" lon="9.25471757582345"><ele>94.0</ele><time>2026-04-12T09:09:26Z</time></trkpt><trkpt lat="45.36873676406125" lon="9.254571484732445"><ele>94.0</ele><time>2026-04-12T09:09:28Z</time></trkpt><trkpt lat="45.36867059276782" lon="9.254431468363475"><ele>94.0</ele><time>2026-04-12T09:09:30Z</time></trkpt><trkpt lat="45.368609730844284" lon="9.254283064420173"><ele>94.0</ele><time>2026-04-12T09:09:32Z</time></trkpt><trkpt lat="45.36853772517888" lon="9.254141623287625"><ele>94.0</ele><time>2026-04-12T09:09:34Z</time></trkpt><trkpt lat="45.36847690619506" lon="9.25399136552201"><ele>94.0</ele><time>2026-04-12T09:09:36Z</time></trkpt><trkpt lat="45.36841168402666" lon="9.253843299450152"><ele>94.0</ele><time>2026-04-12T09:09:38Z</time></trkpt><trkpt lat="45.368348997747304" lon="9.253693619425578"><ele>94.0</ele><time>2026-04-12T09:09:40Z</time></trkpt><trkpt lat="45.36831714072644" lon="9.25361599597921"><ele>94.0</ele><time>2026-04-12T09:09:41Z</time></trkpt><trkpt lat="45.36825401595914" lon="9.253468922004181"><ele>94.0</ele><time>2026-04-12T09:09:43Z</time></trkpt><trkpt lat="45.36818806250472" lon="9.253323560686209"><ele>94.0</ele><time>2026-04-12T09:09:45Z</time></trkpt><trkpt lat="45.36812962187083" lon="9.253173010808908"><ele>94.0</ele><time>2026-04-12T09:09:47Z</time></trkpt><trkpt lat="45.36806817417564" lon="9.25302725721062"><ele>94.0</ele><time>2026-04-12T09:09:49Z</time></trkpt><trkpt lat="45.36800407450438" lon="9.252879827166721"><ele>93.83333333333333</ele><time>2026-04-12T09:09:51Z</time></trkpt><trkpt lat="45.36794109577279" lon="9.252730754302128"><ele>93.66666666666666</ele><time>2026-04-12T09:09:53Z</time></trkpt><trkpt lat="45.36787930324338" lon="9.252579300979928"><ele>93.5</ele><time>2026-04-12T09:09:55Z</time></trkpt><trkpt lat="45.36784382204514" lon="9.252502974030035"><ele>93.33333333333333</ele><time>2026-04-12T09:09:56Z</time></trkpt><trkpt lat="45.367809205109204" lon="9.252425615163927"><ele>93.16666666666667</ele><time>2026-04-12T09:09:57Z</time></trkpt><trkpt lat="45.36777527390026" lon="9.252342576140213"><ele>93.0</ele><time>2026-04-12T09:09:58Z</time></trkpt><trkpt lat="45.367740423507854" lon="9.252263308469683"><ele>93.4</ele><time>2026-04-12T09:09:59Z</time></trkpt><trkpt lat="45.36770757080114" lon="9.252185980527852"><ele>93.80000000000001</ele><time>2026-04-12T09:10:00Z</time></trkpt><trkpt lat="45.36767513380272" lon="9.252106181611353"><ele>94.2</ele><time>2026-04-12T09:10:01Z</time></trkpt><trkpt lat="45.36760553365324" lon="9.251961431604764"><ele>94.6</ele><time>2026-04-12T09:10:03Z</time></trkpt><trkpt lat="45.367536928210335" lon="9.25183101256719"><ele>95.0</ele><time>2026-04-12T09:10:05Z</time></trkpt><trkpt lat="45.36756249440212" lon="9.251677270267125"><ele>95.0</ele><time>2026-04-12T09:10:07Z</time></trkpt><trkpt lat="45.3676204357196" lon="9.251637659362459"><ele>95.0</ele><time>2026-04-12T09:10:08Z</time></trkpt><trkpt lat="45.36768748779801" lon="9.251629524114259"><ele>95.0</ele><time>2026-04-12T09:10:09Z</time></trkpt><trkpt lat="45.36779921570614" lon="9.251600322972578"><ele>95.0</ele><time>2026-04-12T09:10:11Z</time></trkpt><trkpt lat="45.36786962627028" lon="9.251476624337062"><ele>95.0</ele><time>2026-04-12T09:10:13Z</time></trkpt><trkpt lat="45.36787971459323" lon="9.251302729777802"><ele>95.2</ele><time>2026-04-12T09:10:15Z</time></trkpt><trkpt lat="45.36786931913218" lon="9.251147505747623"><ele>95.4</ele><time>2026-04-12T09:10:17Z</time></trkpt><trkpt lat="45.36785568467922" lon="9.251058992778457"><ele>95.6</ele><time>2026-04-12T09:10:18Z</time></trkpt><trkpt lat="45.367817354388805" lon="9.250897107292444"><ele>95.8</ele><time>2026-04-12T09:10:20Z</time></trkpt><trkpt lat="45.36776340070405" lon="9.250746548265672"><ele>96.0</ele><time>2026-04-12T09:10:22Z</time></trkpt><trkpt lat="45.36770281022965" lon="9.250601633338844"><ele>96.0</ele><time>2026-04-12T09:10:24Z</time></trkpt><trkpt lat="45.36764894508277" lon="9.250450835219947"><ele>96.0</ele><time>2026-04-12T09:10:26Z</time></trkpt><trkpt lat="45.367587482758715" lon="9.250304287497748"><ele>96.0</ele><time>2026-04-12T09:10:28Z</time></trkpt><trkpt lat="45.36753003421465" lon="9.250149295647317"><ele>96.0</ele><time>2026-04-12T09:10:30Z</time></trkpt><trkpt lat="45.36748362918574" lon="9.249993726369292"><ele>96.0</ele><time>2026-04-12T09:10:32Z</time></trkpt><trkpt lat="45.367443439947564" lon="9.249853854093319"><ele>96.0</ele><time>2026-04-12T09:10:34Z</time></trkpt><trkpt lat="45.367391279723634" lon="9.249710401166139"><ele>96.0</ele><time>2026-04-12T09:10:36Z</time></trkpt><trkpt lat="45.367385447030045" lon="9.249599149485443"><ele>96.0</ele><time>2026-04-12T09:10:39Z</time></trkpt><trkpt lat="45.36739051013176" lon="9.249504192271996"><ele>96.0</ele><time>2026-04-12T09:10:55Z</time></trkpt><trkpt lat="45.36737940406545" lon="9.24937953091926"><ele>96.0</ele><time>2026-04-12T09:10:58Z</time></trkpt><trkpt lat="45.36737955555711" lon="9.249265784845802"><ele>96.0</ele><time>2026-04-12T09:11:00Z</time></trkpt><trkpt lat="45.36735058942043" lon="9.249179135652854"><ele>96.0</ele><time>2026-04-12T09:11:02Z</time></trkpt><trkpt lat="45.36726147953882" lon="9.249088337064942"><ele>96.0</ele><time>2026-04-12T09:11:04Z</time></trkpt><trkpt lat="45.36717596432398" lon="9.248992194546117"><ele>96.0</ele><time>2026-04-12T09:11:06Z</time></trkpt><trkpt lat="45.36709794138914" lon="9.248893360386212"><ele>95.33333333333333</ele><time>2026-04-12T09:11:08Z</time></trkpt><trkpt lat="45.36701535099462" lon="9.248792181865227"><ele>94.66666666666667</ele><time>2026-04-12T09:11:10Z</time></trkpt><trkpt lat="45.36694411513664" lon="9.248694782852569"><ele>94.0</ele><time>2026-04-12T09:11:12Z</time></trkpt><trkpt lat="45.36687483402469" lon="9.24861096571373"><ele>93.33333333333334</ele><time>2026-04-12T09:11:14Z</time></trkpt><trkpt lat="45.36681817132899" lon="9.248546958661537"><ele>92.66666666666667</ele><time>2026-04-12T09:11:16Z</time></trkpt><trkpt lat="45.366756899341595" lon="9.248497622515421"><ele>92.0</ele><time>2026-04-12T09:11:18Z</time></trkpt><trkpt lat="45.366694357648846" lon="9.248465127323726"><ele>92.0</ele><time>2026-04-12T09:11:20Z</time></trkpt><trkpt lat="45.36660208998739" lon="9.248429441005237"><ele>92.0</ele><time>2026-04-12T09:11:23Z</time></trkpt><trkpt lat="45.36653029178055" lon="9.24843853952965"><ele>92.0</ele><time>2026-04-12T09:11:25Z</time></trkpt><trkpt lat="45.36644914192728" lon="9.248485839338578"><ele>92.0</ele><time>2026-04-12T09:11:27Z</time></trkpt><trkpt lat="45.36636058115649" lon="9.24849818137001"><ele>92.0</ele><time>2026-04-12T09:11:29Z</time></trkpt><trkpt lat="45.36627249854199" lon="9.248446682530417"><ele>92.0</ele><time>2026-04-12T09:11:31Z</time></trkpt><trkpt lat="45.366198782809356" lon="9.248366378211465"><ele>92.0</ele><time>2026-04-12T09:11:33Z</time></trkpt><trkpt lat="45.36612506857108" lon="9.248283319900711"><ele>92.0</ele><time>2026-04-12T09:11:35Z</time></trkpt><trkpt lat="45.36605091758773" lon="9.248196102733308"><ele>92.0</ele><time>2026-04-12T09:11:37Z</time></trkpt><trkpt lat="45.36597253838458" lon="9.24811633634056"><ele>92.0</ele><time>2026-04-12T09:11:39Z</time></trkpt><trkpt lat="45.365894329600295" lon="9.248032921194058"><ele>92.0</ele><time>2026-04-12T09:11:41Z</time></trkpt><trkpt lat="45.36581848651943" lon="9.247961739776532"><ele>92.0</ele><time>2026-04-12T09:11:43Z</time></trkpt><trkpt lat="45.36574361508406" lon="9.24789262532304"><ele>92.0</ele><time>2026-04-12T09:11:45Z</time></trkpt><trkpt lat="45.365662135908394" lon="9.247862589950678"><ele>92.0</ele><time>2026-04-12T09:11:47Z</time></trkpt><trkpt lat="45.36558305184211" lon="9.247866851970421"><ele>92.0</ele><time>2026-04-12T09:11:49Z</time></trkpt><trkpt lat="45.36549520914848" lon="9.247888290253892"><ele>92.0</ele><time>2026-04-12T09:11:51Z</time></trkpt><trkpt lat="45.36541803874083" lon="9.247894010361208"><ele>92.0</ele><time>2026-04-12T09:11:53Z</time></trkpt><trkpt lat="45.365344553639105" lon="9.247886671768093"><ele>92.6</ele><time>2026-04-12T09:11:55Z</time></trkpt><trkpt lat="45.365269535782716" lon="9.247857168946055"><ele>93.19999999999999</ele><time>2026-04-12T09:11:58Z</time></trkpt><trkpt lat="45.36520044399337" lon="9.247798689768958"><ele>93.8</ele><time>2026-04-12T09:12:00Z</time></trkpt><trkpt lat="45.36511448276823" lon="9.247753694286946"><ele>94.4</ele><time>2026-04-12T09:12:02Z</time></trkpt><trkpt lat="45.36502105688726" lon="9.247689539874052"><ele>95.0</ele><time>2026-04-12T09:12:04Z</time></trkpt><trkpt lat="45.36492196305527" lon="9.247621392537141"><ele>95.0</ele><time>2026-04-12T09:12:06Z</time></trkpt><trkpt lat="45.36482496388793" lon="9.24754189519164"><ele>95.0</ele><time>2026-04-12T09:12:08Z</time></trkpt><trkpt lat="45.36472932904554" lon="9.247452452025989"><ele>95.0</ele><time>2026-04-12T09:12:10Z</time></trkpt><trkpt lat="45.36464093573865" lon="9.247362942075299"><ele>95.0</ele><time>2026-04-12T09:12:12Z</time></trkpt><trkpt lat="45.36455654955916" lon="9.247282530317786"><ele>95.0</ele><time>2026-04-12T09:12:14Z</time></trkpt><trkpt lat="45.364480515619135" lon="9.2471891218683"><ele>94.6</ele><time>2026-04-12T09:12:16Z</time></trkpt><trkpt lat="45.364407490574344" lon="9.247096610602373"><ele>94.2</ele><time>2026-04-12T09:12:18Z</time></trkpt><trkpt lat="45.36433803587609" lon="9.2469961799299"><ele>93.80000000000001</ele><time>2026-04-12T09:12:20Z</time></trkpt><trkpt lat="45.36426778215121" lon="9.246902305924074"><ele>93.4</ele><time>2026-04-12T09:12:22Z</time></trkpt><trkpt lat="45.36419852068129" lon="9.246800285416946"><ele>93.0</ele><time>2026-04-12T09:12:24Z</time></trkpt><trkpt lat="45.36412394523419" lon="9.246702356222885"><ele>93.0</ele><time>2026-04-12T09:12:26Z</time></trkpt><trkpt lat="45.36405471478005" lon="9.246591927033"><ele>93.0</ele><time>2026-04-12T09:12:28Z</time></trkpt><trkpt lat="45.36398492465557" lon="9.246478203352378"><ele>93.0</ele><time>2026-04-12T09:12:30Z</time></trkpt><trkpt lat="45.36391410989218" lon="9.24637308695031"><ele>93.0</ele><time>2026-04-12T09:12:32Z</time></trkpt><trkpt lat="45.36384333714874" lon="9.24626320929874"><ele>93.0</ele><time>2026-04-12T09:12:34Z</time></trkpt><trkpt lat="45.36377147018566" lon="9.246150478563532"><ele>93.0</ele><time>2026-04-12T09:12:36Z</time></trkpt><trkpt lat="45.36369813563228" lon="9.246039183077482"><ele>93.0</ele><time>2026-04-12T09:12:38Z</time></trkpt><trkpt lat="45.36363152039947" lon="9.245922535652804"><ele>93.0</ele><time>2026-04-12T09:12:40Z</time></trkpt><trkpt lat="45.36356980089795" lon="9.245802658599045"><ele>93.0</ele><time>2026-04-12T09:12:42Z</time></trkpt><trkpt lat="45.36350885860984" lon="9.245685174947118"><ele>93.0</ele><time>2026-04-12T09:12:44Z</time></trkpt><trkpt lat="45.36345035942757" lon="9.245569290166461"><ele>93.0</ele><time>2026-04-12T09:12:46Z</time></trkpt><trkpt lat="45.36340892192648" lon="9.24544141627934"><ele>93.0</ele><time>2026-04-12T09:12:48Z</time></trkpt><trkpt lat="45.36338095345732" lon="9.245303793650338"><ele>93.0</ele><time>2026-04-12T09:12:50Z</time></trkpt><trkpt lat="45.363359421224324" lon="9.245165549215058"><ele>93.0</ele><time>2026-04-12T09:12:52Z</time></trkpt><trkpt lat="45.3633328899296" lon="9.245029182174303"><ele>93.0</ele><time>2026-04-12T09:12:54Z</time></trkpt><trkpt lat="45.36330929869512" lon="9.244888356112126"><ele>93.4</ele><time>2026-04-12T09:12:56Z</time></trkpt><trkpt lat="45.36328821154901" lon="9.24474765018692"><ele>93.80000000000001</ele><time>2026-04-12T09:12:58Z</time></trkpt><trkpt lat="45.36326523473198" lon="9.244604568927205"><ele>94.2</ele><time>2026-04-12T09:13:00Z</time></trkpt><trkpt lat="45.36324184709064" lon="9.244464859441223"><ele>94.6</ele><time>2026-04-12T09:13:02Z</time></trkpt><trkpt lat="45.36322302916217" lon="9.244323993880977"><ele>95.0</ele><time>2026-04-12T09:13:04Z</time></trkpt><trkpt lat="45.363200035907596" lon="9.2441853937256"><ele>95.0</ele><time>2026-04-12T09:13:06Z</time></trkpt><trkpt lat="45.363176871644015" lon="9.244047938268963"><ele>95.0</ele><time>2026-04-12T09:13:08Z</time></trkpt><trkpt lat="45.363160531694646" lon="9.243913418887333"><ele>95.0</ele><time>2026-04-12T09:13:10Z</time></trkpt><trkpt lat="45.363136221427744" lon="9.24378029889407"><ele>95.0</ele><time>2026-04-12T09:13:12Z</time></trkpt><trkpt lat="45.36310907086102" lon="9.243647135876117"><ele>95.0</ele><time>2026-04-12T09:13:14Z</time></trkpt><trkpt lat="45.363086144676046" lon="9.243523063540563"><ele>94.83333333333334</ele><time>2026-04-12T09:13:16Z</time></trkpt><trkpt lat="45.36305625027203" lon="9.243405427320617"><ele>94.66666666666667</ele><time>2026-04-12T09:13:18Z</time></trkpt><trkpt lat="45.36303560627894" lon="9.243293299661124"><ele>94.5</ele><time>2026-04-12T09:13:20Z</time></trkpt><trkpt lat="45.363007750199564" lon="9.243184955711879"><ele>94.33333333333333</ele><time>2026-04-12T09:13:22Z</time></trkpt><trkpt lat="45.3629843443377" lon="9.243079802661127"><ele>94.16666666666666</ele><time>2026-04-12T09:13:24Z</time></trkpt><trkpt lat="45.36296602080443" lon="9.242979237194481"><ele>94.0</ele><time>2026-04-12T09:13:26Z</time></trkpt><trkpt lat="45.36294555365368" lon="9.242874266581511"><ele>93.83333333333333</ele><time>2026-04-12T09:13:28Z</time></trkpt><trkpt lat="45.36292323765745" lon="9.242772791466823"><ele>93.66666666666666</ele><time>2026-04-12T09:13:30Z</time></trkpt><trkpt lat="45.36291326072061" lon="9.242677187861934"><ele>93.5</ele><time>2026-04-12T09:13:32Z</time></trkpt><trkpt lat="45.362858836756786" lon="9.242572139979039"><ele>93.33333333333333</ele><time>2026-04-12T09:13:35Z</time></trkpt><trkpt lat="45.36282364768021" lon="9.242493915992153"><ele>93.16666666666667</ele><time>2026-04-12T09:13:37Z</time></trkpt><trkpt lat="45.36274910503986" lon="9.242433967323619"><ele>93.0</ele><time>2026-04-12T09:13:39Z</time></trkpt><trkpt lat="45.36266119193518" lon="9.242430328967444"><ele>93.0</ele><time>2026-04-12T09:13:41Z</time></trkpt><trkpt lat="45.3625834038066" lon="9.242396103530762"><ele>93.0</ele><time>2026-04-12T09:13:43Z</time></trkpt><trkpt lat="45.3625256125152" lon="9.242299396331259"><ele>93.0</ele><time>2026-04-12T09:13:45Z</time></trkpt><trkpt lat="45.36248906122822" lon="9.242173039482598"><ele>93.0</ele><time>2026-04-12T09:13:47Z</time></trkpt><trkpt lat="45.36244593374362" lon="9.242056132767155"><ele>93.0</ele><time>2026-04-12T09:13:49Z</time></trkpt><trkpt lat="45.362405375388306" lon="9.24193661772428"><ele>93.4</ele><time>2026-04-12T09:13:51Z</time></trkpt><trkpt lat="45.362360396108315" lon="9.24182077429773"><ele>93.80000000000001</ele><time>2026-04-12T09:13:53Z</time></trkpt><trkpt lat="45.36231190335173" lon="9.241705178300291"><ele>94.2</ele><time>2026-04-12T09:13:55Z</time></trkpt><trkpt lat="45.362266941554566" lon="9.241588405332813"><ele>94.6</ele><time>2026-04-12T09:13:57Z</time></trkpt><trkpt lat="45.362229931255186" lon="9.2414717336589"><ele>95.0</ele><time>2026-04-12T09:13:59Z</time></trkpt><trkpt lat="45.3621889631234" lon="9.241360158612205"><ele>95.0</ele><time>2026-04-12T09:14:01Z</time></trkpt><trkpt lat="45.36214412299937" lon="9.241241847809167"><ele>95.0</ele><time>2026-04-12T09:14:03Z</time></trkpt><trkpt lat="45.36210301180071" lon="9.241119337989453"><ele>95.0</ele><time>2026-04-12T09:14:05Z</time></trkpt><trkpt lat="45.36205957682606" lon="9.240994329610492"><ele>95.0</ele><time>2026-04-12T09:14:07Z</time></trkpt><trkpt lat="45.362017396854945" lon="9.2408740324223"><ele>95.0</ele><time>2026-04-12T09:14:09Z</time></trkpt><trkpt lat="45.36197495509723" lon="9.240746796513369"><ele>94.8</ele><time>2026-04-12T09:14:11Z</time></trkpt><trkpt lat="45.36193581238158" lon="9.240619966088474"><ele>94.6</ele><time>2026-04-12T09:14:13Z</time></trkpt><trkpt lat="45.361894720623724" lon="9.240494685322963"><ele>94.4</ele><time>2026-04-12T09:14:15Z</time></trkpt><trkpt lat="45.36186741218701" lon="9.240363155806278"><ele>94.2</ele><time>2026-04-12T09:14:17Z</time></trkpt><trkpt lat="45.361851882919495" lon="9.24022253360686"><ele>94.0</ele><time>2026-04-12T09:14:19Z</time></trkpt><trkpt lat="45.361831571812615" lon="9.240080917632358"><ele>94.0</ele><time>2026-04-12T09:14:21Z</time></trkpt><trkpt lat="45.361812534231646" lon="9.239931763373663"><ele>94.0</ele><time>2026-04-12T09:14:23Z</time></trkpt><trkpt lat="45.36178979861779" lon="9.23978259539045"><ele>94.0</ele><time>2026-04-12T09:14:25Z</time></trkpt><trkpt lat="45.36177035780966" lon="9.239634751822543"><ele>94.0</ele><time>2026-04-12T09:14:27Z</time></trkpt><trkpt lat="45.361755003982616" lon="9.239486429760413"><ele>94.0</ele><time>2026-04-12T09:14:29Z</time></trkpt><trkpt lat="45.36173615840946" lon="9.239344701567331"><ele>93.80000000000001</ele><time>2026-04-12T09:14:31Z</time></trkpt><trkpt lat="45.361721641487435" lon="9.239199014863928"><ele>93.60000000000001</ele><time>2026-04-12T09:14:33Z</time></trkpt><trkpt lat="45.361710443077506" lon="9.239051363974237"><ele>93.4</ele><time>2026-04-12T09:14:35Z</time></trkpt><trkpt lat="45.361692590596284" lon="9.238902972461446"><ele>93.2</ele><time>2026-04-12T09:14:37Z</time></trkpt><trkpt lat="45.36167558292449" lon="9.238758696954596"><ele>93.0</ele><time>2026-04-12T09:14:39Z</time></trkpt><trkpt lat="45.36165901786664" lon="9.238614536480322"><ele>92.83333333333333</ele><time>2026-04-12T09:14:41Z</time></trkpt><trkpt lat="45.36164301555528" lon="9.238478541375473"><ele>92.66666666666667</ele><time>2026-04-12T09:14:43Z</time></trkpt><trkpt lat="45.36163296483658" lon="9.238374714865323"><ele>92.5</ele><time>2026-04-12T09:14:45Z</time></trkpt><trkpt lat="45.36163772676435" lon="9.238268008725452"><ele>92.33333333333334</ele><time>2026-04-12T09:14:48Z</time></trkpt><trkpt lat="45.36159967653271" lon="9.238185344015644"><ele>92.16666666666667</ele><time>2026-04-12T09:14:51Z</time></trkpt><trkpt lat="45.36160133721099" lon="9.238072628198946"><ele>92.0</ele><time>2026-04-12T09:14:53.001Z</time></trkpt><trkpt lat="45.3616126849012" lon="9.237937944934952"><ele>92.0</ele><time>2026-04-12T09:14:55.001Z</time></trkpt><trkpt lat="45.36162261621502" lon="9.237797610188032"><ele>92.0</ele><time>2026-04-12T09:14:57.001Z</time></trkpt><trkpt lat="45.361633688892105" lon="9.237657533695243"><ele>92.0</ele><time>2026-04-12T09:14:59.001Z</time></trkpt><trkpt lat="45.361643137844354" lon="9.23751899339772"><ele>92.0</ele><time>2026-04-12T09:15:01.001Z</time></trkpt><trkpt lat="45.3616565769531" lon="9.237378381116963"><ele>92.0</ele><time>2026-04-12T09:15:03.001Z</time></trkpt><trkpt lat="45.36166973501264" lon="9.23723616124793"><ele>92.39999999999999</ele><time>2026-04-12T09:15:05.001Z</time></trkpt><trkpt lat="45.361682627024756" lon="9.237090609437843"><ele>92.8</ele><time>2026-04-12T09:15:07.001Z</time></trkpt><trkpt lat="45.36169356658282" lon="9.236945957108261"><ele>93.2</ele><time>2026-04-12T09:15:09.001Z</time></trkpt><trkpt lat="45.36170964993733" lon="9.236797270010399"><ele>93.6</ele><time>2026-04-12T09:15:11.001Z</time></trkpt><trkpt lat="45.361735693847535" lon="9.23664848141987"><ele>94.0</ele><time>2026-04-12T09:15:13.001Z</time></trkpt><trkpt lat="45.36179082985988" lon="9.236517193311139"><ele>94.4</ele><time>2026-04-12T09:15:15.001Z</time></trkpt><trkpt lat="45.361875227952986" lon="9.236420836207673"><ele>94.80000000000001</ele><time>2026-04-12T09:15:17.001Z</time></trkpt><trkpt lat="45.36197345699232" lon="9.23636437983192"><ele>95.19999999999999</ele><time>2026-04-12T09:15:19.001Z</time></trkpt><trkpt lat="45.362063913764054" lon="9.236281614390913"><ele>95.6</ele><time>2026-04-12T09:15:21.001Z</time></trkpt><trkpt lat="45.36211512777408" lon="9.23614145565961"><ele>96.0</ele><time>2026-04-12T09:15:23.001Z</time></trkpt><trkpt lat="45.36212064697993" lon="9.2359826347386"><ele>96.0</ele><time>2026-04-12T09:15:25.001Z</time></trkpt><trkpt lat="45.36211037285259" lon="9.235893151363529"><ele>96.0</ele><time>2026-04-12T09:15:26.001Z</time></trkpt><trkpt lat="45.362103173873386" lon="9.235724464681919"><ele>96.0</ele><time>2026-04-12T09:15:28.001Z</time></trkpt><trkpt lat="45.3621149209302" lon="9.23555388514596"><ele>96.0</ele><time>2026-04-12T09:15:30.001Z</time></trkpt><trkpt lat="45.36213334991221" lon="9.235386019113697"><ele>96.0</ele><time>2026-04-12T09:15:32.001Z</time></trkpt><trkpt lat="45.36212864796347" lon="9.235220077497383"><ele>95.5</ele><time>2026-04-12T09:15:34.001Z</time></trkpt><trkpt lat="45.362115129943064" lon="9.235057463591934"><ele>95.0</ele><time>2026-04-12T09:15:36.001Z</time></trkpt><trkpt lat="45.36210135547387" lon="9.234895208425103"><ele>94.5</ele><time>2026-04-12T09:15:38.001Z</time></trkpt><trkpt lat="45.36208661290137" lon="9.234727753087176"><ele>94.0</ele><time>2026-04-12T09:15:40.001Z</time></trkpt><trkpt lat="45.362072025245844" lon="9.234563774394143"><ele>93.75</ele><time>2026-04-12T09:15:42.001Z</time></trkpt><trkpt lat="45.36205824129668" lon="9.234398418086554"><ele>93.5</ele><time>2026-04-12T09:15:44.001Z</time></trkpt><trkpt lat="45.36204072793655" lon="9.234233592622726"><ele>93.25</ele><time>2026-04-12T09:15:46.001Z</time></trkpt><trkpt lat="45.36202322984441" lon="9.234069888182368"><ele>93.0</ele><time>2026-04-12T09:15:48.001Z</time></trkpt><trkpt lat="45.36200504051391" lon="9.233907083345413"><ele>93.4</ele><time>2026-04-12T09:15:50.001Z</time></trkpt><trkpt lat="45.36198684932561" lon="9.233750273249441"><ele>93.80000000000001</ele><time>2026-04-12T09:15:52.001Z</time></trkpt><trkpt lat="45.3619637097664" lon="9.233590877570123"><ele>94.2</ele><time>2026-04-12T09:15:54.001Z</time></trkpt><trkpt lat="45.36194147690035" lon="9.233437666404951"><ele>94.6</ele><time>2026-04-12T09:15:56.001Z</time></trkpt><trkpt lat="45.36192209598434" lon="9.233290642949669"><ele>95.0</ele><time>2026-04-12T09:15:58.001Z</time></trkpt><trkpt lat="45.36189762491954" lon="9.233152084604747"><ele>94.83333333333334</ele><time>2026-04-12T09:16:00.001Z</time></trkpt><trkpt lat="45.361876703423" lon="9.233022448956987"><ele>94.66666666666667</ele><time>2026-04-12T09:16:02.001Z</time></trkpt><trkpt lat="45.36185490951406" lon="9.232906417398494"><ele>94.5</ele><time>2026-04-12T09:16:04.001Z</time></trkpt><trkpt lat="45.3618346587269" lon="9.232789647349508"><ele>94.33333333333333</ele><time>2026-04-12T09:16:06.001Z</time></trkpt><trkpt lat="45.36181678153079" lon="9.232679906410548"><ele>94.16666666666666</ele><time>2026-04-12T09:16:08.001Z</time></trkpt><trkpt lat="45.36179577867328" lon="9.23257210636229"><ele>94.0</ele><time>2026-04-12T09:16:10.001Z</time></trkpt><trkpt lat="45.36177392703485" lon="9.23245529383056"><ele>94.0</ele><time>2026-04-12T09:16:12.001Z</time></trkpt><trkpt lat="45.36175102266754" lon="9.232347345960372"><ele>94.0</ele><time>2026-04-12T09:16:14.001Z</time></trkpt><trkpt lat="45.36172861944052" lon="9.232237899061648"><ele>94.0</ele><time>2026-04-12T09:16:16.001Z</time></trkpt><trkpt lat="45.36170501123837" lon="9.232127921274234"><ele>94.0</ele><time>2026-04-12T09:16:18.001Z</time></trkpt><trkpt lat="45.36167833917344" lon="9.232019534476041"><ele>94.0</ele><time>2026-04-12T09:16:20.001Z</time></trkpt><trkpt lat="45.36165692640939" lon="9.231913960270228"><ele>94.0</ele><time>2026-04-12T09:16:22.001Z</time></trkpt><trkpt lat="45.361632263241425" lon="9.23180625169298"><ele>94.0</ele><time>2026-04-12T09:16:24.001Z</time></trkpt><trkpt lat="45.361608307191965" lon="9.23170229431867"><ele>94.0</ele><time>2026-04-12T09:16:26.001Z</time></trkpt><trkpt lat="45.361583873526875" lon="9.231606560953939"><ele>94.0</ele><time>2026-04-12T09:16:28.001Z</time></trkpt><trkpt lat="45.361560088808304" lon="9.231506586454515"><ele>94.0</ele><time>2026-04-12T09:16:30.001Z</time></trkpt><trkpt lat="45.36153537738788" lon="9.231407028469496"><ele>94.0</ele><time>2026-04-12T09:16:32.001Z</time></trkpt><trkpt lat="45.361511164310315" lon="9.231309122831382"><ele>94.0</ele><time>2026-04-12T09:16:34.001Z</time></trkpt><trkpt lat="45.36148764627606" lon="9.23120734835854"><ele>94.0</ele><time>2026-04-12T09:16:36.001Z</time></trkpt><trkpt lat="45.36146136144687" lon="9.231099410594283"><ele>94.2</ele><time>2026-04-12T09:16:38.001Z</time></trkpt><trkpt lat="45.361430791635" lon="9.230981993422807"><ele>94.4</ele><time>2026-04-12T09:16:40.001Z</time></trkpt><trkpt lat="45.36139712945489" lon="9.230847852793516"><ele>94.6</ele><time>2026-04-12T09:16:42.001Z</time></trkpt><trkpt lat="45.36136091438164" lon="9.230700473713172"><ele>94.8</ele><time>2026-04-12T09:16:44.001Z</time></trkpt><trkpt lat="45.36131635025497" lon="9.230528485321402"><ele>95.0</ele><time>2026-04-12T09:16:46.001Z</time></trkpt><trkpt lat="45.36129466178136" lon="9.230435113887367"><ele>95.16666666666667</ele><time>2026-04-12T09:16:47.001Z</time></trkpt><trkpt lat="45.36126997979183" lon="9.230338301826572"><ele>95.33333333333334</ele><time>2026-04-12T09:16:48.001Z</time></trkpt><trkpt lat="45.3612448863628" lon="9.230238263244127"><ele>95.5</ele><time>2026-04-12T09:16:49.001Z</time></trkpt><trkpt lat="45.36122109535744" lon="9.230131574304924"><ele>95.66666666666667</ele><time>2026-04-12T09:16:50.001Z</time></trkpt><trkpt lat="45.36120241896711" lon="9.230016935565345"><ele>95.83333333333333</ele><time>2026-04-12T09:16:51.001Z</time></trkpt><trkpt lat="45.36118189950314" lon="9.229897953097337"><ele>96.0</ele><time>2026-04-12T09:16:52.001Z</time></trkpt><trkpt lat="45.36116664817671" lon="9.229774353882101"><ele>95.66666666666667</ele><time>2026-04-12T09:16:53.001Z</time></trkpt><trkpt lat="45.36116019670489" lon="9.229657019971313"><ele>95.33333333333333</ele><time>2026-04-12T09:16:54.001Z</time></trkpt><trkpt lat="45.36116174050366" lon="9.229544819150465"><ele>95.0</ele><time>2026-04-12T09:16:55.001Z</time></trkpt><trkpt lat="45.36118764953028" lon="9.229445214079162"><ele>94.66666666666666</ele><time>2026-04-12T09:16:56.001Z</time></trkpt><trkpt lat="45.36121510268567" lon="9.2293570096111"><ele>94.33333333333333</ele><time>2026-04-12T09:16:57.001Z</time></trkpt><trkpt lat="45.36125694348883" lon="9.22928597938735"><ele>94.0</ele><time>2026-04-12T09:16:58.001Z</time></trkpt><trkpt lat="45.3613598141205" lon="9.229198547563861"><ele>94.0</ele><time>2026-04-12T09:17:00.001Z</time></trkpt><trkpt lat="45.36146279390703" lon="9.229105565992278"><ele>94.0</ele><time>2026-04-12T09:17:02.001Z</time></trkpt><trkpt lat="45.36151696977631" lon="9.228946252906622"><ele>94.0</ele><time>2026-04-12T09:17:04.001Z</time></trkpt><trkpt lat="45.361521407623925" lon="9.228855106623627"><ele>94.0</ele><time>2026-04-12T09:17:05.001Z</time></trkpt><trkpt lat="45.36148907514066" lon="9.228683529756326"><ele>94.0</ele><time>2026-04-12T09:17:07.001Z</time></trkpt><trkpt lat="45.36144479252079" lon="9.228616793121784"><ele>94.0</ele><time>2026-04-12T09:17:08.001Z</time></trkpt><trkpt lat="45.36133626555815" lon="9.228531366135293"><ele>94.0</ele><time>2026-04-12T09:17:10.001Z</time></trkpt><trkpt lat="45.36121377842932" lon="9.228546577110658"><ele>94.0</ele><time>2026-04-12T09:17:12.001Z</time></trkpt><trkpt lat="45.361109693204945" lon="9.228628782821206"><ele>94.0</ele><time>2026-04-12T09:17:14.001Z</time></trkpt><trkpt lat="45.361008872795495" lon="9.228692382950731"><ele>94.0</ele><time>2026-04-12T09:17:16.001Z</time></trkpt><trkpt lat="45.360895940554435" lon="9.228687806617478"><ele>94.0</ele><time>2026-04-12T09:17:18.001Z</time></trkpt><trkpt lat="45.36079179911207" lon="9.228681712240965"><ele>94.0</ele><time>2026-04-12T09:17:20.001Z</time></trkpt><trkpt lat="45.36069170968099" lon="9.22871071874802"><ele>94.0</ele><time>2026-04-12T09:17:22.001Z</time></trkpt><trkpt lat="45.36059764189085" lon="9.22876802807871"><ele>94.0</ele><time>2026-04-12T09:17:24.001Z</time></trkpt><trkpt lat="45.36050622889737" lon="9.228836563711877"><ele>94.2</ele><time>2026-04-12T09:17:26.001Z</time></trkpt><trkpt lat="45.360402809195456" lon="9.228841780493218"><ele>94.4</ele><time>2026-04-12T09:17:28.001Z</time></trkpt><trkpt lat="45.36030183481662" lon="9.2288026404283"><ele>94.6</ele><time>2026-04-12T09:17:30.001Z</time></trkpt><trkpt lat="45.36019601253975" lon="9.22876707723682"><ele>94.8</ele><time>2026-04-12T09:17:32.001Z</time></trkpt><trkpt lat="45.36009729238975" lon="9.228701928343916"><ele>95.0</ele><time>2026-04-12T09:17:34.001Z</time></trkpt><trkpt lat="45.3600078147127" lon="9.228604125040913"><ele>95.0</ele><time>2026-04-12T09:17:36.001Z</time></trkpt><trkpt lat="45.35993766825749" lon="9.22847895864384"><ele>95.0</ele><time>2026-04-12T09:17:38.001Z</time></trkpt><trkpt lat="45.35989345752554" lon="9.228331768840034"><ele>95.0</ele><time>2026-04-12T09:17:40.001Z</time></trkpt><trkpt lat="45.35985581041774" lon="9.228186219858994"><ele>95.0</ele><time>2026-04-12T09:17:42.001Z</time></trkpt><trkpt lat="45.35981708437573" lon="9.22804367978715"><ele>95.0</ele><time>2026-04-12T09:17:44.001Z</time></trkpt><trkpt lat="45.359773360962656" lon="9.227899210671033"><ele>95.2</ele><time>2026-04-12T09:17:46.001Z</time></trkpt><trkpt lat="45.359730032721686" lon="9.22775354893531"><ele>95.4</ele><time>2026-04-12T09:17:48.001Z</time></trkpt><trkpt lat="45.359698156097345" lon="9.227603081427532"><ele>95.6</ele><time>2026-04-12T09:17:50.001Z</time></trkpt><trkpt lat="45.35967094102325" lon="9.227453540758221"><ele>95.8</ele><time>2026-04-12T09:17:52.001Z</time></trkpt><trkpt lat="45.3596860239505" lon="9.22729738072721"><ele>96.0</ele><time>2026-04-12T09:17:54.001Z</time></trkpt><trkpt lat="45.3597135174499" lon="9.22714688979567"><ele>96.19999999999999</ele><time>2026-04-12T09:17:56.001Z</time></trkpt><trkpt lat="45.35973333206799" lon="9.226990387388165"><ele>96.39999999999999</ele><time>2026-04-12T09:17:58.001Z</time></trkpt><trkpt lat="45.35976067928829" lon="9.22683689548197"><ele>96.6</ele><time>2026-04-12T09:18:00.001Z</time></trkpt><trkpt lat="45.359785913742016" lon="9.226685244342905"><ele>96.8</ele><time>2026-04-12T09:18:02.001Z</time></trkpt><trkpt lat="45.35979748199042" lon="9.22652521167168"><ele>97.0</ele><time>2026-04-12T09:18:04.001Z</time></trkpt><trkpt lat="45.35974793674883" lon="9.226372437847909"><ele>97.39999999999999</ele><time>2026-04-12T09:18:06.001Z</time></trkpt><trkpt lat="45.359661854843395" lon="9.226262450928912"><ele>97.8</ele><time>2026-04-12T09:18:08.001Z</time></trkpt><trkpt lat="45.35964451007144" lon="9.226167243618347"><ele>98.2</ele><time>2026-04-12T09:18:09.001Z</time></trkpt><trkpt lat="45.359602965403454" lon="9.226009670812328"><ele>98.6</ele><time>2026-04-12T09:18:11.001Z</time></trkpt><trkpt lat="45.35955819522593" lon="9.225841923481639"><ele>99.0</ele><time>2026-04-12T09:18:13.001Z</time></trkpt><trkpt lat="45.3595189397035" lon="9.22568933618917"><ele>99.0</ele><time>2026-04-12T09:18:15.001Z</time></trkpt><trkpt lat="45.35947459188763" lon="9.225531942655026"><ele>99.0</ele><time>2026-04-12T09:18:17.001Z</time></trkpt><trkpt lat="45.3594323040913" lon="9.225382108517863"><ele>99.0</ele><time>2026-04-12T09:18:19.001Z</time></trkpt><trkpt lat="45.35940083105582" lon="9.225228934597338"><ele>99.0</ele><time>2026-04-12T09:18:21.001Z</time></trkpt><trkpt lat="45.35936033981858" lon="9.225095913283495"><ele>99.0</ele><time>2026-04-12T09:18:23.001Z</time></trkpt><trkpt lat="45.35937138361002" lon="9.224976310684315"><ele>99.0</ele><time>2026-04-12T09:18:25.001Z</time></trkpt><trkpt lat="45.35945956495763" lon="9.224913127531615"><ele>99.0</ele><time>2026-04-12T09:18:27.001Z</time></trkpt><trkpt lat="45.35954603547024" lon="9.224870331087224"><ele>99.0</ele><time>2026-04-12T09:18:29.001Z</time></trkpt><trkpt lat="45.35963254454197" lon="9.224819866862587"><ele>99.0</ele><time>2026-04-12T09:18:31.001Z</time></trkpt><trkpt lat="45.35972051713708" lon="9.224767463524524"><ele>99.0</ele><time>2026-04-12T09:18:33.001Z</time></trkpt><trkpt lat="45.35981194224215" lon="9.224722092396064"><ele>98.66666666666667</ele><time>2026-04-12T09:18:35.001Z</time></trkpt><trkpt lat="45.35990010507318" lon="9.224670222645523"><ele>98.33333333333334</ele><time>2026-04-12T09:18:37.001Z</time></trkpt><trkpt lat="45.35998655535205" lon="9.22462970823392"><ele>98.0</ele><time>2026-04-12T09:18:39.001Z</time></trkpt><trkpt lat="45.360069163366035" lon="9.224590221444325"><ele>97.66666666666667</ele><time>2026-04-12T09:18:41.001Z</time></trkpt><trkpt lat="45.36014136864623" lon="9.224548059262355"><ele>97.33333333333334</ele><time>2026-04-12T09:18:43.001Z</time></trkpt><trkpt lat="45.360223609413254" lon="9.22449851600982"><ele>97.0</ele><time>2026-04-12T09:18:45.001Z</time></trkpt><trkpt lat="45.360305195630644" lon="9.224457964863761"><ele>97.00000000000001</ele><time>2026-04-12T09:18:47.001Z</time></trkpt><trkpt lat="45.360385424390095" lon="9.224417986635201"><ele>97.0</ele><time>2026-04-12T09:18:49.001Z</time></trkpt><trkpt lat="45.36046418666439" lon="9.224368708373671"><ele>97.0</ele><time>2026-04-12T09:18:51.001Z</time></trkpt><trkpt lat="45.360542287025496" lon="9.224319990473079"><ele>97.0</ele><time>2026-04-12T09:18:53.001Z</time></trkpt><trkpt lat="45.36062374331377" lon="9.224279584619905"><ele>97.00000000000001</ele><time>2026-04-12T09:18:55.001Z</time></trkpt><trkpt lat="45.36070245246895" lon="9.224234538232208"><ele>97.0</ele><time>2026-04-12T09:18:57.001Z</time></trkpt><trkpt lat="45.360780722932475" lon="9.224184879622793"><ele>96.66666666666667</ele><time>2026-04-12T09:18:59.001Z</time></trkpt><trkpt lat="45.36086060093043" lon="9.224143340405126"><ele>96.33333333333334</ele><time>2026-04-12T09:19:01.001Z</time></trkpt><trkpt lat="45.36093805984424" lon="9.224075268087283"><ele>96.0</ele><time>2026-04-12T09:19:03.001Z</time></trkpt><trkpt lat="45.36099500161419" lon="9.223972176652818"><ele>95.66666666666667</ele><time>2026-04-12T09:19:05.001Z</time></trkpt><trkpt lat="45.36104348878632" lon="9.223872545296127"><ele>95.33333333333334</ele><time>2026-04-12T09:19:07.001Z</time></trkpt><trkpt lat="45.36108849658521" lon="9.223769675797914"><ele>95.0</ele><time>2026-04-12T09:19:09.001Z</time></trkpt><trkpt lat="45.36113154884918" lon="9.223666463498168"><ele>95.0</ele><time>2026-04-12T09:19:11.001Z</time></trkpt><trkpt lat="45.36117646606749" lon="9.223560334283698"><ele>95.0</ele><time>2026-04-12T09:19:13.001Z</time></trkpt><trkpt lat="45.3612162375327" lon="9.223444863506149"><ele>95.0</ele><time>2026-04-12T09:19:15.001Z</time></trkpt><trkpt lat="45.36125052883593" lon="9.223332592798265"><ele>95.0</ele><time>2026-04-12T09:19:17.001Z</time></trkpt><trkpt lat="45.361275247669404" lon="9.223223506925702"><ele>95.0</ele><time>2026-04-12T09:19:19.001Z</time></trkpt><trkpt lat="45.361256102148936" lon="9.22311155846565"><ele>95.0</ele><time>2026-04-12T09:19:21.001Z</time></trkpt><trkpt lat="45.36119846210964" lon="9.223047264825931"><ele>95.0</ele><time>2026-04-12T09:19:23.001Z</time></trkpt><trkpt lat="45.361129339688645" lon="9.222983335170081"><ele>95.0</ele><time>2026-04-12T09:19:25.001Z</time></trkpt><trkpt lat="45.36105650276516" lon="9.222909872841717"><ele>95.0</ele><time>2026-04-12T09:19:27.001Z</time></trkpt><trkpt lat="45.3609724967403" lon="9.222847990757261"><ele>95.0</ele><time>2026-04-12T09:19:29.001Z</time></trkpt><trkpt lat="45.36089826073422" lon="9.222772025097202"><ele>95.0</ele><time>2026-04-12T09:19:31.001Z</time></trkpt><trkpt lat="45.36082214828332" lon="9.222699583230533"><ele>95.0</ele><time>2026-04-12T09:19:33.001Z</time></trkpt><trkpt lat="45.360744603456276" lon="9.222629848377776"><ele>95.0</ele><time>2026-04-12T09:19:35.001Z</time></trkpt><trkpt lat="45.360664161612995" lon="9.222561115902005"><ele>95.0</ele><time>2026-04-12T09:19:37.001Z</time></trkpt><trkpt lat="45.36058521179795" lon="9.22249324828624"><ele>95.0</ele><time>2026-04-12T09:19:39.001Z</time></trkpt><trkpt lat="45.36050825303371" lon="9.222423070173194"><ele>95.0</ele><time>2026-04-12T09:19:41.001Z</time></trkpt><trkpt lat="45.360431791849365" lon="9.222354719755845"><ele>95.0</ele><time>2026-04-12T09:19:43.001Z</time></trkpt><trkpt lat="45.360353992628625" lon="9.222291870412285"><ele>95.33333333333334</ele><time>2026-04-12T09:19:45.001Z</time></trkpt><trkpt lat="45.36028441428545" lon="9.222229328538276"><ele>95.66666666666667</ele><time>2026-04-12T09:19:47.001Z</time></trkpt><trkpt lat="45.360213939166584" lon="9.222172527747594"><ele>96.0</ele><time>2026-04-12T09:19:49.001Z</time></trkpt><trkpt lat="45.36014786453303" lon="9.222111150878577"><ele>96.33333333333334</ele><time>2026-04-12T09:19:51.001Z</time></trkpt><trkpt lat="45.36008611315177" lon="9.222043003781515"><ele>96.66666666666667</ele><time>2026-04-12T09:19:53.001Z</time></trkpt><trkpt lat="45.36004002145242" lon="9.22195840593545"><ele>97.0</ele><time>2026-04-12T09:19:55.001Z</time></trkpt><trkpt lat="45.359962125452164" lon="9.221920797176494"><ele>97.0</ele><time>2026-04-12T09:19:57.001Z</time></trkpt><trkpt lat="45.35989317119002" lon="9.221880466066956"><ele>97.0</ele><time>2026-04-12T09:19:59.001Z</time></trkpt><trkpt lat="45.35984737310501" lon="9.22181145773198"><ele>97.0</ele><time>2026-04-12T09:20:01.001Z</time></trkpt><trkpt lat="45.35976874798643" lon="9.221749415854568"><ele>97.0</ele><time>2026-04-12T09:20:04.001Z</time></trkpt><trkpt lat="45.359721287749075" lon="9.22167288558866"><ele>97.0</ele><time>2026-04-12T09:20:07.001Z</time></trkpt><trkpt lat="45.35968887025604" lon="9.221586253923016"><ele>97.0</ele><time>2026-04-12T09:20:11.001Z</time></trkpt><trkpt lat="45.35962948303711" lon="9.221548742129729"><ele>97.0</ele><time>2026-04-12T09:20:14.001Z</time></trkpt><trkpt lat="45.35956104251678" lon="9.221523974805883"><ele>97.0</ele><time>2026-04-12T09:20:16.001Z</time></trkpt><trkpt lat="45.35946275108949" lon="9.221448233556131"><ele>97.0</ele><time>2026-04-12T09:20:18.001Z</time></trkpt><trkpt lat="45.35937246422877" lon="9.221366994894888"><ele>97.0</ele><time>2026-04-12T09:20:20.001Z</time></trkpt><trkpt lat="45.35927876303681" lon="9.2213072637999"><ele>97.0</ele><time>2026-04-12T09:20:22.001Z</time></trkpt><trkpt lat="45.35920333230403" lon="9.221238568469122"><ele>97.0</ele><time>2026-04-12T09:20:24Z</time></trkpt><trkpt lat="45.35913297689527" lon="9.221192546897754"><ele>97.0</ele><time>2026-04-12T09:20:26Z</time></trkpt><trkpt lat="45.35919711774188" lon="9.221143912585816"><ele>97.0</ele><time>2026-04-12T09:20:32Z</time></trkpt><trkpt lat="45.3592423901539" lon="9.221209271140042"><ele>97.0</ele><time>2026-04-12T09:20:34Z</time></trkpt><trkpt lat="45.35931082164783" lon="9.221265877519533"><ele>97.0</ele><time>2026-04-12T09:20:36Z</time></trkpt><trkpt lat="45.35936965179522" lon="9.221332048211028"><ele>97.0</ele><time>2026-04-12T09:20:38Z</time></trkpt><trkpt lat="45.359441153962585" lon="9.221383953924654"><ele>97.0</ele><time>2026-04-12T09:20:40Z</time></trkpt><trkpt lat="45.35951033795347" lon="9.221411110980025"><ele>97.0</ele><time>2026-04-12T09:20:43.001Z</time></trkpt><trkpt lat="45.35943474009507" lon="9.221327345602013"><ele>97.0</ele><time>2026-04-12T09:20:46.001Z</time></trkpt><trkpt lat="45.359360015229655" lon="9.221291608815768"><ele>97.0</ele><time>2026-04-12T09:20:48.001Z</time></trkpt><trkpt lat="45.35939084763445" lon="9.221212276018292"><ele>97.0</ele><time>2026-04-12T09:20:53.001Z</time></trkpt><trkpt lat="45.35947122055468" lon="9.221085109280208"><ele>97.0</ele><time>2026-04-12T09:20:57.001Z</time></trkpt><trkpt lat="45.35953589530616" lon="9.220952322626841"><ele>97.0</ele><time>2026-04-12T09:20:58.001Z</time></trkpt><trkpt lat="45.359597560423396" lon="9.220856042770214"><ele>97.00000000000001</ele><time>2026-04-12T09:20:59.001Z</time></trkpt><trkpt lat="45.359665766143976" lon="9.220749184885827"><ele>97.0</ele><time>2026-04-12T09:21:01.001Z</time></trkpt><trkpt lat="45.359708230415364" lon="9.22068095970436"><ele>97.0</ele><time>2026-04-12T09:21:03.001Z</time></trkpt><trkpt lat="45.3596340708264" lon="9.220717869459985"><ele>97.0</ele><time>2026-04-12T09:21:08.001Z</time></trkpt><trkpt lat="45.35956328946034" lon="9.220729231886704"><ele>97.00000000000001</ele><time>2026-04-12T09:21:11.001Z</time></trkpt><trkpt lat="45.359525082448314" lon="9.2206285465415"><ele>97.0</ele><time>2026-04-12T09:21:13.001Z</time></trkpt><trkpt lat="45.35949321761247" lon="9.22054735811549"><ele>97.0</ele><time>2026-04-12T09:21:15.001Z</time></trkpt><trkpt lat="45.35946713728489" lon="9.220461759799822"><ele>97.0</ele><time>2026-04-12T09:21:17.001Z</time></trkpt><trkpt lat="45.359409889707074" lon="9.220414071027577"><ele>97.0</ele><time>2026-04-12T09:21:19.001Z</time></trkpt><trkpt lat="45.35946758851604" lon="9.220345854484396"><ele>97.0</ele><time>2026-04-12T09:32:51.001Z</time></trkpt><trkpt lat="45.35957795779776" lon="9.220391309982867"><ele>97.0</ele><time>2026-04-12T09:32:56.001Z</time></trkpt><trkpt lat="45.3597674755159" lon="9.22024220746531"><ele>97.16666666666667</ele><time>2026-04-12T09:33:03Z</time></trkpt><trkpt lat="45.35983267681216" lon="9.220183929926955"><ele>97.33333333333334</ele><time>2026-04-12T09:33:05Z</time></trkpt><trkpt lat="45.3598992903481" lon="9.220129696210586"><ele>97.5</ele><time>2026-04-12T09:33:08Z</time></trkpt><trkpt lat="45.35997019645952" lon="9.220045428417249"><ele>97.66666666666666</ele><time>2026-04-12T09:33:11Z</time></trkpt><trkpt lat="45.36004307076683" lon="9.219962894835813"><ele>97.83333333333333</ele><time>2026-04-12T09:33:14Z</time></trkpt><trkpt lat="45.36009598246953" lon="9.219909716894925"><ele>98.0</ele><time>2026-04-12T09:33:16Z</time></trkpt><trkpt lat="45.36014735629535" lon="9.219857136637472"><ele>97.99999999999999</ele><time>2026-04-12T09:33:18Z</time></trkpt><trkpt lat="45.360225520028806" lon="9.219795527466946"><ele>98.0</ele><time>2026-04-12T09:33:21Z</time></trkpt><trkpt lat="45.36027717597227" lon="9.219740693134096"><ele>98.0</ele><time>2026-04-12T09:33:23Z</time></trkpt><trkpt lat="45.36035831839868" lon="9.219681107146252"><ele>98.0</ele><time>2026-04-12T09:33:26Z</time></trkpt><trkpt lat="45.360439336117864" lon="9.219620181783615"><ele>97.99999999999999</ele><time>2026-04-12T09:33:29Z</time></trkpt><trkpt lat="45.36051719429892" lon="9.219559702659769"><ele>98.0</ele><time>2026-04-12T09:33:32Z</time></trkpt><trkpt lat="45.36057351637973" lon="9.219519270922767"><ele>97.71428571428571</ele><time>2026-04-12T09:33:34Z</time></trkpt><trkpt lat="45.36063034764855" lon="9.219469361774545"><ele>97.42857142857143</ele><time>2026-04-12T09:33:37Z</time></trkpt><trkpt lat="45.36069525096679" lon="9.219401061912885"><ele>97.14285714285714</ele><time>2026-04-12T09:33:41Z</time></trkpt><trkpt lat="45.360765767058815" lon="9.21936072536051"><ele>96.85714285714286</ele><time>2026-04-12T09:33:44Z</time></trkpt><trkpt lat="45.36081369942168" lon="9.21942710998408"><ele>96.57142857142857</ele><time>2026-04-12T09:33:46Z</time></trkpt><trkpt lat="45.360867682606994" lon="9.219475019164378"><ele>96.28571428571428</ele><time>2026-04-12T09:33:48Z</time></trkpt><trkpt lat="45.36094074479341" lon="9.21955619968705"><ele>96.0</ele><time>2026-04-12T09:33:53.001Z</time></trkpt><trkpt lat="45.361014730041944" lon="9.219566501198122"><ele>95.99999999999999</ele><time>2026-04-12T09:33:55.001Z</time></trkpt><trkpt lat="45.361084710238465" lon="9.219547439324126"><ele>96.0</ele><time>2026-04-12T09:33:57.001Z</time></trkpt><trkpt lat="45.36115930117647" lon="9.21952016606667"><ele>96.0</ele><time>2026-04-12T09:33:59.001Z</time></trkpt><trkpt lat="45.36123438026492" lon="9.219501380837178"><ele>96.0</ele><time>2026-04-12T09:34:01.001Z</time></trkpt><trkpt lat="45.36130566520997" lon="9.219485950714798"><ele>96.0</ele><time>2026-04-12T09:34:03.001Z</time></trkpt><trkpt lat="45.36137660623102" lon="9.21946721413612"><ele>95.99999999999999</ele><time>2026-04-12T09:34:05.001Z</time></trkpt><trkpt lat="45.36144997865528" lon="9.219446797372898"><ele>96.0</ele><time>2026-04-12T09:34:07.001Z</time></trkpt><trkpt lat="45.361523122550324" lon="9.219431782854222"><ele>96.16666666666667</ele><time>2026-04-12T09:34:09.001Z</time></trkpt><trkpt lat="45.361594409665194" lon="9.219409360916412"><ele>96.33333333333334</ele><time>2026-04-12T09:34:11.001Z</time></trkpt><trkpt lat="45.36166991303452" lon="9.219400509243684"><ele>96.5</ele><time>2026-04-12T09:34:13.001Z</time></trkpt><trkpt lat="45.36174481628903" lon="9.219378484087073"><ele>96.66666666666667</ele><time>2026-04-12T09:34:15.001Z</time></trkpt><trkpt lat="45.36182256453211" lon="9.219361151828538"><ele>96.83333333333334</ele><time>2026-04-12T09:34:17.001Z</time></trkpt><trkpt lat="45.3618988533644" lon="9.219341154863422"><ele>97.0</ele><time>2026-04-12T09:34:19.001Z</time></trkpt><trkpt lat="45.361980545990946" lon="9.219315269364772"><ele>97.0</ele><time>2026-04-12T09:34:21.001Z</time></trkpt><trkpt lat="45.36206168052571" lon="9.219294601512946"><ele>97.0</ele><time>2026-04-12T09:34:23.001Z</time></trkpt><trkpt lat="45.36213605706822" lon="9.219272979489935"><ele>97.0</ele><time>2026-04-12T09:34:25.001Z</time></trkpt><trkpt lat="45.36220894809819" lon="9.219245477541447"><ele>97.0</ele><time>2026-04-12T09:34:27.001Z</time></trkpt><trkpt lat="45.36226872539829" lon="9.219214288406175"><ele>97.0</ele><time>2026-04-12T09:34:29.001Z</time></trkpt><trkpt lat="45.36233644773829" lon="9.219169586692347"><ele>97.0</ele><time>2026-04-12T09:34:31.001Z</time></trkpt><trkpt lat="45.362394577168025" lon="9.219104393642155"><ele>97.0</ele><time>2026-04-12T09:34:33.001Z</time></trkpt><trkpt lat="45.3624445334304" lon="9.219031857366907"><ele>97.16666666666667</ele><time>2026-04-12T09:34:35.001Z</time></trkpt><trkpt lat="45.362505487767415" lon="9.218939995445"><ele>97.33333333333334</ele><time>2026-04-12T09:34:37.001Z</time></trkpt><trkpt lat="45.36258360424234" lon="9.21887712765053"><ele>97.5</ele><time>2026-04-12T09:34:39.001Z</time></trkpt><trkpt lat="45.362675374073845" lon="9.218872429738843"><ele>97.66666666666666</ele><time>2026-04-12T09:34:41.001Z</time></trkpt><trkpt lat="45.36275526182971" lon="9.218927488407624"><ele>97.83333333333333</ele><time>2026-04-12T09:34:43.001Z</time></trkpt><trkpt lat="45.36282806109327" lon="9.218983361623074"><ele>98.0</ele><time>2026-04-12T09:34:45.001Z</time></trkpt><trkpt lat="45.36291281757884" lon="9.219005987439276"><ele>97.99999999999999</ele><time>2026-04-12T09:34:47.001Z</time></trkpt><trkpt lat="45.3629972838007" lon="9.219017722940698"><ele>98.0</ele><time>2026-04-12T09:34:49.001Z</time></trkpt><trkpt lat="45.36308294757413" lon="9.219010332749429"><ele>98.0</ele><time>2026-04-12T09:34:51.001Z</time></trkpt><trkpt lat="45.36317823857116" lon="9.21899329945335"><ele>98.0</ele><time>2026-04-12T09:34:53.001Z</time></trkpt><trkpt lat="45.36325762939918" lon="9.218968486900406"><ele>97.99999999999999</ele><time>2026-04-12T09:34:55.001Z</time></trkpt><trkpt lat="45.36334673812984" lon="9.218939888429896"><ele>98.0</ele><time>2026-04-12T09:34:57.001Z</time></trkpt><trkpt lat="45.36343704118738" lon="9.218918771647788"><ele>98.0</ele><time>2026-04-12T09:34:59.001Z</time></trkpt><trkpt lat="45.36352795030191" lon="9.218887460931537"><ele>98.0</ele><time>2026-04-12T09:35:01.001Z</time></trkpt><trkpt lat="45.36360989483981" lon="9.218830656540153"><ele>98.0</ele><time>2026-04-12T09:35:03Z</time></trkpt><trkpt lat="45.363699075598504" lon="9.218828989268639"><ele>98.0</ele><time>2026-04-12T09:35:05Z</time></trkpt><trkpt lat="45.363787469410035" lon="9.218808084474693"><ele>98.0</ele><time>2026-04-12T09:35:07Z</time></trkpt><trkpt lat="45.36387641307808" lon="9.218782614480574"><ele>97.66666666666666</ele><time>2026-04-12T09:35:09Z</time></trkpt><trkpt lat="45.36396952722612" lon="9.21875958070322"><ele>97.33333333333333</ele><time>2026-04-12T09:35:11Z</time></trkpt><trkpt lat="45.36405831150991" lon="9.21873731823553"><ele>97.0</ele><time>2026-04-12T09:35:13Z</time></trkpt><trkpt lat="45.36414264529268" lon="9.218714676352224"><ele>96.66666666666666</ele><time>2026-04-12T09:35:15Z</time></trkpt><trkpt lat="45.364223622260816" lon="9.218690296900085"><ele>96.33333333333333</ele><time>2026-04-12T09:35:17Z</time></trkpt><trkpt lat="45.3643033173291" lon="9.218674702270132"><ele>96.0</ele><time>2026-04-12T09:35:19Z</time></trkpt><trkpt lat="45.36437920599436" lon="9.218668163985338"><ele>96.0</ele><time>2026-04-12T09:35:21Z</time></trkpt><trkpt lat="45.36444939070786" lon="9.218677732486897"><ele>96.0</ele><time>2026-04-12T09:35:23Z</time></trkpt><trkpt lat="45.36452017314891" lon="9.218740716616622"><ele>96.0</ele><time>2026-04-12T09:35:25Z</time></trkpt><trkpt lat="45.36458058003129" lon="9.218813227045906"><ele>96.0</ele><time>2026-04-12T09:35:27Z</time></trkpt><trkpt lat="45.36465986315686" lon="9.218837968240836"><ele>96.0</ele><time>2026-04-12T09:35:29Z</time></trkpt><trkpt lat="45.364746163565144" lon="9.21880915792368"><ele>96.0</ele><time>2026-04-12T09:35:31Z</time></trkpt><trkpt lat="45.36481741746899" lon="9.21873505477706"><ele>95.5</ele><time>2026-04-12T09:35:33Z</time></trkpt><trkpt lat="45.36487134099346" lon="9.218646070727281"><ele>95.0</ele><time>2026-04-12T09:35:35Z</time></trkpt><trkpt lat="45.36490537762969" lon="9.218544169011995"><ele>94.5</ele><time>2026-04-12T09:35:37Z</time></trkpt><trkpt lat="45.36497403196424" lon="9.218466591380597"><ele>94.0</ele><time>2026-04-12T09:35:39Z</time></trkpt><trkpt lat="45.36506553222688" lon="9.218440272441844"><ele>93.5</ele><time>2026-04-12T09:35:41Z</time></trkpt><trkpt lat="45.36515929002252" lon="9.2183855597528"><ele>93.0</ele><time>2026-04-12T09:35:43Z</time></trkpt><trkpt lat="45.36524950698386" lon="9.218341157890658"><ele>93.0</ele><time>2026-04-12T09:35:45Z</time></trkpt><trkpt lat="45.36533018390338" lon="9.218291257208751"><ele>93.0</ele><time>2026-04-12T09:35:47Z</time></trkpt><trkpt lat="45.365410436891395" lon="9.218247150320591"><ele>93.0</ele><time>2026-04-12T09:35:49Z</time></trkpt><trkpt lat="45.365489714069" lon="9.218203265554658"><ele>93.0</ele><time>2026-04-12T09:35:51Z</time></trkpt><trkpt lat="45.365566261973974" lon="9.218160713801064"><ele>93.0</ele><time>2026-04-12T09:35:53Z</time></trkpt><trkpt lat="45.36564163786326" lon="9.218112854839692"><ele>93.0</ele><time>2026-04-12T09:35:55Z</time></trkpt><trkpt lat="45.36571398573092" lon="9.218070498459351"><ele>93.33333333333333</ele><time>2026-04-12T09:35:57Z</time></trkpt><trkpt lat="45.365785507623244" lon="9.218027032235751"><ele>93.66666666666667</ele><time>2026-04-12T09:35:59Z</time></trkpt><trkpt lat="45.365843550525845" lon="9.217990920579743"><ele>94.0</ele><time>2026-04-12T09:36:01Z</time></trkpt><trkpt lat="45.36590650187154" lon="9.21794729108643"><ele>94.33333333333334</ele><time>2026-04-12T09:36:03Z</time></trkpt><trkpt lat="45.365988079855335" lon="9.217887208222116"><ele>94.66666666666667</ele><time>2026-04-12T09:36:05Z</time></trkpt><trkpt lat="45.36608126349682" lon="9.217842968742472"><ele>95.0</ele><time>2026-04-12T09:36:07Z</time></trkpt><trkpt lat="45.36616876453122" lon="9.21778985560375"><ele>95.0</ele><time>2026-04-12T09:36:09Z</time></trkpt><trkpt lat="45.36625426625216" lon="9.21773892488717"><ele>95.0</ele><time>2026-04-12T09:36:11Z</time></trkpt><trkpt lat="45.366339862173945" lon="9.217691959272486"><ele>95.0</ele><time>2026-04-12T09:36:13Z</time></trkpt><trkpt lat="45.366427256073344" lon="9.217637614712874"><ele>95.0</ele><time>2026-04-12T09:36:15Z</time></trkpt><trkpt lat="45.36651175359308" lon="9.217564759339497"><ele>95.0</ele><time>2026-04-12T09:36:17.001Z</time></trkpt><trkpt lat="45.36659497778734" lon="9.21749511669629"><ele>95.0</ele><time>2026-04-12T09:36:19.001Z</time></trkpt><trkpt lat="45.36667181239747" lon="9.217412071639234"><ele>95.0</ele><time>2026-04-12T09:36:21.001Z</time></trkpt><trkpt lat="45.36675208954775" lon="9.217330754989218"><ele>95.0</ele><time>2026-04-12T09:36:23.001Z</time></trkpt><trkpt lat="45.36683540944088" lon="9.21724777836383"><ele>95.0</ele><time>2026-04-12T09:36:25.001Z</time></trkpt><trkpt lat="45.36691617576048" lon="9.217165290852693"><ele>95.0</ele><time>2026-04-12T09:36:27.001Z</time></trkpt><trkpt lat="45.366998025879546" lon="9.217084998999544"><ele>94.8</ele><time>2026-04-12T09:36:29.001Z</time></trkpt><trkpt lat="45.36707422003954" lon="9.217002916590735"><ele>94.6</ele><time>2026-04-12T09:36:31.001Z</time></trkpt><trkpt lat="45.36714850053086" lon="9.216922511557161"><ele>94.4</ele><time>2026-04-12T09:36:33.001Z</time></trkpt><trkpt lat="45.36722413047164" lon="9.216843390574235"><ele>94.2</ele><time>2026-04-12T09:36:35.001Z</time></trkpt><trkpt lat="45.367298414592106" lon="9.216758733407515"><ele>94.0</ele><time>2026-04-12T09:36:37.001Z</time></trkpt><trkpt lat="45.367375133053166" lon="9.216671192394537"><ele>94.0</ele><time>2026-04-12T09:36:39.001Z</time></trkpt><trkpt lat="45.36745888191645" lon="9.216587567461621"><ele>94.0</ele><time>2026-04-12T09:36:41.001Z</time></trkpt><trkpt lat="45.36754084339383" lon="9.216501505700586"><ele>94.0</ele><time>2026-04-12T09:36:43.001Z</time></trkpt><trkpt lat="45.367623160695544" lon="9.216419594366833"><ele>94.0</ele><time>2026-04-12T09:36:45.001Z</time></trkpt><trkpt lat="45.367705468005056" lon="9.216347074440556"><ele>94.0</ele><time>2026-04-12T09:36:47.001Z</time></trkpt><trkpt lat="45.36778443846188" lon="9.216266989725284"><ele>94.0</ele><time>2026-04-12T09:36:49.001Z</time></trkpt><trkpt lat="45.36786720049742" lon="9.216197445312469"><ele>94.0</ele><time>2026-04-12T09:36:51.001Z</time></trkpt><trkpt lat="45.367948811487175" lon="9.216121590958089"><ele>94.0</ele><time>2026-04-12T09:36:53.001Z</time></trkpt><trkpt lat="45.36803075839028" lon="9.21604399434738"><ele>94.0</ele><time>2026-04-12T09:36:55.001Z</time></trkpt><trkpt lat="45.368113299773206" lon="9.215965218152471"><ele>94.0</ele><time>2026-04-12T09:36:57.001Z</time></trkpt><trkpt lat="45.368189130771164" lon="9.215880929838413"><ele>94.6</ele><time>2026-04-12T09:36:59.001Z</time></trkpt><trkpt lat="45.36825212767045" lon="9.21578543300813"><ele>95.2</ele><time>2026-04-12T09:37:01.001Z</time></trkpt><trkpt lat="45.36832984086803" lon="9.215708684031819"><ele>95.8</ele><time>2026-04-12T09:37:03.001Z</time></trkpt><trkpt lat="45.36838850126952" lon="9.215604349460248"><ele>96.39999999999999</ele><time>2026-04-12T09:37:05.001Z</time></trkpt><trkpt lat="45.36844632274166" lon="9.21548932055148"><ele>97.0</ele><time>2026-04-12T09:37:07.001Z</time></trkpt><trkpt lat="45.36850225523495" lon="9.215376079608617"><ele>97.0</ele><time>2026-04-12T09:37:09Z</time></trkpt><trkpt lat="45.36856504243226" lon="9.2152670763398"><ele>97.0</ele><time>2026-04-12T09:37:11Z</time></trkpt><trkpt lat="45.368627438150305" lon="9.215158116324162"><ele>97.0</ele><time>2026-04-12T09:37:13Z</time></trkpt><trkpt lat="45.368701609815666" lon="9.215061661546265"><ele>97.0</ele><time>2026-04-12T09:37:15Z</time></trkpt><trkpt lat="45.36878639163338" lon="9.214974816062806"><ele>97.0</ele><time>2026-04-12T09:37:17Z</time></trkpt><trkpt lat="45.36886370223504" lon="9.214891056180184"><ele>97.16666666666667</ele><time>2026-04-12T09:37:19Z</time></trkpt><trkpt lat="45.368942412541394" lon="9.214824208186869"><ele>97.33333333333334</ele><time>2026-04-12T09:37:21Z</time></trkpt><trkpt lat="45.369019633610925" lon="9.214761078113044"><ele>97.5</ele><time>2026-04-12T09:37:23Z</time></trkpt><trkpt lat="45.36909854612039" lon="9.214718518132763"><ele>97.66666666666666</ele><time>2026-04-12T09:37:25Z</time></trkpt><trkpt lat="45.369173863570985" lon="9.214676236752817"><ele>97.83333333333333</ele><time>2026-04-12T09:37:27Z</time></trkpt><trkpt lat="45.36924862852414" lon="9.214642456092788"><ele>98.0</ele><time>2026-04-12T09:37:29Z</time></trkpt><trkpt lat="45.36932081425784" lon="9.214667720080264"><ele>98.16666666666666</ele><time>2026-04-12T09:37:31Z</time></trkpt><trkpt lat="45.36937114305694" lon="9.214745522940712"><ele>98.33333333333333</ele><time>2026-04-12T09:37:33Z</time></trkpt><trkpt lat="45.36943564601853" lon="9.214726711252894"><ele>98.5</ele><time>2026-04-12T09:37:37Z</time></trkpt><trkpt lat="45.36950821212408" lon="9.214688055997174"><ele>98.66666666666666</ele><time>2026-04-12T09:37:40Z</time></trkpt><trkpt lat="45.36957853390703" lon="9.214656055190352"><ele>98.83333333333333</ele><time>2026-04-12T09:37:42Z</time></trkpt><trkpt lat="45.369661556059455" lon="9.214601343709843"><ele>99.0</ele><time>2026-04-12T09:37:44Z</time></trkpt><trkpt lat="45.36973377818944" lon="9.214512535270066"><ele>99.0</ele><time>2026-04-12T09:37:46Z</time></trkpt><trkpt lat="45.3698175472572" lon="9.21444989944553"><ele>99.0</ele><time>2026-04-12T09:37:48Z</time></trkpt><trkpt lat="45.36988761804245" lon="9.214363489304791"><ele>99.0</ele><time>2026-04-12T09:37:50Z</time></trkpt><trkpt lat="45.36996343316449" lon="9.214283509612969"><ele>99.0</ele><time>2026-04-12T09:37:52Z</time></trkpt><trkpt lat="45.37003328855116" lon="9.214198719743504"><ele>99.0</ele><time>2026-04-12T09:37:54Z</time></trkpt><trkpt lat="45.37011030214146" lon="9.214126347730842"><ele>99.0</ele><time>2026-04-12T09:37:56Z</time></trkpt><trkpt lat="45.37018395544551" lon="9.214067608040478"><ele>99.0</ele><time>2026-04-12T09:37:58Z</time></trkpt><trkpt lat="45.37025908279401" lon="9.214017586793721"><ele>99.0</ele><time>2026-04-12T09:38:00Z</time></trkpt><trkpt lat="45.37033788782194" lon="9.213990187411904"><ele>99.0</ele><time>2026-04-12T09:38:02Z</time></trkpt><trkpt lat="45.37041219342587" lon="9.21393830171079"><ele>99.0</ele><time>2026-04-12T09:38:04Z</time></trkpt><trkpt lat="45.370486651038654" lon="9.213888833325852"><ele>99.0</ele><time>2026-04-12T09:38:06Z</time></trkpt><trkpt lat="45.37055811105035" lon="9.213831758493034"><ele>99.33333333333333</ele><time>2026-04-12T09:38:08Z</time></trkpt><trkpt lat="45.370640131982235" lon="9.21379330824016"><ele>99.66666666666666</ele><time>2026-04-12T09:38:10Z</time></trkpt><trkpt lat="45.370725876011385" lon="9.213785172081526"><ele>100.0</ele><time>2026-04-12T09:38:12Z</time></trkpt><trkpt lat="45.37080860679163" lon="9.213755750938272"><ele>100.33333333333333</ele><time>2026-04-12T09:38:14Z</time></trkpt><trkpt lat="45.37090868947188" lon="9.213746069690744"><ele>100.66666666666666</ele><time>2026-04-12T09:38:16Z</time></trkpt><trkpt lat="45.370968932150234" lon="9.21367264554245"><ele>101.0</ele><time>2026-04-12T09:38:18Z</time></trkpt><trkpt lat="45.371063091266365" lon="9.213643875508593"><ele>100.99999999999999</ele><time>2026-04-12T09:38:20Z</time></trkpt><trkpt lat="45.37115585158804" lon="9.213629445074295"><ele>101.0</ele><time>2026-04-12T09:38:22Z</time></trkpt><trkpt lat="45.37124321857293" lon="9.213615740743327"><ele>101.0</ele><time>2026-04-12T09:38:24Z</time></trkpt><trkpt lat="45.37130968075245" lon="9.213603397360487"><ele>101.0</ele><time>2026-04-12T09:38:26Z</time></trkpt><trkpt lat="45.37140034346915" lon="9.213566727446404"><ele>100.99999999999999</ele><time>2026-04-12T09:38:28Z</time></trkpt><trkpt lat="45.371483691414305" lon="9.213548904998236"><ele>101.0</ele><time>2026-04-12T09:38:30Z</time></trkpt><trkpt lat="45.37156995007753" lon="9.213538985109968"><ele>101.0</ele><time>2026-04-12T09:38:32Z</time></trkpt><trkpt lat="45.37164566179701" lon="9.213533836589543"><ele>101.0</ele><time>2026-04-12T09:38:34Z</time></trkpt><trkpt lat="45.37171796981878" lon="9.213538266418993"><ele>101.0</ele><time>2026-04-12T09:38:36.001Z</time></trkpt><trkpt lat="45.37178457732078" lon="9.213580839971"><ele>101.0</ele><time>2026-04-12T09:38:38.001Z</time></trkpt><trkpt lat="45.37185680794436" lon="9.213588880974333"><ele>101.0</ele><time>2026-04-12T09:38:40.001Z</time></trkpt><trkpt lat="45.37192876275164" lon="9.213563810570117"><ele>101.0</ele><time>2026-04-12T09:38:42.001Z</time></trkpt><trkpt lat="45.371994126032526" lon="9.213531438156428"><ele>101.0</ele><time>2026-04-12T09:38:44.001Z</time></trkpt><trkpt lat="45.37207100292792" lon="9.213464770145155"><ele>101.0</ele><time>2026-04-12T09:38:47.001Z</time></trkpt><trkpt lat="45.37211575374818" lon="9.213368775281257"><ele>101.0</ele><time>2026-04-12T09:38:50.001Z</time></trkpt><trkpt lat="45.37219843251406" lon="9.213331873445188"><ele>101.0</ele><time>2026-04-12T09:38:53.001Z</time></trkpt><trkpt lat="45.372271962417784" lon="9.213305171218009"><ele>101.0</ele><time>2026-04-12T09:38:55.001Z</time></trkpt><trkpt lat="45.37233960851233" lon="9.213290146865639"><ele>101.0</ele><time>2026-04-12T09:38:57.001Z</time></trkpt><trkpt lat="45.37240106006936" lon="9.213248782954878"><ele>101.0</ele><time>2026-04-12T09:38:59.001Z</time></trkpt><trkpt lat="45.37245913694279" lon="9.213203640949189"><ele>101.0</ele><time>2026-04-12T09:39:01.001Z</time></trkpt><trkpt lat="45.37251904660295" lon="9.21316758756189"><ele>101.16666666666666</ele><time>2026-04-12T09:39:03.001Z</time></trkpt><trkpt lat="45.37260289264333" lon="9.213119297855961"><ele>101.33333333333333</ele><time>2026-04-12T09:39:06.001Z</time></trkpt><trkpt lat="45.37267616580815" lon="9.213065576221346"><ele>101.5</ele><time>2026-04-12T09:39:09.001Z</time></trkpt><trkpt lat="45.372741156065786" lon="9.213025912053503"><ele>101.66666666666666</ele><time>2026-04-12T09:39:12.001Z</time></trkpt><trkpt lat="45.37278866468748" lon="9.21309556221429"><ele>101.83333333333333</ele><time>2026-04-12T09:39:16Z</time></trkpt><trkpt lat="45.372792014177236" lon="9.213217688908177"><ele>102.0</ele><time>2026-04-12T09:39:19Z</time></trkpt><trkpt lat="45.372824719428564" lon="9.213333773781672"><ele>102.0</ele><time>2026-04-12T09:39:22Z</time></trkpt><trkpt lat="45.37281163290416" lon="9.213459114381548"><ele>102.0</ele><time>2026-04-12T09:39:25Z</time></trkpt><trkpt lat="45.37283897924178" lon="9.213553661807921"><ele>102.0</ele><time>2026-04-12T09:39:28Z</time></trkpt><trkpt lat="45.37288658015576" lon="9.213650306676465"><ele>102.0</ele><time>2026-04-12T09:39:32Z</time></trkpt><trkpt lat="45.37295896813605" lon="9.213734827632756"><ele>102.0</ele><time>2026-04-12T09:39:35Z</time></trkpt><trkpt lat="45.373039172937844" lon="9.213718589137738"><ele>102.0</ele><time>2026-04-12T09:39:37Z</time></trkpt><trkpt lat="45.37312539938856" lon="9.213700245727296"><ele>102.0</ele><time>2026-04-12T09:39:39Z</time></trkpt><trkpt lat="45.37321414949071" lon="9.213701640853785"><ele>102.0</ele><time>2026-04-12T09:39:41Z</time></trkpt><trkpt lat="45.3733003000459" lon="9.213688270976567"><ele>102.0</ele><time>2026-04-12T09:39:43Z</time></trkpt><trkpt lat="45.37338811605686" lon="9.213655130902476"><ele>102.0</ele><time>2026-04-12T09:39:45Z</time></trkpt><trkpt lat="45.37348064875377" lon="9.213633759576426"><ele>102.0</ele><time>2026-04-12T09:39:47Z</time></trkpt><trkpt lat="45.37357336946629" lon="9.213611944832554"><ele>102.0</ele><time>2026-04-12T09:39:49Z</time></trkpt><trkpt lat="45.37366479978285" lon="9.213584805232408"><ele>102.0</ele><time>2026-04-12T09:39:51Z</time></trkpt><trkpt lat="45.37375819162546" lon="9.213553801380973"><ele>102.0</ele><time>2026-04-12T09:39:53Z</time></trkpt><trkpt lat="45.37384648229457" lon="9.213512569093487"><ele>102.0</ele><time>2026-04-12T09:39:55Z</time></trkpt><trkpt lat="45.37393715407093" lon="9.213481770024888"><ele>102.0</ele><time>2026-04-12T09:39:57Z</time></trkpt><trkpt lat="45.37402153354438" lon="9.213434159456602"><ele>101.66666666666667</ele><time>2026-04-12T09:39:59Z</time></trkpt><trkpt lat="45.37411109639542" lon="9.213416259849517"><ele>101.33333333333334</ele><time>2026-04-12T09:40:01Z</time></trkpt><trkpt lat="45.37418407641215" lon="9.213487888544527"><ele>101.0</ele><time>2026-04-12T09:40:03Z</time></trkpt><trkpt lat="45.37421784873001" lon="9.21360769428806"><ele>100.66666666666667</ele><time>2026-04-12T09:40:05Z</time></trkpt><trkpt lat="45.37423771742464" lon="9.213732707192642"><ele>100.33333333333334</ele><time>2026-04-12T09:40:07Z</time></trkpt><trkpt lat="45.37426571468338" lon="9.213851629425251"><ele>100.0</ele><time>2026-04-12T09:40:09Z</time></trkpt><trkpt lat="45.37429077376147" lon="9.21397030277559"><ele>99.83333333333334</ele><time>2026-04-12T09:40:11Z</time></trkpt><trkpt lat="45.374325896424985" lon="9.214085899975064"><ele>99.66666666666667</ele><time>2026-04-12T09:40:13Z</time></trkpt><trkpt lat="45.37434710155643" lon="9.21420354565809"><ele>99.5</ele><time>2026-04-12T09:40:15Z</time></trkpt><trkpt lat="45.37437528151293" lon="9.214313498817258"><ele>99.33333333333334</ele><time>2026-04-12T09:40:17Z</time></trkpt><trkpt lat="45.37442155985651" lon="9.214399559332746"><ele>99.16666666666667</ele><time>2026-04-12T09:40:19Z</time></trkpt><trkpt lat="45.37450220470873" lon="9.214379028438573"><ele>99.0</ele><time>2026-04-12T09:40:21Z</time></trkpt><trkpt lat="45.37457861574085" lon="9.214337511886319"><ele>99.0</ele><time>2026-04-12T09:40:23Z</time></trkpt><trkpt lat="45.37465434436641" lon="9.21432059823532"><ele>99.0</ele><time>2026-04-12T09:40:25Z</time></trkpt><trkpt lat="45.37472796812145" lon="9.21430584507308"><ele>99.0</ele><time>2026-04-12T09:40:27Z</time></trkpt><trkpt lat="45.374803806976914" lon="9.214287243811121"><ele>99.0</ele><time>2026-04-12T09:40:29.001Z</time></trkpt><trkpt lat="45.37487723329039" lon="9.214265400355778"><ele>99.0</ele><time>2026-04-12T09:40:31.001Z</time></trkpt><trkpt lat="45.37495105854187" lon="9.214246967026087"><ele>99.0</ele><time>2026-04-12T09:40:33.001Z</time></trkpt><trkpt lat="45.375007697523756" lon="9.214306577182937"><ele>99.0</ele><time>2026-04-12T09:40:35.001Z</time></trkpt><trkpt lat="45.37510170071936" lon="9.214302062382302"><ele>99.14285714285715</ele><time>2026-04-12T09:40:38.001Z</time></trkpt><trkpt lat="45.375177151296086" lon="9.214301474050147"><ele>99.28571428571428</ele><time>2026-04-12T09:40:40.001Z</time></trkpt><trkpt lat="45.37525309562087" lon="9.214284686542472"><ele>99.42857142857143</ele><time>2026-04-12T09:40:42.001Z</time></trkpt><trkpt lat="45.375317204150186" lon="9.214270422802926"><ele>99.57142857142858</ele><time>2026-04-12T09:40:44.001Z</time></trkpt><trkpt lat="45.37536331850981" lon="9.214342898806546"><ele>99.71428571428572</ele><time>2026-04-12T09:40:46.001Z</time></trkpt><trkpt lat="45.375358118200346" lon="9.214463735143923"><ele>99.85714285714286</ele><time>2026-04-12T09:40:48.001Z</time></trkpt><trkpt lat="45.3753809902223" lon="9.214569266749352"><ele>100.0</ele><time>2026-04-12T09:40:50.001Z</time></trkpt><trkpt lat="45.37539929322721" lon="9.214681435999987"><ele>100.00000000000001</ele><time>2026-04-12T09:40:52.001Z</time></trkpt><trkpt lat="45.37541759176353" lon="9.21479386481643"><ele>100.0</ele><time>2026-04-12T09:40:54.001Z</time></trkpt><trkpt lat="45.375436562120385" lon="9.214908837864453"><ele>100.0</ele><time>2026-04-12T09:40:56.001Z</time></trkpt><trkpt lat="45.375464513495544" lon="9.215020881346126"><ele>100.0</ele><time>2026-04-12T09:40:58.001Z</time></trkpt><trkpt lat="45.37548521778478" lon="9.215133490835237"><ele>100.00000000000001</ele><time>2026-04-12T09:41:00.001Z</time></trkpt><trkpt lat="45.37550033190084" lon="9.215252043390775"><ele>100.0</ele><time>2026-04-12T09:41:02.001Z</time></trkpt><trkpt lat="45.3755140953746" lon="9.215376083361015"><ele>100.00000000000001</ele><time>2026-04-12T09:41:04.001Z</time></trkpt><trkpt lat="45.37553522065604" lon="9.215495167115815"><ele>100.0</ele><time>2026-04-12T09:41:06.001Z</time></trkpt><trkpt lat="45.37555500901049" lon="9.215617024650207"><ele>100.0</ele><time>2026-04-12T09:41:08.001Z</time></trkpt><trkpt lat="45.37557392671896" lon="9.215733868981973"><ele>100.0</ele><time>2026-04-12T09:41:10.001Z</time></trkpt><trkpt lat="45.37559669682626" lon="9.215853477919438"><ele>100.00000000000001</ele><time>2026-04-12T09:41:12.001Z</time></trkpt><trkpt lat="45.375616700536355" lon="9.215974243944773"><ele>100.0</ele><time>2026-04-12T09:41:14.001Z</time></trkpt><trkpt lat="45.375637618110126" lon="9.216093798412526"><ele>100.00000000000001</ele><time>2026-04-12T09:41:16.001Z</time></trkpt><trkpt lat="45.375662994052256" lon="9.216214297974517"><ele>100.0</ele><time>2026-04-12T09:41:18.001Z</time></trkpt><trkpt lat="45.375686707806295" lon="9.216335206576806"><ele>100.0</ele><time>2026-04-12T09:41:20Z</time></trkpt><trkpt lat="45.37569966436385" lon="9.216460932504294"><ele>100.0</ele><time>2026-04-12T09:41:22Z</time></trkpt><trkpt lat="45.37571907435613" lon="9.216578189053505"><ele>100.00000000000001</ele><time>2026-04-12T09:41:24Z</time></trkpt><trkpt lat="45.375741169671834" lon="9.216680853256875"><ele>100.0</ele><time>2026-04-12T09:41:26Z</time></trkpt><trkpt lat="45.37581860119463" lon="9.216730921547478"><ele>100.50000000000001</ele><time>2026-04-12T09:41:29Z</time></trkpt><trkpt lat="45.37589878092539" lon="9.216717788792765"><ele>101.0</ele><time>2026-04-12T09:41:31Z</time></trkpt><trkpt lat="45.375981113223105" lon="9.216687997083561"><ele>101.5</ele><time>2026-04-12T09:41:33Z</time></trkpt><trkpt lat="45.37606526373945" lon="9.2166573510429"><ele>102.0</ele><time>2026-04-12T09:41:35Z</time></trkpt><trkpt lat="45.37614869524864" lon="9.216625968168186"><ele>102.50000000000001</ele><time>2026-04-12T09:41:37Z</time></trkpt><trkpt lat="45.376230785117755" lon="9.216633758339645"><ele>103.0</ele><time>2026-04-12T09:41:39Z</time></trkpt><trkpt lat="45.37625827483992" lon="9.216768356525456"><ele>103.00000000000001</ele><time>2026-04-12T09:41:41Z</time></trkpt><trkpt lat="45.37626506366761" lon="9.216896554126842"><ele>103.0</ele><time>2026-04-12T09:41:43Z</time></trkpt><trkpt lat="45.37628147367556" lon="9.217019393237766"><ele>103.0</ele><time>2026-04-12T09:41:45Z</time></trkpt><trkpt lat="45.376296699198925" lon="9.217144025114933"><ele>103.0</ele><time>2026-04-12T09:41:47Z</time></trkpt><trkpt lat="45.3763104636772" lon="9.217262070951321"><ele>103.00000000000001</ele><time>2026-04-12T09:41:49Z</time></trkpt><trkpt lat="45.37632385115026" lon="9.217377632071008"><ele>103.0</ele><time>2026-04-12T09:41:51Z</time></trkpt><trkpt lat="45.37639074645437" lon="9.217458040080281"><ele>102.60000000000001</ele><time>2026-04-12T09:41:53Z</time></trkpt><trkpt lat="45.37648734670666" lon="9.217422922858038"><ele>102.2</ele><time>2026-04-12T09:41:55Z</time></trkpt><trkpt lat="45.37657488242304" lon="9.217392604335444"><ele>101.8</ele><time>2026-04-12T09:41:57Z</time></trkpt><trkpt lat="45.37666357409599" lon="9.217372309932696"><ele>101.4</ele><time>2026-04-12T09:41:59Z</time></trkpt><trkpt lat="45.37675150405749" lon="9.217344443584155"><ele>101.0</ele><time>2026-04-12T09:42:01Z</time></trkpt><trkpt lat="45.376838925878715" lon="9.217320018692023"><ele>101.0</ele><time>2026-04-12T09:42:03Z</time></trkpt><trkpt lat="45.37692766606375" lon="9.21729752269832"><ele>101.0</ele><time>2026-04-12T09:42:05Z</time></trkpt><trkpt lat="45.3770190313598" lon="9.217271139585234"><ele>101.0</ele><time>2026-04-12T09:42:07Z</time></trkpt><trkpt lat="45.3771111475648" lon="9.217249637191843"><ele>101.0</ele><time>2026-04-12T09:42:09Z</time></trkpt><trkpt lat="45.377199671189494" lon="9.217221675390881"><ele>101.0</ele><time>2026-04-12T09:42:11Z</time></trkpt><trkpt lat="45.37728965767203" lon="9.217197650025025"><ele>101.0</ele><time>2026-04-12T09:42:13Z</time></trkpt><trkpt lat="45.377377786273364" lon="9.217173073354472"><ele>101.0</ele><time>2026-04-12T09:42:15Z</time></trkpt><trkpt lat="45.377464571703186" lon="9.217159257992261"><ele>101.0</ele><time>2026-04-12T09:42:17Z</time></trkpt><trkpt lat="45.37753630392947" lon="9.217246650704574"><ele>101.0</ele><time>2026-04-12T09:42:19Z</time></trkpt><trkpt lat="45.37755331906454" lon="9.217387038000412"><ele>101.0</ele><time>2026-04-12T09:42:21Z</time></trkpt><trkpt lat="45.3775560799889" lon="9.21751594851909"><ele>100.99999999999999</ele><time>2026-04-12T09:42:23Z</time></trkpt><trkpt lat="45.377573781018945" lon="9.217643504950825"><ele>101.0</ele><time>2026-04-12T09:42:25Z</time></trkpt><trkpt lat="45.37759365433326" lon="9.217761019073391"><ele>101.0</ele><time>2026-04-12T09:42:27Z</time></trkpt><trkpt lat="45.3776132685896" lon="9.217869780612324"><ele>101.0</ele><time>2026-04-12T09:42:29Z</time></trkpt><trkpt lat="45.377685902928114" lon="9.217906058618338"><ele>100.99999999999999</ele><time>2026-04-12T09:42:31Z</time></trkpt><trkpt lat="45.37776692089105" lon="9.217886592216615"><ele>101.0</ele><time>2026-04-12T09:42:33Z</time></trkpt><trkpt lat="45.377846545616656" lon="9.21786983063412"><ele>100.99999999999999</ele><time>2026-04-12T09:42:35Z</time></trkpt><trkpt lat="45.37792894423766" lon="9.217847880737017"><ele>101.0</ele><time>2026-04-12T09:42:37Z</time></trkpt><trkpt lat="45.37801106164634" lon="9.217829566719091"><ele>101.0</ele><time>2026-04-12T09:42:39Z</time></trkpt><trkpt lat="45.37809492140638" lon="9.217810492122455"><ele>101.0</ele><time>2026-04-12T09:42:41Z</time></trkpt><trkpt lat="45.3781801713007" lon="9.217786908899178"><ele>100.99999999999999</ele><time>2026-04-12T09:42:43.001Z</time></trkpt><trkpt lat="45.37826587715569" lon="9.217772552155997"><ele>101.0</ele><time>2026-04-12T09:42:45.001Z</time></trkpt><trkpt lat="45.37834995151473" lon="9.217759758464151"><ele>100.99999999999999</ele><time>2026-04-12T09:42:47.001Z</time></trkpt><trkpt lat="45.378433180653374" lon="9.21773065951073"><ele>101.0</ele><time>2026-04-12T09:42:49.001Z</time></trkpt><trkpt lat="45.378516457645816" lon="9.217713186371453"><ele>101.0</ele><time>2026-04-12T09:42:51.001Z</time></trkpt><trkpt lat="45.37859955740146" lon="9.217694242037162"><ele>101.0</ele><time>2026-04-12T09:42:53.001Z</time></trkpt><trkpt lat="45.378684336691634" lon="9.217679911548574"><ele>100.99999999999999</ele><time>2026-04-12T09:42:55.001Z</time></trkpt><trkpt lat="45.37876747955971" lon="9.217659446306746"><ele>101.0</ele><time>2026-04-12T09:42:57.001Z</time></trkpt><trkpt lat="45.37884933999715" lon="9.217624101814792"><ele>100.66666666666666</ele><time>2026-04-12T09:42:59.001Z</time></trkpt><trkpt lat="45.378928415366545" lon="9.21761559024794"><ele>100.33333333333333</ele><time>2026-04-12T09:43:01.001Z</time></trkpt><trkpt lat="45.37897690871862" lon="9.217721023375704"><ele>100.0</ele><time>2026-04-12T09:43:04.001Z</time></trkpt><trkpt lat="45.378992597279336" lon="9.217827738186221"><ele>99.66666666666666</ele><time>2026-04-12T09:43:06.001Z</time></trkpt><trkpt lat="45.379003214741594" lon="9.217931349369165"><ele>99.33333333333333</ele><time>2026-04-12T09:43:08.001Z</time></trkpt><trkpt lat="45.37902252165219" lon="9.218029649021423"><ele>99.0</ele><time>2026-04-12T09:43:10.001Z</time></trkpt><trkpt lat="45.37904240974317" lon="9.218127999143208"><ele>99.0</ele><time>2026-04-12T09:43:12.001Z</time></trkpt><trkpt lat="45.379070635239735" lon="9.218231344482923"><ele>99.0</ele><time>2026-04-12T09:43:14.001Z</time></trkpt><trkpt lat="45.37907727867039" lon="9.218350529778755"><ele>99.0</ele><time>2026-04-12T09:43:16.001Z</time></trkpt><trkpt lat="45.37910442026351" lon="9.21846363853789"><ele>99.0</ele><time>2026-04-12T09:43:18.001Z</time></trkpt><trkpt lat="45.37912478601868" lon="9.218578411375173"><ele>99.0</ele><time>2026-04-12T09:43:20.001Z</time></trkpt><trkpt lat="45.37914743497757" lon="9.21869169371769"><ele>99.0</ele><time>2026-04-12T09:43:22.001Z</time></trkpt><trkpt lat="45.37917879270162" lon="9.218800402815946"><ele>99.0</ele><time>2026-04-12T09:43:24.001Z</time></trkpt><trkpt lat="45.379220105950225" lon="9.218878777651625"><ele>99.0</ele><time>2026-04-12T09:43:26Z</time></trkpt><trkpt lat="45.37925631217709" lon="9.218990617686815"><ele>99.0</ele><time>2026-04-12T09:43:28Z</time></trkpt><trkpt lat="45.37928989814011" lon="9.219108037575612"><ele>99.0</ele><time>2026-04-12T09:43:30Z</time></trkpt><trkpt lat="45.37935530417974" lon="9.219181894708234"><ele>99.0</ele><time>2026-04-12T09:43:32Z</time></trkpt><trkpt lat="45.3794433269946" lon="9.219149619058078"><ele>99.0</ele><time>2026-04-12T09:43:34Z</time></trkpt><trkpt lat="45.379518712534484" lon="9.21911974462266"><ele>99.0</ele><time>2026-04-12T09:43:36Z</time></trkpt><trkpt lat="45.379609369848936" lon="9.21910328308097"><ele>99.0</ele><time>2026-04-12T09:43:38Z</time></trkpt><trkpt lat="45.379688938846" lon="9.219090173979165"><ele>99.0</ele><time>2026-04-12T09:43:40Z</time></trkpt><trkpt lat="45.379777561612066" lon="9.219081416471555"><ele>99.0</ele><time>2026-04-12T09:43:42Z</time></trkpt><trkpt lat="45.37986430197357" lon="9.219062820513782"><ele>99.0</ele><time>2026-04-12T09:43:44Z</time></trkpt><trkpt lat="45.37995154712794" lon="9.219040727632567"><ele>99.0</ele><time>2026-04-12T09:43:46Z</time></trkpt><trkpt lat="45.38003644047301" lon="9.219020147152188"><ele>99.16666666666667</ele><time>2026-04-12T09:43:48Z</time></trkpt><trkpt lat="45.3801238375043" lon="9.219001971833611"><ele>99.33333333333334</ele><time>2026-04-12T09:43:50Z</time></trkpt><trkpt lat="45.38020979790956" lon="9.218980304271499"><ele>99.5</ele><time>2026-04-12T09:43:52Z</time></trkpt><trkpt lat="45.380292123260084" lon="9.218967614226784"><ele>99.66666666666667</ele><time>2026-04-12T09:43:54Z</time></trkpt><trkpt lat="45.380377292018636" lon="9.218947487926462"><ele>99.83333333333334</ele><time>2026-04-12T09:43:56Z</time></trkpt><trkpt lat="45.38045936535712" lon="9.218921597363364"><ele>100.0</ele><time>2026-04-12T09:43:58Z</time></trkpt><trkpt lat="45.380547324665294" lon="9.218907132980142"><ele>100.66666666666667</ele><time>2026-04-12T09:44:00Z</time></trkpt><trkpt lat="45.38063084811904" lon="9.21888884897717"><ele>101.33333333333334</ele><time>2026-04-12T09:44:02Z</time></trkpt><trkpt lat="45.380715715677404" lon="9.21886569641982"><ele>102.0</ele><time>2026-04-12T09:44:04Z</time></trkpt><trkpt lat="45.38080062395163" lon="9.21884408127992"><ele>102.66666666666666</ele><time>2026-04-12T09:44:06Z</time></trkpt><trkpt lat="45.380884442047474" lon="9.218827178678936"><ele>103.33333333333333</ele><time>2026-04-12T09:44:08Z</time></trkpt><trkpt lat="45.38096740223236" lon="9.218812753354165"><ele>104.0</ele><time>2026-04-12T09:44:10Z</time></trkpt><trkpt lat="45.38104959056708" lon="9.218790733751034"><ele>103.99999999999999</ele><time>2026-04-12T09:44:12Z</time></trkpt><trkpt lat="45.38113074449333" lon="9.218780193290335"><ele>104.0</ele><time>2026-04-12T09:44:14Z</time></trkpt><trkpt lat="45.38121035528453" lon="9.218742745499657"><ele>104.0</ele><time>2026-04-12T09:44:16Z</time></trkpt><trkpt lat="45.38129124070873" lon="9.218715130147874"><ele>104.0</ele><time>2026-04-12T09:44:18Z</time></trkpt><trkpt lat="45.38136643591288" lon="9.21868878806647"><ele>103.99999999999999</ele><time>2026-04-12T09:44:20Z</time></trkpt><trkpt lat="45.38144962273703" lon="9.218667311290595"><ele>104.0</ele><time>2026-04-12T09:44:22Z</time></trkpt><trkpt lat="45.3815303760556" lon="9.218664223985295"><ele>103.83333333333333</ele><time>2026-04-12T09:44:24Z</time></trkpt><trkpt lat="45.38160593610413" lon="9.218650944143139"><ele>103.66666666666666</ele><time>2026-04-12T09:44:26Z</time></trkpt><trkpt lat="45.38169084206056" lon="9.21863635690538"><ele>103.5</ele><time>2026-04-12T09:44:28Z</time></trkpt><trkpt lat="45.38176733426557" lon="9.218619244453382"><ele>103.33333333333334</ele><time>2026-04-12T09:44:30Z</time></trkpt><trkpt lat="45.38183402037533" lon="9.218601318100946"><ele>103.16666666666667</ele><time>2026-04-12T09:44:32Z</time></trkpt><trkpt lat="45.381895878266135" lon="9.218512590246114"><ele>103.0</ele><time>2026-04-12T09:44:35.001Z</time></trkpt><trkpt lat="45.38192921566792" lon="9.218425053156254"><ele>103.0</ele><time>2026-04-12T09:44:37.001Z</time></trkpt><trkpt lat="45.381910736880805" lon="9.218314909197206"><ele>103.0</ele><time>2026-04-12T09:44:39.001Z</time></trkpt><trkpt lat="45.38190023369121" lon="9.218207765796567"><ele>103.0</ele><time>2026-04-12T09:44:41.001Z</time></trkpt><trkpt lat="45.38187365406924" lon="9.218104874969159"><ele>101.0</ele><time>2026-04-12T09:44:43.001Z</time></trkpt><trkpt lat="45.381854687687294" lon="9.218003551205687"><ele>101.0</ele><time>2026-04-12T09:44:45.001Z</time></trkpt><trkpt lat="45.381844308132614" lon="9.21791253860289"><ele>101.0</ele><time>2026-04-12T09:44:47.001Z</time></trkpt></trkseg></trk></gpx>